<?xml version='1.0' encoding='UTF-8'?><gpx version="1.1" creator="JPX - https://github.com/jenetics/jpx" xmlns="http://www.topografix.com/GPX/1/1"><trk><trkseg><trkpt lat="42.55750172725738" lon="13.342928055813037"><ele>1329.0</ele><time>2026-05-03T10:05:14.999Z</time></trkpt><trkpt lat="42.55750749488214" lon="13.34307519126431"><ele>1329.0</ele><time>2026-05-03T10:05:16.999Z</time></trkpt><trkpt lat="42.55752042767674" lon="13.343161865521784"><ele>1329.0</ele><time>2026-05-03T10:05:17.999Z</time></trkpt><trkpt lat="42.55754041410965" lon="13.343253428077427"><ele>1329.0</ele><time>2026-05-03T10:05:18.999Z</time></trkpt><trkpt lat="42.55755783845555" lon="13.343352358453762"><ele>1329.0</ele><time>2026-05-03T10:05:19.999Z</time></trkpt><trkpt lat="42.55757553849577" lon="13.343464337220226"><ele>1329.0</ele><time>2026-05-03T10:05:20.999Z</time></trkpt><trkpt lat="42.55760416643795" lon="13.343586533487672"><ele>1329.0</ele><time>2026-05-03T10:05:21.999Z</time></trkpt><trkpt lat="42.55764038933812" lon="13.343714420859444"><ele>1329.0</ele><time>2026-05-03T10:05:22.999Z</time></trkpt><trkpt lat="42.557687187874194" lon="13.343841907401895"><ele>1329.0</ele><time>2026-05-03T10:05:23.999Z</time></trkpt><trkpt lat="42.55774600014701" lon="13.34396451951582"><ele>1329.0</ele><time>2026-05-03T10:05:24.999Z</time></trkpt><trkpt lat="42.55782216277974" lon="13.344074374133182"><ele>1329.0</ele><time>2026-05-03T10:05:25.999Z</time></trkpt><trkpt lat="42.557914740637834" lon="13.344168617862932"><ele>1328.75</ele><time>2026-05-03T10:05:26.999Z</time></trkpt><trkpt lat="42.55802298292039" lon="13.3442354041475"><ele>1328.5</ele><time>2026-05-03T10:05:27.999Z</time></trkpt><trkpt lat="42.558142215885304" lon="13.34427088069993"><ele>1328.25</ele><time>2026-05-03T10:05:28.999Z</time></trkpt><trkpt lat="42.558266083574495" lon="13.344268728849919"><ele>1328.0</ele><time>2026-05-03T10:05:29.999Z</time></trkpt><trkpt lat="42.558387124685254" lon="13.344240675549068"><ele>1328.0</ele><time>2026-05-03T10:05:30.999Z</time></trkpt><trkpt lat="42.5585049295858" lon="13.344171168789655"><ele>1328.0</ele><time>2026-05-03T10:05:31.999Z</time></trkpt><trkpt lat="42.558626912998974" lon="13.344099483907387"><ele>1328.0</ele><time>2026-05-03T10:05:32.999Z</time></trkpt><trkpt lat="42.558750002043" lon="13.344030578858746"><ele>1328.0</ele><time>2026-05-03T10:05:33.999Z</time></trkpt><trkpt lat="42.55887946626808" lon="13.343965284273791"><ele>1327.25</ele><time>2026-05-03T10:05:34.999Z</time></trkpt><trkpt lat="42.55901375421013" lon="13.343903289392573"><ele>1326.5</ele><time>2026-05-03T10:05:35.999Z</time></trkpt><trkpt lat="42.55915355140755" lon="13.343848093700688"><ele>1325.75</ele><time>2026-05-03T10:05:36.999Z</time></trkpt><trkpt lat="42.55929796363064" lon="13.343802198698773"><ele>1325.0</ele><time>2026-05-03T10:05:37.999Z</time></trkpt><trkpt lat="42.55944586472326" lon="13.343766657999112"><ele>1330.6666666666667</ele><time>2026-05-03T10:05:38.999Z</time></trkpt><trkpt lat="42.55959827530229" lon="13.343737401241722"><ele>1336.3333333333333</ele><time>2026-05-03T10:05:39.999Z</time></trkpt><trkpt lat="42.5597546630598" lon="13.343709978374186"><ele>1342.0</ele><time>2026-05-03T10:05:40.999Z</time></trkpt><trkpt lat="42.559915043170626" lon="13.343689158528088"><ele>1342.0</ele><time>2026-05-03T10:05:41.999Z</time></trkpt><trkpt lat="42.5600786870145" lon="13.343671338969344"><ele>1342.0</ele><time>2026-05-03T10:05:42.999Z</time></trkpt><trkpt lat="42.560241255733914" lon="13.34365360007249"><ele>1342.0</ele><time>2026-05-03T10:05:43.999Z</time></trkpt><trkpt lat="42.56040862534547" lon="13.343633944223683"><ele>1340.3333333333333</ele><time>2026-05-03T10:05:44.999Z</time></trkpt><trkpt lat="42.560572075611454" lon="13.343611644035242"><ele>1338.6666666666667</ele><time>2026-05-03T10:05:45.999Z</time></trkpt><trkpt lat="42.56072728262912" lon="13.343590499644014"><ele>1337.0</ele><time>2026-05-03T10:05:46.999Z</time></trkpt><trkpt lat="42.560877510928286" lon="13.343569966298954"><ele>1337.0</ele><time>2026-05-03T10:05:47.998Z</time></trkpt><trkpt lat="42.56102850294264" lon="13.34355961708745"><ele>1337.0</ele><time>2026-05-03T10:05:48.998Z</time></trkpt><trkpt lat="42.561184204447564" lon="13.343576883799148"><ele>1337.0</ele><time>2026-05-03T10:05:49.998Z</time></trkpt><trkpt lat="42.56133722501009" lon="13.343615391766196"><ele>1338.5</ele><time>2026-05-03T10:05:50.998Z</time></trkpt><trkpt lat="42.561476363589335" lon="13.343690199501799"><ele>1340.0</ele><time>2026-05-03T10:05:51.998Z</time></trkpt><trkpt lat="42.56162042020335" lon="13.343736479607589"><ele>1341.5</ele><time>2026-05-03T10:05:52.998Z</time></trkpt><trkpt lat="42.56175297975859" lon="13.34380731736142"><ele>1343.0</ele><time>2026-05-03T10:05:53.998Z</time></trkpt><trkpt lat="42.56188410833859" lon="13.34387269034494"><ele>1340.75</ele><time>2026-05-03T10:05:54.998Z</time></trkpt><trkpt lat="42.5620110737428" lon="13.343934940993941"><ele>1338.5</ele><time>2026-05-03T10:05:55.998Z</time></trkpt><trkpt lat="42.56212919505603" lon="13.344004242063363"><ele>1336.25</ele><time>2026-05-03T10:05:56.998Z</time></trkpt><trkpt lat="42.562218171489675" lon="13.344100596359926"><ele>1334.0</ele><time>2026-05-03T10:05:57.998Z</time></trkpt><trkpt lat="42.56227992761508" lon="13.34422260157452"><ele>1334.0</ele><time>2026-05-03T10:05:58.998Z</time></trkpt><trkpt lat="42.56230471177607" lon="13.344374304037075"><ele>1334.0</ele><time>2026-05-03T10:05:59.998Z</time></trkpt><trkpt lat="42.562312110093394" lon="13.344541759822746"><ele>1334.0</ele><time>2026-05-03T10:06:00.998Z</time></trkpt><trkpt lat="42.56231056204514" lon="13.344715789577638"><ele>1334.0</ele><time>2026-05-03T10:06:01.998Z</time></trkpt><trkpt lat="42.56229352733378" lon="13.344889852420625"><ele>1334.0</ele><time>2026-05-03T10:06:02.998Z</time></trkpt><trkpt lat="42.562263423056145" lon="13.345045585023723"><ele>1334.0</ele><time>2026-05-03T10:06:03.998Z</time></trkpt><trkpt lat="42.56220511133957" lon="13.345184003496694"><ele>1334.0</ele><time>2026-05-03T10:06:04.998Z</time></trkpt><trkpt lat="42.56210544165048" lon="13.34527432201544"><ele>1334.0</ele><time>2026-05-03T10:06:05.998Z</time></trkpt><trkpt lat="42.56201305541745" lon="13.345383776825235"><ele>1333.0</ele><time>2026-05-03T10:06:06.998Z</time></trkpt><trkpt lat="42.56190676027995" lon="13.345472270847472"><ele>1332.0</ele><time>2026-05-03T10:06:07.998Z</time></trkpt><trkpt lat="42.56180461406502" lon="13.345571884702617"><ele>1331.0</ele><time>2026-05-03T10:06:08.998Z</time></trkpt><trkpt lat="42.56171702444903" lon="13.34569187179723"><ele>1330.0</ele><time>2026-05-03T10:06:09.998Z</time></trkpt><trkpt lat="42.561660834491384" lon="13.345831047630304"><ele>1330.0</ele><time>2026-05-03T10:06:10.998Z</time></trkpt><trkpt lat="42.561644422246225" lon="13.345984227556094"><ele>1330.0</ele><time>2026-05-03T10:06:11.998Z</time></trkpt><trkpt lat="42.561665324352" lon="13.346145052388675"><ele>1330.0</ele><time>2026-05-03T10:06:12.998Z</time></trkpt><trkpt lat="42.561720425019665" lon="13.34629625185153"><ele>1330.0</ele><time>2026-05-03T10:06:13.999Z</time></trkpt><trkpt lat="42.561802953277144" lon="13.346426243226617"><ele>1329.25</ele><time>2026-05-03T10:06:14.999Z</time></trkpt><trkpt lat="42.56190877102891" lon="13.346531446859894"><ele>1328.5</ele><time>2026-05-03T10:06:15.999Z</time></trkpt><trkpt lat="42.56203198054108" lon="13.346612395930835"><ele>1327.75</ele><time>2026-05-03T10:06:16.999Z</time></trkpt><trkpt lat="42.56216266151421" lon="13.346681579640158"><ele>1327.0</ele><time>2026-05-03T10:06:17.999Z</time></trkpt><trkpt lat="42.56229061021112" lon="13.346758079385362"><ele>1330.5</ele><time>2026-05-03T10:06:18.999Z</time></trkpt><trkpt lat="42.56240964302969" lon="13.346839996854063"><ele>1334.0</ele><time>2026-05-03T10:06:19.999Z</time></trkpt><trkpt lat="42.56251240408656" lon="13.346927508264454"><ele>1337.5</ele><time>2026-05-03T10:06:20.999Z</time></trkpt><trkpt lat="42.56258238731276" lon="13.347039445749017"><ele>1341.0</ele><time>2026-05-03T10:06:21.999Z</time></trkpt><trkpt lat="42.56261794038103" lon="13.347182560594021"><ele>1339.0</ele><time>2026-05-03T10:06:22.999Z</time></trkpt><trkpt lat="42.56262303091948" lon="13.347347851399416"><ele>1337.0</ele><time>2026-05-03T10:06:23.999Z</time></trkpt><trkpt lat="42.56258063417974" lon="13.347515343191859"><ele>1335.0</ele><time>2026-05-03T10:06:24.999Z</time></trkpt><trkpt lat="42.56255554080634" lon="13.347699308847972"><ele>1333.0</ele><time>2026-05-03T10:06:25.999Z</time></trkpt><trkpt lat="42.562478976663925" lon="13.34786260052516"><ele>1333.0</ele><time>2026-05-03T10:06:26.999Z</time></trkpt><trkpt lat="42.56237311824615" lon="13.348000943097409"><ele>1333.0</ele><time>2026-05-03T10:06:27.999Z</time></trkpt><trkpt lat="42.56225570460934" lon="13.348124984000364"><ele>1333.0</ele><time>2026-05-03T10:06:28.999Z</time></trkpt><trkpt lat="42.562134394490336" lon="13.348252339682936"><ele>1333.0</ele><time>2026-05-03T10:06:29.999Z</time></trkpt><trkpt lat="42.56201492334092" lon="13.348389594101748"><ele>1331.0</ele><time>2026-05-03T10:06:30.999Z</time></trkpt><trkpt lat="42.56189850797209" lon="13.348541190666383"><ele>1329.0</ele><time>2026-05-03T10:06:31.999Z</time></trkpt><trkpt lat="42.56178533963586" lon="13.34870368818715"><ele>1327.0</ele><time>2026-05-03T10:06:32.999Z</time></trkpt><trkpt lat="42.56167694913583" lon="13.348871041401352"><ele>1328.0</ele><time>2026-05-03T10:06:33.999Z</time></trkpt><trkpt lat="42.561572646114094" lon="13.349029436647955"><ele>1329.0</ele><time>2026-05-03T10:06:34.999Z</time></trkpt><trkpt lat="42.561476275568076" lon="13.349174417679489"><ele>1330.0</ele><time>2026-05-03T10:06:35.999Z</time></trkpt><trkpt lat="42.56139318473832" lon="13.349311216878096"><ele>1331.0</ele><time>2026-05-03T10:06:36.999Z</time></trkpt><trkpt lat="42.56132504959119" lon="13.349441077297458"><ele>1331.0</ele><time>2026-05-03T10:06:37.999Z</time></trkpt><trkpt lat="42.5612907476916" lon="13.34957335542739"><ele>1331.0</ele><time>2026-05-03T10:06:38.999Z</time></trkpt><trkpt lat="42.561296700665835" lon="13.349723547029098"><ele>1331.0</ele><time>2026-05-03T10:06:39.999Z</time></trkpt><trkpt lat="42.56133593071624" lon="13.34987557430777"><ele>1331.0</ele><time>2026-05-03T10:06:40.999Z</time></trkpt><trkpt lat="42.56139864270903" lon="13.350021898041208"><ele>1331.5</ele><time>2026-05-03T10:06:41.999Z</time></trkpt><trkpt lat="42.56148304013821" lon="13.35014265835715"><ele>1332.0</ele><time>2026-05-03T10:06:42.999Z</time></trkpt><trkpt lat="42.561597686736754" lon="13.350201796483166"><ele>1332.5</ele><time>2026-05-03T10:06:43.999Z</time></trkpt><trkpt lat="42.56171205490025" lon="13.35022703350112"><ele>1333.0</ele><time>2026-05-03T10:06:44.999Z</time></trkpt><trkpt lat="42.56182730390498" lon="13.35019742143409"><ele>1333.0</ele><time>2026-05-03T10:06:45.999Z</time></trkpt><trkpt lat="42.561933760800486" lon="13.35012490372993"><ele>1333.0</ele><time>2026-05-03T10:06:46.999Z</time></trkpt><trkpt lat="42.562033541056614" lon="13.350017235923643"><ele>1333.0</ele><time>2026-05-03T10:06:47.999Z</time></trkpt><trkpt lat="42.562136415825506" lon="13.349902413509014"><ele>1333.0</ele><time>2026-05-03T10:06:48.999Z</time></trkpt><trkpt lat="42.56224779756647" lon="13.349776939068331"><ele>1333.5</ele><time>2026-05-03T10:06:49.999Z</time></trkpt><trkpt lat="42.56236227533756" lon="13.349650308167433"><ele>1334.0</ele><time>2026-05-03T10:06:50.999Z</time></trkpt><trkpt lat="42.562478686828314" lon="13.349528982320807"><ele>1334.5</ele><time>2026-05-03T10:06:51.999Z</time></trkpt><trkpt lat="42.56259620460909" lon="13.349432486166256"><ele>1335.0</ele><time>2026-05-03T10:06:52.999Z</time></trkpt><trkpt lat="42.562727936337794" lon="13.349390092464224"><ele>1335.0</ele><time>2026-05-03T10:06:53.999Z</time></trkpt><trkpt lat="42.562861342321725" lon="13.34935941737092"><ele>1335.0</ele><time>2026-05-03T10:06:54.999Z</time></trkpt><trkpt lat="42.56300069907202" lon="13.34943459288662"><ele>1335.0</ele><time>2026-05-03T10:06:55.999Z</time></trkpt><trkpt lat="42.563149356903686" lon="13.349503505603229"><ele>1335.0</ele><time>2026-05-03T10:06:56.999Z</time></trkpt><trkpt lat="42.5633064015316" lon="13.349570012335901"><ele>1334.6666666666667</ele><time>2026-05-03T10:06:57.999Z</time></trkpt><trkpt lat="42.56346083937318" lon="13.349661234376866"><ele>1334.3333333333335</ele><time>2026-05-03T10:06:58.999Z</time></trkpt><trkpt lat="42.5636115359504" lon="13.349738481149009"><ele>1334.0</ele><time>2026-05-03T10:06:59.999Z</time></trkpt><trkpt lat="42.563746005489044" lon="13.349813633965942"><ele>1334.0</ele><time>2026-05-03T10:07:00.999Z</time></trkpt><trkpt lat="42.56385294591064" lon="13.349900412230074"><ele>1334.0</ele><time>2026-05-03T10:07:01.999Z</time></trkpt><trkpt lat="42.56392957326519" lon="13.350019475489113"><ele>1334.0</ele><time>2026-05-03T10:07:02.999Z</time></trkpt><trkpt lat="42.56394959777285" lon="13.350184518753698"><ele>1334.0</ele><time>2026-05-03T10:07:03.999Z</time></trkpt><trkpt lat="42.56396232419279" lon="13.350360678751999"><ele>1334.25</ele><time>2026-05-03T10:07:04.999Z</time></trkpt><trkpt lat="42.56396861247941" lon="13.350548888497753"><ele>1334.5</ele><time>2026-05-03T10:07:05.999Z</time></trkpt><trkpt lat="42.563977185468424" lon="13.350745972005917"><ele>1334.75</ele><time>2026-05-03T10:07:06.999Z</time></trkpt><trkpt lat="42.56394478351395" lon="13.350929815520692"><ele>1335.0</ele><time>2026-05-03T10:07:07.999Z</time></trkpt><trkpt lat="42.56387933375429" lon="13.351088504879892"><ele>1335.0</ele><time>2026-05-03T10:07:08.999Z</time></trkpt><trkpt lat="42.5637781258302" lon="13.351214955665169"><ele>1335.0</ele><time>2026-05-03T10:07:09.999Z</time></trkpt><trkpt lat="42.56365658658727" lon="13.351323811417235"><ele>1335.0</ele><time>2026-05-03T10:07:10.999Z</time></trkpt><trkpt lat="42.563534081882366" lon="13.351432262439037"><ele>1335.0</ele><time>2026-05-03T10:07:11.999Z</time></trkpt><trkpt lat="42.56341354090062" lon="13.35155765829643"><ele>1333.6666666666667</ele><time>2026-05-03T10:07:12.999Z</time></trkpt><trkpt lat="42.563306239659155" lon="13.351719743788657"><ele>1332.3333333333335</ele><time>2026-05-03T10:07:13.999Z</time></trkpt><trkpt lat="42.56321097874027" lon="13.351906759689692"><ele>1331.0</ele><time>2026-05-03T10:07:14.999Z</time></trkpt><trkpt lat="42.563119421707526" lon="13.352101008388313"><ele>1329.6666666666667</ele><time>2026-05-03T10:07:15.999Z</time></trkpt><trkpt lat="42.563025149742124" lon="13.352300840286246"><ele>1328.3333333333333</ele><time>2026-05-03T10:07:16.999Z</time></trkpt><trkpt lat="42.56293833222357" lon="13.352491311911916"><ele>1327.0</ele><time>2026-05-03T10:07:17.999Z</time></trkpt><trkpt lat="42.56285590564618" lon="13.352668383697896"><ele>1327.0</ele><time>2026-05-03T10:07:18.999Z</time></trkpt><trkpt lat="42.56278267844965" lon="13.35283816387493"><ele>1327.0</ele><time>2026-05-03T10:07:19.999Z</time></trkpt><trkpt lat="42.56273327864188" lon="13.353010754821284"><ele>1327.0</ele><time>2026-05-03T10:07:20.999Z</time></trkpt><trkpt lat="42.56270957451392" lon="13.353187288933603"><ele>1327.0</ele><time>2026-05-03T10:07:21.999Z</time></trkpt><trkpt lat="42.562718917787855" lon="13.35336935184888"><ele>1327.25</ele><time>2026-05-03T10:07:22.999Z</time></trkpt><trkpt lat="42.56276359419441" lon="13.353546330789468"><ele>1327.5</ele><time>2026-05-03T10:07:23.999Z</time></trkpt><trkpt lat="42.56283814429113" lon="13.353702835433834"><ele>1327.75</ele><time>2026-05-03T10:07:24.999Z</time></trkpt><trkpt lat="42.56293929545419" lon="13.353833156153216"><ele>1328.0</ele><time>2026-05-03T10:07:25.999Z</time></trkpt><trkpt lat="42.56306393417456" lon="13.353934866128455"><ele>1329.0</ele><time>2026-05-03T10:07:26.999Z</time></trkpt><trkpt lat="42.56319932857583" lon="13.354022844155859"><ele>1330.0</ele><time>2026-05-03T10:07:27.999Z</time></trkpt><trkpt lat="42.563325662076345" lon="13.35411267524116"><ele>1331.0</ele><time>2026-05-03T10:07:28.999Z</time></trkpt><trkpt lat="42.56343203591745" lon="13.354216938549861"><ele>1332.0</ele><time>2026-05-03T10:07:29.999Z</time></trkpt><trkpt lat="42.563512202693275" lon="13.35434348975589"><ele>1332.0</ele><time>2026-05-03T10:07:30.999Z</time></trkpt><trkpt lat="42.56355056745744" lon="13.354493696574453"><ele>1332.0</ele><time>2026-05-03T10:07:31.999Z</time></trkpt><trkpt lat="42.56355269858898" lon="13.354654180250506"><ele>1332.0</ele><time>2026-05-03T10:07:32.999Z</time></trkpt><trkpt lat="42.563518672717905" lon="13.354808870092242"><ele>1332.0</ele><time>2026-05-03T10:07:33.999Z</time></trkpt><trkpt lat="42.56345134572168" lon="13.354933435628027"><ele>1332.25</ele><time>2026-05-03T10:07:34.999Z</time></trkpt><trkpt lat="42.56335103537759" lon="13.355017642814648"><ele>1332.5</ele><time>2026-05-03T10:07:35.999Z</time></trkpt><trkpt lat="42.56323308718002" lon="13.355055974595308"><ele>1332.75</ele><time>2026-05-03T10:07:36.999Z</time></trkpt><trkpt lat="42.56309749929535" lon="13.35503923111786"><ele>1333.0</ele><time>2026-05-03T10:07:37.999Z</time></trkpt><trkpt lat="42.562946457899734" lon="13.355070562778605"><ele>1332.0</ele><time>2026-05-03T10:07:38.999Z</time></trkpt><trkpt lat="42.5627849104246" lon="13.355072329623109"><ele>1331.0</ele><time>2026-05-03T10:07:39.999Z</time></trkpt><trkpt lat="42.562623238674604" lon="13.355079641355484"><ele>1330.0</ele><time>2026-05-03T10:07:40.999Z</time></trkpt><trkpt lat="42.56246102296642" lon="13.355101909463333"><ele>1330.0</ele><time>2026-05-03T10:07:41.999Z</time></trkpt><trkpt lat="42.56230566275075" lon="13.355125645901902"><ele>1330.0</ele><time>2026-05-03T10:07:42.999Z</time></trkpt><trkpt lat="42.56216652977509" lon="13.355154492826722"><ele>1330.0</ele><time>2026-05-03T10:07:43.999Z</time></trkpt><trkpt lat="42.56204424107811" lon="13.355209849906569"><ele>1330.0</ele><time>2026-05-03T10:07:44.999Z</time></trkpt><trkpt lat="42.56194372493234" lon="13.355297951208525"><ele>1330.0</ele><time>2026-05-03T10:07:45.998Z</time></trkpt><trkpt lat="42.56186418444935" lon="13.355425618787127"><ele>1330.0</ele><time>2026-05-03T10:07:46.998Z</time></trkpt><trkpt lat="42.56181657896502" lon="13.355579999336602"><ele>1330.0</ele><time>2026-05-03T10:07:47.998Z</time></trkpt><trkpt lat="42.56180603287892" lon="13.355745244212157"><ele>1330.0</ele><time>2026-05-03T10:07:48.998Z</time></trkpt><trkpt lat="42.56182771154249" lon="13.355919969174424"><ele>1330.0</ele><time>2026-05-03T10:07:49.998Z</time></trkpt><trkpt lat="42.56187091145348" lon="13.356095457005397"><ele>1330.0</ele><time>2026-05-03T10:07:50.998Z</time></trkpt><trkpt lat="42.56193866966118" lon="13.356271834986705"><ele>1330.0</ele><time>2026-05-03T10:07:51.998Z</time></trkpt><trkpt lat="42.562016298621884" lon="13.35644725315271"><ele>1330.0</ele><time>2026-05-03T10:07:52.998Z</time></trkpt><trkpt lat="42.56208299463307" lon="13.356648164993723"><ele>1329.8</ele><time>2026-05-03T10:07:53.998Z</time></trkpt><trkpt lat="42.56212054933" lon="13.356766340286994"><ele>1329.6</ele><time>2026-05-03T10:07:54.998Z</time></trkpt><trkpt lat="42.562095478167485" lon="13.356932086545092"><ele>1329.4</ele><time>2026-05-03T10:07:55.998Z</time></trkpt><trkpt lat="42.56205517957484" lon="13.35706043854894"><ele>1329.2</ele><time>2026-05-03T10:07:56.998Z</time></trkpt><trkpt lat="42.56198933563809" lon="13.357164771266454"><ele>1329.0</ele><time>2026-05-03T10:07:57.998Z</time></trkpt><trkpt lat="42.56189997479234" lon="13.35723573975823"><ele>1329.0</ele><time>2026-05-03T10:07:58.998Z</time></trkpt><trkpt lat="42.56179554993876" lon="13.357286306134654"><ele>1329.0</ele><time>2026-05-03T10:07:59.998Z</time></trkpt><trkpt lat="42.56168243414428" lon="13.357357868639681"><ele>1329.0</ele><time>2026-05-03T10:08:00.998Z</time></trkpt><trkpt lat="42.56156575381622" lon="13.357431220949417"><ele>1329.0</ele><time>2026-05-03T10:08:01.998Z</time></trkpt><trkpt lat="42.56145794841955" lon="13.357525262674784"><ele>1329.0</ele><time>2026-05-03T10:08:02.998Z</time></trkpt><trkpt lat="42.56136098711869" lon="13.357604499393121"><ele>1329.0</ele><time>2026-05-03T10:08:03.998Z</time></trkpt><trkpt lat="42.561284459870315" lon="13.357704797691405"><ele>1329.0</ele><time>2026-05-03T10:08:04.998Z</time></trkpt><trkpt lat="42.561232954318754" lon="13.357832910732137"><ele>1329.0</ele><time>2026-05-03T10:08:05.998Z</time></trkpt><trkpt lat="42.5612202986881" lon="13.35799131030675"><ele>1329.0</ele><time>2026-05-03T10:08:06.998Z</time></trkpt><trkpt lat="42.561240199580546" lon="13.358157669238745"><ele>1328.75</ele><time>2026-05-03T10:08:07.998Z</time></trkpt><trkpt lat="42.56129137200535" lon="13.358308921271242"><ele>1328.5</ele><time>2026-05-03T10:08:08.998Z</time></trkpt><trkpt lat="42.56137354228243" lon="13.358428664998623"><ele>1328.25</ele><time>2026-05-03T10:08:09.998Z</time></trkpt><trkpt lat="42.56148100325428" lon="13.358511018617936"><ele>1328.0</ele><time>2026-05-03T10:08:10.998Z</time></trkpt><trkpt lat="42.5616141430796" lon="13.35855234922696"><ele>1328.0</ele><time>2026-05-03T10:08:11.998Z</time></trkpt><trkpt lat="42.561755185942836" lon="13.358588501924793"><ele>1328.0</ele><time>2026-05-03T10:08:12.998Z</time></trkpt><trkpt lat="42.561902010455334" lon="13.358632530088665"><ele>1328.0</ele><time>2026-05-03T10:08:13.998Z</time></trkpt><trkpt lat="42.56205577924814" lon="13.358689860569836"><ele>1329.3333333333335</ele><time>2026-05-03T10:08:14.998Z</time></trkpt><trkpt lat="42.56221043856884" lon="13.358747017628664"><ele>1330.6666666666667</ele><time>2026-05-03T10:08:15.998Z</time></trkpt><trkpt lat="42.56236374708153" lon="13.358804955906683"><ele>1332.0</ele><time>2026-05-03T10:08:16.998Z</time></trkpt><trkpt lat="42.56251368676614" lon="13.358864252665217"><ele>1332.25</ele><time>2026-05-03T10:08:17.998Z</time></trkpt><trkpt lat="42.56264739607487" lon="13.358915874487947"><ele>1332.5</ele><time>2026-05-03T10:08:18.998Z</time></trkpt><trkpt lat="42.56277754358854" lon="13.358968922790208"><ele>1332.75</ele><time>2026-05-03T10:08:19.999Z</time></trkpt><trkpt lat="42.56290567031219" lon="13.359041075776846"><ele>1333.0</ele><time>2026-05-03T10:08:20.999Z</time></trkpt><trkpt lat="42.56302705761454" lon="13.359156086645255"><ele>1333.0</ele><time>2026-05-03T10:08:21.999Z</time></trkpt><trkpt lat="42.56313814291172" lon="13.35929553041204"><ele>1333.0</ele><time>2026-05-03T10:08:22.999Z</time></trkpt><trkpt lat="42.56322221599997" lon="13.359470060839161"><ele>1333.0</ele><time>2026-05-03T10:08:23.999Z</time></trkpt><trkpt lat="42.56331075477822" lon="13.359635606609693"><ele>1331.6666666666665</ele><time>2026-05-03T10:08:24.999Z</time></trkpt><trkpt lat="42.56341499269071" lon="13.359789445823857"><ele>1330.3333333333333</ele><time>2026-05-03T10:08:25.999Z</time></trkpt><trkpt lat="42.56351075609472" lon="13.359954197862596"><ele>1329.0</ele><time>2026-05-03T10:08:26.999Z</time></trkpt><trkpt lat="42.56361818882459" lon="13.36010664385384"><ele>1329.5</ele><time>2026-05-03T10:08:27.999Z</time></trkpt><trkpt lat="42.56372656632752" lon="13.3602543869252"><ele>1330.0</ele><time>2026-05-03T10:08:28.999Z</time></trkpt><trkpt lat="42.563825257992534" lon="13.3603985044946"><ele>1330.5</ele><time>2026-05-03T10:08:29.999Z</time></trkpt><trkpt lat="42.56391181772055" lon="13.360538375804007"><ele>1331.0</ele><time>2026-05-03T10:08:30.999Z</time></trkpt><trkpt lat="42.563975188620105" lon="13.3606854275988"><ele>1331.0</ele><time>2026-05-03T10:08:31.999Z</time></trkpt><trkpt lat="42.56400977819121" lon="13.360840291082194"><ele>1331.0</ele><time>2026-05-03T10:08:32.999Z</time></trkpt><trkpt lat="42.56398040065296" lon="13.361019148706635"><ele>1331.0</ele><time>2026-05-03T10:08:33.999Z</time></trkpt><trkpt lat="42.56396353578907" lon="13.361206769631618"><ele>1331.0</ele><time>2026-05-03T10:08:34.999Z</time></trkpt><trkpt lat="42.563942033563656" lon="13.36139917552112"><ele>1331.6666666666667</ele><time>2026-05-03T10:08:35.999Z</time></trkpt><trkpt lat="42.56393670300203" lon="13.361602942104057"><ele>1332.3333333333333</ele><time>2026-05-03T10:08:36.999Z</time></trkpt><trkpt lat="42.56391073994505" lon="13.361807349138688"><ele>1333.0</ele><time>2026-05-03T10:08:37.999Z</time></trkpt><trkpt lat="42.56388712659185" lon="13.362011190819333"><ele>1333.75</ele><time>2026-05-03T10:08:38.999Z</time></trkpt><trkpt lat="42.5638665706144" lon="13.362219475172626"><ele>1334.5</ele><time>2026-05-03T10:08:39.999Z</time></trkpt><trkpt lat="42.563843968672245" lon="13.362410777461603"><ele>1335.25</ele><time>2026-05-03T10:08:40.999Z</time></trkpt><trkpt lat="42.56382037995724" lon="13.362573390299303"><ele>1336.0</ele><time>2026-05-03T10:08:41.999Z</time></trkpt><trkpt lat="42.5637786460867" lon="13.362704701783008"><ele>1336.0</ele><time>2026-05-03T10:08:42.999Z</time></trkpt><trkpt lat="42.563705397320376" lon="13.36279532089804"><ele>1336.0</ele><time>2026-05-03T10:08:43.999Z</time></trkpt><trkpt lat="42.563610367451645" lon="13.362828759097008"><ele>1336.0</ele><time>2026-05-03T10:08:44.999Z</time></trkpt><trkpt lat="42.563512763016526" lon="13.362769481345289"><ele>1336.0</ele><time>2026-05-03T10:08:45.999Z</time></trkpt><trkpt lat="42.56340356313924" lon="13.362722449968034"><ele>1336.0</ele><time>2026-05-03T10:08:46.999Z</time></trkpt><trkpt lat="42.56329541886188" lon="13.36262205606578"><ele>1335.75</ele><time>2026-05-03T10:08:47.999Z</time></trkpt><trkpt lat="42.56317873854558" lon="13.362513736264427"><ele>1335.5</ele><time>2026-05-03T10:08:48.999Z</time></trkpt><trkpt lat="42.563055453816546" lon="13.36241082597364"><ele>1335.25</ele><time>2026-05-03T10:08:49.999Z</time></trkpt><trkpt lat="42.562926463203596" lon="13.362313129423894"><ele>1335.0</ele><time>2026-05-03T10:08:50.999Z</time></trkpt><trkpt lat="42.56279062989669" lon="13.362234097213554"><ele>1333.0</ele><time>2026-05-03T10:08:51.999Z</time></trkpt><trkpt lat="42.56265410391553" lon="13.362147850390338"><ele>1331.0</ele><time>2026-05-03T10:08:52.999Z</time></trkpt><trkpt lat="42.56251123965685" lon="13.362118619788093"><ele>1329.0</ele><time>2026-05-03T10:08:53.999Z</time></trkpt><trkpt lat="42.56237239948107" lon="13.362091207758178"><ele>1327.0</ele><time>2026-05-03T10:08:54.999Z</time></trkpt><trkpt lat="42.56222662116939" lon="13.362102361663574"><ele>1327.0</ele><time>2026-05-03T10:08:55.999Z</time></trkpt><trkpt lat="42.562078595363175" lon="13.362149630505352"><ele>1327.0</ele><time>2026-05-03T10:08:56.999Z</time></trkpt><trkpt lat="42.56193110347588" lon="13.362229724755831"><ele>1327.0</ele><time>2026-05-03T10:08:57.999Z</time></trkpt><trkpt lat="42.56179169967162" lon="13.362315630376393"><ele>1330.75</ele><time>2026-05-03T10:08:58.999Z</time></trkpt><trkpt lat="42.5616685661636" lon="13.362395982577775"><ele>1334.5</ele><time>2026-05-03T10:08:59.999Z</time></trkpt><trkpt lat="42.561561430750906" lon="13.362477368839807"><ele>1338.25</ele><time>2026-05-03T10:09:00.999Z</time></trkpt><trkpt lat="42.561474571458554" lon="13.362580127913493"><ele>1342.0</ele><time>2026-05-03T10:09:01.999Z</time></trkpt><trkpt lat="42.561405844521055" lon="13.362725751112237"><ele>1342.0</ele><time>2026-05-03T10:09:02.999Z</time></trkpt><trkpt lat="42.56136381675799" lon="13.362904590169405"><ele>1342.0</ele><time>2026-05-03T10:09:03.999Z</time></trkpt><trkpt lat="42.56133906680322" lon="13.363092947417915"><ele>1342.0</ele><time>2026-05-03T10:09:04.999Z</time></trkpt><trkpt lat="42.56133844213631" lon="13.363291327653327"><ele>1342.0</ele><time>2026-05-03T10:09:05.999Z</time></trkpt><trkpt lat="42.56132107111213" lon="13.363482526406042"><ele>1343.0</ele><time>2026-05-03T10:09:06.999Z</time></trkpt><trkpt lat="42.561261975293775" lon="13.363666781879854"><ele>1344.0</ele><time>2026-05-03T10:09:07.999Z</time></trkpt><trkpt lat="42.56114831734634" lon="13.363809284461697"><ele>1345.0</ele><time>2026-05-03T10:09:08.999Z</time></trkpt><trkpt lat="42.56104290961974" lon="13.363961957702884"><ele>1345.0</ele><time>2026-05-03T10:09:09.999Z</time></trkpt><trkpt lat="42.560936380829496" lon="13.364116988449878"><ele>1345.0</ele><time>2026-05-03T10:09:10.999Z</time></trkpt><trkpt lat="42.56084557442982" lon="13.36427721089767"><ele>1345.0</ele><time>2026-05-03T10:09:11.999Z</time></trkpt><trkpt lat="42.56074122155291" lon="13.364416976314248"><ele>1345.0</ele><time>2026-05-03T10:09:12.999Z</time></trkpt><trkpt lat="42.56063427247653" lon="13.364551029475559"><ele>1345.0</ele><time>2026-05-03T10:09:13.999Z</time></trkpt><trkpt lat="42.56051569135466" lon="13.364660542321555"><ele>1345.0</ele><time>2026-05-03T10:09:14.999Z</time></trkpt><trkpt lat="42.56040151301688" lon="13.364771576807778"><ele>1345.0</ele><time>2026-05-03T10:09:15.999Z</time></trkpt><trkpt lat="42.56027957488946" lon="13.364872708226867"><ele>1346.25</ele><time>2026-05-03T10:09:16.999Z</time></trkpt><trkpt lat="42.56014795470297" lon="13.364960020387068"><ele>1347.5</ele><time>2026-05-03T10:09:17.999Z</time></trkpt><trkpt lat="42.56001077074533" lon="13.365033638346617"><ele>1348.75</ele><time>2026-05-03T10:09:18.999Z</time></trkpt><trkpt lat="42.55987451612178" lon="13.365107937033242"><ele>1350.0</ele><time>2026-05-03T10:09:19.999Z</time></trkpt><trkpt lat="42.55974599801644" lon="13.365177620061276"><ele>1350.0</ele><time>2026-05-03T10:09:20.999Z</time></trkpt><trkpt lat="42.559623296910004" lon="13.365256319841386"><ele>1350.0</ele><time>2026-05-03T10:09:21.999Z</time></trkpt><trkpt lat="42.55949809419551" lon="13.365287674581252"><ele>1350.0</ele><time>2026-05-03T10:09:22.999Z</time></trkpt><trkpt lat="42.55937414320564" lon="13.365269292711721"><ele>1350.0</ele><time>2026-05-03T10:09:23.999Z</time></trkpt><trkpt lat="42.55926213833116" lon="13.365191589903715"><ele>1350.25</ele><time>2026-05-03T10:09:24.999Z</time></trkpt><trkpt lat="42.55916833505603" lon="13.365074493992772"><ele>1350.5</ele><time>2026-05-03T10:09:25.999Z</time></trkpt><trkpt lat="42.55912072127761" lon="13.36492112910527"><ele>1350.75</ele><time>2026-05-03T10:09:26.999Z</time></trkpt><trkpt lat="42.55906948010242" lon="13.364773167958258"><ele>1351.0</ele><time>2026-05-03T10:09:27.999Z</time></trkpt><trkpt lat="42.55904960530302" lon="13.364607123276757"><ele>1351.0</ele><time>2026-05-03T10:09:28.999Z</time></trkpt><trkpt lat="42.559014558462" lon="13.364459833223323"><ele>1351.0</ele><time>2026-05-03T10:09:29.999Z</time></trkpt><trkpt lat="42.55894597670977" lon="13.364344480504673"><ele>1351.0</ele><time>2026-05-03T10:09:30.999Z</time></trkpt><trkpt lat="42.558840020797426" lon="13.364264271324258"><ele>1351.0</ele><time>2026-05-03T10:09:31.999Z</time></trkpt><trkpt lat="42.55871676087604" lon="13.364216996300115"><ele>1354.0</ele><time>2026-05-03T10:09:32.999Z</time></trkpt><trkpt lat="42.558589109850146" lon="13.364194000061538"><ele>1357.0</ele><time>2026-05-03T10:09:33.999Z</time></trkpt><trkpt lat="42.55845305608532" lon="13.364188113409577"><ele>1360.0</ele><time>2026-05-03T10:09:34.999Z</time></trkpt><trkpt lat="42.55831963725232" lon="13.364178403690783"><ele>1363.0</ele><time>2026-05-03T10:09:35.999Z</time></trkpt><trkpt lat="42.55818944523222" lon="13.364172096001711"><ele>1363.0</ele><time>2026-05-03T10:09:36.999Z</time></trkpt><trkpt lat="42.55806552824865" lon="13.364167801806284"><ele>1363.0</ele><time>2026-05-03T10:09:37.999Z</time></trkpt><trkpt lat="42.557951667285586" lon="13.364175863666626"><ele>1363.0</ele><time>2026-05-03T10:09:38.999Z</time></trkpt><trkpt lat="42.55785414070727" lon="13.364210710869921"><ele>1363.0</ele><time>2026-05-03T10:09:39.999Z</time></trkpt><trkpt lat="42.55777766420978" lon="13.36429262082526"><ele>1363.0</ele><time>2026-05-03T10:09:40.999Z</time></trkpt><trkpt lat="42.557727339527695" lon="13.364413914076565"><ele>1361.8000000000002</ele><time>2026-05-03T10:09:41.999Z</time></trkpt><trkpt lat="42.55771480892449" lon="13.364538081867828"><ele>1360.6</ele><time>2026-05-03T10:09:42.999Z</time></trkpt><trkpt lat="42.55774329974219" lon="13.364652587839478"><ele>1359.4</ele><time>2026-05-03T10:09:43.999Z</time></trkpt><trkpt lat="42.557800268032956" lon="13.364761863699625"><ele>1358.1999999999998</ele><time>2026-05-03T10:09:44.999Z</time></trkpt><trkpt lat="42.55786735071821" lon="13.364875164830858"><ele>1357.0</ele><time>2026-05-03T10:09:45.999Z</time></trkpt><trkpt lat="42.557935576243686" lon="13.36499670931214"><ele>1360.1999999999998</ele><time>2026-05-03T10:09:46.999Z</time></trkpt><trkpt lat="42.5579940119551" lon="13.36512614798811"><ele>1363.4</ele><time>2026-05-03T10:09:47.999Z</time></trkpt><trkpt lat="42.5580395163051" lon="13.365267969503932"><ele>1366.6</ele><time>2026-05-03T10:09:48.999Z</time></trkpt><trkpt lat="42.55806665971031" lon="13.36541541915038"><ele>1369.8000000000002</ele><time>2026-05-03T10:09:49.999Z</time></trkpt><trkpt lat="42.55805738176296" lon="13.365566485268294"><ele>1373.0</ele><time>2026-05-03T10:09:50.999Z</time></trkpt><trkpt lat="42.55800905299531" lon="13.365698555635356"><ele>1371.25</ele><time>2026-05-03T10:09:51.999Z</time></trkpt><trkpt lat="42.557938287255254" lon="13.365806632760545"><ele>1369.5</ele><time>2026-05-03T10:09:52.999Z</time></trkpt><trkpt lat="42.55784629855841" lon="13.365911060491694"><ele>1367.75</ele><time>2026-05-03T10:09:53.999Z</time></trkpt><trkpt lat="42.55775505082826" lon="13.36600808680591"><ele>1366.0</ele><time>2026-05-03T10:09:54.999Z</time></trkpt><trkpt lat="42.55766284311462" lon="13.366110416366864"><ele>1366.0</ele><time>2026-05-03T10:09:55.999Z</time></trkpt><trkpt lat="42.55757848144877" lon="13.36622712808896"><ele>1366.0</ele><time>2026-05-03T10:09:56.999Z</time></trkpt><trkpt lat="42.557512719593994" lon="13.366358809227588"><ele>1366.0</ele><time>2026-05-03T10:09:57.999Z</time></trkpt><trkpt lat="42.557471491178774" lon="13.366504129373547"><ele>1366.0</ele><time>2026-05-03T10:09:58.999Z</time></trkpt><trkpt lat="42.557459420176166" lon="13.366662454420904"><ele>1368.75</ele><time>2026-05-03T10:09:59.999Z</time></trkpt><trkpt lat="42.55745618224008" lon="13.366817438445441"><ele>1371.5</ele><time>2026-05-03T10:10:00.999Z</time></trkpt><trkpt lat="42.557462560258514" lon="13.366977991513766"><ele>1374.25</ele><time>2026-05-03T10:10:01.999Z</time></trkpt><trkpt lat="42.557462545304105" lon="13.367130741715728"><ele>1377.0</ele><time>2026-05-03T10:10:02.999Z</time></trkpt><trkpt lat="42.55746368246724" lon="13.367284148593239"><ele>1378.1999999999998</ele><time>2026-05-03T10:10:03.999Z</time></trkpt><trkpt lat="42.557443325032374" lon="13.367429732774966"><ele>1379.4</ele><time>2026-05-03T10:10:04.999Z</time></trkpt><trkpt lat="42.55744042761696" lon="13.367571024521366"><ele>1380.6</ele><time>2026-05-03T10:10:05.999Z</time></trkpt><trkpt lat="42.55743783572993" lon="13.367709379603408"><ele>1381.8000000000002</ele><time>2026-05-03T10:10:06.999Z</time></trkpt><trkpt lat="42.55743534956039" lon="13.367841387060476"><ele>1383.0</ele><time>2026-05-03T10:10:07.999Z</time></trkpt><trkpt lat="42.55744925387578" lon="13.36797117566859"><ele>1383.3333333333333</ele><time>2026-05-03T10:10:08.999Z</time></trkpt><trkpt lat="42.55743827056821" lon="13.36809705518638"><ele>1383.6666666666667</ele><time>2026-05-03T10:10:09.999Z</time></trkpt><trkpt lat="42.5574373650471" lon="13.368222307766663"><ele>1384.0</ele><time>2026-05-03T10:10:10.999Z</time></trkpt><trkpt lat="42.557431669237154" lon="13.368346738345082"><ele>1384.3333333333335</ele><time>2026-05-03T10:10:11.999Z</time></trkpt><trkpt lat="42.557425801081415" lon="13.36846461059812"><ele>1384.6666666666667</ele><time>2026-05-03T10:10:12.999Z</time></trkpt><trkpt lat="42.55742081079149" lon="13.368573506184536"><ele>1385.0</ele><time>2026-05-03T10:10:13.999Z</time></trkpt><trkpt lat="42.55741983269222" lon="13.368672769259096"><ele>1385.0</ele><time>2026-05-03T10:10:14.998Z</time></trkpt><trkpt lat="42.55742328345995" lon="13.368769475754018"><ele>1385.0</ele><time>2026-05-03T10:10:15.998Z</time></trkpt><trkpt lat="42.5574262532106" lon="13.368864202926524"><ele>1385.0</ele><time>2026-05-03T10:10:16.998Z</time></trkpt><trkpt lat="42.55746365260411" lon="13.368962914448046"><ele>1385.0</ele><time>2026-05-03T10:10:17.998Z</time></trkpt><trkpt lat="42.55749577153177" lon="13.369067169980475"><ele>1385.0</ele><time>2026-05-03T10:10:18.998Z</time></trkpt><trkpt lat="42.557533819185" lon="13.369170400792877"><ele>1385.0</ele><time>2026-05-03T10:10:19.998Z</time></trkpt><trkpt lat="42.557552394491886" lon="13.369277758164385"><ele>1385.1666666666667</ele><time>2026-05-03T10:10:20.998Z</time></trkpt><trkpt lat="42.55759515169367" lon="13.369373727488437"><ele>1385.3333333333335</ele><time>2026-05-03T10:10:21.998Z</time></trkpt><trkpt lat="42.55761384966752" lon="13.369465956258376"><ele>1385.5</ele><time>2026-05-03T10:10:22.998Z</time></trkpt><trkpt lat="42.557638894945846" lon="13.369560194566866"><ele>1385.6666666666667</ele><time>2026-05-03T10:10:23.998Z</time></trkpt><trkpt lat="42.557679070684664" lon="13.369640711943113"><ele>1385.8333333333333</ele><time>2026-05-03T10:10:24.998Z</time></trkpt><trkpt lat="42.55772796633742" lon="13.369705470166334"><ele>1386.0</ele><time>2026-05-03T10:10:26Z</time></trkpt><trkpt lat="42.55783863311957" lon="13.36974832043919"><ele>1385.4</ele><time>2026-05-03T10:10:28Z</time></trkpt><trkpt lat="42.55792021840313" lon="13.369627996728182"><ele>1384.8</ele><time>2026-05-03T10:10:29Z</time></trkpt><trkpt lat="42.55799834063555" lon="13.369563199575689"><ele>1384.2</ele><time>2026-05-03T10:10:30Z</time></trkpt><trkpt lat="42.55807063538028" lon="13.369480323301495"><ele>1383.6000000000001</ele><time>2026-05-03T10:10:31Z</time></trkpt><trkpt lat="42.55814730252084" lon="13.369392934159592"><ele>1383.0</ele><time>2026-05-03T10:10:32Z</time></trkpt><trkpt lat="42.5582217135039" lon="13.369306855343199"><ele>1383.0</ele><time>2026-05-03T10:10:33Z</time></trkpt><trkpt lat="42.55829755989477" lon="13.369229114458088"><ele>1383.0</ele><time>2026-05-03T10:10:34Z</time></trkpt><trkpt lat="42.558365158696894" lon="13.369142441675566"><ele>1383.0</ele><time>2026-05-03T10:10:35Z</time></trkpt><trkpt lat="42.558426416032034" lon="13.369054882389317"><ele>1383.0</ele><time>2026-05-03T10:10:36Z</time></trkpt><trkpt lat="42.55850020286808" lon="13.368990892068402"><ele>1383.0</ele><time>2026-05-03T10:10:37Z</time></trkpt><trkpt lat="42.55855393845578" lon="13.368900832520117"><ele>1384.1666666666667</ele><time>2026-05-03T10:10:38Z</time></trkpt><trkpt lat="42.558621005842305" lon="13.368841665234227"><ele>1385.3333333333333</ele><time>2026-05-03T10:10:39Z</time></trkpt><trkpt lat="42.55868958639363" lon="13.36882134238406"><ele>1386.5</ele><time>2026-05-03T10:10:40Z</time></trkpt><trkpt lat="42.55876179632492" lon="13.36884153500626"><ele>1387.6666666666665</ele><time>2026-05-03T10:10:41Z</time></trkpt><trkpt lat="42.55882327404191" lon="13.368871432650684"><ele>1388.8333333333333</ele><time>2026-05-03T10:10:42Z</time></trkpt><trkpt lat="42.55886218525552" lon="13.369006875566228"><ele>1390.0</ele><time>2026-05-03T10:10:43Z</time></trkpt><trkpt lat="42.55891644830766" lon="13.36910838463825"><ele>1390.0</ele><time>2026-05-03T10:10:44Z</time></trkpt><trkpt lat="42.55898569414353" lon="13.369205526038346"><ele>1390.0</ele><time>2026-05-03T10:10:45Z</time></trkpt><trkpt lat="42.559033949759026" lon="13.369307562121836"><ele>1390.0</ele><time>2026-05-03T10:10:46Z</time></trkpt><trkpt lat="42.55907804308715" lon="13.369409568936856"><ele>1390.0</ele><time>2026-05-03T10:10:47Z</time></trkpt><trkpt lat="42.55911186144366" lon="13.369527850593343"><ele>1390.0</ele><time>2026-05-03T10:10:48Z</time></trkpt><trkpt lat="42.55913479723869" lon="13.369664704792216"><ele>1388.2</ele><time>2026-05-03T10:10:49Z</time></trkpt><trkpt lat="42.55912431329178" lon="13.369807327990813"><ele>1386.4</ele><time>2026-05-03T10:10:50Z</time></trkpt><trkpt lat="42.55912404955963" lon="13.369942644376179"><ele>1384.6</ele><time>2026-05-03T10:10:51Z</time></trkpt><trkpt lat="42.559121513468725" lon="13.37007522456613"><ele>1382.8</ele><time>2026-05-03T10:10:52Z</time></trkpt><trkpt lat="42.55911909702388" lon="13.37021070529702"><ele>1381.0</ele><time>2026-05-03T10:10:53Z</time></trkpt><trkpt lat="42.55911992122581" lon="13.37034109411896"><ele>1381.0</ele><time>2026-05-03T10:10:54Z</time></trkpt><trkpt lat="42.55913959136624" lon="13.370470618721631"><ele>1381.0</ele><time>2026-05-03T10:10:55Z</time></trkpt><trkpt lat="42.5591396968908" lon="13.37059596563053"><ele>1381.0</ele><time>2026-05-03T10:10:56Z</time></trkpt><trkpt lat="42.559152085444204" lon="13.370716722364023"><ele>1381.0</ele><time>2026-05-03T10:10:57Z</time></trkpt><trkpt lat="42.5591898319666" lon="13.370824615824665"><ele>1381.0</ele><time>2026-05-03T10:10:58Z</time></trkpt><trkpt lat="42.559260119863" lon="13.37091139619137"><ele>1380.4</ele><time>2026-05-03T10:10:59Z</time></trkpt><trkpt lat="42.55935103625141" lon="13.370966525954344"><ele>1379.8</ele><time>2026-05-03T10:11:00Z</time></trkpt><trkpt lat="42.55945689382814" lon="13.370990604327462"><ele>1379.2</ele><time>2026-05-03T10:11:01Z</time></trkpt><trkpt lat="42.55957243824062" lon="13.371000466137557"><ele>1378.6000000000001</ele><time>2026-05-03T10:11:02Z</time></trkpt><trkpt lat="42.55969091706858" lon="13.371022661344387"><ele>1378.0</ele><time>2026-05-03T10:11:03Z</time></trkpt><trkpt lat="42.5598146855174" lon="13.371049458621782"><ele>1378.0</ele><time>2026-05-03T10:11:04Z</time></trkpt><trkpt lat="42.55994630854134" lon="13.371073696272232"><ele>1378.0</ele><time>2026-05-03T10:11:05Z</time></trkpt><trkpt lat="42.560075707963435" lon="13.371098078280784"><ele>1378.0</ele><time>2026-05-03T10:11:06Z</time></trkpt><trkpt lat="42.56020038092402" lon="13.371118609529688"><ele>1378.0</ele><time>2026-05-03T10:11:07Z</time></trkpt><trkpt lat="42.56033095157414" lon="13.371124335504343"><ele>1377.0</ele><time>2026-05-03T10:11:08Z</time></trkpt><trkpt lat="42.56046730164434" lon="13.371109762457854"><ele>1376.0</ele><time>2026-05-03T10:11:09Z</time></trkpt><trkpt lat="42.56060334956015" lon="13.371091405373724"><ele>1375.0</ele><time>2026-05-03T10:11:10Z</time></trkpt><trkpt lat="42.56073310254028" lon="13.37106276847905"><ele>1374.0</ele><time>2026-05-03T10:11:11Z</time></trkpt><trkpt lat="42.56086292237017" lon="13.371035278803873"><ele>1374.0</ele><time>2026-05-03T10:11:12Z</time></trkpt><trkpt lat="42.5609967384193" lon="13.371001957718976"><ele>1374.0</ele><time>2026-05-03T10:11:13Z</time></trkpt><trkpt lat="42.56112832031266" lon="13.370975654665253"><ele>1374.0</ele><time>2026-05-03T10:11:13.999Z</time></trkpt><trkpt lat="42.56126100844673" lon="13.37096989545059"><ele>1374.0</ele><time>2026-05-03T10:11:14.999Z</time></trkpt><trkpt lat="42.56139621913567" lon="13.370994980669368"><ele>1373.5</ele><time>2026-05-03T10:11:15.999Z</time></trkpt><trkpt lat="42.56151933259512" lon="13.371053773012838"><ele>1373.0</ele><time>2026-05-03T10:11:16.999Z</time></trkpt><trkpt lat="42.561639092807155" lon="13.371118348799595"><ele>1372.5</ele><time>2026-05-03T10:11:17.999Z</time></trkpt><trkpt lat="42.561757614959795" lon="13.371176215842661"><ele>1372.0</ele><time>2026-05-03T10:11:18.999Z</time></trkpt><trkpt lat="42.561868031528626" lon="13.37123617232687"><ele>1372.0</ele><time>2026-05-03T10:11:19.999Z</time></trkpt><trkpt lat="42.5619590500513" lon="13.371309504518518"><ele>1372.0</ele><time>2026-05-03T10:11:20.999Z</time></trkpt><trkpt lat="42.562006367520645" lon="13.371422243517038"><ele>1372.0</ele><time>2026-05-03T10:11:21.999Z</time></trkpt><trkpt lat="42.56201624731135" lon="13.37155051406357"><ele>1372.0</ele><time>2026-05-03T10:11:22.999Z</time></trkpt><trkpt lat="42.56198051078099" lon="13.371666440836897"><ele>1372.0</ele><time>2026-05-03T10:11:23.999Z</time></trkpt><trkpt lat="42.561957705564396" lon="13.371796272738338"><ele>1368.8</ele><time>2026-05-03T10:11:24.999Z</time></trkpt><trkpt lat="42.56191322051583" lon="13.371920318213755"><ele>1365.6</ele><time>2026-05-03T10:11:25.999Z</time></trkpt><trkpt lat="42.56185761220503" lon="13.372036196006418"><ele>1362.3999999999999</ele><time>2026-05-03T10:11:26.999Z</time></trkpt><trkpt lat="42.561780424426594" lon="13.372137651449682"><ele>1359.1999999999998</ele><time>2026-05-03T10:11:27.999Z</time></trkpt><trkpt lat="42.56168468408256" lon="13.3721974882844"><ele>1356.0</ele><time>2026-05-03T10:11:28.999Z</time></trkpt><trkpt lat="42.56156622575006" lon="13.372207727346135"><ele>1356.0</ele><time>2026-05-03T10:11:29.999Z</time></trkpt><trkpt lat="42.56145264639645" lon="13.372145851569552"><ele>1356.0</ele><time>2026-05-03T10:11:30.999Z</time></trkpt><trkpt lat="42.56132583200261" lon="13.372117574638924"><ele>1356.0</ele><time>2026-05-03T10:11:31.999Z</time></trkpt><trkpt lat="42.56119977107021" lon="13.372064941797397"><ele>1356.0</ele><time>2026-05-03T10:11:32.999Z</time></trkpt><trkpt lat="42.5610801534449" lon="13.372020219372017"><ele>1355.25</ele><time>2026-05-03T10:11:33.999Z</time></trkpt><trkpt lat="42.56096790274994" lon="13.371982129985419"><ele>1354.5</ele><time>2026-05-03T10:11:34.999Z</time></trkpt><trkpt lat="42.560855591320845" lon="13.371939581791507"><ele>1353.75</ele><time>2026-05-03T10:11:35.999Z</time></trkpt><trkpt lat="42.560742896233606" lon="13.371955841360519"><ele>1353.0</ele><time>2026-05-03T10:11:36.999Z</time></trkpt><trkpt lat="42.56063119491806" lon="13.372017105363819"><ele>1353.0</ele><time>2026-05-03T10:11:37.999Z</time></trkpt><trkpt lat="42.56051697442793" lon="13.37209349423669"><ele>1353.0</ele><time>2026-05-03T10:11:38.999Z</time></trkpt><trkpt lat="42.56039939088656" lon="13.372176867141391"><ele>1353.0</ele><time>2026-05-03T10:11:39.999Z</time></trkpt><trkpt lat="42.56026180962404" lon="13.372212696874067"><ele>1353.0</ele><time>2026-05-03T10:11:40.999Z</time></trkpt><trkpt lat="42.56011874316568" lon="13.37223242016882"><ele>1351.3333333333333</ele><time>2026-05-03T10:11:41.999Z</time></trkpt><trkpt lat="42.559971720065825" lon="13.372247284187306"><ele>1349.6666666666665</ele><time>2026-05-03T10:11:42.999Z</time></trkpt><trkpt lat="42.55982509419523" lon="13.37228105215651"><ele>1348.0</ele><time>2026-05-03T10:11:43.999Z</time></trkpt><trkpt lat="42.5596826534882" lon="13.372361567323267"><ele>1348.0</ele><time>2026-05-03T10:11:44.999Z</time></trkpt><trkpt lat="42.559541449525305" lon="13.37245928078103"><ele>1348.0</ele><time>2026-05-03T10:11:45.999Z</time></trkpt><trkpt lat="42.55940275761017" lon="13.3725759662338"><ele>1348.0</ele><time>2026-05-03T10:11:46.999Z</time></trkpt><trkpt lat="42.55926181548825" lon="13.372682754368943"><ele>1346.0</ele><time>2026-05-03T10:11:47.999Z</time></trkpt><trkpt lat="42.559114227484756" lon="13.372760293573595"><ele>1344.0</ele><time>2026-05-03T10:11:48.999Z</time></trkpt><trkpt lat="42.55895654010022" lon="13.372809746112756"><ele>1342.0</ele><time>2026-05-03T10:11:49.999Z</time></trkpt><trkpt lat="42.558785963210575" lon="13.372857609024553"><ele>1341.3333333333333</ele><time>2026-05-03T10:11:50.999Z</time></trkpt><trkpt lat="42.55861859824461" lon="13.37290251348693"><ele>1340.6666666666667</ele><time>2026-05-03T10:11:51.999Z</time></trkpt><trkpt lat="42.558458198816425" lon="13.372963463880382"><ele>1340.0</ele><time>2026-05-03T10:11:52.999Z</time></trkpt><trkpt lat="42.55830236119978" lon="13.372999901991584"><ele>1340.5</ele><time>2026-05-03T10:11:53.999Z</time></trkpt><trkpt lat="42.55815105237367" lon="13.373036434417003"><ele>1341.0</ele><time>2026-05-03T10:11:54.999Z</time></trkpt><trkpt lat="42.558004242603886" lon="13.373075202110275"><ele>1341.5</ele><time>2026-05-03T10:11:55.999Z</time></trkpt><trkpt lat="42.55787221117966" lon="13.373136368322891"><ele>1342.0</ele><time>2026-05-03T10:11:56.999Z</time></trkpt><trkpt lat="42.557752077998195" lon="13.373252024179742"><ele>1340.6666666666665</ele><time>2026-05-03T10:11:57.999Z</time></trkpt><trkpt lat="42.55765093690211" lon="13.37341367866623"><ele>1339.3333333333333</ele><time>2026-05-03T10:11:58.999Z</time></trkpt><trkpt lat="42.557547154922794" lon="13.373575266978333"><ele>1338.0</ele><time>2026-05-03T10:11:59.999Z</time></trkpt><trkpt lat="42.55744511136736" lon="13.373739875857005"><ele>1338.0</ele><time>2026-05-03T10:12:00.999Z</time></trkpt><trkpt lat="42.55734006153346" lon="13.373904844540302"><ele>1338.0</ele><time>2026-05-03T10:12:01.999Z</time></trkpt><trkpt lat="42.55723752867463" lon="13.374074333078331"><ele>1338.0</ele><time>2026-05-03T10:12:02.999Z</time></trkpt><trkpt lat="42.55715098286972" lon="13.374265021585925"><ele>1338.0</ele><time>2026-05-03T10:12:03.999Z</time></trkpt><trkpt lat="42.55708058282131" lon="13.374468780160004"><ele>1338.0</ele><time>2026-05-03T10:12:04.999Z</time></trkpt><trkpt lat="42.5570265678834" lon="13.374678003816648"><ele>1338.0</ele><time>2026-05-03T10:12:05.999Z</time></trkpt><trkpt lat="42.55698425029751" lon="13.37488126122265"><ele>1338.5</ele><time>2026-05-03T10:12:06.999Z</time></trkpt><trkpt lat="42.556942536927416" lon="13.375068974035695"><ele>1339.0</ele><time>2026-05-03T10:12:07.999Z</time></trkpt><trkpt lat="42.55689581953573" lon="13.375254493266032"><ele>1339.5</ele><time>2026-05-03T10:12:08.999Z</time></trkpt><trkpt lat="42.55682240200877" lon="13.375417746545804"><ele>1340.0</ele><time>2026-05-03T10:12:09.999Z</time></trkpt><trkpt lat="42.55674592857132" lon="13.37557925077023"><ele>1340.0</ele><time>2026-05-03T10:12:10.999Z</time></trkpt><trkpt lat="42.55661499130167" lon="13.375667975870556"><ele>1340.0</ele><time>2026-05-03T10:12:11.999Z</time></trkpt><trkpt lat="42.55648254874672" lon="13.375733977185558"><ele>1340.0</ele><time>2026-05-03T10:12:12.999Z</time></trkpt><trkpt lat="42.55634041308466" lon="13.375806107867415"><ele>1340.0</ele><time>2026-05-03T10:12:13.999Z</time></trkpt><trkpt lat="42.556209664429815" lon="13.375894821930114"><ele>1339.5</ele><time>2026-05-03T10:12:14.999Z</time></trkpt><trkpt lat="42.556094967505445" lon="13.376020904173442"><ele>1339.0</ele><time>2026-05-03T10:12:15.999Z</time></trkpt><trkpt lat="42.55599275228744" lon="13.376161284018696"><ele>1338.5</ele><time>2026-05-03T10:12:16.999Z</time></trkpt><trkpt lat="42.55591692817067" lon="13.376334744748023"><ele>1338.0</ele><time>2026-05-03T10:12:17.999Z</time></trkpt><trkpt lat="42.55584729114548" lon="13.376517326190873"><ele>1338.0</ele><time>2026-05-03T10:12:18.999Z</time></trkpt><trkpt lat="42.555774078607946" lon="13.376694978611596"><ele>1338.0</ele><time>2026-05-03T10:12:19.999Z</time></trkpt><trkpt lat="42.555698260152866" lon="13.376870914160612"><ele>1338.0</ele><time>2026-05-03T10:12:20.999Z</time></trkpt><trkpt lat="42.555622754078" lon="13.37703970125765"><ele>1338.0</ele><time>2026-05-03T10:12:21.999Z</time></trkpt><trkpt lat="42.55555376927968" lon="13.37719979001066"><ele>1338.75</ele><time>2026-05-03T10:12:22.999Z</time></trkpt><trkpt lat="42.555489449974985" lon="13.377344774958166"><ele>1339.5</ele><time>2026-05-03T10:12:23.999Z</time></trkpt><trkpt lat="42.55542062874017" lon="13.37748767875121"><ele>1340.25</ele><time>2026-05-03T10:12:24.999Z</time></trkpt><trkpt lat="42.555353773651156" lon="13.377629324824191"><ele>1341.0</ele><time>2026-05-03T10:12:25.999Z</time></trkpt><trkpt lat="42.55529539030096" lon="13.377778175232248"><ele>1340.25</ele><time>2026-05-03T10:12:26.999Z</time></trkpt><trkpt lat="42.55524343670203" lon="13.377935093418532"><ele>1339.5</ele><time>2026-05-03T10:12:27.999Z</time></trkpt><trkpt lat="42.55520986652461" lon="13.378104616854024"><ele>1338.75</ele><time>2026-05-03T10:12:28.999Z</time></trkpt><trkpt lat="42.55520632700235" lon="13.378284701491635"><ele>1338.0</ele><time>2026-05-03T10:12:29.999Z</time></trkpt><trkpt lat="42.555233020313224" lon="13.378458397908808"><ele>1338.0</ele><time>2026-05-03T10:12:30.999Z</time></trkpt><trkpt lat="42.55528252730233" lon="13.378619121349562"><ele>1338.0</ele><time>2026-05-03T10:12:32Z</time></trkpt><trkpt lat="42.55534203152555" lon="13.378777054110001"><ele>1338.0</ele><time>2026-05-03T10:12:33Z</time></trkpt><trkpt lat="42.555391478470305" lon="13.37892533879742"><ele>1338.0</ele><time>2026-05-03T10:12:34Z</time></trkpt><trkpt lat="42.55540750085736" lon="13.37907166286539"><ele>1338.2</ele><time>2026-05-03T10:12:35Z</time></trkpt><trkpt lat="42.55540877029878" lon="13.379209715625052"><ele>1338.4</ele><time>2026-05-03T10:12:36Z</time></trkpt><trkpt lat="42.5553860557019" lon="13.379349840732695"><ele>1338.6000000000001</ele><time>2026-05-03T10:12:37Z</time></trkpt><trkpt lat="42.55533174869708" lon="13.379479060300529"><ele>1338.8000000000002</ele><time>2026-05-03T10:12:38Z</time></trkpt><trkpt lat="42.55525696151003" lon="13.379591992209955"><ele>1339.0</ele><time>2026-05-03T10:12:39Z</time></trkpt><trkpt lat="42.555150206328676" lon="13.379667774098992"><ele>1341.5</ele><time>2026-05-03T10:12:40Z</time></trkpt><trkpt lat="42.555026949541435" lon="13.379738670009889"><ele>1344.0</ele><time>2026-05-03T10:12:41Z</time></trkpt><trkpt lat="42.55489131491218" lon="13.379795312235023"><ele>1346.5</ele><time>2026-05-03T10:12:42Z</time></trkpt><trkpt lat="42.55474779571243" lon="13.37985995848457"><ele>1349.0</ele><time>2026-05-03T10:12:43Z</time></trkpt><trkpt lat="42.55459751142395" lon="13.379900026241454"><ele>1347.5</ele><time>2026-05-03T10:12:44Z</time></trkpt><trkpt lat="42.554446747370164" lon="13.37994483342803"><ele>1346.0</ele><time>2026-05-03T10:12:45Z</time></trkpt><trkpt lat="42.55430205312805" lon="13.379994495812161"><ele>1344.5</ele><time>2026-05-03T10:12:46Z</time></trkpt><trkpt lat="42.55416566820586" lon="13.38004142564336"><ele>1343.0</ele><time>2026-05-03T10:12:47Z</time></trkpt><trkpt lat="42.55403707543566" lon="13.380090679918338"><ele>1343.0</ele><time>2026-05-03T10:12:48Z</time></trkpt><trkpt lat="42.55391652526125" lon="13.38013483063123"><ele>1343.0</ele><time>2026-05-03T10:12:49Z</time></trkpt><trkpt lat="42.553806241845216" lon="13.380196966147178"><ele>1343.0</ele><time>2026-05-03T10:12:50Z</time></trkpt><trkpt lat="42.553710947776935" lon="13.38029341986156"><ele>1343.0</ele><time>2026-05-03T10:12:51Z</time></trkpt><trkpt lat="42.55363466443486" lon="13.380424675255481"><ele>1341.25</ele><time>2026-05-03T10:12:52Z</time></trkpt><trkpt lat="42.55359120354629" lon="13.380582038585402"><ele>1339.5</ele><time>2026-05-03T10:12:53Z</time></trkpt><trkpt lat="42.553574654020764" lon="13.380753311340612"><ele>1337.75</ele><time>2026-05-03T10:12:54Z</time></trkpt><trkpt lat="42.553581797217994" lon="13.380920728648919"><ele>1336.0</ele><time>2026-05-03T10:12:55Z</time></trkpt><trkpt lat="42.55360055678842" lon="13.381082191555773"><ele>1336.0</ele><time>2026-05-03T10:12:56Z</time></trkpt><trkpt lat="42.55361519684392" lon="13.381238964486759"><ele>1336.0</ele><time>2026-05-03T10:12:57Z</time></trkpt><trkpt lat="42.55359850458919" lon="13.381395019491563"><ele>1336.0</ele><time>2026-05-03T10:12:58Z</time></trkpt><trkpt lat="42.55358409361046" lon="13.381543788230337"><ele>1336.0</ele><time>2026-05-03T10:12:59Z</time></trkpt><trkpt lat="42.55354868256287" lon="13.381688372913976"><ele>1336.5</ele><time>2026-05-03T10:13:00Z</time></trkpt><trkpt lat="42.55349345019461" lon="13.381830715482453"><ele>1337.0</ele><time>2026-05-03T10:13:01Z</time></trkpt><trkpt lat="42.5533898261149" lon="13.38190170510908"><ele>1337.5</ele><time>2026-05-03T10:13:02Z</time></trkpt><trkpt lat="42.553272942396745" lon="13.3819335939311"><ele>1338.0</ele><time>2026-05-03T10:13:03Z</time></trkpt><trkpt lat="42.55313844221456" lon="13.381914610898676"><ele>1338.0</ele><time>2026-05-03T10:13:04Z</time></trkpt><trkpt lat="42.55297314517313" lon="13.381892337778334"><ele>1338.0</ele><time>2026-05-03T10:13:05Z</time></trkpt><trkpt lat="42.55278085504841" lon="13.381867862763391"><ele>1338.0</ele><time>2026-05-03T10:13:06Z</time></trkpt><trkpt lat="42.55257625281521" lon="13.381841460770302"><ele>1338.3333333333333</ele><time>2026-05-03T10:13:07Z</time></trkpt><trkpt lat="42.55237205293715" lon="13.38181511071128"><ele>1338.6666666666665</ele><time>2026-05-03T10:13:08Z</time></trkpt><trkpt lat="42.552170808914425" lon="13.381803420973371"><ele>1339.0</ele><time>2026-05-03T10:13:09Z</time></trkpt><trkpt lat="42.55197045415817" lon="13.381764237871717"><ele>1339.0</ele><time>2026-05-03T10:13:10Z</time></trkpt><trkpt lat="42.551768793415214" lon="13.381728314081386"><ele>1339.0</ele><time>2026-05-03T10:13:11Z</time></trkpt><trkpt lat="42.55156391327843" lon="13.381702139248105"><ele>1339.0</ele><time>2026-05-03T10:13:12Z</time></trkpt><trkpt lat="42.5513572320813" lon="13.381690640909634"><ele>1340.6666666666665</ele><time>2026-05-03T10:13:13Z</time></trkpt><trkpt lat="42.5511568567323" lon="13.3817016484351"><ele>1342.3333333333333</ele><time>2026-05-03T10:13:14Z</time></trkpt><trkpt lat="42.55095629424717" lon="13.381727016466442"><ele>1344.0</ele><time>2026-05-03T10:13:15Z</time></trkpt><trkpt lat="42.55076202329073" lon="13.38177544631726"><ele>1344.0</ele><time>2026-05-03T10:13:16Z</time></trkpt><trkpt lat="42.55057040362024" lon="13.381828746121569"><ele>1344.0</ele><time>2026-05-03T10:13:17Z</time></trkpt><trkpt lat="42.55037914334647" lon="13.381845197040985"><ele>1344.0</ele><time>2026-05-03T10:13:18Z</time></trkpt><trkpt lat="42.55020456969891" lon="13.381902848166282"><ele>1343.6666666666667</ele><time>2026-05-03T10:13:19Z</time></trkpt><trkpt lat="42.55004329410907" lon="13.38190733607929"><ele>1343.3333333333335</ele><time>2026-05-03T10:13:20Z</time></trkpt><trkpt lat="42.549888176055234" lon="13.381956607156111"><ele>1343.0</ele><time>2026-05-03T10:13:21Z</time></trkpt><trkpt lat="42.54974053055074" lon="13.382009804236374"><ele>1343.0</ele><time>2026-05-03T10:13:22Z</time></trkpt><trkpt lat="42.549603180921046" lon="13.382118265231185"><ele>1343.0</ele><time>2026-05-03T10:13:23Z</time></trkpt><trkpt lat="42.54946071479198" lon="13.382259695120954"><ele>1343.0</ele><time>2026-05-03T10:13:24Z</time></trkpt><trkpt lat="42.54931582990036" lon="13.38241221139851"><ele>1343.0</ele><time>2026-05-03T10:13:25Z</time></trkpt><trkpt lat="42.54915658378976" lon="13.382550434096071"><ele>1343.0</ele><time>2026-05-03T10:13:26Z</time></trkpt><trkpt lat="42.549014355356064" lon="13.382721324521244"><ele>1343.0</ele><time>2026-05-03T10:13:27Z</time></trkpt><trkpt lat="42.54885840341046" lon="13.382873772958181"><ele>1343.3333333333335</ele><time>2026-05-03T10:13:28Z</time></trkpt><trkpt lat="42.54869973478539" lon="13.383027322172673"><ele>1343.6666666666667</ele><time>2026-05-03T10:13:29Z</time></trkpt><trkpt lat="42.5485454309392" lon="13.383183898750046"><ele>1344.0</ele><time>2026-05-03T10:13:30Z</time></trkpt><trkpt lat="42.54838669910694" lon="13.38333989562661"><ele>1344.0</ele><time>2026-05-03T10:13:31Z</time></trkpt><trkpt lat="42.54823751889901" lon="13.383489561113887"><ele>1344.0</ele><time>2026-05-03T10:13:32Z</time></trkpt><trkpt lat="42.548092175849455" lon="13.383630990674027"><ele>1344.0</ele><time>2026-05-03T10:13:33Z</time></trkpt><trkpt lat="42.54795256423869" lon="13.383762853084832"><ele>1342.3333333333333</ele><time>2026-05-03T10:13:34Z</time></trkpt><trkpt lat="42.547827247662575" lon="13.38390234929349"><ele>1340.6666666666665</ele><time>2026-05-03T10:13:35Z</time></trkpt><trkpt lat="42.54772671299962" lon="13.384065351381166"><ele>1339.0</ele><time>2026-05-03T10:13:36Z</time></trkpt><trkpt lat="42.547647127317006" lon="13.384261778039761"><ele>1339.0</ele><time>2026-05-03T10:13:37Z</time></trkpt><trkpt lat="42.54757854834826" lon="13.38448201938999"><ele>1339.0</ele><time>2026-05-03T10:13:38Z</time></trkpt><trkpt lat="42.5475157328113" lon="13.384713880111185"><ele>1339.0</ele><time>2026-05-03T10:13:39Z</time></trkpt><trkpt lat="42.547450102753935" lon="13.384949426270007"><ele>1339.3333333333333</ele><time>2026-05-03T10:13:40Z</time></trkpt><trkpt lat="42.54738131938392" lon="13.385191016606873"><ele>1339.6666666666667</ele><time>2026-05-03T10:13:41Z</time></trkpt><trkpt lat="42.54730894985688" lon="13.385432275045645"><ele>1340.0</ele><time>2026-05-03T10:13:42Z</time></trkpt><trkpt lat="42.547236964192415" lon="13.385678266639156"><ele>1340.6666666666667</ele><time>2026-05-03T10:13:43Z</time></trkpt><trkpt lat="42.54715847369076" lon="13.385930553687432"><ele>1341.3333333333333</ele><time>2026-05-03T10:13:44Z</time></trkpt><trkpt lat="42.54708252144214" lon="13.386185043696749"><ele>1342.0</ele><time>2026-05-03T10:13:45Z</time></trkpt><trkpt lat="42.54701105880234" lon="13.386439885807436"><ele>1340.3333333333333</ele><time>2026-05-03T10:13:45.999Z</time></trkpt><trkpt lat="42.546939175796545" lon="13.386696014096712"><ele>1338.6666666666667</ele><time>2026-05-03T10:13:46.999Z</time></trkpt><trkpt lat="42.546864415941194" lon="13.386949396418848"><ele>1337.0</ele><time>2026-05-03T10:13:47.999Z</time></trkpt><trkpt lat="42.54678567227182" lon="13.387202088884594"><ele>1337.0</ele><time>2026-05-03T10:13:48.999Z</time></trkpt><trkpt lat="42.54671056101407" lon="13.38745601046884"><ele>1337.0</ele><time>2026-05-03T10:13:49.999Z</time></trkpt><trkpt lat="42.54663896853214" lon="13.387696064068209"><ele>1337.0</ele><time>2026-05-03T10:13:50.999Z</time></trkpt><trkpt lat="42.54655782072363" lon="13.387918566981021"><ele>1338.6666666666667</ele><time>2026-05-03T10:13:51.999Z</time></trkpt><trkpt lat="42.54648706255421" lon="13.388144711715354"><ele>1340.3333333333333</ele><time>2026-05-03T10:13:52.999Z</time></trkpt><trkpt lat="42.54642335054193" lon="13.388364183263004"><ele>1342.0</ele><time>2026-05-03T10:13:53.999Z</time></trkpt><trkpt lat="42.54630777913491" lon="13.388547751425094"><ele>1342.3333333333333</ele><time>2026-05-03T10:13:54.999Z</time></trkpt><trkpt lat="42.54618620137649" lon="13.388738228934816"><ele>1342.6666666666667</ele><time>2026-05-03T10:13:55.999Z</time></trkpt><trkpt lat="42.54605505175883" lon="13.388930730963096"><ele>1343.0</ele><time>2026-05-03T10:13:56.999Z</time></trkpt><trkpt lat="42.545919377901" lon="13.389133177419142"><ele>1343.0</ele><time>2026-05-03T10:13:57.999Z</time></trkpt><trkpt lat="42.545783813990404" lon="13.389340561305469"><ele>1343.0</ele><time>2026-05-03T10:13:58.999Z</time></trkpt><trkpt lat="42.54564978670406" lon="13.38954667994189"><ele>1343.0</ele><time>2026-05-03T10:13:59.999Z</time></trkpt><trkpt lat="42.54551469779808" lon="13.389754431343327"><ele>1341.0</ele><time>2026-05-03T10:14:00.999Z</time></trkpt><trkpt lat="42.54537797056128" lon="13.389965069459413"><ele>1339.0</ele><time>2026-05-03T10:14:01.999Z</time></trkpt><trkpt lat="42.54525180336174" lon="13.390189301903312"><ele>1337.0</ele><time>2026-05-03T10:14:02.999Z</time></trkpt><trkpt lat="42.54511223595266" lon="13.390401181077262"><ele>1338.3333333333335</ele><time>2026-05-03T10:14:03.999Z</time></trkpt><trkpt lat="42.54497307986766" lon="13.390613377412032"><ele>1339.6666666666667</ele><time>2026-05-03T10:14:04.999Z</time></trkpt><trkpt lat="42.544835453927774" lon="13.39082588938706"><ele>1341.0</ele><time>2026-05-03T10:14:05.999Z</time></trkpt><trkpt lat="42.544683949596966" lon="13.39101694575923"><ele>1340.6666666666667</ele><time>2026-05-03T10:14:06.999Z</time></trkpt><trkpt lat="42.54454243538193" lon="13.391223473831872"><ele>1340.3333333333335</ele><time>2026-05-03T10:14:07.999Z</time></trkpt><trkpt lat="42.54440502667991" lon="13.39143512828261"><ele>1340.0</ele><time>2026-05-03T10:14:08.999Z</time></trkpt><trkpt lat="42.54426748538315" lon="13.391650362710386"><ele>1340.0</ele><time>2026-05-03T10:14:09.999Z</time></trkpt><trkpt lat="42.544131332215315" lon="13.391865626323925"><ele>1340.0</ele><time>2026-05-03T10:14:10.999Z</time></trkpt><trkpt lat="42.543996465798045" lon="13.392078855339355"><ele>1340.0</ele><time>2026-05-03T10:14:11.999Z</time></trkpt><trkpt lat="42.54386068519776" lon="13.392291042559755"><ele>1339.0</ele><time>2026-05-03T10:14:12.999Z</time></trkpt><trkpt lat="42.543725238079865" lon="13.392498791569313"><ele>1338.0</ele><time>2026-05-03T10:14:13.999Z</time></trkpt><trkpt lat="42.543602014766705" lon="13.392717630832484"><ele>1337.0</ele><time>2026-05-03T10:14:14.999Z</time></trkpt><trkpt lat="42.54347060466473" lon="13.392916023635985"><ele>1339.6666666666667</ele><time>2026-05-03T10:14:15.999Z</time></trkpt><trkpt lat="42.543346345359595" lon="13.39311525140556"><ele>1342.3333333333333</ele><time>2026-05-03T10:14:16.999Z</time></trkpt><trkpt lat="42.54322709141079" lon="13.393302382540725"><ele>1345.0</ele><time>2026-05-03T10:14:17.999Z</time></trkpt><trkpt lat="42.54310674046571" lon="13.393468623636382"><ele>1345.0</ele><time>2026-05-03T10:14:18.999Z</time></trkpt><trkpt lat="42.542980403963426" lon="13.393607858029812"><ele>1345.0</ele><time>2026-05-03T10:14:19.999Z</time></trkpt><trkpt lat="42.54282556007149" lon="13.393688154841344"><ele>1345.0</ele><time>2026-05-03T10:14:20.999Z</time></trkpt><trkpt lat="42.542671327321585" lon="13.393771903969887"><ele>1346.6666666666665</ele><time>2026-05-03T10:14:21.999Z</time></trkpt><trkpt lat="42.542517534333726" lon="13.393852273593435"><ele>1348.3333333333333</ele><time>2026-05-03T10:14:22.999Z</time></trkpt><trkpt lat="42.54235512298277" lon="13.393937146900637"><ele>1350.0</ele><time>2026-05-03T10:14:23.999Z</time></trkpt><trkpt lat="42.54217212044737" lon="13.394032780843904"><ele>1347.0</ele><time>2026-05-03T10:14:24.999Z</time></trkpt><trkpt lat="42.54198682948262" lon="13.394128691619764"><ele>1344.0</ele><time>2026-05-03T10:14:25.999Z</time></trkpt><trkpt lat="42.541812187552665" lon="13.394234817456574"><ele>1341.0</ele><time>2026-05-03T10:14:26.999Z</time></trkpt><trkpt lat="42.54164009638412" lon="13.394315133407106"><ele>1341.0</ele><time>2026-05-03T10:14:27.999Z</time></trkpt><trkpt lat="42.54148253224042" lon="13.394398011419412"><ele>1341.0</ele><time>2026-05-03T10:14:28.999Z</time></trkpt><trkpt lat="42.541342905536204" lon="13.39449802634244"><ele>1341.0</ele><time>2026-05-03T10:14:29.999Z</time></trkpt><trkpt lat="42.54121223995915" lon="13.394637305504162"><ele>1340.0</ele><time>2026-05-03T10:14:30.999Z</time></trkpt><trkpt lat="42.54109951948555" lon="13.394811443825258"><ele>1339.0</ele><time>2026-05-03T10:14:31.999Z</time></trkpt><trkpt lat="42.540994126707595" lon="13.394980038054195"><ele>1338.0</ele><time>2026-05-03T10:14:32.999Z</time></trkpt><trkpt lat="42.540896920319994" lon="13.395147068872935"><ele>1338.0</ele><time>2026-05-03T10:14:33.999Z</time></trkpt><trkpt lat="42.54081209477595" lon="13.395333385287351"><ele>1338.0</ele><time>2026-05-03T10:14:34.999Z</time></trkpt><trkpt lat="42.54076563520295" lon="13.395538560820054"><ele>1338.0</ele><time>2026-05-03T10:14:35.999Z</time></trkpt><trkpt lat="42.540733954167095" lon="13.395735319164773"><ele>1339.75</ele><time>2026-05-03T10:14:36.999Z</time></trkpt><trkpt lat="42.540695701173085" lon="13.395908699753608"><ele>1341.5</ele><time>2026-05-03T10:14:38.001Z</time></trkpt><trkpt lat="42.540637759740605" lon="13.396056182506381"><ele>1343.25</ele><time>2026-05-03T10:14:39.001Z</time></trkpt><trkpt lat="42.540538672475336" lon="13.396165244474897"><ele>1345.0</ele><time>2026-05-03T10:14:40.001Z</time></trkpt><trkpt lat="42.54041132799962" lon="13.396247904513734"><ele>1341.3333333333333</ele><time>2026-05-03T10:14:41.001Z</time></trkpt><trkpt lat="42.54026494341597" lon="13.396290323453277"><ele>1337.6666666666667</ele><time>2026-05-03T10:14:42.001Z</time></trkpt><trkpt lat="42.5401148687413" lon="13.396303697459777"><ele>1334.0</ele><time>2026-05-03T10:14:43.001Z</time></trkpt><trkpt lat="42.539964998382125" lon="13.396319934675814"><ele>1334.6666666666667</ele><time>2026-05-03T10:14:44.001Z</time></trkpt><trkpt lat="42.539810654264684" lon="13.396372279295464"><ele>1335.3333333333333</ele><time>2026-05-03T10:14:45.001Z</time></trkpt><trkpt lat="42.539667653365136" lon="13.39647292266429"><ele>1336.0</ele><time>2026-05-03T10:14:46.001Z</time></trkpt><trkpt lat="42.53953717523987" lon="13.396606602952822"><ele>1336.0</ele><time>2026-05-03T10:14:47.001Z</time></trkpt><trkpt lat="42.539414882772746" lon="13.396751811115559"><ele>1336.0</ele><time>2026-05-03T10:14:48.001Z</time></trkpt><trkpt lat="42.53929597580003" lon="13.396905540429044"><ele>1336.0</ele><time>2026-05-03T10:14:49.001Z</time></trkpt><trkpt lat="42.5391603026576" lon="13.397041593738312"><ele>1336.0</ele><time>2026-05-03T10:14:50.001Z</time></trkpt><trkpt lat="42.53900147846088" lon="13.397095462549364"><ele>1336.0</ele><time>2026-05-03T10:14:51.001Z</time></trkpt><trkpt lat="42.53884965783367" lon="13.397187835091145"><ele>1336.0</ele><time>2026-05-03T10:14:52Z</time></trkpt><trkpt lat="42.53870088576072" lon="13.397261025292497"><ele>1336.0</ele><time>2026-05-03T10:14:53Z</time></trkpt><trkpt lat="42.53857207079419" lon="13.397387770222384"><ele>1336.0</ele><time>2026-05-03T10:14:54Z</time></trkpt><trkpt lat="42.53846926303947" lon="13.397550085044875"><ele>1336.0</ele><time>2026-05-03T10:14:55Z</time></trkpt><trkpt lat="42.538392493711235" lon="13.397722423464614"><ele>1336.0</ele><time>2026-05-03T10:14:56Z</time></trkpt><trkpt lat="42.538321604223434" lon="13.397878996487748"><ele>1336.0</ele><time>2026-05-03T10:14:57Z</time></trkpt><trkpt lat="42.53822430565865" lon="13.397998912737195"><ele>1336.0</ele><time>2026-05-03T10:14:58Z</time></trkpt><trkpt lat="42.53809901444885" lon="13.398088477937662"><ele>1336.0</ele><time>2026-05-03T10:14:59Z</time></trkpt><trkpt lat="42.53795197729024" lon="13.39815287829618"><ele>1337.0</ele><time>2026-05-03T10:15:00Z</time></trkpt><trkpt lat="42.537802322964694" lon="13.398209049318643"><ele>1338.0</ele><time>2026-05-03T10:15:01Z</time></trkpt><trkpt lat="42.53765499908585" lon="13.398288197841142"><ele>1339.0</ele><time>2026-05-03T10:15:02Z</time></trkpt><trkpt lat="42.537517038575274" lon="13.398395735287888"><ele>1339.0</ele><time>2026-05-03T10:15:03Z</time></trkpt><trkpt lat="42.53738114199442" lon="13.39852353584801"><ele>1339.0</ele><time>2026-05-03T10:15:04Z</time></trkpt><trkpt lat="42.53724992287509" lon="13.39865599435826"><ele>1339.0</ele><time>2026-05-03T10:15:05Z</time></trkpt><trkpt lat="42.53712578324131" lon="13.398793024610084"><ele>1337.25</ele><time>2026-05-03T10:15:06Z</time></trkpt><trkpt lat="42.53701776731225" lon="13.398935511959357"><ele>1335.5</ele><time>2026-05-03T10:15:07Z</time></trkpt><trkpt lat="42.53692805332529" lon="13.399092748610164"><ele>1333.75</ele><time>2026-05-03T10:15:08Z</time></trkpt><trkpt lat="42.53685959309398" lon="13.399275808362269"><ele>1332.0</ele><time>2026-05-03T10:15:09Z</time></trkpt><trkpt lat="42.53681095066882" lon="13.399477157038099"><ele>1334.6666666666667</ele><time>2026-05-03T10:15:10Z</time></trkpt><trkpt lat="42.5367768033069" lon="13.399691657776128"><ele>1337.3333333333335</ele><time>2026-05-03T10:15:11Z</time></trkpt><trkpt lat="42.53675111695191" lon="13.399917241119287"><ele>1340.0</ele><time>2026-05-03T10:15:12Z</time></trkpt><trkpt lat="42.53672600935446" lon="13.400154649185742"><ele>1340.0</ele><time>2026-05-03T10:15:13Z</time></trkpt><trkpt lat="42.53670195292615" lon="13.400402276331931"><ele>1340.0</ele><time>2026-05-03T10:15:14Z</time></trkpt><trkpt lat="42.53667574695429" lon="13.400651095662964"><ele>1340.0</ele><time>2026-05-03T10:15:15Z</time></trkpt><trkpt lat="42.536653187610106" lon="13.400896744496462"><ele>1340.6666666666667</ele><time>2026-05-03T10:15:16Z</time></trkpt><trkpt lat="42.53663151944322" lon="13.4011241333693"><ele>1341.3333333333333</ele><time>2026-05-03T10:15:17Z</time></trkpt><trkpt lat="42.53660473025069" lon="13.40132902081216"><ele>1342.0</ele><time>2026-05-03T10:15:18Z</time></trkpt><trkpt lat="42.53655388999429" lon="13.401506544465652"><ele>1342.5</ele><time>2026-05-03T10:15:19Z</time></trkpt><trkpt lat="42.5364935545806" lon="13.401664564750172"><ele>1343.0</ele><time>2026-05-03T10:15:20Z</time></trkpt><trkpt lat="42.53641225460766" lon="13.401827931724887"><ele>1343.5</ele><time>2026-05-03T10:15:21Z</time></trkpt><trkpt lat="42.53632556197975" lon="13.402003242756544"><ele>1344.0</ele><time>2026-05-03T10:15:22Z</time></trkpt><trkpt lat="42.536231954799156" lon="13.40218059823442"><ele>1339.6666666666667</ele><time>2026-05-03T10:15:23Z</time></trkpt><trkpt lat="42.53614766679057" lon="13.40237082242802"><ele>1335.3333333333335</ele><time>2026-05-03T10:15:24Z</time></trkpt><trkpt lat="42.53605214166747" lon="13.402549326150597"><ele>1331.0</ele><time>2026-05-03T10:15:25Z</time></trkpt><trkpt lat="42.535971475256446" lon="13.402740090334243"><ele>1331.0</ele><time>2026-05-03T10:15:26Z</time></trkpt><trkpt lat="42.53590415770046" lon="13.402943255502043"><ele>1331.0</ele><time>2026-05-03T10:15:27Z</time></trkpt><trkpt lat="42.53586157229109" lon="13.403166964493808"><ele>1331.0</ele><time>2026-05-03T10:15:28Z</time></trkpt><trkpt lat="42.535840852798586" lon="13.403401202563142"><ele>1330.6666666666667</ele><time>2026-05-03T10:15:29Z</time></trkpt><trkpt lat="42.53584828217481" lon="13.40364050857512"><ele>1330.3333333333333</ele><time>2026-05-03T10:15:30Z</time></trkpt><trkpt lat="42.535872272410714" lon="13.40388184579452"><ele>1330.0</ele><time>2026-05-03T10:15:31Z</time></trkpt><trkpt lat="42.535920431059466" lon="13.404120792354318"><ele>1330.0</ele><time>2026-05-03T10:15:32Z</time></trkpt><trkpt lat="42.535949558197984" lon="13.404379639627662"><ele>1330.0</ele><time>2026-05-03T10:15:33Z</time></trkpt><trkpt lat="42.53597605980328" lon="13.404627374828733"><ele>1330.0</ele><time>2026-05-03T10:15:34Z</time></trkpt><trkpt lat="42.5360031824597" lon="13.404865408177029"><ele>1330.0</ele><time>2026-05-03T10:15:35Z</time></trkpt><trkpt lat="42.53601964807123" lon="13.405091907461426"><ele>1330.0</ele><time>2026-05-03T10:15:36Z</time></trkpt><trkpt lat="42.53600372900989" lon="13.405309770553568"><ele>1330.0</ele><time>2026-05-03T10:15:37Z</time></trkpt><trkpt lat="42.5359745257058" lon="13.405501244636515"><ele>1330.0</ele><time>2026-05-03T10:15:38Z</time></trkpt><trkpt lat="42.5359251826127" lon="13.405702755950744"><ele>1330.0</ele><time>2026-05-03T10:15:39Z</time></trkpt><trkpt lat="42.5358881047546" lon="13.405905412861921"><ele>1330.0</ele><time>2026-05-03T10:15:40Z</time></trkpt><trkpt lat="42.53584189833719" lon="13.406085417722968"><ele>1330.0</ele><time>2026-05-03T10:15:41Z</time></trkpt><trkpt lat="42.53580810583435" lon="13.406275012688724"><ele>1330.0</ele><time>2026-05-03T10:15:42Z</time></trkpt><trkpt lat="42.535781367269564" lon="13.406468322130918"><ele>1330.0</ele><time>2026-05-03T10:15:43Z</time></trkpt><trkpt lat="42.53575812733139" lon="13.406665325389765"><ele>1330.0</ele><time>2026-05-03T10:15:44Z</time></trkpt><trkpt lat="42.53573833729686" lon="13.406852761409846"><ele>1331.5</ele><time>2026-05-03T10:15:45Z</time></trkpt><trkpt lat="42.535713047042826" lon="13.407039917267385"><ele>1333.0</ele><time>2026-05-03T10:15:46Z</time></trkpt><trkpt lat="42.53568605667298" lon="13.40723138153627"><ele>1334.5</ele><time>2026-05-03T10:15:47Z</time></trkpt><trkpt lat="42.53566403137478" lon="13.407422862790472"><ele>1336.0</ele><time>2026-05-03T10:15:47.999Z</time></trkpt><trkpt lat="42.53564368782602" lon="13.40761753542863"><ele>1337.75</ele><time>2026-05-03T10:15:48.999Z</time></trkpt><trkpt lat="42.53562078925562" lon="13.407812736384399"><ele>1339.5</ele><time>2026-05-03T10:15:49.999Z</time></trkpt><trkpt lat="42.53560463935222" lon="13.408009851342861"><ele>1341.25</ele><time>2026-05-03T10:15:50.999Z</time></trkpt><trkpt lat="42.53559885906692" lon="13.408210224368611"><ele>1343.0</ele><time>2026-05-03T10:15:51.999Z</time></trkpt><trkpt lat="42.53561513369394" lon="13.408415183445836"><ele>1343.0</ele><time>2026-05-03T10:15:52.999Z</time></trkpt><trkpt lat="42.53563132493663" lon="13.408617969721476"><ele>1343.0</ele><time>2026-05-03T10:15:53.999Z</time></trkpt><trkpt lat="42.5356237299039" lon="13.408826911094778"><ele>1343.0</ele><time>2026-05-03T10:15:54.999Z</time></trkpt><trkpt lat="42.53564630174215" lon="13.40901896772184"><ele>1343.0</ele><time>2026-05-03T10:15:55.999Z</time></trkpt><trkpt lat="42.5356535258817" lon="13.409200147967741"><ele>1338.75</ele><time>2026-05-03T10:15:56.999Z</time></trkpt><trkpt lat="42.53565167423686" lon="13.409375134840504"><ele>1334.5</ele><time>2026-05-03T10:15:57.999Z</time></trkpt><trkpt lat="42.53560446295897" lon="13.409530716865605"><ele>1330.25</ele><time>2026-05-03T10:15:58.999Z</time></trkpt><trkpt lat="42.53554999790006" lon="13.409682992227856"><ele>1326.0</ele><time>2026-05-03T10:15:59.999Z</time></trkpt><trkpt lat="42.53550376090121" lon="13.409832736722981"><ele>1324.6</ele><time>2026-05-03T10:16:00.999Z</time></trkpt><trkpt lat="42.53546750995734" lon="13.409980157414335"><ele>1323.1999999999998</ele><time>2026-05-03T10:16:01.999Z</time></trkpt><trkpt lat="42.53541593880007" lon="13.410085238459319"><ele>1321.8000000000002</ele><time>2026-05-03T10:16:02.999Z</time></trkpt><trkpt lat="42.53534865372986" lon="13.410165838526376"><ele>1320.4</ele><time>2026-05-03T10:16:03.999Z</time></trkpt><trkpt lat="42.53526792218315" lon="13.410223193986134"><ele>1319.0</ele><time>2026-05-03T10:16:04.999Z</time></trkpt><trkpt lat="42.535148352208175" lon="13.410364647669132"><ele>1319.0</ele><time>2026-05-03T10:16:05.999Z</time></trkpt><trkpt lat="42.53505503925775" lon="13.410390698252675"><ele>1319.0</ele><time>2026-05-03T10:16:06.999Z</time></trkpt><trkpt lat="42.53495498642113" lon="13.410392306903072"><ele>1319.0</ele><time>2026-05-03T10:16:07.999Z</time></trkpt><trkpt lat="42.534850305802806" lon="13.410358038909747"><ele>1319.0</ele><time>2026-05-03T10:16:08.999Z</time></trkpt><trkpt lat="42.534759785053936" lon="13.410263563731961"><ele>1319.0</ele><time>2026-05-03T10:16:09.999Z</time></trkpt><trkpt lat="42.53464915379381" lon="13.410192262005268"><ele>1322.75</ele><time>2026-05-03T10:16:10.999Z</time></trkpt><trkpt lat="42.53453415229296" lon="13.410123275775383"><ele>1326.5</ele><time>2026-05-03T10:16:11.999Z</time></trkpt><trkpt lat="42.534405703404204" lon="13.410073894647644"><ele>1330.25</ele><time>2026-05-03T10:16:12.999Z</time></trkpt><trkpt lat="42.53427585650839" lon="13.410022748334903"><ele>1334.0</ele><time>2026-05-03T10:16:13.999Z</time></trkpt><trkpt lat="42.53413812253882" lon="13.409966469057695"><ele>1334.0</ele><time>2026-05-03T10:16:14.999Z</time></trkpt><trkpt lat="42.53399396148001" lon="13.409925841355363"><ele>1334.0</ele><time>2026-05-03T10:16:15.999Z</time></trkpt><trkpt lat="42.53385157403758" lon="13.409884137160093"><ele>1334.0</ele><time>2026-05-03T10:16:16.999Z</time></trkpt><trkpt lat="42.53370199708693" lon="13.409835138119329"><ele>1334.0</ele><time>2026-05-03T10:16:17.999Z</time></trkpt><trkpt lat="42.533574200345036" lon="13.409772214484796"><ele>1331.0</ele><time>2026-05-03T10:16:18.999Z</time></trkpt><trkpt lat="42.533442971410764" lon="13.409682466692761"><ele>1328.0</ele><time>2026-05-03T10:16:19.999Z</time></trkpt><trkpt lat="42.533317693880484" lon="13.40959078516059"><ele>1325.0</ele><time>2026-05-03T10:16:20.999Z</time></trkpt><trkpt lat="42.533192766910055" lon="13.409508104235123"><ele>1322.0</ele><time>2026-05-03T10:16:21.999Z</time></trkpt><trkpt lat="42.53307220761272" lon="13.409442257593101"><ele>1322.0</ele><time>2026-05-03T10:16:22.999Z</time></trkpt><trkpt lat="42.532944468999354" lon="13.409418672050135"><ele>1322.0</ele><time>2026-05-03T10:16:23.999Z</time></trkpt><trkpt lat="42.5328120480347" lon="13.409421195764304"><ele>1322.0</ele><time>2026-05-03T10:16:24.999Z</time></trkpt><trkpt lat="42.53267691652794" lon="13.409459007967337"><ele>1322.0</ele><time>2026-05-03T10:16:25.999Z</time></trkpt><trkpt lat="42.532540154550404" lon="13.409479032717167"><ele>1322.0</ele><time>2026-05-03T10:16:26.999Z</time></trkpt><trkpt lat="42.53240460591173" lon="13.409509326277675"><ele>1322.0</ele><time>2026-05-03T10:16:27.999Z</time></trkpt><trkpt lat="42.53228298015284" lon="13.409561578354186"><ele>1322.0</ele><time>2026-05-03T10:16:28.999Z</time></trkpt><trkpt lat="42.532172948008416" lon="13.409643155514177"><ele>1322.0</ele><time>2026-05-03T10:16:29.999Z</time></trkpt><trkpt lat="42.532067835036344" lon="13.409759926212685"><ele>1324.25</ele><time>2026-05-03T10:16:30.999Z</time></trkpt><trkpt lat="42.531965485008854" lon="13.40987445847217"><ele>1326.5</ele><time>2026-05-03T10:16:31.999Z</time></trkpt><trkpt lat="42.53186370387065" lon="13.409991228122308"><ele>1328.75</ele><time>2026-05-03T10:16:32.999Z</time></trkpt><trkpt lat="42.53176344999684" lon="13.410103424826932"><ele>1331.0</ele><time>2026-05-03T10:16:33.999Z</time></trkpt><trkpt lat="42.53165353143346" lon="13.410200930824198"><ele>1331.0</ele><time>2026-05-03T10:16:34.999Z</time></trkpt><trkpt lat="42.531531487001025" lon="13.410290941322303"><ele>1331.0</ele><time>2026-05-03T10:16:35.999Z</time></trkpt><trkpt lat="42.53140379619956" lon="13.410382652949902"><ele>1331.0</ele><time>2026-05-03T10:16:36.999Z</time></trkpt><trkpt lat="42.531277835248694" lon="13.410469182663261"><ele>1331.0</ele><time>2026-05-03T10:16:37.999Z</time></trkpt><trkpt lat="42.53115547415914" lon="13.41054156933649"><ele>1334.0</ele><time>2026-05-03T10:16:38.999Z</time></trkpt><trkpt lat="42.53103787181571" lon="13.410609188749376"><ele>1337.0</ele><time>2026-05-03T10:16:39.999Z</time></trkpt><trkpt lat="42.53092162042978" lon="13.41072952871289"><ele>1340.0</ele><time>2026-05-03T10:16:40.999Z</time></trkpt><trkpt lat="42.53077193646461" lon="13.410522046339988"><ele>1337.5</ele><time>2026-05-03T10:16:41.999Z</time></trkpt><trkpt lat="42.5306537535676" lon="13.410411732063391"><ele>1335.0</ele><time>2026-05-03T10:16:42.999Z</time></trkpt><trkpt lat="42.5305412077856" lon="13.410287835076796"><ele>1332.5</ele><time>2026-05-03T10:16:44.001Z</time></trkpt><trkpt lat="42.53042308699848" lon="13.410166606580265"><ele>1330.0</ele><time>2026-05-03T10:16:45.001Z</time></trkpt><trkpt lat="42.53031186271634" lon="13.41002284945471"><ele>1330.0</ele><time>2026-05-03T10:16:46.001Z</time></trkpt><trkpt lat="42.53004802705968" lon="13.409785895295476"><ele>1330.0</ele><time>2026-05-03T10:16:48.001Z</time></trkpt><trkpt lat="42.52991137148996" lon="13.409670395243054"><ele>1329.3333333333333</ele><time>2026-05-03T10:16:49.001Z</time></trkpt><trkpt lat="42.52977019456188" lon="13.409571155509578"><ele>1328.6666666666667</ele><time>2026-05-03T10:16:50.001Z</time></trkpt><trkpt lat="42.52964251140166" lon="13.409443243775666"><ele>1328.0</ele><time>2026-05-03T10:16:51.001Z</time></trkpt><trkpt lat="42.52952102392141" lon="13.409309469122427"><ele>1328.0</ele><time>2026-05-03T10:16:52Z</time></trkpt><trkpt lat="42.52941110123007" lon="13.409153200362523"><ele>1328.0</ele><time>2026-05-03T10:16:53Z</time></trkpt><trkpt lat="42.52930891903615" lon="13.408985828442265"><ele>1328.0</ele><time>2026-05-03T10:16:54Z</time></trkpt><trkpt lat="42.529203973789656" lon="13.40881448594783"><ele>1326.3333333333335</ele><time>2026-05-03T10:16:55Z</time></trkpt><trkpt lat="42.52911265108195" lon="13.408626272085938"><ele>1324.6666666666667</ele><time>2026-05-03T10:16:56Z</time></trkpt><trkpt lat="42.52900522190244" lon="13.40844345635309"><ele>1323.0</ele><time>2026-05-03T10:16:57Z</time></trkpt><trkpt lat="42.52889533695935" lon="13.40825646143931"><ele>1323.0</ele><time>2026-05-03T10:16:58Z</time></trkpt><trkpt lat="42.52878287984234" lon="13.408067373814147"><ele>1323.0</ele><time>2026-05-03T10:16:59Z</time></trkpt><trkpt lat="42.52867074903087" lon="13.407877833415693"><ele>1323.0</ele><time>2026-05-03T10:17:00Z</time></trkpt><trkpt lat="42.528557166700026" lon="13.407685839414519"><ele>1324.6666666666667</ele><time>2026-05-03T10:17:01Z</time></trkpt><trkpt lat="42.52844316452347" lon="13.407493871059085"><ele>1326.3333333333335</ele><time>2026-05-03T10:17:02Z</time></trkpt><trkpt lat="42.528329199088" lon="13.407304707811289"><ele>1328.0</ele><time>2026-05-03T10:17:03Z</time></trkpt><trkpt lat="42.528203800871985" lon="13.407129615206161"><ele>1329.3333333333335</ele><time>2026-05-03T10:17:04Z</time></trkpt><trkpt lat="42.528096062952194" lon="13.4069476573259"><ele>1330.6666666666667</ele><time>2026-05-03T10:17:05Z</time></trkpt><trkpt lat="42.5279916250459" lon="13.406775771230679"><ele>1332.0</ele><time>2026-05-03T10:17:06Z</time></trkpt><trkpt lat="42.52788729487792" lon="13.40661610930397"><ele>1332.0</ele><time>2026-05-03T10:17:07Z</time></trkpt><trkpt lat="42.527779823633544" lon="13.406476008673184"><ele>1332.0</ele><time>2026-05-03T10:17:08Z</time></trkpt><trkpt lat="42.527670083315556" lon="13.406353707393174"><ele>1332.0</ele><time>2026-05-03T10:17:09Z</time></trkpt><trkpt lat="42.527557498792454" lon="13.406252455883786"><ele>1332.0</ele><time>2026-05-03T10:17:10Z</time></trkpt><trkpt lat="42.527439181369274" lon="13.406193405326661"><ele>1332.0</ele><time>2026-05-03T10:17:11Z</time></trkpt><trkpt lat="42.52731542808774" lon="13.406194848171749"><ele>1332.0</ele><time>2026-05-03T10:17:12Z</time></trkpt><trkpt lat="42.52720175833274" lon="13.406245343517615"><ele>1332.0</ele><time>2026-05-03T10:17:13Z</time></trkpt><trkpt lat="42.52709450251591" lon="13.406338145144204"><ele>1332.0</ele><time>2026-05-03T10:17:14Z</time></trkpt><trkpt lat="42.526984061494154" lon="13.40643373404428"><ele>1330.75</ele><time>2026-05-03T10:17:15Z</time></trkpt><trkpt lat="42.5268642849454" lon="13.406518227321026"><ele>1329.5</ele><time>2026-05-03T10:17:16Z</time></trkpt><trkpt lat="42.526732627126925" lon="13.406556386735975"><ele>1328.25</ele><time>2026-05-03T10:17:17Z</time></trkpt><trkpt lat="42.52661247184171" lon="13.4065878796136"><ele>1327.0</ele><time>2026-05-03T10:17:18Z</time></trkpt><trkpt lat="42.52650348134373" lon="13.406569494298003"><ele>1327.0</ele><time>2026-05-03T10:17:19Z</time></trkpt><trkpt lat="42.52639349806492" lon="13.406538125879111"><ele>1327.0</ele><time>2026-05-03T10:17:20Z</time></trkpt><trkpt lat="42.52629015704387" lon="13.406439720950925"><ele>1327.0</ele><time>2026-05-03T10:17:21Z</time></trkpt><trkpt lat="42.52618655548205" lon="13.40632464229058"><ele>1327.0</ele><time>2026-05-03T10:17:22Z</time></trkpt><trkpt lat="42.526080270288546" lon="13.406218257047085"><ele>1326.5</ele><time>2026-05-03T10:17:23Z</time></trkpt><trkpt lat="42.52597872099889" lon="13.40613441525616"><ele>1326.0</ele><time>2026-05-03T10:17:24Z</time></trkpt><trkpt lat="42.52586349109341" lon="13.406086905331549"><ele>1325.5</ele><time>2026-05-03T10:17:25Z</time></trkpt><trkpt lat="42.52573677259924" lon="13.406067333576448"><ele>1325.0</ele><time>2026-05-03T10:17:26Z</time></trkpt><trkpt lat="42.52560491586104" lon="13.406067771807152"><ele>1325.0</ele><time>2026-05-03T10:17:27Z</time></trkpt><trkpt lat="42.52547304025698" lon="13.40607208853146"><ele>1325.0</ele><time>2026-05-03T10:17:28Z</time></trkpt><trkpt lat="42.52533850177907" lon="13.406072510540714"><ele>1325.0</ele><time>2026-05-03T10:17:29Z</time></trkpt><trkpt lat="42.52520192057542" lon="13.406076019635682"><ele>1325.0</ele><time>2026-05-03T10:17:30Z</time></trkpt><trkpt lat="42.525064362974845" lon="13.40607101999698"><ele>1325.25</ele><time>2026-05-03T10:17:31Z</time></trkpt><trkpt lat="42.52492366141127" lon="13.406063487692169"><ele>1325.5</ele><time>2026-05-03T10:17:32Z</time></trkpt><trkpt lat="42.5247811803832" lon="13.406065405433546"><ele>1325.75</ele><time>2026-05-03T10:17:33Z</time></trkpt><trkpt lat="42.52463915937903" lon="13.406058629284875"><ele>1326.0</ele><time>2026-05-03T10:17:34Z</time></trkpt><trkpt lat="42.5244972280688" lon="13.406033790294407"><ele>1328.75</ele><time>2026-05-03T10:17:35Z</time></trkpt><trkpt lat="42.52436081646734" lon="13.405992111611054"><ele>1331.5</ele><time>2026-05-03T10:17:36Z</time></trkpt><trkpt lat="42.52424599915637" lon="13.405889103179897"><ele>1334.25</ele><time>2026-05-03T10:17:37Z</time></trkpt><trkpt lat="42.52415076380081" lon="13.405765564514523"><ele>1337.0</ele><time>2026-05-03T10:17:38Z</time></trkpt><trkpt lat="42.524078536793695" lon="13.405640268742212"><ele>1337.0</ele><time>2026-05-03T10:17:39Z</time></trkpt><trkpt lat="42.524044196658394" lon="13.405507445050862"><ele>1337.0</ele><time>2026-05-03T10:17:40Z</time></trkpt><trkpt lat="42.52406149938344" lon="13.405375595505717"><ele>1337.0</ele><time>2026-05-03T10:17:41Z</time></trkpt><trkpt lat="42.52409999611449" lon="13.405246612450291"><ele>1337.0</ele><time>2026-05-03T10:17:42Z</time></trkpt><trkpt lat="42.524160159021854" lon="13.405104570591675"><ele>1337.0</ele><time>2026-05-03T10:17:43Z</time></trkpt><trkpt lat="42.52425005911632" lon="13.404972488998158"><ele>1336.0</ele><time>2026-05-03T10:17:44Z</time></trkpt><trkpt lat="42.524326487281655" lon="13.404836743589858"><ele>1335.0</ele><time>2026-05-03T10:17:45Z</time></trkpt><trkpt lat="42.52436638810272" lon="13.404695285983017"><ele>1334.0</ele><time>2026-05-03T10:17:46Z</time></trkpt><trkpt lat="42.52436993944694" lon="13.404544095265985"><ele>1333.0</ele><time>2026-05-03T10:17:46.999Z</time></trkpt><trkpt lat="42.52433276350291" lon="13.404395099024226"><ele>1332.75</ele><time>2026-05-03T10:17:47.999Z</time></trkpt><trkpt lat="42.524261720002336" lon="13.404277327642555"><ele>1332.5</ele><time>2026-05-03T10:17:48.999Z</time></trkpt><trkpt lat="42.52416016401642" lon="13.404199832354466"><ele>1332.25</ele><time>2026-05-03T10:17:49.999Z</time></trkpt><trkpt lat="42.524045567287295" lon="13.404145455875733"><ele>1332.0</ele><time>2026-05-03T10:17:50.999Z</time></trkpt><trkpt lat="42.52392264495311" lon="13.404094190424436"><ele>1332.0</ele><time>2026-05-03T10:17:51.999Z</time></trkpt><trkpt lat="42.523788677903475" lon="13.404039267742606"><ele>1332.0</ele><time>2026-05-03T10:17:52.999Z</time></trkpt><trkpt lat="42.52366028605264" lon="13.403970547192415"><ele>1332.0</ele><time>2026-05-03T10:17:53.999Z</time></trkpt><trkpt lat="42.52353355804828" lon="13.403885737894326"><ele>1332.0</ele><time>2026-05-03T10:17:54.999Z</time></trkpt><trkpt lat="42.52341323717711" lon="13.403819961774802"><ele>1333.1999999999998</ele><time>2026-05-03T10:17:55.999Z</time></trkpt><trkpt lat="42.52329790416981" lon="13.40376508738573"><ele>1334.4</ele><time>2026-05-03T10:17:56.999Z</time></trkpt><trkpt lat="42.52321352423029" lon="13.403659186259516"><ele>1335.6</ele><time>2026-05-03T10:17:57.999Z</time></trkpt><trkpt lat="42.52315031789867" lon="13.403551476164013"><ele>1336.8000000000002</ele><time>2026-05-03T10:17:58.999Z</time></trkpt><trkpt lat="42.523149963980416" lon="13.403433930559665"><ele>1338.0</ele><time>2026-05-03T10:17:59.999Z</time></trkpt><trkpt lat="42.52317271437223" lon="13.403292342249042"><ele>1338.0</ele><time>2026-05-03T10:18:00.999Z</time></trkpt><trkpt lat="42.523191952879124" lon="13.40312582911995"><ele>1338.0</ele><time>2026-05-03T10:18:01.999Z</time></trkpt><trkpt lat="42.523204379826204" lon="13.402965123471324"><ele>1338.0</ele><time>2026-05-03T10:18:02.999Z</time></trkpt><trkpt lat="42.52325160913232" lon="13.402828460266582"><ele>1338.0</ele><time>2026-05-03T10:18:03.999Z</time></trkpt><trkpt lat="42.52331686302804" lon="13.402706529726219"><ele>1340.25</ele><time>2026-05-03T10:18:04.999Z</time></trkpt><trkpt lat="42.52343687922395" lon="13.402663026727165"><ele>1342.5</ele><time>2026-05-03T10:18:05.999Z</time></trkpt><trkpt lat="42.52355899407028" lon="13.402597610138358"><ele>1344.75</ele><time>2026-05-03T10:18:06.999Z</time></trkpt><trkpt lat="42.523700197085205" lon="13.402551076646764"><ele>1347.0</ele><time>2026-05-03T10:18:07.999Z</time></trkpt><trkpt lat="42.523840040392834" lon="13.40248980348987"><ele>1343.5</ele><time>2026-05-03T10:18:08.999Z</time></trkpt><trkpt lat="42.52396859249709" lon="13.402421790052564"><ele>1340.0</ele><time>2026-05-03T10:18:09.999Z</time></trkpt><trkpt lat="42.52407605439607" lon="13.402356476362474"><ele>1336.5</ele><time>2026-05-03T10:18:10.999Z</time></trkpt><trkpt lat="42.52416108999024" lon="13.40227088006396"><ele>1333.0</ele><time>2026-05-03T10:18:11.999Z</time></trkpt><trkpt lat="42.52421199967141" lon="13.402144606298586"><ele>1333.0</ele><time>2026-05-03T10:18:12.999Z</time></trkpt><trkpt lat="42.52423113987843" lon="13.401983846209545"><ele>1333.0</ele><time>2026-05-03T10:18:13.999Z</time></trkpt><trkpt lat="42.524221162013546" lon="13.401804714617903"><ele>1333.0</ele><time>2026-05-03T10:18:14.999Z</time></trkpt><trkpt lat="42.52418990672044" lon="13.401612318106398"><ele>1333.0</ele><time>2026-05-03T10:18:15.999Z</time></trkpt><trkpt lat="42.52415327473484" lon="13.401420748568642"><ele>1331.0</ele><time>2026-05-03T10:18:16.999Z</time></trkpt><trkpt lat="42.52410357656405" lon="13.401241019991726"><ele>1329.0</ele><time>2026-05-03T10:18:17.999Z</time></trkpt><trkpt lat="42.52402880945096" lon="13.401069077833503"><ele>1327.0</ele><time>2026-05-03T10:18:18.999Z</time></trkpt><trkpt lat="42.523922010908166" lon="13.400923900375568"><ele>1325.0</ele><time>2026-05-03T10:18:19.999Z</time></trkpt><trkpt lat="42.52379612657549" lon="13.400799723615021"><ele>1329.3333333333335</ele><time>2026-05-03T10:18:20.999Z</time></trkpt><trkpt lat="42.52367554436995" lon="13.400664740230583"><ele>1333.6666666666667</ele><time>2026-05-03T10:18:21.999Z</time></trkpt><trkpt lat="42.523557339047855" lon="13.400528613825854"><ele>1338.0</ele><time>2026-05-03T10:18:22.999Z</time></trkpt><trkpt lat="42.523460625267916" lon="13.400393490174311"><ele>1338.0</ele><time>2026-05-03T10:18:23.999Z</time></trkpt><trkpt lat="42.52339713073783" lon="13.40023557755866"><ele>1338.0</ele><time>2026-05-03T10:18:24.999Z</time></trkpt><trkpt lat="42.523382215294795" lon="13.400064991513013"><ele>1338.0</ele><time>2026-05-03T10:18:25.999Z</time></trkpt><trkpt lat="42.523407525426" lon="13.399905169397666"><ele>1338.0</ele><time>2026-05-03T10:18:26.999Z</time></trkpt><trkpt lat="42.52344247480301" lon="13.399733501366653"><ele>1338.25</ele><time>2026-05-03T10:18:27.999Z</time></trkpt><trkpt lat="42.523468753274635" lon="13.399546811601128"><ele>1338.5</ele><time>2026-05-03T10:18:28.999Z</time></trkpt><trkpt lat="42.52349637055127" lon="13.399360619433136"><ele>1338.75</ele><time>2026-05-03T10:18:29.999Z</time></trkpt><trkpt lat="42.523534511349204" lon="13.399168596754691"><ele>1339.0</ele><time>2026-05-03T10:18:30.999Z</time></trkpt><trkpt lat="42.52354225158058" lon="13.399002279209457"><ele>1339.0</ele><time>2026-05-03T10:18:31.999Z</time></trkpt><trkpt lat="42.52352001271182" lon="13.398844249969025"><ele>1339.0</ele><time>2026-05-03T10:18:32.999Z</time></trkpt><trkpt lat="42.52345525334763" lon="13.398700832059697"><ele>1339.0</ele><time>2026-05-03T10:18:33.999Z</time></trkpt><trkpt lat="42.523368027366956" lon="13.398566565758266"><ele>1339.0</ele><time>2026-05-03T10:18:34.999Z</time></trkpt><trkpt lat="42.52327417157569" lon="13.398432097728161"><ele>1337.25</ele><time>2026-05-03T10:18:35.999Z</time></trkpt><trkpt lat="42.523216386984735" lon="13.398264413150923"><ele>1335.5</ele><time>2026-05-03T10:18:36.999Z</time></trkpt><trkpt lat="42.52317315157285" lon="13.398097274329034"><ele>1333.75</ele><time>2026-05-03T10:18:37.999Z</time></trkpt><trkpt lat="42.523128019008084" lon="13.397923507311724"><ele>1332.0</ele><time>2026-05-03T10:18:38.999Z</time></trkpt><trkpt lat="42.52310491179164" lon="13.397759590363785"><ele>1332.0</ele><time>2026-05-03T10:18:39.999Z</time></trkpt><trkpt lat="42.5231019141485" lon="13.397598094101305"><ele>1332.0</ele><time>2026-05-03T10:18:40.999Z</time></trkpt><trkpt lat="42.52312290866326" lon="13.397451508472729"><ele>1332.0</ele><time>2026-05-03T10:18:41.999Z</time></trkpt><trkpt lat="42.523181217856425" lon="13.397328109587157"><ele>1332.0</ele><time>2026-05-03T10:18:42.999Z</time></trkpt><trkpt lat="42.52326308974969" lon="13.397239398399739"><ele>1332.0</ele><time>2026-05-03T10:18:43.999Z</time></trkpt><trkpt lat="42.52336934847805" lon="13.397184154915168"><ele>1333.5</ele><time>2026-05-03T10:18:44.999Z</time></trkpt><trkpt lat="42.52349186435406" lon="13.397153999301535"><ele>1335.0</ele><time>2026-05-03T10:18:45.999Z</time></trkpt><trkpt lat="42.52362013091364" lon="13.397125037285292"><ele>1336.5</ele><time>2026-05-03T10:18:46.999Z</time></trkpt><trkpt lat="42.52375179514963" lon="13.397090434632092"><ele>1338.0</ele><time>2026-05-03T10:18:47.999Z</time></trkpt><trkpt lat="42.52388326511528" lon="13.397044189565051"><ele>1338.0</ele><time>2026-05-03T10:18:48.999Z</time></trkpt><trkpt lat="42.524015362907015" lon="13.39699851948388"><ele>1338.0</ele><time>2026-05-03T10:18:50Z</time></trkpt><trkpt lat="42.5241579653893" lon="13.396950180886403"><ele>1338.0</ele><time>2026-05-03T10:18:51Z</time></trkpt><trkpt lat="42.524308251568094" lon="13.396906679349735"><ele>1338.0</ele><time>2026-05-03T10:18:52Z</time></trkpt><trkpt lat="42.52445539104005" lon="13.396855392652423"><ele>1336.6666666666667</ele><time>2026-05-03T10:18:53Z</time></trkpt><trkpt lat="42.524603593030406" lon="13.396798164025679"><ele>1335.3333333333335</ele><time>2026-05-03T10:18:54Z</time></trkpt><trkpt lat="42.524755844567046" lon="13.396745242824972"><ele>1334.0</ele><time>2026-05-03T10:18:55Z</time></trkpt><trkpt lat="42.52490723663971" lon="13.396691844054905"><ele>1334.0</ele><time>2026-05-03T10:18:56Z</time></trkpt><trkpt lat="42.525063714614404" lon="13.39664485208013"><ele>1334.0</ele><time>2026-05-03T10:18:57Z</time></trkpt><trkpt lat="42.52521729717033" lon="13.396601728004203"><ele>1334.0</ele><time>2026-05-03T10:18:58Z</time></trkpt><trkpt lat="42.525371773396415" lon="13.396577837058983"><ele>1332.3333333333335</ele><time>2026-05-03T10:18:59Z</time></trkpt><trkpt lat="42.525530898272514" lon="13.396566835052742"><ele>1330.6666666666667</ele><time>2026-05-03T10:19:00Z</time></trkpt><trkpt lat="42.52569188816891" lon="13.396572483145661"><ele>1329.0</ele><time>2026-05-03T10:19:01Z</time></trkpt><trkpt lat="42.525858413459886" lon="13.396605466526498"><ele>1329.0</ele><time>2026-05-03T10:19:02Z</time></trkpt><trkpt lat="42.52603130157836" lon="13.396648717801646"><ele>1329.0</ele><time>2026-05-03T10:19:03Z</time></trkpt><trkpt lat="42.52620879159617" lon="13.396694971378844"><ele>1329.0</ele><time>2026-05-03T10:19:04Z</time></trkpt><trkpt lat="42.52638919003894" lon="13.396740382684978"><ele>1328.6666666666667</ele><time>2026-05-03T10:19:05Z</time></trkpt><trkpt lat="42.52656376965883" lon="13.396781997439051"><ele>1328.3333333333335</ele><time>2026-05-03T10:19:06Z</time></trkpt><trkpt lat="42.526738710134" lon="13.39682364243483"><ele>1328.0</ele><time>2026-05-03T10:19:07Z</time></trkpt><trkpt lat="42.526914232238965" lon="13.396863988386615"><ele>1328.3333333333335</ele><time>2026-05-03T10:19:08Z</time></trkpt><trkpt lat="42.527084705786805" lon="13.39689728312383"><ele>1328.6666666666667</ele><time>2026-05-03T10:19:09Z</time></trkpt><trkpt lat="42.52725588595031" lon="13.396921147385706"><ele>1329.0</ele><time>2026-05-03T10:19:10Z</time></trkpt><trkpt lat="42.52742488869224" lon="13.396923962880134"><ele>1329.0</ele><time>2026-05-03T10:19:11Z</time></trkpt><trkpt lat="42.527591384561326" lon="13.396914720867297"><ele>1329.0</ele><time>2026-05-03T10:19:12Z</time></trkpt><trkpt lat="42.527745494452795" lon="13.396902286795807"><ele>1329.0</ele><time>2026-05-03T10:19:13Z</time></trkpt><trkpt lat="42.527882216022135" lon="13.396891447692154"><ele>1327.4</ele><time>2026-05-03T10:19:14Z</time></trkpt><trkpt lat="42.52799462795623" lon="13.396868114925539"><ele>1325.8000000000002</ele><time>2026-05-03T10:19:15Z</time></trkpt><trkpt lat="42.528082236521996" lon="13.396794794412646"><ele>1324.1999999999998</ele><time>2026-05-03T10:19:16Z</time></trkpt><trkpt lat="42.52815876227443" lon="13.396689711790119"><ele>1322.6</ele><time>2026-05-03T10:19:17Z</time></trkpt><trkpt lat="42.52819464987195" lon="13.396556668546543"><ele>1321.0</ele><time>2026-05-03T10:19:18Z</time></trkpt><trkpt lat="42.528194653204864" lon="13.396405391362524"><ele>1321.5</ele><time>2026-05-03T10:19:19Z</time></trkpt><trkpt lat="42.52816772481226" lon="13.396241753115785"><ele>1322.0</ele><time>2026-05-03T10:19:20Z</time></trkpt><trkpt lat="42.52813030327886" lon="13.396065914479689"><ele>1322.5</ele><time>2026-05-03T10:19:21Z</time></trkpt><trkpt lat="42.52809052889025" lon="13.395892549191894"><ele>1323.0</ele><time>2026-05-03T10:19:22Z</time></trkpt><trkpt lat="42.52806255080745" lon="13.395709956512174"><ele>1323.0</ele><time>2026-05-03T10:19:23Z</time></trkpt><trkpt lat="42.528067662549624" lon="13.395514073847153"><ele>1323.0</ele><time>2026-05-03T10:19:24Z</time></trkpt><trkpt lat="42.528101219791786" lon="13.395318719001203"><ele>1323.0</ele><time>2026-05-03T10:19:25Z</time></trkpt><trkpt lat="42.52814809542634" lon="13.395140583777119"><ele>1323.0</ele><time>2026-05-03T10:19:26Z</time></trkpt><trkpt lat="42.52818349218481" lon="13.394933378636635"><ele>1323.6666666666667</ele><time>2026-05-03T10:19:27Z</time></trkpt><trkpt lat="42.52819740213441" lon="13.394727095360684"><ele>1324.3333333333335</ele><time>2026-05-03T10:19:28Z</time></trkpt><trkpt lat="42.52820780456486" lon="13.39451930338306"><ele>1325.0</ele><time>2026-05-03T10:19:29Z</time></trkpt><trkpt lat="42.52819540035282" lon="13.39431471554808"><ele>1323.3333333333335</ele><time>2026-05-03T10:19:30Z</time></trkpt><trkpt lat="42.52815403290574" lon="13.394117949238451"><ele>1321.6666666666667</ele><time>2026-05-03T10:19:31Z</time></trkpt><trkpt lat="42.528100541331874" lon="13.393921790395666"><ele>1320.0</ele><time>2026-05-03T10:19:32Z</time></trkpt><trkpt lat="42.52803617510002" lon="13.393731489371815"><ele>1318.3333333333333</ele><time>2026-05-03T10:19:33Z</time></trkpt><trkpt lat="42.52795046580191" lon="13.393552956704697"><ele>1316.6666666666665</ele><time>2026-05-03T10:19:34Z</time></trkpt><trkpt lat="42.52784859159806" lon="13.393381738277506"><ele>1315.0</ele><time>2026-05-03T10:19:35Z</time></trkpt><trkpt lat="42.5276281653134" lon="13.39301442605452"><ele>1319.3333333333333</ele><time>2026-05-03T10:19:37Z</time></trkpt><trkpt lat="42.52750814654301" lon="13.392825692830986"><ele>1323.6666666666667</ele><time>2026-05-03T10:19:38Z</time></trkpt><trkpt lat="42.52738689114572" lon="13.39263274934905"><ele>1328.0</ele><time>2026-05-03T10:19:39Z</time></trkpt><trkpt lat="42.527267761134915" lon="13.39244065296908"><ele>1328.0</ele><time>2026-05-03T10:19:40Z</time></trkpt><trkpt lat="42.52715432016483" lon="13.392251893790354"><ele>1328.0</ele><time>2026-05-03T10:19:41Z</time></trkpt><trkpt lat="42.527043418225354" lon="13.39207206079873"><ele>1328.0</ele><time>2026-05-03T10:19:42Z</time></trkpt><trkpt lat="42.52694383572892" lon="13.39190732382598"><ele>1330.6666666666667</ele><time>2026-05-03T10:19:43Z</time></trkpt><trkpt lat="42.5268379645889" lon="13.391762815919089"><ele>1333.3333333333333</ele><time>2026-05-03T10:19:44Z</time></trkpt><trkpt lat="42.52671253956916" lon="13.391654958042476"><ele>1336.0</ele><time>2026-05-03T10:19:44.999Z</time></trkpt><trkpt lat="42.52657092924227" lon="13.391573839008963"><ele>1336.0</ele><time>2026-05-03T10:19:45.999Z</time></trkpt><trkpt lat="42.5264260653331" lon="13.391505824048288"><ele>1336.0</ele><time>2026-05-03T10:19:46.999Z</time></trkpt><trkpt lat="42.526281533155476" lon="13.39143361638728"><ele>1336.0</ele><time>2026-05-03T10:19:47.999Z</time></trkpt><trkpt lat="42.5261595227474" lon="13.391300952477142"><ele>1333.6666666666665</ele><time>2026-05-03T10:19:48.999Z</time></trkpt><trkpt lat="42.52603339519662" lon="13.391166771025093"><ele>1331.3333333333333</ele><time>2026-05-03T10:19:49.999Z</time></trkpt><trkpt lat="42.52590067696374" lon="13.391025821797927"><ele>1329.0</ele><time>2026-05-03T10:19:50.999Z</time></trkpt><trkpt lat="42.52575726051303" lon="13.390911210524994"><ele>1329.0</ele><time>2026-05-03T10:19:51.999Z</time></trkpt><trkpt lat="42.525617522341705" lon="13.390806180454245"><ele>1329.0</ele><time>2026-05-03T10:19:52.999Z</time></trkpt><trkpt lat="42.52547467251709" lon="13.390718226126435"><ele>1329.0</ele><time>2026-05-03T10:19:53.999Z</time></trkpt><trkpt lat="42.52532949893058" lon="13.390640506550545"><ele>1327.3333333333333</ele><time>2026-05-03T10:19:54.999Z</time></trkpt><trkpt lat="42.52518284400934" lon="13.390569224125226"><ele>1325.6666666666665</ele><time>2026-05-03T10:19:55.999Z</time></trkpt><trkpt lat="42.52504459906504" lon="13.390478457802578"><ele>1324.0</ele><time>2026-05-03T10:19:56.999Z</time></trkpt><trkpt lat="42.524900804652106" lon="13.390428151900148"><ele>1324.0</ele><time>2026-05-03T10:19:57.999Z</time></trkpt><trkpt lat="42.524770671831035" lon="13.390338343234058"><ele>1324.0</ele><time>2026-05-03T10:19:58.999Z</time></trkpt><trkpt lat="42.52463946379848" lon="13.39026943789298"><ele>1324.0</ele><time>2026-05-03T10:19:59.999Z</time></trkpt><trkpt lat="42.52451768119597" lon="13.390203890361379"><ele>1324.0</ele><time>2026-05-03T10:20:00.999Z</time></trkpt><trkpt lat="42.52439726010155" lon="13.390125673779053"><ele>1324.25</ele><time>2026-05-03T10:20:01.999Z</time></trkpt><trkpt lat="42.524273121128275" lon="13.390041872217193"><ele>1324.5</ele><time>2026-05-03T10:20:02.999Z</time></trkpt><trkpt lat="42.52419744922831" lon="13.389880204313005"><ele>1324.75</ele><time>2026-05-03T10:20:03.999Z</time></trkpt><trkpt lat="42.52413043340533" lon="13.389710113833033"><ele>1325.0</ele><time>2026-05-03T10:20:04.999Z</time></trkpt><trkpt lat="42.52408964770146" lon="13.38952443552173"><ele>1325.0</ele><time>2026-05-03T10:20:05.999Z</time></trkpt><trkpt lat="42.5240479926084" lon="13.389334121232377"><ele>1325.0</ele><time>2026-05-03T10:20:06.999Z</time></trkpt><trkpt lat="42.524010690979864" lon="13.389160850670697"><ele>1325.0</ele><time>2026-05-03T10:20:07.999Z</time></trkpt><trkpt lat="42.52394875767613" lon="13.389019123012693"><ele>1325.0</ele><time>2026-05-03T10:20:08.999Z</time></trkpt><trkpt lat="42.523860982205164" lon="13.38890800740024"><ele>1325.0</ele><time>2026-05-03T10:20:09.999Z</time></trkpt><trkpt lat="42.52373913649765" lon="13.38884277840902"><ele>1325.0</ele><time>2026-05-03T10:20:10.999Z</time></trkpt><trkpt lat="42.52361096870856" lon="13.38881430102041"><ele>1325.0</ele><time>2026-05-03T10:20:11.999Z</time></trkpt><trkpt lat="42.52347641975619" lon="13.388802518676787"><ele>1325.0</ele><time>2026-05-03T10:20:12.999Z</time></trkpt><trkpt lat="42.52334588552161" lon="13.388786998992382"><ele>1326.0</ele><time>2026-05-03T10:20:13.999Z</time></trkpt><trkpt lat="42.523236907547215" lon="13.38873453717111"><ele>1327.0</ele><time>2026-05-03T10:20:14.999Z</time></trkpt><trkpt lat="42.52313427819237" lon="13.388699331684093"><ele>1328.0</ele><time>2026-05-03T10:20:15.999Z</time></trkpt><trkpt lat="42.523065783650985" lon="13.388596139528033"><ele>1329.0</ele><time>2026-05-03T10:20:16.999Z</time></trkpt><trkpt lat="42.52305697868469" lon="13.388456441623903"><ele>1330.0</ele><time>2026-05-03T10:20:17.999Z</time></trkpt><trkpt lat="42.52304769917609" lon="13.388323953110584"><ele>1330.0</ele><time>2026-05-03T10:20:18.999Z</time></trkpt><trkpt lat="42.523116796262904" lon="13.388193389618662"><ele>1330.0</ele><time>2026-05-03T10:20:19.999Z</time></trkpt><trkpt lat="42.52316702987058" lon="13.388033199396187"><ele>1330.0</ele><time>2026-05-03T10:20:20.999Z</time></trkpt><trkpt lat="42.52324072021759" lon="13.387867714309378"><ele>1330.0</ele><time>2026-05-03T10:20:21.999Z</time></trkpt><trkpt lat="42.52330282681591" lon="13.387677943443377"><ele>1329.6666666666665</ele><time>2026-05-03T10:20:22.999Z</time></trkpt><trkpt lat="42.52334538583653" lon="13.387480366285212"><ele>1329.3333333333333</ele><time>2026-05-03T10:20:23.999Z</time></trkpt><trkpt lat="42.523368780418814" lon="13.387270439311806"><ele>1329.0</ele><time>2026-05-03T10:20:24.999Z</time></trkpt><trkpt lat="42.523404107904774" lon="13.387074317941543"><ele>1329.75</ele><time>2026-05-03T10:20:25.999Z</time></trkpt><trkpt lat="42.52346017428523" lon="13.386913792233827"><ele>1330.5</ele><time>2026-05-03T10:20:26.999Z</time></trkpt><trkpt lat="42.52354437078736" lon="13.386793084883365"><ele>1331.25</ele><time>2026-05-03T10:20:27.999Z</time></trkpt><trkpt lat="42.523665542366246" lon="13.386729843346387"><ele>1332.0</ele><time>2026-05-03T10:20:28.999Z</time></trkpt><trkpt lat="42.5237822313974" lon="13.386631914102681"><ele>1329.25</ele><time>2026-05-03T10:20:29.999Z</time></trkpt><trkpt lat="42.52390465775018" lon="13.386546878212075"><ele>1326.5</ele><time>2026-05-03T10:20:30.999Z</time></trkpt><trkpt lat="42.52400046413186" lon="13.386431372183141"><ele>1323.75</ele><time>2026-05-03T10:20:31.999Z</time></trkpt><trkpt lat="42.52405951517043" lon="13.386272923158119"><ele>1321.0</ele><time>2026-05-03T10:20:32.999Z</time></trkpt><trkpt lat="42.52409066130042" lon="13.386089515335462"><ele>1321.0</ele><time>2026-05-03T10:20:33.999Z</time></trkpt><trkpt lat="42.52409998633428" lon="13.385904345975336"><ele>1321.0</ele><time>2026-05-03T10:20:34.999Z</time></trkpt><trkpt lat="42.52407745056704" lon="13.38572152509359"><ele>1321.0</ele><time>2026-05-03T10:20:35.999Z</time></trkpt><trkpt lat="42.52401517560556" lon="13.385569999791793"><ele>1321.0</ele><time>2026-05-03T10:20:36.999Z</time></trkpt><trkpt lat="42.52392872118019" lon="13.385452081253442"><ele>1320.75</ele><time>2026-05-03T10:20:37.999Z</time></trkpt><trkpt lat="42.52381826902124" lon="13.385376733967755"><ele>1320.5</ele><time>2026-05-03T10:20:38.999Z</time></trkpt><trkpt lat="42.523700583034056" lon="13.385351789617284"><ele>1320.25</ele><time>2026-05-03T10:20:39.999Z</time></trkpt><trkpt lat="42.5235774854782" lon="13.385376703751884"><ele>1320.0</ele><time>2026-05-03T10:20:40.999Z</time></trkpt><trkpt lat="42.52344655289306" lon="13.38543539665884"><ele>1320.0</ele><time>2026-05-03T10:20:41.999Z</time></trkpt><trkpt lat="42.52330574846779" lon="13.385496485100974"><ele>1320.0</ele><time>2026-05-03T10:20:42.999Z</time></trkpt><trkpt lat="42.52315570148932" lon="13.385558414936737"><ele>1320.0</ele><time>2026-05-03T10:20:43.999Z</time></trkpt><trkpt lat="42.52300468327399" lon="13.385606845464078"><ele>1323.75</ele><time>2026-05-03T10:20:44.999Z</time></trkpt><trkpt lat="42.52285538630882" lon="13.38565351624918"><ele>1327.5</ele><time>2026-05-03T10:20:45.999Z</time></trkpt><trkpt lat="42.52271037768103" lon="13.38566510853792"><ele>1331.25</ele><time>2026-05-03T10:20:46.998Z</time></trkpt><trkpt lat="42.522579670160596" lon="13.385693375251009"><ele>1335.0</ele><time>2026-05-03T10:20:47.998Z</time></trkpt><trkpt lat="42.52247334342885" lon="13.385692876791607"><ele>1335.0</ele><time>2026-05-03T10:20:48.998Z</time></trkpt><trkpt lat="42.52238303477252" lon="13.385679256414347"><ele>1335.0</ele><time>2026-05-03T10:20:49.998Z</time></trkpt><trkpt lat="42.5223333038541" lon="13.385556003277266"><ele>1335.0</ele><time>2026-05-03T10:20:50.998Z</time></trkpt><trkpt lat="42.52228539808942" lon="13.385433013621755"><ele>1335.0</ele><time>2026-05-03T10:20:51.998Z</time></trkpt><trkpt lat="42.52224648884914" lon="13.385290080711176"><ele>1335.0</ele><time>2026-05-03T10:20:52.998Z</time></trkpt><trkpt lat="42.522227620233195" lon="13.38514422469299"><ele>1333.6</ele><time>2026-05-03T10:20:53.998Z</time></trkpt><trkpt lat="42.52225899364391" lon="13.385007360945202"><ele>1332.2</ele><time>2026-05-03T10:20:54.998Z</time></trkpt><trkpt lat="42.522342306898736" lon="13.384898852158315"><ele>1330.8000000000002</ele><time>2026-05-03T10:20:56Z</time></trkpt><trkpt lat="42.522393527007665" lon="13.38476861590387"><ele>1329.4</ele><time>2026-05-03T10:20:57Z</time></trkpt><trkpt lat="42.52242575151522" lon="13.384636213663557"><ele>1328.0</ele><time>2026-05-03T10:20:58Z</time></trkpt><trkpt lat="42.52241367977588" lon="13.384485767603312"><ele>1327.5</ele><time>2026-05-03T10:20:59Z</time></trkpt><trkpt lat="42.52235974443424" lon="13.38433210983064"><ele>1327.0</ele><time>2026-05-03T10:21:00Z</time></trkpt><trkpt lat="42.52228804848907" lon="13.384185409331167"><ele>1326.5</ele><time>2026-05-03T10:21:01Z</time></trkpt><trkpt lat="42.52222416169893" lon="13.384041744350089"><ele>1326.0</ele><time>2026-05-03T10:21:02Z</time></trkpt><trkpt lat="42.52219631216883" lon="13.383899029422714"><ele>1326.75</ele><time>2026-05-03T10:21:03Z</time></trkpt><trkpt lat="42.52221236570404" lon="13.383759344575376"><ele>1327.5</ele><time>2026-05-03T10:21:04Z</time></trkpt><trkpt lat="42.52228611260418" lon="13.383640521034437"><ele>1328.25</ele><time>2026-05-03T10:21:05Z</time></trkpt><trkpt lat="42.52235685467235" lon="13.383512574589323"><ele>1329.0</ele><time>2026-05-03T10:21:06Z</time></trkpt><trkpt lat="42.52246289040344" lon="13.383408139369143"><ele>1329.0</ele><time>2026-05-03T10:21:07Z</time></trkpt><trkpt lat="42.52256741404566" lon="13.383278261766469"><ele>1329.0</ele><time>2026-05-03T10:21:08Z</time></trkpt><trkpt lat="42.52266295094278" lon="13.383130422174828"><ele>1329.0</ele><time>2026-05-03T10:21:09Z</time></trkpt><trkpt lat="42.522745378344865" lon="13.382962121493719"><ele>1329.0</ele><time>2026-05-03T10:21:10Z</time></trkpt><trkpt lat="42.52280001985903" lon="13.382791572590516"><ele>1330.25</ele><time>2026-05-03T10:21:11Z</time></trkpt><trkpt lat="42.522821617215776" lon="13.38260774590022"><ele>1331.5</ele><time>2026-05-03T10:21:12Z</time></trkpt><trkpt lat="42.522814282267284" lon="13.382403811651892"><ele>1332.75</ele><time>2026-05-03T10:21:13Z</time></trkpt><trkpt lat="42.52278299946331" lon="13.382193909413807"><ele>1334.0</ele><time>2026-05-03T10:21:14Z</time></trkpt><trkpt lat="42.52273118922762" lon="13.38199025384225"><ele>1334.0</ele><time>2026-05-03T10:21:15Z</time></trkpt><trkpt lat="42.522661588761686" lon="13.38180877630909"><ele>1334.0</ele><time>2026-05-03T10:21:16Z</time></trkpt><trkpt lat="42.52259492339293" lon="13.381647942051762"><ele>1334.0</ele><time>2026-05-03T10:21:17Z</time></trkpt><trkpt lat="42.52255930661829" lon="13.381488838001538"><ele>1334.0</ele><time>2026-05-03T10:21:18Z</time></trkpt><trkpt lat="42.52257252108287" lon="13.381321318465828"><ele>1334.25</ele><time>2026-05-03T10:21:19Z</time></trkpt><trkpt lat="42.52265192271092" lon="13.381176738175371"><ele>1334.5</ele><time>2026-05-03T10:21:20Z</time></trkpt><trkpt lat="42.52271239928918" lon="13.381006661188517"><ele>1334.75</ele><time>2026-05-03T10:21:21Z</time></trkpt><trkpt lat="42.52277258445409" lon="13.380838865584888"><ele>1335.0</ele><time>2026-05-03T10:21:22Z</time></trkpt><trkpt lat="42.52278698574581" lon="13.380651552312688"><ele>1336.25</ele><time>2026-05-03T10:21:23Z</time></trkpt><trkpt lat="42.522753162158295" lon="13.380457691682475"><ele>1337.5</ele><time>2026-05-03T10:21:24Z</time></trkpt><trkpt lat="42.52270810145702" lon="13.380278634007183"><ele>1338.75</ele><time>2026-05-03T10:21:25Z</time></trkpt><trkpt lat="42.52269269132221" lon="13.380112970071384"><ele>1340.0</ele><time>2026-05-03T10:21:26Z</time></trkpt><trkpt lat="42.52274664656373" lon="13.379975467651706"><ele>1340.0</ele><time>2026-05-03T10:21:27Z</time></trkpt><trkpt lat="42.52282330831362" lon="13.379858467233795"><ele>1340.0</ele><time>2026-05-03T10:21:28Z</time></trkpt><trkpt lat="42.52290052078032" lon="13.379725566859255"><ele>1340.0</ele><time>2026-05-03T10:21:29Z</time></trkpt><trkpt lat="42.522986770543085" lon="13.379596303501671"><ele>1340.0</ele><time>2026-05-03T10:21:30Z</time></trkpt><trkpt lat="42.523044200711105" lon="13.379433915128857"><ele>1333.3333333333335</ele><time>2026-05-03T10:21:31Z</time></trkpt><trkpt lat="42.52306796685937" lon="13.379241558725921"><ele>1326.6666666666667</ele><time>2026-05-03T10:21:32Z</time></trkpt><trkpt lat="42.523072353150276" lon="13.379026733206667"><ele>1320.0</ele><time>2026-05-03T10:21:33Z</time></trkpt><trkpt lat="42.52306311204231" lon="13.37880868581303"><ele>1320.0</ele><time>2026-05-03T10:21:34Z</time></trkpt><trkpt lat="42.523031501364166" lon="13.378598115893217"><ele>1320.0</ele><time>2026-05-03T10:21:35Z</time></trkpt><trkpt lat="42.52298250313869" lon="13.37840120095801"><ele>1320.0</ele><time>2026-05-03T10:21:36Z</time></trkpt><trkpt lat="42.522917865039496" lon="13.378233002147873"><ele>1322.25</ele><time>2026-05-03T10:21:37Z</time></trkpt><trkpt lat="42.52283043719557" lon="13.378095564178045"><ele>1324.5</ele><time>2026-05-03T10:21:38Z</time></trkpt><trkpt lat="42.52271925204975" lon="13.37800442152711"><ele>1326.75</ele><time>2026-05-03T10:21:39Z</time></trkpt><trkpt lat="42.52259783953953" lon="13.377947108754581"><ele>1329.0</ele><time>2026-05-03T10:21:40Z</time></trkpt><trkpt lat="42.52248143326379" lon="13.377888189978679"><ele>1329.0</ele><time>2026-05-03T10:21:41Z</time></trkpt><trkpt lat="42.52238852854503" lon="13.37779244258057"><ele>1329.0</ele><time>2026-05-03T10:21:42Z</time></trkpt><trkpt lat="42.522328203254844" lon="13.377665924390264"><ele>1329.0</ele><time>2026-05-03T10:21:43Z</time></trkpt><trkpt lat="42.52230915041401" lon="13.37752283531092"><ele>1329.0</ele><time>2026-05-03T10:21:43.999Z</time></trkpt><trkpt lat="42.522334235190016" lon="13.377386821360632"><ele>1329.0</ele><time>2026-05-03T10:21:44.999Z</time></trkpt><trkpt lat="42.52241429091965" lon="13.377278276995998"><ele>1330.75</ele><time>2026-05-03T10:21:45.999Z</time></trkpt><trkpt lat="42.52247169357584" lon="13.377125481557549"><ele>1332.5</ele><time>2026-05-03T10:21:46.999Z</time></trkpt><trkpt lat="42.522549940276974" lon="13.37697874180159"><ele>1334.25</ele><time>2026-05-03T10:21:47.999Z</time></trkpt><trkpt lat="42.52261991134186" lon="13.376812456014973"><ele>1336.0</ele><time>2026-05-03T10:21:48.999Z</time></trkpt><trkpt lat="42.52267129581094" lon="13.376624805467888"><ele>1336.0</ele><time>2026-05-03T10:21:49.999Z</time></trkpt><trkpt lat="42.52271102083956" lon="13.376420690529997"><ele>1336.0</ele><time>2026-05-03T10:21:50.999Z</time></trkpt><trkpt lat="42.52273679699496" lon="13.37621324576436"><ele>1336.0</ele><time>2026-05-03T10:21:51.999Z</time></trkpt><trkpt lat="42.5227788120794" lon="13.376007179330367"><ele>1338.0</ele><time>2026-05-03T10:21:52.999Z</time></trkpt><trkpt lat="42.52281039709986" lon="13.375796748770009"><ele>1340.0</ele><time>2026-05-03T10:21:53.999Z</time></trkpt><trkpt lat="42.52284285450626" lon="13.375596523265312"><ele>1342.0</ele><time>2026-05-03T10:21:54.999Z</time></trkpt><trkpt lat="42.52287126686176" lon="13.375411693614959"><ele>1344.0</ele><time>2026-05-03T10:21:55.999Z</time></trkpt><trkpt lat="42.5229442993383" lon="13.37525758745005"><ele>1339.25</ele><time>2026-05-03T10:21:56.999Z</time></trkpt><trkpt lat="42.52306074632579" lon="13.375147858659352"><ele>1334.5</ele><time>2026-05-03T10:21:57.999Z</time></trkpt><trkpt lat="42.523169882900305" lon="13.375015728723705"><ele>1329.75</ele><time>2026-05-03T10:21:58.999Z</time></trkpt><trkpt lat="42.52329194587115" lon="13.374900947072282"><ele>1325.0</ele><time>2026-05-03T10:21:59.999Z</time></trkpt><trkpt lat="42.523409592754135" lon="13.374773161851543"><ele>1326.75</ele><time>2026-05-03T10:22:00.999Z</time></trkpt><trkpt lat="42.52351730605168" lon="13.374621323692931"><ele>1328.5</ele><time>2026-05-03T10:22:01.999Z</time></trkpt><trkpt lat="42.52360923750632" lon="13.374457159030598"><ele>1330.25</ele><time>2026-05-03T10:22:02.999Z</time></trkpt><trkpt lat="42.52367648456246" lon="13.374290551346839"><ele>1332.0</ele><time>2026-05-03T10:22:03.999Z</time></trkpt><trkpt lat="42.523715745753464" lon="13.374113896882461"><ele>1332.0</ele><time>2026-05-03T10:22:04.999Z</time></trkpt><trkpt lat="42.52372693606373" lon="13.373927003878336"><ele>1332.0</ele><time>2026-05-03T10:22:05.999Z</time></trkpt><trkpt lat="42.52371788374493" lon="13.373741405441706"><ele>1332.0</ele><time>2026-05-03T10:22:06.999Z</time></trkpt><trkpt lat="42.52369258114154" lon="13.373558259106874"><ele>1332.0</ele><time>2026-05-03T10:22:07.999Z</time></trkpt><trkpt lat="42.52365215474098" lon="13.373369845764294"><ele>1332.3333333333333</ele><time>2026-05-03T10:22:08.999Z</time></trkpt><trkpt lat="42.52360889204402" lon="13.373178815519909"><ele>1332.6666666666665</ele><time>2026-05-03T10:22:09.999Z</time></trkpt><trkpt lat="42.52355351310314" lon="13.37298558483027"><ele>1333.0</ele><time>2026-05-03T10:22:10.999Z</time></trkpt><trkpt lat="42.52349336487095" lon="13.372788663280788"><ele>1331.6666666666665</ele><time>2026-05-03T10:22:11.999Z</time></trkpt><trkpt lat="42.52343073661608" lon="13.372590634385414"><ele>1330.3333333333333</ele><time>2026-05-03T10:22:12.999Z</time></trkpt><trkpt lat="42.52336672281992" lon="13.372393831373348"><ele>1329.0</ele><time>2026-05-03T10:22:13.999Z</time></trkpt><trkpt lat="42.5232978654251" lon="13.37219880368388"><ele>1327.0</ele><time>2026-05-03T10:22:14.999Z</time></trkpt><trkpt lat="42.52322378988367" lon="13.37200642178266"><ele>1325.0</ele><time>2026-05-03T10:22:15.999Z</time></trkpt><trkpt lat="42.523145505785926" lon="13.371817936922993"><ele>1323.0</ele><time>2026-05-03T10:22:16.999Z</time></trkpt><trkpt lat="42.523064298338156" lon="13.37163807248585"><ele>1323.0</ele><time>2026-05-03T10:22:17.999Z</time></trkpt><trkpt lat="42.522982807748846" lon="13.371482881357895"><ele>1323.0</ele><time>2026-05-03T10:22:18.999Z</time></trkpt><trkpt lat="42.522888709432" lon="13.37133911243282"><ele>1323.0</ele><time>2026-05-03T10:22:19.999Z</time></trkpt><trkpt lat="42.52278695595518" lon="13.371213238485138"><ele>1323.0</ele><time>2026-05-03T10:22:20.999Z</time></trkpt><trkpt lat="42.522671843776884" lon="13.371143422092112"><ele>1322.5</ele><time>2026-05-03T10:22:21.999Z</time></trkpt><trkpt lat="42.52255904697106" lon="13.371100085782748"><ele>1322.0</ele><time>2026-05-03T10:22:22.999Z</time></trkpt><trkpt lat="42.52244083337971" lon="13.371159082157686"><ele>1321.5</ele><time>2026-05-03T10:22:23.999Z</time></trkpt><trkpt lat="42.522337195432385" lon="13.371234741215643"><ele>1321.0</ele><time>2026-05-03T10:22:24.999Z</time></trkpt><trkpt lat="42.52224953968825" lon="13.371343833349352"><ele>1321.75</ele><time>2026-05-03T10:22:25.999Z</time></trkpt><trkpt lat="42.52217229534985" lon="13.371470100629727"><ele>1322.5</ele><time>2026-05-03T10:22:26.999Z</time></trkpt><trkpt lat="42.5220946490041" lon="13.371603668863353"><ele>1323.25</ele><time>2026-05-03T10:22:27.999Z</time></trkpt><trkpt lat="42.52201233891048" lon="13.371737147942099"><ele>1324.0</ele><time>2026-05-03T10:22:28.999Z</time></trkpt><trkpt lat="42.52191428170992" lon="13.37185743629952"><ele>1324.0</ele><time>2026-05-03T10:22:29.999Z</time></trkpt><trkpt lat="42.521795091371544" lon="13.371953804943612"><ele>1324.0</ele><time>2026-05-03T10:22:30.999Z</time></trkpt><trkpt lat="42.52166080007414" lon="13.372029530160335"><ele>1324.0</ele><time>2026-05-03T10:22:31.999Z</time></trkpt><trkpt lat="42.52151958310748" lon="13.372091891303839"><ele>1324.0</ele><time>2026-05-03T10:22:32.999Z</time></trkpt><trkpt lat="42.521378201468565" lon="13.372155907482039"><ele>1327.0</ele><time>2026-05-03T10:22:33.999Z</time></trkpt><trkpt lat="42.52124105523562" lon="13.37223883455677"><ele>1330.0</ele><time>2026-05-03T10:22:34.999Z</time></trkpt><trkpt lat="42.5211182793556" lon="13.372359299501417"><ele>1333.0</ele><time>2026-05-03T10:22:35.999Z</time></trkpt><trkpt lat="42.521015757085685" lon="13.372504178407564"><ele>1333.0</ele><time>2026-05-03T10:22:36.999Z</time></trkpt><trkpt lat="42.52092378531099" lon="13.372642081351147"><ele>1333.0</ele><time>2026-05-03T10:22:37.999Z</time></trkpt><trkpt lat="42.520827849760565" lon="13.372755184333553"><ele>1333.0</ele><time>2026-05-03T10:22:38.999Z</time></trkpt><trkpt lat="42.52072527835618" lon="13.372820922003465"><ele>1333.0</ele><time>2026-05-03T10:22:39.999Z</time></trkpt><trkpt lat="42.52061770330342" lon="13.372837490673346"><ele>1333.0</ele><time>2026-05-03T10:22:40.999Z</time></trkpt><trkpt lat="42.520506987189606" lon="13.372798139732021"><ele>1333.0</ele><time>2026-05-03T10:22:41.999Z</time></trkpt><trkpt lat="42.520404359366566" lon="13.372719758389197"><ele>1333.0</ele><time>2026-05-03T10:22:42.999Z</time></trkpt><trkpt lat="42.52032361019678" lon="13.372619453719944"><ele>1333.0</ele><time>2026-05-03T10:22:43.999Z</time></trkpt><trkpt lat="42.52026994488078" lon="13.372506147603222"><ele>1333.0</ele><time>2026-05-03T10:22:44.999Z</time></trkpt><trkpt lat="42.52025561736028" lon="13.372373829376258"><ele>1331.5</ele><time>2026-05-03T10:22:45.998Z</time></trkpt><trkpt lat="42.520280322191134" lon="13.372231200349255"><ele>1330.0</ele><time>2026-05-03T10:22:46.998Z</time></trkpt><trkpt lat="42.52033434508101" lon="13.372081024798103"><ele>1328.5</ele><time>2026-05-03T10:22:47.998Z</time></trkpt><trkpt lat="42.52040296228517" lon="13.371929810206545"><ele>1327.0</ele><time>2026-05-03T10:22:48.998Z</time></trkpt><trkpt lat="42.520481186414145" lon="13.37177218688806"><ele>1327.0</ele><time>2026-05-03T10:22:49.998Z</time></trkpt><trkpt lat="42.52056759616054" lon="13.371613382160279"><ele>1327.0</ele><time>2026-05-03T10:22:50.998Z</time></trkpt><trkpt lat="42.520649828770516" lon="13.371472776039106"><ele>1327.0</ele><time>2026-05-03T10:22:51.998Z</time></trkpt><trkpt lat="42.52071483304426" lon="13.371345074029353"><ele>1327.0</ele><time>2026-05-03T10:22:52.998Z</time></trkpt><trkpt lat="42.520756245273446" lon="13.371205992727337"><ele>1327.0</ele><time>2026-05-03T10:22:53.998Z</time></trkpt><trkpt lat="42.52075318992908" lon="13.371054953170203"><ele>1327.0</ele><time>2026-05-03T10:22:54.998Z</time></trkpt><trkpt lat="42.52070581171887" lon="13.370910907436112"><ele>1327.0</ele><time>2026-05-03T10:22:55.998Z</time></trkpt><trkpt lat="42.520641341081586" lon="13.370786849747534"><ele>1327.0</ele><time>2026-05-03T10:22:56.998Z</time></trkpt><trkpt lat="42.520512857058904" lon="13.37073774277177"><ele>1329.0</ele><time>2026-05-03T10:22:57.998Z</time></trkpt><trkpt lat="42.52038710324417" lon="13.370704705810367"><ele>1331.0</ele><time>2026-05-03T10:22:58.998Z</time></trkpt><trkpt lat="42.52025322552318" lon="13.370686988758479"><ele>1333.0</ele><time>2026-05-03T10:22:59.998Z</time></trkpt><trkpt lat="42.520121160312314" lon="13.370642713610353"><ele>1335.0</ele><time>2026-05-03T10:23:00.998Z</time></trkpt><trkpt lat="42.519995673571096" lon="13.370545740539022"><ele>1333.3333333333333</ele><time>2026-05-03T10:23:02Z</time></trkpt><trkpt lat="42.51987498191028" lon="13.370414311791121"><ele>1331.6666666666665</ele><time>2026-05-03T10:23:03Z</time></trkpt><trkpt lat="42.51977304967426" lon="13.370247812418302"><ele>1330.0</ele><time>2026-05-03T10:23:04Z</time></trkpt><trkpt lat="42.51966304030731" lon="13.370104356743822"><ele>1332.25</ele><time>2026-05-03T10:23:05Z</time></trkpt><trkpt lat="42.51955975025485" lon="13.36997396814266"><ele>1334.5</ele><time>2026-05-03T10:23:06Z</time></trkpt><trkpt lat="42.519466274870744" lon="13.369859431220977"><ele>1336.75</ele><time>2026-05-03T10:23:07Z</time></trkpt><trkpt lat="42.51943120121577" lon="13.36970442058122"><ele>1339.0</ele><time>2026-05-03T10:23:08Z</time></trkpt><trkpt lat="42.51943445190609" lon="13.369538870175452"><ele>1339.0</ele><time>2026-05-03T10:23:09Z</time></trkpt><trkpt lat="42.51946469969029" lon="13.369366600575656"><ele>1339.0</ele><time>2026-05-03T10:23:10Z</time></trkpt><trkpt lat="42.51948671219821" lon="13.369186575505275"><ele>1339.0</ele><time>2026-05-03T10:23:11Z</time></trkpt><trkpt lat="42.51947820981728" lon="13.36899101126584"><ele>1339.0</ele><time>2026-05-03T10:23:12Z</time></trkpt><trkpt lat="42.51942498005172" lon="13.368808211639314"><ele>1336.0</ele><time>2026-05-03T10:23:13Z</time></trkpt><trkpt lat="42.51933906035883" lon="13.368642403123696"><ele>1333.0</ele><time>2026-05-03T10:23:14Z</time></trkpt><trkpt lat="42.51922318463563" lon="13.36849966959264"><ele>1330.0</ele><time>2026-05-03T10:23:15Z</time></trkpt><trkpt lat="42.51908970396582" lon="13.368386969884668"><ele>1330.0</ele><time>2026-05-03T10:23:16Z</time></trkpt><trkpt lat="42.51895454478091" lon="13.368312988896966"><ele>1330.0</ele><time>2026-05-03T10:23:17Z</time></trkpt><trkpt lat="42.51881199617348" lon="13.36828664072413"><ele>1330.0</ele><time>2026-05-03T10:23:18Z</time></trkpt><trkpt lat="42.518659993614534" lon="13.368315143660768"><ele>1330.0</ele><time>2026-05-03T10:23:19Z</time></trkpt><trkpt lat="42.51850790805861" lon="13.36837727272022"><ele>1329.3333333333333</ele><time>2026-05-03T10:23:20Z</time></trkpt><trkpt lat="42.518365852541905" lon="13.368465220934315"><ele>1328.6666666666667</ele><time>2026-05-03T10:23:21Z</time></trkpt><trkpt lat="42.51824605599721" lon="13.368595767129417"><ele>1328.0</ele><time>2026-05-03T10:23:22Z</time></trkpt><trkpt lat="42.51815003881326" lon="13.368746270308622"><ele>1330.5</ele><time>2026-05-03T10:23:23Z</time></trkpt><trkpt lat="42.51805694074545" lon="13.368887851592826"><ele>1333.0</ele><time>2026-05-03T10:23:24Z</time></trkpt><trkpt lat="42.517937362751226" lon="13.368988743663081"><ele>1335.5</ele><time>2026-05-03T10:23:25Z</time></trkpt><trkpt lat="42.51779315136014" lon="13.369032340187903"><ele>1338.0</ele><time>2026-05-03T10:23:26Z</time></trkpt><trkpt lat="42.51763986601987" lon="13.369043303125963"><ele>1338.0</ele><time>2026-05-03T10:23:27Z</time></trkpt><trkpt lat="42.5174806290902" lon="13.369043676118311"><ele>1338.0</ele><time>2026-05-03T10:23:28Z</time></trkpt><trkpt lat="42.51731645887471" lon="13.369048409173514"><ele>1338.0</ele><time>2026-05-03T10:23:29Z</time></trkpt><trkpt lat="42.51714801666423" lon="13.36907183693733"><ele>1335.3333333333333</ele><time>2026-05-03T10:23:30Z</time></trkpt><trkpt lat="42.5169764244418" lon="13.369110339886003"><ele>1332.6666666666665</ele><time>2026-05-03T10:23:31Z</time></trkpt><trkpt lat="42.516794624143614" lon="13.369175560763189"><ele>1330.0</ele><time>2026-05-03T10:23:32Z</time></trkpt><trkpt lat="42.51661615140054" lon="13.36924811596269"><ele>1330.0</ele><time>2026-05-03T10:23:33Z</time></trkpt><trkpt lat="42.51645164106082" lon="13.36932110656134"><ele>1330.0</ele><time>2026-05-03T10:23:34Z</time></trkpt><trkpt lat="42.51629669683714" lon="13.369401014085517"><ele>1330.0</ele><time>2026-05-03T10:23:35Z</time></trkpt><trkpt lat="42.51615123457645" lon="13.369518202123592"><ele>1330.3333333333333</ele><time>2026-05-03T10:23:36Z</time></trkpt><trkpt lat="42.516020053467024" lon="13.369671546193794"><ele>1330.6666666666667</ele><time>2026-05-03T10:23:37Z</time></trkpt><trkpt lat="42.51590364927063" lon="13.369845928294016"><ele>1331.0</ele><time>2026-05-03T10:23:38Z</time></trkpt><trkpt lat="42.515798469174484" lon="13.370021208376562"><ele>1331.0</ele><time>2026-05-03T10:23:38.999Z</time></trkpt><trkpt lat="42.51569205276578" lon="13.370181787647134"><ele>1331.0</ele><time>2026-05-03T10:23:39.999Z</time></trkpt><trkpt lat="42.51554580507422" lon="13.370277116205939"><ele>1331.0</ele><time>2026-05-03T10:23:40.999Z</time></trkpt><trkpt lat="42.51540405735563" lon="13.370389693050495"><ele>1329.25</ele><time>2026-05-03T10:23:41.999Z</time></trkpt><trkpt lat="42.51526957295892" lon="13.370492417019006"><ele>1327.5</ele><time>2026-05-03T10:23:42.999Z</time></trkpt><trkpt lat="42.51513458204505" lon="13.370583686076536"><ele>1325.75</ele><time>2026-05-03T10:23:43.999Z</time></trkpt><trkpt lat="42.51499853627849" lon="13.37063380434618"><ele>1324.0</ele><time>2026-05-03T10:23:44.999Z</time></trkpt><trkpt lat="42.5148622114519" lon="13.370649416720482"><ele>1324.0</ele><time>2026-05-03T10:23:45.999Z</time></trkpt><trkpt lat="42.514730443716985" lon="13.37061398979134"><ele>1324.0</ele><time>2026-05-03T10:23:46.999Z</time></trkpt><trkpt lat="42.514602375955434" lon="13.370545496437593"><ele>1324.0</ele><time>2026-05-03T10:23:47.999Z</time></trkpt><trkpt lat="42.51448034875244" lon="13.370447945989184"><ele>1324.0</ele><time>2026-05-03T10:23:48.999Z</time></trkpt><trkpt lat="42.51434849631722" lon="13.370331619536175"><ele>1320.6666666666665</ele><time>2026-05-03T10:23:49.999Z</time></trkpt><trkpt lat="42.514212586559125" lon="13.370221144166125"><ele>1317.3333333333333</ele><time>2026-05-03T10:23:50.999Z</time></trkpt><trkpt lat="42.5140726325491" lon="13.370107361111103"><ele>1314.0</ele><time>2026-05-03T10:23:51.999Z</time></trkpt><trkpt lat="42.513929919626996" lon="13.36998756410982"><ele>1314.0</ele><time>2026-05-03T10:23:52.999Z</time></trkpt><trkpt lat="42.513786154491505" lon="13.369855504481611"><ele>1314.0</ele><time>2026-05-03T10:23:53.999Z</time></trkpt><trkpt lat="42.513657094751515" lon="13.36972217891406"><ele>1314.0</ele><time>2026-05-03T10:23:54.999Z</time></trkpt><trkpt lat="42.5135435043852" lon="13.369575765548653"><ele>1312.6666666666667</ele><time>2026-05-03T10:23:55.999Z</time></trkpt><trkpt lat="42.513453360144204" lon="13.369399544413653"><ele>1311.3333333333335</ele><time>2026-05-03T10:23:56.999Z</time></trkpt><trkpt lat="42.51338914213522" lon="13.369203546339143"><ele>1310.0</ele><time>2026-05-03T10:23:57.999Z</time></trkpt><trkpt lat="42.51334830562162" lon="13.36898346856385"><ele>1309.0</ele><time>2026-05-03T10:23:58.999Z</time></trkpt><trkpt lat="42.513303235382445" lon="13.368755201463927"><ele>1308.0</ele><time>2026-05-03T10:23:59.999Z</time></trkpt><trkpt lat="42.51327201306015" lon="13.36851817841955"><ele>1307.0</ele><time>2026-05-03T10:24:00.999Z</time></trkpt><trkpt lat="42.513233960185886" lon="13.368285350887307"><ele>1307.0</ele><time>2026-05-03T10:24:01.999Z</time></trkpt><trkpt lat="42.51319727097333" lon="13.36806375411447"><ele>1307.0</ele><time>2026-05-03T10:24:02.999Z</time></trkpt><trkpt lat="42.513154199008135" lon="13.367852093543783"><ele>1307.0</ele><time>2026-05-03T10:24:03.999Z</time></trkpt><trkpt lat="42.513086472322186" lon="13.367650746224399"><ele>1307.3333333333335</ele><time>2026-05-03T10:24:04.999Z</time></trkpt><trkpt lat="42.51299904072758" lon="13.367462812596893"><ele>1307.6666666666667</ele><time>2026-05-03T10:24:05.999Z</time></trkpt><trkpt lat="42.51291164964676" lon="13.36728317279297"><ele>1308.0</ele><time>2026-05-03T10:24:06.999Z</time></trkpt><trkpt lat="42.51282972383229" lon="13.367112641862779"><ele>1305.5</ele><time>2026-05-03T10:24:07.999Z</time></trkpt><trkpt lat="42.51275490087128" lon="13.366944216974167"><ele>1303.0</ele><time>2026-05-03T10:24:08.999Z</time></trkpt><trkpt lat="42.512686180886035" lon="13.36677877633779"><ele>1300.5</ele><time>2026-05-03T10:24:09.999Z</time></trkpt><trkpt lat="42.51262487351753" lon="13.36660761889186"><ele>1298.0</ele><time>2026-05-03T10:24:10.999Z</time></trkpt><trkpt lat="42.51256862537365" lon="13.366422543358478"><ele>1299.6666666666667</ele><time>2026-05-03T10:24:11.999Z</time></trkpt><trkpt lat="42.51251057551002" lon="13.366234268947847"><ele>1301.3333333333333</ele><time>2026-05-03T10:24:12.999Z</time></trkpt><trkpt lat="42.51244641735405" lon="13.36604664800093"><ele>1303.0</ele><time>2026-05-03T10:24:13.999Z</time></trkpt><trkpt lat="42.5123828196792" lon="13.365854520734851"><ele>1303.0</ele><time>2026-05-03T10:24:14.999Z</time></trkpt><trkpt lat="42.51231423486926" lon="13.365659140590822"><ele>1303.0</ele><time>2026-05-03T10:24:15.999Z</time></trkpt><trkpt lat="42.512241837841145" lon="13.36546199854699"><ele>1303.0</ele><time>2026-05-03T10:24:16.999Z</time></trkpt><trkpt lat="42.51217237873995" lon="13.365262490919246"><ele>1304.0</ele><time>2026-05-03T10:24:17.999Z</time></trkpt><trkpt lat="42.51211507048885" lon="13.365056963200065"><ele>1305.0</ele><time>2026-05-03T10:24:18.999Z</time></trkpt><trkpt lat="42.51207023664288" lon="13.364845268843387"><ele>1306.0</ele><time>2026-05-03T10:24:19.999Z</time></trkpt><trkpt lat="42.51204434032479" lon="13.364620988623326"><ele>1298.3333333333333</ele><time>2026-05-03T10:24:20.999Z</time></trkpt><trkpt lat="42.51202249764135" lon="13.364386514099571"><ele>1290.6666666666667</ele><time>2026-05-03T10:24:21.999Z</time></trkpt><trkpt lat="42.51199720068527" lon="13.36414958084911"><ele>1283.0</ele><time>2026-05-03T10:24:22.999Z</time></trkpt><trkpt lat="42.51196695487922" lon="13.363909205271277"><ele>1284.6666666666667</ele><time>2026-05-03T10:24:23.999Z</time></trkpt><trkpt lat="42.51192678523176" lon="13.363669059030615"><ele>1286.3333333333333</ele><time>2026-05-03T10:24:24.999Z</time></trkpt><trkpt lat="42.51188074030863" lon="13.363440625147927"><ele>1288.0</ele><time>2026-05-03T10:24:25.999Z</time></trkpt><trkpt lat="42.51183421923319" lon="13.363225129643865"><ele>1288.0</ele><time>2026-05-03T10:24:26.999Z</time></trkpt><trkpt lat="42.51179033806726" lon="13.36303449364768"><ele>1288.0</ele><time>2026-05-03T10:24:27.999Z</time></trkpt><trkpt lat="42.511749110912234" lon="13.36287251105273"><ele>1288.0</ele><time>2026-05-03T10:24:28.999Z</time></trkpt><trkpt lat="42.51169807384715" lon="13.362742374476769"><ele>1288.0</ele><time>2026-05-03T10:24:29.999Z</time></trkpt><trkpt lat="42.51162031135198" lon="13.362647361545509"><ele>1286.0</ele><time>2026-05-03T10:24:30.999Z</time></trkpt><trkpt lat="42.5115142055836" lon="13.36259400663695"><ele>1284.0</ele><time>2026-05-03T10:24:31.999Z</time></trkpt><trkpt lat="42.511396211305396" lon="13.362587579195779"><ele>1282.0</ele><time>2026-05-03T10:24:32.999Z</time></trkpt><trkpt lat="42.51127063016648" lon="13.362604910712703"><ele>1280.0</ele><time>2026-05-03T10:24:33.999Z</time></trkpt><trkpt lat="42.511153061338675" lon="13.362605270345737"><ele>1280.0</ele><time>2026-05-03T10:24:34.999Z</time></trkpt><trkpt lat="42.51104732342651" lon="13.362556314217573"><ele>1280.0</ele><time>2026-05-03T10:24:35.999Z</time></trkpt><trkpt lat="42.510952889853996" lon="13.362448773380043"><ele>1280.0</ele><time>2026-05-03T10:24:36.999Z</time></trkpt><trkpt lat="42.510873787212105" lon="13.362301292267686"><ele>1280.0</ele><time>2026-05-03T10:24:37.999Z</time></trkpt><trkpt lat="42.51081283489945" lon="13.362127073568306"><ele>1282.6666666666667</ele><time>2026-05-03T10:24:38.999Z</time></trkpt><trkpt lat="42.51075480001791" lon="13.361933230638565"><ele>1285.3333333333333</ele><time>2026-05-03T10:24:39.999Z</time></trkpt><trkpt lat="42.51069094018538" lon="13.361736229219428"><ele>1288.0</ele><time>2026-05-03T10:24:40.999Z</time></trkpt><trkpt lat="42.510632256244534" lon="13.36154328505411"><ele>1288.25</ele><time>2026-05-03T10:24:41.998Z</time></trkpt><trkpt lat="42.51059148458738" lon="13.361353170482374"><ele>1288.5</ele><time>2026-05-03T10:24:42.998Z</time></trkpt><trkpt lat="42.51057941997523" lon="13.361164087888106"><ele>1288.75</ele><time>2026-05-03T10:24:43.998Z</time></trkpt><trkpt lat="42.51058730983185" lon="13.360989591226266"><ele>1289.0</ele><time>2026-05-03T10:24:44.998Z</time></trkpt><trkpt lat="42.51059102188833" lon="13.360836969901344"><ele>1289.0</ele><time>2026-05-03T10:24:45.998Z</time></trkpt><trkpt lat="42.51056092273532" lon="13.36069938593413"><ele>1289.0</ele><time>2026-05-03T10:24:46.998Z</time></trkpt><trkpt lat="42.510487070587146" lon="13.360585485313292"><ele>1289.0</ele><time>2026-05-03T10:24:47.998Z</time></trkpt><trkpt lat="42.51038337958772" lon="13.360499144845027"><ele>1289.0</ele><time>2026-05-03T10:24:48.998Z</time></trkpt><trkpt lat="42.51025412522194" lon="13.360451599060347"><ele>1288.5</ele><time>2026-05-03T10:24:49.998Z</time></trkpt><trkpt lat="42.51011331957295" lon="13.360447264188933"><ele>1288.0</ele><time>2026-05-03T10:24:50.998Z</time></trkpt><trkpt lat="42.509974483335874" lon="13.360486526808954"><ele>1287.5</ele><time>2026-05-03T10:24:51.998Z</time></trkpt><trkpt lat="42.50983863994645" lon="13.360549412466588"><ele>1287.0</ele><time>2026-05-03T10:24:52.998Z</time></trkpt><trkpt lat="42.50971454477704" lon="13.360598590144807"><ele>1284.0</ele><time>2026-05-03T10:24:53.998Z</time></trkpt><trkpt lat="42.509595162228116" lon="13.360602307454746"><ele>1281.0</ele><time>2026-05-03T10:24:54.998Z</time></trkpt><trkpt lat="42.50948198720206" lon="13.360561783277907"><ele>1278.0</ele><time>2026-05-03T10:24:55.998Z</time></trkpt><trkpt lat="42.50937683655091" lon="13.360473821286686"><ele>1275.0</ele><time>2026-05-03T10:24:56.998Z</time></trkpt><trkpt lat="42.509275110176326" lon="13.360364156594693"><ele>1275.0</ele><time>2026-05-03T10:24:57.998Z</time></trkpt><trkpt lat="42.509168404021146" lon="13.3602758591741"><ele>1275.0</ele><time>2026-05-03T10:24:58.998Z</time></trkpt><trkpt lat="42.50904121677238" lon="13.360245885307187"><ele>1275.0</ele><time>2026-05-03T10:24:59.998Z</time></trkpt><trkpt lat="42.50890227551338" lon="13.360282827677668"><ele>1275.0</ele><time>2026-05-03T10:25:00.998Z</time></trkpt><trkpt lat="42.508768910398636" lon="13.360369965018728"><ele>1277.3333333333333</ele><time>2026-05-03T10:25:01.998Z</time></trkpt><trkpt lat="42.50863603426139" lon="13.360473904567765"><ele>1279.6666666666665</ele><time>2026-05-03T10:25:02.998Z</time></trkpt><trkpt lat="42.5085030427672" lon="13.360585347249332"><ele>1282.0</ele><time>2026-05-03T10:25:03.998Z</time></trkpt><trkpt lat="42.50836899908362" lon="13.360696081291753"><ele>1278.0</ele><time>2026-05-03T10:25:04.998Z</time></trkpt><trkpt lat="42.50823448940077" lon="13.360802522883432"><ele>1274.0</ele><time>2026-05-03T10:25:05.998Z</time></trkpt><trkpt lat="42.508106013609826" lon="13.360898471413059"><ele>1270.0</ele><time>2026-05-03T10:25:06.998Z</time></trkpt><trkpt lat="42.50798189705366" lon="13.360988976402957"><ele>1266.0</ele><time>2026-05-03T10:25:08Z</time></trkpt><trkpt lat="42.50786558851299" lon="13.361054784933984"><ele>1264.0</ele><time>2026-05-03T10:25:09Z</time></trkpt><trkpt lat="42.50775561418101" lon="13.361071704772318"><ele>1262.0</ele><time>2026-05-03T10:25:10Z</time></trkpt><trkpt lat="42.50765102553183" lon="13.361024961913767"><ele>1260.0</ele><time>2026-05-03T10:25:11Z</time></trkpt><trkpt lat="42.50755874464097" lon="13.36091065349718"><ele>1258.0</ele><time>2026-05-03T10:25:12Z</time></trkpt><trkpt lat="42.50748930307441" lon="13.360746978897708"><ele>1258.0</ele><time>2026-05-03T10:25:13Z</time></trkpt><trkpt lat="42.507429643371474" lon="13.360561570194227"><ele>1258.0</ele><time>2026-05-03T10:25:14Z</time></trkpt><trkpt lat="42.50736674135268" lon="13.360370854917416"><ele>1258.0</ele><time>2026-05-03T10:25:15Z</time></trkpt><trkpt lat="42.50729484095073" lon="13.360174278374094"><ele>1261.6666666666665</ele><time>2026-05-03T10:25:16Z</time></trkpt><trkpt lat="42.50722015807694" lon="13.35997598604107"><ele>1265.3333333333333</ele><time>2026-05-03T10:25:17Z</time></trkpt><trkpt lat="42.5071569956968" lon="13.359769248228993"><ele>1269.0</ele><time>2026-05-03T10:25:18Z</time></trkpt><trkpt lat="42.50711050903091" lon="13.35955313040358"><ele>1262.0</ele><time>2026-05-03T10:25:19Z</time></trkpt><trkpt lat="42.507073569678575" lon="13.359335790725664"><ele>1255.0</ele><time>2026-05-03T10:25:20Z</time></trkpt><trkpt lat="42.507026646345224" lon="13.359126182764825"><ele>1248.0</ele><time>2026-05-03T10:25:21Z</time></trkpt><trkpt lat="42.506945237121954" lon="13.35893674364776"><ele>1253.6666666666667</ele><time>2026-05-03T10:25:22Z</time></trkpt><trkpt lat="42.506836188490475" lon="13.358760438438678"><ele>1259.3333333333335</ele><time>2026-05-03T10:25:23Z</time></trkpt><trkpt lat="42.506719488218565" lon="13.358592323012637"><ele>1265.0</ele><time>2026-05-03T10:25:24Z</time></trkpt><trkpt lat="42.50661279357557" lon="13.3584374051748"><ele>1265.0</ele><time>2026-05-03T10:25:25Z</time></trkpt><trkpt lat="42.5065111623427" lon="13.358291810100225"><ele>1265.0</ele><time>2026-05-03T10:25:26Z</time></trkpt><trkpt lat="42.506414347036916" lon="13.358167902116683"><ele>1265.0</ele><time>2026-05-03T10:25:27Z</time></trkpt><trkpt lat="42.506312639218834" lon="13.358070883218591"><ele>1265.0</ele><time>2026-05-03T10:25:28Z</time></trkpt><trkpt lat="42.50618435853496" lon="13.358010814394666"><ele>1263.5</ele><time>2026-05-03T10:25:29Z</time></trkpt><trkpt lat="42.50604360816502" lon="13.357982958729073"><ele>1262.0</ele><time>2026-05-03T10:25:30Z</time></trkpt><trkpt lat="42.50590435202148" lon="13.357952596582551"><ele>1260.5</ele><time>2026-05-03T10:25:31Z</time></trkpt><trkpt lat="42.50576950015475" lon="13.357899848437558"><ele>1259.0</ele><time>2026-05-03T10:25:32Z</time></trkpt><trkpt lat="42.50564141666463" lon="13.357805473071862"><ele>1259.0</ele><time>2026-05-03T10:25:33Z</time></trkpt><trkpt lat="42.50552587890306" lon="13.357671796950982"><ele>1259.0</ele><time>2026-05-03T10:25:34Z</time></trkpt><trkpt lat="42.50542159063746" lon="13.35751639043118"><ele>1259.0</ele><time>2026-05-03T10:25:35Z</time></trkpt><trkpt lat="42.50532892700084" lon="13.357344475327853"><ele>1257.75</ele><time>2026-05-03T10:25:36Z</time></trkpt><trkpt lat="42.505239082672034" lon="13.357184600577655"><ele>1256.5</ele><time>2026-05-03T10:25:37Z</time></trkpt><trkpt lat="42.50513659851305" lon="13.357051043927122"><ele>1255.25</ele><time>2026-05-03T10:25:38Z</time></trkpt><trkpt lat="42.505007364104664" lon="13.356962122060592"><ele>1254.0</ele><time>2026-05-03T10:25:39Z</time></trkpt><trkpt lat="42.504871539783366" lon="13.356903210269936"><ele>1254.0</ele><time>2026-05-03T10:25:40Z</time></trkpt><trkpt lat="42.50474679518048" lon="13.356833600350685"><ele>1254.0</ele><time>2026-05-03T10:25:41Z</time></trkpt><trkpt lat="42.50464690969923" lon="13.356733842476084"><ele>1254.0</ele><time>2026-05-03T10:25:42Z</time></trkpt><trkpt lat="42.50457272525377" lon="13.35658851992877"><ele>1254.0</ele><time>2026-05-03T10:25:43Z</time></trkpt><trkpt lat="42.50451680126549" lon="13.356407229608749"><ele>1253.0</ele><time>2026-05-03T10:25:44Z</time></trkpt><trkpt lat="42.50445586533712" lon="13.356224627868613"><ele>1252.0</ele><time>2026-05-03T10:25:45Z</time></trkpt><trkpt lat="42.50435946134819" lon="13.356072117575097"><ele>1251.0</ele><time>2026-05-03T10:25:46Z</time></trkpt><trkpt lat="42.504228172593365" lon="13.355952462149116"><ele>1251.0</ele><time>2026-05-03T10:25:47Z</time></trkpt><trkpt lat="42.50408923811327" lon="13.355848481518846"><ele>1251.0</ele><time>2026-05-03T10:25:48Z</time></trkpt><trkpt lat="42.503950712516264" lon="13.355764100771646"><ele>1251.0</ele><time>2026-05-03T10:25:49Z</time></trkpt><trkpt lat="42.50381110355774" lon="13.355713967912001"><ele>1247.5</ele><time>2026-05-03T10:25:50Z</time></trkpt><trkpt lat="42.5036722331188" lon="13.355683334773897"><ele>1244.0</ele><time>2026-05-03T10:25:50.999Z</time></trkpt><trkpt lat="42.50353434239263" lon="13.355679014860204"><ele>1240.5</ele><time>2026-05-03T10:25:51.999Z</time></trkpt><trkpt lat="42.50340421383325" lon="13.355662008560785"><ele>1237.0</ele><time>2026-05-03T10:25:52.999Z</time></trkpt><trkpt lat="42.50328686531484" lon="13.355630787088097"><ele>1237.0</ele><time>2026-05-03T10:25:53.999Z</time></trkpt><trkpt lat="42.50319122451447" lon="13.355579607754269"><ele>1237.0</ele><time>2026-05-03T10:25:54.999Z</time></trkpt><trkpt lat="42.50312282133692" lon="13.355490932762825"><ele>1237.0</ele><time>2026-05-03T10:25:55.999Z</time></trkpt><trkpt lat="42.503087978096126" lon="13.35536124897212"><ele>1237.0</ele><time>2026-05-03T10:25:56.999Z</time></trkpt><trkpt lat="42.50308800632163" lon="13.355199145850936"><ele>1237.0</ele><time>2026-05-03T10:25:57.999Z</time></trkpt><trkpt lat="42.50310659498322" lon="13.355037476395255"><ele>1238.75</ele><time>2026-05-03T10:25:58.999Z</time></trkpt><trkpt lat="42.5031211455721" lon="13.354862634491097"><ele>1240.5</ele><time>2026-05-03T10:25:59.999Z</time></trkpt><trkpt lat="42.503104012703844" lon="13.35469112726835"><ele>1242.25</ele><time>2026-05-03T10:26:00.999Z</time></trkpt><trkpt lat="42.50303937902954" lon="13.354541006333463"><ele>1244.0</ele><time>2026-05-03T10:26:01.999Z</time></trkpt><trkpt lat="42.50294142190017" lon="13.354425461901995"><ele>1242.5</ele><time>2026-05-03T10:26:02.999Z</time></trkpt><trkpt lat="42.50282286738784" lon="13.354342796780788"><ele>1241.0</ele><time>2026-05-03T10:26:03.999Z</time></trkpt><trkpt lat="42.502687205236256" lon="13.354295084429452"><ele>1239.5</ele><time>2026-05-03T10:26:04.999Z</time></trkpt><trkpt lat="42.50254144138619" lon="13.354283756578967"><ele>1238.0</ele><time>2026-05-03T10:26:05.999Z</time></trkpt><trkpt lat="42.502396070681755" lon="13.354280862567785"><ele>1238.0</ele><time>2026-05-03T10:26:06.999Z</time></trkpt><trkpt lat="42.50225891578167" lon="13.354264217924856"><ele>1238.0</ele><time>2026-05-03T10:26:07.999Z</time></trkpt><trkpt lat="42.502129210092924" lon="13.35422136864659"><ele>1238.0</ele><time>2026-05-03T10:26:08.999Z</time></trkpt><trkpt lat="42.50200578675592" lon="13.354151369808086"><ele>1238.0</ele><time>2026-05-03T10:26:09.999Z</time></trkpt><trkpt lat="42.50188860845582" lon="13.354067895640378"><ele>1237.25</ele><time>2026-05-03T10:26:10.999Z</time></trkpt><trkpt lat="42.5017805923424" lon="13.353967194438551"><ele>1236.5</ele><time>2026-05-03T10:26:11.999Z</time></trkpt><trkpt lat="42.501694970158496" lon="13.353832489073683"><ele>1235.75</ele><time>2026-05-03T10:26:12.999Z</time></trkpt><trkpt lat="42.50164797693172" lon="13.353660420806516"><ele>1235.0</ele><time>2026-05-03T10:26:13.999Z</time></trkpt><trkpt lat="42.501629403677256" lon="13.353465891733713"><ele>1235.0</ele><time>2026-05-03T10:26:14.999Z</time></trkpt><trkpt lat="42.501617270920434" lon="13.353266815527153"><ele>1235.0</ele><time>2026-05-03T10:26:15.999Z</time></trkpt><trkpt lat="42.50159005793987" lon="13.353065113124156"><ele>1235.0</ele><time>2026-05-03T10:26:16.999Z</time></trkpt><trkpt lat="42.50153867797244" lon="13.352888771003364"><ele>1235.0</ele><time>2026-05-03T10:26:17.999Z</time></trkpt><trkpt lat="42.50144609662198" lon="13.352745574256605"><ele>1235.6666666666667</ele><time>2026-05-03T10:26:18.999Z</time></trkpt><trkpt lat="42.5013279858108" lon="13.352630227260597"><ele>1236.3333333333333</ele><time>2026-05-03T10:26:19.999Z</time></trkpt><trkpt lat="42.50118788254288" lon="13.352539020539446"><ele>1237.0</ele><time>2026-05-03T10:26:20.999Z</time></trkpt><trkpt lat="42.501031168273435" lon="13.352481246004396"><ele>1232.6666666666665</ele><time>2026-05-03T10:26:21.999Z</time></trkpt><trkpt lat="42.500864812915644" lon="13.352427442758135"><ele>1228.3333333333333</ele><time>2026-05-03T10:26:22.999Z</time></trkpt><trkpt lat="42.50069213921933" lon="13.35237284669284"><ele>1224.0</ele><time>2026-05-03T10:26:23.999Z</time></trkpt><trkpt lat="42.50052557094259" lon="13.352313009714347"><ele>1222.0</ele><time>2026-05-03T10:26:24.999Z</time></trkpt><trkpt lat="42.50036547681453" lon="13.35225954696933"><ele>1220.0</ele><time>2026-05-03T10:26:25.999Z</time></trkpt><trkpt lat="42.50020997212873" lon="13.352229850900192"><ele>1218.0</ele><time>2026-05-03T10:26:26.999Z</time></trkpt><trkpt lat="42.50007044181998" lon="13.352215540318177"><ele>1219.75</ele><time>2026-05-03T10:26:27.999Z</time></trkpt><trkpt lat="42.49993796751463" lon="13.352194596321755"><ele>1221.5</ele><time>2026-05-03T10:26:28.999Z</time></trkpt><trkpt lat="42.499826084608024" lon="13.352143601585087"><ele>1223.25</ele><time>2026-05-03T10:26:29.999Z</time></trkpt><trkpt lat="42.499735978176695" lon="13.35204743766059"><ele>1225.0</ele><time>2026-05-03T10:26:30.999Z</time></trkpt><trkpt lat="42.499670804199525" lon="13.35191756643632"><ele>1225.0</ele><time>2026-05-03T10:26:31.999Z</time></trkpt><trkpt lat="42.499630604703334" lon="13.351762421666752"><ele>1225.0</ele><time>2026-05-03T10:26:32.999Z</time></trkpt><trkpt lat="42.499607981506045" lon="13.351603095592152"><ele>1225.0</ele><time>2026-05-03T10:26:33.999Z</time></trkpt><trkpt lat="42.4995730119095" lon="13.351465856048755"><ele>1225.0</ele><time>2026-05-03T10:26:34.999Z</time></trkpt><trkpt lat="42.49950402614426" lon="13.35135715529499"><ele>1225.5</ele><time>2026-05-03T10:26:35.999Z</time></trkpt><trkpt lat="42.499402415244454" lon="13.351287898425188"><ele>1226.0</ele><time>2026-05-03T10:26:36.999Z</time></trkpt><trkpt lat="42.49928218852736" lon="13.351251986233105"><ele>1226.5</ele><time>2026-05-03T10:26:37.999Z</time></trkpt><trkpt lat="42.49917082973464" lon="13.351239097310588"><ele>1227.0</ele><time>2026-05-03T10:26:38.999Z</time></trkpt><trkpt lat="42.49906982844726" lon="13.3512540063017"><ele>1227.0</ele><time>2026-05-03T10:26:39.999Z</time></trkpt><trkpt lat="42.49899254350828" lon="13.35130687550048"><ele>1227.0</ele><time>2026-05-03T10:26:40.999Z</time></trkpt><trkpt lat="42.498947856248286" lon="13.351405849926214"><ele>1227.0</ele><time>2026-05-03T10:26:41.999Z</time></trkpt><trkpt lat="42.49891684239978" lon="13.351542805304945"><ele>1227.0</ele><time>2026-05-03T10:26:42.999Z</time></trkpt><trkpt lat="42.49888943879482" lon="13.351703028877624"><ele>1227.0</ele><time>2026-05-03T10:26:43.999Z</time></trkpt><trkpt lat="42.49885480273632" lon="13.35188160276937"><ele>1225.75</ele><time>2026-05-03T10:26:44.999Z</time></trkpt><trkpt lat="42.49881570240357" lon="13.352069340173022"><ele>1224.5</ele><time>2026-05-03T10:26:45.999Z</time></trkpt><trkpt lat="42.49878070009619" lon="13.352263985882724"><ele>1223.25</ele><time>2026-05-03T10:26:46.999Z</time></trkpt><trkpt lat="42.49874165919827" lon="13.352460776894771"><ele>1222.0</ele><time>2026-05-03T10:26:47.999Z</time></trkpt><trkpt lat="42.49868920460686" lon="13.352649360204065"><ele>1222.5</ele><time>2026-05-03T10:26:48.999Z</time></trkpt><trkpt lat="42.49860730249465" lon="13.352813275414547"><ele>1223.0</ele><time>2026-05-03T10:26:49.999Z</time></trkpt><trkpt lat="42.49852000566766" lon="13.352948149154415"><ele>1223.5</ele><time>2026-05-03T10:26:50.999Z</time></trkpt><trkpt lat="42.49843798804253" lon="13.353070377513806"><ele>1224.0</ele><time>2026-05-03T10:26:51.999Z</time></trkpt><trkpt lat="42.49838324551357" lon="13.353210292813827"><ele>1224.0</ele><time>2026-05-03T10:26:52.999Z</time></trkpt><trkpt lat="42.49836418418842" lon="13.35336614152237"><ele>1224.0</ele><time>2026-05-03T10:26:53.999Z</time></trkpt><trkpt lat="42.498378011006395" lon="13.353522862998174"><ele>1224.0</ele><time>2026-05-03T10:26:54.998Z</time></trkpt><trkpt lat="42.49842130484965" lon="13.35365766111079"><ele>1224.0</ele><time>2026-05-03T10:26:55.998Z</time></trkpt><trkpt lat="42.49845357548298" lon="13.353787275781961"><ele>1224.0</ele><time>2026-05-03T10:26:56.998Z</time></trkpt><trkpt lat="42.49844453755461" lon="13.353918627261795"><ele>1222.4</ele><time>2026-05-03T10:26:57.998Z</time></trkpt><trkpt lat="42.49839119990115" lon="13.354032833466304"><ele>1220.8000000000002</ele><time>2026-05-03T10:26:58.998Z</time></trkpt><trkpt lat="42.498303649176904" lon="13.354100388190034"><ele>1219.1999999999998</ele><time>2026-05-03T10:26:59.998Z</time></trkpt><trkpt lat="42.49819150326328" lon="13.354127884556052"><ele>1217.6</ele><time>2026-05-03T10:27:00.998Z</time></trkpt><trkpt lat="42.49806226499752" lon="13.354137508900854"><ele>1216.0</ele><time>2026-05-03T10:27:01.998Z</time></trkpt><trkpt lat="42.49792577693724" lon="13.354146048107276"><ele>1218.3333333333333</ele><time>2026-05-03T10:27:02.998Z</time></trkpt><trkpt lat="42.497788784063246" lon="13.354181818202049"><ele>1220.6666666666667</ele><time>2026-05-03T10:27:03.998Z</time></trkpt><trkpt lat="42.497654515156185" lon="13.354273624297"><ele>1223.0</ele><time>2026-05-03T10:27:04.998Z</time></trkpt><trkpt lat="42.497508287966255" lon="13.354381579481808"><ele>1223.0</ele><time>2026-05-03T10:27:05.998Z</time></trkpt><trkpt lat="42.49738010349804" lon="13.354540799118803"><ele>1223.0</ele><time>2026-05-03T10:27:06.998Z</time></trkpt><trkpt lat="42.49723249384715" lon="13.354684897476035"><ele>1223.0</ele><time>2026-05-03T10:27:07.998Z</time></trkpt><trkpt lat="42.49708867428016" lon="13.354830410448184"><ele>1223.0</ele><time>2026-05-03T10:27:08.998Z</time></trkpt><trkpt lat="42.496944106365625" lon="13.354976099358325"><ele>1223.0</ele><time>2026-05-03T10:27:09.998Z</time></trkpt><trkpt lat="42.49679729593235" lon="13.355119246030338"><ele>1223.0</ele><time>2026-05-03T10:27:10.998Z</time></trkpt><trkpt lat="42.49665229198947" lon="13.355260187222735"><ele>1223.0</ele><time>2026-05-03T10:27:11.998Z</time></trkpt><trkpt lat="42.49652163485029" lon="13.355397936852402"><ele>1223.0</ele><time>2026-05-03T10:27:12.998Z</time></trkpt><trkpt lat="42.49640964825991" lon="13.355526237440245"><ele>1223.0</ele><time>2026-05-03T10:27:14Z</time></trkpt><trkpt lat="42.49631734982266" lon="13.355655003207152"><ele>1223.0</ele><time>2026-05-03T10:27:15Z</time></trkpt><trkpt lat="42.496250088620336" lon="13.355799616911948"><ele>1225.0</ele><time>2026-05-03T10:27:16Z</time></trkpt><trkpt lat="42.49621412043833" lon="13.355964033714198"><ele>1227.0</ele><time>2026-05-03T10:27:17Z</time></trkpt><trkpt lat="42.49621067350027" lon="13.356120769871705"><ele>1229.0</ele><time>2026-05-03T10:27:18Z</time></trkpt><trkpt lat="42.49624180304165" lon="13.356252463142322"><ele>1231.0</ele><time>2026-05-03T10:27:19Z</time></trkpt><trkpt lat="42.496312584338035" lon="13.356365150948289"><ele>1227.0</ele><time>2026-05-03T10:27:20Z</time></trkpt><trkpt lat="42.49641153719158" lon="13.356461728287396"><ele>1223.0</ele><time>2026-05-03T10:27:21Z</time></trkpt><trkpt lat="42.49652371249339" lon="13.356558750878655"><ele>1219.0</ele><time>2026-05-03T10:27:22Z</time></trkpt><trkpt lat="42.49663050050582" lon="13.356666446734414"><ele>1215.0</ele><time>2026-05-03T10:27:23Z</time></trkpt><trkpt lat="42.49672125727082" lon="13.35678071629133"><ele>1215.0</ele><time>2026-05-03T10:27:24Z</time></trkpt><trkpt lat="42.496786805734146" lon="13.3569072370404"><ele>1215.0</ele><time>2026-05-03T10:27:25Z</time></trkpt><trkpt lat="42.496820599387284" lon="13.357048591600996"><ele>1215.0</ele><time>2026-05-03T10:27:26Z</time></trkpt><trkpt lat="42.49682079700694" lon="13.357201808597399"><ele>1215.0</ele><time>2026-05-03T10:27:27Z</time></trkpt><trkpt lat="42.49678106316542" lon="13.357356415116762"><ele>1215.0</ele><time>2026-05-03T10:27:28Z</time></trkpt><trkpt lat="42.49672085601606" lon="13.35750585159031"><ele>1215.0</ele><time>2026-05-03T10:27:29Z</time></trkpt><trkpt lat="42.496656702180516" lon="13.357627913064091"><ele>1215.0</ele><time>2026-05-03T10:27:30Z</time></trkpt><trkpt lat="42.49657443759975" lon="13.357716991120883"><ele>1215.0</ele><time>2026-05-03T10:27:31Z</time></trkpt><trkpt lat="42.49645935303716" lon="13.357756909711904"><ele>1215.0</ele><time>2026-05-03T10:27:32Z</time></trkpt><trkpt lat="42.49632598214439" lon="13.357760933563007"><ele>1215.0</ele><time>2026-05-03T10:27:33Z</time></trkpt><trkpt lat="42.49617609621575" lon="13.357742755705784"><ele>1215.0</ele><time>2026-05-03T10:27:34Z</time></trkpt><trkpt lat="42.496027541253135" lon="13.357734576219533"><ele>1215.0</ele><time>2026-05-03T10:27:35Z</time></trkpt><trkpt lat="42.49588594447568" lon="13.35775496877597"><ele>1214.0</ele><time>2026-05-03T10:27:36Z</time></trkpt><trkpt lat="42.49575799389838" lon="13.357815878908191"><ele>1213.0</ele><time>2026-05-03T10:27:37Z</time></trkpt><trkpt lat="42.495639830963256" lon="13.35791613533846"><ele>1212.0</ele><time>2026-05-03T10:27:38Z</time></trkpt><trkpt lat="42.49554492346179" lon="13.35805653730789"><ele>1211.0</ele><time>2026-05-03T10:27:39Z</time></trkpt><trkpt lat="42.495476173067765" lon="13.358228334462703"><ele>1211.0</ele><time>2026-05-03T10:27:40Z</time></trkpt><trkpt lat="42.49543109095153" lon="13.358418482060497"><ele>1211.0</ele><time>2026-05-03T10:27:41Z</time></trkpt><trkpt lat="42.49541341032636" lon="13.358616234302133"><ele>1211.0</ele><time>2026-05-03T10:27:42Z</time></trkpt><trkpt lat="42.4954175353553" lon="13.358816525631719"><ele>1211.0</ele><time>2026-05-03T10:27:43Z</time></trkpt><trkpt lat="42.495450185223554" lon="13.35901645583148"><ele>1208.6666666666667</ele><time>2026-05-03T10:27:44Z</time></trkpt><trkpt lat="42.49550135824345" lon="13.359211606435968"><ele>1206.3333333333333</ele><time>2026-05-03T10:27:45Z</time></trkpt><trkpt lat="42.49556404086314" lon="13.35940410296946"><ele>1204.0</ele><time>2026-05-03T10:27:46Z</time></trkpt><trkpt lat="42.49561767312909" lon="13.35960094563234"><ele>1205.3333333333333</ele><time>2026-05-03T10:27:47Z</time></trkpt><trkpt lat="42.49563505869331" lon="13.359818185213719"><ele>1206.6666666666667</ele><time>2026-05-03T10:27:48Z</time></trkpt><trkpt lat="42.49564496425766" lon="13.360032589703325"><ele>1208.0</ele><time>2026-05-03T10:27:49Z</time></trkpt><trkpt lat="42.495668620932854" lon="13.360231719970292"><ele>1208.0</ele><time>2026-05-03T10:27:50Z</time></trkpt><trkpt lat="42.49565840337448" lon="13.360412834379423"><ele>1208.0</ele><time>2026-05-03T10:27:51Z</time></trkpt><trkpt lat="42.49567933603176" lon="13.360568699087718"><ele>1208.0</ele><time>2026-05-03T10:27:52Z</time></trkpt><trkpt lat="42.49567321200171" lon="13.360706104930385"><ele>1208.0</ele><time>2026-05-03T10:27:53Z</time></trkpt><trkpt lat="42.49563485442343" lon="13.360810806517605"><ele>1208.0</ele><time>2026-05-03T10:27:54Z</time></trkpt><trkpt lat="42.49555985551928" lon="13.360873360273231"><ele>1207.75</ele><time>2026-05-03T10:27:55Z</time></trkpt><trkpt lat="42.49546061410107" lon="13.360839357260536"><ele>1207.5</ele><time>2026-05-03T10:27:56Z</time></trkpt><trkpt lat="42.4953741580447" lon="13.36077348261176"><ele>1207.25</ele><time>2026-05-03T10:27:57Z</time></trkpt><trkpt lat="42.495281685108594" lon="13.360664179760738"><ele>1207.0</ele><time>2026-05-03T10:27:58Z</time></trkpt><trkpt lat="42.495177382481955" lon="13.360541752855047"><ele>1209.5</ele><time>2026-05-03T10:27:59Z</time></trkpt><trkpt lat="42.49507203719394" lon="13.360413714512005"><ele>1212.0</ele><time>2026-05-03T10:27:59.999Z</time></trkpt><trkpt lat="42.494962106998514" lon="13.360283609279879"><ele>1214.5</ele><time>2026-05-03T10:28:00.999Z</time></trkpt><trkpt lat="42.49485486504296" lon="13.360155684636531"><ele>1217.0</ele><time>2026-05-03T10:28:01.999Z</time></trkpt><trkpt lat="42.494751289319076" lon="13.36004756621844"><ele>1217.0</ele><time>2026-05-03T10:28:02.999Z</time></trkpt><trkpt lat="42.49463400294358" lon="13.359979398170168"><ele>1217.0</ele><time>2026-05-03T10:28:03.999Z</time></trkpt><trkpt lat="42.49449846316652" lon="13.359955972141908"><ele>1217.0</ele><time>2026-05-03T10:28:04.999Z</time></trkpt><trkpt lat="42.49435876188901" lon="13.359960698039234"><ele>1217.0</ele><time>2026-05-03T10:28:05.999Z</time></trkpt><trkpt lat="42.494216985445995" lon="13.359941341488128"><ele>1217.0</ele><time>2026-05-03T10:28:06.999Z</time></trkpt><trkpt lat="42.49407187078556" lon="13.359887610468668"><ele>1217.0</ele><time>2026-05-03T10:28:07.999Z</time></trkpt><trkpt lat="42.49393115875461" lon="13.35980140240561"><ele>1217.0</ele><time>2026-05-03T10:28:08.999Z</time></trkpt><trkpt lat="42.493801755753516" lon="13.359677895578368"><ele>1213.0</ele><time>2026-05-03T10:28:09.999Z</time></trkpt><trkpt lat="42.493671116201995" lon="13.359552710626383"><ele>1209.0</ele><time>2026-05-03T10:28:10.999Z</time></trkpt><trkpt lat="42.49354093727482" lon="13.3594419371269"><ele>1205.0</ele><time>2026-05-03T10:28:11.999Z</time></trkpt><trkpt lat="42.49340926519993" lon="13.359355482266034"><ele>1205.0</ele><time>2026-05-03T10:28:12.999Z</time></trkpt><trkpt lat="42.4932726965604" lon="13.359305907685586"><ele>1205.0</ele><time>2026-05-03T10:28:13.999Z</time></trkpt><trkpt lat="42.49312293096263" lon="13.359304145619122"><ele>1205.0</ele><time>2026-05-03T10:28:14.999Z</time></trkpt><trkpt lat="42.49296625366452" lon="13.359331566358899"><ele>1205.0</ele><time>2026-05-03T10:28:15.999Z</time></trkpt><trkpt lat="42.49280905009444" lon="13.359364223416867"><ele>1203.0</ele><time>2026-05-03T10:28:16.999Z</time></trkpt><trkpt lat="42.49265872860499" lon="13.359400981251033"><ele>1201.0</ele><time>2026-05-03T10:28:17.999Z</time></trkpt><trkpt lat="42.49252350480082" lon="13.359437752532736"><ele>1199.0</ele><time>2026-05-03T10:28:18.999Z</time></trkpt><trkpt lat="42.49239686172219" lon="13.359445384653814"><ele>1197.0</ele><time>2026-05-03T10:28:19.999Z</time></trkpt><trkpt lat="42.49227698093514" lon="13.359411295112455"><ele>1197.0</ele><time>2026-05-03T10:28:20.999Z</time></trkpt><trkpt lat="42.49216790298635" lon="13.35932457334574"><ele>1197.0</ele><time>2026-05-03T10:28:21.999Z</time></trkpt><trkpt lat="42.492077914443634" lon="13.359210717123144"><ele>1197.0</ele><time>2026-05-03T10:28:22.999Z</time></trkpt><trkpt lat="42.49200807349883" lon="13.359076307857922"><ele>1197.0</ele><time>2026-05-03T10:28:23.999Z</time></trkpt><trkpt lat="42.4919680197847" lon="13.358923801368396"><ele>1195.5</ele><time>2026-05-03T10:28:24.999Z</time></trkpt><trkpt lat="42.491962343357905" lon="13.358755410217611"><ele>1194.0</ele><time>2026-05-03T10:28:25.999Z</time></trkpt><trkpt lat="42.49198865046025" lon="13.358580402725432"><ele>1192.5</ele><time>2026-05-03T10:28:26.999Z</time></trkpt><trkpt lat="42.49202912420615" lon="13.35841218322375"><ele>1191.0</ele><time>2026-05-03T10:28:27.999Z</time></trkpt><trkpt lat="42.49205922028925" lon="13.358260851697976"><ele>1191.0</ele><time>2026-05-03T10:28:28.999Z</time></trkpt><trkpt lat="42.492064781848036" lon="13.358125324031857"><ele>1191.0</ele><time>2026-05-03T10:28:29.999Z</time></trkpt><trkpt lat="42.49203525595937" lon="13.358004192576743"><ele>1191.0</ele><time>2026-05-03T10:28:30.999Z</time></trkpt><trkpt lat="42.49195590999491" lon="13.357906851798015"><ele>1191.0</ele><time>2026-05-03T10:28:31.999Z</time></trkpt><trkpt lat="42.49184535604339" lon="13.35783336051011"><ele>1191.0</ele><time>2026-05-03T10:28:32.999Z</time></trkpt><trkpt lat="42.49171768106485" lon="13.357790235143625"><ele>1191.0</ele><time>2026-05-03T10:28:33.999Z</time></trkpt><trkpt lat="42.49158929961777" lon="13.357780032460337"><ele>1191.0</ele><time>2026-05-03T10:28:34.999Z</time></trkpt><trkpt lat="42.49147317479658" lon="13.357820337964382"><ele>1191.0</ele><time>2026-05-03T10:28:35.999Z</time></trkpt><trkpt lat="42.49136283173335" lon="13.357921626887283"><ele>1191.0</ele><time>2026-05-03T10:28:36.999Z</time></trkpt><trkpt lat="42.49125887146052" lon="13.358047190717794"><ele>1191.0</ele><time>2026-05-03T10:28:37.999Z</time></trkpt><trkpt lat="42.49115189259498" lon="13.358164872347942"><ele>1191.0</ele><time>2026-05-03T10:28:38.999Z</time></trkpt><trkpt lat="42.491038022204684" lon="13.358268851604217"><ele>1191.0</ele><time>2026-05-03T10:28:39.999Z</time></trkpt><trkpt lat="42.490919250378084" lon="13.358344710371927"><ele>1191.0</ele><time>2026-05-03T10:28:40.999Z</time></trkpt><trkpt lat="42.49079624594529" lon="13.358371135284859"><ele>1191.0</ele><time>2026-05-03T10:28:41.999Z</time></trkpt><trkpt lat="42.49068046397239" lon="13.358356273603633"><ele>1191.0</ele><time>2026-05-03T10:28:42.999Z</time></trkpt><trkpt lat="42.490574743368406" lon="13.358282735904213"><ele>1191.0</ele><time>2026-05-03T10:28:43.999Z</time></trkpt><trkpt lat="42.490475504426435" lon="13.358169210290251"><ele>1191.0</ele><time>2026-05-03T10:28:44.999Z</time></trkpt><trkpt lat="42.490377059196476" lon="13.358028037707582"><ele>1190.25</ele><time>2026-05-03T10:28:45.999Z</time></trkpt><trkpt lat="42.49028139941043" lon="13.357883386863133"><ele>1189.5</ele><time>2026-05-03T10:28:46.999Z</time></trkpt><trkpt lat="42.490177667622405" lon="13.357747374299418"><ele>1188.75</ele><time>2026-05-03T10:28:47.999Z</time></trkpt><trkpt lat="42.49005354442059" lon="13.357643281366494"><ele>1188.0</ele><time>2026-05-03T10:28:48.999Z</time></trkpt><trkpt lat="42.48991621683288" lon="13.357579213612755"><ele>1188.0</ele><time>2026-05-03T10:28:49.999Z</time></trkpt><trkpt lat="42.48978412395955" lon="13.357528201416073"><ele>1188.0</ele><time>2026-05-03T10:28:50.999Z</time></trkpt><trkpt lat="42.489669780639645" lon="13.357487635050104"><ele>1188.0</ele><time>2026-05-03T10:28:51.999Z</time></trkpt><trkpt lat="42.489580789213925" lon="13.357460708170949"><ele>1188.0</ele><time>2026-05-03T10:28:52.999Z</time></trkpt><trkpt lat="42.48951263952504" lon="13.357446482494725"><ele>1188.0</ele><time>2026-05-03T10:28:53.999Z</time></trkpt><trkpt lat="42.48944345985961" lon="13.357451800620114"><ele>1187.4</ele><time>2026-05-03T10:28:54.999Z</time></trkpt><trkpt lat="42.48937117683041" lon="13.357506563173272"><ele>1186.8</ele><time>2026-05-03T10:28:55.999Z</time></trkpt><trkpt lat="42.48930504853381" lon="13.35760236556086"><ele>1186.2</ele><time>2026-05-03T10:28:56.999Z</time></trkpt><trkpt lat="42.48924937307232" lon="13.357748476150801"><ele>1185.6</ele><time>2026-05-03T10:28:57.999Z</time></trkpt><trkpt lat="42.48921139612624" lon="13.357918807410973"><ele>1185.0</ele><time>2026-05-03T10:28:58.999Z</time></trkpt><trkpt lat="42.489190949021726" lon="13.358102712351977"><ele>1185.0</ele><time>2026-05-03T10:28:59.999Z</time></trkpt><trkpt lat="42.489170871616984" lon="13.35826425055861"><ele>1185.0</ele><time>2026-05-03T10:29:00.999Z</time></trkpt><trkpt lat="42.489150787264634" lon="13.358421097487803"><ele>1185.0</ele><time>2026-05-03T10:29:01.999Z</time></trkpt><trkpt lat="42.48912820378574" lon="13.358571601616315"><ele>1185.0</ele><time>2026-05-03T10:29:02.999Z</time></trkpt><trkpt lat="42.489103415013766" lon="13.358716577326621"><ele>1185.0</ele><time>2026-05-03T10:29:03.999Z</time></trkpt><trkpt lat="42.489065636106794" lon="13.358852638562098"><ele>1185.0</ele><time>2026-05-03T10:29:04.998Z</time></trkpt><trkpt lat="42.48899877956877" lon="13.358982991716243"><ele>1185.0</ele><time>2026-05-03T10:29:05.998Z</time></trkpt><trkpt lat="42.488909774036046" lon="13.359103515849847"><ele>1185.0</ele><time>2026-05-03T10:29:06.998Z</time></trkpt><trkpt lat="42.48880804922415" lon="13.359214674692872"><ele>1184.0</ele><time>2026-05-03T10:29:07.998Z</time></trkpt><trkpt lat="42.48869770574283" lon="13.359324254076132"><ele>1183.0</ele><time>2026-05-03T10:29:08.998Z</time></trkpt><trkpt lat="42.48858559578332" lon="13.359439243045692"><ele>1182.0</ele><time>2026-05-03T10:29:09.998Z</time></trkpt><trkpt lat="42.48848076893415" lon="13.359557256285926"><ele>1181.0</ele><time>2026-05-03T10:29:10.998Z</time></trkpt><trkpt lat="42.48838588998601" lon="13.359666179747984"><ele>1180.0</ele><time>2026-05-03T10:29:11.998Z</time></trkpt><trkpt lat="42.48830300490891" lon="13.359752667430053"><ele>1179.0</ele><time>2026-05-03T10:29:12.998Z</time></trkpt><trkpt lat="42.48822608334362" lon="13.35981824903704"><ele>1178.0</ele><time>2026-05-03T10:29:13.998Z</time></trkpt><trkpt lat="42.48814236472828" lon="13.359866258339848"><ele>1177.0</ele><time>2026-05-03T10:29:14.998Z</time></trkpt><trkpt lat="42.48804881549139" lon="13.359880316076927"><ele>1176.0</ele><time>2026-05-03T10:29:15.998Z</time></trkpt><trkpt lat="42.48794376134212" lon="13.359849129684086"><ele>1175.5</ele><time>2026-05-03T10:29:16.998Z</time></trkpt><trkpt lat="42.48783780654694" lon="13.359775217744144"><ele>1175.0</ele><time>2026-05-03T10:29:17.998Z</time></trkpt><trkpt lat="42.48774007781167" lon="13.35966949282211"><ele>1174.5</ele><time>2026-05-03T10:29:18.998Z</time></trkpt><trkpt lat="42.487653461803404" lon="13.359556041751178"><ele>1174.0</ele><time>2026-05-03T10:29:20Z</time></trkpt><trkpt lat="42.48757389301954" lon="13.359453488127855"><ele>1175.4</ele><time>2026-05-03T10:29:21Z</time></trkpt><trkpt lat="42.48748552828322" lon="13.359373732859956"><ele>1176.8000000000002</ele><time>2026-05-03T10:29:22Z</time></trkpt><trkpt lat="42.48738803481674" lon="13.359323329664823"><ele>1178.1999999999998</ele><time>2026-05-03T10:29:23Z</time></trkpt><trkpt lat="42.48727750036483" lon="13.359306791869741"><ele>1179.6</ele><time>2026-05-03T10:29:24Z</time></trkpt><trkpt lat="42.48716364104679" lon="13.359312938664331"><ele>1181.0</ele><time>2026-05-03T10:29:25Z</time></trkpt><trkpt lat="42.487058005261275" lon="13.35934614083919"><ele>1181.0</ele><time>2026-05-03T10:29:26Z</time></trkpt><trkpt lat="42.48696022031351" lon="13.359398506878575"><ele>1181.0</ele><time>2026-05-03T10:29:27Z</time></trkpt><trkpt lat="42.48687478307232" lon="13.359468937002298"><ele>1181.0</ele><time>2026-05-03T10:29:28Z</time></trkpt><trkpt lat="42.48680812587635" lon="13.359566319839931"><ele>1181.0</ele><time>2026-05-03T10:29:29Z</time></trkpt><trkpt lat="42.486767116016466" lon="13.359689956491835"><ele>1181.0</ele><time>2026-05-03T10:29:30Z</time></trkpt><trkpt lat="42.48675285968256" lon="13.359845211708462"><ele>1180.5</ele><time>2026-05-03T10:29:31Z</time></trkpt><trkpt lat="42.48675543435249" lon="13.360034443786338"><ele>1180.0</ele><time>2026-05-03T10:29:32Z</time></trkpt><trkpt lat="42.48676891927804" lon="13.360242501273849"><ele>1179.5</ele><time>2026-05-03T10:29:33Z</time></trkpt><trkpt lat="42.48678298307361" lon="13.360439065285899"><ele>1179.0</ele><time>2026-05-03T10:29:34Z</time></trkpt><trkpt lat="42.4867864960165" lon="13.360632611382679"><ele>1177.6666666666667</ele><time>2026-05-03T10:29:35Z</time></trkpt><trkpt lat="42.48679246887163" lon="13.36082162890154"><ele>1176.3333333333335</ele><time>2026-05-03T10:29:36Z</time></trkpt><trkpt lat="42.486799317990034" lon="13.36100467679651"><ele>1175.0</ele><time>2026-05-03T10:29:37Z</time></trkpt><trkpt lat="42.48681387753651" lon="13.361413840908165"><ele>1175.0</ele><time>2026-05-03T10:29:38Z</time></trkpt><trkpt lat="42.4868255464843" lon="13.361639956181861"><ele>1175.0</ele><time>2026-05-03T10:29:39Z</time></trkpt><trkpt lat="42.48683561026494" lon="13.361847328697223"><ele>1175.0</ele><time>2026-05-03T10:29:40Z</time></trkpt><trkpt lat="42.486845812396005" lon="13.362035709934027"><ele>1174.5</ele><time>2026-05-03T10:29:41Z</time></trkpt><trkpt lat="42.486856169588044" lon="13.36221387395227"><ele>1174.0</ele><time>2026-05-03T10:29:42Z</time></trkpt><trkpt lat="42.48686609849541" lon="13.362382679478209"><ele>1173.5</ele><time>2026-05-03T10:29:43Z</time></trkpt><trkpt lat="42.48687099162817" lon="13.36254598660217"><ele>1173.0</ele><time>2026-05-03T10:29:44Z</time></trkpt><trkpt lat="42.48686277247529" lon="13.362707265106065"><ele>1173.0</ele><time>2026-05-03T10:29:45Z</time></trkpt><trkpt lat="42.486844419591606" lon="13.362859288758722"><ele>1173.0</ele><time>2026-05-03T10:29:46Z</time></trkpt><trkpt lat="42.48682229936933" lon="13.363005134666942"><ele>1173.0</ele><time>2026-05-03T10:29:47Z</time></trkpt><trkpt lat="42.48679299470017" lon="13.363129669874226"><ele>1173.0</ele><time>2026-05-03T10:29:48Z</time></trkpt><trkpt lat="42.48674656816558" lon="13.363251148489272"><ele>1173.0</ele><time>2026-05-03T10:29:49Z</time></trkpt><trkpt lat="42.486702615244354" lon="13.363377168229887"><ele>1172.1666666666667</ele><time>2026-05-03T10:29:50Z</time></trkpt><trkpt lat="42.48666073708682" lon="13.363498487475624"><ele>1171.3333333333333</ele><time>2026-05-03T10:29:51Z</time></trkpt><trkpt lat="42.48661934556705" lon="13.363614802325078"><ele>1170.5</ele><time>2026-05-03T10:29:52Z</time></trkpt><trkpt lat="42.486585278958145" lon="13.363706506579728"><ele>1169.6666666666665</ele><time>2026-05-03T10:29:53Z</time></trkpt><trkpt lat="42.486547902412504" lon="13.363788072778744"><ele>1168.8333333333333</ele><time>2026-05-03T10:29:54Z</time></trkpt><trkpt lat="42.486501176458944" lon="13.363913868904646"><ele>1168.0</ele><time>2026-05-03T10:29:56Z</time></trkpt><trkpt lat="42.48645732806855" lon="13.36400684581265"><ele>1168.75</ele><time>2026-05-03T10:29:58Z</time></trkpt><trkpt lat="42.486420363603514" lon="13.364141097240822"><ele>1169.5</ele><time>2026-05-03T10:30:00Z</time></trkpt><trkpt lat="42.48629485532234" lon="13.364170098199736"><ele>1170.25</ele><time>2026-05-03T10:30:01Z</time></trkpt><trkpt lat="42.486160868575745" lon="13.364220441319787"><ele>1171.0</ele><time>2026-05-03T10:30:02Z</time></trkpt><trkpt lat="42.48602010624497" lon="13.364258349616025"><ele>1171.0</ele><time>2026-05-03T10:30:03Z</time></trkpt><trkpt lat="42.48586324018221" lon="13.364306806491895"><ele>1171.0</ele><time>2026-05-03T10:30:04Z</time></trkpt><trkpt lat="42.48570424964815" lon="13.364356599076508"><ele>1171.0</ele><time>2026-05-03T10:30:05Z</time></trkpt><trkpt lat="42.48554844470628" lon="13.364410182707015"><ele>1172.6666666666665</ele><time>2026-05-03T10:30:05.999Z</time></trkpt><trkpt lat="42.48539579355166" lon="13.364461500421768"><ele>1174.3333333333333</ele><time>2026-05-03T10:30:06.999Z</time></trkpt><trkpt lat="42.485244817539" lon="13.364508624605167"><ele>1176.0</ele><time>2026-05-03T10:30:07.999Z</time></trkpt><trkpt lat="42.48509044487383" lon="13.36454640782482"><ele>1176.0</ele><time>2026-05-03T10:30:08.999Z</time></trkpt><trkpt lat="42.4849355593403" lon="13.364572474474981"><ele>1176.0</ele><time>2026-05-03T10:30:09.999Z</time></trkpt><trkpt lat="42.48478248637732" lon="13.364581688883598"><ele>1176.0</ele><time>2026-05-03T10:30:10.999Z</time></trkpt><trkpt lat="42.48463460048085" lon="13.364569719341215"><ele>1179.0</ele><time>2026-05-03T10:30:11.999Z</time></trkpt><trkpt lat="42.48447812928674" lon="13.364539883479024"><ele>1182.0</ele><time>2026-05-03T10:30:12.999Z</time></trkpt><trkpt lat="42.48432502788298" lon="13.364494297856867"><ele>1185.0</ele><time>2026-05-03T10:30:13.999Z</time></trkpt><trkpt lat="42.48418006820194" lon="13.364439444395229"><ele>1185.0</ele><time>2026-05-03T10:30:14.999Z</time></trkpt><trkpt lat="42.48405548973851" lon="13.364349381541725"><ele>1185.0</ele><time>2026-05-03T10:30:15.999Z</time></trkpt><trkpt lat="42.483934204889245" lon="13.364279835416713"><ele>1185.0</ele><time>2026-05-03T10:30:16.999Z</time></trkpt><trkpt lat="42.483812348593865" lon="13.36421625809809"><ele>1185.0</ele><time>2026-05-03T10:30:17.999Z</time></trkpt><trkpt lat="42.483697520432436" lon="13.364126061210444"><ele>1184.0</ele><time>2026-05-03T10:30:18.999Z</time></trkpt><trkpt lat="42.48358331184205" lon="13.364019984683852"><ele>1183.0</ele><time>2026-05-03T10:30:19.999Z</time></trkpt><trkpt lat="42.483470058176685" lon="13.363895326374728"><ele>1182.0</ele><time>2026-05-03T10:30:20.999Z</time></trkpt><trkpt lat="42.48336702460255" lon="13.363749947657872"><ele>1181.0</ele><time>2026-05-03T10:30:21.999Z</time></trkpt><trkpt lat="42.4832798901995" lon="13.363598205639942"><ele>1183.5</ele><time>2026-05-03T10:30:22.999Z</time></trkpt><trkpt lat="42.48320561261927" lon="13.363450213553696"><ele>1186.0</ele><time>2026-05-03T10:30:23.999Z</time></trkpt><trkpt lat="42.48314184501353" lon="13.363309049769375"><ele>1188.5</ele><time>2026-05-03T10:30:24.999Z</time></trkpt><trkpt lat="42.483089762134746" lon="13.36316544735377"><ele>1191.0</ele><time>2026-05-03T10:30:25.999Z</time></trkpt><trkpt lat="42.483047129408796" lon="13.363002567434378"><ele>1191.6666666666667</ele><time>2026-05-03T10:30:26.999Z</time></trkpt><trkpt lat="42.483005189386915" lon="13.362816903851549"><ele>1192.3333333333335</ele><time>2026-05-03T10:30:27.999Z</time></trkpt><trkpt lat="42.48296442096636" lon="13.362617025208797"><ele>1193.0</ele><time>2026-05-03T10:30:28.999Z</time></trkpt><trkpt lat="42.482922264401765" lon="13.36239414064176"><ele>1195.0</ele><time>2026-05-03T10:30:29.999Z</time></trkpt><trkpt lat="42.482876779935985" lon="13.362160369818032"><ele>1197.0</ele><time>2026-05-03T10:30:30.999Z</time></trkpt><trkpt lat="42.48283718014288" lon="13.3619209830896"><ele>1199.0</ele><time>2026-05-03T10:30:31.999Z</time></trkpt><trkpt lat="42.482807570862505" lon="13.3617102464467"><ele>1199.0</ele><time>2026-05-03T10:30:32.999Z</time></trkpt><trkpt lat="42.48278008900063" lon="13.361510275820335"><ele>1199.0</ele><time>2026-05-03T10:30:33.999Z</time></trkpt><trkpt lat="42.482749873420126" lon="13.361323400069077"><ele>1199.0</ele><time>2026-05-03T10:30:34.999Z</time></trkpt><trkpt lat="42.482713267231226" lon="13.361150503539452"><ele>1199.0</ele><time>2026-05-03T10:30:35.999Z</time></trkpt><trkpt lat="42.482660751794924" lon="13.360994023539309"><ele>1201.25</ele><time>2026-05-03T10:30:36.999Z</time></trkpt><trkpt lat="42.482581600137976" lon="13.360865741630578"><ele>1203.5</ele><time>2026-05-03T10:30:37.999Z</time></trkpt><trkpt lat="42.48248704398828" lon="13.360768585904863"><ele>1205.75</ele><time>2026-05-03T10:30:38.999Z</time></trkpt><trkpt lat="42.482374382208064" lon="13.360730021246578"><ele>1208.0</ele><time>2026-05-03T10:30:39.999Z</time></trkpt><trkpt lat="42.48227289325985" lon="13.360707641777823"><ele>1208.0</ele><time>2026-05-03T10:30:40.999Z</time></trkpt><trkpt lat="42.48216882306583" lon="13.360807589726157"><ele>1208.0</ele><time>2026-05-03T10:30:41.999Z</time></trkpt><trkpt lat="42.48208795542959" lon="13.3609140347651"><ele>1208.0</ele><time>2026-05-03T10:30:42.999Z</time></trkpt><trkpt lat="42.48203749234356" lon="13.361053141960992"><ele>1208.0</ele><time>2026-05-03T10:30:43.999Z</time></trkpt><trkpt lat="42.48201481656291" lon="13.361217692359364"><ele>1212.0</ele><time>2026-05-03T10:30:44.999Z</time></trkpt><trkpt lat="42.48200946485559" lon="13.361408893873985"><ele>1216.0</ele><time>2026-05-03T10:30:45.999Z</time></trkpt><trkpt lat="42.48201213273747" lon="13.361622426067346"><ele>1220.0</ele><time>2026-05-03T10:30:46.999Z</time></trkpt><trkpt lat="42.48200504844547" lon="13.36183438784154"><ele>1220.0</ele><time>2026-05-03T10:30:47.999Z</time></trkpt><trkpt lat="42.48198341547678" lon="13.3620376059276"><ele>1220.0</ele><time>2026-05-03T10:30:48.999Z</time></trkpt><trkpt lat="42.48195604180234" lon="13.36223417753915"><ele>1220.0</ele><time>2026-05-03T10:30:49.999Z</time></trkpt><trkpt lat="42.48191056555673" lon="13.362421739798037"><ele>1220.0</ele><time>2026-05-03T10:30:50.999Z</time></trkpt><trkpt lat="42.481840259261965" lon="13.362583669990215"><ele>1219.25</ele><time>2026-05-03T10:30:51.999Z</time></trkpt><trkpt lat="42.481779162782686" lon="13.362739529395624"><ele>1218.5</ele><time>2026-05-03T10:30:52.999Z</time></trkpt><trkpt lat="42.48172800491798" lon="13.362905049376998"><ele>1217.75</ele><time>2026-05-03T10:30:53.999Z</time></trkpt><trkpt lat="42.48164784423199" lon="13.363080437421738"><ele>1217.0</ele><time>2026-05-03T10:30:54.999Z</time></trkpt><trkpt lat="42.48156627823505" lon="13.363266116195364"><ele>1214.6666666666667</ele><time>2026-05-03T10:30:55.999Z</time></trkpt><trkpt lat="42.481484788703604" lon="13.363452625515611"><ele>1212.3333333333333</ele><time>2026-05-03T10:30:56.999Z</time></trkpt><trkpt lat="42.48140371348545" lon="13.363631167853173"><ele>1210.0</ele><time>2026-05-03T10:30:57.999Z</time></trkpt><trkpt lat="42.48132706411098" lon="13.363788293461656"><ele>1210.25</ele><time>2026-05-03T10:30:58.999Z</time></trkpt><trkpt lat="42.481249830316" lon="13.363914360028227"><ele>1210.5</ele><time>2026-05-03T10:30:59.999Z</time></trkpt><trkpt lat="42.481160226162395" lon="13.363995978255744"><ele>1210.75</ele><time>2026-05-03T10:31:00.999Z</time></trkpt><trkpt lat="42.48104975105643" lon="13.364027887999333"><ele>1211.0</ele><time>2026-05-03T10:31:01.999Z</time></trkpt><trkpt lat="42.480931161670966" lon="13.364000512646541"><ele>1211.0</ele><time>2026-05-03T10:31:02.999Z</time></trkpt><trkpt lat="42.48082107806749" lon="13.36388337244178"><ele>1211.0</ele><time>2026-05-03T10:31:03.999Z</time></trkpt><trkpt lat="42.480691719245904" lon="13.363781124452158"><ele>1211.0</ele><time>2026-05-03T10:31:04.999Z</time></trkpt><trkpt lat="42.48053958127551" lon="13.363684224608988"><ele>1213.3333333333335</ele><time>2026-05-03T10:31:05.999Z</time></trkpt><trkpt lat="42.48039244607349" lon="13.363549409536764"><ele>1215.6666666666667</ele><time>2026-05-03T10:31:06.999Z</time></trkpt><trkpt lat="42.48024698915241" lon="13.363416979331168"><ele>1218.0</ele><time>2026-05-03T10:31:07.999Z</time></trkpt><trkpt lat="42.48011825293371" lon="13.363246173767088"><ele>1218.0</ele><time>2026-05-03T10:31:08.999Z</time></trkpt><trkpt lat="42.4799702847305" lon="13.36308138127909"><ele>1218.0</ele><time>2026-05-03T10:31:09.998Z</time></trkpt><trkpt lat="42.47983045518828" lon="13.36288307027887"><ele>1218.0</ele><time>2026-05-03T10:31:10.998Z</time></trkpt><trkpt lat="42.47968791742961" lon="13.362699759215609"><ele>1220.3333333333333</ele><time>2026-05-03T10:31:11.998Z</time></trkpt><trkpt lat="42.479542718146405" lon="13.362530443908863"><ele>1222.6666666666665</ele><time>2026-05-03T10:31:12.998Z</time></trkpt><trkpt lat="42.47938264509658" lon="13.3623814170274"><ele>1225.0</ele><time>2026-05-03T10:31:13.998Z</time></trkpt><trkpt lat="42.47921470697281" lon="13.362269701204104"><ele>1227.3333333333333</ele><time>2026-05-03T10:31:14.998Z</time></trkpt><trkpt lat="42.479038489093114" lon="13.362175705558673"><ele>1229.6666666666667</ele><time>2026-05-03T10:31:15.998Z</time></trkpt><trkpt lat="42.478853678158494" lon="13.36206508930824"><ele>1232.0</ele><time>2026-05-03T10:31:16.998Z</time></trkpt><trkpt lat="42.47866779179002" lon="13.361963234104932"><ele>1232.0</ele><time>2026-05-03T10:31:17.998Z</time></trkpt><trkpt lat="42.47849102330178" lon="13.361833135198259"><ele>1232.0</ele><time>2026-05-03T10:31:18.998Z</time></trkpt><trkpt lat="42.47832321222636" lon="13.361660312008981"><ele>1232.0</ele><time>2026-05-03T10:31:19.998Z</time></trkpt><trkpt lat="42.47814794723471" lon="13.361477735415932"><ele>1234.5</ele><time>2026-05-03T10:31:20.998Z</time></trkpt><trkpt lat="42.47796922289336" lon="13.361291948386782"><ele>1237.0</ele><time>2026-05-03T10:31:21.998Z</time></trkpt><trkpt lat="42.47778059316093" lon="13.361119616067295"><ele>1237.0</ele><time>2026-05-03T10:31:22.998Z</time></trkpt><trkpt lat="42.47760015245192" lon="13.360931475400195"><ele>1237.0</ele><time>2026-05-03T10:31:23.998Z</time></trkpt><trkpt lat="42.477421529317695" lon="13.360746235910078"><ele>1237.0</ele><time>2026-05-03T10:31:24.998Z</time></trkpt><trkpt lat="42.477241123364735" lon="13.360555046843439"><ele>1237.0</ele><time>2026-05-03T10:31:26Z</time></trkpt><trkpt lat="42.47706063648114" lon="13.360370676729058"><ele>1240.0</ele><time>2026-05-03T10:31:27Z</time></trkpt><trkpt lat="42.476884294869784" lon="13.360183853269385"><ele>1243.0</ele><time>2026-05-03T10:31:28Z</time></trkpt><trkpt lat="42.476704385469844" lon="13.360000416761938"><ele>1246.0</ele><time>2026-05-03T10:31:29Z</time></trkpt><trkpt lat="42.47652599532627" lon="13.359815928821591"><ele>1249.5</ele><time>2026-05-03T10:31:30Z</time></trkpt><trkpt lat="42.476346701093064" lon="13.359632733998309"><ele>1253.0</ele><time>2026-05-03T10:31:31Z</time></trkpt><trkpt lat="42.476164271597746" lon="13.359453666747507"><ele>1253.0</ele><time>2026-05-03T10:31:32Z</time></trkpt><trkpt lat="42.47599662890247" lon="13.359256361872262"><ele>1253.0</ele><time>2026-05-03T10:31:33Z</time></trkpt><trkpt lat="42.475819596640754" lon="13.35907156050015"><ele>1253.0</ele><time>2026-05-03T10:31:34Z</time></trkpt><trkpt lat="42.475642828618064" lon="13.358888958040886"><ele>1256.0</ele><time>2026-05-03T10:31:35Z</time></trkpt><trkpt lat="42.475468516144765" lon="13.358703141101445"><ele>1259.0</ele><time>2026-05-03T10:31:36Z</time></trkpt><trkpt lat="42.47530074724225" lon="13.358526488598233"><ele>1262.0</ele><time>2026-05-03T10:31:37Z</time></trkpt><trkpt lat="42.475148333931244" lon="13.358365501557534"><ele>1262.0</ele><time>2026-05-03T10:31:38Z</time></trkpt><trkpt lat="42.4750055921802" lon="13.358200746842071"><ele>1262.0</ele><time>2026-05-03T10:31:39Z</time></trkpt><trkpt lat="42.474872839244554" lon="13.358026866106092"><ele>1262.0</ele><time>2026-05-03T10:31:40Z</time></trkpt><trkpt lat="42.47475892626861" lon="13.357829943799187"><ele>1261.3333333333335</ele><time>2026-05-03T10:31:41Z</time></trkpt><trkpt lat="42.47463695602466" lon="13.357633927328983"><ele>1260.6666666666667</ele><time>2026-05-03T10:31:42Z</time></trkpt><trkpt lat="42.47452904825657" lon="13.357438884408708"><ele>1260.0</ele><time>2026-05-03T10:31:43Z</time></trkpt><trkpt lat="42.474411374272954" lon="13.35727669123302"><ele>1264.0</ele><time>2026-05-03T10:31:44Z</time></trkpt><trkpt lat="42.4742764355008" lon="13.357135374174478"><ele>1268.0</ele><time>2026-05-03T10:31:45Z</time></trkpt><trkpt lat="42.47410840110888" lon="13.357033795718298"><ele>1272.0</ele><time>2026-05-03T10:31:46Z</time></trkpt><trkpt lat="42.473922254369235" lon="13.356959198155177"><ele>1271.6666666666667</ele><time>2026-05-03T10:31:47Z</time></trkpt><trkpt lat="42.47372612407812" lon="13.356892143375655"><ele>1271.3333333333335</ele><time>2026-05-03T10:31:48Z</time></trkpt><trkpt lat="42.473533487694304" lon="13.356795865136815"><ele>1271.0</ele><time>2026-05-03T10:31:49Z</time></trkpt><trkpt lat="42.4733368125003" lon="13.356730420137497"><ele>1271.0</ele><time>2026-05-03T10:31:50Z</time></trkpt><trkpt lat="42.47315042681844" lon="13.356614666468959"><ele>1271.0</ele><time>2026-05-03T10:31:51Z</time></trkpt><trkpt lat="42.47297795397639" lon="13.356442923001676"><ele>1271.0</ele><time>2026-05-03T10:31:52Z</time></trkpt><trkpt lat="42.47280701057509" lon="13.356254668966816"><ele>1274.5</ele><time>2026-05-03T10:31:53Z</time></trkpt><trkpt lat="42.47262996687803" lon="13.356059095626971"><ele>1278.0</ele><time>2026-05-03T10:31:54Z</time></trkpt><trkpt lat="42.47244285441412" lon="13.355874716643491"><ele>1278.0</ele><time>2026-05-03T10:31:55Z</time></trkpt><trkpt lat="42.47226392727146" lon="13.35567268771979"><ele>1278.0</ele><time>2026-05-03T10:31:56Z</time></trkpt><trkpt lat="42.47208488087927" lon="13.355473554712965"><ele>1278.5</ele><time>2026-05-03T10:31:57Z</time></trkpt><trkpt lat="42.47190591502339" lon="13.35527716859587"><ele>1279.0</ele><time>2026-05-03T10:31:58Z</time></trkpt><trkpt lat="42.471730331613095" lon="13.355088027164394"><ele>1279.0</ele><time>2026-05-03T10:31:59Z</time></trkpt><trkpt lat="42.471557517892066" lon="13.354903322622137"><ele>1279.0</ele><time>2026-05-03T10:32:00Z</time></trkpt><trkpt lat="42.471389606324784" lon="13.354721240665826"><ele>1279.0</ele><time>2026-05-03T10:32:01Z</time></trkpt><trkpt lat="42.47122586139236" lon="13.354539635637451"><ele>1280.0</ele><time>2026-05-03T10:32:02Z</time></trkpt><trkpt lat="42.47106919839442" lon="13.354362676205254"><ele>1281.0</ele><time>2026-05-03T10:32:03Z</time></trkpt><trkpt lat="42.47091481218758" lon="13.354188554221142"><ele>1282.0</ele><time>2026-05-03T10:32:04Z</time></trkpt><trkpt lat="42.47076258875332" lon="13.35401980492791"><ele>1280.6666666666665</ele><time>2026-05-03T10:32:05Z</time></trkpt><trkpt lat="42.47061022220783" lon="13.353859890041482"><ele>1279.3333333333333</ele><time>2026-05-03T10:32:06Z</time></trkpt><trkpt lat="42.47045514530329" lon="13.353714246401418"><ele>1278.0</ele><time>2026-05-03T10:32:07Z</time></trkpt><trkpt lat="42.47028453500519" lon="13.353601634913897"><ele>1278.0</ele><time>2026-05-03T10:32:08Z</time></trkpt><trkpt lat="42.47009953781817" lon="13.353527666296813"><ele>1278.0</ele><time>2026-05-03T10:32:09Z</time></trkpt><trkpt lat="42.4698966599469" lon="13.353486214199567"><ele>1278.0</ele><time>2026-05-03T10:32:09.999Z</time></trkpt><trkpt lat="42.46968533992079" lon="13.3534763963069"><ele>1280.0</ele><time>2026-05-03T10:32:10.999Z</time></trkpt><trkpt lat="42.46947350589014" lon="13.353494128919813"><ele>1282.0</ele><time>2026-05-03T10:32:11.999Z</time></trkpt><trkpt lat="42.46927133784385" lon="13.353541321185178"><ele>1284.0</ele><time>2026-05-03T10:32:12.999Z</time></trkpt><trkpt lat="42.469083421301" lon="13.35359790514516"><ele>1284.0</ele><time>2026-05-03T10:32:13.999Z</time></trkpt><trkpt lat="42.46890426942708" lon="13.353654490209415"><ele>1284.0</ele><time>2026-05-03T10:32:14.999Z</time></trkpt><trkpt lat="42.46874778805006" lon="13.353716902503303"><ele>1284.0</ele><time>2026-05-03T10:32:15.999Z</time></trkpt><trkpt lat="42.46860558761419" lon="13.353801696084092"><ele>1284.6666666666667</ele><time>2026-05-03T10:32:16.999Z</time></trkpt><trkpt lat="42.468479933609444" lon="13.353935856042886"><ele>1285.3333333333335</ele><time>2026-05-03T10:32:17.999Z</time></trkpt><trkpt lat="42.46836096546367" lon="13.35411349748137"><ele>1286.0</ele><time>2026-05-03T10:32:18.999Z</time></trkpt><trkpt lat="42.468255854578516" lon="13.354301380559807"><ele>1286.0</ele><time>2026-05-03T10:32:19.999Z</time></trkpt><trkpt lat="42.46814831114032" lon="13.35448261648924"><ele>1286.0</ele><time>2026-05-03T10:32:20.999Z</time></trkpt><trkpt lat="42.46803896908208" lon="13.354652466371311"><ele>1286.0</ele><time>2026-05-03T10:32:21.999Z</time></trkpt><trkpt lat="42.46793189955482" lon="13.354799859166583"><ele>1287.5</ele><time>2026-05-03T10:32:22.999Z</time></trkpt><trkpt lat="42.46782827241141" lon="13.354909157877525"><ele>1289.0</ele><time>2026-05-03T10:32:23.999Z</time></trkpt><trkpt lat="42.46770979741497" lon="13.354962965617514"><ele>1290.5</ele><time>2026-05-03T10:32:24.999Z</time></trkpt><trkpt lat="42.46758496788486" lon="13.354973686089686"><ele>1292.0</ele><time>2026-05-03T10:32:25.999Z</time></trkpt><trkpt lat="42.467452035379495" lon="13.354935924878397"><ele>1292.0</ele><time>2026-05-03T10:32:26.999Z</time></trkpt><trkpt lat="42.46731366424915" lon="13.35486293451948"><ele>1292.0</ele><time>2026-05-03T10:32:27.999Z</time></trkpt><trkpt lat="42.46715286675409" lon="13.354795483107928"><ele>1292.0</ele><time>2026-05-03T10:32:28.999Z</time></trkpt><trkpt lat="42.4669724838283" lon="13.354757536955509"><ele>1292.0</ele><time>2026-05-03T10:32:29.999Z</time></trkpt><trkpt lat="42.46678954309945" lon="13.354741993045332"><ele>1292.0</ele><time>2026-05-03T10:32:30.999Z</time></trkpt><trkpt lat="42.466610242672566" lon="13.35474433869267"><ele>1292.0</ele><time>2026-05-03T10:32:31.999Z</time></trkpt><trkpt lat="42.46642770659915" lon="13.354779193827929"><ele>1288.3333333333335</ele><time>2026-05-03T10:32:32.999Z</time></trkpt><trkpt lat="42.46625180886904" lon="13.354864192050618"><ele>1284.6666666666667</ele><time>2026-05-03T10:32:33.999Z</time></trkpt><trkpt lat="42.466081985037555" lon="13.354978697823624"><ele>1281.0</ele><time>2026-05-03T10:32:34.999Z</time></trkpt><trkpt lat="42.46589955673689" lon="13.355066236886453"><ele>1281.0</ele><time>2026-05-03T10:32:35.999Z</time></trkpt><trkpt lat="42.46572397021361" lon="13.355202468063885"><ele>1281.0</ele><time>2026-05-03T10:32:36.999Z</time></trkpt><trkpt lat="42.46555229182659" lon="13.355349716605332"><ele>1281.0</ele><time>2026-05-03T10:32:37.999Z</time></trkpt><trkpt lat="42.46538663784393" lon="13.355506411829719"><ele>1285.6666666666667</ele><time>2026-05-03T10:32:38.999Z</time></trkpt><trkpt lat="42.46522727232989" lon="13.355662189766619"><ele>1290.3333333333335</ele><time>2026-05-03T10:32:39.999Z</time></trkpt><trkpt lat="42.46508131429201" lon="13.35580773588781"><ele>1295.0</ele><time>2026-05-03T10:32:40.999Z</time></trkpt><trkpt lat="42.464941779452445" lon="13.355938944848933"><ele>1295.0</ele><time>2026-05-03T10:32:41.999Z</time></trkpt><trkpt lat="42.46479926318213" lon="13.356034284397179"><ele>1295.0</ele><time>2026-05-03T10:32:42.999Z</time></trkpt><trkpt lat="42.464652137650916" lon="13.356081005775327"><ele>1295.0</ele><time>2026-05-03T10:32:43.999Z</time></trkpt><trkpt lat="42.46449393905164" lon="13.356072542537769"><ele>1292.3333333333335</ele><time>2026-05-03T10:32:44.999Z</time></trkpt><trkpt lat="42.46433052528922" lon="13.35601195115274"><ele>1289.6666666666667</ele><time>2026-05-03T10:32:45.999Z</time></trkpt><trkpt lat="42.46417459082092" lon="13.355938111388847"><ele>1287.0</ele><time>2026-05-03T10:32:46.999Z</time></trkpt><trkpt lat="42.46401505614629" lon="13.355909609622078"><ele>1287.0</ele><time>2026-05-03T10:32:47.999Z</time></trkpt><trkpt lat="42.4638601569467" lon="13.355930389163905"><ele>1287.0</ele><time>2026-05-03T10:32:48.999Z</time></trkpt><trkpt lat="42.463706281208914" lon="13.356019000104913"><ele>1287.0</ele><time>2026-05-03T10:32:49.999Z</time></trkpt><trkpt lat="42.46355527351991" lon="13.356133273761978"><ele>1283.6666666666667</ele><time>2026-05-03T10:32:50.999Z</time></trkpt><trkpt lat="42.46340446304334" lon="13.356235773821432"><ele>1280.3333333333335</ele><time>2026-05-03T10:32:51.999Z</time></trkpt><trkpt lat="42.46325296485433" lon="13.356333920434441"><ele>1277.0</ele><time>2026-05-03T10:32:52.999Z</time></trkpt><trkpt lat="42.46310338577514" lon="13.3564276932865"><ele>1277.6666666666667</ele><time>2026-05-03T10:32:53.999Z</time></trkpt><trkpt lat="42.46295762566846" lon="13.356528120081153"><ele>1278.3333333333333</ele><time>2026-05-03T10:32:54.999Z</time></trkpt><trkpt lat="42.46282356845911" lon="13.35664400538515"><ele>1279.0</ele><time>2026-05-03T10:32:55.999Z</time></trkpt><trkpt lat="42.46271502653043" lon="13.356799521268204"><ele>1279.0</ele><time>2026-05-03T10:32:56.999Z</time></trkpt><trkpt lat="42.46263473388182" lon="13.356980517985667"><ele>1279.0</ele><time>2026-05-03T10:32:57.999Z</time></trkpt><trkpt lat="42.46257390576089" lon="13.357165626172874"><ele>1279.0</ele><time>2026-05-03T10:32:58.999Z</time></trkpt><trkpt lat="42.462517799379384" lon="13.35734206997292"><ele>1279.0</ele><time>2026-05-03T10:32:59.999Z</time></trkpt><trkpt lat="42.46246411926623" lon="13.357503606445318"><ele>1282.8000000000002</ele><time>2026-05-03T10:33:00.999Z</time></trkpt><trkpt lat="42.462407819742985" lon="13.357645279043892"><ele>1286.6000000000001</ele><time>2026-05-03T10:33:01.999Z</time></trkpt><trkpt lat="42.462347127134045" lon="13.357764391372768"><ele>1290.4</ele><time>2026-05-03T10:33:02.999Z</time></trkpt><trkpt lat="42.46226008569515" lon="13.357823376209964"><ele>1294.2</ele><time>2026-05-03T10:33:03.999Z</time></trkpt><trkpt lat="42.46217016259364" lon="13.357830978340958"><ele>1298.0</ele><time>2026-05-03T10:33:04.999Z</time></trkpt><trkpt lat="42.46208887260985" lon="13.35779466064259"><ele>1298.25</ele><time>2026-05-03T10:33:05.999Z</time></trkpt><trkpt lat="42.46201403385527" lon="13.35770844099007"><ele>1298.5</ele><time>2026-05-03T10:33:06.999Z</time></trkpt><trkpt lat="42.46195628168877" lon="13.357582315724551"><ele>1298.75</ele><time>2026-05-03T10:33:07.999Z</time></trkpt><trkpt lat="42.46188626119742" lon="13.35744422698146"><ele>1299.0</ele><time>2026-05-03T10:33:08.999Z</time></trkpt><trkpt lat="42.46179869189255" lon="13.35730797904352"><ele>1299.0</ele><time>2026-05-03T10:33:09.999Z</time></trkpt><trkpt lat="42.46171911905339" lon="13.357169481068295"><ele>1299.0</ele><time>2026-05-03T10:33:10.999Z</time></trkpt><trkpt lat="42.461610375799324" lon="13.357123155374234"><ele>1299.0</ele><time>2026-05-03T10:33:11.999Z</time></trkpt><trkpt lat="42.461495180539515" lon="13.357138046270778"><ele>1299.0</ele><time>2026-05-03T10:33:12.999Z</time></trkpt><trkpt lat="42.46138452953509" lon="13.357215676120887"><ele>1299.0</ele><time>2026-05-03T10:33:13.998Z</time></trkpt><trkpt lat="42.46128384872411" lon="13.357335081342441"><ele>1299.0</ele><time>2026-05-03T10:33:14.998Z</time></trkpt><trkpt lat="42.461183634049746" lon="13.35745302946973"><ele>1299.0</ele><time>2026-05-03T10:33:15.998Z</time></trkpt><trkpt lat="42.461074776864685" lon="13.357566821358422"><ele>1299.0</ele><time>2026-05-03T10:33:16.998Z</time></trkpt><trkpt lat="42.46096212616563" lon="13.357674279085169"><ele>1299.5</ele><time>2026-05-03T10:33:17.998Z</time></trkpt><trkpt lat="42.46083951294127" lon="13.357779124582787"><ele>1300.0</ele><time>2026-05-03T10:33:18.998Z</time></trkpt><trkpt lat="42.460720176165836" lon="13.357865815708694"><ele>1300.5</ele><time>2026-05-03T10:33:19.998Z</time></trkpt><trkpt lat="42.460604706720616" lon="13.357923145811464"><ele>1301.0</ele><time>2026-05-03T10:33:20.998Z</time></trkpt><trkpt lat="42.46049890994334" lon="13.35796420105488"><ele>1305.0</ele><time>2026-05-03T10:33:21.998Z</time></trkpt><trkpt lat="42.46040110683727" lon="13.35798520724644"><ele>1309.0</ele><time>2026-05-03T10:33:22.998Z</time></trkpt><trkpt lat="42.460310803720475" lon="13.357957682841969"><ele>1313.0</ele><time>2026-05-03T10:33:23.998Z</time></trkpt><trkpt lat="42.46023590948614" lon="13.357879939412816"><ele>1317.0</ele><time>2026-05-03T10:33:24.998Z</time></trkpt><trkpt lat="42.46019353088593" lon="13.357763001507262"><ele>1321.0</ele><time>2026-05-03T10:33:25.998Z</time></trkpt><trkpt lat="42.46021195451677" lon="13.357623521626643"><ele>1321.0</ele><time>2026-05-03T10:33:26.998Z</time></trkpt><trkpt lat="42.460233174786005" lon="13.357477369486633"><ele>1321.0</ele><time>2026-05-03T10:33:27.998Z</time></trkpt><trkpt lat="42.460331361608496" lon="13.357344082782182"><ele>1321.0</ele><time>2026-05-03T10:33:28.998Z</time></trkpt><trkpt lat="42.46041088150184" lon="13.35716037645802"><ele>1321.0</ele><time>2026-05-03T10:33:29.998Z</time></trkpt><trkpt lat="42.46051432145434" lon="13.35700391271794"><ele>1313.3333333333333</ele><time>2026-05-03T10:33:30.998Z</time></trkpt><trkpt lat="42.46061459693335" lon="13.356839657283615"><ele>1305.6666666666667</ele><time>2026-05-03T10:33:32Z</time></trkpt><trkpt lat="42.46070488683565" lon="13.356662702570764"><ele>1298.0</ele><time>2026-05-03T10:33:33Z</time></trkpt><trkpt lat="42.460781875309735" lon="13.35647027611683"><ele>1299.3333333333335</ele><time>2026-05-03T10:33:34Z</time></trkpt><trkpt lat="42.460839524232725" lon="13.356260647510087"><ele>1300.6666666666667</ele><time>2026-05-03T10:33:35Z</time></trkpt><trkpt lat="42.46086455207743" lon="13.356039905403348"><ele>1302.0</ele><time>2026-05-03T10:33:36Z</time></trkpt><trkpt lat="42.460855563909526" lon="13.355817431088532"><ele>1302.0</ele><time>2026-05-03T10:33:37Z</time></trkpt><trkpt lat="42.4608305732424" lon="13.355600257165525"><ele>1302.0</ele><time>2026-05-03T10:33:38Z</time></trkpt><trkpt lat="42.46079368065924" lon="13.355387136196056"><ele>1302.0</ele><time>2026-05-03T10:33:39Z</time></trkpt><trkpt lat="42.460758154548046" lon="13.355170409036477"><ele>1301.0</ele><time>2026-05-03T10:33:40Z</time></trkpt><trkpt lat="42.46072152003059" lon="13.354954255622127"><ele>1300.0</ele><time>2026-05-03T10:33:41Z</time></trkpt><trkpt lat="42.460684341230326" lon="13.354729150684133"><ele>1299.0</ele><time>2026-05-03T10:33:42Z</time></trkpt><trkpt lat="42.46065001922861" lon="13.354505363761058"><ele>1297.3333333333333</ele><time>2026-05-03T10:33:43Z</time></trkpt><trkpt lat="42.4606132801498" lon="13.354280198270095"><ele>1295.6666666666665</ele><time>2026-05-03T10:33:44Z</time></trkpt><trkpt lat="42.46056478762164" lon="13.35405587776072"><ele>1294.0</ele><time>2026-05-03T10:33:45Z</time></trkpt><trkpt lat="42.4605067378842" lon="13.353828558316938"><ele>1297.0</ele><time>2026-05-03T10:33:46Z</time></trkpt><trkpt lat="42.46042515234177" lon="13.353615571402162"><ele>1300.0</ele><time>2026-05-03T10:33:47Z</time></trkpt><trkpt lat="42.46032866569468" lon="13.353423383722497"><ele>1303.0</ele><time>2026-05-03T10:33:48Z</time></trkpt><trkpt lat="42.46022585026321" lon="13.353259736026285"><ele>1303.0</ele><time>2026-05-03T10:33:49Z</time></trkpt><trkpt lat="42.46012590672106" lon="13.353105118701068"><ele>1303.0</ele><time>2026-05-03T10:33:50Z</time></trkpt><trkpt lat="42.46003724290101" lon="13.352955807723326"><ele>1303.0</ele><time>2026-05-03T10:33:51Z</time></trkpt><trkpt lat="42.45995783449491" lon="13.352808092263967"><ele>1303.0</ele><time>2026-05-03T10:33:52Z</time></trkpt><trkpt lat="42.459884143852896" lon="13.352664848083933"><ele>1303.25</ele><time>2026-05-03T10:33:53Z</time></trkpt><trkpt lat="42.45981173653978" lon="13.352527967173495"><ele>1303.5</ele><time>2026-05-03T10:33:54Z</time></trkpt><trkpt lat="42.459745745803815" lon="13.352396349522241"><ele>1303.75</ele><time>2026-05-03T10:33:55Z</time></trkpt><trkpt lat="42.45968507132989" lon="13.352265400959697"><ele>1304.0</ele><time>2026-05-03T10:33:56Z</time></trkpt><trkpt lat="42.45962762008432" lon="13.352131729136795"><ele>1302.75</ele><time>2026-05-03T10:33:57Z</time></trkpt><trkpt lat="42.459573202116594" lon="13.351997211009115"><ele>1301.5</ele><time>2026-05-03T10:33:58Z</time></trkpt><trkpt lat="42.459518217012416" lon="13.351862841827415"><ele>1300.25</ele><time>2026-05-03T10:33:59Z</time></trkpt><trkpt lat="42.45946429230025" lon="13.351723781636572"><ele>1299.0</ele><time>2026-05-03T10:34:00Z</time></trkpt><trkpt lat="42.45941216273275" lon="13.351577347576296"><ele>1299.0</ele><time>2026-05-03T10:34:01Z</time></trkpt><trkpt lat="42.45935835424017" lon="13.351423181944082"><ele>1299.0</ele><time>2026-05-03T10:34:02Z</time></trkpt><trkpt lat="42.459305446343706" lon="13.351263303131242"><ele>1299.0</ele><time>2026-05-03T10:34:03Z</time></trkpt><trkpt lat="42.45924765175704" lon="13.3510972069672"><ele>1299.0</ele><time>2026-05-03T10:34:04Z</time></trkpt><trkpt lat="42.45919694500316" lon="13.350921342566275"><ele>1299.3333333333333</ele><time>2026-05-03T10:34:05Z</time></trkpt><trkpt lat="42.45914628439259" lon="13.350731901017856"><ele>1299.6666666666665</ele><time>2026-05-03T10:34:06Z</time></trkpt><trkpt lat="42.45909451557875" lon="13.350537780542256"><ele>1300.0</ele><time>2026-05-03T10:34:07Z</time></trkpt><trkpt lat="42.45904183415507" lon="13.350334414306014"><ele>1300.0</ele><time>2026-05-03T10:34:08Z</time></trkpt><trkpt lat="42.458987426152795" lon="13.350124252539386"><ele>1300.0</ele><time>2026-05-03T10:34:09Z</time></trkpt><trkpt lat="42.45892781948249" lon="13.349905025795413"><ele>1300.0</ele><time>2026-05-03T10:34:10Z</time></trkpt><trkpt lat="42.458864827376715" lon="13.349688042935105"><ele>1301.3333333333333</ele><time>2026-05-03T10:34:11Z</time></trkpt><trkpt lat="42.458792487529685" lon="13.349475212765396"><ele>1302.6666666666667</ele><time>2026-05-03T10:34:12Z</time></trkpt><trkpt lat="42.45870662055127" lon="13.349282203021389"><ele>1304.0</ele><time>2026-05-03T10:34:13Z</time></trkpt><trkpt lat="42.45859797670594" lon="13.349111947485264"><ele>1301.3333333333335</ele><time>2026-05-03T10:34:13.999Z</time></trkpt><trkpt lat="42.45846838974189" lon="13.348962343104699"><ele>1298.6666666666667</ele><time>2026-05-03T10:34:14.999Z</time></trkpt><trkpt lat="42.458328542420716" lon="13.348828993511582"><ele>1296.0</ele><time>2026-05-03T10:34:15.999Z</time></trkpt><trkpt lat="42.45819781610379" lon="13.348692254490208"><ele>1296.0</ele><time>2026-05-03T10:34:16.999Z</time></trkpt><trkpt lat="42.458086041125625" lon="13.348529565783933"><ele>1296.0</ele><time>2026-05-03T10:34:17.999Z</time></trkpt><trkpt lat="42.457987426358514" lon="13.34834068918108"><ele>1296.0</ele><time>2026-05-03T10:34:18.999Z</time></trkpt><trkpt lat="42.4579035277917" lon="13.34812930107047"><ele>1292.3333333333333</ele><time>2026-05-03T10:34:19.999Z</time></trkpt><trkpt lat="42.457833879439335" lon="13.34790829027564"><ele>1288.6666666666665</ele><time>2026-05-03T10:34:20.999Z</time></trkpt><trkpt lat="42.457764023218964" lon="13.347698328264805"><ele>1285.0</ele><time>2026-05-03T10:34:21.999Z</time></trkpt><trkpt lat="42.45768100310508" lon="13.347501249841761"><ele>1285.0</ele><time>2026-05-03T10:34:22.999Z</time></trkpt><trkpt lat="42.457573041090264" lon="13.34731633188306"><ele>1285.0</ele><time>2026-05-03T10:34:23.999Z</time></trkpt><trkpt lat="42.45743289625252" lon="13.347160896562345"><ele>1285.0</ele><time>2026-05-03T10:34:24.999Z</time></trkpt><trkpt lat="42.457264641831244" lon="13.347049838663885"><ele>1285.3333333333333</ele><time>2026-05-03T10:34:25.999Z</time></trkpt><trkpt lat="42.45709496861117" lon="13.346949660756072"><ele>1285.6666666666667</ele><time>2026-05-03T10:34:26.999Z</time></trkpt><trkpt lat="42.45692271797292" lon="13.346857020001929"><ele>1286.0</ele><time>2026-05-03T10:34:27.999Z</time></trkpt><trkpt lat="42.456761483044914" lon="13.346767496608921"><ele>1286.0</ele><time>2026-05-03T10:34:28.999Z</time></trkpt><trkpt lat="42.45660638859134" lon="13.346687493551995"><ele>1286.0</ele><time>2026-05-03T10:34:29.999Z</time></trkpt><trkpt lat="42.456453447079745" lon="13.34660794988126"><ele>1286.0</ele><time>2026-05-03T10:34:30.999Z</time></trkpt><trkpt lat="42.45630628826897" lon="13.346505135445607"><ele>1286.6666666666667</ele><time>2026-05-03T10:34:31.999Z</time></trkpt><trkpt lat="42.456174114226684" lon="13.346379350587133"><ele>1287.3333333333333</ele><time>2026-05-03T10:34:32.999Z</time></trkpt><trkpt lat="42.45606919370305" lon="13.346247368763175"><ele>1288.0</ele><time>2026-05-03T10:34:33.999Z</time></trkpt><trkpt lat="42.45598293116964" lon="13.346088704172905"><ele>1285.0</ele><time>2026-05-03T10:34:34.999Z</time></trkpt><trkpt lat="42.45593822835456" lon="13.345893769489848"><ele>1282.0</ele><time>2026-05-03T10:34:35.999Z</time></trkpt><trkpt lat="42.45591800882372" lon="13.345684137675368"><ele>1279.0</ele><time>2026-05-03T10:34:36.999Z</time></trkpt><trkpt lat="42.455919189365524" lon="13.345461672748492"><ele>1277.6666666666665</ele><time>2026-05-03T10:34:37.999Z</time></trkpt><trkpt lat="42.45592213671218" lon="13.345236170010539"><ele>1276.3333333333333</ele><time>2026-05-03T10:34:38.999Z</time></trkpt><trkpt lat="42.45591933621677" lon="13.345008722780811"><ele>1275.0</ele><time>2026-05-03T10:34:39.999Z</time></trkpt><trkpt lat="42.45591623890648" lon="13.344777766103615"><ele>1273.3333333333333</ele><time>2026-05-03T10:34:40.999Z</time></trkpt><trkpt lat="42.455912260391145" lon="13.344547981641666"><ele>1271.6666666666665</ele><time>2026-05-03T10:34:41.999Z</time></trkpt><trkpt lat="42.45589887730367" lon="13.344320009681963"><ele>1270.0</ele><time>2026-05-03T10:34:42.999Z</time></trkpt><trkpt lat="42.45587258034394" lon="13.344100772111974"><ele>1270.0</ele><time>2026-05-03T10:34:43.999Z</time></trkpt><trkpt lat="42.455828405428434" lon="13.34389342018751"><ele>1270.0</ele><time>2026-05-03T10:34:44.999Z</time></trkpt><trkpt lat="42.45576144402771" lon="13.343700088076123"><ele>1270.0</ele><time>2026-05-03T10:34:45.999Z</time></trkpt><trkpt lat="42.45567724222944" lon="13.3435215985384"><ele>1269.3333333333333</ele><time>2026-05-03T10:34:46.999Z</time></trkpt><trkpt lat="42.455554283265535" lon="13.343373623924036"><ele>1268.6666666666667</ele><time>2026-05-03T10:34:47.999Z</time></trkpt><trkpt lat="42.45541575601457" lon="13.343249351653384"><ele>1268.0</ele><time>2026-05-03T10:34:48.999Z</time></trkpt><trkpt lat="42.4552656482941" lon="13.343146246681313"><ele>1268.0</ele><time>2026-05-03T10:34:49.999Z</time></trkpt><trkpt lat="42.45510939983877" lon="13.343052882717293"><ele>1268.0</ele><time>2026-05-03T10:34:50.999Z</time></trkpt><trkpt lat="42.454948449915136" lon="13.342964968188607"><ele>1268.0</ele><time>2026-05-03T10:34:51.999Z</time></trkpt><trkpt lat="42.45478114315075" lon="13.342888303448072"><ele>1269.6666666666667</ele><time>2026-05-03T10:34:52.999Z</time></trkpt><trkpt lat="42.45461123753924" lon="13.342819287819838"><ele>1271.3333333333333</ele><time>2026-05-03T10:34:53.999Z</time></trkpt><trkpt lat="42.45443806309484" lon="13.34275750083125"><ele>1273.0</ele><time>2026-05-03T10:34:54.999Z</time></trkpt><trkpt lat="42.45426371203522" lon="13.342697881583776"><ele>1273.0</ele><time>2026-05-03T10:34:55.999Z</time></trkpt><trkpt lat="42.45409264911802" lon="13.342636384970541"><ele>1273.0</ele><time>2026-05-03T10:34:56.999Z</time></trkpt><trkpt lat="42.453925598689544" lon="13.342575423391263"><ele>1273.0</ele><time>2026-05-03T10:34:57.999Z</time></trkpt><trkpt lat="42.45376332315005" lon="13.342516726423689"><ele>1269.3333333333333</ele><time>2026-05-03T10:34:58.999Z</time></trkpt><trkpt lat="42.453601909334076" lon="13.34245995783801"><ele>1265.6666666666667</ele><time>2026-05-03T10:34:59.999Z</time></trkpt><trkpt lat="42.453441640263485" lon="13.34240660678802"><ele>1262.0</ele><time>2026-05-03T10:35:00.999Z</time></trkpt><trkpt lat="42.453279750526406" lon="13.342352187576328"><ele>1262.0</ele><time>2026-05-03T10:35:01.999Z</time></trkpt><trkpt lat="42.45311465595334" lon="13.342292087604038"><ele>1262.0</ele><time>2026-05-03T10:35:02.999Z</time></trkpt><trkpt lat="42.45294617482828" lon="13.342231299053935"><ele>1262.0</ele><time>2026-05-03T10:35:03.999Z</time></trkpt><trkpt lat="42.45277817090053" lon="13.342173622287481"><ele>1263.0</ele><time>2026-05-03T10:35:04.999Z</time></trkpt><trkpt lat="42.45261471442191" lon="13.342113626393262"><ele>1264.0</ele><time>2026-05-03T10:35:05.999Z</time></trkpt><trkpt lat="42.45245427884617" lon="13.342053425316442"><ele>1265.0</ele><time>2026-05-03T10:35:06.999Z</time></trkpt><trkpt lat="42.452293508204306" lon="13.341994815659142"><ele>1265.0</ele><time>2026-05-03T10:35:07.999Z</time></trkpt><trkpt lat="42.45213729712657" lon="13.341941718552608"><ele>1265.0</ele><time>2026-05-03T10:35:08.999Z</time></trkpt><trkpt lat="42.45197730314728" lon="13.341896093284463"><ele>1265.0</ele><time>2026-05-03T10:35:09.999Z</time></trkpt><trkpt lat="42.451812707070644" lon="13.341860585534631"><ele>1261.3333333333335</ele><time>2026-05-03T10:35:10.999Z</time></trkpt><trkpt lat="42.45164682995629" lon="13.34184301282522"><ele>1257.6666666666667</ele><time>2026-05-03T10:35:11.999Z</time></trkpt><trkpt lat="42.45148108971782" lon="13.341844380917282"><ele>1254.0</ele><time>2026-05-03T10:35:12.999Z</time></trkpt><trkpt lat="42.45132077833664" lon="13.341865296608926"><ele>1249.6666666666667</ele><time>2026-05-03T10:35:13.999Z</time></trkpt><trkpt lat="42.45116476593647" lon="13.341918515093287"><ele>1245.3333333333335</ele><time>2026-05-03T10:35:14.999Z</time></trkpt><trkpt lat="42.451011069654115" lon="13.341999862054504"><ele>1241.0</ele><time>2026-05-03T10:35:15.999Z</time></trkpt><trkpt lat="42.450862696182405" lon="13.342106025238222"><ele>1247.6666666666667</ele><time>2026-05-03T10:35:16.999Z</time></trkpt><trkpt lat="42.45073126686995" lon="13.342255062348535"><ele>1254.3333333333333</ele><time>2026-05-03T10:35:17.998Z</time></trkpt><trkpt lat="42.45060880862241" lon="13.342413432746627"><ele>1261.0</ele><time>2026-05-03T10:35:18.998Z</time></trkpt><trkpt lat="42.45046728629925" lon="13.342540812419223"><ele>1254.3333333333333</ele><time>2026-05-03T10:35:19.998Z</time></trkpt><trkpt lat="42.4502940446022" lon="13.342614204617421"><ele>1247.6666666666667</ele><time>2026-05-03T10:35:20.998Z</time></trkpt><trkpt lat="42.450119240374214" lon="13.342695119473726"><ele>1241.0</ele><time>2026-05-03T10:35:21.998Z</time></trkpt><trkpt lat="42.449948804210614" lon="13.342779327951135"><ele>1241.0</ele><time>2026-05-03T10:35:22.998Z</time></trkpt><trkpt lat="42.44977210315902" lon="13.342860679941053"><ele>1241.0</ele><time>2026-05-03T10:35:23.998Z</time></trkpt><trkpt lat="42.449598909277405" lon="13.342919270339289"><ele>1241.0</ele><time>2026-05-03T10:35:24.998Z</time></trkpt><trkpt lat="42.449422577778044" lon="13.342966079671484"><ele>1236.6666666666667</ele><time>2026-05-03T10:35:25.998Z</time></trkpt><trkpt lat="42.449241789521885" lon="13.342992994035535"><ele>1232.3333333333333</ele><time>2026-05-03T10:35:26.998Z</time></trkpt><trkpt lat="42.449057156924496" lon="13.343000136586664"><ele>1228.0</ele><time>2026-05-03T10:35:27.998Z</time></trkpt><trkpt lat="42.448871702954854" lon="13.342984669974296"><ele>1226.6666666666665</ele><time>2026-05-03T10:35:28.998Z</time></trkpt><trkpt lat="42.448684642912845" lon="13.342949549268333"><ele>1225.3333333333333</ele><time>2026-05-03T10:35:29.998Z</time></trkpt><trkpt lat="42.44849597999129" lon="13.342910618944002"><ele>1224.0</ele><time>2026-05-03T10:35:30.998Z</time></trkpt><trkpt lat="42.44831025036483" lon="13.342894222023222"><ele>1224.0</ele><time>2026-05-03T10:35:31.998Z</time></trkpt><trkpt lat="42.44812910769156" lon="13.342890038246313"><ele>1224.0</ele><time>2026-05-03T10:35:32.998Z</time></trkpt><trkpt lat="42.447949201551715" lon="13.342887896633538"><ele>1224.0</ele><time>2026-05-03T10:35:33.998Z</time></trkpt><trkpt lat="42.44776981673456" lon="13.34285982937098"><ele>1225.6666666666667</ele><time>2026-05-03T10:35:34.998Z</time></trkpt><trkpt lat="42.44760363364684" lon="13.342774842149039"><ele>1227.3333333333335</ele><time>2026-05-03T10:35:35.998Z</time></trkpt><trkpt lat="42.44742603822033" lon="13.342703610396887"><ele>1229.0</ele><time>2026-05-03T10:35:36.998Z</time></trkpt><trkpt lat="42.4472532670481" lon="13.342595886544384"><ele>1231.6666666666667</ele><time>2026-05-03T10:35:38Z</time></trkpt><trkpt lat="42.44708538670601" lon="13.342477889906755"><ele>1234.3333333333333</ele><time>2026-05-03T10:35:39Z</time></trkpt><trkpt lat="42.44692121728562" lon="13.342356297766015"><ele>1237.0</ele><time>2026-05-03T10:35:40Z</time></trkpt><trkpt lat="42.44676764444209" lon="13.342238973093728"><ele>1231.25</ele><time>2026-05-03T10:35:41Z</time></trkpt><trkpt lat="42.4466264139202" lon="13.342138178990153"><ele>1225.5</ele><time>2026-05-03T10:35:42Z</time></trkpt><trkpt lat="42.446500757343934" lon="13.342055470235819"><ele>1219.75</ele><time>2026-05-03T10:35:43Z</time></trkpt><trkpt lat="42.44638256106172" lon="13.341999421413965"><ele>1214.0</ele><time>2026-05-03T10:35:44Z</time></trkpt><trkpt lat="42.44625669270619" lon="13.341993522286328"><ele>1216.0</ele><time>2026-05-03T10:35:45Z</time></trkpt><trkpt lat="42.44612706549583" lon="13.342059379275074"><ele>1218.0</ele><time>2026-05-03T10:35:46Z</time></trkpt><trkpt lat="42.44600314887434" lon="13.342166728098057"><ele>1220.0</ele><time>2026-05-03T10:35:47Z</time></trkpt><trkpt lat="42.445879245534215" lon="13.342290909719944"><ele>1222.0</ele><time>2026-05-03T10:35:48Z</time></trkpt><trkpt lat="42.44575645562657" lon="13.342417599623138"><ele>1222.0</ele><time>2026-05-03T10:35:49Z</time></trkpt><trkpt lat="42.44564388500372" lon="13.342546859026985"><ele>1222.0</ele><time>2026-05-03T10:35:50Z</time></trkpt><trkpt lat="42.4455497759229" lon="13.342692663008187"><ele>1222.0</ele><time>2026-05-03T10:35:51Z</time></trkpt><trkpt lat="42.44548357405145" lon="13.342865753108594"><ele>1222.0</ele><time>2026-05-03T10:35:52Z</time></trkpt><trkpt lat="42.44544004036101" lon="13.343047371530561"><ele>1214.25</ele><time>2026-05-03T10:35:53Z</time></trkpt><trkpt lat="42.445411684915435" lon="13.343235485642648"><ele>1206.5</ele><time>2026-05-03T10:35:54Z</time></trkpt><trkpt lat="42.445383218499934" lon="13.343434712083937"><ele>1198.75</ele><time>2026-05-03T10:35:55Z</time></trkpt><trkpt lat="42.44535153759303" lon="13.343640946800997"><ele>1191.0</ele><time>2026-05-03T10:35:56Z</time></trkpt><trkpt lat="42.44531833509709" lon="13.343855099901658"><ele>1193.6666666666667</ele><time>2026-05-03T10:35:57Z</time></trkpt><trkpt lat="42.44527708322433" lon="13.344072408260287"><ele>1196.3333333333335</ele><time>2026-05-03T10:35:58Z</time></trkpt><trkpt lat="42.44523556109953" lon="13.34429953933757"><ele>1199.0</ele><time>2026-05-03T10:35:59Z</time></trkpt><trkpt lat="42.44519856489754" lon="13.344531496869026"><ele>1200.0</ele><time>2026-05-03T10:36:00Z</time></trkpt><trkpt lat="42.44517228617928" lon="13.344759854716331"><ele>1201.0</ele><time>2026-05-03T10:36:01Z</time></trkpt><trkpt lat="42.44516047605599" lon="13.344976517123543"><ele>1202.0</ele><time>2026-05-03T10:36:02Z</time></trkpt><trkpt lat="42.445158613106855" lon="13.34517855648033"><ele>1202.0</ele><time>2026-05-03T10:36:03Z</time></trkpt><trkpt lat="42.44513882604818" lon="13.345354422742828"><ele>1202.0</ele><time>2026-05-03T10:36:04Z</time></trkpt><trkpt lat="42.44513482061244" lon="13.345512216603177"><ele>1202.0</ele><time>2026-05-03T10:36:05Z</time></trkpt><trkpt lat="42.445080443755174" lon="13.345650617820086"><ele>1202.0</ele><time>2026-05-03T10:36:06Z</time></trkpt><trkpt lat="42.444986363077" lon="13.345753234167567"><ele>1202.25</ele><time>2026-05-03T10:36:07Z</time></trkpt><trkpt lat="42.44486041221326" lon="13.345806484342209"><ele>1202.5</ele><time>2026-05-03T10:36:08Z</time></trkpt><trkpt lat="42.444717018300324" lon="13.345833130360356"><ele>1202.75</ele><time>2026-05-03T10:36:09Z</time></trkpt><trkpt lat="42.4445604395853" lon="13.345853572416674"><ele>1203.0</ele><time>2026-05-03T10:36:10Z</time></trkpt><trkpt lat="42.444399690759326" lon="13.345857506609608"><ele>1203.0</ele><time>2026-05-03T10:36:11Z</time></trkpt><trkpt lat="42.44423865199054" lon="13.345829807275924"><ele>1203.0</ele><time>2026-05-03T10:36:12Z</time></trkpt><trkpt lat="42.44407571149749" lon="13.34576972581962"><ele>1203.0</ele><time>2026-05-03T10:36:13Z</time></trkpt><trkpt lat="42.44391727649472" lon="13.345692756330116"><ele>1206.3333333333333</ele><time>2026-05-03T10:36:14Z</time></trkpt><trkpt lat="42.44376575155548" lon="13.345607129639014"><ele>1209.6666666666665</ele><time>2026-05-03T10:36:15Z</time></trkpt><trkpt lat="42.443616998455944" lon="13.345521200982553"><ele>1213.0</ele><time>2026-05-03T10:36:16Z</time></trkpt><trkpt lat="42.44346570210504" lon="13.345453421411735"><ele>1201.6666666666665</ele><time>2026-05-03T10:36:17Z</time></trkpt><trkpt lat="42.44331148886066" lon="13.345422917487658"><ele>1190.3333333333333</ele><time>2026-05-03T10:36:18Z</time></trkpt><trkpt lat="42.443153536005646" lon="13.345435021553863"><ele>1179.0</ele><time>2026-05-03T10:36:19Z</time></trkpt><trkpt lat="42.44299767218638" lon="13.345467692830733"><ele>1183.0</ele><time>2026-05-03T10:36:19.999Z</time></trkpt><trkpt lat="42.44285919452483" lon="13.345499158020132"><ele>1187.0</ele><time>2026-05-03T10:36:20.999Z</time></trkpt><trkpt lat="42.44273157441015" lon="13.345511349915103"><ele>1191.0</ele><time>2026-05-03T10:36:21.999Z</time></trkpt><trkpt lat="42.44261932116698" lon="13.345465182172385"><ele>1195.0</ele><time>2026-05-03T10:36:22.999Z</time></trkpt><trkpt lat="42.44252969478923" lon="13.3453669854869"><ele>1195.0</ele><time>2026-05-03T10:36:23.999Z</time></trkpt><trkpt lat="42.44248088509433" lon="13.345227220952596"><ele>1195.0</ele><time>2026-05-03T10:36:24.999Z</time></trkpt><trkpt lat="42.44245716728838" lon="13.345050308061564"><ele>1195.0</ele><time>2026-05-03T10:36:25.999Z</time></trkpt><trkpt lat="42.44243822493065" lon="13.344866543830257"><ele>1195.0</ele><time>2026-05-03T10:36:26.999Z</time></trkpt><trkpt lat="42.44241606518663" lon="13.34467546579716"><ele>1193.0</ele><time>2026-05-03T10:36:27.999Z</time></trkpt><trkpt lat="42.442384633943206" lon="13.34448394066402"><ele>1191.0</ele><time>2026-05-03T10:36:28.999Z</time></trkpt><trkpt lat="42.44236316026118" lon="13.344293526789066"><ele>1189.0</ele><time>2026-05-03T10:36:29.999Z</time></trkpt><trkpt lat="42.44236311369871" lon="13.344087814755579"><ele>1187.0</ele><time>2026-05-03T10:36:30.999Z</time></trkpt><trkpt lat="42.44238182735211" lon="13.343888848212014"><ele>1183.5</ele><time>2026-05-03T10:36:31.999Z</time></trkpt><trkpt lat="42.44238170570695" lon="13.34369911139638"><ele>1180.0</ele><time>2026-05-03T10:36:32.999Z</time></trkpt><trkpt lat="42.4423442488502" lon="13.34351334503017"><ele>1176.5</ele><time>2026-05-03T10:36:33.999Z</time></trkpt><trkpt lat="42.44227468093813" lon="13.343342123958667"><ele>1173.0</ele><time>2026-05-03T10:36:34.999Z</time></trkpt><trkpt lat="42.44217949070274" lon="13.343196880283761"><ele>1179.25</ele><time>2026-05-03T10:36:35.999Z</time></trkpt><trkpt lat="42.44206374435515" lon="13.343067240829596"><ele>1185.5</ele><time>2026-05-03T10:36:36.999Z</time></trkpt><trkpt lat="42.44194782047165" lon="13.342938108977847"><ele>1191.75</ele><time>2026-05-03T10:36:37.999Z</time></trkpt><trkpt lat="42.441869780942696" lon="13.342769735444541"><ele>1198.0</ele><time>2026-05-03T10:36:38.999Z</time></trkpt><trkpt lat="42.4418227109484" lon="13.342564792249682"><ele>1198.0</ele><time>2026-05-03T10:36:39.999Z</time></trkpt><trkpt lat="42.44178001731021" lon="13.3423603778439"><ele>1198.0</ele><time>2026-05-03T10:36:40.999Z</time></trkpt><trkpt lat="42.44173415363282" lon="13.342167279574978"><ele>1198.0</ele><time>2026-05-03T10:36:41.999Z</time></trkpt><trkpt lat="42.44168113320247" lon="13.341983964249094"><ele>1191.75</ele><time>2026-05-03T10:36:42.999Z</time></trkpt><trkpt lat="42.441631413701465" lon="13.341811827854436"><ele>1185.5</ele><time>2026-05-03T10:36:43.999Z</time></trkpt><trkpt lat="42.44159002510695" lon="13.341659681305437"><ele>1179.25</ele><time>2026-05-03T10:36:44.999Z</time></trkpt><trkpt lat="42.441547451490486" lon="13.341518096218913"><ele>1173.0</ele><time>2026-05-03T10:36:45.999Z</time></trkpt><trkpt lat="42.44147403288231" lon="13.34139972948233"><ele>1171.25</ele><time>2026-05-03T10:36:46.999Z</time></trkpt><trkpt lat="42.44136475833803" lon="13.341311509371566"><ele>1169.5</ele><time>2026-05-03T10:36:47.999Z</time></trkpt><trkpt lat="42.4412385738551" lon="13.341256473561282"><ele>1167.75</ele><time>2026-05-03T10:36:48.999Z</time></trkpt><trkpt lat="42.441105961539144" lon="13.341223087903664"><ele>1166.0</ele><time>2026-05-03T10:36:49.999Z</time></trkpt><trkpt lat="42.440979947077025" lon="13.341178899846996"><ele>1166.0</ele><time>2026-05-03T10:36:50.999Z</time></trkpt><trkpt lat="42.440861094540644" lon="13.341098575812719"><ele>1166.0</ele><time>2026-05-03T10:36:51.999Z</time></trkpt><trkpt lat="42.44075139550116" lon="13.340975955277933"><ele>1166.0</ele><time>2026-05-03T10:36:52.999Z</time></trkpt><trkpt lat="42.44065132276621" lon="13.340829998289482"><ele>1166.0</ele><time>2026-05-03T10:36:53.999Z</time></trkpt><trkpt lat="42.44055671699665" lon="13.340677158538076"><ele>1166.0</ele><time>2026-05-03T10:36:54.999Z</time></trkpt><trkpt lat="42.44047046904265" lon="13.34052066813824"><ele>1166.0</ele><time>2026-05-03T10:36:55.999Z</time></trkpt><trkpt lat="42.44038673166567" lon="13.340368634848268"><ele>1166.0</ele><time>2026-05-03T10:36:56.999Z</time></trkpt><trkpt lat="42.44030736248464" lon="13.34021510447593"><ele>1166.0</ele><time>2026-05-03T10:36:57.999Z</time></trkpt><trkpt lat="42.44023145864255" lon="13.34006253620013"><ele>1166.0</ele><time>2026-05-03T10:36:58.999Z</time></trkpt><trkpt lat="42.440149244527504" lon="13.339917256081415"><ele>1166.0</ele><time>2026-05-03T10:36:59.999Z</time></trkpt><trkpt lat="42.44006214122424" lon="13.339776389440747"><ele>1166.0</ele><time>2026-05-03T10:37:00.999Z</time></trkpt><trkpt lat="42.439964414537506" lon="13.33964853349285"><ele>1166.0</ele><time>2026-05-03T10:37:01.999Z</time></trkpt><trkpt lat="42.43985193898374" lon="13.339551319792681"><ele>1162.0</ele><time>2026-05-03T10:37:02.999Z</time></trkpt><trkpt lat="42.43973797628956" lon="13.339486815276409"><ele>1158.0</ele><time>2026-05-03T10:37:03.999Z</time></trkpt><trkpt lat="42.439628690614825" lon="13.33944552254385"><ele>1154.0</ele><time>2026-05-03T10:37:04.999Z</time></trkpt><trkpt lat="42.43952666373278" lon="13.33944118430844"><ele>1150.0</ele><time>2026-05-03T10:37:05.999Z</time></trkpt><trkpt lat="42.439426507465946" lon="13.339493825466835"><ele>1146.0</ele><time>2026-05-03T10:37:06.999Z</time></trkpt><trkpt lat="42.43934771548369" lon="13.339595547426695"><ele>1147.0</ele><time>2026-05-03T10:37:07.999Z</time></trkpt><trkpt lat="42.439298357752634" lon="13.33973250388588"><ele>1148.0</ele><time>2026-05-03T10:37:08.999Z</time></trkpt><trkpt lat="42.439279079722574" lon="13.339893534736916"><ele>1149.0</ele><time>2026-05-03T10:37:09.999Z</time></trkpt><trkpt lat="42.43928800627063" lon="13.340061181329181"><ele>1150.0</ele><time>2026-05-03T10:37:10.999Z</time></trkpt><trkpt lat="42.43930160678057" lon="13.340213033485858"><ele>1150.0</ele><time>2026-05-03T10:37:11.999Z</time></trkpt><trkpt lat="42.439312884586684" lon="13.340358097847226"><ele>1150.0</ele><time>2026-05-03T10:37:12.999Z</time></trkpt><trkpt lat="42.43930930258206" lon="13.340506019032732"><ele>1150.0</ele><time>2026-05-03T10:37:13.999Z</time></trkpt><trkpt lat="42.4392809399613" lon="13.340628775307062"><ele>1150.0</ele><time>2026-05-03T10:37:14.999Z</time></trkpt><trkpt lat="42.43922735827503" lon="13.340724126456534"><ele>1150.0</ele><time>2026-05-03T10:37:15.999Z</time></trkpt><trkpt lat="42.439149196631746" lon="13.340762555565925"><ele>1150.4</ele><time>2026-05-03T10:37:16.999Z</time></trkpt><trkpt lat="42.43906194844091" lon="13.340750063697921"><ele>1150.8</ele><time>2026-05-03T10:37:17.999Z</time></trkpt><trkpt lat="42.43897263158257" lon="13.340699744598147"><ele>1151.2</ele><time>2026-05-03T10:37:18.999Z</time></trkpt><trkpt lat="42.438878953304474" lon="13.340641525095343"><ele>1151.6</ele><time>2026-05-03T10:37:19.999Z</time></trkpt><trkpt lat="42.43877359047822" lon="13.340586893857173"><ele>1152.0</ele><time>2026-05-03T10:37:20.999Z</time></trkpt><trkpt lat="42.43865991401376" lon="13.34053105337476"><ele>1149.0</ele><time>2026-05-03T10:37:21.999Z</time></trkpt><trkpt lat="42.438540234742455" lon="13.340462018384725"><ele>1146.0</ele><time>2026-05-03T10:37:22.999Z</time></trkpt><trkpt lat="42.43842448574765" lon="13.340373994922992"><ele>1143.0</ele><time>2026-05-03T10:37:23.998Z</time></trkpt><trkpt lat="42.438321992913586" lon="13.340275950576638"><ele>1140.0</ele><time>2026-05-03T10:37:24.998Z</time></trkpt><trkpt lat="42.43822948646661" lon="13.340172672652187"><ele>1140.0</ele><time>2026-05-03T10:37:25.998Z</time></trkpt><trkpt lat="42.43814787786713" lon="13.340070422686948"><ele>1140.0</ele><time>2026-05-03T10:37:26.998Z</time></trkpt><trkpt lat="42.43807157002455" lon="13.339973079026919"><ele>1140.0</ele><time>2026-05-03T10:37:27.998Z</time></trkpt><trkpt lat="42.43799898740731" lon="13.339900862549278"><ele>1140.0</ele><time>2026-05-03T10:37:28.998Z</time></trkpt><trkpt lat="42.43791822407475" lon="13.339848520594797"><ele>1140.0</ele><time>2026-05-03T10:37:29.998Z</time></trkpt><trkpt lat="42.4378269555853" lon="13.339837903320317"><ele>1139.0</ele><time>2026-05-03T10:37:30.998Z</time></trkpt><trkpt lat="42.43773409287903" lon="13.33988372237002"><ele>1138.0</ele><time>2026-05-03T10:37:31.998Z</time></trkpt><trkpt lat="42.437646959010785" lon="13.33996401244285"><ele>1137.0</ele><time>2026-05-03T10:37:32.998Z</time></trkpt><trkpt lat="42.437575613299074" lon="13.340081579573333"><ele>1136.0</ele><time>2026-05-03T10:37:33.998Z</time></trkpt><trkpt lat="42.437523806890766" lon="13.340220861585097"><ele>1135.0</ele><time>2026-05-03T10:37:34.998Z</time></trkpt><trkpt lat="42.43751073543193" lon="13.340369296065722"><ele>1135.0</ele><time>2026-05-03T10:37:35.998Z</time></trkpt><trkpt lat="42.43754119710635" lon="13.340512832008354"><ele>1135.0</ele><time>2026-05-03T10:37:36.998Z</time></trkpt><trkpt lat="42.4376039884759" lon="13.340654438092674"><ele>1135.0</ele><time>2026-05-03T10:37:37.998Z</time></trkpt><trkpt lat="42.43766699224538" lon="13.340797282286683"><ele>1135.0</ele><time>2026-05-03T10:37:38.998Z</time></trkpt><trkpt lat="42.43772785448132" lon="13.340931496920852"><ele>1133.5</ele><time>2026-05-03T10:37:39.998Z</time></trkpt><trkpt lat="42.437787942180584" lon="13.341062205747411"><ele>1132.0</ele><time>2026-05-03T10:37:40.998Z</time></trkpt><trkpt lat="42.43785546992867" lon="13.341182446444723"><ele>1130.5</ele><time>2026-05-03T10:37:41.998Z</time></trkpt><trkpt lat="42.437926089488755" lon="13.341308738283237"><ele>1129.0</ele><time>2026-05-03T10:37:42.998Z</time></trkpt><trkpt lat="42.437988791874076" lon="13.341443664274799"><ele>1134.8</ele><time>2026-05-03T10:37:44Z</time></trkpt><trkpt lat="42.43803925564862" lon="13.341584914433868"><ele>1140.6000000000001</ele><time>2026-05-03T10:37:45Z</time></trkpt><trkpt lat="42.43807509203746" lon="13.341728923326277"><ele>1146.4</ele><time>2026-05-03T10:37:46Z</time></trkpt><trkpt lat="42.43810270364166" lon="13.34187828581695"><ele>1152.2</ele><time>2026-05-03T10:37:47Z</time></trkpt><trkpt lat="42.4381082368325" lon="13.342022772876751"><ele>1158.0</ele><time>2026-05-03T10:37:48Z</time></trkpt><trkpt lat="42.438084766802575" lon="13.342156493350517"><ele>1158.6</ele><time>2026-05-03T10:37:49Z</time></trkpt><trkpt lat="42.438036315469816" lon="13.342268132628684"><ele>1159.1999999999998</ele><time>2026-05-03T10:37:50Z</time></trkpt><trkpt lat="42.43796548120706" lon="13.342345482758986"><ele>1159.8</ele><time>2026-05-03T10:37:51Z</time></trkpt><trkpt lat="42.43788324182308" lon="13.342394960943443"><ele>1160.3999999999999</ele><time>2026-05-03T10:37:52Z</time></trkpt><trkpt lat="42.43779245922481" lon="13.342424327864833"><ele>1161.0</ele><time>2026-05-03T10:37:53Z</time></trkpt><trkpt lat="42.437708538971314" lon="13.34247362243707"><ele>1152.2</ele><time>2026-05-03T10:37:54Z</time></trkpt><trkpt lat="42.437638953018386" lon="13.342556317683208"><ele>1143.3999999999999</ele><time>2026-05-03T10:37:55Z</time></trkpt><trkpt lat="42.43760408696729" lon="13.342674950749263"><ele>1134.6</ele><time>2026-05-03T10:37:56Z</time></trkpt><trkpt lat="42.43759272456589" lon="13.342805745661934"><ele>1125.8</ele><time>2026-05-03T10:37:57Z</time></trkpt><trkpt lat="42.437604010108764" lon="13.342951335472083"><ele>1117.0</ele><time>2026-05-03T10:37:58Z</time></trkpt><trkpt lat="42.43761138437749" lon="13.343096548732733"><ele>1117.0</ele><time>2026-05-03T10:37:59Z</time></trkpt><trkpt lat="42.43762450541444" lon="13.343249702953415"><ele>1117.0</ele><time>2026-05-03T10:38:00Z</time></trkpt><trkpt lat="42.437627731190524" lon="13.343399350641574"><ele>1117.0</ele><time>2026-05-03T10:38:01Z</time></trkpt><trkpt lat="42.43762057369379" lon="13.34354449340118"><ele>1117.0</ele><time>2026-05-03T10:38:02Z</time></trkpt><trkpt lat="42.43760370221237" lon="13.343691279605194"><ele>1117.0</ele><time>2026-05-03T10:38:03Z</time></trkpt><trkpt lat="42.43758233612218" lon="13.343830827393456"><ele>1116.8</ele><time>2026-05-03T10:38:04Z</time></trkpt><trkpt lat="42.43756611734735" lon="13.343971207737658"><ele>1116.6</ele><time>2026-05-03T10:38:05Z</time></trkpt><trkpt lat="42.43755621820877" lon="13.344113873626647"><ele>1116.3999999999999</ele><time>2026-05-03T10:38:06Z</time></trkpt><trkpt lat="42.437561361351484" lon="13.344259683932021"><ele>1116.2</ele><time>2026-05-03T10:38:07Z</time></trkpt><trkpt lat="42.43758730163167" lon="13.34441111481359"><ele>1116.0</ele><time>2026-05-03T10:38:08Z</time></trkpt><trkpt lat="42.43762006140667" lon="13.344567105973505"><ele>1114.5</ele><time>2026-05-03T10:38:09Z</time></trkpt><trkpt lat="42.43765595859738" lon="13.344731153772054"><ele>1113.0</ele><time>2026-05-03T10:38:10Z</time></trkpt><trkpt lat="42.43769271089488" lon="13.344900754673779"><ele>1111.5</ele><time>2026-05-03T10:38:11Z</time></trkpt><trkpt lat="42.43773208438296" lon="13.345069181116358"><ele>1110.0</ele><time>2026-05-03T10:38:12Z</time></trkpt><trkpt lat="42.43778383609732" lon="13.34522992121486"><ele>1110.0</ele><time>2026-05-03T10:38:13Z</time></trkpt><trkpt lat="42.43784234843018" lon="13.34538299047744"><ele>1110.0</ele><time>2026-05-03T10:38:14Z</time></trkpt><trkpt lat="42.43789454029533" lon="13.345529617509014"><ele>1110.0</ele><time>2026-05-03T10:38:15Z</time></trkpt><trkpt lat="42.437942099021264" lon="13.345666875885259"><ele>1110.0</ele><time>2026-05-03T10:38:16Z</time></trkpt><trkpt lat="42.437986046909764" lon="13.345791140376084"><ele>1108.0</ele><time>2026-05-03T10:38:17Z</time></trkpt><trkpt lat="42.438028068247725" lon="13.345908334839917"><ele>1106.0</ele><time>2026-05-03T10:38:18Z</time></trkpt><trkpt lat="42.438050988840025" lon="13.346024823912442"><ele>1104.0</ele><time>2026-05-03T10:38:19Z</time></trkpt><trkpt lat="42.43803890822037" lon="13.34614795789015"><ele>1102.0</ele><time>2026-05-03T10:38:20Z</time></trkpt><trkpt lat="42.437985606649775" lon="13.346255192796702"><ele>1100.0</ele><time>2026-05-03T10:38:21Z</time></trkpt><trkpt lat="42.43790191274559" lon="13.346342055496732"><ele>1107.25</ele><time>2026-05-03T10:38:22Z</time></trkpt><trkpt lat="42.437808174660994" lon="13.34642203757641"><ele>1114.5</ele><time>2026-05-03T10:38:23Z</time></trkpt><trkpt lat="42.43771266388493" lon="13.34648884033409"><ele>1121.75</ele><time>2026-05-03T10:38:24Z</time></trkpt><trkpt lat="42.437607285635295" lon="13.346535740326159"><ele>1129.0</ele><time>2026-05-03T10:38:24.999Z</time></trkpt><trkpt lat="42.43748614617045" lon="13.34654220881923"><ele>1129.0</ele><time>2026-05-03T10:38:25.999Z</time></trkpt><trkpt lat="42.43736026070462" lon="13.34650943339401"><ele>1129.0</ele><time>2026-05-03T10:38:26.999Z</time></trkpt><trkpt lat="42.43723261540632" lon="13.346452977968537"><ele>1129.0</ele><time>2026-05-03T10:38:27.999Z</time></trkpt><trkpt lat="42.43710601881614" lon="13.346403539076773"><ele>1129.0</ele><time>2026-05-03T10:38:28.999Z</time></trkpt><trkpt lat="42.43698252288207" lon="13.346359744700093"><ele>1125.5</ele><time>2026-05-03T10:38:29.999Z</time></trkpt><trkpt lat="42.436864673920056" lon="13.346335433871387"><ele>1122.0</ele><time>2026-05-03T10:38:30.999Z</time></trkpt><trkpt lat="42.43674664607549" lon="13.346360998502677"><ele>1118.5</ele><time>2026-05-03T10:38:31.999Z</time></trkpt><trkpt lat="42.43663017886891" lon="13.346434460204415"><ele>1115.0</ele><time>2026-05-03T10:38:32.999Z</time></trkpt><trkpt lat="42.43650705703052" lon="13.346518802394902"><ele>1115.0</ele><time>2026-05-03T10:38:33.999Z</time></trkpt><trkpt lat="42.436391581189" lon="13.34660830031826"><ele>1115.0</ele><time>2026-05-03T10:38:34.999Z</time></trkpt><trkpt lat="42.43627832769088" lon="13.346700969485898"><ele>1115.0</ele><time>2026-05-03T10:38:35.999Z</time></trkpt><trkpt lat="42.43616235156644" lon="13.346789744618942"><ele>1115.0</ele><time>2026-05-03T10:38:36.999Z</time></trkpt><trkpt lat="42.43604321461209" lon="13.346866504847473"><ele>1109.75</ele><time>2026-05-03T10:38:37.999Z</time></trkpt><trkpt lat="42.43592833974881" lon="13.346926861292529"><ele>1104.5</ele><time>2026-05-03T10:38:38.999Z</time></trkpt><trkpt lat="42.43581699432732" lon="13.346991209514606"><ele>1099.25</ele><time>2026-05-03T10:38:39.999Z</time></trkpt><trkpt lat="42.435711028537206" lon="13.347066271951446"><ele>1094.0</ele><time>2026-05-03T10:38:40.999Z</time></trkpt><trkpt lat="42.43561397561571" lon="13.347138912551083"><ele>1094.0</ele><time>2026-05-03T10:38:41.999Z</time></trkpt><trkpt lat="42.435522530953286" lon="13.347208929016336"><ele>1094.0</ele><time>2026-05-03T10:38:42.999Z</time></trkpt><trkpt lat="42.435430580989554" lon="13.347253313499927"><ele>1094.0</ele><time>2026-05-03T10:38:43.999Z</time></trkpt><trkpt lat="42.435334604891025" lon="13.347251444608279"><ele>1094.0</ele><time>2026-05-03T10:38:44.999Z</time></trkpt><trkpt lat="42.435250551842934" lon="13.347211395943885"><ele>1094.0</ele><time>2026-05-03T10:38:45.999Z</time></trkpt><trkpt lat="42.43518830760447" lon="13.347139185817039"><ele>1099.5</ele><time>2026-05-03T10:38:46.999Z</time></trkpt><trkpt lat="42.43515352829304" lon="13.347010664293359"><ele>1105.0</ele><time>2026-05-03T10:38:47.999Z</time></trkpt><trkpt lat="42.435141727658674" lon="13.346849610077346"><ele>1110.5</ele><time>2026-05-03T10:38:48.999Z</time></trkpt><trkpt lat="42.435135960840675" lon="13.346661043200859"><ele>1116.0</ele><time>2026-05-03T10:38:49.999Z</time></trkpt><trkpt lat="42.435126794194076" lon="13.346459368378499"><ele>1114.0</ele><time>2026-05-03T10:38:50.999Z</time></trkpt><trkpt lat="42.43511781799111" lon="13.34626358417388"><ele>1112.0</ele><time>2026-05-03T10:38:51.999Z</time></trkpt><trkpt lat="42.43511717030244" lon="13.346081251338479"><ele>1110.0</ele><time>2026-05-03T10:38:52.999Z</time></trkpt><trkpt lat="42.43511521265245" lon="13.345905168991015"><ele>1108.0</ele><time>2026-05-03T10:38:53.999Z</time></trkpt><trkpt lat="42.43511800895756" lon="13.345736813728273"><ele>1108.0</ele><time>2026-05-03T10:38:54.999Z</time></trkpt><trkpt lat="42.435117945805466" lon="13.345596777997056"><ele>1108.0</ele><time>2026-05-03T10:38:55.999Z</time></trkpt><trkpt lat="42.43511611357532" lon="13.345477436124694"><ele>1108.0</ele><time>2026-05-03T10:38:56.999Z</time></trkpt><trkpt lat="42.43511350745038" lon="13.345355858130239"><ele>1108.0</ele><time>2026-05-03T10:38:57.999Z</time></trkpt><trkpt lat="42.435112336463575" lon="13.345028937391064"><ele>1105.25</ele><time>2026-05-03T10:38:58.999Z</time></trkpt><trkpt lat="42.435090786037996" lon="13.344843378787381"><ele>1102.5</ele><time>2026-05-03T10:38:59.999Z</time></trkpt><trkpt lat="42.43503229114451" lon="13.344661392368037"><ele>1099.75</ele><time>2026-05-03T10:39:00.999Z</time></trkpt><trkpt lat="42.43493322873876" lon="13.344494525284533"><ele>1097.0</ele><time>2026-05-03T10:39:01.999Z</time></trkpt><trkpt lat="42.434801285686504" lon="13.344335201736115"><ele>1098.3333333333335</ele><time>2026-05-03T10:39:02.999Z</time></trkpt><trkpt lat="42.434643891290705" lon="13.3442019715471"><ele>1099.6666666666667</ele><time>2026-05-03T10:39:03.999Z</time></trkpt><trkpt lat="42.43449739999703" lon="13.344069645966059"><ele>1101.0</ele><time>2026-05-03T10:39:04.999Z</time></trkpt><trkpt lat="42.43435434721316" lon="13.343948655951772"><ele>1091.0</ele><time>2026-05-03T10:39:05.999Z</time></trkpt><trkpt lat="42.434206281937556" lon="13.343820510214805"><ele>1081.0</ele><time>2026-05-03T10:39:06.999Z</time></trkpt><trkpt lat="42.434039647215776" lon="13.34366176030219"><ele>1071.0</ele><time>2026-05-03T10:39:07.999Z</time></trkpt><trkpt lat="42.43386047311043" lon="13.343483933184212"><ele>1080.5</ele><time>2026-05-03T10:39:08.999Z</time></trkpt><trkpt lat="42.43367772055716" lon="13.343296955494598"><ele>1090.0</ele><time>2026-05-03T10:39:09.999Z</time></trkpt><trkpt lat="42.43349296701176" lon="13.343111974020637"><ele>1079.0</ele><time>2026-05-03T10:39:10.999Z</time></trkpt><trkpt lat="42.433303360368605" lon="13.34292568876509"><ele>1068.0</ele><time>2026-05-03T10:39:11.999Z</time></trkpt><trkpt lat="42.43311834722685" lon="13.342743052269492"><ele>1073.3333333333333</ele><time>2026-05-03T10:39:12.999Z</time></trkpt><trkpt lat="42.43293479987251" lon="13.342575304260327"><ele>1078.6666666666665</ele><time>2026-05-03T10:39:13.999Z</time></trkpt><trkpt lat="42.43275738007765" lon="13.342413568438044"><ele>1084.0</ele><time>2026-05-03T10:39:14.999Z</time></trkpt><trkpt lat="42.43257932417229" lon="13.342263008440794"><ele>1079.3333333333333</ele><time>2026-05-03T10:39:15.999Z</time></trkpt><trkpt lat="42.43240728889858" lon="13.342125806251243"><ele>1074.6666666666667</ele><time>2026-05-03T10:39:16.999Z</time></trkpt><trkpt lat="42.43223203022683" lon="13.34199649030473"><ele>1070.0</ele><time>2026-05-03T10:39:17.999Z</time></trkpt><trkpt lat="42.43206898943416" lon="13.341871239103641"><ele>1070.0</ele><time>2026-05-03T10:39:18.999Z</time></trkpt><trkpt lat="42.43191519485623" lon="13.341758074969166"><ele>1070.0</ele><time>2026-05-03T10:39:19.999Z</time></trkpt><trkpt lat="42.431763681391644" lon="13.341667075259858"><ele>1070.0</ele><time>2026-05-03T10:39:20.999Z</time></trkpt><trkpt lat="42.431610005519026" lon="13.341667968409293"><ele>1070.0</ele><time>2026-05-03T10:39:21.999Z</time></trkpt><trkpt lat="42.431443797434426" lon="13.341681993015156"><ele>1070.0</ele><time>2026-05-03T10:39:22.999Z</time></trkpt><trkpt lat="42.43127591579991" lon="13.341705555282108"><ele>1070.0</ele><time>2026-05-03T10:39:23.999Z</time></trkpt><trkpt lat="42.43111107077747" lon="13.341696849571878"><ele>1071.0</ele><time>2026-05-03T10:39:24.999Z</time></trkpt><trkpt lat="42.43093810527406" lon="13.34164878854386"><ele>1072.0</ele><time>2026-05-03T10:39:25.999Z</time></trkpt><trkpt lat="42.43077174046249" lon="13.341596266148283"><ele>1073.0</ele><time>2026-05-03T10:39:26.999Z</time></trkpt><trkpt lat="42.43060384045025" lon="13.341538025472644"><ele>1076.0</ele><time>2026-05-03T10:39:27.999Z</time></trkpt><trkpt lat="42.43045373140305" lon="13.341457002346127"><ele>1079.0</ele><time>2026-05-03T10:39:28.998Z</time></trkpt><trkpt lat="42.43031673578322" lon="13.34130809379885"><ele>1082.0</ele><time>2026-05-03T10:39:29.998Z</time></trkpt><trkpt lat="42.4301583990088" lon="13.341191441977331"><ele>1071.3333333333335</ele><time>2026-05-03T10:39:30.998Z</time></trkpt><trkpt lat="42.430003073366436" lon="13.34106399124243"><ele>1060.6666666666667</ele><time>2026-05-03T10:39:31.998Z</time></trkpt><trkpt lat="42.42984327630622" lon="13.340965369758933"><ele>1050.0</ele><time>2026-05-03T10:39:32.998Z</time></trkpt><trkpt lat="42.42968882362786" lon="13.340920995430663"><ele>1047.75</ele><time>2026-05-03T10:39:33.998Z</time></trkpt><trkpt lat="42.42955574306828" lon="13.34088770922356"><ele>1045.5</ele><time>2026-05-03T10:39:34.998Z</time></trkpt><trkpt lat="42.42943467940929" lon="13.340890400667266"><ele>1043.25</ele><time>2026-05-03T10:39:35.998Z</time></trkpt><trkpt lat="42.42931276031336" lon="13.340939446685596"><ele>1041.0</ele><time>2026-05-03T10:39:36.998Z</time></trkpt><trkpt lat="42.42918202842346" lon="13.34103464768664"><ele>1041.0</ele><time>2026-05-03T10:39:37.998Z</time></trkpt><trkpt lat="42.4290484134594" lon="13.341125614626188"><ele>1041.0</ele><time>2026-05-03T10:39:38.998Z</time></trkpt><trkpt lat="42.428908958449696" lon="13.341168691037252"><ele>1041.0</ele><time>2026-05-03T10:39:39.998Z</time></trkpt><trkpt lat="42.428783997577376" lon="13.34118709122406"><ele>1041.0</ele><time>2026-05-03T10:39:40.998Z</time></trkpt><trkpt lat="42.4286836023516" lon="13.341236072087899"><ele>1037.25</ele><time>2026-05-03T10:39:41.998Z</time></trkpt><trkpt lat="42.42861736320142" lon="13.34133850310863"><ele>1033.5</ele><time>2026-05-03T10:39:42.998Z</time></trkpt><trkpt lat="42.42858923056535" lon="13.341492089621214"><ele>1029.75</ele><time>2026-05-03T10:39:43.998Z</time></trkpt><trkpt lat="42.428594181165536" lon="13.341649425967017"><ele>1026.0</ele><time>2026-05-03T10:39:44.998Z</time></trkpt><trkpt lat="42.428604508652725" lon="13.341821042242124"><ele>1026.0</ele><time>2026-05-03T10:39:45.998Z</time></trkpt><trkpt lat="42.428549180038786" lon="13.341973433006716"><ele>1026.0</ele><time>2026-05-03T10:39:46.998Z</time></trkpt><trkpt lat="42.42854322910011" lon="13.342143360382007"><ele>1026.0</ele><time>2026-05-03T10:39:47.998Z</time></trkpt><trkpt lat="42.42856428596705" lon="13.342309780447357"><ele>1026.0</ele><time>2026-05-03T10:39:48.998Z</time></trkpt><trkpt lat="42.42862294418933" lon="13.342488076610284"><ele>1025.75</ele><time>2026-05-03T10:39:50Z</time></trkpt><trkpt lat="42.42861812906305" lon="13.342676711330537"><ele>1025.5</ele><time>2026-05-03T10:39:51Z</time></trkpt><trkpt lat="42.42865868523117" lon="13.3428572163307"><ele>1025.25</ele><time>2026-05-03T10:39:52Z</time></trkpt><trkpt lat="42.42866057305872" lon="13.343044540250007"><ele>1025.0</ele><time>2026-05-03T10:39:53Z</time></trkpt><trkpt lat="42.42865715836016" lon="13.343233044992424"><ele>1025.0</ele><time>2026-05-03T10:39:54Z</time></trkpt><trkpt lat="42.42863407286209" lon="13.34342578335411"><ele>1025.0</ele><time>2026-05-03T10:39:55Z</time></trkpt><trkpt lat="42.428588460479325" lon="13.343622778513492"><ele>1025.0</ele><time>2026-05-03T10:39:56Z</time></trkpt><trkpt lat="42.42858276796364" lon="13.343830708007324"><ele>1024.6666666666667</ele><time>2026-05-03T10:39:57Z</time></trkpt><trkpt lat="42.42862902105253" lon="13.344043916237514"><ele>1024.3333333333333</ele><time>2026-05-03T10:39:58Z</time></trkpt><trkpt lat="42.42867127763239" lon="13.344256699920988"><ele>1024.0</ele><time>2026-05-03T10:39:59Z</time></trkpt><trkpt lat="42.42870250330151" lon="13.344474151317847"><ele>1024.0</ele><time>2026-05-03T10:40:00Z</time></trkpt><trkpt lat="42.42870729099939" lon="13.344692239530545"><ele>1024.0</ele><time>2026-05-03T10:40:01Z</time></trkpt><trkpt lat="42.42871369111718" lon="13.34490489206234"><ele>1024.0</ele><time>2026-05-03T10:40:02Z</time></trkpt><trkpt lat="42.42874168062748" lon="13.345109190059347"><ele>1024.75</ele><time>2026-05-03T10:40:03Z</time></trkpt><trkpt lat="42.42877485321501" lon="13.345295087037577"><ele>1025.5</ele><time>2026-05-03T10:40:04Z</time></trkpt><trkpt lat="42.42878174935949" lon="13.345461492474675"><ele>1026.25</ele><time>2026-05-03T10:40:05Z</time></trkpt><trkpt lat="42.428786148280444" lon="13.345600910969278"><ele>1027.0</ele><time>2026-05-03T10:40:06Z</time></trkpt><trkpt lat="42.42876260889667" lon="13.34572855637077"><ele>1027.0</ele><time>2026-05-03T10:40:07Z</time></trkpt><trkpt lat="42.428701629331734" lon="13.345833857799036"><ele>1027.0</ele><time>2026-05-03T10:40:08Z</time></trkpt><trkpt lat="42.42861856249458" lon="13.3459075628365"><ele>1027.0</ele><time>2026-05-03T10:40:09Z</time></trkpt><trkpt lat="42.42852577374293" lon="13.345978266859529"><ele>1027.0</ele><time>2026-05-03T10:40:10Z</time></trkpt><trkpt lat="42.428400382234614" lon="13.345961123895938"><ele>1027.0</ele><time>2026-05-03T10:40:11Z</time></trkpt><trkpt lat="42.42826669508837" lon="13.345985880303632"><ele>1027.0</ele><time>2026-05-03T10:40:12Z</time></trkpt><trkpt lat="42.428136201525405" lon="13.345964025132965"><ele>1027.0</ele><time>2026-05-03T10:40:13Z</time></trkpt><trkpt lat="42.42801635647738" lon="13.345956485819197"><ele>1027.0</ele><time>2026-05-03T10:40:14Z</time></trkpt><trkpt lat="42.42790694824066" lon="13.345970510355512"><ele>1027.0</ele><time>2026-05-03T10:40:15Z</time></trkpt><trkpt lat="42.42781635881181" lon="13.346037948448277"><ele>1025.25</ele><time>2026-05-03T10:40:16Z</time></trkpt><trkpt lat="42.4277492885655" lon="13.346168589494516"><ele>1023.5</ele><time>2026-05-03T10:40:17Z</time></trkpt><trkpt lat="42.427698387563424" lon="13.346332318403116"><ele>1021.75</ele><time>2026-05-03T10:40:18Z</time></trkpt><trkpt lat="42.42765356263779" lon="13.346507085057448"><ele>1020.0</ele><time>2026-05-03T10:40:19Z</time></trkpt><trkpt lat="42.42760836749573" lon="13.346673773666039"><ele>1020.0</ele><time>2026-05-03T10:40:20Z</time></trkpt><trkpt lat="42.42755995416522" lon="13.346814263218803"><ele>1020.0</ele><time>2026-05-03T10:40:21Z</time></trkpt><trkpt lat="42.42756670867246" lon="13.34696079993816"><ele>1020.0</ele><time>2026-05-03T10:40:22Z</time></trkpt><trkpt lat="42.42762854535717" lon="13.347090761734327"><ele>1020.0</ele><time>2026-05-03T10:40:23Z</time></trkpt><trkpt lat="42.42768442358027" lon="13.347198023203365"><ele>1020.0</ele><time>2026-05-03T10:40:24Z</time></trkpt><trkpt lat="42.42772256152599" lon="13.347296595351272"><ele>1021.2</ele><time>2026-05-03T10:40:25Z</time></trkpt><trkpt lat="42.427699724405244" lon="13.347397413072558"><ele>1022.4</ele><time>2026-05-03T10:40:26Z</time></trkpt><trkpt lat="42.42760324346873" lon="13.347464861467031"><ele>1023.5999999999999</ele><time>2026-05-03T10:40:27Z</time></trkpt><trkpt lat="42.42754331874601" lon="13.34757938479165"><ele>1024.8</ele><time>2026-05-03T10:40:28Z</time></trkpt><trkpt lat="42.427473354131024" lon="13.347669893586065"><ele>1026.0</ele><time>2026-05-03T10:40:29Z</time></trkpt><trkpt lat="42.4274046160807" lon="13.347737847145218"><ele>1026.0</ele><time>2026-05-03T10:40:30Z</time></trkpt><trkpt lat="42.427316376575966" lon="13.347744328537388"><ele>1026.0</ele><time>2026-05-03T10:40:31Z</time></trkpt><trkpt lat="42.4272186608088" lon="13.347703736763027"><ele>1026.0</ele><time>2026-05-03T10:40:32Z</time></trkpt><trkpt lat="42.42712141380005" lon="13.347640781259717"><ele>1026.0</ele><time>2026-05-03T10:40:33Z</time></trkpt><trkpt lat="42.42703003592619" lon="13.347535035222217"><ele>1026.0</ele><time>2026-05-03T10:40:33.999Z</time></trkpt><trkpt lat="42.42692489481596" lon="13.34741157559431"><ele>1026.0</ele><time>2026-05-03T10:40:34.999Z</time></trkpt><trkpt lat="42.426843734592026" lon="13.347247400051636"><ele>1026.0</ele><time>2026-05-03T10:40:35.999Z</time></trkpt><trkpt lat="42.42678352225936" lon="13.347046513207067"><ele>1026.0</ele><time>2026-05-03T10:40:36.999Z</time></trkpt><trkpt lat="42.42670817348524" lon="13.346849340353206"><ele>1026.0</ele><time>2026-05-03T10:40:37.999Z</time></trkpt><trkpt lat="42.42665400243148" lon="13.34663435639289"><ele>1026.0</ele><time>2026-05-03T10:40:38.999Z</time></trkpt><trkpt lat="42.42660435093903" lon="13.346409429292082"><ele>1026.0</ele><time>2026-05-03T10:40:39.999Z</time></trkpt><trkpt lat="42.42654388154008" lon="13.346190918060813"><ele>1021.3333333333333</ele><time>2026-05-03T10:40:40.999Z</time></trkpt><trkpt lat="42.426479923701784" lon="13.34598529034369"><ele>1016.6666666666666</ele><time>2026-05-03T10:40:41.999Z</time></trkpt><trkpt lat="42.42641164338253" lon="13.345791881206475"><ele>1012.0</ele><time>2026-05-03T10:40:42.999Z</time></trkpt><trkpt lat="42.426338451622584" lon="13.345604018608554"><ele>1013.6666666666666</ele><time>2026-05-03T10:40:43.999Z</time></trkpt><trkpt lat="42.42624166283066" lon="13.345437807796603"><ele>1015.3333333333333</ele><time>2026-05-03T10:40:44.999Z</time></trkpt><trkpt lat="42.42612686180501" lon="13.345294071444163"><ele>1017.0</ele><time>2026-05-03T10:40:45.999Z</time></trkpt><trkpt lat="42.42598677356489" lon="13.34519131657401"><ele>1017.0</ele><time>2026-05-03T10:40:46.999Z</time></trkpt><trkpt lat="42.425838312372676" lon="13.34510151886577"><ele>1017.0</ele><time>2026-05-03T10:40:47.999Z</time></trkpt><trkpt lat="42.42572727798029" lon="13.344963430721034"><ele>1017.0</ele><time>2026-05-03T10:40:48.999Z</time></trkpt><trkpt lat="42.42563231738707" lon="13.344793584478893"><ele>1012.6666666666667</ele><time>2026-05-03T10:40:49.999Z</time></trkpt><trkpt lat="42.42552986111876" lon="13.344626004022066"><ele>1008.3333333333334</ele><time>2026-05-03T10:40:50.999Z</time></trkpt><trkpt lat="42.42542655839973" lon="13.344467034303658"><ele>1004.0</ele><time>2026-05-03T10:40:51.999Z</time></trkpt><trkpt lat="42.42529575458792" lon="13.344357171879121"><ele>1004.0</ele><time>2026-05-03T10:40:52.999Z</time></trkpt><trkpt lat="42.42514559734964" lon="13.344293046970568"><ele>1004.0</ele><time>2026-05-03T10:40:53.999Z</time></trkpt><trkpt lat="42.42499490698707" lon="13.344254866214468"><ele>1004.0</ele><time>2026-05-03T10:40:54.999Z</time></trkpt><trkpt lat="42.424838230992016" lon="13.344246838529669"><ele>1004.0</ele><time>2026-05-03T10:40:55.999Z</time></trkpt><trkpt lat="42.42467527351443" lon="13.344257850024611"><ele>1004.0</ele><time>2026-05-03T10:40:56.999Z</time></trkpt><trkpt lat="42.424515217645215" lon="13.344312729170332"><ele>1004.0</ele><time>2026-05-03T10:40:57.999Z</time></trkpt><trkpt lat="42.42437136938261" lon="13.344401015796931"><ele>1004.75</ele><time>2026-05-03T10:40:58.999Z</time></trkpt><trkpt lat="42.42424627845208" lon="13.34450364074642"><ele>1005.5</ele><time>2026-05-03T10:40:59.999Z</time></trkpt><trkpt lat="42.424148219422946" lon="13.344635070245788"><ele>1006.25</ele><time>2026-05-03T10:41:00.999Z</time></trkpt><trkpt lat="42.424078331269236" lon="13.344806090167781"><ele>1007.0</ele><time>2026-05-03T10:41:01.999Z</time></trkpt><trkpt lat="42.42402244830143" lon="13.344980778750228"><ele>1007.0</ele><time>2026-05-03T10:41:02.999Z</time></trkpt><trkpt lat="42.423969559262495" lon="13.345133614153461"><ele>1007.0</ele><time>2026-05-03T10:41:03.999Z</time></trkpt><trkpt lat="42.42389211134192" lon="13.34524178420699"><ele>1007.0</ele><time>2026-05-03T10:41:04.999Z</time></trkpt><trkpt lat="42.42377272077783" lon="13.345270400530653"><ele>1007.0</ele><time>2026-05-03T10:41:05.999Z</time></trkpt><trkpt lat="42.42364817620382" lon="13.345250769738836"><ele>999.75</ele><time>2026-05-03T10:41:06.999Z</time></trkpt><trkpt lat="42.42352050531198" lon="13.345245023349555"><ele>992.5</ele><time>2026-05-03T10:41:07.999Z</time></trkpt><trkpt lat="42.423409129198824" lon="13.345252922588434"><ele>985.25</ele><time>2026-05-03T10:41:08.999Z</time></trkpt><trkpt lat="42.423315190097945" lon="13.345312071764187"><ele>978.0</ele><time>2026-05-03T10:41:09.999Z</time></trkpt><trkpt lat="42.423249138145096" lon="13.345443716003494"><ele>982.5</ele><time>2026-05-03T10:41:10.999Z</time></trkpt><trkpt lat="42.42321688770781" lon="13.345613954066735"><ele>987.0</ele><time>2026-05-03T10:41:11.999Z</time></trkpt><trkpt lat="42.42321018157865" lon="13.345803093597524"><ele>991.5</ele><time>2026-05-03T10:41:12.999Z</time></trkpt><trkpt lat="42.4232079736807" lon="13.346007221824745"><ele>996.0</ele><time>2026-05-03T10:41:13.999Z</time></trkpt><trkpt lat="42.42318509599739" lon="13.346213024733645"><ele>995.5</ele><time>2026-05-03T10:41:14.999Z</time></trkpt><trkpt lat="42.42315697747286" lon="13.346405631490855"><ele>995.0</ele><time>2026-05-03T10:41:15.999Z</time></trkpt><trkpt lat="42.423134060537926" lon="13.346571882818642"><ele>994.5</ele><time>2026-05-03T10:41:16.999Z</time></trkpt><trkpt lat="42.42314959390971" lon="13.346717547467822"><ele>994.0</ele><time>2026-05-03T10:41:17.999Z</time></trkpt><trkpt lat="42.4231969427752" lon="13.346838852005064"><ele>994.0</ele><time>2026-05-03T10:41:18.999Z</time></trkpt><trkpt lat="42.42329578060973" lon="13.346938903864983"><ele>994.0</ele><time>2026-05-03T10:41:19.999Z</time></trkpt><trkpt lat="42.423410006758566" lon="13.347041480707759"><ele>994.0</ele><time>2026-05-03T10:41:20.999Z</time></trkpt><trkpt lat="42.42352795213325" lon="13.347167896680062"><ele>994.0</ele><time>2026-05-03T10:41:21.999Z</time></trkpt><trkpt lat="42.4236441094097" lon="13.347315207860307"><ele>997.3333333333333</ele><time>2026-05-03T10:41:22.999Z</time></trkpt><trkpt lat="42.423760651357235" lon="13.34746804586293"><ele>1000.6666666666667</ele><time>2026-05-03T10:41:23.999Z</time></trkpt><trkpt lat="42.42387611777916" lon="13.347623486372383"><ele>1004.0</ele><time>2026-05-03T10:41:24.999Z</time></trkpt><trkpt lat="42.423962441453" lon="13.34779563613418"><ele>1004.0</ele><time>2026-05-03T10:41:25.999Z</time></trkpt><trkpt lat="42.42402990034849" lon="13.347977333944495"><ele>1004.0</ele><time>2026-05-03T10:41:26.999Z</time></trkpt><trkpt lat="42.424079536836956" lon="13.348164435476827"><ele>1004.0</ele><time>2026-05-03T10:41:27.999Z</time></trkpt><trkpt lat="42.424119018880035" lon="13.348357050145813"><ele>1004.0</ele><time>2026-05-03T10:41:28.999Z</time></trkpt><trkpt lat="42.42417892238521" lon="13.348545131112182"><ele>999.25</ele><time>2026-05-03T10:41:29.999Z</time></trkpt><trkpt lat="42.42425856292136" lon="13.34870941245251"><ele>994.5</ele><time>2026-05-03T10:41:30.999Z</time></trkpt><trkpt lat="42.42434450973338" lon="13.348847069342007"><ele>989.75</ele><time>2026-05-03T10:41:31.999Z</time></trkpt><trkpt lat="42.42440613916623" lon="13.348973701012405"><ele>985.0</ele><time>2026-05-03T10:41:32.999Z</time></trkpt><trkpt lat="42.42443338184544" lon="13.349104298076263"><ele>984.2</ele><time>2026-05-03T10:41:33.999Z</time></trkpt><trkpt lat="42.42441963598467" lon="13.349233364239616"><ele>983.4</ele><time>2026-05-03T10:41:34.999Z</time></trkpt><trkpt lat="42.42436883452149" lon="13.34934551714597"><ele>982.5999999999999</ele><time>2026-05-03T10:41:35.999Z</time></trkpt><trkpt lat="42.42428282801029" lon="13.349410563501538"><ele>981.8</ele><time>2026-05-03T10:41:36.999Z</time></trkpt><trkpt lat="42.424175982601156" lon="13.349427949994494"><ele>981.0</ele><time>2026-05-03T10:41:37.998Z</time></trkpt><trkpt lat="42.424056245653034" lon="13.349386906740387"><ele>981.0</ele><time>2026-05-03T10:41:38.998Z</time></trkpt><trkpt lat="42.42392704356076" lon="13.349334600347891"><ele>981.0</ele><time>2026-05-03T10:41:39.998Z</time></trkpt><trkpt lat="42.4237805610096" lon="13.349273821619859"><ele>981.0</ele><time>2026-05-03T10:41:40.998Z</time></trkpt><trkpt lat="42.423627343374925" lon="13.349214483317962"><ele>981.0</ele><time>2026-05-03T10:41:41.998Z</time></trkpt><trkpt lat="42.42347340257433" lon="13.349157300801288"><ele>979.25</ele><time>2026-05-03T10:41:42.998Z</time></trkpt><trkpt lat="42.42333115160685" lon="13.349099505613923"><ele>977.5</ele><time>2026-05-03T10:41:43.998Z</time></trkpt><trkpt lat="42.42320055464697" lon="13.349061169555126"><ele>975.75</ele><time>2026-05-03T10:41:44.998Z</time></trkpt><trkpt lat="42.42307363881831" lon="13.349075631497417"><ele>974.0</ele><time>2026-05-03T10:41:45.998Z</time></trkpt><trkpt lat="42.42294917793524" lon="13.349128432642349"><ele>974.0</ele><time>2026-05-03T10:41:46.998Z</time></trkpt><trkpt lat="42.42284143302227" lon="13.349219473006277"><ele>974.0000000000001</ele><time>2026-05-03T10:41:47.998Z</time></trkpt><trkpt lat="42.42274274207895" lon="13.349288302318099"><ele>974.0000000000001</ele><time>2026-05-03T10:41:48.998Z</time></trkpt><trkpt lat="42.422648042472126" lon="13.34932681295082"><ele>974.0</ele><time>2026-05-03T10:41:49.998Z</time></trkpt><trkpt lat="42.42255034917762" lon="13.349283433374017"><ele>974.0</ele><time>2026-05-03T10:41:50.998Z</time></trkpt><trkpt lat="42.42247475482982" lon="13.34916236650692"><ele>974.0</ele><time>2026-05-03T10:41:51.998Z</time></trkpt><trkpt lat="42.42238678763352" lon="13.349034338794054"><ele>974.0</ele><time>2026-05-03T10:41:52.998Z</time></trkpt><trkpt lat="42.42230493749573" lon="13.348880341401154"><ele>974.0</ele><time>2026-05-03T10:41:53.998Z</time></trkpt><trkpt lat="42.422192799666526" lon="13.34871746410195"><ele>974.0</ele><time>2026-05-03T10:41:54.998Z</time></trkpt><trkpt lat="42.422057686881026" lon="13.348563923325917"><ele>970.0</ele><time>2026-05-03T10:41:56Z</time></trkpt><trkpt lat="42.421928730214546" lon="13.34842122442755"><ele>966.0</ele><time>2026-05-03T10:41:57Z</time></trkpt><trkpt lat="42.421786736726865" lon="13.348284583121528"><ele>962.0</ele><time>2026-05-03T10:41:58Z</time></trkpt><trkpt lat="42.421641110963826" lon="13.348166370480515"><ele>962.0</ele><time>2026-05-03T10:41:59Z</time></trkpt><trkpt lat="42.421487028423606" lon="13.348066153842725"><ele>962.0</ele><time>2026-05-03T10:42:00Z</time></trkpt><trkpt lat="42.42133292503876" lon="13.347987072932643"><ele>962.0</ele><time>2026-05-03T10:42:01Z</time></trkpt><trkpt lat="42.421180370810255" lon="13.347936133440042"><ele>961.25</ele><time>2026-05-03T10:42:02Z</time></trkpt><trkpt lat="42.421033769523675" lon="13.347925246245673"><ele>960.5</ele><time>2026-05-03T10:42:03Z</time></trkpt><trkpt lat="42.42089007787346" lon="13.347961494353566"><ele>959.75</ele><time>2026-05-03T10:42:04Z</time></trkpt><trkpt lat="42.42075640249036" lon="13.348051214157643"><ele>959.0</ele><time>2026-05-03T10:42:05Z</time></trkpt><trkpt lat="42.420632076860734" lon="13.348180717003267"><ele>959.0</ele><time>2026-05-03T10:42:06Z</time></trkpt><trkpt lat="42.42052340796853" lon="13.348326564706571"><ele>959.0</ele><time>2026-05-03T10:42:07Z</time></trkpt><trkpt lat="42.42043217380664" lon="13.348489877590687"><ele>959.0</ele><time>2026-05-03T10:42:08Z</time></trkpt><trkpt lat="42.42032749395333" lon="13.348635426992228"><ele>957.3333333333334</ele><time>2026-05-03T10:42:09Z</time></trkpt><trkpt lat="42.42022720099091" lon="13.348785283425796"><ele>955.6666666666667</ele><time>2026-05-03T10:42:10Z</time></trkpt><trkpt lat="42.420094075285945" lon="13.348894146408952"><ele>954.0</ele><time>2026-05-03T10:42:11Z</time></trkpt><trkpt lat="42.419960432571905" lon="13.349000967139967"><ele>954.0</ele><time>2026-05-03T10:42:12Z</time></trkpt><trkpt lat="42.419824978727334" lon="13.349108986563177"><ele>954.0</ele><time>2026-05-03T10:42:13Z</time></trkpt><trkpt lat="42.41968739623763" lon="13.349231928484103"><ele>954.0</ele><time>2026-05-03T10:42:14Z</time></trkpt><trkpt lat="42.41954872016059" lon="13.349359962598106"><ele>950.0</ele><time>2026-05-03T10:42:15Z</time></trkpt><trkpt lat="42.419419253837994" lon="13.349516421269131"><ele>946.0</ele><time>2026-05-03T10:42:16Z</time></trkpt><trkpt lat="42.4193086502424" lon="13.349701953658059"><ele>942.0</ele><time>2026-05-03T10:42:17Z</time></trkpt><trkpt lat="42.419203335876944" lon="13.349898551747112"><ele>942.0</ele><time>2026-05-03T10:42:18Z</time></trkpt><trkpt lat="42.4190944799991" lon="13.350090067341133"><ele>942.0</ele><time>2026-05-03T10:42:19Z</time></trkpt><trkpt lat="42.418988945566326" lon="13.350281158052747"><ele>942.0</ele><time>2026-05-03T10:42:20Z</time></trkpt><trkpt lat="42.418889699034146" lon="13.350474018261277"><ele>936.3333333333333</ele><time>2026-05-03T10:42:21Z</time></trkpt><trkpt lat="42.418794694401726" lon="13.350668265763469"><ele>930.6666666666666</ele><time>2026-05-03T10:42:22Z</time></trkpt><trkpt lat="42.41869980218792" lon="13.3508599210746"><ele>925.0</ele><time>2026-05-03T10:42:23Z</time></trkpt><trkpt lat="42.41859775298158" lon="13.351040263131614"><ele>925.0</ele><time>2026-05-03T10:42:24Z</time></trkpt><trkpt lat="42.41848483032561" lon="13.351192125409698"><ele>925.0</ele><time>2026-05-03T10:42:25Z</time></trkpt><trkpt lat="42.4183717296251" lon="13.351309717068418"><ele>925.0</ele><time>2026-05-03T10:42:26Z</time></trkpt><trkpt lat="42.41826108339748" lon="13.351395984006887"><ele>925.0</ele><time>2026-05-03T10:42:27Z</time></trkpt><trkpt lat="42.418171002485316" lon="13.35149605860475"><ele>927.5</ele><time>2026-05-03T10:42:28Z</time></trkpt><trkpt lat="42.41811357177085" lon="13.35163281636805"><ele>930.0</ele><time>2026-05-03T10:42:29Z</time></trkpt><trkpt lat="42.41809162256674" lon="13.351808296132088"><ele>932.5</ele><time>2026-05-03T10:42:30Z</time></trkpt><trkpt lat="42.4180995162477" lon="13.352005298435436"><ele>935.0</ele><time>2026-05-03T10:42:31Z</time></trkpt><trkpt lat="42.4181299554786" lon="13.352213523434274"><ele>935.6666666666667</ele><time>2026-05-03T10:42:32Z</time></trkpt><trkpt lat="42.418168243857636" lon="13.352423696528213"><ele>936.3333333333333</ele><time>2026-05-03T10:42:33Z</time></trkpt><trkpt lat="42.41820457840354" lon="13.352632809835862"><ele>937.0</ele><time>2026-05-03T10:42:34Z</time></trkpt><trkpt lat="42.418218190331885" lon="13.352834572680436"><ele>937.0</ele><time>2026-05-03T10:42:35Z</time></trkpt><trkpt lat="42.41821380214039" lon="13.353026103674342"><ele>937.0</ele><time>2026-05-03T10:42:36Z</time></trkpt><trkpt lat="42.41820904189023" lon="13.353199087837222"><ele>937.0</ele><time>2026-05-03T10:42:37Z</time></trkpt><trkpt lat="42.41822377034454" lon="13.353338313801018"><ele>937.0</ele><time>2026-05-03T10:42:38Z</time></trkpt><trkpt lat="42.418281201109686" lon="13.35345722457304"><ele>934.5</ele><time>2026-05-03T10:42:39Z</time></trkpt><trkpt lat="42.418377602065966" lon="13.3535523678439"><ele>932.0</ele><time>2026-05-03T10:42:40Z</time></trkpt><trkpt lat="42.41849498916456" lon="13.353627918439466"><ele>929.5</ele><time>2026-05-03T10:42:40.999Z</time></trkpt><trkpt lat="42.41861907290049" lon="13.353706615826459"><ele>927.0</ele><time>2026-05-03T10:42:41.999Z</time></trkpt><trkpt lat="42.4187434787846" lon="13.353810324949922"><ele>928.25</ele><time>2026-05-03T10:42:42.999Z</time></trkpt><trkpt lat="42.41885581469209" lon="13.353943360387358"><ele>929.5</ele><time>2026-05-03T10:42:43.999Z</time></trkpt><trkpt lat="42.418958676055944" lon="13.354091659467235"><ele>930.75</ele><time>2026-05-03T10:42:44.999Z</time></trkpt><trkpt lat="42.419056890930165" lon="13.35424306359192"><ele>932.0</ele><time>2026-05-03T10:42:45.999Z</time></trkpt><trkpt lat="42.41914909397962" lon="13.354401854033915"><ele>932.0</ele><time>2026-05-03T10:42:46.999Z</time></trkpt><trkpt lat="42.41923299776569" lon="13.35458150219986"><ele>932.0</ele><time>2026-05-03T10:42:47.999Z</time></trkpt><trkpt lat="42.41931414744521" lon="13.354772623238777"><ele>932.0</ele><time>2026-05-03T10:42:48.999Z</time></trkpt><trkpt lat="42.419394947939445" lon="13.354968911288084"><ele>929.6666666666667</ele><time>2026-05-03T10:42:49.999Z</time></trkpt><trkpt lat="42.41947800229081" lon="13.355168212333044"><ele>927.3333333333333</ele><time>2026-05-03T10:42:50.999Z</time></trkpt><trkpt lat="42.419563414893986" lon="13.355372828308033"><ele>925.0</ele><time>2026-05-03T10:42:51.999Z</time></trkpt><trkpt lat="42.419650616449175" lon="13.355581396875282"><ele>925.0</ele><time>2026-05-03T10:42:52.999Z</time></trkpt><trkpt lat="42.41973864192342" lon="13.35578944000424"><ele>925.0</ele><time>2026-05-03T10:42:53.999Z</time></trkpt><trkpt lat="42.41982371042098" lon="13.355993903655579"><ele>925.0</ele><time>2026-05-03T10:42:54.999Z</time></trkpt><trkpt lat="42.41990714024619" lon="13.35620143269379"><ele>920.0</ele><time>2026-05-03T10:42:55.999Z</time></trkpt><trkpt lat="42.419993468038605" lon="13.356404019847709"><ele>915.0</ele><time>2026-05-03T10:42:56.999Z</time></trkpt><trkpt lat="42.42008552710282" lon="13.356597676218852"><ele>910.0</ele><time>2026-05-03T10:42:57.999Z</time></trkpt><trkpt lat="42.420178523984276" lon="13.356791563372656"><ele>910.0</ele><time>2026-05-03T10:42:58.999Z</time></trkpt><trkpt lat="42.42027947607501" lon="13.356973621855314"><ele>910.0</ele><time>2026-05-03T10:42:59.999Z</time></trkpt><trkpt lat="42.42038257269324" lon="13.357131323646948"><ele>910.0</ele><time>2026-05-03T10:43:00.999Z</time></trkpt><trkpt lat="42.42047683911749" lon="13.357265322113244"><ele>911.25</ele><time>2026-05-03T10:43:01.999Z</time></trkpt><trkpt lat="42.420563126936926" lon="13.357393493807331"><ele>912.5</ele><time>2026-05-03T10:43:02.999Z</time></trkpt><trkpt lat="42.42063689048952" lon="13.357520924032093"><ele>913.75</ele><time>2026-05-03T10:43:03.999Z</time></trkpt><trkpt lat="42.4207045973993" lon="13.357656578185313"><ele>915.0</ele><time>2026-05-03T10:43:04.999Z</time></trkpt><trkpt lat="42.42075808656771" lon="13.357800244062588"><ele>915.0</ele><time>2026-05-03T10:43:05.999Z</time></trkpt><trkpt lat="42.420784105217976" lon="13.357944582917893"><ele>915.0</ele><time>2026-05-03T10:43:06.999Z</time></trkpt><trkpt lat="42.42077284759784" lon="13.358081778836054"><ele>915.0</ele><time>2026-05-03T10:43:07.999Z</time></trkpt><trkpt lat="42.42071910322082" lon="13.358196124596347"><ele>915.0</ele><time>2026-05-03T10:43:08.999Z</time></trkpt><trkpt lat="42.4206325459155" lon="13.35827311218471"><ele>915.0</ele><time>2026-05-03T10:43:09.999Z</time></trkpt><trkpt lat="42.42052546933332" lon="13.35828444016324"><ele>910.25</ele><time>2026-05-03T10:43:10.999Z</time></trkpt><trkpt lat="42.420414218444535" lon="13.358239094790624"><ele>905.5</ele><time>2026-05-03T10:43:11.999Z</time></trkpt><trkpt lat="42.42031369103127" lon="13.358136321905889"><ele>900.75</ele><time>2026-05-03T10:43:12.999Z</time></trkpt><trkpt lat="42.42022809662858" lon="13.357991513656904"><ele>896.0</ele><time>2026-05-03T10:43:13.999Z</time></trkpt><trkpt lat="42.42014743410556" lon="13.357826652933335"><ele>896.0</ele><time>2026-05-03T10:43:14.999Z</time></trkpt><trkpt lat="42.42004350244122" lon="13.3576650401121"><ele>896.0</ele><time>2026-05-03T10:43:15.999Z</time></trkpt><trkpt lat="42.41993629929709" lon="13.357497871533376"><ele>896.0</ele><time>2026-05-03T10:43:16.999Z</time></trkpt><trkpt lat="42.41983257665461" lon="13.357327988335488"><ele>893.3333333333334</ele><time>2026-05-03T10:43:17.999Z</time></trkpt><trkpt lat="42.41972884676349" lon="13.357160491461835"><ele>890.6666666666667</ele><time>2026-05-03T10:43:18.999Z</time></trkpt><trkpt lat="42.41962373652019" lon="13.35698480672585"><ele>888.0</ele><time>2026-05-03T10:43:19.999Z</time></trkpt><trkpt lat="42.41950617345376" lon="13.35680496756993"><ele>888.0</ele><time>2026-05-03T10:43:20.999Z</time></trkpt><trkpt lat="42.41931473949848" lon="13.3565157395155"><ele>888.0</ele><time>2026-05-03T10:43:21.999Z</time></trkpt><trkpt lat="42.41917457091412" lon="13.356322753383362"><ele>891.0</ele><time>2026-05-03T10:43:22.999Z</time></trkpt><trkpt lat="42.41904081111241" lon="13.356134704123882"><ele>894.0</ele><time>2026-05-03T10:43:23.999Z</time></trkpt><trkpt lat="42.41891227661989" lon="13.355953355616748"><ele>897.0</ele><time>2026-05-03T10:43:24.999Z</time></trkpt><trkpt lat="42.418798789306734" lon="13.355759004622438"><ele>894.0</ele><time>2026-05-03T10:43:25.999Z</time></trkpt><trkpt lat="42.418668253704446" lon="13.355590762345132"><ele>891.0</ele><time>2026-05-03T10:43:26.999Z</time></trkpt><trkpt lat="42.4185584534075" lon="13.355404896489393"><ele>888.0</ele><time>2026-05-03T10:43:27.999Z</time></trkpt><trkpt lat="42.4184423644977" lon="13.355213105898912"><ele>888.0</ele><time>2026-05-03T10:43:28.999Z</time></trkpt><trkpt lat="42.41833459506854" lon="13.355018141554362"><ele>888.0</ele><time>2026-05-03T10:43:29.999Z</time></trkpt><trkpt lat="42.41822312932203" lon="13.35482607341927"><ele>888.0</ele><time>2026-05-03T10:43:30.999Z</time></trkpt><trkpt lat="42.41809490889558" lon="13.354649042138488"><ele>884.6666666666667</ele><time>2026-05-03T10:43:31.999Z</time></trkpt><trkpt lat="42.41796426481651" lon="13.354480975734743"><ele>881.3333333333334</ele><time>2026-05-03T10:43:32.999Z</time></trkpt><trkpt lat="42.417826847533846" lon="13.354329255104735"><ele>878.0</ele><time>2026-05-03T10:43:33.999Z</time></trkpt><trkpt lat="42.41768130782433" lon="13.354199697449415"><ele>878.0</ele><time>2026-05-03T10:43:34.999Z</time></trkpt><trkpt lat="42.41753362115621" lon="13.35408292648992"><ele>878.0</ele><time>2026-05-03T10:43:35.999Z</time></trkpt><trkpt lat="42.41741467915833" lon="13.353934322953256"><ele>878.0</ele><time>2026-05-03T10:43:36.999Z</time></trkpt><trkpt lat="42.41730293609394" lon="13.353791772836965"><ele>884.0</ele><time>2026-05-03T10:43:37.999Z</time></trkpt><trkpt lat="42.41720624586385" lon="13.35363124965882"><ele>890.0</ele><time>2026-05-03T10:43:38.999Z</time></trkpt><trkpt lat="42.41711788922386" lon="13.35344979632717"><ele>896.0</ele><time>2026-05-03T10:43:39.999Z</time></trkpt><trkpt lat="42.41704215101594" lon="13.353248671128155"><ele>886.6666666666667</ele><time>2026-05-03T10:43:40.999Z</time></trkpt><trkpt lat="42.41696851830465" lon="13.353035554043673"><ele>877.3333333333333</ele><time>2026-05-03T10:43:41.999Z</time></trkpt><trkpt lat="42.416907613486096" lon="13.35282846041346"><ele>868.0</ele><time>2026-05-03T10:43:42.999Z</time></trkpt><trkpt lat="42.41685765755209" lon="13.352614553404612"><ele>868.0</ele><time>2026-05-03T10:43:43.999Z</time></trkpt><trkpt lat="42.41681811381944" lon="13.352386049966618"><ele>868.0</ele><time>2026-05-03T10:43:44.998Z</time></trkpt><trkpt lat="42.41676779039941" lon="13.35216779751199"><ele>868.0</ele><time>2026-05-03T10:43:45.998Z</time></trkpt><trkpt lat="42.416734811673415" lon="13.351960270339564"><ele>868.3333333333333</ele><time>2026-05-03T10:43:46.998Z</time></trkpt><trkpt lat="42.416715413237014" lon="13.351752650747901"><ele>868.6666666666667</ele><time>2026-05-03T10:43:47.998Z</time></trkpt><trkpt lat="42.416683557871934" lon="13.351549625870511"><ele>869.0</ele><time>2026-05-03T10:43:48.998Z</time></trkpt><trkpt lat="42.416665042892994" lon="13.351354559244518"><ele>867.0</ele><time>2026-05-03T10:43:49.998Z</time></trkpt><trkpt lat="42.41667874238906" lon="13.351133532038599"><ele>865.0</ele><time>2026-05-03T10:43:50.998Z</time></trkpt><trkpt lat="42.416700752470284" lon="13.35091263347417"><ele>863.0</ele><time>2026-05-03T10:43:51.998Z</time></trkpt><trkpt lat="42.41674744685056" lon="13.350696922264403"><ele>858.3333333333334</ele><time>2026-05-03T10:43:52.998Z</time></trkpt><trkpt lat="42.41680025938647" lon="13.350476351808469"><ele>853.6666666666667</ele><time>2026-05-03T10:43:53.998Z</time></trkpt><trkpt lat="42.41686025761917" lon="13.350251134306502"><ele>849.0</ele><time>2026-05-03T10:43:54.998Z</time></trkpt><trkpt lat="42.41692399718347" lon="13.35003740327799"><ele>849.0</ele><time>2026-05-03T10:43:55.998Z</time></trkpt><trkpt lat="42.41698683617269" lon="13.34982631569579"><ele>849.0</ele><time>2026-05-03T10:43:56.998Z</time></trkpt><trkpt lat="42.41704811485701" lon="13.349625605277465"><ele>849.0</ele><time>2026-05-03T10:43:57.998Z</time></trkpt><trkpt lat="42.41710264889136" lon="13.34943105057731"><ele>848.0</ele><time>2026-05-03T10:43:58.998Z</time></trkpt><trkpt lat="42.41714382945717" lon="13.34924880003356"><ele>847.0</ele><time>2026-05-03T10:43:59.998Z</time></trkpt><trkpt lat="42.41714662744468" lon="13.349083073124573"><ele>846.0</ele><time>2026-05-03T10:44:00.998Z</time></trkpt><trkpt lat="42.417091380792385" lon="13.348912547149839"><ele>845.0</ele><time>2026-05-03T10:44:02Z</time></trkpt><trkpt lat="42.41701210813706" lon="13.348740164419445"><ele>845.0</ele><time>2026-05-03T10:44:03Z</time></trkpt><trkpt lat="42.416917884188564" lon="13.348570394980976"><ele>845.0</ele><time>2026-05-03T10:44:04Z</time></trkpt><trkpt lat="42.416845934274804" lon="13.34838511542757"><ele>845.0</ele><time>2026-05-03T10:44:05Z</time></trkpt><trkpt lat="42.416783703150905" lon="13.348201440982367"><ele>845.0</ele><time>2026-05-03T10:44:06Z</time></trkpt><trkpt lat="42.41673565664517" lon="13.348019342915524"><ele>845.0</ele><time>2026-05-03T10:44:07Z</time></trkpt><trkpt lat="42.416706878743504" lon="13.347842786701566"><ele>845.0</ele><time>2026-05-03T10:44:08Z</time></trkpt><trkpt lat="42.41671079284817" lon="13.34765531087918"><ele>845.0</ele><time>2026-05-03T10:44:09Z</time></trkpt><trkpt lat="42.416719160744016" lon="13.34745166071713"><ele>845.0</ele><time>2026-05-03T10:44:10Z</time></trkpt><trkpt lat="42.416761663704804" lon="13.347257403233304"><ele>845.0</ele><time>2026-05-03T10:44:11Z</time></trkpt><trkpt lat="42.416846054236686" lon="13.347081331773804"><ele>845.0</ele><time>2026-05-03T10:44:12Z</time></trkpt><trkpt lat="42.41692070889214" lon="13.346895371559883"><ele>842.5</ele><time>2026-05-03T10:44:13Z</time></trkpt><trkpt lat="42.41699874811108" lon="13.34672817628429"><ele>840.0</ele><time>2026-05-03T10:44:14Z</time></trkpt><trkpt lat="42.417053688347465" lon="13.346566129765906"><ele>837.5</ele><time>2026-05-03T10:44:15Z</time></trkpt><trkpt lat="42.41706364055879" lon="13.34640282222069"><ele>835.0</ele><time>2026-05-03T10:44:16Z</time></trkpt><trkpt lat="42.41702667252652" lon="13.346241986418454"><ele>835.0</ele><time>2026-05-03T10:44:17Z</time></trkpt><trkpt lat="42.41695830628563" lon="13.346086707860579"><ele>835.0</ele><time>2026-05-03T10:44:18Z</time></trkpt><trkpt lat="42.41687667413447" lon="13.345931858457487"><ele>835.0</ele><time>2026-05-03T10:44:19Z</time></trkpt><trkpt lat="42.41684055496055" lon="13.345757614373683"><ele>835.0</ele><time>2026-05-03T10:44:20Z</time></trkpt><trkpt lat="42.41681817855567" lon="13.345596115471123"><ele>834.25</ele><time>2026-05-03T10:44:21Z</time></trkpt><trkpt lat="42.41681455029612" lon="13.34543795401253"><ele>833.5</ele><time>2026-05-03T10:44:22Z</time></trkpt><trkpt lat="42.41687314497161" lon="13.34528461168677"><ele>832.75</ele><time>2026-05-03T10:44:23Z</time></trkpt><trkpt lat="42.416953108039976" lon="13.345128113403755"><ele>832.0</ele><time>2026-05-03T10:44:24Z</time></trkpt><trkpt lat="42.417029273652695" lon="13.344965250609212"><ele>832.0</ele><time>2026-05-03T10:44:25Z</time></trkpt><trkpt lat="42.41709726340947" lon="13.344801816180887"><ele>832.0</ele><time>2026-05-03T10:44:26Z</time></trkpt><trkpt lat="42.41715456874375" lon="13.34465212965261"><ele>832.0</ele><time>2026-05-03T10:44:27Z</time></trkpt><trkpt lat="42.4171897227635" lon="13.344514825265732"><ele>832.0</ele><time>2026-05-03T10:44:28Z</time></trkpt><trkpt lat="42.41719523372749" lon="13.344379987678517"><ele>832.0</ele><time>2026-05-03T10:44:29Z</time></trkpt><trkpt lat="42.417168177867715" lon="13.344245663311499"><ele>832.0</ele><time>2026-05-03T10:44:30Z</time></trkpt><trkpt lat="42.41707779990622" lon="13.344125677293604"><ele>832.0</ele><time>2026-05-03T10:44:31Z</time></trkpt><trkpt lat="42.41699969017488" lon="13.344003782761385"><ele>832.0</ele><time>2026-05-03T10:44:32Z</time></trkpt><trkpt lat="42.41693047147611" lon="13.343866531059515"><ele>832.0</ele><time>2026-05-03T10:44:33Z</time></trkpt><trkpt lat="42.416876670795844" lon="13.34370943740472"><ele>832.0</ele><time>2026-05-03T10:44:34Z</time></trkpt><trkpt lat="42.41684008791357" lon="13.343544777388113"><ele>832.0</ele><time>2026-05-03T10:44:35Z</time></trkpt><trkpt lat="42.41682304075794" lon="13.343373870428206"><ele>832.0</ele><time>2026-05-03T10:44:36Z</time></trkpt><trkpt lat="42.416824494753314" lon="13.343195474159712"><ele>831.0</ele><time>2026-05-03T10:44:37Z</time></trkpt><trkpt lat="42.41683575034907" lon="13.343013590528567"><ele>830.0</ele><time>2026-05-03T10:44:38Z</time></trkpt><trkpt lat="42.416857128950184" lon="13.342829391239622"><ele>829.0</ele><time>2026-05-03T10:44:39Z</time></trkpt><trkpt lat="42.41689218052073" lon="13.342644286482356"><ele>828.0</ele><time>2026-05-03T10:44:40Z</time></trkpt><trkpt lat="42.416929704691945" lon="13.342458624476867"><ele>828.0</ele><time>2026-05-03T10:44:41Z</time></trkpt><trkpt lat="42.4169671599327" lon="13.342279703987936"><ele>828.0</ele><time>2026-05-03T10:44:42Z</time></trkpt><trkpt lat="42.41699501075771" lon="13.342102356287699"><ele>828.0</ele><time>2026-05-03T10:44:43Z</time></trkpt><trkpt lat="42.417009674808064" lon="13.341928010807115"><ele>828.0</ele><time>2026-05-03T10:44:44Z</time></trkpt><trkpt lat="42.41700370325412" lon="13.341760432269941"><ele>828.0</ele><time>2026-05-03T10:44:45Z</time></trkpt><trkpt lat="42.41695133366294" lon="13.341608145841274"><ele>828.0</ele><time>2026-05-03T10:44:45.999Z</time></trkpt><trkpt lat="42.41686925839675" lon="13.341466470796123"><ele>828.0</ele><time>2026-05-03T10:44:46.999Z</time></trkpt><trkpt lat="42.41675414595327" lon="13.341336582836004"><ele>828.0</ele><time>2026-05-03T10:44:47.999Z</time></trkpt><trkpt lat="42.41663595012879" lon="13.341213123964422"><ele>826.75</ele><time>2026-05-03T10:44:48.999Z</time></trkpt><trkpt lat="42.41650805155039" lon="13.341108464229661"><ele>825.5</ele><time>2026-05-03T10:44:49.999Z</time></trkpt><trkpt lat="42.41637625073186" lon="13.341015141715838"><ele>824.25</ele><time>2026-05-03T10:44:50.999Z</time></trkpt><trkpt lat="42.4162382781211" lon="13.340934930983224"><ele>823.0</ele><time>2026-05-03T10:44:51.999Z</time></trkpt><trkpt lat="42.416104460443385" lon="13.340850328468873"><ele>823.0</ele><time>2026-05-03T10:44:52.999Z</time></trkpt><trkpt lat="42.415973553613036" lon="13.340762214705506"><ele>823.0</ele><time>2026-05-03T10:44:53.999Z</time></trkpt><trkpt lat="42.41585064941483" lon="13.34065804385998"><ele>823.0</ele><time>2026-05-03T10:44:54.999Z</time></trkpt><trkpt lat="42.415732359049265" lon="13.340541945197895"><ele>823.0</ele><time>2026-05-03T10:44:55.999Z</time></trkpt><trkpt lat="42.415618017404434" lon="13.340424572162652"><ele>821.5</ele><time>2026-05-03T10:44:56.999Z</time></trkpt><trkpt lat="42.415505027407626" lon="13.340302630017245"><ele>820.0</ele><time>2026-05-03T10:44:57.999Z</time></trkpt><trkpt lat="42.4153864719879" lon="13.340187321349987"><ele>818.5</ele><time>2026-05-03T10:44:58.999Z</time></trkpt><trkpt lat="42.41526987309709" lon="13.340068785611463"><ele>817.0</ele><time>2026-05-03T10:44:59.999Z</time></trkpt><trkpt lat="42.41514737057914" lon="13.339955654352803"><ele>817.0</ele><time>2026-05-03T10:45:00.999Z</time></trkpt><trkpt lat="42.41501308266655" lon="13.339860873417939"><ele>817.0</ele><time>2026-05-03T10:45:01.999Z</time></trkpt><trkpt lat="42.41486517755076" lon="13.33978193957375"><ele>817.0</ele><time>2026-05-03T10:45:02.999Z</time></trkpt><trkpt lat="42.41471602198796" lon="13.33971116252107"><ele>817.3333333333333</ele><time>2026-05-03T10:45:03.999Z</time></trkpt><trkpt lat="42.41456382214911" lon="13.339667720909551"><ele>817.6666666666667</ele><time>2026-05-03T10:45:04.999Z</time></trkpt><trkpt lat="42.41441435334341" lon="13.339628342967002"><ele>818.0</ele><time>2026-05-03T10:45:05.999Z</time></trkpt><trkpt lat="42.414280537787306" lon="13.339537691400702"><ele>818.0</ele><time>2026-05-03T10:45:06.999Z</time></trkpt><trkpt lat="42.414161674043186" lon="13.339443746312664"><ele>818.0</ele><time>2026-05-03T10:45:07.999Z</time></trkpt><trkpt lat="42.41405517213459" lon="13.339329133778179"><ele>818.0</ele><time>2026-05-03T10:45:08.999Z</time></trkpt><trkpt lat="42.41396065894995" lon="13.339188183918179"><ele>818.0</ele><time>2026-05-03T10:45:09.999Z</time></trkpt><trkpt lat="42.4138796849854" lon="13.339019465066956"><ele>811.6666666666667</ele><time>2026-05-03T10:45:10.999Z</time></trkpt><trkpt lat="42.41381093725311" lon="13.338827807041634"><ele>805.3333333333333</ele><time>2026-05-03T10:45:11.999Z</time></trkpt><trkpt lat="42.413730425464514" lon="13.338634437972829"><ele>799.0</ele><time>2026-05-03T10:45:12.999Z</time></trkpt><trkpt lat="42.413665881555815" lon="13.33842622855659"><ele>799.0</ele><time>2026-05-03T10:45:13.999Z</time></trkpt><trkpt lat="42.413599658923225" lon="13.338212130651714"><ele>799.0</ele><time>2026-05-03T10:45:14.999Z</time></trkpt><trkpt lat="42.41353328915951" lon="13.337998222198472"><ele>799.0</ele><time>2026-05-03T10:45:15.999Z</time></trkpt><trkpt lat="42.41346874569156" lon="13.337797803515853"><ele>800.3333333333333</ele><time>2026-05-03T10:45:16.999Z</time></trkpt><trkpt lat="42.41340635765068" lon="13.33759268066661"><ele>801.6666666666667</ele><time>2026-05-03T10:45:17.999Z</time></trkpt><trkpt lat="42.413339785571786" lon="13.337396052430854"><ele>803.0</ele><time>2026-05-03T10:45:18.999Z</time></trkpt><trkpt lat="42.41326306763788" lon="13.33720610776835"><ele>805.6666666666667</ele><time>2026-05-03T10:45:19.999Z</time></trkpt><trkpt lat="42.4131626130144" lon="13.337044958103993"><ele>808.3333333333333</ele><time>2026-05-03T10:45:20.999Z</time></trkpt><trkpt lat="42.413029359931805" lon="13.336916947112572"><ele>811.0</ele><time>2026-05-03T10:45:21.999Z</time></trkpt><trkpt lat="42.41288639883036" lon="13.336813452047588"><ele>807.0</ele><time>2026-05-03T10:45:22.999Z</time></trkpt><trkpt lat="42.41274147973988" lon="13.336731557927019"><ele>803.0</ele><time>2026-05-03T10:45:23.999Z</time></trkpt><trkpt lat="42.41261524835457" lon="13.33665504551209"><ele>799.0</ele><time>2026-05-03T10:45:24.999Z</time></trkpt><trkpt lat="42.412526601985924" lon="13.336557449680486"><ele>795.0</ele><time>2026-05-03T10:45:25.999Z</time></trkpt><trkpt lat="42.41245956343519" lon="13.336472183722144"><ele>795.75</ele><time>2026-05-03T10:45:26.999Z</time></trkpt><trkpt lat="42.412424000493445" lon="13.336345058863198"><ele>796.5</ele><time>2026-05-03T10:45:27.999Z</time></trkpt><trkpt lat="42.41241502759625" lon="13.336179556388673"><ele>797.25</ele><time>2026-05-03T10:45:28.999Z</time></trkpt><trkpt lat="42.41242354438309" lon="13.335978059510316"><ele>798.0</ele><time>2026-05-03T10:45:29.999Z</time></trkpt><trkpt lat="42.41244325070259" lon="13.335764518121408"><ele>798.6666666666667</ele><time>2026-05-03T10:45:30.999Z</time></trkpt><trkpt lat="42.41244926562573" lon="13.335540100231071"><ele>799.3333333333334</ele><time>2026-05-03T10:45:31.999Z</time></trkpt><trkpt lat="42.412439149223104" lon="13.335305077226904"><ele>800.0</ele><time>2026-05-03T10:45:32.999Z</time></trkpt><trkpt lat="42.412409558218066" lon="13.33506567556547"><ele>800.0</ele><time>2026-05-03T10:45:33.999Z</time></trkpt><trkpt lat="42.4123776099032" lon="13.334833921436687"><ele>800.0</ele><time>2026-05-03T10:45:34.999Z</time></trkpt><trkpt lat="42.4123415805542" lon="13.334608631965656"><ele>800.0</ele><time>2026-05-03T10:45:35.999Z</time></trkpt><trkpt lat="42.41232530965444" lon="13.33438723401647"><ele>799.5</ele><time>2026-05-03T10:45:36.999Z</time></trkpt><trkpt lat="42.412298616243824" lon="13.334175708935554"><ele>799.0</ele><time>2026-05-03T10:45:37.999Z</time></trkpt><trkpt lat="42.41227048121564" lon="13.333977987919996"><ele>798.5</ele><time>2026-05-03T10:45:38.999Z</time></trkpt><trkpt lat="42.41231227312246" lon="13.3337957434426"><ele>798.0</ele><time>2026-05-03T10:45:39.999Z</time></trkpt><trkpt lat="42.412369822130515" lon="13.333616484795849"><ele>794.0</ele><time>2026-05-03T10:45:40.999Z</time></trkpt><trkpt lat="42.412454143529445" lon="13.333438423814195"><ele>790.0</ele><time>2026-05-03T10:45:41.999Z</time></trkpt><trkpt lat="42.412540585013936" lon="13.33324421458132"><ele>786.0</ele><time>2026-05-03T10:45:42.999Z</time></trkpt><trkpt lat="42.412644572421804" lon="13.333055967574376"><ele>780.0</ele><time>2026-05-03T10:45:43.999Z</time></trkpt><trkpt lat="42.41274806456892" lon="13.332876473335844"><ele>774.0</ele><time>2026-05-03T10:45:44.999Z</time></trkpt><trkpt lat="42.412842738247086" lon="13.33269480227096"><ele>768.0</ele><time>2026-05-03T10:45:45.999Z</time></trkpt><trkpt lat="42.41293962467446" lon="13.332513004977345"><ele>770.3333333333333</ele><time>2026-05-03T10:45:46.999Z</time></trkpt><trkpt lat="42.41304473107589" lon="13.332340786082336"><ele>772.6666666666666</ele><time>2026-05-03T10:45:47.999Z</time></trkpt><trkpt lat="42.413162048380194" lon="13.332176351548934"><ele>775.0</ele><time>2026-05-03T10:45:48.999Z</time></trkpt><trkpt lat="42.41329616680803" lon="13.332027634580973"><ele>775.0</ele><time>2026-05-03T10:45:49.999Z</time></trkpt><trkpt lat="42.413438685372014" lon="13.331885604980606"><ele>775.0</ele><time>2026-05-03T10:45:50.998Z</time></trkpt><trkpt lat="42.41358395692105" lon="13.331743564220568"><ele>775.0</ele><time>2026-05-03T10:45:51.998Z</time></trkpt><trkpt lat="42.41371954713255" lon="13.331581597090581"><ele>776.3333333333333</ele><time>2026-05-03T10:45:52.998Z</time></trkpt><trkpt lat="42.413836191842506" lon="13.33139001579595"><ele>777.6666666666667</ele><time>2026-05-03T10:45:53.998Z</time></trkpt><trkpt lat="42.41392654305764" lon="13.331155580509868"><ele>779.0</ele><time>2026-05-03T10:45:54.998Z</time></trkpt><trkpt lat="42.4140309599704" lon="13.330937758812679"><ele>779.0</ele><time>2026-05-03T10:45:55.998Z</time></trkpt><trkpt lat="42.41413300639634" lon="13.330720310463759"><ele>779.0</ele><time>2026-05-03T10:45:56.998Z</time></trkpt><trkpt lat="42.41423001874672" lon="13.33051161025064"><ele>779.0</ele><time>2026-05-03T10:45:57.998Z</time></trkpt><trkpt lat="42.41432999927187" lon="13.330304871033082"><ele>774.0</ele><time>2026-05-03T10:45:58.998Z</time></trkpt><trkpt lat="42.4144260252039" lon="13.33010405798972"><ele>769.0</ele><time>2026-05-03T10:45:59.998Z</time></trkpt><trkpt lat="42.414514231440904" lon="13.329904515591126"><ele>764.0</ele><time>2026-05-03T10:46:00.998Z</time></trkpt><trkpt lat="42.41458903477926" lon="13.32968643707125"><ele>759.6666666666666</ele><time>2026-05-03T10:46:01.998Z</time></trkpt><trkpt lat="42.41464915792013" lon="13.329458849534854"><ele>755.3333333333334</ele><time>2026-05-03T10:46:02.998Z</time></trkpt><trkpt lat="42.41469924217559" lon="13.329218978589513"><ele>751.0</ele><time>2026-05-03T10:46:03.998Z</time></trkpt><trkpt lat="42.414754905441086" lon="13.32897161937946"><ele>757.0</ele><time>2026-05-03T10:46:04.998Z</time></trkpt><trkpt lat="42.41481232691294" lon="13.328714444006147"><ele>763.0</ele><time>2026-05-03T10:46:05.998Z</time></trkpt><trkpt lat="42.41486700633836" lon="13.328467427354358"><ele>769.0</ele><time>2026-05-03T10:46:06.998Z</time></trkpt><trkpt lat="42.41491510085875" lon="13.328226185687587"><ele>766.3333333333333</ele><time>2026-05-03T10:46:08Z</time></trkpt><trkpt lat="42.414939196216245" lon="13.327985663103622"><ele>763.6666666666666</ele><time>2026-05-03T10:46:09Z</time></trkpt><trkpt lat="42.414934244913155" lon="13.327747462886244"><ele>761.0</ele><time>2026-05-03T10:46:10Z</time></trkpt><trkpt lat="42.41490415481068" lon="13.327508886410584"><ele>761.0</ele><time>2026-05-03T10:46:11Z</time></trkpt><trkpt lat="42.414862375645576" lon="13.327263999736713"><ele>761.0</ele><time>2026-05-03T10:46:12Z</time></trkpt><trkpt lat="42.41481106532608" lon="13.327023941861995"><ele>761.0</ele><time>2026-05-03T10:46:13Z</time></trkpt><trkpt lat="42.414752510059216" lon="13.326793441849066"><ele>761.0</ele><time>2026-05-03T10:46:14Z</time></trkpt><trkpt lat="42.41467454842092" lon="13.326580217850577"><ele>761.0</ele><time>2026-05-03T10:46:15Z</time></trkpt><trkpt lat="42.41457092338306" lon="13.326381128216159"><ele>761.0</ele><time>2026-05-03T10:46:16Z</time></trkpt><trkpt lat="42.41443579404852" lon="13.326210176496735"><ele>761.0</ele><time>2026-05-03T10:46:17Z</time></trkpt><trkpt lat="42.414288402919745" lon="13.32605491004455"><ele>761.0</ele><time>2026-05-03T10:46:18Z</time></trkpt><trkpt lat="42.41412878864634" lon="13.325923768237338"><ele>761.0</ele><time>2026-05-03T10:46:19Z</time></trkpt><trkpt lat="42.413964756574416" lon="13.32581834031703"><ele>760.0</ele><time>2026-05-03T10:46:20Z</time></trkpt><trkpt lat="42.413800170947525" lon="13.325724698562853"><ele>759.0</ele><time>2026-05-03T10:46:21Z</time></trkpt><trkpt lat="42.41364032339739" lon="13.325627572477861"><ele>758.0</ele><time>2026-05-03T10:46:22Z</time></trkpt><trkpt lat="42.41349951667939" lon="13.325503297045517"><ele>758.0</ele><time>2026-05-03T10:46:23Z</time></trkpt><trkpt lat="42.413375896838815" lon="13.325400817932376"><ele>758.0</ele><time>2026-05-03T10:46:24Z</time></trkpt><trkpt lat="42.41326171514662" lon="13.325282955413295"><ele>758.0</ele><time>2026-05-03T10:46:25Z</time></trkpt><trkpt lat="42.41317067625778" lon="13.325140669414818"><ele>758.0</ele><time>2026-05-03T10:46:26Z</time></trkpt><trkpt lat="42.41309424903723" lon="13.32497932125215"><ele>758.0</ele><time>2026-05-03T10:46:27Z</time></trkpt><trkpt lat="42.41305074733396" lon="13.324790235695152"><ele>758.0</ele><time>2026-05-03T10:46:28Z</time></trkpt><trkpt lat="42.4130330501789" lon="13.324603447993454"><ele>758.0</ele><time>2026-05-03T10:46:29Z</time></trkpt><trkpt lat="42.4130154469986" lon="13.324417100540579"><ele>758.0</ele><time>2026-05-03T10:46:30Z</time></trkpt><trkpt lat="42.41299921845895" lon="13.32422296197635"><ele>751.75</ele><time>2026-05-03T10:46:31Z</time></trkpt><trkpt lat="42.412980399302995" lon="13.324024624919446"><ele>745.5</ele><time>2026-05-03T10:46:32Z</time></trkpt><trkpt lat="42.412964733065984" lon="13.323834873244305"><ele>739.25</ele><time>2026-05-03T10:46:33Z</time></trkpt><trkpt lat="42.412949309829536" lon="13.323647343606414"><ele>733.0</ele><time>2026-05-03T10:46:34Z</time></trkpt><trkpt lat="42.41293482068269" lon="13.32346352836349"><ele>733.0</ele><time>2026-05-03T10:46:35Z</time></trkpt><trkpt lat="42.41292846616502" lon="13.323275328226096"><ele>733.0</ele><time>2026-05-03T10:46:36Z</time></trkpt><trkpt lat="42.4129035980573" lon="13.323087444972707"><ele>733.0</ele><time>2026-05-03T10:46:37Z</time></trkpt><trkpt lat="42.41284995667954" lon="13.322911580729592"><ele>733.0</ele><time>2026-05-03T10:46:38Z</time></trkpt><trkpt lat="42.412808022128345" lon="13.322730414930954"><ele>733.25</ele><time>2026-05-03T10:46:39Z</time></trkpt><trkpt lat="42.41278247885582" lon="13.32254503226268"><ele>733.5</ele><time>2026-05-03T10:46:40Z</time></trkpt><trkpt lat="42.412747116888546" lon="13.322363696030694"><ele>733.75</ele><time>2026-05-03T10:46:41Z</time></trkpt><trkpt lat="42.41271349785449" lon="13.322173865454234"><ele>734.0</ele><time>2026-05-03T10:46:42Z</time></trkpt><trkpt lat="42.412711915005374" lon="13.321974662667646"><ele>732.6666666666666</ele><time>2026-05-03T10:46:43Z</time></trkpt><trkpt lat="42.41271730618292" lon="13.321771441053484"><ele>731.3333333333334</ele><time>2026-05-03T10:46:43.999Z</time></trkpt><trkpt lat="42.4127255616901" lon="13.321557896826988"><ele>730.0</ele><time>2026-05-03T10:46:44.999Z</time></trkpt><trkpt lat="42.412725004593696" lon="13.32133303446669"><ele>729.6666666666667</ele><time>2026-05-03T10:46:45.999Z</time></trkpt><trkpt lat="42.41271248620113" lon="13.321103898945578"><ele>729.3333333333334</ele><time>2026-05-03T10:46:46.999Z</time></trkpt><trkpt lat="42.41269182896128" lon="13.320881218004908"><ele>729.0</ele><time>2026-05-03T10:46:47.999Z</time></trkpt><trkpt lat="42.41266703579384" lon="13.32066523980004"><ele>728.5</ele><time>2026-05-03T10:46:48.999Z</time></trkpt><trkpt lat="42.41263624540865" lon="13.320453826161774"><ele>728.0</ele><time>2026-05-03T10:46:49.999Z</time></trkpt><trkpt lat="42.412604843112774" lon="13.320257131153136"><ele>727.5</ele><time>2026-05-03T10:46:50.999Z</time></trkpt><trkpt lat="42.41257867167866" lon="13.320071499738775"><ele>727.0</ele><time>2026-05-03T10:46:51.999Z</time></trkpt><trkpt lat="42.412569804993346" lon="13.319887512714706"><ele>726.5</ele><time>2026-05-03T10:46:52.999Z</time></trkpt><trkpt lat="42.41257034875047" lon="13.319696924787305"><ele>726.0</ele><time>2026-05-03T10:46:53.999Z</time></trkpt><trkpt lat="42.41258714311099" lon="13.319504484662247"><ele>725.5</ele><time>2026-05-03T10:46:54.999Z</time></trkpt><trkpt lat="42.412620025750854" lon="13.319313389386844"><ele>725.0</ele><time>2026-05-03T10:46:55.999Z</time></trkpt><trkpt lat="42.41264219010736" lon="13.319124486011665"><ele>725.0</ele><time>2026-05-03T10:46:56.999Z</time></trkpt><trkpt lat="42.41264106955617" lon="13.318930159040582"><ele>725.0</ele><time>2026-05-03T10:46:57.999Z</time></trkpt><trkpt lat="42.412625480747735" lon="13.318729499946325"><ele>725.0</ele><time>2026-05-03T10:46:58.999Z</time></trkpt><trkpt lat="42.41260953549194" lon="13.318529306164603"><ele>725.0</ele><time>2026-05-03T10:46:59.999Z</time></trkpt><trkpt lat="42.41260814578417" lon="13.318329945939693"><ele>723.0</ele><time>2026-05-03T10:47:00.999Z</time></trkpt><trkpt lat="42.4126276234931" lon="13.31812346925685"><ele>721.0</ele><time>2026-05-03T10:47:01.999Z</time></trkpt><trkpt lat="42.412650543429365" lon="13.317921592240586"><ele>719.0</ele><time>2026-05-03T10:47:02.999Z</time></trkpt><trkpt lat="42.41267928455891" lon="13.317728673137525"><ele>718.0</ele><time>2026-05-03T10:47:03.999Z</time></trkpt><trkpt lat="42.41270660194944" lon="13.317540059406685"><ele>717.0</ele><time>2026-05-03T10:47:04.999Z</time></trkpt><trkpt lat="42.4127339760146" lon="13.317358253676689"><ele>716.0</ele><time>2026-05-03T10:47:05.999Z</time></trkpt><trkpt lat="42.41276548046053" lon="13.317199653611516"><ele>715.0</ele><time>2026-05-03T10:47:06.999Z</time></trkpt><trkpt lat="42.41279805346014" lon="13.317064726012251"><ele>714.6666666666667</ele><time>2026-05-03T10:47:07.999Z</time></trkpt><trkpt lat="42.412831458783856" lon="13.316938932564721"><ele>714.3333333333334</ele><time>2026-05-03T10:47:08.999Z</time></trkpt><trkpt lat="42.41286797572657" lon="13.316831265839262"><ele>714.0</ele><time>2026-05-03T10:47:09.999Z</time></trkpt><trkpt lat="42.41291753226333" lon="13.316741742134974"><ele>713.6666666666666</ele><time>2026-05-03T10:47:10.999Z</time></trkpt><trkpt lat="42.41298094536529" lon="13.31667447163641"><ele>713.3333333333333</ele><time>2026-05-03T10:47:11.999Z</time></trkpt><trkpt lat="42.413035464185775" lon="13.316611466729654"><ele>713.0</ele><time>2026-05-03T10:47:12.999Z</time></trkpt><trkpt lat="42.41305144897242" lon="13.31652083257201"><ele>712.2</ele><time>2026-05-03T10:47:13.999Z</time></trkpt><trkpt lat="42.41303822762708" lon="13.31640344232572"><ele>711.4</ele><time>2026-05-03T10:47:14.999Z</time></trkpt><trkpt lat="42.41301661326848" lon="13.316260118146896"><ele>710.6</ele><time>2026-05-03T10:47:15.999Z</time></trkpt><trkpt lat="42.41300487395435" lon="13.316104977890145"><ele>709.8000000000001</ele><time>2026-05-03T10:47:16.999Z</time></trkpt><trkpt lat="42.412999601009226" lon="13.315941298282741"><ele>709.0</ele><time>2026-05-03T10:47:17.999Z</time></trkpt><trkpt lat="42.412987806929756" lon="13.31578623338034"><ele>709.0</ele><time>2026-05-03T10:47:18.999Z</time></trkpt><trkpt lat="42.412968989577706" lon="13.315623932263577"><ele>709.0</ele><time>2026-05-03T10:47:19.999Z</time></trkpt><trkpt lat="42.4129444875475" lon="13.315450718441623"><ele>709.0</ele><time>2026-05-03T10:47:20.999Z</time></trkpt><trkpt lat="42.41293070684531" lon="13.315265193809292"><ele>709.0</ele><time>2026-05-03T10:47:21.999Z</time></trkpt><trkpt lat="42.412883146736085" lon="13.315087539491982"><ele>708.75</ele><time>2026-05-03T10:47:22.999Z</time></trkpt><trkpt lat="42.412845553543676" lon="13.314902333787678"><ele>708.5</ele><time>2026-05-03T10:47:23.999Z</time></trkpt><trkpt lat="42.41281650445892" lon="13.314711838638235"><ele>708.25</ele><time>2026-05-03T10:47:24.999Z</time></trkpt><trkpt lat="42.41276606949214" lon="13.314539115383457"><ele>708.0</ele><time>2026-05-03T10:47:25.999Z</time></trkpt><trkpt lat="42.41271331287774" lon="13.314363817338021"><ele>708.0</ele><time>2026-05-03T10:47:26.999Z</time></trkpt><trkpt lat="42.412663733220555" lon="13.314188387708295"><ele>708.0</ele><time>2026-05-03T10:47:27.999Z</time></trkpt><trkpt lat="42.41261079750758" lon="13.314007956690817"><ele>708.0</ele><time>2026-05-03T10:47:28.999Z</time></trkpt><trkpt lat="42.412585454197384" lon="13.313806680383104"><ele>708.0</ele><time>2026-05-03T10:47:29.999Z</time></trkpt><trkpt lat="42.41257039878733" lon="13.313596360358575"><ele>708.0</ele><time>2026-05-03T10:47:30.999Z</time></trkpt><trkpt lat="42.41256183508502" lon="13.313381889148552"><ele>708.0</ele><time>2026-05-03T10:47:31.999Z</time></trkpt><trkpt lat="42.41254908978125" lon="13.31316579125085"><ele>708.0</ele><time>2026-05-03T10:47:32.999Z</time></trkpt><trkpt lat="42.41252369499254" lon="13.312953982182723"><ele>708.0</ele><time>2026-05-03T10:47:33.999Z</time></trkpt><trkpt lat="42.412485204921246" lon="13.3127480581643"><ele>708.0</ele><time>2026-05-03T10:47:34.999Z</time></trkpt><trkpt lat="42.412448298537875" lon="13.31254312834966"><ele>708.0</ele><time>2026-05-03T10:47:35.999Z</time></trkpt><trkpt lat="42.41238837234948" lon="13.312346770818483"><ele>710.3333333333334</ele><time>2026-05-03T10:47:36.999Z</time></trkpt><trkpt lat="42.41232167450816" lon="13.312154742901132"><ele>712.6666666666667</ele><time>2026-05-03T10:47:37.999Z</time></trkpt><trkpt lat="42.41224930806212" lon="13.311967329006123"><ele>715.0</ele><time>2026-05-03T10:47:38.999Z</time></trkpt><trkpt lat="42.41216197393603" lon="13.311784400678016"><ele>711.6666666666667</ele><time>2026-05-03T10:47:39.999Z</time></trkpt><trkpt lat="42.41206434562539" lon="13.311616633103538"><ele>708.3333333333334</ele><time>2026-05-03T10:47:40.999Z</time></trkpt><trkpt lat="42.41195082039656" lon="13.311475412569058"><ele>705.0</ele><time>2026-05-03T10:47:41.999Z</time></trkpt><trkpt lat="42.41186148234989" lon="13.311308601998611"><ele>705.0</ele><time>2026-05-03T10:47:42.999Z</time></trkpt><trkpt lat="42.41176229308905" lon="13.311159628281159"><ele>705.0</ele><time>2026-05-03T10:47:43.999Z</time></trkpt><trkpt lat="42.411665620450115" lon="13.311015339063397"><ele>705.0</ele><time>2026-05-03T10:47:44.999Z</time></trkpt><trkpt lat="42.41156432191078" lon="13.31089228961248"><ele>705.0</ele><time>2026-05-03T10:47:45.999Z</time></trkpt><trkpt lat="42.41147663905255" lon="13.310756730366046"><ele>705.0</ele><time>2026-05-03T10:47:46.999Z</time></trkpt><trkpt lat="42.41139174939177" lon="13.310621159570593"><ele>705.0</ele><time>2026-05-03T10:47:47.999Z</time></trkpt><trkpt lat="42.41131172440127" lon="13.310487070652487"><ele>705.0</ele><time>2026-05-03T10:47:48.999Z</time></trkpt><trkpt lat="42.41123237496283" lon="13.310348397272804"><ele>705.0</ele><time>2026-05-03T10:47:49.998Z</time></trkpt><trkpt lat="42.41115396438063" lon="13.310195804314867"><ele>703.75</ele><time>2026-05-03T10:47:50.998Z</time></trkpt><trkpt lat="42.41107368589454" lon="13.310036237621658"><ele>702.5</ele><time>2026-05-03T10:47:51.998Z</time></trkpt><trkpt lat="42.410992525660134" lon="13.309872097057717"><ele>701.25</ele><time>2026-05-03T10:47:52.998Z</time></trkpt><trkpt lat="42.41090779866929" lon="13.309701489416044"><ele>700.0</ele><time>2026-05-03T10:47:53.998Z</time></trkpt><trkpt lat="42.410819982983796" lon="13.309533898153969"><ele>700.0</ele><time>2026-05-03T10:47:54.998Z</time></trkpt><trkpt lat="42.41074515534645" lon="13.309357547856514"><ele>700.0</ele><time>2026-05-03T10:47:55.998Z</time></trkpt><trkpt lat="42.410640693432086" lon="13.309214986973355"><ele>700.0</ele><time>2026-05-03T10:47:56.998Z</time></trkpt><trkpt lat="42.41054732581794" lon="13.309062402532275"><ele>700.0</ele><time>2026-05-03T10:47:57.998Z</time></trkpt><trkpt lat="42.410463238855264" lon="13.308898749780319"><ele>697.75</ele><time>2026-05-03T10:47:58.998Z</time></trkpt><trkpt lat="42.41035385936829" lon="13.308763405165726"><ele>695.5</ele><time>2026-05-03T10:47:59.998Z</time></trkpt><trkpt lat="42.410259024696764" lon="13.308616341361796"><ele>693.25</ele><time>2026-05-03T10:48:00.998Z</time></trkpt><trkpt lat="42.41017826416722" lon="13.308457242609332"><ele>691.0</ele><time>2026-05-03T10:48:01.998Z</time></trkpt><trkpt lat="42.41008989387753" lon="13.308320331793897"><ele>691.0</ele><time>2026-05-03T10:48:02.998Z</time></trkpt><trkpt lat="42.4100061769286" lon="13.308190201156313"><ele>691.0</ele><time>2026-05-03T10:48:03.998Z</time></trkpt><trkpt lat="42.409925198438515" lon="13.308064117195718"><ele>691.0</ele><time>2026-05-03T10:48:04.998Z</time></trkpt><trkpt lat="42.40984569011247" lon="13.307940322295774"><ele>691.0</ele><time>2026-05-03T10:48:05.998Z</time></trkpt><trkpt lat="42.40976630683465" lon="13.3078167024709"><ele>691.75</ele><time>2026-05-03T10:48:06.998Z</time></trkpt><trkpt lat="42.40968836031231" lon="13.307694982410338"><ele>692.5</ele><time>2026-05-03T10:48:07.998Z</time></trkpt><trkpt lat="42.40961194200169" lon="13.307575648776904"><ele>693.25</ele><time>2026-05-03T10:48:08.998Z</time></trkpt><trkpt lat="42.40953787635267" lon="13.307459989040469"><ele>694.0</ele><time>2026-05-03T10:48:09.998Z</time></trkpt><trkpt lat="42.40946344692493" lon="13.307346237879079"><ele>692.6</ele><time>2026-05-03T10:48:10.998Z</time></trkpt><trkpt lat="42.409390224556574" lon="13.307235217975963"><ele>691.2</ele><time>2026-05-03T10:48:11.998Z</time></trkpt><trkpt lat="42.409317687149304" lon="13.30712692045695"><ele>689.8000000000001</ele><time>2026-05-03T10:48:12.998Z</time></trkpt><trkpt lat="42.40924492851232" lon="13.307024147569225"><ele>688.4000000000001</ele><time>2026-05-03T10:48:14Z</time></trkpt><trkpt lat="42.40917711691707" lon="13.306933493909224"><ele>687.0</ele><time>2026-05-03T10:48:15Z</time></trkpt><trkpt lat="42.409117502133796" lon="13.3068594876703"><ele>687.0</ele><time>2026-05-03T10:48:16Z</time></trkpt><trkpt lat="42.40906052197654" lon="13.306815008669922"><ele>687.0</ele><time>2026-05-03T10:48:17Z</time></trkpt><trkpt lat="42.4090100084339" lon="13.306729208779066"><ele>687.0</ele><time>2026-05-03T10:48:19Z</time></trkpt><trkpt lat="42.40897633223503" lon="13.306616367703358"><ele>687.0</ele><time>2026-05-03T10:48:31Z</time></trkpt><trkpt lat="42.40890444987183" lon="13.306523766900957"><ele>687.0</ele><time>2026-05-03T10:48:33Z</time></trkpt><trkpt lat="42.408790170521144" lon="13.306448968029537"><ele>685.75</ele><time>2026-05-03T10:48:35Z</time></trkpt><trkpt lat="42.408692959620986" lon="13.306457686257547"><ele>684.5</ele><time>2026-05-03T10:48:36Z</time></trkpt><trkpt lat="42.408587330525854" lon="13.30643371710093"><ele>683.25</ele><time>2026-05-03T10:48:37Z</time></trkpt><trkpt lat="42.408470921454764" lon="13.306393716165054"><ele>682.0</ele><time>2026-05-03T10:48:38Z</time></trkpt><trkpt lat="42.408338149351486" lon="13.306354345052268"><ele>681.0</ele><time>2026-05-03T10:48:39Z</time></trkpt><trkpt lat="42.40819632882708" lon="13.30632085473309"><ele>680.0</ele><time>2026-05-03T10:48:39.999Z</time></trkpt><trkpt lat="42.40805022110592" lon="13.306291349859746"><ele>679.0</ele><time>2026-05-03T10:48:40.999Z</time></trkpt><trkpt lat="42.4079116611521" lon="13.306240610232397"><ele>678.0</ele><time>2026-05-03T10:48:41.999Z</time></trkpt><trkpt lat="42.40777629829161" lon="13.306236164670175"><ele>678.0</ele><time>2026-05-03T10:48:42.999Z</time></trkpt><trkpt lat="42.407656936273725" lon="13.30621297683263"><ele>678.0</ele><time>2026-05-03T10:48:43.999Z</time></trkpt><trkpt lat="42.40754632331822" lon="13.306195104117455"><ele>678.0</ele><time>2026-05-03T10:48:44.999Z</time></trkpt><trkpt lat="42.40744534390742" lon="13.306178173297635"><ele>678.0</ele><time>2026-05-03T10:48:45.999Z</time></trkpt><trkpt lat="42.40735998958427" lon="13.306145795319159"><ele>678.0</ele><time>2026-05-03T10:48:46.999Z</time></trkpt><trkpt lat="42.40727970078936" lon="13.306133679671246"><ele>678.0</ele><time>2026-05-03T10:48:47.999Z</time></trkpt><trkpt lat="42.40720393794487" lon="13.30612219204209"><ele>678.0</ele><time>2026-05-03T10:48:48.999Z</time></trkpt><trkpt lat="42.40712019021555" lon="13.30613157248265"><ele>678.0</ele><time>2026-05-03T10:48:49.999Z</time></trkpt><trkpt lat="42.407034007031456" lon="13.306111097732979"><ele>678.0</ele><time>2026-05-03T10:48:50.999Z</time></trkpt><trkpt lat="42.40694804831594" lon="13.306094645211449"><ele>678.0</ele><time>2026-05-03T10:48:51.999Z</time></trkpt><trkpt lat="42.40685798636305" lon="13.306078874029009"><ele>678.0</ele><time>2026-05-03T10:48:52.999Z</time></trkpt><trkpt lat="42.406760325837304" lon="13.306060957551603"><ele>678.0</ele><time>2026-05-03T10:48:53.999Z</time></trkpt><trkpt lat="42.406660738175404" lon="13.30604687207033"><ele>678.0</ele><time>2026-05-03T10:48:54.999Z</time></trkpt><trkpt lat="42.40655529360505" lon="13.306032071571117"><ele>678.0</ele><time>2026-05-03T10:48:55.999Z</time></trkpt><trkpt lat="42.40644738671157" lon="13.306014293583685"><ele>678.0</ele><time>2026-05-03T10:48:56.999Z</time></trkpt><trkpt lat="42.406339559365925" lon="13.30600469732465"><ele>678.0</ele><time>2026-05-03T10:48:57.999Z</time></trkpt><trkpt lat="42.40623069926022" lon="13.30600838535463"><ele>678.0</ele><time>2026-05-03T10:48:58.999Z</time></trkpt><trkpt lat="42.406127028351044" lon="13.306016352711495"><ele>678.0</ele><time>2026-05-03T10:48:59.999Z</time></trkpt><trkpt lat="42.40603385549334" lon="13.306026999655076"><ele>678.0</ele><time>2026-05-03T10:49:00.999Z</time></trkpt><trkpt lat="42.40594782805418" lon="13.306038869638638"><ele>678.0</ele><time>2026-05-03T10:49:01.999Z</time></trkpt><trkpt lat="42.4058649466163" lon="13.306038556850925"><ele>678.0</ele><time>2026-05-03T10:49:02.999Z</time></trkpt><trkpt lat="42.405790813399136" lon="13.30602901207051"><ele>678.0</ele><time>2026-05-03T10:49:03.999Z</time></trkpt><trkpt lat="42.40572225064235" lon="13.306048615923336"><ele>678.0</ele><time>2026-05-03T10:49:04.999Z</time></trkpt><trkpt lat="42.40567293489477" lon="13.306107880190016"><ele>678.0</ele><time>2026-05-03T10:49:05.999Z</time></trkpt><trkpt lat="42.40564353999191" lon="13.306198425400542"><ele>678.0</ele><time>2026-05-03T10:49:06.999Z</time></trkpt><trkpt lat="42.405622342211096" lon="13.30629511938925"><ele>678.0</ele><time>2026-05-03T10:49:07.999Z</time></trkpt><trkpt lat="42.405580170221796" lon="13.306396818871713"><ele>678.0</ele><time>2026-05-03T10:49:08.999Z</time></trkpt><trkpt lat="42.405507772710756" lon="13.306498451012772"><ele>678.0</ele><time>2026-05-03T10:49:09.999Z</time></trkpt><trkpt lat="42.4054104729008" lon="13.306599493615298"><ele>677.5</ele><time>2026-05-03T10:49:10.999Z</time></trkpt><trkpt lat="42.40529929167713" lon="13.3067041674988"><ele>677.0</ele><time>2026-05-03T10:49:11.999Z</time></trkpt><trkpt lat="42.40518110565504" lon="13.30680801713731"><ele>676.5</ele><time>2026-05-03T10:49:12.999Z</time></trkpt><trkpt lat="42.40505685990568" lon="13.30691955047664"><ele>676.0</ele><time>2026-05-03T10:49:13.999Z</time></trkpt><trkpt lat="42.404929543571235" lon="13.307036658594686"><ele>676.0</ele><time>2026-05-03T10:49:14.999Z</time></trkpt><trkpt lat="42.404796461174605" lon="13.307154269174525"><ele>676.0</ele><time>2026-05-03T10:49:15.999Z</time></trkpt><trkpt lat="42.404659087371755" lon="13.307271038611987"><ele>676.0</ele><time>2026-05-03T10:49:16.999Z</time></trkpt><trkpt lat="42.40452071140186" lon="13.30739193430903"><ele>675.3333333333334</ele><time>2026-05-03T10:49:17.999Z</time></trkpt><trkpt lat="42.40438254704481" lon="13.307516095431017"><ele>674.6666666666666</ele><time>2026-05-03T10:49:18.999Z</time></trkpt><trkpt lat="42.40424159125164" lon="13.30764162134631"><ele>674.0</ele><time>2026-05-03T10:49:19.999Z</time></trkpt><trkpt lat="42.40409964373001" lon="13.307765182604864"><ele>674.0</ele><time>2026-05-03T10:49:20.999Z</time></trkpt><trkpt lat="42.40395774044552" lon="13.307890147148257"><ele>674.0</ele><time>2026-05-03T10:49:21.999Z</time></trkpt><trkpt lat="42.403814834201846" lon="13.3080169248282"><ele>674.0</ele><time>2026-05-03T10:49:22.999Z</time></trkpt><trkpt lat="42.4036720377515" lon="13.308143204178878"><ele>674.3333333333333</ele><time>2026-05-03T10:49:23.999Z</time></trkpt><trkpt lat="42.40352852063583" lon="13.308271202321066"><ele>674.6666666666666</ele><time>2026-05-03T10:49:24.999Z</time></trkpt><trkpt lat="42.40338371002893" lon="13.308401777216826"><ele>675.0</ele><time>2026-05-03T10:49:25.999Z</time></trkpt><trkpt lat="42.40324115675571" lon="13.308531006885408"><ele>675.0</ele><time>2026-05-03T10:49:26.999Z</time></trkpt><trkpt lat="42.403107218066296" lon="13.308651538378284"><ele>675.0</ele><time>2026-05-03T10:49:27.999Z</time></trkpt><trkpt lat="42.40297762287759" lon="13.308768886851212"><ele>675.0</ele><time>2026-05-03T10:49:28.999Z</time></trkpt><trkpt lat="42.40284800268701" lon="13.308886107635189"><ele>674.0</ele><time>2026-05-03T10:49:29.999Z</time></trkpt><trkpt lat="42.40271502986502" lon="13.309006388778275"><ele>673.0</ele><time>2026-05-03T10:49:30.999Z</time></trkpt><trkpt lat="42.40258026325604" lon="13.309124996681213"><ele>672.0</ele><time>2026-05-03T10:49:31.999Z</time></trkpt><trkpt lat="42.40244572187758" lon="13.309242611961501"><ele>672.0</ele><time>2026-05-03T10:49:32.999Z</time></trkpt><trkpt lat="42.4023122251399" lon="13.309364192737016"><ele>672.0</ele><time>2026-05-03T10:49:33.999Z</time></trkpt><trkpt lat="42.40216716948614" lon="13.309467608152467"><ele>672.0</ele><time>2026-05-03T10:49:34.999Z</time></trkpt><trkpt lat="42.40203810524275" lon="13.309607178194483"><ele>671.3333333333334</ele><time>2026-05-03T10:49:35.999Z</time></trkpt><trkpt lat="42.40189645250146" lon="13.309725141631011"><ele>670.6666666666667</ele><time>2026-05-03T10:49:36.999Z</time></trkpt><trkpt lat="42.401756179522636" lon="13.30984576633432"><ele>670.0</ele><time>2026-05-03T10:49:37.999Z</time></trkpt><trkpt lat="42.401619683227246" lon="13.30996997392467"><ele>670.0</ele><time>2026-05-03T10:49:38.999Z</time></trkpt><trkpt lat="42.40148797561943" lon="13.31009679768427"><ele>670.0</ele><time>2026-05-03T10:49:39.999Z</time></trkpt><trkpt lat="42.40135810678166" lon="13.310221753865651"><ele>670.0</ele><time>2026-05-03T10:49:40.999Z</time></trkpt><trkpt lat="42.40123118221299" lon="13.310340889483461"><ele>669.75</ele><time>2026-05-03T10:49:41.999Z</time></trkpt><trkpt lat="42.40110797680948" lon="13.310458018741667"><ele>669.5</ele><time>2026-05-03T10:49:42.999Z</time></trkpt><trkpt lat="42.40099075298625" lon="13.310567988800093"><ele>669.25</ele><time>2026-05-03T10:49:43.999Z</time></trkpt><trkpt lat="42.4008839438027" lon="13.310668045865956"><ele>669.0</ele><time>2026-05-03T10:49:44.999Z</time></trkpt><trkpt lat="42.40078895750975" lon="13.310756423267959"><ele>668.8000000000001</ele><time>2026-05-03T10:49:45.999Z</time></trkpt><trkpt lat="42.40069955436895" lon="13.31083679721576"><ele>668.6</ele><time>2026-05-03T10:49:46.999Z</time></trkpt><trkpt lat="42.400612763880304" lon="13.31089724651128"><ele>668.4</ele><time>2026-05-03T10:49:47.998Z</time></trkpt><trkpt lat="42.40052377956877" lon="13.310938109580787"><ele>668.2</ele><time>2026-05-03T10:49:48.998Z</time></trkpt><trkpt lat="42.40043889142009" lon="13.310976064473872"><ele>668.0</ele><time>2026-05-03T10:49:49.998Z</time></trkpt><trkpt lat="42.40036624020658" lon="13.311036918432139"><ele>668.2</ele><time>2026-05-03T10:49:50.998Z</time></trkpt><trkpt lat="42.40031125654559" lon="13.311133061916584"><ele>668.4</ele><time>2026-05-03T10:49:51.998Z</time></trkpt><trkpt lat="42.400252609352776" lon="13.311236747494828"><ele>668.6</ele><time>2026-05-03T10:49:52.998Z</time></trkpt><trkpt lat="42.40017281597221" lon="13.311318352845833"><ele>668.8000000000001</ele><time>2026-05-03T10:49:53.998Z</time></trkpt><trkpt lat="42.40005761920149" lon="13.311384148503658"><ele>669.0</ele><time>2026-05-03T10:49:54.998Z</time></trkpt><trkpt lat="42.39993143208599" lon="13.31144925251026"><ele>669.0</ele><time>2026-05-03T10:49:55.998Z</time></trkpt><trkpt lat="42.39980033544629" lon="13.311518191150672"><ele>669.0</ele><time>2026-05-03T10:49:56.998Z</time></trkpt><trkpt lat="42.39966178985998" lon="13.311588317138986"><ele>669.0</ele><time>2026-05-03T10:49:57.998Z</time></trkpt><trkpt lat="42.399517158558766" lon="13.311662283259793"><ele>669.0</ele><time>2026-05-03T10:49:58.998Z</time></trkpt><trkpt lat="42.3993670346266" lon="13.311739573710597"><ele>669.0</ele><time>2026-05-03T10:49:59.998Z</time></trkpt><trkpt lat="42.39921361355312" lon="13.311817403864962"><ele>669.0</ele><time>2026-05-03T10:50:00.998Z</time></trkpt><trkpt lat="42.39906227500241" lon="13.311894619960562"><ele>669.0</ele><time>2026-05-03T10:50:01.998Z</time></trkpt><trkpt lat="42.398913703457595" lon="13.31197019504522"><ele>669.3333333333334</ele><time>2026-05-03T10:50:02.998Z</time></trkpt><trkpt lat="42.39876327481839" lon="13.312042549929176"><ele>669.6666666666667</ele><time>2026-05-03T10:50:03.998Z</time></trkpt><trkpt lat="42.398613537173986" lon="13.312116499842682"><ele>670.0</ele><time>2026-05-03T10:50:04.998Z</time></trkpt><trkpt lat="42.398465967445844" lon="13.312191994607508"><ele>670.6666666666667</ele><time>2026-05-03T10:50:05.998Z</time></trkpt><trkpt lat="42.39832345965151" lon="13.312266838320992"><ele>671.3333333333334</ele><time>2026-05-03T10:50:06.998Z</time></trkpt><trkpt lat="42.398181410204856" lon="13.312340528977327"><ele>672.0</ele><time>2026-05-03T10:50:07.998Z</time></trkpt><trkpt lat="42.3980432706349" lon="13.312408492847796"><ele>672.0</ele><time>2026-05-03T10:50:08.998Z</time></trkpt><trkpt lat="42.39790685205193" lon="13.3124674030536"><ele>672.0</ele><time>2026-05-03T10:50:09.998Z</time></trkpt><trkpt lat="42.39777346762938" lon="13.312509222580562"><ele>672.0</ele><time>2026-05-03T10:50:10.998Z</time></trkpt><trkpt lat="42.397637797373896" lon="13.312519218801722"><ele>672.0</ele><time>2026-05-03T10:50:11.998Z</time></trkpt><trkpt lat="42.39750096192135" lon="13.312502971750536"><ele>672.0</ele><time>2026-05-03T10:50:12.998Z</time></trkpt><trkpt lat="42.39736312662652" lon="13.312455282291548"><ele>672.0</ele><time>2026-05-03T10:50:13.998Z</time></trkpt><trkpt lat="42.397226897351096" lon="13.31238884640239"><ele>672.0</ele><time>2026-05-03T10:50:14.998Z</time></trkpt><trkpt lat="42.39709474726381" lon="13.31230136035336"><ele>672.0</ele><time>2026-05-03T10:50:15.998Z</time></trkpt><trkpt lat="42.396961581366426" lon="13.31219851617752"><ele>670.6666666666666</ele><time>2026-05-03T10:50:16.998Z</time></trkpt><trkpt lat="42.39682409915757" lon="13.312101683203963"><ele>669.3333333333333</ele><time>2026-05-03T10:50:17.998Z</time></trkpt><trkpt lat="42.396682844404324" lon="13.31201577055402"><ele>668.0</ele><time>2026-05-03T10:50:18.998Z</time></trkpt><trkpt lat="42.396534631964606" lon="13.311946269770864"><ele>668.0</ele><time>2026-05-03T10:50:19.999Z</time></trkpt><trkpt lat="42.39638147048516" lon="13.311897644309266"><ele>668.0</ele><time>2026-05-03T10:50:20.999Z</time></trkpt><trkpt lat="42.396233894064174" lon="13.311840825944932"><ele>668.0</ele><time>2026-05-03T10:50:21.999Z</time></trkpt><trkpt lat="42.39608288603736" lon="13.311855109763501"><ele>667.3333333333333</ele><time>2026-05-03T10:50:22.999Z</time></trkpt><trkpt lat="42.39593218614733" lon="13.311880688949689"><ele>666.6666666666666</ele><time>2026-05-03T10:50:23.999Z</time></trkpt><trkpt lat="42.395782470255526" lon="13.31193901030463"><ele>666.0</ele><time>2026-05-03T10:50:24.999Z</time></trkpt><trkpt lat="42.39563672328356" lon="13.31201887426919"><ele>665.3333333333334</ele><time>2026-05-03T10:50:26Z</time></trkpt><trkpt lat="42.39549834877277" lon="13.312121781343722"><ele>664.6666666666667</ele><time>2026-05-03T10:50:27Z</time></trkpt><trkpt lat="42.395368069005656" lon="13.312232473221757"><ele>664.0</ele><time>2026-05-03T10:50:28Z</time></trkpt><trkpt lat="42.39524755645654" lon="13.312352986618539"><ele>665.0</ele><time>2026-05-03T10:50:29Z</time></trkpt><trkpt lat="42.39513614772028" lon="13.31248591715926"><ele>666.0</ele><time>2026-05-03T10:50:30Z</time></trkpt><trkpt lat="42.3950353917366" lon="13.312630710332497"><ele>667.0</ele><time>2026-05-03T10:50:31Z</time></trkpt><trkpt lat="42.39494154314859" lon="13.312770808258746"><ele>668.0</ele><time>2026-05-03T10:50:32Z</time></trkpt><trkpt lat="42.394861287231585" lon="13.312911660108725"><ele>668.0</ele><time>2026-05-03T10:50:33Z</time></trkpt><trkpt lat="42.39480066559469" lon="13.313056222610195"><ele>668.0</ele><time>2026-05-03T10:50:34Z</time></trkpt><trkpt lat="42.39477336114491" lon="13.313220285923904"><ele>668.0</ele><time>2026-05-03T10:50:35Z</time></trkpt><trkpt lat="42.394750967002764" lon="13.313396624628943"><ele>668.0</ele><time>2026-05-03T10:50:36Z</time></trkpt><trkpt lat="42.39474399346954" lon="13.313585363964782"><ele>669.0</ele><time>2026-05-03T10:50:37Z</time></trkpt><trkpt lat="42.394736607330955" lon="13.313785270425058"><ele>670.0</ele><time>2026-05-03T10:50:38Z</time></trkpt><trkpt lat="42.394728231387504" lon="13.313992316378606"><ele>671.0</ele><time>2026-05-03T10:50:39Z</time></trkpt><trkpt lat="42.39471458132108" lon="13.314199686799995"><ele>671.3333333333333</ele><time>2026-05-03T10:50:40Z</time></trkpt><trkpt lat="42.39471358118851" lon="13.314411786791467"><ele>671.6666666666666</ele><time>2026-05-03T10:50:41Z</time></trkpt><trkpt lat="42.394677181482216" lon="13.314623272867033"><ele>672.0</ele><time>2026-05-03T10:50:42Z</time></trkpt><trkpt lat="42.39466626645523" lon="13.31484358023165"><ele>668.3333333333334</ele><time>2026-05-03T10:50:43Z</time></trkpt><trkpt lat="42.394637660709456" lon="13.315065761865108"><ele>664.6666666666667</ele><time>2026-05-03T10:50:44Z</time></trkpt><trkpt lat="42.394607966026015" lon="13.315290915548205"><ele>661.0</ele><time>2026-05-03T10:50:45Z</time></trkpt><trkpt lat="42.394578837898145" lon="13.315517888661702"><ele>661.3333333333334</ele><time>2026-05-03T10:50:46Z</time></trkpt><trkpt lat="42.39455115081405" lon="13.315748067358129"><ele>661.6666666666666</ele><time>2026-05-03T10:50:47Z</time></trkpt><trkpt lat="42.39452472794932" lon="13.315979666951197"><ele>662.0</ele><time>2026-05-03T10:50:48Z</time></trkpt><trkpt lat="42.39449706765269" lon="13.3162118933317"><ele>661.6666666666666</ele><time>2026-05-03T10:50:49Z</time></trkpt><trkpt lat="42.394469900802946" lon="13.31644558738209"><ele>661.3333333333334</ele><time>2026-05-03T10:50:50Z</time></trkpt><trkpt lat="42.39444234278718" lon="13.3166807019578"><ele>661.0</ele><time>2026-05-03T10:50:51Z</time></trkpt><trkpt lat="42.394416159952506" lon="13.316916760449388"><ele>661.0</ele><time>2026-05-03T10:50:52Z</time></trkpt><trkpt lat="42.39438902622824" lon="13.31715520901149"><ele>661.0</ele><time>2026-05-03T10:50:53Z</time></trkpt><trkpt lat="42.39436211716737" lon="13.317394659009738"><ele>661.0</ele><time>2026-05-03T10:50:54Z</time></trkpt><trkpt lat="42.39433278963675" lon="13.317634181405271"><ele>661.6666666666667</ele><time>2026-05-03T10:50:55Z</time></trkpt><trkpt lat="42.39430333022403" lon="13.317873418619683"><ele>662.3333333333334</ele><time>2026-05-03T10:50:55.999Z</time></trkpt><trkpt lat="42.39427294081869" lon="13.318112883601094"><ele>663.0</ele><time>2026-05-03T10:50:56.999Z</time></trkpt><trkpt lat="42.394244153939425" lon="13.318351899338003"><ele>663.0</ele><time>2026-05-03T10:50:57.999Z</time></trkpt><trkpt lat="42.3942153442764" lon="13.318591369434936"><ele>663.0</ele><time>2026-05-03T10:50:58.999Z</time></trkpt><trkpt lat="42.39418678689795" lon="13.318830522706378"><ele>663.0</ele><time>2026-05-03T10:50:59.999Z</time></trkpt><trkpt lat="42.39416003854718" lon="13.319069953405512"><ele>663.3333333333334</ele><time>2026-05-03T10:51:00.999Z</time></trkpt><trkpt lat="42.394132840467556" lon="13.319308171312874"><ele>663.6666666666667</ele><time>2026-05-03T10:51:01.999Z</time></trkpt><trkpt lat="42.39410246082308" lon="13.319546497573908"><ele>664.0</ele><time>2026-05-03T10:51:02.999Z</time></trkpt><trkpt lat="42.394073081856675" lon="13.319785495889239"><ele>664.0</ele><time>2026-05-03T10:51:03.999Z</time></trkpt><trkpt lat="42.394043878863556" lon="13.320024238127662"><ele>664.0</ele><time>2026-05-03T10:51:04.999Z</time></trkpt><trkpt lat="42.39401631233247" lon="13.320262981129797"><ele>664.0</ele><time>2026-05-03T10:51:05.999Z</time></trkpt><trkpt lat="42.39398910399187" lon="13.320498305425554"><ele>666.0</ele><time>2026-05-03T10:51:06.999Z</time></trkpt><trkpt lat="42.39396029331874" lon="13.320729538550403"><ele>668.0</ele><time>2026-05-03T10:51:07.999Z</time></trkpt><trkpt lat="42.39393122392786" lon="13.320958711962096"><ele>670.0</ele><time>2026-05-03T10:51:08.999Z</time></trkpt><trkpt lat="42.393904312325866" lon="13.321185892188593"><ele>669.6666666666667</ele><time>2026-05-03T10:51:09.999Z</time></trkpt><trkpt lat="42.39387695676889" lon="13.321408425831983"><ele>669.3333333333334</ele><time>2026-05-03T10:51:10.999Z</time></trkpt><trkpt lat="42.39385026179912" lon="13.321629756141082"><ele>669.0</ele><time>2026-05-03T10:51:11.999Z</time></trkpt><trkpt lat="42.39382203073325" lon="13.321855405148185"><ele>667.0</ele><time>2026-05-03T10:51:12.999Z</time></trkpt><trkpt lat="42.39379230730347" lon="13.32208233046493"><ele>665.0</ele><time>2026-05-03T10:51:13.999Z</time></trkpt><trkpt lat="42.39375897650149" lon="13.322313326011704"><ele>663.0</ele><time>2026-05-03T10:51:14.999Z</time></trkpt><trkpt lat="42.39372199633041" lon="13.322543891561525"><ele>663.0</ele><time>2026-05-03T10:51:15.999Z</time></trkpt><trkpt lat="42.39367990918641" lon="13.322780203366763"><ele>663.0</ele><time>2026-05-03T10:51:16.999Z</time></trkpt><trkpt lat="42.393637990893524" lon="13.323017505994034"><ele>663.0</ele><time>2026-05-03T10:51:17.999Z</time></trkpt><trkpt lat="42.39359500966002" lon="13.323262849132032"><ele>663.3333333333334</ele><time>2026-05-03T10:51:18.999Z</time></trkpt><trkpt lat="42.39355269898429" lon="13.323508643309077"><ele>663.6666666666667</ele><time>2026-05-03T10:51:19.999Z</time></trkpt><trkpt lat="42.39350906913208" lon="13.323757417693137"><ele>664.0</ele><time>2026-05-03T10:51:20.999Z</time></trkpt><trkpt lat="42.39346623710718" lon="13.324006686210868"><ele>664.0</ele><time>2026-05-03T10:51:21.999Z</time></trkpt><trkpt lat="42.393423444059046" lon="13.324256578617588"><ele>664.0</ele><time>2026-05-03T10:51:22.999Z</time></trkpt><trkpt lat="42.39338074817706" lon="13.324505826026702"><ele>664.0</ele><time>2026-05-03T10:51:23.999Z</time></trkpt><trkpt lat="42.39333830000093" lon="13.324750253796347"><ele>665.0</ele><time>2026-05-03T10:51:24.999Z</time></trkpt><trkpt lat="42.39329548519842" lon="13.324993473287986"><ele>666.0</ele><time>2026-05-03T10:51:25.999Z</time></trkpt><trkpt lat="42.393254434643424" lon="13.325233443615689"><ele>667.0</ele><time>2026-05-03T10:51:26.999Z</time></trkpt><trkpt lat="42.3932116836299" lon="13.325469561256478"><ele>668.0</ele><time>2026-05-03T10:51:27.999Z</time></trkpt><trkpt lat="42.39316940862006" lon="13.325700477843045"><ele>669.0</ele><time>2026-05-03T10:51:28.999Z</time></trkpt><trkpt lat="42.39312715305146" lon="13.32592933499362"><ele>670.0</ele><time>2026-05-03T10:51:29.999Z</time></trkpt><trkpt lat="42.393082370886624" lon="13.326152114023364"><ele>670.0</ele><time>2026-05-03T10:51:30.999Z</time></trkpt><trkpt lat="42.39304030666932" lon="13.326367916926039"><ele>670.0</ele><time>2026-05-03T10:51:31.999Z</time></trkpt><trkpt lat="42.392991058071736" lon="13.326583477699524"><ele>670.0</ele><time>2026-05-03T10:51:32.999Z</time></trkpt><trkpt lat="42.392925379138816" lon="13.326795692250135"><ele>667.3333333333334</ele><time>2026-05-03T10:51:33.999Z</time></trkpt><trkpt lat="42.39283978667813" lon="13.32700935604728"><ele>664.6666666666666</ele><time>2026-05-03T10:51:34.999Z</time></trkpt><trkpt lat="42.392750692766285" lon="13.327227485230818"><ele>662.0</ele><time>2026-05-03T10:51:35.999Z</time></trkpt><trkpt lat="42.39265693293113" lon="13.327450728677293"><ele>662.0</ele><time>2026-05-03T10:51:36.999Z</time></trkpt><trkpt lat="42.3925635118862" lon="13.327669748398627"><ele>662.0</ele><time>2026-05-03T10:51:37.999Z</time></trkpt><trkpt lat="42.39247100397453" lon="13.327888217138009"><ele>662.0</ele><time>2026-05-03T10:51:38.999Z</time></trkpt><trkpt lat="42.392379303706406" lon="13.328102827627639"><ele>662.3333333333333</ele><time>2026-05-03T10:51:39.999Z</time></trkpt><trkpt lat="42.392286327666625" lon="13.328314350139632"><ele>662.6666666666666</ele><time>2026-05-03T10:51:40.999Z</time></trkpt><trkpt lat="42.39218383464573" lon="13.328520411418468"><ele>663.0</ele><time>2026-05-03T10:51:41.999Z</time></trkpt><trkpt lat="42.39206672943948" lon="13.328713642203022"><ele>662.0</ele><time>2026-05-03T10:51:42.999Z</time></trkpt><trkpt lat="42.39193611665375" lon="13.328896949386511"><ele>661.0</ele><time>2026-05-03T10:51:43.999Z</time></trkpt><trkpt lat="42.39179862495914" lon="13.329075583697358"><ele>660.0</ele><time>2026-05-03T10:51:44.999Z</time></trkpt><trkpt lat="42.39165626385671" lon="13.329254510029426"><ele>660.0</ele><time>2026-05-03T10:51:45.999Z</time></trkpt><trkpt lat="42.39151053204266" lon="13.329431430490459"><ele>660.0</ele><time>2026-05-03T10:51:46.999Z</time></trkpt><trkpt lat="42.39135955037311" lon="13.329597315233643"><ele>660.0</ele><time>2026-05-03T10:51:47.999Z</time></trkpt><trkpt lat="42.39120548876452" lon="13.329752801463187"><ele>660.0</ele><time>2026-05-03T10:51:48.999Z</time></trkpt><trkpt lat="42.39105141895966" lon="13.329905026782656"><ele>660.0</ele><time>2026-05-03T10:51:49.999Z</time></trkpt><trkpt lat="42.39090044787579" lon="13.330056873881988"><ele>660.0</ele><time>2026-05-03T10:51:50.999Z</time></trkpt><trkpt lat="42.39075229564317" lon="13.33020770116409"><ele>660.0</ele><time>2026-05-03T10:51:51.999Z</time></trkpt><trkpt lat="42.390607849920194" lon="13.3303596675066"><ele>660.0</ele><time>2026-05-03T10:51:52.999Z</time></trkpt><trkpt lat="42.39046363004011" lon="13.330513586464864"><ele>660.0</ele><time>2026-05-03T10:51:53.999Z</time></trkpt><trkpt lat="42.390314754674094" lon="13.330668234249515"><ele>659.6666666666666</ele><time>2026-05-03T10:51:54.999Z</time></trkpt><trkpt lat="42.39016249118479" lon="13.330818425909156"><ele>659.3333333333333</ele><time>2026-05-03T10:51:55.999Z</time></trkpt><trkpt lat="42.390011790343664" lon="13.330969250091556"><ele>659.0</ele><time>2026-05-03T10:51:56.999Z</time></trkpt><trkpt lat="42.38986013353795" lon="13.331124808737345"><ele>659.0</ele><time>2026-05-03T10:51:57.999Z</time></trkpt><trkpt lat="42.38970699323222" lon="13.331282699897393"><ele>659.0</ele><time>2026-05-03T10:51:58.999Z</time></trkpt><trkpt lat="42.3895528711985" lon="13.331440505004842"><ele>659.0</ele><time>2026-05-03T10:51:59.999Z</time></trkpt><trkpt lat="42.389397460141886" lon="13.33159857351795"><ele>658.0</ele><time>2026-05-03T10:52:00.999Z</time></trkpt><trkpt lat="42.38924189303348" lon="13.331756628157866"><ele>657.0</ele><time>2026-05-03T10:52:01.999Z</time></trkpt><trkpt lat="42.38908577697665" lon="13.331916019211876"><ele>656.0</ele><time>2026-05-03T10:52:02.999Z</time></trkpt><trkpt lat="42.38892981432916" lon="13.332078982408746"><ele>656.3333333333333</ele><time>2026-05-03T10:52:03.999Z</time></trkpt><trkpt lat="42.388775081131506" lon="13.332244524886852"><ele>656.6666666666666</ele><time>2026-05-03T10:52:04.999Z</time></trkpt><trkpt lat="42.38862090975214" lon="13.332409874448127"><ele>657.0</ele><time>2026-05-03T10:52:05.999Z</time></trkpt><trkpt lat="42.38846928945007" lon="13.332578084412217"><ele>657.0</ele><time>2026-05-03T10:52:06.999Z</time></trkpt><trkpt lat="42.388317630549054" lon="13.332746584379159"><ele>657.0</ele><time>2026-05-03T10:52:07.999Z</time></trkpt><trkpt lat="42.38816762651019" lon="13.332912452142033"><ele>657.0</ele><time>2026-05-03T10:52:08.999Z</time></trkpt><trkpt lat="42.38802123730241" lon="13.333077146163733"><ele>656.0</ele><time>2026-05-03T10:52:09.999Z</time></trkpt><trkpt lat="42.38787544191126" lon="13.33324207383908"><ele>655.0</ele><time>2026-05-03T10:52:10.999Z</time></trkpt><trkpt lat="42.387729966143546" lon="13.333410769823711"><ele>654.0</ele><time>2026-05-03T10:52:11.999Z</time></trkpt><trkpt lat="42.38758655196035" lon="13.333577380845293"><ele>654.0</ele><time>2026-05-03T10:52:12.999Z</time></trkpt><trkpt lat="42.387446328207375" lon="13.3337475829801"><ele>654.0</ele><time>2026-05-03T10:52:13.999Z</time></trkpt><trkpt lat="42.38730820717257" lon="13.33391773370974"><ele>654.0</ele><time>2026-05-03T10:52:14.998Z</time></trkpt><trkpt lat="42.38717143586523" lon="13.334088487683134"><ele>652.6666666666666</ele><time>2026-05-03T10:52:15.998Z</time></trkpt><trkpt lat="42.387039645251676" lon="13.334258197184074"><ele>651.3333333333333</ele><time>2026-05-03T10:52:16.998Z</time></trkpt><trkpt lat="42.386907400870065" lon="13.334427023099364"><ele>650.0</ele><time>2026-05-03T10:52:17.998Z</time></trkpt><trkpt lat="42.38678104024845" lon="13.334599353752122"><ele>651.0</ele><time>2026-05-03T10:52:18.998Z</time></trkpt><trkpt lat="42.38666016772971" lon="13.334778407571848"><ele>652.0</ele><time>2026-05-03T10:52:19.998Z</time></trkpt><trkpt lat="42.38654343282592" lon="13.334964973802348"><ele>653.0</ele><time>2026-05-03T10:52:20.998Z</time></trkpt><trkpt lat="42.386429864381924" lon="13.335156281506638"><ele>652.3333333333333</ele><time>2026-05-03T10:52:21.998Z</time></trkpt><trkpt lat="42.386314935557664" lon="13.335350524104442"><ele>651.6666666666666</ele><time>2026-05-03T10:52:22.998Z</time></trkpt><trkpt lat="42.38620076705693" lon="13.335546945445955"><ele>651.0</ele><time>2026-05-03T10:52:23.998Z</time></trkpt><trkpt lat="42.386089648031685" lon="13.335746617198668"><ele>651.0</ele><time>2026-05-03T10:52:24.998Z</time></trkpt><trkpt lat="42.38598156000141" lon="13.335950160932702"><ele>651.0</ele><time>2026-05-03T10:52:26Z</time></trkpt><trkpt lat="42.385878411133326" lon="13.33615780527914"><ele>651.0</ele><time>2026-05-03T10:52:27Z</time></trkpt><trkpt lat="42.38578036364363" lon="13.336368170655225"><ele>651.3333333333334</ele><time>2026-05-03T10:52:28Z</time></trkpt><trkpt lat="42.38568213367946" lon="13.336578039059509"><ele>651.6666666666667</ele><time>2026-05-03T10:52:29Z</time></trkpt><trkpt lat="42.38558395778377" lon="13.336786976259031"><ele>652.0</ele><time>2026-05-03T10:52:30Z</time></trkpt><trkpt lat="42.38548742720974" lon="13.33699845240257"><ele>652.0</ele><time>2026-05-03T10:52:31Z</time></trkpt><trkpt lat="42.38539079806515" lon="13.33720971331317"><ele>652.0</ele><time>2026-05-03T10:52:32Z</time></trkpt><trkpt lat="42.385296502868286" lon="13.337415751079325"><ele>652.0</ele><time>2026-05-03T10:52:33Z</time></trkpt><trkpt lat="42.385202491695836" lon="13.337617271260092"><ele>652.0</ele><time>2026-05-03T10:52:34Z</time></trkpt><trkpt lat="42.3851082747057" lon="13.337811744907134"><ele>652.0</ele><time>2026-05-03T10:52:35Z</time></trkpt><trkpt lat="42.38501831529678" lon="13.338004714819244"><ele>652.0</ele><time>2026-05-03T10:52:36Z</time></trkpt><trkpt lat="42.38492706056985" lon="13.338198370796174"><ele>652.0</ele><time>2026-05-03T10:52:37Z</time></trkpt><trkpt lat="42.3848373712145" lon="13.33839080180292"><ele>652.0</ele><time>2026-05-03T10:52:38Z</time></trkpt><trkpt lat="42.38474885457898" lon="13.338580007864287"><ele>652.0</ele><time>2026-05-03T10:52:39Z</time></trkpt><trkpt lat="42.3846641780743" lon="13.338761732731294"><ele>650.6666666666667</ele><time>2026-05-03T10:52:40Z</time></trkpt><trkpt lat="42.38458233438404" lon="13.338940029051905"><ele>649.3333333333334</ele><time>2026-05-03T10:52:41Z</time></trkpt><trkpt lat="42.384502536007595" lon="13.33911614261699"><ele>648.0</ele><time>2026-05-03T10:52:42Z</time></trkpt><trkpt lat="42.384424201295516" lon="13.339287648015675"><ele>648.0</ele><time>2026-05-03T10:52:43Z</time></trkpt><trkpt lat="42.38434522818888" lon="13.339458372433086"><ele>648.0</ele><time>2026-05-03T10:52:44Z</time></trkpt><trkpt lat="42.38426494041986" lon="13.339630507062617"><ele>648.0</ele><time>2026-05-03T10:52:45Z</time></trkpt><trkpt lat="42.384184666442295" lon="13.339804834285273"><ele>648.3333333333334</ele><time>2026-05-03T10:52:46Z</time></trkpt><trkpt lat="42.38410129476884" lon="13.339979551695855"><ele>648.6666666666667</ele><time>2026-05-03T10:52:47Z</time></trkpt><trkpt lat="42.38401958657698" lon="13.340149221897665"><ele>649.0</ele><time>2026-05-03T10:52:48Z</time></trkpt><trkpt lat="42.38393887983617" lon="13.340319293888182"><ele>649.0</ele><time>2026-05-03T10:52:49Z</time></trkpt><trkpt lat="42.38386153668578" lon="13.340484180428572"><ele>649.0</ele><time>2026-05-03T10:52:50Z</time></trkpt><trkpt lat="42.38378682086854" lon="13.340642846806"><ele>649.0</ele><time>2026-05-03T10:52:51Z</time></trkpt><trkpt lat="42.383714399552254" lon="13.34079556562271"><ele>649.0</ele><time>2026-05-03T10:52:52Z</time></trkpt><trkpt lat="42.38364378858477" lon="13.340943985277915"><ele>649.0</ele><time>2026-05-03T10:52:53Z</time></trkpt><trkpt lat="42.38357961277581" lon="13.341082797092467"><ele>649.0</ele><time>2026-05-03T10:52:54Z</time></trkpt><trkpt lat="42.38350558193425" lon="13.341195252366548"><ele>649.0</ele><time>2026-05-03T10:52:55Z</time></trkpt><trkpt lat="42.38343678790342" lon="13.34130267172372"><ele>649.0</ele><time>2026-05-03T10:52:56Z</time></trkpt><trkpt lat="42.38336123030786" lon="13.341410171284496"><ele>649.0</ele><time>2026-05-03T10:52:57Z</time></trkpt><trkpt lat="42.38327839380296" lon="13.34152903325087"><ele>649.0</ele><time>2026-05-03T10:52:58Z</time></trkpt><trkpt lat="42.38317212151101" lon="13.341624658082003"><ele>649.0</ele><time>2026-05-03T10:52:59Z</time></trkpt><trkpt lat="42.38305499948525" lon="13.341714557581668"><ele>649.0</ele><time>2026-05-03T10:53:00Z</time></trkpt><trkpt lat="42.38293572939735" lon="13.341811260398988"><ele>649.0</ele><time>2026-05-03T10:53:01Z</time></trkpt><trkpt lat="42.382814025921874" lon="13.341920565883312"><ele>650.0</ele><time>2026-05-03T10:53:02Z</time></trkpt><trkpt lat="42.382689444550756" lon="13.342032637088028"><ele>651.0</ele><time>2026-05-03T10:53:03Z</time></trkpt><trkpt lat="42.38256243782392" lon="13.342148050850955"><ele>652.0</ele><time>2026-05-03T10:53:04Z</time></trkpt><trkpt lat="42.38243532576341" lon="13.342273104830033"><ele>652.0</ele><time>2026-05-03T10:53:05Z</time></trkpt><trkpt lat="42.38231203677531" lon="13.342414278419636"><ele>652.0</ele><time>2026-05-03T10:53:06Z</time></trkpt><trkpt lat="42.38219894103588" lon="13.34257639229143"><ele>652.0</ele><time>2026-05-03T10:53:07Z</time></trkpt><trkpt lat="42.38209354921513" lon="13.342753292920243"><ele>650.6666666666667</ele><time>2026-05-03T10:53:08Z</time></trkpt><trkpt lat="42.38198901989749" lon="13.342935456773377"><ele>649.3333333333334</ele><time>2026-05-03T10:53:09Z</time></trkpt><trkpt lat="42.38188740882344" lon="13.343109965582169"><ele>648.0</ele><time>2026-05-03T10:53:10Z</time></trkpt><trkpt lat="42.38179158384054" lon="13.343276248422168"><ele>648.0</ele><time>2026-05-03T10:53:11Z</time></trkpt><trkpt lat="42.38169316716704" lon="13.343432952358002"><ele>648.0</ele><time>2026-05-03T10:53:12Z</time></trkpt><trkpt lat="42.38157981834997" lon="13.343575296370606"><ele>648.0</ele><time>2026-05-03T10:53:12.999Z</time></trkpt><trkpt lat="42.38144863011473" lon="13.343697982675698"><ele>648.3333333333334</ele><time>2026-05-03T10:53:13.999Z</time></trkpt><trkpt lat="42.38131413239792" lon="13.343811742589782"><ele>648.6666666666667</ele><time>2026-05-03T10:53:14.999Z</time></trkpt><trkpt lat="42.38117699784521" lon="13.34392296224345"><ele>649.0</ele><time>2026-05-03T10:53:15.999Z</time></trkpt><trkpt lat="42.38104007383002" lon="13.34403564466386"><ele>649.0</ele><time>2026-05-03T10:53:16.999Z</time></trkpt><trkpt lat="42.38090731552475" lon="13.344158377832375"><ele>649.0</ele><time>2026-05-03T10:53:17.999Z</time></trkpt><trkpt lat="42.38077980010334" lon="13.344293811160032"><ele>649.0</ele><time>2026-05-03T10:53:18.999Z</time></trkpt><trkpt lat="42.380654440915876" lon="13.344430652981806"><ele>649.0</ele><time>2026-05-03T10:53:19.999Z</time></trkpt><trkpt lat="42.380527356468875" lon="13.344568712757278"><ele>649.0</ele><time>2026-05-03T10:53:20.999Z</time></trkpt><trkpt lat="42.38040060353397" lon="13.344707747582708"><ele>649.0</ele><time>2026-05-03T10:53:21.999Z</time></trkpt><trkpt lat="42.38027524923671" lon="13.344849908431131"><ele>647.6666666666667</ele><time>2026-05-03T10:53:22.999Z</time></trkpt><trkpt lat="42.38015000864969" lon="13.344994394668772"><ele>646.3333333333334</ele><time>2026-05-03T10:53:23.999Z</time></trkpt><trkpt lat="42.38002322279295" lon="13.345137521558124"><ele>645.0</ele><time>2026-05-03T10:53:24.999Z</time></trkpt><trkpt lat="42.379893670903854" lon="13.345281074536318"><ele>645.0</ele><time>2026-05-03T10:53:25.999Z</time></trkpt><trkpt lat="42.379764724143676" lon="13.345425067463866"><ele>645.0</ele><time>2026-05-03T10:53:26.999Z</time></trkpt><trkpt lat="42.37963763125428" lon="13.34556899293658"><ele>645.0</ele><time>2026-05-03T10:53:27.999Z</time></trkpt><trkpt lat="42.379513247271476" lon="13.34570418020976"><ele>645.6666666666666</ele><time>2026-05-03T10:53:28.999Z</time></trkpt><trkpt lat="42.379390431694034" lon="13.345831035800497"><ele>646.3333333333333</ele><time>2026-05-03T10:53:29.999Z</time></trkpt><trkpt lat="42.37926199845194" lon="13.34594955793619"><ele>647.0</ele><time>2026-05-03T10:53:30.999Z</time></trkpt><trkpt lat="42.37912448061216" lon="13.34605150184066"><ele>647.0</ele><time>2026-05-03T10:53:31.999Z</time></trkpt><trkpt lat="42.37897744692496" lon="13.34613724314823"><ele>647.0</ele><time>2026-05-03T10:53:32.999Z</time></trkpt><trkpt lat="42.37882142947425" lon="13.346195329567058"><ele>647.0</ele><time>2026-05-03T10:53:33.999Z</time></trkpt><trkpt lat="42.37866089457867" lon="13.346235550994152"><ele>646.0</ele><time>2026-05-03T10:53:34.999Z</time></trkpt><trkpt lat="42.37849729749688" lon="13.34625841987242"><ele>645.0</ele><time>2026-05-03T10:53:35.999Z</time></trkpt><trkpt lat="42.37833248902979" lon="13.346268527854447"><ele>644.0</ele><time>2026-05-03T10:53:36.999Z</time></trkpt><trkpt lat="42.37816939854436" lon="13.346284430342868"><ele>643.6666666666666</ele><time>2026-05-03T10:53:37.999Z</time></trkpt><trkpt lat="42.37800640413129" lon="13.346302776600515"><ele>643.3333333333334</ele><time>2026-05-03T10:53:38.999Z</time></trkpt><trkpt lat="42.377850176636656" lon="13.346329126115783"><ele>643.0</ele><time>2026-05-03T10:53:39.999Z</time></trkpt><trkpt lat="42.377692611168605" lon="13.346367695028327"><ele>644.3333333333334</ele><time>2026-05-03T10:53:40.999Z</time></trkpt><trkpt lat="42.377536266072234" lon="13.346424910600064"><ele>645.6666666666666</ele><time>2026-05-03T10:53:41.999Z</time></trkpt><trkpt lat="42.37738171604217" lon="13.34650050007235"><ele>647.0</ele><time>2026-05-03T10:53:42.999Z</time></trkpt><trkpt lat="42.37722743198523" lon="13.34659249334124"><ele>645.6666666666666</ele><time>2026-05-03T10:53:43.999Z</time></trkpt><trkpt lat="42.37707572907898" lon="13.346696868671183"><ele>644.3333333333334</ele><time>2026-05-03T10:53:44.999Z</time></trkpt><trkpt lat="42.3769242769285" lon="13.346805162626344"><ele>643.0</ele><time>2026-05-03T10:53:45.999Z</time></trkpt><trkpt lat="42.37677375072883" lon="13.346916984948326"><ele>643.0</ele><time>2026-05-03T10:53:46.999Z</time></trkpt><trkpt lat="42.37662115623198" lon="13.34703013727527"><ele>643.0</ele><time>2026-05-03T10:53:47.999Z</time></trkpt><trkpt lat="42.37646903870814" lon="13.347140663967801"><ele>643.0</ele><time>2026-05-03T10:53:48.999Z</time></trkpt><trkpt lat="42.37631938586834" lon="13.347249193739437"><ele>643.3333333333334</ele><time>2026-05-03T10:53:49.999Z</time></trkpt><trkpt lat="42.37617163808443" lon="13.347355103093234"><ele>643.6666666666666</ele><time>2026-05-03T10:53:50.999Z</time></trkpt><trkpt lat="42.3760262920949" lon="13.347460520448609"><ele>644.0</ele><time>2026-05-03T10:53:51.999Z</time></trkpt><trkpt lat="42.37588059051801" lon="13.347563863799726"><ele>644.0</ele><time>2026-05-03T10:53:52.999Z</time></trkpt><trkpt lat="42.37573508957492" lon="13.34767067575196"><ele>644.0</ele><time>2026-05-03T10:53:53.999Z</time></trkpt><trkpt lat="42.375590988939635" lon="13.347778246915064"><ele>644.0</ele><time>2026-05-03T10:53:54.999Z</time></trkpt><trkpt lat="42.37544972324819" lon="13.34788727103403"><ele>643.6666666666666</ele><time>2026-05-03T10:53:55.999Z</time></trkpt><trkpt lat="42.37531086773535" lon="13.348001144402346"><ele>643.3333333333334</ele><time>2026-05-03T10:53:56.999Z</time></trkpt><trkpt lat="42.37517724860986" lon="13.348115803261424"><ele>643.0</ele><time>2026-05-03T10:53:57.999Z</time></trkpt><trkpt lat="42.375048917552085" lon="13.34823093108514"><ele>643.0</ele><time>2026-05-03T10:53:58.999Z</time></trkpt><trkpt lat="42.37492635825615" lon="13.34834553390906"><ele>643.0</ele><time>2026-05-03T10:53:59.999Z</time></trkpt><trkpt lat="42.37480765495151" lon="13.34846198847112"><ele>643.0</ele><time>2026-05-03T10:54:00.999Z</time></trkpt><trkpt lat="42.37469486920224" lon="13.348577321681407"><ele>643.0</ele><time>2026-05-03T10:54:01.999Z</time></trkpt><trkpt lat="42.37458560071581" lon="13.348689655473576"><ele>642.5</ele><time>2026-05-03T10:54:02.999Z</time></trkpt><trkpt lat="42.37447846636676" lon="13.348798839333792"><ele>642.0</ele><time>2026-05-03T10:54:03.999Z</time></trkpt><trkpt lat="42.37437601751217" lon="13.348905279737407"><ele>641.5</ele><time>2026-05-03T10:54:04.999Z</time></trkpt><trkpt lat="42.37428007148226" lon="13.349010238957925"><ele>641.0</ele><time>2026-05-03T10:54:05.999Z</time></trkpt><trkpt lat="42.37418630280407" lon="13.349115549077707"><ele>642.0</ele><time>2026-05-03T10:54:06.999Z</time></trkpt><trkpt lat="42.37409442391892" lon="13.349222959124829"><ele>643.0</ele><time>2026-05-03T10:54:07.999Z</time></trkpt><trkpt lat="42.37400452397518" lon="13.349330640594003"><ele>644.0</ele><time>2026-05-03T10:54:08.999Z</time></trkpt><trkpt lat="42.373910729951206" lon="13.34941657380874"><ele>645.0</ele><time>2026-05-03T10:54:09.999Z</time></trkpt><trkpt lat="42.37383227541409" lon="13.349512853376863"><ele>645.1666666666666</ele><time>2026-05-03T10:54:10.999Z</time></trkpt><trkpt lat="42.373759112270946" lon="13.349602639380597"><ele>645.3333333333334</ele><time>2026-05-03T10:54:11.999Z</time></trkpt><trkpt lat="42.37370342217389" lon="13.34969991253229"><ele>645.5</ele><time>2026-05-03T10:54:12.999Z</time></trkpt><trkpt lat="42.37364510730201" lon="13.349766063638866"><ele>645.6666666666667</ele><time>2026-05-03T10:54:13.999Z</time></trkpt><trkpt lat="42.37359466698627" lon="13.349820971999744"><ele>645.8333333333334</ele><time>2026-05-03T10:54:14.999Z</time></trkpt><trkpt lat="42.37353153773924" lon="13.34988369283789"><ele>646.0</ele><time>2026-05-03T10:54:16.999Z</time></trkpt><trkpt lat="42.3734746029114" lon="13.349935604435261"><ele>646.0</ele><time>2026-05-03T10:54:20.999Z</time></trkpt><trkpt lat="42.37341472690198" lon="13.349974456816254"><ele>646.0</ele><time>2026-05-03T10:54:24.999Z</time></trkpt><trkpt lat="42.37330825691462" lon="13.34997456036927"><ele>646.0</ele><time>2026-05-03T10:54:26.999Z</time></trkpt><trkpt lat="42.37325159429" lon="13.34991705096209"><ele>646.0</ele><time>2026-05-03T10:54:27.999Z</time></trkpt><trkpt lat="42.37320136755705" lon="13.349814769120542"><ele>646.0</ele><time>2026-05-03T10:54:28.999Z</time></trkpt><trkpt lat="42.373151818330435" lon="13.34970803841899"><ele>646.0</ele><time>2026-05-03T10:54:29.998Z</time></trkpt><trkpt lat="42.37308572016888" lon="13.349593178905254"><ele>646.0</ele><time>2026-05-03T10:54:30.998Z</time></trkpt><trkpt lat="42.37301403134848" lon="13.349474729085383"><ele>646.0</ele><time>2026-05-03T10:54:32Z</time></trkpt><trkpt lat="42.37293521973948" lon="13.349350943226574"><ele>646.0</ele><time>2026-05-03T10:54:33Z</time></trkpt><trkpt lat="42.37285297113899" lon="13.349222179055564"><ele>646.0</ele><time>2026-05-03T10:54:34Z</time></trkpt><trkpt lat="42.37277173763214" lon="13.349090065500986"><ele>646.0</ele><time>2026-05-03T10:54:35Z</time></trkpt><trkpt lat="42.37269161628501" lon="13.34895973759649"><ele>646.0</ele><time>2026-05-03T10:54:36Z</time></trkpt><trkpt lat="42.37261208255614" lon="13.348828659578388"><ele>646.0</ele><time>2026-05-03T10:54:37Z</time></trkpt><trkpt lat="42.37253726239783" lon="13.348699572155828"><ele>646.0</ele><time>2026-05-03T10:54:38Z</time></trkpt><trkpt lat="42.37246409416829" lon="13.348582318789203"><ele>646.0</ele><time>2026-05-03T10:54:39Z</time></trkpt><trkpt lat="42.372389792924515" lon="13.348474073603906"><ele>646.0</ele><time>2026-05-03T10:54:40Z</time></trkpt><trkpt lat="42.37231040344134" lon="13.348369044915222"><ele>646.0</ele><time>2026-05-03T10:54:41Z</time></trkpt><trkpt lat="42.372231904551256" lon="13.348274237374294"><ele>646.0</ele><time>2026-05-03T10:54:42Z</time></trkpt><trkpt lat="42.37215527423486" lon="13.348183700726208"><ele>646.0</ele><time>2026-05-03T10:54:43Z</time></trkpt><trkpt lat="42.372080991920996" lon="13.348094621879225"><ele>645.4</ele><time>2026-05-03T10:54:44Z</time></trkpt><trkpt lat="42.3720048493657" lon="13.348002929883142"><ele>644.8</ele><time>2026-05-03T10:54:45Z</time></trkpt><trkpt lat="42.3719290512152" lon="13.347907890858076"><ele>644.1999999999999</ele><time>2026-05-03T10:54:46Z</time></trkpt><trkpt lat="42.371851959156515" lon="13.34780725316999"><ele>643.5999999999999</ele><time>2026-05-03T10:54:47Z</time></trkpt><trkpt lat="42.37177033573231" lon="13.34770352519776"><ele>643.0</ele><time>2026-05-03T10:54:48Z</time></trkpt><trkpt lat="42.37168768684518" lon="13.34758649442558"><ele>643.0</ele><time>2026-05-03T10:54:49Z</time></trkpt><trkpt lat="42.37159435733264" lon="13.347475631802483"><ele>643.0</ele><time>2026-05-03T10:54:50Z</time></trkpt><trkpt lat="42.371491065918306" lon="13.34737399918952"><ele>643.0</ele><time>2026-05-03T10:54:51Z</time></trkpt><trkpt lat="42.37139360308493" lon="13.347263452449205"><ele>643.0</ele><time>2026-05-03T10:54:52Z</time></trkpt><trkpt lat="42.37129935693764" lon="13.347166206788367"><ele>642.5</ele><time>2026-05-03T10:54:53Z</time></trkpt><trkpt lat="42.37120774699345" lon="13.347075727411811"><ele>642.0</ele><time>2026-05-03T10:54:54Z</time></trkpt><trkpt lat="42.37111695954091" lon="13.346986043342971"><ele>641.5</ele><time>2026-05-03T10:54:55Z</time></trkpt><trkpt lat="42.3710260880827" lon="13.346898853378425"><ele>641.0</ele><time>2026-05-03T10:54:56Z</time></trkpt><trkpt lat="42.37093060358206" lon="13.346815546550197"><ele>641.0</ele><time>2026-05-03T10:54:57Z</time></trkpt><trkpt lat="42.37083322409371" lon="13.346734325713568"><ele>641.0</ele><time>2026-05-03T10:54:58Z</time></trkpt><trkpt lat="42.37073713071989" lon="13.346651773488574"><ele>641.0</ele><time>2026-05-03T10:54:59Z</time></trkpt><trkpt lat="42.37063901455885" lon="13.346572643160226"><ele>641.0</ele><time>2026-05-03T10:55:00Z</time></trkpt><trkpt lat="42.3705388089603" lon="13.346500269805246"><ele>641.0</ele><time>2026-05-03T10:55:01Z</time></trkpt><trkpt lat="42.37043378804279" lon="13.346446017785121"><ele>641.0</ele><time>2026-05-03T10:55:02Z</time></trkpt><trkpt lat="42.37032535634129" lon="13.346408766531454"><ele>641.0</ele><time>2026-05-03T10:55:03Z</time></trkpt><trkpt lat="42.37021438051845" lon="13.346394991485012"><ele>641.0</ele><time>2026-05-03T10:55:04Z</time></trkpt><trkpt lat="42.37010149063339" lon="13.34639620863806"><ele>641.0</ele><time>2026-05-03T10:55:05Z</time></trkpt><trkpt lat="42.36998368162743" lon="13.346405720940833"><ele>641.0</ele><time>2026-05-03T10:55:06Z</time></trkpt><trkpt lat="42.36986233117795" lon="13.346418210331636"><ele>641.0</ele><time>2026-05-03T10:55:07Z</time></trkpt><trkpt lat="42.369739648067004" lon="13.346430836208823"><ele>641.0</ele><time>2026-05-03T10:55:08Z</time></trkpt><trkpt lat="42.36961803164279" lon="13.346445330189077"><ele>641.0</ele><time>2026-05-03T10:55:09Z</time></trkpt><trkpt lat="42.3694959522835" lon="13.346437159153759"><ele>641.1999999999999</ele><time>2026-05-03T10:55:10Z</time></trkpt><trkpt lat="42.36937885598905" lon="13.346450304395802"><ele>641.4</ele><time>2026-05-03T10:55:11Z</time></trkpt><trkpt lat="42.36926472281064" lon="13.346462290029297"><ele>641.6</ele><time>2026-05-03T10:55:12Z</time></trkpt><trkpt lat="42.369155216220015" lon="13.346472111054506"><ele>641.8</ele><time>2026-05-03T10:55:13Z</time></trkpt><trkpt lat="42.369049544049176" lon="13.346483264372546"><ele>642.0</ele><time>2026-05-03T10:55:14Z</time></trkpt><trkpt lat="42.36895183295055" lon="13.346471776101998"><ele>642.2</ele><time>2026-05-03T10:55:15Z</time></trkpt><trkpt lat="42.36885377636717" lon="13.346438107833617"><ele>642.4000000000001</ele><time>2026-05-03T10:55:16Z</time></trkpt><trkpt lat="42.368756281769684" lon="13.34639285489102"><ele>642.5999999999999</ele><time>2026-05-03T10:55:17Z</time></trkpt><trkpt lat="42.3686786043738" lon="13.346305015127838"><ele>642.8</ele><time>2026-05-03T10:55:18Z</time></trkpt><trkpt lat="42.36861502742571" lon="13.34621171036872"><ele>643.0</ele><time>2026-05-03T10:55:19Z</time></trkpt><trkpt lat="42.3685652529402" lon="13.346113685894668"><ele>642.0</ele><time>2026-05-03T10:55:20Z</time></trkpt><trkpt lat="42.36852339933338" lon="13.34600803960007"><ele>641.0</ele><time>2026-05-03T10:55:21Z</time></trkpt><trkpt lat="42.368477905656135" lon="13.345896206251085"><ele>640.0</ele><time>2026-05-03T10:55:22Z</time></trkpt><trkpt lat="42.368431187243466" lon="13.345777925747838"><ele>639.0</ele><time>2026-05-03T10:55:22.999Z</time></trkpt><trkpt lat="42.36838241261867" lon="13.345656349386186"><ele>638.0</ele><time>2026-05-03T10:55:23.999Z</time></trkpt><trkpt lat="42.36833593596257" lon="13.34553934288703"><ele>638.0</ele><time>2026-05-03T10:55:24.999Z</time></trkpt><trkpt lat="42.36829096474538" lon="13.345434268376003"><ele>638.0</ele><time>2026-05-03T10:55:25.999Z</time></trkpt><trkpt lat="42.3682448811711" lon="13.345342859725472"><ele>638.0</ele><time>2026-05-03T10:55:26.999Z</time></trkpt><trkpt lat="42.36820479984311" lon="13.34525030024686"><ele>638.0</ele><time>2026-05-03T10:55:27.999Z</time></trkpt><trkpt lat="42.36814216054862" lon="13.345181596210024"><ele>638.0</ele><time>2026-05-03T10:55:28.999Z</time></trkpt><trkpt lat="42.36806197558862" lon="13.345151335266637"><ele>638.0</ele><time>2026-05-03T10:55:29.999Z</time></trkpt><trkpt lat="42.36797626763999" lon="13.345158878791992"><ele>639.2</ele><time>2026-05-03T10:55:30.999Z</time></trkpt><trkpt lat="42.36789322258201" lon="13.345214664578195"><ele>640.4</ele><time>2026-05-03T10:55:31.999Z</time></trkpt><trkpt lat="42.367818654398846" lon="13.34529405637848"><ele>641.6</ele><time>2026-05-03T10:55:32.999Z</time></trkpt><trkpt lat="42.36775440507242" lon="13.345379305195852"><ele>642.8000000000001</ele><time>2026-05-03T10:55:33.999Z</time></trkpt><trkpt lat="42.36768813355607" lon="13.345478474310722"><ele>644.0</ele><time>2026-05-03T10:55:34.999Z</time></trkpt><trkpt lat="42.367605554276125" lon="13.3455633645889"><ele>644.0</ele><time>2026-05-03T10:55:35.999Z</time></trkpt><trkpt lat="42.36751498092251" lon="13.345645523875897"><ele>644.0</ele><time>2026-05-03T10:55:36.999Z</time></trkpt><trkpt lat="42.36741602700052" lon="13.345726085860992"><ele>644.0</ele><time>2026-05-03T10:55:37.999Z</time></trkpt><trkpt lat="42.36730719763049" lon="13.345802587131331"><ele>644.0</ele><time>2026-05-03T10:55:38.999Z</time></trkpt><trkpt lat="42.367188755144134" lon="13.345846013743133"><ele>645.0</ele><time>2026-05-03T10:55:39.999Z</time></trkpt><trkpt lat="42.36708083302254" lon="13.3458971138017"><ele>646.0</ele><time>2026-05-03T10:55:40.999Z</time></trkpt><trkpt lat="42.366971821168825" lon="13.345933515494975"><ele>647.0</ele><time>2026-05-03T10:55:41.999Z</time></trkpt><trkpt lat="42.366859306641295" lon="13.345945844240335"><ele>648.0</ele><time>2026-05-03T10:55:42.999Z</time></trkpt><trkpt lat="42.36673656423" lon="13.34594924256163"><ele>648.0</ele><time>2026-05-03T10:55:43.999Z</time></trkpt><trkpt lat="42.36661603433937" lon="13.345938688171115"><ele>648.0</ele><time>2026-05-03T10:55:44.999Z</time></trkpt><trkpt lat="42.36650161030585" lon="13.34592257082571"><ele>648.0</ele><time>2026-05-03T10:55:45.999Z</time></trkpt><trkpt lat="42.36638538908094" lon="13.345908803775123"><ele>648.0</ele><time>2026-05-03T10:55:46.999Z</time></trkpt><trkpt lat="42.36626919156664" lon="13.345895597032344"><ele>647.5999999999999</ele><time>2026-05-03T10:55:47.999Z</time></trkpt><trkpt lat="42.36615428535025" lon="13.345887176227455"><ele>647.1999999999999</ele><time>2026-05-03T10:55:48.999Z</time></trkpt><trkpt lat="42.366042330271" lon="13.345878971709775"><ele>646.8</ele><time>2026-05-03T10:55:49.999Z</time></trkpt><trkpt lat="42.365934064847934" lon="13.345889253209014"><ele>646.4</ele><time>2026-05-03T10:55:50.999Z</time></trkpt><trkpt lat="42.36583098859597" lon="13.345870004795916"><ele>646.0</ele><time>2026-05-03T10:55:51.999Z</time></trkpt><trkpt lat="42.365732204448975" lon="13.345851344226901"><ele>646.0</ele><time>2026-05-03T10:55:52.999Z</time></trkpt><trkpt lat="42.36564327826986" lon="13.345832844852715"><ele>646.0</ele><time>2026-05-03T10:55:53.999Z</time></trkpt><trkpt lat="42.36556366504748" lon="13.3458146719103"><ele>646.0</ele><time>2026-05-03T10:55:54.999Z</time></trkpt><trkpt lat="42.36549792939566" lon="13.345798959863329"><ele>646.0</ele><time>2026-05-03T10:55:55.999Z</time></trkpt><trkpt lat="42.365419887592495" lon="13.345780495725894"><ele>646.0</ele><time>2026-05-03T10:55:58.999Z</time></trkpt><trkpt lat="42.36535277318135" lon="13.345776342834807"><ele>646.0</ele><time>2026-05-03T10:56:00.999Z</time></trkpt><trkpt lat="42.36526536904627" lon="13.34588552466647"><ele>645.5999999999999</ele><time>2026-05-03T10:56:02.999Z</time></trkpt><trkpt lat="42.36522870303865" lon="13.345989748392352"><ele>645.2</ele><time>2026-05-03T10:56:03.999Z</time></trkpt><trkpt lat="42.365185385494925" lon="13.346101088164042"><ele>644.8</ele><time>2026-05-03T10:56:04.999Z</time></trkpt><trkpt lat="42.36513406380674" lon="13.34623663842469"><ele>644.4000000000001</ele><time>2026-05-03T10:56:05.999Z</time></trkpt><trkpt lat="42.365079416682796" lon="13.346377996072428"><ele>644.0</ele><time>2026-05-03T10:56:06.999Z</time></trkpt><trkpt lat="42.36502001686723" lon="13.346525075644095"><ele>644.0</ele><time>2026-05-03T10:56:07.999Z</time></trkpt><trkpt lat="42.36495905863025" lon="13.34666711213642"><ele>644.0</ele><time>2026-05-03T10:56:08.999Z</time></trkpt><trkpt lat="42.36489548183529" lon="13.346805635038047"><ele>644.0</ele><time>2026-05-03T10:56:09.999Z</time></trkpt><trkpt lat="42.36483074633306" lon="13.346941104286696"><ele>644.0</ele><time>2026-05-03T10:56:10.999Z</time></trkpt><trkpt lat="42.36476271429909" lon="13.347075453206529"><ele>644.5</ele><time>2026-05-03T10:56:11.999Z</time></trkpt><trkpt lat="42.364690946750876" lon="13.347202832402663"><ele>645.0</ele><time>2026-05-03T10:56:12.999Z</time></trkpt><trkpt lat="42.36461677195191" lon="13.347329468696127"><ele>645.5</ele><time>2026-05-03T10:56:13.999Z</time></trkpt><trkpt lat="42.364542309662056" lon="13.34745921390287"><ele>646.0</ele><time>2026-05-03T10:56:14.999Z</time></trkpt><trkpt lat="42.364465736821856" lon="13.347590289632782"><ele>646.0</ele><time>2026-05-03T10:56:15.999Z</time></trkpt><trkpt lat="42.36438493186004" lon="13.347728925618533"><ele>646.0</ele><time>2026-05-03T10:56:16.999Z</time></trkpt><trkpt lat="42.364302906459955" lon="13.347879571531493"><ele>646.0</ele><time>2026-05-03T10:56:17.999Z</time></trkpt><trkpt lat="42.364224360844815" lon="13.348041503326504"><ele>646.0</ele><time>2026-05-03T10:56:18.999Z</time></trkpt><trkpt lat="42.36415687229938" lon="13.348215927459252"><ele>644.6666666666667</ele><time>2026-05-03T10:56:19.999Z</time></trkpt><trkpt lat="42.36410630121817" lon="13.348411395984824"><ele>643.3333333333334</ele><time>2026-05-03T10:56:20.999Z</time></trkpt><trkpt lat="42.364053577204345" lon="13.348607953513945"><ele>642.0</ele><time>2026-05-03T10:56:21.999Z</time></trkpt><trkpt lat="42.36399383788755" lon="13.348795649187569"><ele>642.0</ele><time>2026-05-03T10:56:22.999Z</time></trkpt><trkpt lat="42.363929680582295" lon="13.348977470432995"><ele>642.0</ele><time>2026-05-03T10:56:23.999Z</time></trkpt><trkpt lat="42.36386244134506" lon="13.349158354783498"><ele>642.0</ele><time>2026-05-03T10:56:24.999Z</time></trkpt><trkpt lat="42.36378754386958" lon="13.349340989570951"><ele>642.0</ele><time>2026-05-03T10:56:25.999Z</time></trkpt><trkpt lat="42.36370589360627" lon="13.349518020486418"><ele>642.0</ele><time>2026-05-03T10:56:26.999Z</time></trkpt><trkpt lat="42.36361674101241" lon="13.349687653702283"><ele>642.0</ele><time>2026-05-03T10:56:27.999Z</time></trkpt><trkpt lat="42.36352378762779" lon="13.349848935162086"><ele>640.25</ele><time>2026-05-03T10:56:28.999Z</time></trkpt><trkpt lat="42.36342125781046" lon="13.350003882467224"><ele>638.5</ele><time>2026-05-03T10:56:29.999Z</time></trkpt><trkpt lat="42.363321366963746" lon="13.350147376663006"><ele>636.75</ele><time>2026-05-03T10:56:30.999Z</time></trkpt><trkpt lat="42.363215270481334" lon="13.350274866275434"><ele>635.0</ele><time>2026-05-03T10:56:31.999Z</time></trkpt><trkpt lat="42.36310369861044" lon="13.350387339005493"><ele>635.25</ele><time>2026-05-03T10:56:32.999Z</time></trkpt><trkpt lat="42.36298338612131" lon="13.350483248321241"><ele>635.5</ele><time>2026-05-03T10:56:33.999Z</time></trkpt><trkpt lat="42.3628588023854" lon="13.350568827989756"><ele>635.75</ele><time>2026-05-03T10:56:34.999Z</time></trkpt><trkpt lat="42.362736402431324" lon="13.350652124184542"><ele>636.0</ele><time>2026-05-03T10:56:35.999Z</time></trkpt><trkpt lat="42.36260729292733" lon="13.35071490801888"><ele>636.0</ele><time>2026-05-03T10:56:36.999Z</time></trkpt><trkpt lat="42.362483707232265" lon="13.350811765491354"><ele>636.0</ele><time>2026-05-03T10:56:38Z</time></trkpt><trkpt lat="42.36235337436105" lon="13.350892162218809"><ele>636.0</ele><time>2026-05-03T10:56:39Z</time></trkpt><trkpt lat="42.362223346516735" lon="13.350969281528682"><ele>636.0</ele><time>2026-05-03T10:56:40Z</time></trkpt><trkpt lat="42.36209600237115" lon="13.351041481671986"><ele>635.5</ele><time>2026-05-03T10:56:41Z</time></trkpt><trkpt lat="42.36197194097763" lon="13.3511086849759"><ele>635.0</ele><time>2026-05-03T10:56:42Z</time></trkpt><trkpt lat="42.361843950933" lon="13.351176658430848"><ele>634.5</ele><time>2026-05-03T10:56:43Z</time></trkpt><trkpt lat="42.36170950513466" lon="13.351239679731759"><ele>634.0</ele><time>2026-05-03T10:56:44Z</time></trkpt><trkpt lat="42.36157137581705" lon="13.351300748419119"><ele>634.0</ele><time>2026-05-03T10:56:45Z</time></trkpt><trkpt lat="42.36143181672064" lon="13.351361373487903"><ele>634.0</ele><time>2026-05-03T10:56:46Z</time></trkpt><trkpt lat="42.361289826917144" lon="13.351419779517826"><ele>634.0</ele><time>2026-05-03T10:56:47Z</time></trkpt><trkpt lat="42.361148801363235" lon="13.351471390692403"><ele>634.0</ele><time>2026-05-03T10:56:48Z</time></trkpt><trkpt lat="42.361015687429926" lon="13.351516541031012"><ele>633.0</ele><time>2026-05-03T10:56:49Z</time></trkpt><trkpt lat="42.36088886241517" lon="13.351561930722962"><ele>632.0</ele><time>2026-05-03T10:56:50Z</time></trkpt><trkpt lat="42.36076588788946" lon="13.351610032025743"><ele>631.0</ele><time>2026-05-03T10:56:51Z</time></trkpt><trkpt lat="42.36064665278552" lon="13.351657437118831"><ele>630.0</ele><time>2026-05-03T10:56:52Z</time></trkpt><trkpt lat="42.36051993190423" lon="13.351702715370418"><ele>629.75</ele><time>2026-05-03T10:56:53Z</time></trkpt><trkpt lat="42.36038986314853" lon="13.35174735285715"><ele>629.5</ele><time>2026-05-03T10:56:54Z</time></trkpt><trkpt lat="42.3602588847552" lon="13.35179468133283"><ele>629.25</ele><time>2026-05-03T10:56:55Z</time></trkpt><trkpt lat="42.360128738667704" lon="13.351843440104627"><ele>629.0</ele><time>2026-05-03T10:56:56Z</time></trkpt><trkpt lat="42.36000041909115" lon="13.351891073811423"><ele>629.0</ele><time>2026-05-03T10:56:57Z</time></trkpt><trkpt lat="42.35987331603912" lon="13.351935611062519"><ele>629.0</ele><time>2026-05-03T10:56:58Z</time></trkpt><trkpt lat="42.359750064578364" lon="13.351977784150836"><ele>629.0</ele><time>2026-05-03T10:56:59Z</time></trkpt><trkpt lat="42.35963140334157" lon="13.352020901069231"><ele>629.0</ele><time>2026-05-03T10:57:00Z</time></trkpt><trkpt lat="42.359523517025245" lon="13.35206551910451"><ele>629.2</ele><time>2026-05-03T10:57:01Z</time></trkpt><trkpt lat="42.359425126194104" lon="13.352084538223249"><ele>629.4</ele><time>2026-05-03T10:57:02Z</time></trkpt><trkpt lat="42.35935160976733" lon="13.352142049831997"><ele>629.6</ele><time>2026-05-03T10:57:03Z</time></trkpt><trkpt lat="42.359286470337736" lon="13.352172006043038"><ele>629.8</ele><time>2026-05-03T10:57:04Z</time></trkpt><trkpt lat="42.35919238370403" lon="13.352203411132054"><ele>630.0</ele><time>2026-05-03T10:57:06Z</time></trkpt><trkpt lat="42.35908691893074" lon="13.352197201905016"><ele>630.0</ele><time>2026-05-03T10:57:08Z</time></trkpt><trkpt lat="42.35901055995599" lon="13.352170073549525"><ele>630.0</ele><time>2026-05-03T10:57:09Z</time></trkpt><trkpt lat="42.35892850799511" lon="13.352146582411242"><ele>630.0</ele><time>2026-05-03T10:57:10Z</time></trkpt><trkpt lat="42.35884348899123" lon="13.352132172456823"><ele>630.0</ele><time>2026-05-03T10:57:11Z</time></trkpt><trkpt lat="42.35876935014499" lon="13.352211337869297"><ele>630.0</ele><time>2026-05-03T10:57:12Z</time></trkpt><trkpt lat="42.358713812348284" lon="13.352299874397001"><ele>630.0</ele><time>2026-05-03T10:57:13Z</time></trkpt><trkpt lat="42.35869002621485" lon="13.352409194683792"><ele>630.0</ele><time>2026-05-03T10:57:14Z</time></trkpt><trkpt lat="42.35869901952" lon="13.35252231252072"><ele>630.0</ele><time>2026-05-03T10:57:15Z</time></trkpt><trkpt lat="42.35874012127213" lon="13.352633449355151"><ele>630.0</ele><time>2026-05-03T10:57:16Z</time></trkpt><trkpt lat="42.35880173994132" lon="13.352752612662787"><ele>630.0</ele><time>2026-05-03T10:57:17Z</time></trkpt><trkpt lat="42.35886527020547" lon="13.352884260071754"><ele>630.0</ele><time>2026-05-03T10:57:18Z</time></trkpt><trkpt lat="42.35892340408084" lon="13.353042439360276"><ele>630.0</ele><time>2026-05-03T10:57:19Z</time></trkpt><trkpt lat="42.358976583164896" lon="13.353221350440714"><ele>630.0</ele><time>2026-05-03T10:57:20Z</time></trkpt><trkpt lat="42.35902622703201" lon="13.35341140106113"><ele>630.0</ele><time>2026-05-03T10:57:21Z</time></trkpt><trkpt lat="42.359078212036614" lon="13.353597018775302"><ele>630.0</ele><time>2026-05-03T10:57:22Z</time></trkpt><trkpt lat="42.35913018297651" lon="13.353777740900629"><ele>629.5</ele><time>2026-05-03T10:57:23Z</time></trkpt><trkpt lat="42.35918241283675" lon="13.353957471900054"><ele>629.0</ele><time>2026-05-03T10:57:24Z</time></trkpt><trkpt lat="42.35923639448109" lon="13.35414118644562"><ele>628.5</ele><time>2026-05-03T10:57:25Z</time></trkpt><trkpt lat="42.35929140713515" lon="13.354331008096922"><ele>628.0</ele><time>2026-05-03T10:57:26Z</time></trkpt><trkpt lat="42.35934555499273" lon="13.354524176857813"><ele>628.0</ele><time>2026-05-03T10:57:27Z</time></trkpt><trkpt lat="42.35939984211431" lon="13.354722352099843"><ele>628.0</ele><time>2026-05-03T10:57:28Z</time></trkpt><trkpt lat="42.35945435003302" lon="13.354923590924972"><ele>628.0</ele><time>2026-05-03T10:57:28.999Z</time></trkpt><trkpt lat="42.35950751758591" lon="13.355118772025884"><ele>628.0</ele><time>2026-05-03T10:57:29.999Z</time></trkpt><trkpt lat="42.359559782234456" lon="13.355312313089096"><ele>628.0</ele><time>2026-05-03T10:57:30.999Z</time></trkpt><trkpt lat="42.35961366876404" lon="13.355505866302927"><ele>628.0</ele><time>2026-05-03T10:57:31.999Z</time></trkpt><trkpt lat="42.35966656162792" lon="13.355699323732695"><ele>627.5</ele><time>2026-05-03T10:57:32.999Z</time></trkpt><trkpt lat="42.359716650090625" lon="13.355887357285162"><ele>627.0</ele><time>2026-05-03T10:57:33.999Z</time></trkpt><trkpt lat="42.35976795524487" lon="13.356076554057926"><ele>626.5</ele><time>2026-05-03T10:57:34.999Z</time></trkpt><trkpt lat="42.359818869465194" lon="13.356270683622649"><ele>626.0</ele><time>2026-05-03T10:57:35.999Z</time></trkpt><trkpt lat="42.359867727473166" lon="13.35647085876679"><ele>626.0</ele><time>2026-05-03T10:57:36.999Z</time></trkpt><trkpt lat="42.359916095818434" lon="13.356671004631627"><ele>626.0</ele><time>2026-05-03T10:57:37.999Z</time></trkpt><trkpt lat="42.35995940160604" lon="13.35686554502872"><ele>626.0</ele><time>2026-05-03T10:57:38.999Z</time></trkpt><trkpt lat="42.35999192206043" lon="13.357057921690014"><ele>626.25</ele><time>2026-05-03T10:57:39.999Z</time></trkpt><trkpt lat="42.36001163870146" lon="13.357245989125133"><ele>626.5</ele><time>2026-05-03T10:57:40.999Z</time></trkpt><trkpt lat="42.36001951393751" lon="13.357429403850526"><ele>626.75</ele><time>2026-05-03T10:57:41.999Z</time></trkpt><trkpt lat="42.3600157697438" lon="13.3576133381601"><ele>627.0</ele><time>2026-05-03T10:57:42.999Z</time></trkpt><trkpt lat="42.36001082505999" lon="13.357802804298412"><ele>627.0</ele><time>2026-05-03T10:57:43.999Z</time></trkpt><trkpt lat="42.360001471754956" lon="13.357998416081957"><ele>627.0</ele><time>2026-05-03T10:57:44.999Z</time></trkpt><trkpt lat="42.35998084281112" lon="13.358199421197268"><ele>627.0</ele><time>2026-05-03T10:57:45.999Z</time></trkpt><trkpt lat="42.35995040793597" lon="13.358401556362917"><ele>627.0</ele><time>2026-05-03T10:57:46.999Z</time></trkpt><trkpt lat="42.35991012813885" lon="13.358601275866283"><ele>626.6666666666666</ele><time>2026-05-03T10:57:47.999Z</time></trkpt><trkpt lat="42.35986025581394" lon="13.358803394759926"><ele>626.3333333333333</ele><time>2026-05-03T10:57:48.999Z</time></trkpt><trkpt lat="42.359799640294575" lon="13.359001151298632"><ele>626.0</ele><time>2026-05-03T10:57:49.999Z</time></trkpt><trkpt lat="42.35973787566891" lon="13.35917053385513"><ele>625.6</ele><time>2026-05-03T10:57:50.999Z</time></trkpt><trkpt lat="42.35967984577801" lon="13.359311705693985"><ele>625.2</ele><time>2026-05-03T10:57:51.999Z</time></trkpt><trkpt lat="42.35961883669518" lon="13.359416447030464"><ele>624.8</ele><time>2026-05-03T10:57:52.999Z</time></trkpt><trkpt lat="42.359562428464365" lon="13.359490072223943"><ele>624.4</ele><time>2026-05-03T10:57:53.999Z</time></trkpt><trkpt lat="42.35945380327277" lon="13.359538091878191"><ele>624.0</ele><time>2026-05-03T10:57:55.999Z</time></trkpt><trkpt lat="42.3593473324967" lon="13.359545700667796"><ele>624.0</ele><time>2026-05-03T10:57:57.999Z</time></trkpt><trkpt lat="42.359252788732285" lon="13.359548856923992"><ele>624.0</ele><time>2026-05-03T10:57:59.999Z</time></trkpt><trkpt lat="42.35934846260428" lon="13.35961771570425"><ele>624.0</ele><time>2026-05-03T10:58:02.999Z</time></trkpt><trkpt lat="42.359296297624525" lon="13.359785548182877"><ele>624.0</ele><time>2026-05-03T10:58:04.999Z</time></trkpt><trkpt lat="42.359385658055075" lon="13.359829053162766"><ele>624.0</ele><time>2026-05-03T10:58:06.999Z</time></trkpt><trkpt lat="42.35944755722835" lon="13.359881198894582"><ele>624.6</ele><time>2026-05-03T10:58:08.999Z</time></trkpt><trkpt lat="42.35946365938862" lon="13.360012593587824"><ele>625.2</ele><time>2026-05-03T10:58:47Z</time></trkpt><trkpt lat="42.35947250721216" lon="13.360108125543883"><ele>625.8000000000001</ele><time>2026-05-03T10:58:48Z</time></trkpt><trkpt lat="42.35940281212567" lon="13.360227055147577"><ele>626.4</ele><time>2026-05-03T10:58:49Z</time></trkpt><trkpt lat="42.359325501685596" lon="13.3603437315834"><ele>627.0</ele><time>2026-05-03T10:58:50Z</time></trkpt><trkpt lat="42.35922676847842" lon="13.360458143538814"><ele>627.0</ele><time>2026-05-03T10:58:51Z</time></trkpt><trkpt lat="42.35911539906762" lon="13.360543555501408"><ele>627.0</ele><time>2026-05-03T10:58:52Z</time></trkpt><trkpt lat="42.35899547710523" lon="13.360605304718947"><ele>627.0</ele><time>2026-05-03T10:58:53Z</time></trkpt><trkpt lat="42.35887152501693" lon="13.360648885775644"><ele>627.0</ele><time>2026-05-03T10:58:54Z</time></trkpt><trkpt lat="42.35874342828191" lon="13.360671211070427"><ele>627.0</ele><time>2026-05-03T10:58:55Z</time></trkpt><trkpt lat="42.35861171006676" lon="13.360689465559012"><ele>627.0</ele><time>2026-05-03T10:58:56Z</time></trkpt><trkpt lat="42.358476832857924" lon="13.360708220236374"><ele>627.0</ele><time>2026-05-03T10:58:57Z</time></trkpt><trkpt lat="42.35834029118768" lon="13.360726686897888"><ele>627.0</ele><time>2026-05-03T10:58:58Z</time></trkpt><trkpt lat="42.35820151449559" lon="13.360735100106053"><ele>627.0</ele><time>2026-05-03T10:58:59Z</time></trkpt><trkpt lat="42.35805927741742" lon="13.360737449488838"><ele>627.0</ele><time>2026-05-03T10:59:00Z</time></trkpt><trkpt lat="42.357912646766884" lon="13.360731879997076"><ele>627.0</ele><time>2026-05-03T10:59:01Z</time></trkpt><trkpt lat="42.3577589116668" lon="13.360721538888225"><ele>627.0</ele><time>2026-05-03T10:59:02Z</time></trkpt><trkpt lat="42.35759871425106" lon="13.360695859210086"><ele>627.0</ele><time>2026-05-03T10:59:03Z</time></trkpt><trkpt lat="42.357437625653304" lon="13.360654495795721"><ele>627.0</ele><time>2026-05-03T10:59:04Z</time></trkpt><trkpt lat="42.357276344972036" lon="13.360598340639521"><ele>627.0</ele><time>2026-05-03T10:59:05Z</time></trkpt><trkpt lat="42.35711413083291" lon="13.360530662900358"><ele>626.0</ele><time>2026-05-03T10:59:06Z</time></trkpt><trkpt lat="42.35694964774591" lon="13.360462930770415"><ele>625.0</ele><time>2026-05-03T10:59:07Z</time></trkpt><trkpt lat="42.356781677883376" lon="13.360395487968958"><ele>624.0</ele><time>2026-05-03T10:59:08Z</time></trkpt><trkpt lat="42.356610652345836" lon="13.360329966455893"><ele>624.0</ele><time>2026-05-03T10:59:09Z</time></trkpt><trkpt lat="42.35643445151113" lon="13.360263367146004"><ele>624.0</ele><time>2026-05-03T10:59:10Z</time></trkpt><trkpt lat="42.356258516747125" lon="13.360194708562826"><ele>624.0</ele><time>2026-05-03T10:59:11Z</time></trkpt><trkpt lat="42.356078016347055" lon="13.36013554319879"><ele>624.0</ele><time>2026-05-03T10:59:12Z</time></trkpt><trkpt lat="42.35589497665273" lon="13.360077553012808"><ele>624.0</ele><time>2026-05-03T10:59:13Z</time></trkpt><trkpt lat="42.35570905031884" lon="13.360024991628478"><ele>624.0</ele><time>2026-05-03T10:59:14Z</time></trkpt><trkpt lat="42.35552195464127" lon="13.359975282631629"><ele>624.0</ele><time>2026-05-03T10:59:15Z</time></trkpt><trkpt lat="42.35533547338662" lon="13.359925593697879"><ele>624.0</ele><time>2026-05-03T10:59:16Z</time></trkpt><trkpt lat="42.3551455070492" lon="13.359871655251755"><ele>624.0</ele><time>2026-05-03T10:59:17Z</time></trkpt><trkpt lat="42.35495394365647" lon="13.359810195621733"><ele>624.0</ele><time>2026-05-03T10:59:18Z</time></trkpt><trkpt lat="42.354761393396515" lon="13.359741926118483"><ele>624.0</ele><time>2026-05-03T10:59:19Z</time></trkpt><trkpt lat="42.35456710292695" lon="13.359666720835468"><ele>624.0</ele><time>2026-05-03T10:59:20Z</time></trkpt><trkpt lat="42.35437603350263" lon="13.35958706192875"><ele>624.3333333333334</ele><time>2026-05-03T10:59:21Z</time></trkpt><trkpt lat="42.354187008963876" lon="13.35950030361723"><ele>624.6666666666667</ele><time>2026-05-03T10:59:22Z</time></trkpt><trkpt lat="42.354001941785754" lon="13.359405356048823"><ele>625.0</ele><time>2026-05-03T10:59:23Z</time></trkpt><trkpt lat="42.35382132442413" lon="13.35931045488612"><ele>625.6666666666667</ele><time>2026-05-03T10:59:24Z</time></trkpt><trkpt lat="42.35364370124781" lon="13.359225482050118"><ele>626.3333333333334</ele><time>2026-05-03T10:59:25Z</time></trkpt><trkpt lat="42.35346488715016" lon="13.359142037527207"><ele>627.0</ele><time>2026-05-03T10:59:26Z</time></trkpt><trkpt lat="42.353292059387385" lon="13.359059142753917"><ele>627.0</ele><time>2026-05-03T10:59:27Z</time></trkpt><trkpt lat="42.35312339251266" lon="13.358977005930754"><ele>627.0</ele><time>2026-05-03T10:59:28Z</time></trkpt><trkpt lat="42.35296031040622" lon="13.358898954377723"><ele>627.0</ele><time>2026-05-03T10:59:29Z</time></trkpt><trkpt lat="42.35279754554849" lon="13.358824102766189"><ele>627.6666666666666</ele><time>2026-05-03T10:59:30Z</time></trkpt><trkpt lat="42.35264182812964" lon="13.358747292228468"><ele>628.3333333333333</ele><time>2026-05-03T10:59:31Z</time></trkpt><trkpt lat="42.352490767616416" lon="13.358670459685275"><ele>629.0</ele><time>2026-05-03T10:59:32Z</time></trkpt><trkpt lat="42.352347691782285" lon="13.358594499722265"><ele>629.0</ele><time>2026-05-03T10:59:33Z</time></trkpt><trkpt lat="42.352220061832256" lon="13.358534348812979"><ele>629.0</ele><time>2026-05-03T10:59:34Z</time></trkpt><trkpt lat="42.352087678342635" lon="13.358496908023891"><ele>629.0</ele><time>2026-05-03T10:59:35Z</time></trkpt><trkpt lat="42.3519456856293" lon="13.358481502170168"><ele>629.0</ele><time>2026-05-03T10:59:35.999Z</time></trkpt><trkpt lat="42.35180166454522" lon="13.35848726141633"><ele>628.75</ele><time>2026-05-03T10:59:36.999Z</time></trkpt><trkpt lat="42.35166166734674" lon="13.358517668653363"><ele>628.5</ele><time>2026-05-03T10:59:37.999Z</time></trkpt><trkpt lat="42.35152703464233" lon="13.358577063793653"><ele>628.25</ele><time>2026-05-03T10:59:38.999Z</time></trkpt><trkpt lat="42.35140128458608" lon="13.35866069260553"><ele>628.0</ele><time>2026-05-03T10:59:39.999Z</time></trkpt><trkpt lat="42.35127725227395" lon="13.358769037765558"><ele>627.3333333333334</ele><time>2026-05-03T10:59:40.999Z</time></trkpt><trkpt lat="42.35116203244692" lon="13.35889943276435"><ele>626.6666666666666</ele><time>2026-05-03T10:59:41.999Z</time></trkpt><trkpt lat="42.35105827241598" lon="13.359056551824631"><ele>626.0</ele><time>2026-05-03T10:59:42.999Z</time></trkpt><trkpt lat="42.35097006842388" lon="13.359235502348568"><ele>626.0</ele><time>2026-05-03T10:59:43.999Z</time></trkpt><trkpt lat="42.35090523531507" lon="13.359434471754692"><ele>626.0</ele><time>2026-05-03T10:59:44.999Z</time></trkpt><trkpt lat="42.350861824685516" lon="13.359635014755252"><ele>626.0</ele><time>2026-05-03T10:59:45.999Z</time></trkpt><trkpt lat="42.350846324651634" lon="13.35983708375174"><ele>626.3333333333333</ele><time>2026-05-03T10:59:46.999Z</time></trkpt><trkpt lat="42.35084731728026" lon="13.360048430847964"><ele>626.6666666666666</ele><time>2026-05-03T10:59:47.999Z</time></trkpt><trkpt lat="42.35087030126104" lon="13.360269954953461"><ele>627.0</ele><time>2026-05-03T10:59:48.999Z</time></trkpt><trkpt lat="42.35091006678396" lon="13.360507928140056"><ele>626.6666666666666</ele><time>2026-05-03T10:59:49.999Z</time></trkpt><trkpt lat="42.35094711476093" lon="13.360740764723342"><ele>626.3333333333333</ele><time>2026-05-03T10:59:50.999Z</time></trkpt><trkpt lat="42.35098262355319" lon="13.360978189489149"><ele>626.0</ele><time>2026-05-03T10:59:51.999Z</time></trkpt><trkpt lat="42.351018319434246" lon="13.361217021627507"><ele>626.0</ele><time>2026-05-03T10:59:52.999Z</time></trkpt><trkpt lat="42.351042331206344" lon="13.361445257691999"><ele>626.0</ele><time>2026-05-03T10:59:53.999Z</time></trkpt><trkpt lat="42.35104860298178" lon="13.361662486350264"><ele>626.0</ele><time>2026-05-03T10:59:54.999Z</time></trkpt><trkpt lat="42.351041721719945" lon="13.361870667080828"><ele>626.0</ele><time>2026-05-03T10:59:55.999Z</time></trkpt><trkpt lat="42.35106018498394" lon="13.362074456231376"><ele>626.0</ele><time>2026-05-03T10:59:56.999Z</time></trkpt><trkpt lat="42.350992915129204" lon="13.362297654447959"><ele>626.0</ele><time>2026-05-03T10:59:57.999Z</time></trkpt><trkpt lat="42.35095686750219" lon="13.3625358982437"><ele>625.3333333333333</ele><time>2026-05-03T10:59:58.999Z</time></trkpt><trkpt lat="42.350919871560194" lon="13.362790017729171"><ele>624.6666666666666</ele><time>2026-05-03T10:59:59.999Z</time></trkpt><trkpt lat="42.3508827940742" lon="13.363050605797806"><ele>624.0</ele><time>2026-05-03T11:00:00.999Z</time></trkpt><trkpt lat="42.35084448609539" lon="13.363323828298949"><ele>623.3333333333334</ele><time>2026-05-03T11:00:01.999Z</time></trkpt><trkpt lat="42.35080136318443" lon="13.363613955241417"><ele>622.6666666666667</ele><time>2026-05-03T11:00:02.999Z</time></trkpt><trkpt lat="42.35075384399179" lon="13.363908724345585"><ele>622.0</ele><time>2026-05-03T11:00:03.999Z</time></trkpt><trkpt lat="42.35069411414632" lon="13.364202864885305"><ele>622.0</ele><time>2026-05-03T11:00:04.999Z</time></trkpt><trkpt lat="42.35062086383301" lon="13.364493163711481"><ele>622.0</ele><time>2026-05-03T11:00:05.999Z</time></trkpt><trkpt lat="42.350535588729564" lon="13.364781972502326"><ele>622.5</ele><time>2026-05-03T11:00:06.999Z</time></trkpt><trkpt lat="42.35043666793082" lon="13.365070388246433"><ele>623.0</ele><time>2026-05-03T11:00:07.999Z</time></trkpt><trkpt lat="42.350331133991745" lon="13.36536313977608"><ele>624.0</ele><time>2026-05-03T11:00:08.999Z</time></trkpt><trkpt lat="42.35022541932773" lon="13.365660529658719"><ele>625.0</ele><time>2026-05-03T11:00:09.999Z</time></trkpt><trkpt lat="42.350121351464914" lon="13.365963180907183"><ele>625.0</ele><time>2026-05-03T11:00:10.999Z</time></trkpt><trkpt lat="42.35001495169652" lon="13.36626736027936"><ele>625.0</ele><time>2026-05-03T11:00:11.999Z</time></trkpt><trkpt lat="42.34990759997927" lon="13.366570175321158"><ele>624.5</ele><time>2026-05-03T11:00:12.999Z</time></trkpt><trkpt lat="42.34979991888941" lon="13.366877561759214"><ele>624.0</ele><time>2026-05-03T11:00:13.999Z</time></trkpt><trkpt lat="42.34968975051747" lon="13.367189651062963"><ele>626.0</ele><time>2026-05-03T11:00:14.999Z</time></trkpt><trkpt lat="42.34958284952214" lon="13.367497663282538"><ele>628.0</ele><time>2026-05-03T11:00:15.999Z</time></trkpt><trkpt lat="42.34947478801283" lon="13.367807929221065"><ele>630.5</ele><time>2026-05-03T11:00:16.999Z</time></trkpt><trkpt lat="42.3493663489529" lon="13.368119266412117"><ele>633.0</ele><time>2026-05-03T11:00:17.999Z</time></trkpt><trkpt lat="42.34926011320546" lon="13.368434884633622"><ele>633.0</ele><time>2026-05-03T11:00:18.999Z</time></trkpt><trkpt lat="42.34915394545384" lon="13.368744466938033"><ele>633.0</ele><time>2026-05-03T11:00:19.999Z</time></trkpt><trkpt lat="42.34904539575913" lon="13.369054825739843"><ele>633.5</ele><time>2026-05-03T11:00:20.999Z</time></trkpt><trkpt lat="42.34893911189883" lon="13.36936415405923"><ele>634.0</ele><time>2026-05-03T11:00:21.999Z</time></trkpt><trkpt lat="42.34883467616506" lon="13.369675364294563"><ele>655.0</ele><time>2026-05-03T11:00:22.999Z</time></trkpt><trkpt lat="42.34871036211451" lon="13.369981911764517"><ele>676.0</ele><time>2026-05-03T11:00:24.022Z</time></trkpt><trkpt lat="42.34860206643157" lon="13.370289687265782"><ele>681.5</ele><time>2026-05-03T11:00:25.018Z</time></trkpt><trkpt lat="42.348492559544496" lon="13.370600322451736"><ele>687.0</ele><time>2026-05-03T11:00:26.022Z</time></trkpt><trkpt lat="42.34838412139363" lon="13.370907782305252"><ele>687.0</ele><time>2026-05-03T11:00:27.014Z</time></trkpt><trkpt lat="42.34827532910273" lon="13.3712162473525"><ele>687.0</ele><time>2026-05-03T11:00:28.012Z</time></trkpt><trkpt lat="42.34715447315024" lon="13.375272691685167"><ele>639.0</ele><time>2026-05-03T11:00:41.843Z</time></trkpt><trkpt lat="42.34145028986255" lon="13.388950964448403"><ele>641.5</ele><time>2026-05-03T11:01:26.998Z</time></trkpt><trkpt lat="42.341272391991055" lon="13.389140482938092"><ele>644.0</ele><time>2026-05-03T11:01:27.998Z</time></trkpt><trkpt lat="42.34107053982969" lon="13.389294569371685"><ele>644.0</ele><time>2026-05-03T11:01:28.998Z</time></trkpt><trkpt lat="42.340882514199286" lon="13.389443753648774"><ele>644.0</ele><time>2026-05-03T11:01:29.998Z</time></trkpt><trkpt lat="42.34068556036548" lon="13.389582088157447"><ele>644.0</ele><time>2026-05-03T11:01:30.998Z</time></trkpt><trkpt lat="42.340481135365735" lon="13.389710590938096"><ele>641.5</ele><time>2026-05-03T11:01:31.998Z</time></trkpt><trkpt lat="42.34026825956692" lon="13.389818940571281"><ele>639.0</ele><time>2026-05-03T11:01:33Z</time></trkpt><trkpt lat="42.3400476343172" lon="13.389907433036749"><ele>639.0</ele><time>2026-05-03T11:01:34Z</time></trkpt><trkpt lat="42.3398231423283" lon="13.389972420450984"><ele>639.0</ele><time>2026-05-03T11:01:35Z</time></trkpt><trkpt lat="42.339599615520605" lon="13.390032939577482"><ele>642.5</ele><time>2026-05-03T11:01:36Z</time></trkpt><trkpt lat="42.339376452164586" lon="13.390090960552252"><ele>646.0</ele><time>2026-05-03T11:01:37Z</time></trkpt><trkpt lat="42.33915429780232" lon="13.39013726053222"><ele>646.0</ele><time>2026-05-03T11:01:38Z</time></trkpt><trkpt lat="42.338946042471825" lon="13.390172215260597"><ele>646.0</ele><time>2026-05-03T11:01:39Z</time></trkpt><trkpt lat="42.33875432130025" lon="13.39020764942137"><ele>646.0</ele><time>2026-05-03T11:01:40Z</time></trkpt><trkpt lat="42.33857636625976" lon="13.39024574015701"><ele>647.6666666666667</ele><time>2026-05-03T11:01:41Z</time></trkpt><trkpt lat="42.33840212659513" lon="13.390295864042837"><ele>649.3333333333334</ele><time>2026-05-03T11:01:42Z</time></trkpt><trkpt lat="42.338234997407426" lon="13.39036103041697"><ele>651.0</ele><time>2026-05-03T11:01:43Z</time></trkpt><trkpt lat="42.33806828440694" lon="13.390439562677397"><ele>649.75</ele><time>2026-05-03T11:01:44Z</time></trkpt><trkpt lat="42.33792376813044" lon="13.390526701319315"><ele>648.5</ele><time>2026-05-03T11:01:45Z</time></trkpt><trkpt lat="42.33779551134574" lon="13.390616150481357"><ele>647.25</ele><time>2026-05-03T11:01:46Z</time></trkpt><trkpt lat="42.33767985805274" lon="13.390701903803645"><ele>646.0</ele><time>2026-05-03T11:01:47Z</time></trkpt><trkpt lat="42.3375840929573" lon="13.390785416022137"><ele>646.0</ele><time>2026-05-03T11:01:48Z</time></trkpt><trkpt lat="42.337504996266084" lon="13.390864498590867"><ele>646.0</ele><time>2026-05-03T11:01:49Z</time></trkpt><trkpt lat="42.337441506828334" lon="13.390931547865751"><ele>646.0</ele><time>2026-05-03T11:01:50Z</time></trkpt><trkpt lat="42.33738440774165" lon="13.390993272072103"><ele>646.0</ele><time>2026-05-03T11:01:51Z</time></trkpt><trkpt lat="42.33733452417312" lon="13.391053257839976"><ele>646.0</ele><time>2026-05-03T11:01:52Z</time></trkpt><trkpt lat="42.33727619211019" lon="13.391093667244407"><ele>646.0</ele><time>2026-05-03T11:01:53Z</time></trkpt><trkpt lat="42.33719381001597" lon="13.391201913665077"><ele>647.8333333333334</ele><time>2026-05-03T11:01:55Z</time></trkpt><trkpt lat="42.337150558487046" lon="13.391323205581722"><ele>649.6666666666667</ele><time>2026-05-03T11:01:57Z</time></trkpt><trkpt lat="42.337107454959515" lon="13.391406085675051"><ele>651.5</ele><time>2026-05-03T11:01:59Z</time></trkpt><trkpt lat="42.337067271544605" lon="13.391479280875695"><ele>653.3333333333334</ele><time>2026-05-03T11:02:01Z</time></trkpt><trkpt lat="42.33698592437527" lon="13.391592823120048"><ele>655.1666666666666</ele><time>2026-05-03T11:02:03Z</time></trkpt><trkpt lat="42.33693746704776" lon="13.391669190532523"><ele>657.0</ele><time>2026-05-03T11:02:04Z</time></trkpt><trkpt lat="42.33688884230105" lon="13.391762376682816"><ele>657.0</ele><time>2026-05-03T11:02:05Z</time></trkpt><trkpt lat="42.33683781227711" lon="13.391870463593662"><ele>657.0</ele><time>2026-05-03T11:02:06Z</time></trkpt><trkpt lat="42.33678706490894" lon="13.391994013445581"><ele>657.0</ele><time>2026-05-03T11:02:07Z</time></trkpt><trkpt lat="42.336737700655085" lon="13.392132385754076"><ele>657.0</ele><time>2026-05-03T11:02:08Z</time></trkpt><trkpt lat="42.33669743049759" lon="13.39227761425139"><ele>657.0</ele><time>2026-05-03T11:02:09Z</time></trkpt><trkpt lat="42.33667392524918" lon="13.392424136652922"><ele>655.4000000000001</ele><time>2026-05-03T11:02:10Z</time></trkpt><trkpt lat="42.33665435998079" lon="13.3925652227514"><ele>653.8000000000001</ele><time>2026-05-03T11:02:11Z</time></trkpt><trkpt lat="42.33663443220738" lon="13.392698720599565"><ele>652.2</ele><time>2026-05-03T11:02:12Z</time></trkpt><trkpt lat="42.33661033467633" lon="13.392832774627514"><ele>650.6</ele><time>2026-05-03T11:02:13Z</time></trkpt><trkpt lat="42.336576668582566" lon="13.39297101493069"><ele>649.0</ele><time>2026-05-03T11:02:14Z</time></trkpt><trkpt lat="42.33655076830433" lon="13.393121285448023"><ele>647.25</ele><time>2026-05-03T11:02:15Z</time></trkpt><trkpt lat="42.336469556331075" lon="13.393259575167454"><ele>645.5</ele><time>2026-05-03T11:02:16Z</time></trkpt><trkpt lat="42.33640063798331" lon="13.393419422401635"><ele>643.75</ele><time>2026-05-03T11:02:17Z</time></trkpt><trkpt lat="42.33632487629377" lon="13.393597592826682"><ele>642.0</ele><time>2026-05-03T11:02:18Z</time></trkpt><trkpt lat="42.33625322035904" lon="13.393776488446944"><ele>647.0</ele><time>2026-05-03T11:02:19Z</time></trkpt><trkpt lat="42.33619029080584" lon="13.393954202923943"><ele>652.0</ele><time>2026-05-03T11:02:20Z</time></trkpt><trkpt lat="42.336135092195214" lon="13.394139619574185"><ele>657.0</ele><time>2026-05-03T11:02:21Z</time></trkpt><trkpt lat="42.33608943688431" lon="13.394333866819768"><ele>662.0</ele><time>2026-05-03T11:02:22Z</time></trkpt><trkpt lat="42.33605226900674" lon="13.394539071410993"><ele>661.6666666666666</ele><time>2026-05-03T11:02:23Z</time></trkpt><trkpt lat="42.336020464308206" lon="13.394749426965458"><ele>661.3333333333334</ele><time>2026-05-03T11:02:24Z</time></trkpt><trkpt lat="42.33599738927847" lon="13.39496645955359"><ele>661.0</ele><time>2026-05-03T11:02:25Z</time></trkpt><trkpt lat="42.335984680561644" lon="13.395187391389179"><ele>661.0</ele><time>2026-05-03T11:02:26Z</time></trkpt><trkpt lat="42.33598151024455" lon="13.395410387586228"><ele>661.0</ele><time>2026-05-03T11:02:27Z</time></trkpt><trkpt lat="42.3359791472378" lon="13.395631769785926"><ele>661.0</ele><time>2026-05-03T11:02:27.999Z</time></trkpt><trkpt lat="42.33597533010968" lon="13.395849061845448"><ele>663.0</ele><time>2026-05-03T11:02:28.999Z</time></trkpt><trkpt lat="42.33596771456023" lon="13.396062641128628"><ele>665.0</ele><time>2026-05-03T11:02:29.999Z</time></trkpt><trkpt lat="42.33595090559876" lon="13.396275541249002"><ele>667.0</ele><time>2026-05-03T11:02:30.999Z</time></trkpt><trkpt lat="42.33592175032668" lon="13.396481144565298"><ele>668.3333333333334</ele><time>2026-05-03T11:02:31.999Z</time></trkpt><trkpt lat="42.33588564800419" lon="13.396685606011223"><ele>669.6666666666666</ele><time>2026-05-03T11:02:32.999Z</time></trkpt><trkpt lat="42.335850009160566" lon="13.396882765876342"><ele>671.0</ele><time>2026-05-03T11:02:33.999Z</time></trkpt><trkpt lat="42.33580839383298" lon="13.397078694211135"><ele>671.3333333333333</ele><time>2026-05-03T11:02:34.999Z</time></trkpt><trkpt lat="42.33574251798025" lon="13.397266136883399"><ele>671.6666666666666</ele><time>2026-05-03T11:02:35.999Z</time></trkpt><trkpt lat="42.33565440910519" lon="13.397453004495112"><ele>672.0</ele><time>2026-05-03T11:02:36.999Z</time></trkpt><trkpt lat="42.33556246780097" lon="13.397639881457977"><ele>673.6666666666666</ele><time>2026-05-03T11:02:37.999Z</time></trkpt><trkpt lat="42.335466279745624" lon="13.397814961953868"><ele>675.3333333333333</ele><time>2026-05-03T11:02:38.999Z</time></trkpt><trkpt lat="42.33536485839382" lon="13.397982986155201"><ele>677.0</ele><time>2026-05-03T11:02:39.999Z</time></trkpt><trkpt lat="42.335256255140614" lon="13.39814873259794"><ele>677.0</ele><time>2026-05-03T11:02:40.999Z</time></trkpt><trkpt lat="42.335142942242996" lon="13.398310820229392"><ele>677.0</ele><time>2026-05-03T11:02:41.999Z</time></trkpt><trkpt lat="42.335025940408855" lon="13.398461072639833"><ele>677.0</ele><time>2026-05-03T11:02:42.999Z</time></trkpt><trkpt lat="42.3349088534453" lon="13.398604066507069"><ele>677.0</ele><time>2026-05-03T11:02:43.999Z</time></trkpt><trkpt lat="42.3347958303181" lon="13.398743932919247"><ele>677.0</ele><time>2026-05-03T11:02:44.999Z</time></trkpt><trkpt lat="42.334680983753785" lon="13.398879966999486"><ele>677.0</ele><time>2026-05-03T11:02:45.999Z</time></trkpt><trkpt lat="42.3345623559057" lon="13.399015844933354"><ele>678.6666666666666</ele><time>2026-05-03T11:02:46.999Z</time></trkpt><trkpt lat="42.33443883729835" lon="13.399152974424295"><ele>680.3333333333334</ele><time>2026-05-03T11:02:47.999Z</time></trkpt><trkpt lat="42.33431398281729" lon="13.399292406584332"><ele>682.0</ele><time>2026-05-03T11:02:48.999Z</time></trkpt><trkpt lat="42.33419107191978" lon="13.39943011467634"><ele>682.0</ele><time>2026-05-03T11:02:49.999Z</time></trkpt><trkpt lat="42.334069116464896" lon="13.39956745613714"><ele>682.0</ele><time>2026-05-03T11:02:50.999Z</time></trkpt><trkpt lat="42.33394553251396" lon="13.399705683699858"><ele>682.0</ele><time>2026-05-03T11:02:51.999Z</time></trkpt><trkpt lat="42.33382520432268" lon="13.399838008794484"><ele>683.75</ele><time>2026-05-03T11:02:52.999Z</time></trkpt><trkpt lat="42.333707326313075" lon="13.399970593136032"><ele>685.5</ele><time>2026-05-03T11:02:53.999Z</time></trkpt><trkpt lat="42.33359468334293" lon="13.400100035550036"><ele>687.25</ele><time>2026-05-03T11:02:54.999Z</time></trkpt><trkpt lat="42.33348520058049" lon="13.400228628999201"><ele>689.0</ele><time>2026-05-03T11:02:55.999Z</time></trkpt><trkpt lat="42.333379958298494" lon="13.400353220520282"><ele>689.0</ele><time>2026-05-03T11:02:56.999Z</time></trkpt><trkpt lat="42.33327918068826" lon="13.400476487364886"><ele>689.0</ele><time>2026-05-03T11:02:57.999Z</time></trkpt><trkpt lat="42.33318554719112" lon="13.40059944533705"><ele>689.0</ele><time>2026-05-03T11:02:58.999Z</time></trkpt><trkpt lat="42.33309665602191" lon="13.400725476943407"><ele>689.0</ele><time>2026-05-03T11:02:59.999Z</time></trkpt><trkpt lat="42.333015099732215" lon="13.400848355278876"><ele>686.6</ele><time>2026-05-03T11:03:00.999Z</time></trkpt><trkpt lat="42.332941308752645" lon="13.400964196079562"><ele>684.2</ele><time>2026-05-03T11:03:01.999Z</time></trkpt><trkpt lat="42.332874463092054" lon="13.40107892776483"><ele>681.8000000000001</ele><time>2026-05-03T11:03:02.999Z</time></trkpt><trkpt lat="42.332810008747444" lon="13.401188654021748"><ele>679.4000000000001</ele><time>2026-05-03T11:03:03.999Z</time></trkpt><trkpt lat="42.332753091744394" lon="13.401285746220493"><ele>677.0</ele><time>2026-05-03T11:03:04.999Z</time></trkpt><trkpt lat="42.332703218627884" lon="13.401374831623842"><ele>675.1666666666666</ele><time>2026-05-03T11:03:05.999Z</time></trkpt><trkpt lat="42.33265546663915" lon="13.401466941645921"><ele>673.3333333333333</ele><time>2026-05-03T11:03:06.999Z</time></trkpt><trkpt lat="42.33260434925084" lon="13.401553728527315"><ele>671.5</ele><time>2026-05-03T11:03:07.999Z</time></trkpt><trkpt lat="42.33256132363742" lon="13.401620938732496"><ele>669.6666666666666</ele><time>2026-05-03T11:03:08.999Z</time></trkpt><trkpt lat="42.33250435835563" lon="13.401725681315618"><ele>667.8333333333334</ele><time>2026-05-03T11:03:10.999Z</time></trkpt><trkpt lat="42.3324584865711" lon="13.401813951117905"><ele>666.0</ele><time>2026-05-03T11:03:12.999Z</time></trkpt><trkpt lat="42.332404648307595" lon="13.401914282020055"><ele>666.0</ele><time>2026-05-03T11:03:14.999Z</time></trkpt><trkpt lat="42.33233731879136" lon="13.402021401417853"><ele>666.0</ele><time>2026-05-03T11:03:16.999Z</time></trkpt><trkpt lat="42.332253545847" lon="13.402140292915773"><ele>666.0</ele><time>2026-05-03T11:03:18.999Z</time></trkpt><trkpt lat="42.33218558177184" lon="13.402196835831095"><ele>666.0</ele><time>2026-05-03T11:03:19.999Z</time></trkpt><trkpt lat="42.33210827569137" lon="13.40222580497825"><ele>666.0</ele><time>2026-05-03T11:03:20.999Z</time></trkpt><trkpt lat="42.33202857567802" lon="13.402235656793929"><ele>664.8333333333334</ele><time>2026-05-03T11:03:21.999Z</time></trkpt><trkpt lat="42.33194917267452" lon="13.40225403353452"><ele>663.6666666666666</ele><time>2026-05-03T11:03:22.999Z</time></trkpt><trkpt lat="42.33188087104996" lon="13.40229810688014"><ele>662.5</ele><time>2026-05-03T11:03:23.999Z</time></trkpt><trkpt lat="42.33184051515443" lon="13.402379793141328"><ele>661.3333333333333</ele><time>2026-05-03T11:03:24.999Z</time></trkpt><trkpt lat="42.3318289810452" lon="13.402496946208174"><ele>660.1666666666666</ele><time>2026-05-03T11:03:25.999Z</time></trkpt><trkpt lat="42.331846683024914" lon="13.40262829983451"><ele>659.0</ele><time>2026-05-03T11:03:26.999Z</time></trkpt><trkpt lat="42.33181617397024" lon="13.40279534290737"><ele>659.0</ele><time>2026-05-03T11:03:27.999Z</time></trkpt><trkpt lat="42.33179774785356" lon="13.402968365429977"><ele>659.0</ele><time>2026-05-03T11:03:28.999Z</time></trkpt><trkpt lat="42.331770664693316" lon="13.403152817525223"><ele>659.0</ele><time>2026-05-03T11:03:29.999Z</time></trkpt><trkpt lat="42.331739937139474" lon="13.403345782554867"><ele>659.0</ele><time>2026-05-03T11:03:30.999Z</time></trkpt><trkpt lat="42.331706693905524" lon="13.40354689683994"><ele>658.6666666666666</ele><time>2026-05-03T11:03:31.999Z</time></trkpt><trkpt lat="42.331674634031145" lon="13.40375628412463"><ele>658.3333333333334</ele><time>2026-05-03T11:03:32.999Z</time></trkpt><trkpt lat="42.33164421130699" lon="13.403972120696478"><ele>658.0</ele><time>2026-05-03T11:03:33.999Z</time></trkpt><trkpt lat="42.3316102358244" lon="13.404190675880928"><ele>658.0</ele><time>2026-05-03T11:03:34.999Z</time></trkpt><trkpt lat="42.33157702485347" lon="13.404410758432476"><ele>658.0</ele><time>2026-05-03T11:03:35.999Z</time></trkpt><trkpt lat="42.33154474241323" lon="13.404631963907327"><ele>658.0</ele><time>2026-05-03T11:03:36.999Z</time></trkpt><trkpt lat="42.33151218146353" lon="13.404854415312764"><ele>657.6666666666667</ele><time>2026-05-03T11:03:37.999Z</time></trkpt><trkpt lat="42.33147970131439" lon="13.405078496379522"><ele>657.3333333333334</ele><time>2026-05-03T11:03:39Z</time></trkpt><trkpt lat="42.331446209563175" lon="13.405304345151904"><ele>657.0</ele><time>2026-05-03T11:03:40Z</time></trkpt><trkpt lat="42.33141134671115" lon="13.405531154583361"><ele>659.0</ele><time>2026-05-03T11:03:41Z</time></trkpt><trkpt lat="42.33137547923806" lon="13.405758496005834"><ele>661.0</ele><time>2026-05-03T11:03:42Z</time></trkpt><trkpt lat="42.33133866838757" lon="13.405984652815919"><ele>663.0</ele><time>2026-05-03T11:03:43Z</time></trkpt><trkpt lat="42.33129851180514" lon="13.40620904248369"><ele>662.0</ele><time>2026-05-03T11:03:44Z</time></trkpt><trkpt lat="42.33125108448429" lon="13.40642695606052"><ele>661.0</ele><time>2026-05-03T11:03:45Z</time></trkpt><trkpt lat="42.33119500265227" lon="13.406639751614179"><ele>660.0</ele><time>2026-05-03T11:03:46Z</time></trkpt><trkpt lat="42.331122905617484" lon="13.406846414213842"><ele>660.0</ele><time>2026-05-03T11:03:47Z</time></trkpt><trkpt lat="42.33103992287942" lon="13.407043913117219"><ele>660.0</ele><time>2026-05-03T11:03:48Z</time></trkpt><trkpt lat="42.330945620707766" lon="13.40723501632163"><ele>660.0</ele><time>2026-05-03T11:03:49Z</time></trkpt><trkpt lat="42.33084193079197" lon="13.4074183838777"><ele>661.3333333333334</ele><time>2026-05-03T11:03:50Z</time></trkpt><trkpt lat="42.33072367325299" lon="13.407588950432542"><ele>662.6666666666667</ele><time>2026-05-03T11:03:51Z</time></trkpt><trkpt lat="42.330594039035155" lon="13.407743016263096"><ele>664.0</ele><time>2026-05-03T11:03:52Z</time></trkpt><trkpt lat="42.330457864798056" lon="13.407888702880575"><ele>662.3333333333334</ele><time>2026-05-03T11:03:53Z</time></trkpt><trkpt lat="42.33031745061049" lon="13.40803007996654"><ele>660.6666666666666</ele><time>2026-05-03T11:03:54Z</time></trkpt><trkpt lat="42.33017083594644" lon="13.408165912553992"><ele>659.0</ele><time>2026-05-03T11:03:55Z</time></trkpt><trkpt lat="42.330015998977366" lon="13.408295856233526"><ele>659.0</ele><time>2026-05-03T11:03:56Z</time></trkpt><trkpt lat="42.32985170688857" lon="13.408414971223367"><ele>659.0</ele><time>2026-05-03T11:03:57Z</time></trkpt><trkpt lat="42.32968448653225" lon="13.408529814215202"><ele>659.0</ele><time>2026-05-03T11:03:58Z</time></trkpt><trkpt lat="42.329517139806015" lon="13.408641865215385"><ele>659.3333333333333</ele><time>2026-05-03T11:03:59Z</time></trkpt><trkpt lat="42.329349556982805" lon="13.408757464868408"><ele>659.6666666666666</ele><time>2026-05-03T11:04:00Z</time></trkpt><trkpt lat="42.3291813011401" lon="13.408873087488516"><ele>660.0</ele><time>2026-05-03T11:04:01Z</time></trkpt><trkpt lat="42.3290121957025" lon="13.408987551370863"><ele>659.3333333333334</ele><time>2026-05-03T11:04:02Z</time></trkpt><trkpt lat="42.32884447767564" lon="13.409103860850607"><ele>658.6666666666667</ele><time>2026-05-03T11:04:03Z</time></trkpt><trkpt lat="42.32867650574468" lon="13.409221885503246"><ele>658.0</ele><time>2026-05-03T11:04:04Z</time></trkpt><trkpt lat="42.32850918684608" lon="13.40934066451094"><ele>658.0</ele><time>2026-05-03T11:04:05Z</time></trkpt><trkpt lat="42.328343365006916" lon="13.409459469096847"><ele>658.0</ele><time>2026-05-03T11:04:06Z</time></trkpt><trkpt lat="42.328180306878735" lon="13.40957112863087"><ele>658.0</ele><time>2026-05-03T11:04:07Z</time></trkpt><trkpt lat="42.328019448862506" lon="13.409683370299168"><ele>659.0</ele><time>2026-05-03T11:04:08Z</time></trkpt><trkpt lat="42.327860679706355" lon="13.409795498047686"><ele>660.0</ele><time>2026-05-03T11:04:09Z</time></trkpt><trkpt lat="42.32769459403341" lon="13.409881437773695"><ele>661.0</ele><time>2026-05-03T11:04:10Z</time></trkpt><trkpt lat="42.327534786639866" lon="13.40998706487046"><ele>661.0</ele><time>2026-05-03T11:04:11Z</time></trkpt><trkpt lat="42.32738037243117" lon="13.410109442006455"><ele>661.0</ele><time>2026-05-03T11:04:12Z</time></trkpt><trkpt lat="42.32721549079902" lon="13.410209887359143"><ele>661.0</ele><time>2026-05-03T11:04:13Z</time></trkpt><trkpt lat="42.327051783218195" lon="13.410302956746285"><ele>661.3333333333334</ele><time>2026-05-03T11:04:14Z</time></trkpt><trkpt lat="42.32688956516757" lon="13.410394862678556"><ele>661.6666666666666</ele><time>2026-05-03T11:04:15Z</time></trkpt><trkpt lat="42.32673066917911" lon="13.410487209935408"><ele>662.0</ele><time>2026-05-03T11:04:16Z</time></trkpt><trkpt lat="42.32657594068004" lon="13.410579843396707"><ele>659.6666666666666</ele><time>2026-05-03T11:04:17Z</time></trkpt><trkpt lat="42.326424272765585" lon="13.410670431592099"><ele>657.3333333333334</ele><time>2026-05-03T11:04:18Z</time></trkpt><trkpt lat="42.32627394955441" lon="13.410764243561315"><ele>655.0</ele><time>2026-05-03T11:04:19Z</time></trkpt><trkpt lat="42.32612572182369" lon="13.410857864024967"><ele>654.6666666666667</ele><time>2026-05-03T11:04:20Z</time></trkpt><trkpt lat="42.325979448205516" lon="13.410952943051178"><ele>654.3333333333334</ele><time>2026-05-03T11:04:21Z</time></trkpt><trkpt lat="42.32583645805355" lon="13.411057403737708"><ele>654.0</ele><time>2026-05-03T11:04:22Z</time></trkpt><trkpt lat="42.32569982032692" lon="13.411171374201418"><ele>654.0</ele><time>2026-05-03T11:04:23Z</time></trkpt><trkpt lat="42.3255724271156" lon="13.411303387044422"><ele>654.0</ele><time>2026-05-03T11:04:24Z</time></trkpt><trkpt lat="42.32547023263861" lon="13.411464071475637"><ele>654.0</ele><time>2026-05-03T11:04:25Z</time></trkpt><trkpt lat="42.32539066582148" lon="13.411642211917265"><ele>653.75</ele><time>2026-05-03T11:04:26Z</time></trkpt><trkpt lat="42.32532840504965" lon="13.411827710790229"><ele>653.5</ele><time>2026-05-03T11:04:27Z</time></trkpt><trkpt lat="42.325272652857244" lon="13.41201369621507"><ele>653.25</ele><time>2026-05-03T11:04:28Z</time></trkpt><trkpt lat="42.32521776885579" lon="13.412198273279115"><ele>653.0</ele><time>2026-05-03T11:04:28.999Z</time></trkpt><trkpt lat="42.32516321410124" lon="13.412380759156159"><ele>652.0</ele><time>2026-05-03T11:04:29.999Z</time></trkpt><trkpt lat="42.32510796982453" lon="13.412560701617661"><ele>651.0</ele><time>2026-05-03T11:04:30.999Z</time></trkpt><trkpt lat="42.32505476771527" lon="13.412740153240922"><ele>650.0</ele><time>2026-05-03T11:04:31.999Z</time></trkpt><trkpt lat="42.32500200529374" lon="13.412917658139751"><ele>649.0</ele><time>2026-05-03T11:04:32.999Z</time></trkpt><trkpt lat="42.32494928429198" lon="13.413093379624812"><ele>647.25</ele><time>2026-05-03T11:04:33.999Z</time></trkpt><trkpt lat="42.32489639357052" lon="13.413269686100667"><ele>645.5</ele><time>2026-05-03T11:04:34.999Z</time></trkpt><trkpt lat="42.324842754321324" lon="13.4134521445983"><ele>643.75</ele><time>2026-05-03T11:04:35.999Z</time></trkpt><trkpt lat="42.324788845211344" lon="13.413638925449835"><ele>642.0</ele><time>2026-05-03T11:04:36.999Z</time></trkpt><trkpt lat="42.324733937268896" lon="13.413827310380238"><ele>642.5</ele><time>2026-05-03T11:04:37.999Z</time></trkpt><trkpt lat="42.32467913661835" lon="13.41401052101295"><ele>643.0</ele><time>2026-05-03T11:04:38.999Z</time></trkpt><trkpt lat="42.32462487371067" lon="13.414192888197544"><ele>643.5</ele><time>2026-05-03T11:04:39.999Z</time></trkpt><trkpt lat="42.32457041676223" lon="13.414373447790968"><ele>644.0</ele><time>2026-05-03T11:04:40.999Z</time></trkpt><trkpt lat="42.32451537965492" lon="13.414552353610091"><ele>643.25</ele><time>2026-05-03T11:04:41.999Z</time></trkpt><trkpt lat="42.32446154573955" lon="13.41472579018602"><ele>642.5</ele><time>2026-05-03T11:04:42.999Z</time></trkpt><trkpt lat="42.324408078089725" lon="13.414897305028536"><ele>641.75</ele><time>2026-05-03T11:04:43.999Z</time></trkpt><trkpt lat="42.324354713615634" lon="13.415067167910998"><ele>641.0</ele><time>2026-05-03T11:04:44.999Z</time></trkpt><trkpt lat="42.3243017647712" lon="13.415235227318556"><ele>641.0</ele><time>2026-05-03T11:04:45.999Z</time></trkpt><trkpt lat="42.32424671734374" lon="13.41540398563278"><ele>641.0</ele><time>2026-05-03T11:04:46.999Z</time></trkpt><trkpt lat="42.324191133488675" lon="13.415573467033251"><ele>641.0</ele><time>2026-05-03T11:04:47.999Z</time></trkpt><trkpt lat="42.32413096394374" lon="13.415743291517565"><ele>641.0</ele><time>2026-05-03T11:04:48.999Z</time></trkpt><trkpt lat="42.32406505424972" lon="13.41591113472739"><ele>638.6666666666666</ele><time>2026-05-03T11:04:49.999Z</time></trkpt><trkpt lat="42.32399089146764" lon="13.416078905851608"><ele>636.3333333333334</ele><time>2026-05-03T11:04:50.999Z</time></trkpt><trkpt lat="42.32390825262566" lon="13.41624674273359"><ele>634.0</ele><time>2026-05-03T11:04:51.999Z</time></trkpt><trkpt lat="42.32381343013821" lon="13.416414390924778"><ele>633.6666666666667</ele><time>2026-05-03T11:04:52.999Z</time></trkpt><trkpt lat="42.323708072463845" lon="13.416583803255115"><ele>633.3333333333334</ele><time>2026-05-03T11:04:53.999Z</time></trkpt><trkpt lat="42.32360012364914" lon="13.416753150313172"><ele>633.0</ele><time>2026-05-03T11:04:54.999Z</time></trkpt><trkpt lat="42.32349098220003" lon="13.416923594045226"><ele>633.0</ele><time>2026-05-03T11:04:55.999Z</time></trkpt><trkpt lat="42.32338254692287" lon="13.417090271246922"><ele>633.0</ele><time>2026-05-03T11:04:56.999Z</time></trkpt><trkpt lat="42.32327303244183" lon="13.41725570925205"><ele>633.0</ele><time>2026-05-03T11:04:57.999Z</time></trkpt><trkpt lat="42.32316640203704" lon="13.417422142886572"><ele>629.6666666666666</ele><time>2026-05-03T11:04:58.999Z</time></trkpt><trkpt lat="42.32306429659438" lon="13.417581639901817"><ele>626.3333333333333</ele><time>2026-05-03T11:04:59.999Z</time></trkpt><trkpt lat="42.322965043854175" lon="13.417734015705356"><ele>623.0</ele><time>2026-05-03T11:05:00.999Z</time></trkpt><trkpt lat="42.322868254984684" lon="13.417881834179214"><ele>620.5</ele><time>2026-05-03T11:05:01.999Z</time></trkpt><trkpt lat="42.32277193603003" lon="13.418026090853692"><ele>618.0</ele><time>2026-05-03T11:05:02.999Z</time></trkpt><trkpt lat="42.32267688333449" lon="13.418171334203299"><ele>615.5</ele><time>2026-05-03T11:05:03.999Z</time></trkpt><trkpt lat="42.322581574509805" lon="13.418318285997353"><ele>613.0</ele><time>2026-05-03T11:05:04.999Z</time></trkpt><trkpt lat="42.322486061311565" lon="13.418465082716105"><ele>613.0</ele><time>2026-05-03T11:05:05.999Z</time></trkpt><trkpt lat="42.322390670261406" lon="13.418612597352599"><ele>613.0</ele><time>2026-05-03T11:05:06.999Z</time></trkpt><trkpt lat="42.322296093427546" lon="13.418758766088574"><ele>613.0</ele><time>2026-05-03T11:05:07.999Z</time></trkpt><trkpt lat="42.322203053452746" lon="13.418902748691215"><ele>613.0</ele><time>2026-05-03T11:05:08.999Z</time></trkpt><trkpt lat="42.32211389566233" lon="13.419041155677972"><ele>610.0</ele><time>2026-05-03T11:05:09.999Z</time></trkpt><trkpt lat="42.32202767780184" lon="13.419175125575167"><ele>607.0</ele><time>2026-05-03T11:05:10.999Z</time></trkpt><trkpt lat="42.32194232763815" lon="13.419303781379327"><ele>604.0</ele><time>2026-05-03T11:05:11.999Z</time></trkpt><trkpt lat="42.3218591582567" lon="13.419431537700973"><ele>601.0</ele><time>2026-05-03T11:05:12.999Z</time></trkpt><trkpt lat="42.32177502802753" lon="13.419559683979445"><ele>600.0</ele><time>2026-05-03T11:05:13.999Z</time></trkpt><trkpt lat="42.321690411932245" lon="13.41968609501847"><ele>599.0</ele><time>2026-05-03T11:05:14.999Z</time></trkpt><trkpt lat="42.32160579003404" lon="13.419814584724167"><ele>598.0</ele><time>2026-05-03T11:05:15.999Z</time></trkpt><trkpt lat="42.321518307949084" lon="13.419948559442442"><ele>597.0</ele><time>2026-05-03T11:05:16.999Z</time></trkpt><trkpt lat="42.32143087458567" lon="13.42008393665978"><ele>597.0</ele><time>2026-05-03T11:05:17.999Z</time></trkpt><trkpt lat="42.32134510538635" lon="13.420219309465732"><ele>597.0</ele><time>2026-05-03T11:05:18.999Z</time></trkpt><trkpt lat="42.32125931723326" lon="13.420356549933155"><ele>597.0</ele><time>2026-05-03T11:05:19.999Z</time></trkpt><trkpt lat="42.32116724157138" lon="13.420496079527712"><ele>597.0</ele><time>2026-05-03T11:05:20.999Z</time></trkpt><trkpt lat="42.32107546996615" lon="13.420641902425372"><ele>596.5</ele><time>2026-05-03T11:05:21.999Z</time></trkpt><trkpt lat="42.32098083520919" lon="13.420787813065434"><ele>596.0</ele><time>2026-05-03T11:05:22.999Z</time></trkpt><trkpt lat="42.32088829075086" lon="13.420930476561303"><ele>595.5</ele><time>2026-05-03T11:05:23.999Z</time></trkpt><trkpt lat="42.32079739695929" lon="13.421069635999425"><ele>595.0</ele><time>2026-05-03T11:05:24.999Z</time></trkpt><trkpt lat="42.32070592454214" lon="13.42121168375977"><ele>594.25</ele><time>2026-05-03T11:05:25.999Z</time></trkpt><trkpt lat="42.32061448181438" lon="13.421354761800306"><ele>593.5</ele><time>2026-05-03T11:05:26.999Z</time></trkpt><trkpt lat="42.32052439249107" lon="13.421495435145514"><ele>592.75</ele><time>2026-05-03T11:05:27.999Z</time></trkpt><trkpt lat="42.32043663795144" lon="13.421634569118488"><ele>592.0</ele><time>2026-05-03T11:05:28.999Z</time></trkpt><trkpt lat="42.320349986534765" lon="13.421776853642719"><ele>592.0</ele><time>2026-05-03T11:05:29.999Z</time></trkpt><trkpt lat="42.32026698282207" lon="13.421922886170023"><ele>592.0</ele><time>2026-05-03T11:05:30.999Z</time></trkpt><trkpt lat="42.32018465883514" lon="13.422074872359676"><ele>592.0</ele><time>2026-05-03T11:05:31.999Z</time></trkpt><trkpt lat="42.32010531943501" lon="13.422231551129052"><ele>592.0</ele><time>2026-05-03T11:05:32.999Z</time></trkpt><trkpt lat="42.32002838355572" lon="13.422389849270333"><ele>591.75</ele><time>2026-05-03T11:05:33.999Z</time></trkpt><trkpt lat="42.319953043735936" lon="13.422550392692274"><ele>591.5</ele><time>2026-05-03T11:05:34.999Z</time></trkpt><trkpt lat="42.31988073413504" lon="13.422714466473343"><ele>591.25</ele><time>2026-05-03T11:05:35.999Z</time></trkpt><trkpt lat="42.31981495546597" lon="13.422882176087551"><ele>591.0</ele><time>2026-05-03T11:05:36.999Z</time></trkpt><trkpt lat="42.31975972512545" lon="13.423057410050271"><ele>591.25</ele><time>2026-05-03T11:05:37.999Z</time></trkpt><trkpt lat="42.31971605898421" lon="13.423241044356057"><ele>591.5</ele><time>2026-05-03T11:05:38.999Z</time></trkpt><trkpt lat="42.31967951847159" lon="13.423423487909236"><ele>591.75</ele><time>2026-05-03T11:05:39.999Z</time></trkpt><trkpt lat="42.31964400447169" lon="13.423602962908635"><ele>592.0</ele><time>2026-05-03T11:05:40.999Z</time></trkpt><trkpt lat="42.3196096537235" lon="13.423781090319446"><ele>591.5</ele><time>2026-05-03T11:05:41.998Z</time></trkpt><trkpt lat="42.319575234846525" lon="13.423961920960238"><ele>591.0</ele><time>2026-05-03T11:05:42.998Z</time></trkpt><trkpt lat="42.31954118057568" lon="13.424143157793072"><ele>590.5</ele><time>2026-05-03T11:05:43.998Z</time></trkpt><trkpt lat="42.319507442513704" lon="13.424322737102498"><ele>590.0</ele><time>2026-05-03T11:05:45Z</time></trkpt><trkpt lat="42.31947427447618" lon="13.424500274919895"><ele>590.0</ele><time>2026-05-03T11:05:46Z</time></trkpt><trkpt lat="42.319440430150934" lon="13.42467706922423"><ele>590.0</ele><time>2026-05-03T11:05:47Z</time></trkpt><trkpt lat="42.31940771125903" lon="13.424851915392514"><ele>590.0</ele><time>2026-05-03T11:05:48Z</time></trkpt><trkpt lat="42.319376289469226" lon="13.425026827455705"><ele>590.0</ele><time>2026-05-03T11:05:49Z</time></trkpt><trkpt lat="42.31934592745887" lon="13.425201623974248"><ele>590.0</ele><time>2026-05-03T11:05:50Z</time></trkpt><trkpt lat="42.31931829969062" lon="13.425367772570521"><ele>590.0</ele><time>2026-05-03T11:05:51Z</time></trkpt><trkpt lat="42.31929093592109" lon="13.425530487188038"><ele>590.0</ele><time>2026-05-03T11:05:52Z</time></trkpt><trkpt lat="42.319263753284005" lon="13.425687933074057"><ele>590.0</ele><time>2026-05-03T11:05:53Z</time></trkpt><trkpt lat="42.31923573260019" lon="13.425841989747651"><ele>590.0</ele><time>2026-05-03T11:05:54Z</time></trkpt><trkpt lat="42.3192064272441" lon="13.425995381043666"><ele>590.0</ele><time>2026-05-03T11:05:55Z</time></trkpt><trkpt lat="42.31917709762681" lon="13.426151025094898"><ele>590.0</ele><time>2026-05-03T11:05:56Z</time></trkpt><trkpt lat="42.31914806423365" lon="13.426307106976907"><ele>590.0</ele><time>2026-05-03T11:05:57Z</time></trkpt><trkpt lat="42.3191197788636" lon="13.426462237670625"><ele>589.5</ele><time>2026-05-03T11:05:58Z</time></trkpt><trkpt lat="42.31909092030886" lon="13.426616183115987"><ele>589.0</ele><time>2026-05-03T11:05:59Z</time></trkpt><trkpt lat="42.319061810835365" lon="13.426767369932675"><ele>588.5</ele><time>2026-05-03T11:06:00Z</time></trkpt><trkpt lat="42.3190333245497" lon="13.426915396816286"><ele>588.0</ele><time>2026-05-03T11:06:01Z</time></trkpt><trkpt lat="42.319007054601805" lon="13.427062223562245"><ele>588.0</ele><time>2026-05-03T11:06:02Z</time></trkpt><trkpt lat="42.31898180376344" lon="13.427206691367473"><ele>588.0</ele><time>2026-05-03T11:06:03Z</time></trkpt><trkpt lat="42.31895650204523" lon="13.427345737709004"><ele>588.0</ele><time>2026-05-03T11:06:04Z</time></trkpt><trkpt lat="42.31893089682962" lon="13.427480271417934"><ele>588.0</ele><time>2026-05-03T11:06:05Z</time></trkpt><trkpt lat="42.31890553679346" lon="13.42761134021155"><ele>588.0</ele><time>2026-05-03T11:06:06Z</time></trkpt><trkpt lat="42.31888072047367" lon="13.42773844529897"><ele>588.6</ele><time>2026-05-03T11:06:07Z</time></trkpt><trkpt lat="42.318856313981506" lon="13.427863159289675"><ele>589.1999999999999</ele><time>2026-05-03T11:06:08Z</time></trkpt><trkpt lat="42.318832563454755" lon="13.427987658789085"><ele>589.8</ele><time>2026-05-03T11:06:09Z</time></trkpt><trkpt lat="42.318809860197824" lon="13.42811188614081"><ele>590.4</ele><time>2026-05-03T11:06:10Z</time></trkpt><trkpt lat="42.31878563683413" lon="13.428230393740895"><ele>591.0</ele><time>2026-05-03T11:06:11Z</time></trkpt><trkpt lat="42.31875458637252" lon="13.428340225841977"><ele>591.1666666666666</ele><time>2026-05-03T11:06:12Z</time></trkpt><trkpt lat="42.318718733069296" lon="13.428446345018108"><ele>591.3333333333334</ele><time>2026-05-03T11:06:13Z</time></trkpt><trkpt lat="42.31868198663543" lon="13.42855235359959"><ele>591.5</ele><time>2026-05-03T11:06:14Z</time></trkpt><trkpt lat="42.31865677808592" lon="13.428658796008577"><ele>591.6666666666667</ele><time>2026-05-03T11:06:15Z</time></trkpt><trkpt lat="42.31865577308071" lon="13.428763569310828"><ele>591.8333333333334</ele><time>2026-05-03T11:06:16Z</time></trkpt><trkpt lat="42.31867322637916" lon="13.428865753364448"><ele>592.0</ele><time>2026-05-03T11:06:17Z</time></trkpt><trkpt lat="42.31870874737188" lon="13.428961729727883"><ele>592.0</ele><time>2026-05-03T11:06:18Z</time></trkpt><trkpt lat="42.31874776255682" lon="13.429060508500253"><ele>592.0</ele><time>2026-05-03T11:06:19Z</time></trkpt><trkpt lat="42.318789750957684" lon="13.42916913797355"><ele>592.0</ele><time>2026-05-03T11:06:20Z</time></trkpt><trkpt lat="42.318824945361754" lon="13.429293684610565"><ele>592.0</ele><time>2026-05-03T11:06:21Z</time></trkpt><trkpt lat="42.318861018104485" lon="13.429441413172743"><ele>592.0</ele><time>2026-05-03T11:06:22Z</time></trkpt><trkpt lat="42.31890864442443" lon="13.429627152650863"><ele>590.6666666666667</ele><time>2026-05-03T11:06:23Z</time></trkpt><trkpt lat="42.31896080631667" lon="13.429845126004292"><ele>589.3333333333334</ele><time>2026-05-03T11:06:24Z</time></trkpt><trkpt lat="42.319013355497106" lon="13.430071933123862"><ele>588.0</ele><time>2026-05-03T11:06:25Z</time></trkpt><trkpt lat="42.31906773704918" lon="13.43030108298269"><ele>588.0</ele><time>2026-05-03T11:06:26Z</time></trkpt><trkpt lat="42.319122054423076" lon="13.43053083802062"><ele>588.0</ele><time>2026-05-03T11:06:27Z</time></trkpt><trkpt lat="42.31917884571389" lon="13.430759228833688"><ele>588.0</ele><time>2026-05-03T11:06:28Z</time></trkpt><trkpt lat="42.31923803339201" lon="13.43098733567444"><ele>588.0</ele><time>2026-05-03T11:06:29Z</time></trkpt><trkpt lat="42.31929944381595" lon="13.431215893389561"><ele>588.0</ele><time>2026-05-03T11:06:30Z</time></trkpt><trkpt lat="42.319363246664686" lon="13.431445933010691"><ele>588.0</ele><time>2026-05-03T11:06:31Z</time></trkpt><trkpt lat="42.31942861306341" lon="13.431676959002214"><ele>587.6666666666666</ele><time>2026-05-03T11:06:32Z</time></trkpt><trkpt lat="42.319494009465195" lon="13.431903569275294"><ele>587.3333333333333</ele><time>2026-05-03T11:06:33Z</time></trkpt><trkpt lat="42.319558524995855" lon="13.432122119683866"><ele>587.0</ele><time>2026-05-03T11:06:34Z</time></trkpt><trkpt lat="42.3196225437962" lon="13.43233330008664"><ele>586.75</ele><time>2026-05-03T11:06:35Z</time></trkpt><trkpt lat="42.319677774741315" lon="13.43252512281314"><ele>586.5</ele><time>2026-05-03T11:06:35.999Z</time></trkpt><trkpt lat="42.31973120035362" lon="13.432702939883775"><ele>586.25</ele><time>2026-05-03T11:06:36.999Z</time></trkpt><trkpt lat="42.319783819726766" lon="13.432873757068297"><ele>586.0</ele><time>2026-05-03T11:06:37.999Z</time></trkpt><trkpt lat="42.31983721720865" lon="13.433040289911858"><ele>586.5</ele><time>2026-05-03T11:06:38.999Z</time></trkpt><trkpt lat="42.31989295523499" lon="13.43321345080054"><ele>587.0</ele><time>2026-05-03T11:06:39.999Z</time></trkpt><trkpt lat="42.31994851282059" lon="13.433389216501276"><ele>587.5</ele><time>2026-05-03T11:06:40.999Z</time></trkpt><trkpt lat="42.32000849141817" lon="13.43356884358821"><ele>588.0</ele><time>2026-05-03T11:06:41.999Z</time></trkpt><trkpt lat="42.320077720993964" lon="13.433753800543787"><ele>588.3333333333334</ele><time>2026-05-03T11:06:42.999Z</time></trkpt><trkpt lat="42.32015906914728" lon="13.433964950134717"><ele>588.6666666666667</ele><time>2026-05-03T11:06:43.999Z</time></trkpt><trkpt lat="42.32024301280247" lon="13.434194174536282"><ele>589.0</ele><time>2026-05-03T11:06:44.999Z</time></trkpt><trkpt lat="42.32031895936404" lon="13.434441949790164"><ele>588.0</ele><time>2026-05-03T11:06:45.999Z</time></trkpt><trkpt lat="42.32039545089994" lon="13.434687378481792"><ele>587.0</ele><time>2026-05-03T11:06:46.999Z</time></trkpt><trkpt lat="42.32047968204824" lon="13.434928128460545"><ele>586.0</ele><time>2026-05-03T11:06:47.999Z</time></trkpt><trkpt lat="42.32057032300822" lon="13.435167706212916"><ele>586.0</ele><time>2026-05-03T11:06:48.999Z</time></trkpt><trkpt lat="42.32066556935372" lon="13.435410088295693"><ele>586.0</ele><time>2026-05-03T11:06:49.999Z</time></trkpt><trkpt lat="42.32076262460988" lon="13.435655655403057"><ele>586.0</ele><time>2026-05-03T11:06:50.999Z</time></trkpt><trkpt lat="42.32086182438865" lon="13.435903802353316"><ele>586.0</ele><time>2026-05-03T11:06:51.999Z</time></trkpt><trkpt lat="42.32096421661971" lon="13.43615529390659"><ele>586.0</ele><time>2026-05-03T11:06:52.999Z</time></trkpt><trkpt lat="42.321072381655036" lon="13.436407541704815"><ele>586.0</ele><time>2026-05-03T11:06:53.999Z</time></trkpt><trkpt lat="42.321183859465215" lon="13.43665439989584"><ele>586.0</ele><time>2026-05-03T11:06:54.999Z</time></trkpt><trkpt lat="42.32129865301017" lon="13.436918356388214"><ele>586.0</ele><time>2026-05-03T11:06:55.999Z</time></trkpt><trkpt lat="42.321422483595356" lon="13.437186771635792"><ele>586.3333333333334</ele><time>2026-05-03T11:06:56.999Z</time></trkpt><trkpt lat="42.32154623696734" lon="13.437449431643834"><ele>586.6666666666666</ele><time>2026-05-03T11:06:57.999Z</time></trkpt><trkpt lat="42.32159941756019" lon="13.437641286345007"><ele>587.0</ele><time>2026-05-03T11:06:58.999Z</time></trkpt><trkpt lat="42.321709501339555" lon="13.437881702329845"><ele>587.0</ele><time>2026-05-03T11:06:59.999Z</time></trkpt><trkpt lat="42.32181503135221" lon="13.438121694729281"><ele>587.0</ele><time>2026-05-03T11:07:00.999Z</time></trkpt><trkpt lat="42.321919315560265" lon="13.438359413928831"><ele>587.0</ele><time>2026-05-03T11:07:01.999Z</time></trkpt><trkpt lat="42.32202213511513" lon="13.43859890891805"><ele>586.6666666666666</ele><time>2026-05-03T11:07:02.999Z</time></trkpt><trkpt lat="42.322124830515364" lon="13.43883888693812"><ele>586.3333333333334</ele><time>2026-05-03T11:07:03.999Z</time></trkpt><trkpt lat="42.32222772420659" lon="13.439074286605562"><ele>586.0</ele><time>2026-05-03T11:07:04.999Z</time></trkpt><trkpt lat="42.32232912147726" lon="13.439311774995554"><ele>586.6666666666667</ele><time>2026-05-03T11:07:05.999Z</time></trkpt><trkpt lat="42.32242901732791" lon="13.439546281054637"><ele>587.3333333333334</ele><time>2026-05-03T11:07:06.999Z</time></trkpt><trkpt lat="42.32252499927961" lon="13.439772408521248"><ele>588.0</ele><time>2026-05-03T11:07:07.999Z</time></trkpt><trkpt lat="42.322620533269856" lon="13.439987213551674"><ele>588.0</ele><time>2026-05-03T11:07:08.999Z</time></trkpt><trkpt lat="42.32271187414743" lon="13.440191906769847"><ele>588.0</ele><time>2026-05-03T11:07:09.999Z</time></trkpt><trkpt lat="42.322801101043964" lon="13.440390114197712"><ele>588.0</ele><time>2026-05-03T11:07:10.999Z</time></trkpt><trkpt lat="42.32288988449047" lon="13.440587550443777"><ele>588.3333333333334</ele><time>2026-05-03T11:07:11.999Z</time></trkpt><trkpt lat="42.32297589686873" lon="13.440779231577332"><ele>588.6666666666667</ele><time>2026-05-03T11:07:12.999Z</time></trkpt><trkpt lat="42.32305684134281" lon="13.440964407806003"><ele>589.0</ele><time>2026-05-03T11:07:13.999Z</time></trkpt><trkpt lat="42.32313339690816" lon="13.441145487219115"><ele>588.0</ele><time>2026-05-03T11:07:14.999Z</time></trkpt><trkpt lat="42.323201745783045" lon="13.441311221132876"><ele>587.0</ele><time>2026-05-03T11:07:15.999Z</time></trkpt><trkpt lat="42.32326093152332" lon="13.441455536353851"><ele>586.0</ele><time>2026-05-03T11:07:16.999Z</time></trkpt><trkpt lat="42.32331309655554" lon="13.441581286169693"><ele>585.0</ele><time>2026-05-03T11:07:17.999Z</time></trkpt><trkpt lat="42.32334954969122" lon="13.441692226896407"><ele>585.0</ele><time>2026-05-03T11:07:18.999Z</time></trkpt><trkpt lat="42.323365966261456" lon="13.441802010160206"><ele>585.0</ele><time>2026-05-03T11:07:19.999Z</time></trkpt><trkpt lat="42.323352514988" lon="13.441900570035953"><ele>585.0</ele><time>2026-05-03T11:07:20.999Z</time></trkpt><trkpt lat="42.323350112663206" lon="13.442019733218588"><ele>585.0</ele><time>2026-05-03T11:07:21.999Z</time></trkpt><trkpt lat="42.323352272669304" lon="13.442146127551597"><ele>585.0</ele><time>2026-05-03T11:07:22.999Z</time></trkpt><trkpt lat="42.32336312479379" lon="13.442276444246575"><ele>585.0</ele><time>2026-05-03T11:07:23.999Z</time></trkpt><trkpt lat="42.323384917857695" lon="13.442409275739026"><ele>585.0</ele><time>2026-05-03T11:07:24.999Z</time></trkpt><trkpt lat="42.323410969273915" lon="13.44254138390839"><ele>585.0</ele><time>2026-05-03T11:07:25.999Z</time></trkpt><trkpt lat="42.323434563539294" lon="13.442675148744373"><ele>585.0</ele><time>2026-05-03T11:07:26.999Z</time></trkpt><trkpt lat="42.32344918202005" lon="13.442815685520054"><ele>585.0</ele><time>2026-05-03T11:07:27.999Z</time></trkpt><trkpt lat="42.3234397261387" lon="13.442965483126754"><ele>585.0</ele><time>2026-05-03T11:07:28.999Z</time></trkpt><trkpt lat="42.32340117780042" lon="13.443118614112207"><ele>585.5</ele><time>2026-05-03T11:07:29.999Z</time></trkpt><trkpt lat="42.32334664688606" lon="13.443277686654639"><ele>586.0</ele><time>2026-05-03T11:07:30.999Z</time></trkpt><trkpt lat="42.32329814927617" lon="13.44344495017596"><ele>586.5</ele><time>2026-05-03T11:07:31.999Z</time></trkpt><trkpt lat="42.323252787417296" lon="13.44361988095595"><ele>587.0</ele><time>2026-05-03T11:07:32.999Z</time></trkpt><trkpt lat="42.323207431626614" lon="13.443798578586906"><ele>587.25</ele><time>2026-05-03T11:07:33.999Z</time></trkpt><trkpt lat="42.32316191990879" lon="13.443979243712448"><ele>587.5</ele><time>2026-05-03T11:07:34.999Z</time></trkpt><trkpt lat="42.323119155448055" lon="13.444164314985487"><ele>587.75</ele><time>2026-05-03T11:07:35.999Z</time></trkpt><trkpt lat="42.323075140404384" lon="13.444354123943514"><ele>588.0</ele><time>2026-05-03T11:07:36.999Z</time></trkpt><trkpt lat="42.32302882848567" lon="13.44455037479378"><ele>587.3333333333334</ele><time>2026-05-03T11:07:37.999Z</time></trkpt><trkpt lat="42.32299152287141" lon="13.444764110260257"><ele>586.6666666666667</ele><time>2026-05-03T11:07:38.999Z</time></trkpt><trkpt lat="42.32293917139466" lon="13.44500617728405"><ele>586.0</ele><time>2026-05-03T11:07:39.999Z</time></trkpt><trkpt lat="42.32289323228408" lon="13.445274795434687"><ele>586.0</ele><time>2026-05-03T11:07:40.999Z</time></trkpt><trkpt lat="42.322858091271925" lon="13.445541829091031"><ele>586.0</ele><time>2026-05-03T11:07:41.999Z</time></trkpt><trkpt lat="42.322799561789935" lon="13.445796535384064"><ele>586.0</ele><time>2026-05-03T11:07:42.999Z</time></trkpt><trkpt lat="42.32274859885816" lon="13.446048160595979"><ele>586.0</ele><time>2026-05-03T11:07:43.999Z</time></trkpt><trkpt lat="42.322703617777336" lon="13.446301047455986"><ele>586.0</ele><time>2026-05-03T11:07:44.999Z</time></trkpt><trkpt lat="42.322664865827704" lon="13.44655153344144"><ele>586.0</ele><time>2026-05-03T11:07:45.999Z</time></trkpt><trkpt lat="42.32262443113148" lon="13.446805014962479"><ele>586.0</ele><time>2026-05-03T11:07:46.999Z</time></trkpt><trkpt lat="42.322590292991414" lon="13.447059351328514"><ele>586.0</ele><time>2026-05-03T11:07:47.999Z</time></trkpt><trkpt lat="42.3225675971108" lon="13.447316732589695"><ele>586.0</ele><time>2026-05-03T11:07:48.998Z</time></trkpt><trkpt lat="42.32255207559896" lon="13.447575852496366"><ele>585.6666666666667</ele><time>2026-05-03T11:07:49.998Z</time></trkpt><trkpt lat="42.32253834936495" lon="13.447836250392427"><ele>585.3333333333334</ele><time>2026-05-03T11:07:51Z</time></trkpt><trkpt lat="42.322522959638" lon="13.44810154081881"><ele>585.0</ele><time>2026-05-03T11:07:52Z</time></trkpt><trkpt lat="42.322505812301316" lon="13.448367209022631"><ele>585.0</ele><time>2026-05-03T11:07:53Z</time></trkpt><trkpt lat="42.32248866666701" lon="13.448632024727189"><ele>585.0</ele><time>2026-05-03T11:07:54Z</time></trkpt><trkpt lat="42.322470277886936" lon="13.4488967816435"><ele>585.0</ele><time>2026-05-03T11:07:55Z</time></trkpt><trkpt lat="42.322452298992474" lon="13.449160498798241"><ele>585.0</ele><time>2026-05-03T11:07:56Z</time></trkpt><trkpt lat="42.32243281946022" lon="13.449424150400398"><ele>585.0</ele><time>2026-05-03T11:07:57Z</time></trkpt><trkpt lat="42.322409969929375" lon="13.449685799769224"><ele>585.0</ele><time>2026-05-03T11:07:58Z</time></trkpt><trkpt lat="42.322380027008506" lon="13.44994403512242"><ele>585.3333333333334</ele><time>2026-05-03T11:07:59Z</time></trkpt><trkpt lat="42.32235314731039" lon="13.45020108981769"><ele>585.6666666666667</ele><time>2026-05-03T11:08:00Z</time></trkpt><trkpt lat="42.32232697737619" lon="13.450458234715592"><ele>586.0</ele><time>2026-05-03T11:08:01Z</time></trkpt><trkpt lat="42.3223019519888" lon="13.450716202686495"><ele>586.0</ele><time>2026-05-03T11:08:02Z</time></trkpt><trkpt lat="42.322279250269155" lon="13.45097181912934"><ele>586.0</ele><time>2026-05-03T11:08:03Z</time></trkpt><trkpt lat="42.32225552916352" lon="13.451228354144384"><ele>586.0</ele><time>2026-05-03T11:08:04Z</time></trkpt><trkpt lat="42.32223593377924" lon="13.45148037504548"><ele>586.3333333333334</ele><time>2026-05-03T11:08:05Z</time></trkpt><trkpt lat="42.322224547513215" lon="13.451727989080034"><ele>586.6666666666666</ele><time>2026-05-03T11:08:06Z</time></trkpt><trkpt lat="42.322220825640194" lon="13.45197204661405"><ele>587.0</ele><time>2026-05-03T11:08:07Z</time></trkpt><trkpt lat="42.32222033604149" lon="13.452219757255715"><ele>587.0</ele><time>2026-05-03T11:08:08Z</time></trkpt><trkpt lat="42.3222135068821" lon="13.452466415066976"><ele>587.0</ele><time>2026-05-03T11:08:09Z</time></trkpt><trkpt lat="42.322198553715324" lon="13.452713562679698"><ele>587.0</ele><time>2026-05-03T11:08:10Z</time></trkpt><trkpt lat="42.32217782674604" lon="13.452963887933082"><ele>587.0</ele><time>2026-05-03T11:08:11Z</time></trkpt><trkpt lat="42.32215111127042" lon="13.453216321873374"><ele>587.0</ele><time>2026-05-03T11:08:12Z</time></trkpt><trkpt lat="42.32211775033967" lon="13.453473529319162"><ele>587.0</ele><time>2026-05-03T11:08:13Z</time></trkpt><trkpt lat="42.32208183545395" lon="13.453730566936708"><ele>587.0</ele><time>2026-05-03T11:08:14Z</time></trkpt><trkpt lat="42.322046442767096" lon="13.453985088650096"><ele>587.0</ele><time>2026-05-03T11:08:15Z</time></trkpt><trkpt lat="42.322007958648165" lon="13.454246743504056"><ele>587.0</ele><time>2026-05-03T11:08:16Z</time></trkpt><trkpt lat="42.32196909962536" lon="13.454502411579243"><ele>586.3333333333333</ele><time>2026-05-03T11:08:17Z</time></trkpt><trkpt lat="42.32193124115727" lon="13.45475675321581"><ele>585.6666666666666</ele><time>2026-05-03T11:08:18Z</time></trkpt><trkpt lat="42.32189708009261" lon="13.45500222672801"><ele>585.0</ele><time>2026-05-03T11:08:19Z</time></trkpt><trkpt lat="42.32186350189407" lon="13.45523525853248"><ele>584.6666666666666</ele><time>2026-05-03T11:08:20Z</time></trkpt><trkpt lat="42.32183080192432" lon="13.455455801998722"><ele>584.3333333333333</ele><time>2026-05-03T11:08:21Z</time></trkpt><trkpt lat="42.32179995685895" lon="13.455668401890916"><ele>584.0</ele><time>2026-05-03T11:08:22Z</time></trkpt><trkpt lat="42.32176842028362" lon="13.45587501104594"><ele>584.0</ele><time>2026-05-03T11:08:23Z</time></trkpt><trkpt lat="42.32173638581364" lon="13.456084401654063"><ele>584.0</ele><time>2026-05-03T11:08:24Z</time></trkpt><trkpt lat="42.32170675376132" lon="13.456299067392045"><ele>584.0</ele><time>2026-05-03T11:08:25Z</time></trkpt><trkpt lat="42.32167796450312" lon="13.4565118546816"><ele>584.3333333333333</ele><time>2026-05-03T11:08:26Z</time></trkpt><trkpt lat="42.32164877387721" lon="13.456720421113245"><ele>584.6666666666666</ele><time>2026-05-03T11:08:27Z</time></trkpt><trkpt lat="42.32162028374384" lon="13.456927053263485"><ele>585.0</ele><time>2026-05-03T11:08:28Z</time></trkpt><trkpt lat="42.32159006688865" lon="13.457132184854"><ele>585.0</ele><time>2026-05-03T11:08:29Z</time></trkpt><trkpt lat="42.32155445117644" lon="13.457338852179912"><ele>585.0</ele><time>2026-05-03T11:08:30Z</time></trkpt><trkpt lat="42.32151183345299" lon="13.45754264554944"><ele>585.0</ele><time>2026-05-03T11:08:31Z</time></trkpt><trkpt lat="42.32146286681467" lon="13.457741045181615"><ele>585.0</ele><time>2026-05-03T11:08:32Z</time></trkpt><trkpt lat="42.32141204839369" lon="13.457940170123301"><ele>585.0</ele><time>2026-05-03T11:08:33Z</time></trkpt><trkpt lat="42.32135886269153" lon="13.458137129378972"><ele>585.0</ele><time>2026-05-03T11:08:34Z</time></trkpt><trkpt lat="42.32130305133289" lon="13.458333707635827"><ele>585.0</ele><time>2026-05-03T11:08:35Z</time></trkpt><trkpt lat="42.321250104441965" lon="13.458532886887843"><ele>585.0</ele><time>2026-05-03T11:08:36Z</time></trkpt><trkpt lat="42.32120459692565" lon="13.458736296254852"><ele>585.0</ele><time>2026-05-03T11:08:37Z</time></trkpt><trkpt lat="42.32116215205544" lon="13.458943211179227"><ele>584.6666666666666</ele><time>2026-05-03T11:08:38Z</time></trkpt><trkpt lat="42.32112133027013" lon="13.459151887237152"><ele>584.3333333333333</ele><time>2026-05-03T11:08:39Z</time></trkpt><trkpt lat="42.32108089339637" lon="13.459360554121536"><ele>584.0</ele><time>2026-05-03T11:08:40Z</time></trkpt><trkpt lat="42.321041293554906" lon="13.459572448121412"><ele>584.0</ele><time>2026-05-03T11:08:41Z</time></trkpt><trkpt lat="42.321001641641864" lon="13.459781392732062"><ele>584.0</ele><time>2026-05-03T11:08:42Z</time></trkpt><trkpt lat="42.32096089633353" lon="13.459987543315847"><ele>584.0</ele><time>2026-05-03T11:08:43Z</time></trkpt><trkpt lat="42.32092044483108" lon="13.460189842400371"><ele>584.0</ele><time>2026-05-03T11:08:43.999Z</time></trkpt><trkpt lat="42.320881161254164" lon="13.460397724977081"><ele>584.0</ele><time>2026-05-03T11:08:44.999Z</time></trkpt><trkpt lat="42.32084488468406" lon="13.460602915741664"><ele>584.0</ele><time>2026-05-03T11:08:45.999Z</time></trkpt><trkpt lat="42.32081079291553" lon="13.46080793660066"><ele>584.3333333333333</ele><time>2026-05-03T11:08:46.999Z</time></trkpt><trkpt lat="42.32078355478632" lon="13.461015330539126"><ele>584.6666666666666</ele><time>2026-05-03T11:08:47.999Z</time></trkpt><trkpt lat="42.32076624619244" lon="13.461221925262496"><ele>585.0</ele><time>2026-05-03T11:08:48.999Z</time></trkpt><trkpt lat="42.320747591611756" lon="13.461433337551664"><ele>585.6666666666666</ele><time>2026-05-03T11:08:49.999Z</time></trkpt><trkpt lat="42.320727220790936" lon="13.4616433228237"><ele>586.3333333333333</ele><time>2026-05-03T11:08:50.999Z</time></trkpt><trkpt lat="42.320706161770595" lon="13.461857576832756"><ele>587.0</ele><time>2026-05-03T11:08:51.999Z</time></trkpt><trkpt lat="42.32068523027335" lon="13.462067173127492"><ele>586.0</ele><time>2026-05-03T11:08:52.999Z</time></trkpt><trkpt lat="42.320666169414075" lon="13.462273458877569"><ele>585.0</ele><time>2026-05-03T11:08:53.999Z</time></trkpt><trkpt lat="42.32064767283354" lon="13.462480826696371"><ele>584.0</ele><time>2026-05-03T11:08:54.999Z</time></trkpt><trkpt lat="42.32063082751832" lon="13.462685035350844"><ele>584.0</ele><time>2026-05-03T11:08:55.999Z</time></trkpt><trkpt lat="42.32061163173164" lon="13.462888838905755"><ele>584.0</ele><time>2026-05-03T11:08:56.999Z</time></trkpt><trkpt lat="42.32059251168691" lon="13.463093892929216"><ele>584.0</ele><time>2026-05-03T11:08:57.999Z</time></trkpt><trkpt lat="42.32057502261145" lon="13.463294455876872"><ele>584.75</ele><time>2026-05-03T11:08:58.999Z</time></trkpt><trkpt lat="42.32055436536749" lon="13.463496754876966"><ele>585.5</ele><time>2026-05-03T11:08:59.999Z</time></trkpt><trkpt lat="42.32053464740509" lon="13.463695066651997"><ele>586.25</ele><time>2026-05-03T11:09:00.999Z</time></trkpt><trkpt lat="42.320514802217424" lon="13.463892685641484"><ele>587.0</ele><time>2026-05-03T11:09:01.999Z</time></trkpt><trkpt lat="42.32049605437995" lon="13.464087258445058"><ele>587.5</ele><time>2026-05-03T11:09:02.999Z</time></trkpt><trkpt lat="42.320478055336146" lon="13.464276431072955"><ele>588.0</ele><time>2026-05-03T11:09:03.999Z</time></trkpt><trkpt lat="42.32046287424709" lon="13.464457375252142"><ele>588.5</ele><time>2026-05-03T11:09:04.999Z</time></trkpt><trkpt lat="42.32044339767797" lon="13.464631219652153"><ele>589.0</ele><time>2026-05-03T11:09:05.999Z</time></trkpt><trkpt lat="42.32042705388494" lon="13.464793607940777"><ele>589.8</ele><time>2026-05-03T11:09:06.999Z</time></trkpt><trkpt lat="42.320412095697776" lon="13.46494161201201"><ele>590.5999999999999</ele><time>2026-05-03T11:09:07.999Z</time></trkpt><trkpt lat="42.32040707450228" lon="13.465044398159163"><ele>591.4</ele><time>2026-05-03T11:09:08.999Z</time></trkpt><trkpt lat="42.32040399409375" lon="13.465174222125441"><ele>592.1999999999999</ele><time>2026-05-03T11:09:10.999Z</time></trkpt><trkpt lat="42.32040592340192" lon="13.465272163236932"><ele>593.0</ele><time>2026-05-03T11:09:12.999Z</time></trkpt><trkpt lat="42.320409970517275" lon="13.465404661575027"><ele>593.8</ele><time>2026-05-03T11:09:14.999Z</time></trkpt><trkpt lat="42.32045325727752" lon="13.465553943739396"><ele>594.5999999999999</ele><time>2026-05-03T11:09:16.999Z</time></trkpt><trkpt lat="42.32049400730076" lon="13.465619344630987"><ele>595.4000000000001</ele><time>2026-05-03T11:09:17.999Z</time></trkpt><trkpt lat="42.32057871336938" lon="13.46575330633147"><ele>596.2</ele><time>2026-05-03T11:09:19.999Z</time></trkpt><trkpt lat="42.320617977404815" lon="13.465829574447586"><ele>597.0</ele><time>2026-05-03T11:09:20.999Z</time></trkpt><trkpt lat="42.32066428130238" lon="13.465918590110366"><ele>597.0</ele><time>2026-05-03T11:09:21.999Z</time></trkpt><trkpt lat="42.32071829075265" lon="13.466000916403"><ele>597.0</ele><time>2026-05-03T11:09:22.999Z</time></trkpt><trkpt lat="42.32076832779881" lon="13.466072640217646"><ele>597.0</ele><time>2026-05-03T11:09:23.999Z</time></trkpt><trkpt lat="42.32079941360791" lon="13.466172478790249"><ele>597.0</ele><time>2026-05-03T11:09:24.999Z</time></trkpt><trkpt lat="42.32083155984853" lon="13.466255085858792"><ele>597.0</ele><time>2026-05-03T11:09:25.999Z</time></trkpt><trkpt lat="42.32084335891997" lon="13.466346798845516"><ele>597.0</ele><time>2026-05-03T11:09:26.999Z</time></trkpt><trkpt lat="42.3208298629034" lon="13.466456088668814"><ele>596.2</ele><time>2026-05-03T11:09:27.999Z</time></trkpt><trkpt lat="42.320789011945365" lon="13.46657113557716"><ele>595.4000000000001</ele><time>2026-05-03T11:09:28.999Z</time></trkpt><trkpt lat="42.32074728838267" lon="13.46670125130286"><ele>594.5999999999999</ele><time>2026-05-03T11:09:29.999Z</time></trkpt><trkpt lat="42.32070562081768" lon="13.466835645840284"><ele>593.8</ele><time>2026-05-03T11:09:30.999Z</time></trkpt><trkpt lat="42.32066908661182" lon="13.466966646783234"><ele>593.0</ele><time>2026-05-03T11:09:31.999Z</time></trkpt><trkpt lat="42.32063496296035" lon="13.467099781777184"><ele>591.25</ele><time>2026-05-03T11:09:32.999Z</time></trkpt><trkpt lat="42.320598406088" lon="13.467233325974014"><ele>589.5</ele><time>2026-05-03T11:09:33.999Z</time></trkpt><trkpt lat="42.320553831010656" lon="13.467368983699687"><ele>587.75</ele><time>2026-05-03T11:09:34.999Z</time></trkpt><trkpt lat="42.32049351030971" lon="13.467504084315676"><ele>586.0</ele><time>2026-05-03T11:09:35.999Z</time></trkpt><trkpt lat="42.32042296968755" lon="13.467639155440194"><ele>588.0</ele><time>2026-05-03T11:09:36.999Z</time></trkpt><trkpt lat="42.32034643352158" lon="13.467782831098324"><ele>590.0</ele><time>2026-05-03T11:09:37.999Z</time></trkpt><trkpt lat="42.32026669163681" lon="13.467930755602891"><ele>592.0</ele><time>2026-05-03T11:09:38.999Z</time></trkpt><trkpt lat="42.32018437934794" lon="13.468088489186647"><ele>594.0</ele><time>2026-05-03T11:09:39.999Z</time></trkpt><trkpt lat="42.32009987841623" lon="13.468249263070403"><ele>594.0</ele><time>2026-05-03T11:09:40.999Z</time></trkpt><trkpt lat="42.32001923599439" lon="13.468412115009167"><ele>594.0</ele><time>2026-05-03T11:09:41.999Z</time></trkpt><trkpt lat="42.31994098077389" lon="13.468581446109779"><ele>594.0</ele><time>2026-05-03T11:09:42.999Z</time></trkpt><trkpt lat="42.31986378625152" lon="13.468747078617474"><ele>594.0</ele><time>2026-05-03T11:09:43.999Z</time></trkpt><trkpt lat="42.319787190434326" lon="13.468903824304059"><ele>594.75</ele><time>2026-05-03T11:09:44.999Z</time></trkpt><trkpt lat="42.31970643250214" lon="13.46904853226083"><ele>595.5</ele><time>2026-05-03T11:09:45.999Z</time></trkpt><trkpt lat="42.31961357810877" lon="13.469186043081521"><ele>596.25</ele><time>2026-05-03T11:09:46.999Z</time></trkpt><trkpt lat="42.319508977672214" lon="13.469312654306048"><ele>597.0</ele><time>2026-05-03T11:09:47.999Z</time></trkpt><trkpt lat="42.31939504608515" lon="13.469435100355197"><ele>597.0</ele><time>2026-05-03T11:09:48.999Z</time></trkpt><trkpt lat="42.31927565802127" lon="13.469554666593366"><ele>597.0</ele><time>2026-05-03T11:09:49.999Z</time></trkpt><trkpt lat="42.31914923623063" lon="13.46967346791672"><ele>597.0</ele><time>2026-05-03T11:09:50.999Z</time></trkpt><trkpt lat="42.31901980296982" lon="13.469790333968374"><ele>594.6666666666666</ele><time>2026-05-03T11:09:51.999Z</time></trkpt><trkpt lat="42.31888432626274" lon="13.46990594311227"><ele>592.3333333333333</ele><time>2026-05-03T11:09:52.999Z</time></trkpt><trkpt lat="42.318747249858895" lon="13.470021503392251"><ele>590.0</ele><time>2026-05-03T11:09:53.999Z</time></trkpt><trkpt lat="42.31860961975729" lon="13.470139683428691"><ele>590.0</ele><time>2026-05-03T11:09:54.999Z</time></trkpt><trkpt lat="42.318470513490844" lon="13.470259711901047"><ele>590.0</ele><time>2026-05-03T11:09:55.999Z</time></trkpt><trkpt lat="42.31832988870006" lon="13.470380013013783"><ele>590.0</ele><time>2026-05-03T11:09:57Z</time></trkpt><trkpt lat="42.31818959830035" lon="13.470496811479236"><ele>589.0</ele><time>2026-05-03T11:09:58Z</time></trkpt><trkpt lat="42.31805008718973" lon="13.470616395993504"><ele>588.0</ele><time>2026-05-03T11:09:59Z</time></trkpt><trkpt lat="42.31791066159731" lon="13.470737670447564"><ele>587.0</ele><time>2026-05-03T11:10:00Z</time></trkpt><trkpt lat="42.31777157589296" lon="13.470859829752564"><ele>587.0</ele><time>2026-05-03T11:10:01Z</time></trkpt><trkpt lat="42.317634711070745" lon="13.470983004632908"><ele>587.0</ele><time>2026-05-03T11:10:02Z</time></trkpt><trkpt lat="42.317501889700374" lon="13.47110967597024"><ele>587.0</ele><time>2026-05-03T11:10:03Z</time></trkpt><trkpt lat="42.31737101839902" lon="13.471241695357039"><ele>585.0</ele><time>2026-05-03T11:10:04Z</time></trkpt><trkpt lat="42.317240545817846" lon="13.471380088076206"><ele>583.0</ele><time>2026-05-03T11:10:05Z</time></trkpt><trkpt lat="42.317105406890995" lon="13.471523113648901"><ele>581.0</ele><time>2026-05-03T11:10:06Z</time></trkpt><trkpt lat="42.316966998924904" lon="13.471668380804871"><ele>581.0</ele><time>2026-05-03T11:10:07Z</time></trkpt><trkpt lat="42.31682633788775" lon="13.471815149331386"><ele>581.0</ele><time>2026-05-03T11:10:08Z</time></trkpt><trkpt lat="42.31668612933219" lon="13.4719666301114"><ele>581.0</ele><time>2026-05-03T11:10:09Z</time></trkpt><trkpt lat="42.3165443430973" lon="13.472121537845842"><ele>581.0</ele><time>2026-05-03T11:10:10Z</time></trkpt><trkpt lat="42.31640155780547" lon="13.47227855328114"><ele>581.0</ele><time>2026-05-03T11:10:11Z</time></trkpt><trkpt lat="42.31625839401022" lon="13.47243575888672"><ele>581.0</ele><time>2026-05-03T11:10:12Z</time></trkpt><trkpt lat="42.316121266368924" lon="13.472585853450362"><ele>581.0</ele><time>2026-05-03T11:10:13Z</time></trkpt><trkpt lat="42.31598865344803" lon="13.472728926532191"><ele>581.0</ele><time>2026-05-03T11:10:14Z</time></trkpt><trkpt lat="42.31585878218166" lon="13.472863663183412"><ele>581.0</ele><time>2026-05-03T11:10:15Z</time></trkpt><trkpt lat="42.315723458188494" lon="13.472989387452044"><ele>579.6666666666666</ele><time>2026-05-03T11:10:16Z</time></trkpt><trkpt lat="42.315579094503484" lon="13.473098872292168"><ele>578.3333333333334</ele><time>2026-05-03T11:10:17Z</time></trkpt><trkpt lat="42.31542706181689" lon="13.473197650727833"><ele>577.0</ele><time>2026-05-03T11:10:18Z</time></trkpt><trkpt lat="42.315269271783464" lon="13.47329408350033"><ele>577.0</ele><time>2026-05-03T11:10:19Z</time></trkpt><trkpt lat="42.31509125657278" lon="13.473367195227977"><ele>577.0</ele><time>2026-05-03T11:10:20Z</time></trkpt><trkpt lat="42.3149147466955" lon="13.473461627556489"><ele>577.0</ele><time>2026-05-03T11:10:21Z</time></trkpt><trkpt lat="42.31473933506335" lon="13.473579220899168"><ele>577.0</ele><time>2026-05-03T11:10:22Z</time></trkpt><trkpt lat="42.3145579306704" lon="13.47367878578682"><ele>577.0</ele><time>2026-05-03T11:10:23Z</time></trkpt><trkpt lat="42.31437704703613" lon="13.47377757049357"><ele>577.0</ele><time>2026-05-03T11:10:24Z</time></trkpt><trkpt lat="42.31420261721943" lon="13.473870316633889"><ele>577.0</ele><time>2026-05-03T11:10:25Z</time></trkpt><trkpt lat="42.314039563015214" lon="13.473960371043475"><ele>577.0</ele><time>2026-05-03T11:10:26Z</time></trkpt><trkpt lat="42.313881702595296" lon="13.474046048928583"><ele>577.0</ele><time>2026-05-03T11:10:27Z</time></trkpt><trkpt lat="42.31372773266487" lon="13.474130426961827"><ele>578.3333333333334</ele><time>2026-05-03T11:10:28Z</time></trkpt><trkpt lat="42.31357905656242" lon="13.474212029387779"><ele>579.6666666666666</ele><time>2026-05-03T11:10:29Z</time></trkpt><trkpt lat="42.31343153720818" lon="13.47429369002586"><ele>581.0</ele><time>2026-05-03T11:10:30Z</time></trkpt><trkpt lat="42.313271971014274" lon="13.474344341378552"><ele>581.0</ele><time>2026-05-03T11:10:31Z</time></trkpt><trkpt lat="42.31310402500408" lon="13.474379250827656"><ele>581.0</ele><time>2026-05-03T11:10:32Z</time></trkpt><trkpt lat="42.31292444029535" lon="13.47438959590293"><ele>581.0</ele><time>2026-05-03T11:10:33Z</time></trkpt><trkpt lat="42.31273871805311" lon="13.474414853767088"><ele>583.0</ele><time>2026-05-03T11:10:34Z</time></trkpt><trkpt lat="42.31255745689526" lon="13.474420051207739"><ele>585.0</ele><time>2026-05-03T11:10:35Z</time></trkpt><trkpt lat="42.31238470819611" lon="13.4744269712156"><ele>587.0</ele><time>2026-05-03T11:10:36Z</time></trkpt><trkpt lat="42.31222259825545" lon="13.474436185464842"><ele>589.0</ele><time>2026-05-03T11:10:37Z</time></trkpt><trkpt lat="42.31206568009818" lon="13.474458304425305"><ele>591.0</ele><time>2026-05-03T11:10:38Z</time></trkpt><trkpt lat="42.31191232012329" lon="13.474516359027326"><ele>593.0</ele><time>2026-05-03T11:10:39Z</time></trkpt><trkpt lat="42.31175861029566" lon="13.47461572072965"><ele>589.3333333333333</ele><time>2026-05-03T11:10:40Z</time></trkpt><trkpt lat="42.31160153089199" lon="13.474735635469168"><ele>585.6666666666666</ele><time>2026-05-03T11:10:41Z</time></trkpt><trkpt lat="42.311441608921676" lon="13.474863839747591"><ele>582.0</ele><time>2026-05-03T11:10:42Z</time></trkpt><trkpt lat="42.31128165526673" lon="13.474993807897423"><ele>582.0</ele><time>2026-05-03T11:10:43Z</time></trkpt><trkpt lat="42.31112008543461" lon="13.475121698548163"><ele>582.0</ele><time>2026-05-03T11:10:44Z</time></trkpt><trkpt lat="42.31095802841299" lon="13.475247160558135"><ele>582.0</ele><time>2026-05-03T11:10:44.999Z</time></trkpt><trkpt lat="42.31079764756167" lon="13.475372259826512"><ele>581.6666666666666</ele><time>2026-05-03T11:10:45.999Z</time></trkpt><trkpt lat="42.31063633544525" lon="13.4755004736049"><ele>581.3333333333333</ele><time>2026-05-03T11:10:46.999Z</time></trkpt><trkpt lat="42.31047495978554" lon="13.475629802358434"><ele>581.0</ele><time>2026-05-03T11:10:47.999Z</time></trkpt><trkpt lat="42.31031211646409" lon="13.475757892285824"><ele>581.0</ele><time>2026-05-03T11:10:48.999Z</time></trkpt><trkpt lat="42.31015215347077" lon="13.475888114785608"><ele>581.0</ele><time>2026-05-03T11:10:49.999Z</time></trkpt><trkpt lat="42.3099942967663" lon="13.476016568439423"><ele>581.0</ele><time>2026-05-03T11:10:50.999Z</time></trkpt><trkpt lat="42.309837379980195" lon="13.476142815861506"><ele>581.6666666666666</ele><time>2026-05-03T11:10:51.999Z</time></trkpt><trkpt lat="42.30968052590747" lon="13.47626757403518"><ele>582.3333333333334</ele><time>2026-05-03T11:10:52.999Z</time></trkpt><trkpt lat="42.3095264081019" lon="13.476394711426064"><ele>583.0</ele><time>2026-05-03T11:10:53.999Z</time></trkpt><trkpt lat="42.309374974568335" lon="13.476527649306853"><ele>583.0</ele><time>2026-05-03T11:10:54.999Z</time></trkpt><trkpt lat="42.30922624288587" lon="13.476668356076505"><ele>583.0</ele><time>2026-05-03T11:10:55.999Z</time></trkpt><trkpt lat="42.30907968510439" lon="13.476815899294461"><ele>583.0</ele><time>2026-05-03T11:10:56.999Z</time></trkpt><trkpt lat="42.308936940566376" lon="13.476971060053115"><ele>583.3333333333334</ele><time>2026-05-03T11:10:57.999Z</time></trkpt><trkpt lat="42.308804899185596" lon="13.477138354304353"><ele>583.6666666666666</ele><time>2026-05-03T11:10:58.999Z</time></trkpt><trkpt lat="42.30868078508481" lon="13.477316441861566"><ele>584.0</ele><time>2026-05-03T11:10:59.999Z</time></trkpt><trkpt lat="42.308564400847374" lon="13.477503191207663"><ele>584.0</ele><time>2026-05-03T11:11:00.999Z</time></trkpt><trkpt lat="42.30844940778296" lon="13.477691556616525"><ele>584.0</ele><time>2026-05-03T11:11:01.999Z</time></trkpt><trkpt lat="42.30833499820168" lon="13.477879935063974"><ele>584.0</ele><time>2026-05-03T11:11:02.999Z</time></trkpt><trkpt lat="42.3082177791998" lon="13.478064710774134"><ele>584.6666666666666</ele><time>2026-05-03T11:11:03.999Z</time></trkpt><trkpt lat="42.30809966224791" lon="13.478252548276792"><ele>585.3333333333334</ele><time>2026-05-03T11:11:04.999Z</time></trkpt><trkpt lat="42.30798197181586" lon="13.47843199124484"><ele>586.0</ele><time>2026-05-03T11:11:05.999Z</time></trkpt><trkpt lat="42.30785992105246" lon="13.478605628589605"><ele>582.3333333333334</ele><time>2026-05-03T11:11:06.999Z</time></trkpt><trkpt lat="42.30772724480952" lon="13.478770952095275"><ele>578.6666666666666</ele><time>2026-05-03T11:11:07.999Z</time></trkpt><trkpt lat="42.30758365548672" lon="13.47892592209141"><ele>575.0</ele><time>2026-05-03T11:11:08.999Z</time></trkpt><trkpt lat="42.307440026803185" lon="13.479082737300645"><ele>575.0</ele><time>2026-05-03T11:11:09.999Z</time></trkpt><trkpt lat="42.30729517435418" lon="13.47924288798227"><ele>575.0</ele><time>2026-05-03T11:11:10.999Z</time></trkpt><trkpt lat="42.30714771964399" lon="13.4794033938624"><ele>575.0</ele><time>2026-05-03T11:11:11.999Z</time></trkpt><trkpt lat="42.307000160830846" lon="13.479563404171783"><ele>575.0</ele><time>2026-05-03T11:11:12.999Z</time></trkpt><trkpt lat="42.30685482927723" lon="13.479722161157689"><ele>575.0</ele><time>2026-05-03T11:11:13.999Z</time></trkpt><trkpt lat="42.30670966163649" lon="13.479877971617384"><ele>575.0</ele><time>2026-05-03T11:11:14.999Z</time></trkpt><trkpt lat="42.306564639106526" lon="13.480030699601606"><ele>575.0</ele><time>2026-05-03T11:11:15.999Z</time></trkpt><trkpt lat="42.30641901287441" lon="13.480182841852265"><ele>575.0</ele><time>2026-05-03T11:11:16.999Z</time></trkpt><trkpt lat="42.306274431563224" lon="13.480332023068193"><ele>575.0</ele><time>2026-05-03T11:11:17.999Z</time></trkpt><trkpt lat="42.3061334141654" lon="13.480476002855278"><ele>575.6666666666666</ele><time>2026-05-03T11:11:18.999Z</time></trkpt><trkpt lat="42.305997111352" lon="13.480616060606227"><ele>576.3333333333334</ele><time>2026-05-03T11:11:19.999Z</time></trkpt><trkpt lat="42.30585754241782" lon="13.480758083757463"><ele>577.0</ele><time>2026-05-03T11:11:20.999Z</time></trkpt><trkpt lat="42.305719802731524" lon="13.480899472091226"><ele>577.0</ele><time>2026-05-03T11:11:21.999Z</time></trkpt><trkpt lat="42.305582404659944" lon="13.481040559883995"><ele>577.0</ele><time>2026-05-03T11:11:22.999Z</time></trkpt><trkpt lat="42.30544653693577" lon="13.481178862625493"><ele>577.0</ele><time>2026-05-03T11:11:23.999Z</time></trkpt><trkpt lat="42.3053117371325" lon="13.481317970795615"><ele>577.3333333333334</ele><time>2026-05-03T11:11:24.999Z</time></trkpt><trkpt lat="42.305183871439965" lon="13.481460590603193"><ele>577.6666666666666</ele><time>2026-05-03T11:11:25.999Z</time></trkpt><trkpt lat="42.305071401640234" lon="13.481609699979847"><ele>578.0</ele><time>2026-05-03T11:11:26.999Z</time></trkpt><trkpt lat="42.3049782133214" lon="13.481763399766608"><ele>578.0</ele><time>2026-05-03T11:11:27.999Z</time></trkpt><trkpt lat="42.304891521377094" lon="13.481923926260777"><ele>578.0</ele><time>2026-05-03T11:11:28.999Z</time></trkpt><trkpt lat="42.30480325177755" lon="13.482084574204759"><ele>578.0</ele><time>2026-05-03T11:11:29.999Z</time></trkpt><trkpt lat="42.30471460604605" lon="13.482242785755236"><ele>578.0</ele><time>2026-05-03T11:11:30.999Z</time></trkpt><trkpt lat="42.30462699168103" lon="13.482403690493278"><ele>578.25</ele><time>2026-05-03T11:11:31.999Z</time></trkpt><trkpt lat="42.30453990277789" lon="13.482565336510028"><ele>578.5</ele><time>2026-05-03T11:11:32.999Z</time></trkpt><trkpt lat="42.30445349423851" lon="13.482727464247452"><ele>578.75</ele><time>2026-05-03T11:11:33.999Z</time></trkpt><trkpt lat="42.30436760215362" lon="13.482891841503223"><ele>579.0</ele><time>2026-05-03T11:11:34.999Z</time></trkpt><trkpt lat="42.304280135673174" lon="13.483055677852443"><ele>579.0</ele><time>2026-05-03T11:11:35.999Z</time></trkpt><trkpt lat="42.3041923763373" lon="13.483220317737587"><ele>579.0</ele><time>2026-05-03T11:11:36.999Z</time></trkpt><trkpt lat="42.3041061084351" lon="13.483384628463163"><ele>579.0</ele><time>2026-05-03T11:11:37.999Z</time></trkpt><trkpt lat="42.30402240354919" lon="13.483541311405727"><ele>579.0</ele><time>2026-05-03T11:11:38.999Z</time></trkpt><trkpt lat="42.30394429025681" lon="13.483691834430765"><ele>579.75</ele><time>2026-05-03T11:11:39.999Z</time></trkpt><trkpt lat="42.30386995241348" lon="13.483831635998735"><ele>580.5</ele><time>2026-05-03T11:11:40.999Z</time></trkpt><trkpt lat="42.30380058750672" lon="13.483963639919706"><ele>581.25</ele><time>2026-05-03T11:11:41.999Z</time></trkpt><trkpt lat="42.30373283420992" lon="13.484089581024786"><ele>582.0</ele><time>2026-05-03T11:11:42.999Z</time></trkpt><trkpt lat="42.30365667148244" lon="13.484210561794221"><ele>582.0</ele><time>2026-05-03T11:11:43.999Z</time></trkpt><trkpt lat="42.30356038196382" lon="13.484302975867234"><ele>582.0</ele><time>2026-05-03T11:11:44.999Z</time></trkpt><trkpt lat="42.303458663110774" lon="13.484396389405731"><ele>582.0</ele><time>2026-05-03T11:11:45.999Z</time></trkpt><trkpt lat="42.30335608153269" lon="13.484506991917616"><ele>582.0</ele><time>2026-05-03T11:11:46.999Z</time></trkpt><trkpt lat="42.303242064815684" lon="13.484612596890836"><ele>581.5</ele><time>2026-05-03T11:11:47.999Z</time></trkpt><trkpt lat="42.30312439312286" lon="13.484722266149971"><ele>581.0</ele><time>2026-05-03T11:11:48.999Z</time></trkpt><trkpt lat="42.30299905845996" lon="13.484831174411491"><ele>580.5</ele><time>2026-05-03T11:11:49.999Z</time></trkpt><trkpt lat="42.302874425738054" lon="13.484945374844624"><ele>580.0</ele><time>2026-05-03T11:11:50.999Z</time></trkpt><trkpt lat="42.30275249998718" lon="13.485057660205715"><ele>580.0</ele><time>2026-05-03T11:11:51.999Z</time></trkpt><trkpt lat="42.30263133479243" lon="13.485168800936826"><ele>580.0</ele><time>2026-05-03T11:11:52.999Z</time></trkpt><trkpt lat="42.30251172172219" lon="13.485275400163514"><ele>580.0</ele><time>2026-05-03T11:11:53.999Z</time></trkpt><trkpt lat="42.30239484281877" lon="13.485381535755366"><ele>580.0</ele><time>2026-05-03T11:11:54.999Z</time></trkpt><trkpt lat="42.30227829961596" lon="13.485490516203162"><ele>578.75</ele><time>2026-05-03T11:11:55.999Z</time></trkpt><trkpt lat="42.30216184042704" lon="13.485600907999142"><ele>577.5</ele><time>2026-05-03T11:11:56.999Z</time></trkpt><trkpt lat="42.30204278982902" lon="13.485709704924405"><ele>576.25</ele><time>2026-05-03T11:11:57.998Z</time></trkpt><trkpt lat="42.30192138462897" lon="13.485816953553002"><ele>575.0</ele><time>2026-05-03T11:11:58.998Z</time></trkpt><trkpt lat="42.30179972378206" lon="13.485925843673083"><ele>575.0</ele><time>2026-05-03T11:11:59.998Z</time></trkpt><trkpt lat="42.30167552682652" lon="13.48603705981979"><ele>575.0</ele><time>2026-05-03T11:12:00.998Z</time></trkpt><trkpt lat="42.301546275157605" lon="13.486144304509834"><ele>575.0</ele><time>2026-05-03T11:12:01.998Z</time></trkpt><trkpt lat="42.301410284956226" lon="13.486239144914498"><ele>574.6666666666666</ele><time>2026-05-03T11:12:03Z</time></trkpt><trkpt lat="42.30126970564593" lon="13.486323707635309"><ele>574.3333333333334</ele><time>2026-05-03T11:12:04Z</time></trkpt><trkpt lat="42.30112197344517" lon="13.486401480100268"><ele>574.0</ele><time>2026-05-03T11:12:05Z</time></trkpt><trkpt lat="42.30097062377712" lon="13.486476993171642"><ele>574.0</ele><time>2026-05-03T11:12:06Z</time></trkpt><trkpt lat="42.30081668930407" lon="13.486556739211963"><ele>574.0</ele><time>2026-05-03T11:12:07Z</time></trkpt><trkpt lat="42.300668153367745" lon="13.486635378788751"><ele>574.0</ele><time>2026-05-03T11:12:08Z</time></trkpt><trkpt lat="42.30052032745348" lon="13.486711134858949"><ele>575.3333333333334</ele><time>2026-05-03T11:12:09Z</time></trkpt><trkpt lat="42.300374111030266" lon="13.486785786894655"><ele>576.6666666666666</ele><time>2026-05-03T11:12:10Z</time></trkpt><trkpt lat="42.30022921471864" lon="13.48686248270493"><ele>578.0</ele><time>2026-05-03T11:12:11Z</time></trkpt><trkpt lat="42.300084433360745" lon="13.486940097984805"><ele>578.0</ele><time>2026-05-03T11:12:12Z</time></trkpt><trkpt lat="42.29995279519663" lon="13.48703117378525"><ele>578.0</ele><time>2026-05-03T11:12:13Z</time></trkpt><trkpt lat="42.2998250791468" lon="13.487137524485407"><ele>578.0</ele><time>2026-05-03T11:12:14Z</time></trkpt><trkpt lat="42.299706916710996" lon="13.48725541154814"><ele>578.0</ele><time>2026-05-03T11:12:15Z</time></trkpt><trkpt lat="42.29959195403317" lon="13.487372441172583"><ele>578.25</ele><time>2026-05-03T11:12:16Z</time></trkpt><trkpt lat="42.29947860888072" lon="13.487479576299718"><ele>578.5</ele><time>2026-05-03T11:12:17Z</time></trkpt><trkpt lat="42.29935616270553" lon="13.487574710143202"><ele>578.75</ele><time>2026-05-03T11:12:18Z</time></trkpt><trkpt lat="42.2992341838435" lon="13.487658145051013"><ele>579.0</ele><time>2026-05-03T11:12:19Z</time></trkpt><trkpt lat="42.29911095016812" lon="13.487740463393772"><ele>579.0</ele><time>2026-05-03T11:12:20Z</time></trkpt><trkpt lat="42.29899138109845" lon="13.487823516286891"><ele>579.0</ele><time>2026-05-03T11:12:21Z</time></trkpt><trkpt lat="42.298878281533014" lon="13.487904489373474"><ele>579.0</ele><time>2026-05-03T11:12:22Z</time></trkpt><trkpt lat="42.2987686663448" lon="13.487984645819731"><ele>579.0</ele><time>2026-05-03T11:12:23Z</time></trkpt><trkpt lat="42.29866384506123" lon="13.48806675434212"><ele>578.6</ele><time>2026-05-03T11:12:24Z</time></trkpt><trkpt lat="42.29856604278314" lon="13.488143968120703"><ele>578.2</ele><time>2026-05-03T11:12:25Z</time></trkpt><trkpt lat="42.29847250141275" lon="13.48821501569095"><ele>577.8000000000001</ele><time>2026-05-03T11:12:26Z</time></trkpt><trkpt lat="42.2983985372923" lon="13.488282223438754"><ele>577.4</ele><time>2026-05-03T11:12:27Z</time></trkpt><trkpt lat="42.29834655832867" lon="13.488357999508079"><ele>577.0</ele><time>2026-05-03T11:12:28Z</time></trkpt><trkpt lat="42.29831720784757" lon="13.488461165340116"><ele>577.0</ele><time>2026-05-03T11:12:29Z</time></trkpt><trkpt lat="42.29831381461612" lon="13.48858400382454"><ele>577.0</ele><time>2026-05-03T11:12:30Z</time></trkpt><trkpt lat="42.29832028780496" lon="13.488718292322924"><ele>577.0</ele><time>2026-05-03T11:12:31Z</time></trkpt><trkpt lat="42.298328483767655" lon="13.488865243505984"><ele>577.0</ele><time>2026-05-03T11:12:32Z</time></trkpt><trkpt lat="42.298336279989826" lon="13.489020595322987"><ele>577.0</ele><time>2026-05-03T11:12:33Z</time></trkpt><trkpt lat="42.29835096484972" lon="13.489184043205867"><ele>576.0</ele><time>2026-05-03T11:12:34Z</time></trkpt><trkpt lat="42.298369274609364" lon="13.48935336500578"><ele>575.0</ele><time>2026-05-03T11:12:35Z</time></trkpt><trkpt lat="42.29839107470134" lon="13.489525549417841"><ele>574.0</ele><time>2026-05-03T11:12:36Z</time></trkpt><trkpt lat="42.29841335013852" lon="13.489696837483185"><ele>573.0</ele><time>2026-05-03T11:12:37Z</time></trkpt><trkpt lat="42.29843555958676" lon="13.489866059973455"><ele>572.75</ele><time>2026-05-03T11:12:38Z</time></trkpt><trkpt lat="42.298455647949005" lon="13.490031865383553"><ele>572.5</ele><time>2026-05-03T11:12:39Z</time></trkpt><trkpt lat="42.29847613061687" lon="13.490196298574798"><ele>572.25</ele><time>2026-05-03T11:12:40Z</time></trkpt><trkpt lat="42.298496677847794" lon="13.49037054975288"><ele>572.0</ele><time>2026-05-03T11:12:41Z</time></trkpt><trkpt lat="42.29851512040305" lon="13.490552743615757"><ele>572.0</ele><time>2026-05-03T11:12:42Z</time></trkpt><trkpt lat="42.298531788267475" lon="13.490743870666376"><ele>572.0</ele><time>2026-05-03T11:12:43Z</time></trkpt><trkpt lat="42.29854030950337" lon="13.490942532221244"><ele>572.0</ele><time>2026-05-03T11:12:44Z</time></trkpt><trkpt lat="42.2985487085187" lon="13.491142939536063"><ele>572.0</ele><time>2026-05-03T11:12:45Z</time></trkpt><trkpt lat="42.298560520803015" lon="13.491346985405018"><ele>572.0</ele><time>2026-05-03T11:12:46Z</time></trkpt><trkpt lat="42.29857255345222" lon="13.491553063618055"><ele>572.0</ele><time>2026-05-03T11:12:47Z</time></trkpt><trkpt lat="42.29858482491161" lon="13.491759615773645"><ele>572.0</ele><time>2026-05-03T11:12:48Z</time></trkpt><trkpt lat="42.29859896521421" lon="13.491963837814263"><ele>571.3333333333333</ele><time>2026-05-03T11:12:49Z</time></trkpt><trkpt lat="42.29861575184378" lon="13.492169814171469"><ele>570.6666666666666</ele><time>2026-05-03T11:12:50Z</time></trkpt><trkpt lat="42.29862679416263" lon="13.49237234474328"><ele>570.0</ele><time>2026-05-03T11:12:51Z</time></trkpt><trkpt lat="42.2986340078884" lon="13.49258136428636"><ele>570.0</ele><time>2026-05-03T11:12:52Z</time></trkpt><trkpt lat="42.29864098745549" lon="13.492787133924113"><ele>570.0</ele><time>2026-05-03T11:12:52.999Z</time></trkpt><trkpt lat="42.298647276057146" lon="13.492996472747164"><ele>570.0</ele><time>2026-05-03T11:12:53.999Z</time></trkpt><trkpt lat="42.298657089292554" lon="13.493206022446238"><ele>569.6666666666666</ele><time>2026-05-03T11:12:54.999Z</time></trkpt><trkpt lat="42.29867141430831" lon="13.493416534198403"><ele>569.3333333333333</ele><time>2026-05-03T11:12:55.999Z</time></trkpt><trkpt lat="42.298684830340804" lon="13.493626639739215"><ele>569.0</ele><time>2026-05-03T11:12:56.999Z</time></trkpt><trkpt lat="42.29869361626219" lon="13.493832642583197"><ele>569.0</ele><time>2026-05-03T11:12:57.999Z</time></trkpt><trkpt lat="42.29870024878674" lon="13.494040388452865"><ele>569.0</ele><time>2026-05-03T11:12:58.999Z</time></trkpt><trkpt lat="42.29870857202911" lon="13.494244195904846"><ele>569.0</ele><time>2026-05-03T11:12:59.999Z</time></trkpt><trkpt lat="42.29873063548088" lon="13.494437679583982"><ele>569.0</ele><time>2026-05-03T11:13:00.999Z</time></trkpt><trkpt lat="42.298766191096654" lon="13.494624755100803"><ele>569.0</ele><time>2026-05-03T11:13:01.999Z</time></trkpt><trkpt lat="42.29881987258601" lon="13.494804274561258"><ele>569.0</ele><time>2026-05-03T11:13:02.999Z</time></trkpt><trkpt lat="42.298897227177896" lon="13.494981810600217"><ele>569.0</ele><time>2026-05-03T11:13:03.999Z</time></trkpt><trkpt lat="42.29898710907001" lon="13.495151196513667"><ele>569.0</ele><time>2026-05-03T11:13:04.999Z</time></trkpt><trkpt lat="42.299088233653066" lon="13.495312488130757"><ele>569.0</ele><time>2026-05-03T11:13:05.999Z</time></trkpt><trkpt lat="42.29919331662355" lon="13.49547012246157"><ele>569.0</ele><time>2026-05-03T11:13:06.999Z</time></trkpt><trkpt lat="42.299299205472124" lon="13.49562345037511"><ele>569.6666666666666</ele><time>2026-05-03T11:13:07.999Z</time></trkpt><trkpt lat="42.29940472601386" lon="13.495781012016716"><ele>570.3333333333334</ele><time>2026-05-03T11:13:08.999Z</time></trkpt><trkpt lat="42.29951259227667" lon="13.4959378097365"><ele>571.0</ele><time>2026-05-03T11:13:09.999Z</time></trkpt><trkpt lat="42.29962028849154" lon="13.496097773995052"><ele>570.6666666666667</ele><time>2026-05-03T11:13:10.999Z</time></trkpt><trkpt lat="42.29972792888751" lon="13.496258788211692"><ele>570.3333333333334</ele><time>2026-05-03T11:13:11.999Z</time></trkpt><trkpt lat="42.29983886988597" lon="13.496419589027221"><ele>570.0</ele><time>2026-05-03T11:13:12.999Z</time></trkpt><trkpt lat="42.299950440738776" lon="13.496580849220544"><ele>570.0</ele><time>2026-05-03T11:13:13.999Z</time></trkpt><trkpt lat="42.30006417920484" lon="13.496743550729121"><ele>570.0</ele><time>2026-05-03T11:13:14.999Z</time></trkpt><trkpt lat="42.300176627993714" lon="13.496907874705856"><ele>570.0</ele><time>2026-05-03T11:13:15.999Z</time></trkpt><trkpt lat="42.30028732485554" lon="13.497075166731188"><ele>570.0</ele><time>2026-05-03T11:13:16.999Z</time></trkpt><trkpt lat="42.3003977875242" lon="13.497243791720846"><ele>570.0</ele><time>2026-05-03T11:13:17.999Z</time></trkpt><trkpt lat="42.30050793014987" lon="13.497414301456969"><ele>570.0</ele><time>2026-05-03T11:13:18.999Z</time></trkpt><trkpt lat="42.300616166996335" lon="13.497586558008868"><ele>570.0</ele><time>2026-05-03T11:13:19.999Z</time></trkpt><trkpt lat="42.300722344702834" lon="13.497762959833501"><ele>570.0</ele><time>2026-05-03T11:13:20.999Z</time></trkpt><trkpt lat="42.300830983670224" lon="13.497942796955595"><ele>570.0</ele><time>2026-05-03T11:13:21.999Z</time></trkpt><trkpt lat="42.300939606221895" lon="13.498121093325695"><ele>570.0</ele><time>2026-05-03T11:13:22.999Z</time></trkpt><trkpt lat="42.301050828447714" lon="13.498298364839956"><ele>570.0</ele><time>2026-05-03T11:13:23.999Z</time></trkpt><trkpt lat="42.30116199864836" lon="13.49847487844188"><ele>570.0</ele><time>2026-05-03T11:13:24.999Z</time></trkpt><trkpt lat="42.301271856691734" lon="13.498652765770764"><ele>569.6666666666666</ele><time>2026-05-03T11:13:25.999Z</time></trkpt><trkpt lat="42.30138019978148" lon="13.498830017672836"><ele>569.3333333333333</ele><time>2026-05-03T11:13:26.999Z</time></trkpt><trkpt lat="42.301487918814296" lon="13.49900670093685"><ele>569.0</ele><time>2026-05-03T11:13:27.999Z</time></trkpt><trkpt lat="42.30159730211972" lon="13.499182567931623"><ele>569.3333333333333</ele><time>2026-05-03T11:13:28.999Z</time></trkpt><trkpt lat="42.30170729957392" lon="13.499357860805365"><ele>569.6666666666666</ele><time>2026-05-03T11:13:29.999Z</time></trkpt><trkpt lat="42.30181626577677" lon="13.499534041609186"><ele>570.0</ele><time>2026-05-03T11:13:30.999Z</time></trkpt><trkpt lat="42.301924629460615" lon="13.499710069506293"><ele>570.0</ele><time>2026-05-03T11:13:31.999Z</time></trkpt><trkpt lat="42.302034150495395" lon="13.499886655236002"><ele>570.0</ele><time>2026-05-03T11:13:32.999Z</time></trkpt><trkpt lat="42.3021428145674" lon="13.500062265763797"><ele>570.0</ele><time>2026-05-03T11:13:33.999Z</time></trkpt><trkpt lat="42.30225194169987" lon="13.500239004048684"><ele>570.0</ele><time>2026-05-03T11:13:34.999Z</time></trkpt><trkpt lat="42.30236014694497" lon="13.500417198079843"><ele>570.0</ele><time>2026-05-03T11:13:35.999Z</time></trkpt><trkpt lat="42.302466890463705" lon="13.500595860657166"><ele>570.0</ele><time>2026-05-03T11:13:36.999Z</time></trkpt><trkpt lat="42.3025731179772" lon="13.500775799042298"><ele>570.0</ele><time>2026-05-03T11:13:37.999Z</time></trkpt><trkpt lat="42.30267928931641" lon="13.500957303586649"><ele>570.0</ele><time>2026-05-03T11:13:38.999Z</time></trkpt><trkpt lat="42.30278497273326" lon="13.501137122366552"><ele>570.0</ele><time>2026-05-03T11:13:39.999Z</time></trkpt><trkpt lat="42.30288875638187" lon="13.501315102846316"><ele>570.0</ele><time>2026-05-03T11:13:40.999Z</time></trkpt><trkpt lat="42.30299124408296" lon="13.501493208676244"><ele>570.0</ele><time>2026-05-03T11:13:41.999Z</time></trkpt><trkpt lat="42.3030955028862" lon="13.501669193478351"><ele>570.0</ele><time>2026-05-03T11:13:42.999Z</time></trkpt><trkpt lat="42.303196119043186" lon="13.501842564730358"><ele>570.0</ele><time>2026-05-03T11:13:43.999Z</time></trkpt><trkpt lat="42.30329326673736" lon="13.502011820684322"><ele>570.0</ele><time>2026-05-03T11:13:44.999Z</time></trkpt><trkpt lat="42.30339033707703" lon="13.502178946981735"><ele>570.0</ele><time>2026-05-03T11:13:45.999Z</time></trkpt><trkpt lat="42.303486683883285" lon="13.502344246511198"><ele>570.0</ele><time>2026-05-03T11:13:46.999Z</time></trkpt><trkpt lat="42.30358253065418" lon="13.50251042742979"><ele>570.0</ele><time>2026-05-03T11:13:47.999Z</time></trkpt><trkpt lat="42.303672684340604" lon="13.502671217088128"><ele>570.0</ele><time>2026-05-03T11:13:48.999Z</time></trkpt><trkpt lat="42.30375908176402" lon="13.50282148752859"><ele>570.0</ele><time>2026-05-03T11:13:49.999Z</time></trkpt><trkpt lat="42.3038409184443" lon="13.50296659421109"><ele>570.75</ele><time>2026-05-03T11:13:50.999Z</time></trkpt><trkpt lat="42.303918692164906" lon="13.503102042363464"><ele>571.5</ele><time>2026-05-03T11:13:51.999Z</time></trkpt><trkpt lat="42.30399580785746" lon="13.503233755398414"><ele>572.25</ele><time>2026-05-03T11:13:52.999Z</time></trkpt><trkpt lat="42.30407542579608" lon="13.50336701352658"><ele>573.0</ele><time>2026-05-03T11:13:53.999Z</time></trkpt><trkpt lat="42.30415537047858" lon="13.503501975483111"><ele>573.0</ele><time>2026-05-03T11:13:54.999Z</time></trkpt><trkpt lat="42.30424276886967" lon="13.50364128348192"><ele>573.0</ele><time>2026-05-03T11:13:55.999Z</time></trkpt><trkpt lat="42.304336014923884" lon="13.503792490125976"><ele>573.0</ele><time>2026-05-03T11:13:56.999Z</time></trkpt><trkpt lat="42.30443192311404" lon="13.503965134725041"><ele>573.0</ele><time>2026-05-03T11:13:57.999Z</time></trkpt><trkpt lat="42.30452867634933" lon="13.504145577305872"><ele>572.6666666666666</ele><time>2026-05-03T11:13:58.999Z</time></trkpt><trkpt lat="42.30462308584942" lon="13.504320648767248"><ele>572.3333333333333</ele><time>2026-05-03T11:13:59.999Z</time></trkpt><trkpt lat="42.304719000285885" lon="13.504489754692317"><ele>572.0</ele><time>2026-05-03T11:14:00.999Z</time></trkpt><trkpt lat="42.304814708205754" lon="13.504654365895115"><ele>571.3333333333333</ele><time>2026-05-03T11:14:01.999Z</time></trkpt><trkpt lat="42.30491008768593" lon="13.50482229503579"><ele>570.6666666666666</ele><time>2026-05-03T11:14:02.999Z</time></trkpt><trkpt lat="42.305005588746894" lon="13.504997282135239"><ele>570.0</ele><time>2026-05-03T11:14:03.999Z</time></trkpt><trkpt lat="42.305099558939" lon="13.505171755677802"><ele>570.0</ele><time>2026-05-03T11:14:04.999Z</time></trkpt><trkpt lat="42.30519160165597" lon="13.505342958481334"><ele>570.0</ele><time>2026-05-03T11:14:05.999Z</time></trkpt><trkpt lat="42.30528612007578" lon="13.505515637004397"><ele>570.0</ele><time>2026-05-03T11:14:06.999Z</time></trkpt><trkpt lat="42.30537775567959" lon="13.505686550649528"><ele>570.0</ele><time>2026-05-03T11:14:07.998Z</time></trkpt><trkpt lat="42.3054694187329" lon="13.505857656124146"><ele>570.0</ele><time>2026-05-03T11:14:09Z</time></trkpt><trkpt lat="42.30555415440596" lon="13.506027422368316"><ele>570.0</ele><time>2026-05-03T11:14:10Z</time></trkpt><trkpt lat="42.305633950278796" lon="13.50619312105471"><ele>571.25</ele><time>2026-05-03T11:14:11Z</time></trkpt><trkpt lat="42.3057104001132" lon="13.506347921935742"><ele>572.5</ele><time>2026-05-03T11:14:12Z</time></trkpt><trkpt lat="42.30578389376766" lon="13.506501474781016"><ele>573.75</ele><time>2026-05-03T11:14:13Z</time></trkpt><trkpt lat="42.30585214179372" lon="13.506653317068801"><ele>575.0</ele><time>2026-05-03T11:14:14Z</time></trkpt><trkpt lat="42.305917082708504" lon="13.506811612641572"><ele>575.0</ele><time>2026-05-03T11:14:15Z</time></trkpt><trkpt lat="42.30598001255206" lon="13.506970236561775"><ele>575.0</ele><time>2026-05-03T11:14:16Z</time></trkpt><trkpt lat="42.30604308139016" lon="13.507127187599478"><ele>575.0</ele><time>2026-05-03T11:14:17Z</time></trkpt><trkpt lat="42.30610807816033" lon="13.507292263109322"><ele>575.0</ele><time>2026-05-03T11:14:18Z</time></trkpt><trkpt lat="42.306170735128376" lon="13.507461569105589"><ele>575.0</ele><time>2026-05-03T11:14:19Z</time></trkpt><trkpt lat="42.306235147684404" lon="13.507634693861679"><ele>575.0</ele><time>2026-05-03T11:14:20Z</time></trkpt><trkpt lat="42.306299190157226" lon="13.50780308896795"><ele>575.0</ele><time>2026-05-03T11:14:21Z</time></trkpt><trkpt lat="42.30636640132662" lon="13.507969154658705"><ele>575.0</ele><time>2026-05-03T11:14:22Z</time></trkpt><trkpt lat="42.306438673861784" lon="13.508133667565584"><ele>575.25</ele><time>2026-05-03T11:14:23Z</time></trkpt><trkpt lat="42.30651195392838" lon="13.50829650427095"><ele>575.5</ele><time>2026-05-03T11:14:24Z</time></trkpt><trkpt lat="42.30659137195878" lon="13.508458456368093"><ele>575.75</ele><time>2026-05-03T11:14:25Z</time></trkpt><trkpt lat="42.306675591331505" lon="13.50861755311009"><ele>576.0</ele><time>2026-05-03T11:14:26Z</time></trkpt><trkpt lat="42.30676176660412" lon="13.508775905568273"><ele>576.25</ele><time>2026-05-03T11:14:27Z</time></trkpt><trkpt lat="42.306847472227304" lon="13.508934502797544"><ele>576.5</ele><time>2026-05-03T11:14:28Z</time></trkpt><trkpt lat="42.30693418356022" lon="13.5090963076695"><ele>576.75</ele><time>2026-05-03T11:14:29Z</time></trkpt><trkpt lat="42.30702203408592" lon="13.509262769082353"><ele>577.0</ele><time>2026-05-03T11:14:30Z</time></trkpt><trkpt lat="42.307113729650446" lon="13.509433044310008"><ele>577.6666666666667</ele><time>2026-05-03T11:14:31Z</time></trkpt><trkpt lat="42.30720815974531" lon="13.509608139297184"><ele>578.3333333333334</ele><time>2026-05-03T11:14:32Z</time></trkpt><trkpt lat="42.30730835023459" lon="13.509790085601212"><ele>579.0</ele><time>2026-05-03T11:14:33Z</time></trkpt><trkpt lat="42.307410738031194" lon="13.509976616823463"><ele>580.3333333333334</ele><time>2026-05-03T11:14:34Z</time></trkpt><trkpt lat="42.30751133300257" lon="13.510163762220515"><ele>581.6666666666667</ele><time>2026-05-03T11:14:35Z</time></trkpt><trkpt lat="42.307611142736015" lon="13.510352098805072"><ele>583.0</ele><time>2026-05-03T11:14:36Z</time></trkpt><trkpt lat="42.30771120452895" lon="13.510542745823553"><ele>583.0</ele><time>2026-05-03T11:14:37Z</time></trkpt><trkpt lat="42.30781157021323" lon="13.510735259859112"><ele>583.0</ele><time>2026-05-03T11:14:38Z</time></trkpt><trkpt lat="42.307913039349344" lon="13.510924575157292"><ele>583.0</ele><time>2026-05-03T11:14:39Z</time></trkpt><trkpt lat="42.30801687657435" lon="13.511110601365015"><ele>583.6666666666667</ele><time>2026-05-03T11:14:40Z</time></trkpt><trkpt lat="42.30812291067477" lon="13.511297365139615"><ele>584.3333333333334</ele><time>2026-05-03T11:14:41Z</time></trkpt><trkpt lat="42.3082325176525" lon="13.511486437644091"><ele>585.0</ele><time>2026-05-03T11:14:42Z</time></trkpt><trkpt lat="42.30834681987468" lon="13.511671369712719"><ele>585.0</ele><time>2026-05-03T11:14:43Z</time></trkpt><trkpt lat="42.308464057585404" lon="13.511850444299379"><ele>585.0</ele><time>2026-05-03T11:14:44Z</time></trkpt><trkpt lat="42.30858331833442" lon="13.512022115932133"><ele>585.0</ele><time>2026-05-03T11:14:45Z</time></trkpt><trkpt lat="42.30870154175829" lon="13.512190936641241"><ele>585.3333333333334</ele><time>2026-05-03T11:14:46Z</time></trkpt><trkpt lat="42.30881889358877" lon="13.512362771633546"><ele>585.6666666666667</ele><time>2026-05-03T11:14:47Z</time></trkpt><trkpt lat="42.30893754809972" lon="13.512534153135672"><ele>586.0</ele><time>2026-05-03T11:14:48Z</time></trkpt><trkpt lat="42.309056122310494" lon="13.512703703006464"><ele>586.3333333333334</ele><time>2026-05-03T11:14:49Z</time></trkpt><trkpt lat="42.309171812156926" lon="13.512870333851934"><ele>586.6666666666666</ele><time>2026-05-03T11:14:50Z</time></trkpt><trkpt lat="42.3092859936585" lon="13.513038245873148"><ele>587.0</ele><time>2026-05-03T11:14:51Z</time></trkpt><trkpt lat="42.30939936465501" lon="13.513201507147164"><ele>587.3333333333333</ele><time>2026-05-03T11:14:52Z</time></trkpt><trkpt lat="42.30951360109971" lon="13.513366878216637"><ele>587.6666666666666</ele><time>2026-05-03T11:14:53Z</time></trkpt><trkpt lat="42.30962607878657" lon="13.513532261434829"><ele>588.0</ele><time>2026-05-03T11:14:54Z</time></trkpt><trkpt lat="42.30973918654065" lon="13.513700090293911"><ele>588.6666666666666</ele><time>2026-05-03T11:14:55Z</time></trkpt><trkpt lat="42.3098531906581" lon="13.513864735858972"><ele>589.3333333333333</ele><time>2026-05-03T11:14:56Z</time></trkpt><trkpt lat="42.3099637354815" lon="13.514025854015934"><ele>590.0</ele><time>2026-05-03T11:14:57Z</time></trkpt><trkpt lat="42.31006997265485" lon="13.514179800437645"><ele>590.0</ele><time>2026-05-03T11:14:58Z</time></trkpt><trkpt lat="42.31017248220721" lon="13.514327593505742"><ele>590.0</ele><time>2026-05-03T11:14:59Z</time></trkpt><trkpt lat="42.310274542597476" lon="13.51447588564453"><ele>590.0</ele><time>2026-05-03T11:15:00Z</time></trkpt><trkpt lat="42.31037482290066" lon="13.514618947744419"><ele>590.0</ele><time>2026-05-03T11:15:01Z</time></trkpt><trkpt lat="42.310473554619875" lon="13.514761619171455"><ele>592.0</ele><time>2026-05-03T11:15:02Z</time></trkpt><trkpt lat="42.31057601650581" lon="13.514910425474444"><ele>594.0</ele><time>2026-05-03T11:15:03Z</time></trkpt><trkpt lat="42.31068618459032" lon="13.515061441712918"><ele>596.0</ele><time>2026-05-03T11:15:04Z</time></trkpt><trkpt lat="42.31079652525785" lon="13.515211177554495"><ele>596.0</ele><time>2026-05-03T11:15:05Z</time></trkpt><trkpt lat="42.31090506683133" lon="13.515364970050296"><ele>596.0</ele><time>2026-05-03T11:15:06Z</time></trkpt><trkpt lat="42.31101052769896" lon="13.515518116455583"><ele>596.0</ele><time>2026-05-03T11:15:06.999Z</time></trkpt><trkpt lat="42.311108862748355" lon="13.515661196613204"><ele>596.6</ele><time>2026-05-03T11:15:07.999Z</time></trkpt><trkpt lat="42.31119825732145" lon="13.515791424170187"><ele>597.2</ele><time>2026-05-03T11:15:08.999Z</time></trkpt><trkpt lat="42.31126948185965" lon="13.515899906720064"><ele>597.8</ele><time>2026-05-03T11:15:09.999Z</time></trkpt><trkpt lat="42.31132488506081" lon="13.515996611633597"><ele>598.4</ele><time>2026-05-03T11:15:10.999Z</time></trkpt><trkpt lat="42.31135347737106" lon="13.516078551123442"><ele>599.0</ele><time>2026-05-03T11:15:11.999Z</time></trkpt><trkpt lat="42.31138994418558" lon="13.516151181978241"><ele>598.0</ele><time>2026-05-03T11:15:13.999Z</time></trkpt><trkpt lat="42.31121263750859" lon="13.51635343544904"><ele>597.0</ele><time>2026-05-03T11:17:36.999Z</time></trkpt><trkpt lat="42.311122568253815" lon="13.516391261549696"><ele>596.0</ele><time>2026-05-03T11:17:37.999Z</time></trkpt><trkpt lat="42.31102016324351" lon="13.51643341041518"><ele>595.0</ele><time>2026-05-03T11:17:38.999Z</time></trkpt><trkpt lat="42.31090427428436" lon="13.516491880039117"><ele>595.0</ele><time>2026-05-03T11:17:39.999Z</time></trkpt><trkpt lat="42.310782968035156" lon="13.516553421158997"><ele>595.0</ele><time>2026-05-03T11:17:40.999Z</time></trkpt><trkpt lat="42.310651307677254" lon="13.516612209800341"><ele>595.0</ele><time>2026-05-03T11:17:41.999Z</time></trkpt><trkpt lat="42.310512144448744" lon="13.51667674652337"><ele>595.0</ele><time>2026-05-03T11:17:42.999Z</time></trkpt><trkpt lat="42.31037195689709" lon="13.516741443642356"><ele>595.6666666666667</ele><time>2026-05-03T11:17:43.999Z</time></trkpt><trkpt lat="42.310220809127905" lon="13.516816751366418"><ele>596.3333333333334</ele><time>2026-05-03T11:17:44.999Z</time></trkpt><trkpt lat="42.31006474449627" lon="13.516893085420545"><ele>597.0</ele><time>2026-05-03T11:17:45.999Z</time></trkpt><trkpt lat="42.309902238760124" lon="13.516968607226527"><ele>596.0</ele><time>2026-05-03T11:17:46.999Z</time></trkpt><trkpt lat="42.30973595515067" lon="13.517043301103726"><ele>595.0</ele><time>2026-05-03T11:17:47.999Z</time></trkpt><trkpt lat="42.30956444408744" lon="13.517121183612177"><ele>594.0</ele><time>2026-05-03T11:17:48.999Z</time></trkpt><trkpt lat="42.309391200259746" lon="13.517204292581196"><ele>594.0</ele><time>2026-05-03T11:17:49.999Z</time></trkpt><trkpt lat="42.30921786652375" lon="13.517287330707129"><ele>594.0</ele><time>2026-05-03T11:17:50.999Z</time></trkpt><trkpt lat="42.309042121432135" lon="13.517372275588645"><ele>594.0</ele><time>2026-05-03T11:17:51.999Z</time></trkpt><trkpt lat="42.30886611535824" lon="13.51745585040313"><ele>592.6666666666666</ele><time>2026-05-03T11:17:52.999Z</time></trkpt><trkpt lat="42.30869356136526" lon="13.51753655561971"><ele>591.3333333333333</ele><time>2026-05-03T11:17:53.999Z</time></trkpt><trkpt lat="42.30853249662053" lon="13.517611178934752"><ele>590.0</ele><time>2026-05-03T11:17:54.999Z</time></trkpt><trkpt lat="42.30837177457656" lon="13.517685451102206"><ele>590.0</ele><time>2026-05-03T11:17:55.999Z</time></trkpt><trkpt lat="42.30821416947009" lon="13.517758657681943"><ele>590.0</ele><time>2026-05-03T11:17:56.999Z</time></trkpt><trkpt lat="42.308058918015064" lon="13.517831726754107"><ele>590.0</ele><time>2026-05-03T11:17:57.999Z</time></trkpt><trkpt lat="42.307901747684944" lon="13.517911829636665"><ele>588.3333333333333</ele><time>2026-05-03T11:17:58.999Z</time></trkpt><trkpt lat="42.30774619738572" lon="13.518006081882438"><ele>586.6666666666666</ele><time>2026-05-03T11:17:59.999Z</time></trkpt><trkpt lat="42.3075973175572" lon="13.51812606753604"><ele>585.0</ele><time>2026-05-03T11:18:00.999Z</time></trkpt><trkpt lat="42.307451619403615" lon="13.518259616121735"><ele>585.0</ele><time>2026-05-03T11:18:01.999Z</time></trkpt><trkpt lat="42.30730436670777" lon="13.518397868695033"><ele>585.0</ele><time>2026-05-03T11:18:02.999Z</time></trkpt><trkpt lat="42.307153809303585" lon="13.518539218181278"><ele>585.0</ele><time>2026-05-03T11:18:03.999Z</time></trkpt><trkpt lat="42.30699981350065" lon="13.518682507932386"><ele>584.3333333333334</ele><time>2026-05-03T11:18:04.999Z</time></trkpt><trkpt lat="42.30684167091742" lon="13.518828820608606"><ele>583.6666666666667</ele><time>2026-05-03T11:18:05.999Z</time></trkpt><trkpt lat="42.30668072601387" lon="13.518977810930492"><ele>583.0</ele><time>2026-05-03T11:18:06.999Z</time></trkpt><trkpt lat="42.306517731103185" lon="13.519130894724666"><ele>582.6666666666667</ele><time>2026-05-03T11:18:07.999Z</time></trkpt><trkpt lat="42.306353896160815" lon="13.519286979721079"><ele>582.3333333333334</ele><time>2026-05-03T11:18:08.999Z</time></trkpt><trkpt lat="42.30619049100956" lon="13.519441643896448"><ele>582.0</ele><time>2026-05-03T11:18:09.999Z</time></trkpt><trkpt lat="42.306024516803504" lon="13.51959853869714"><ele>581.6666666666666</ele><time>2026-05-03T11:18:10.999Z</time></trkpt><trkpt lat="42.305859913964426" lon="13.519756061688993"><ele>581.3333333333333</ele><time>2026-05-03T11:18:11.999Z</time></trkpt><trkpt lat="42.30569433014136" lon="13.51991403009125"><ele>581.0</ele><time>2026-05-03T11:18:12.999Z</time></trkpt><trkpt lat="42.30552694885428" lon="13.520072712076454"><ele>579.6666666666666</ele><time>2026-05-03T11:18:13.999Z</time></trkpt><trkpt lat="42.30535758345023" lon="13.520231285560778"><ele>578.3333333333334</ele><time>2026-05-03T11:18:14.999Z</time></trkpt><trkpt lat="42.30518657187519" lon="13.52039182708882"><ele>577.0</ele><time>2026-05-03T11:18:15.999Z</time></trkpt><trkpt lat="42.30501570764067" lon="13.520553990912493"><ele>577.0</ele><time>2026-05-03T11:18:16.999Z</time></trkpt><trkpt lat="42.30484208550577" lon="13.520718423595172"><ele>577.0</ele><time>2026-05-03T11:18:17.999Z</time></trkpt><trkpt lat="42.304670582203705" lon="13.520879427500551"><ele>577.0</ele><time>2026-05-03T11:18:18.999Z</time></trkpt><trkpt lat="42.30449779279126" lon="13.521041485702895"><ele>576.3333333333334</ele><time>2026-05-03T11:18:19.999Z</time></trkpt><trkpt lat="42.30434107742296" lon="13.521196428836442"><ele>575.6666666666666</ele><time>2026-05-03T11:18:21Z</time></trkpt><trkpt lat="42.304140044203955" lon="13.521379574083864"><ele>575.0</ele><time>2026-05-03T11:18:22Z</time></trkpt><trkpt lat="42.30396543014216" lon="13.521547685812115"><ele>574.3333333333333</ele><time>2026-05-03T11:18:23Z</time></trkpt><trkpt lat="42.30379054361233" lon="13.521711548407692"><ele>573.6666666666666</ele><time>2026-05-03T11:18:24Z</time></trkpt><trkpt lat="42.3036144189091" lon="13.521881197465124"><ele>573.0</ele><time>2026-05-03T11:18:25Z</time></trkpt><trkpt lat="42.30343909249472" lon="13.522048268923335"><ele>572.3333333333334</ele><time>2026-05-03T11:18:26Z</time></trkpt><trkpt lat="42.30326487501666" lon="13.522219254422284"><ele>571.6666666666667</ele><time>2026-05-03T11:18:27Z</time></trkpt><trkpt lat="42.303087502575664" lon="13.522387193839133"><ele>571.0</ele><time>2026-05-03T11:18:28Z</time></trkpt><trkpt lat="42.302910803570164" lon="13.522548457213984"><ele>570.3333333333334</ele><time>2026-05-03T11:18:29Z</time></trkpt><trkpt lat="42.30273727454778" lon="13.522704814166623"><ele>569.6666666666666</ele><time>2026-05-03T11:18:30Z</time></trkpt><trkpt lat="42.30256762144758" lon="13.522861753468396"><ele>569.0</ele><time>2026-05-03T11:18:31Z</time></trkpt><trkpt lat="42.30240218157348" lon="13.523017974434355"><ele>569.0</ele><time>2026-05-03T11:18:32Z</time></trkpt><trkpt lat="42.30224039662925" lon="13.523170922647635"><ele>569.0</ele><time>2026-05-03T11:18:33Z</time></trkpt><trkpt lat="42.30208111294142" lon="13.523321205818018"><ele>569.0</ele><time>2026-05-03T11:18:34Z</time></trkpt><trkpt lat="42.30192382258976" lon="13.523468550233844"><ele>569.0</ele><time>2026-05-03T11:18:35Z</time></trkpt><trkpt lat="42.30177171629064" lon="13.523615778647116"><ele>569.0</ele><time>2026-05-03T11:18:36Z</time></trkpt><trkpt lat="42.301628091953276" lon="13.523764508735837"><ele>569.0</ele><time>2026-05-03T11:18:37Z</time></trkpt><trkpt lat="42.30149230852589" lon="13.523921203226822"><ele>567.3333333333333</ele><time>2026-05-03T11:18:38Z</time></trkpt><trkpt lat="42.301373482762905" lon="13.52410683347521"><ele>565.6666666666666</ele><time>2026-05-03T11:18:39Z</time></trkpt><trkpt lat="42.30126480658288" lon="13.524309914767263"><ele>564.0</ele><time>2026-05-03T11:18:40Z</time></trkpt><trkpt lat="42.30115723837741" lon="13.524520404936633"><ele>564.3333333333334</ele><time>2026-05-03T11:18:41Z</time></trkpt><trkpt lat="42.30104963035906" lon="13.524733620048357"><ele>564.6666666666667</ele><time>2026-05-03T11:18:42Z</time></trkpt><trkpt lat="42.300939394308244" lon="13.524950869787665"><ele>565.0</ele><time>2026-05-03T11:18:43Z</time></trkpt><trkpt lat="42.300824988426335" lon="13.525173954341314"><ele>565.0</ele><time>2026-05-03T11:18:44Z</time></trkpt><trkpt lat="42.300710121466366" lon="13.525390849711428"><ele>565.0</ele><time>2026-05-03T11:18:45Z</time></trkpt><trkpt lat="42.30059491927546" lon="13.52560970618152"><ele>565.0</ele><time>2026-05-03T11:18:46Z</time></trkpt><trkpt lat="42.30047936497995" lon="13.525828897036083"><ele>565.0</ele><time>2026-05-03T11:18:47Z</time></trkpt><trkpt lat="42.3003638342116" lon="13.526051211275519"><ele>565.0</ele><time>2026-05-03T11:18:48Z</time></trkpt><trkpt lat="42.300250076034764" lon="13.526272599093542"><ele>565.0</ele><time>2026-05-03T11:18:49Z</time></trkpt><trkpt lat="42.30013472198309" lon="13.526492969933589"><ele>565.0</ele><time>2026-05-03T11:18:50Z</time></trkpt><trkpt lat="42.300017175693036" lon="13.526712122118123"><ele>565.0</ele><time>2026-05-03T11:18:51Z</time></trkpt><trkpt lat="42.29990079210486" lon="13.526933231503858"><ele>565.0</ele><time>2026-05-03T11:18:52Z</time></trkpt><trkpt lat="42.29978699129419" lon="13.527155171518684"><ele>565.3333333333334</ele><time>2026-05-03T11:18:53Z</time></trkpt><trkpt lat="42.29967375024312" lon="13.527377726143426"><ele>565.6666666666666</ele><time>2026-05-03T11:18:54Z</time></trkpt><trkpt lat="42.29955737891854" lon="13.527598850115817"><ele>566.0</ele><time>2026-05-03T11:18:55Z</time></trkpt><trkpt lat="42.29944017374482" lon="13.527816222353222"><ele>566.0</ele><time>2026-05-03T11:18:56Z</time></trkpt><trkpt lat="42.29932399466141" lon="13.52803195550981"><ele>566.0</ele><time>2026-05-03T11:18:57Z</time></trkpt><trkpt lat="42.29920905064407" lon="13.528246111543318"><ele>566.0</ele><time>2026-05-03T11:18:58Z</time></trkpt><trkpt lat="42.299096783813596" lon="13.528461613106586"><ele>566.0</ele><time>2026-05-03T11:18:59Z</time></trkpt><trkpt lat="42.298986305080966" lon="13.528677692238912"><ele>566.0</ele><time>2026-05-03T11:19:00Z</time></trkpt><trkpt lat="42.298875062122264" lon="13.528889440736018"><ele>566.0</ele><time>2026-05-03T11:19:01Z</time></trkpt><trkpt lat="42.298764134677654" lon="13.529098689492601"><ele>566.3333333333333</ele><time>2026-05-03T11:19:02Z</time></trkpt><trkpt lat="42.29865241369676" lon="13.529306017429969"><ele>566.6666666666666</ele><time>2026-05-03T11:19:03Z</time></trkpt><trkpt lat="42.29854118642193" lon="13.529513791864952"><ele>567.0</ele><time>2026-05-03T11:19:04Z</time></trkpt><trkpt lat="42.298430290817876" lon="13.52972160560028"><ele>566.3333333333334</ele><time>2026-05-03T11:19:05Z</time></trkpt><trkpt lat="42.298319113441465" lon="13.529929758134745"><ele>565.6666666666667</ele><time>2026-05-03T11:19:06Z</time></trkpt><trkpt lat="42.29821005366866" lon="13.530138480315342"><ele>565.0</ele><time>2026-05-03T11:19:07Z</time></trkpt><trkpt lat="42.29810150115877" lon="13.530345901060429"><ele>565.3333333333334</ele><time>2026-05-03T11:19:08Z</time></trkpt><trkpt lat="42.29799450276709" lon="13.530555971247548"><ele>565.6666666666666</ele><time>2026-05-03T11:19:09Z</time></trkpt><trkpt lat="42.29788689120006" lon="13.530758099567837"><ele>566.0</ele><time>2026-05-03T11:19:10Z</time></trkpt><trkpt lat="42.297779400995104" lon="13.53096057235357"><ele>566.0</ele><time>2026-05-03T11:19:11Z</time></trkpt><trkpt lat="42.297672398227206" lon="13.531160650317874"><ele>566.0</ele><time>2026-05-03T11:19:12Z</time></trkpt><trkpt lat="42.29756554626078" lon="13.531358554202841"><ele>566.0</ele><time>2026-05-03T11:19:13Z</time></trkpt><trkpt lat="42.297461694165484" lon="13.531553794845072"><ele>566.0</ele><time>2026-05-03T11:19:14Z</time></trkpt><trkpt lat="42.29735775544877" lon="13.53175059546928"><ele>566.0</ele><time>2026-05-03T11:19:15Z</time></trkpt><trkpt lat="42.29725511913321" lon="13.531942966788437"><ele>566.0</ele><time>2026-05-03T11:19:16Z</time></trkpt><trkpt lat="42.297153297234" lon="13.532132075620412"><ele>568.0</ele><time>2026-05-03T11:19:17Z</time></trkpt><trkpt lat="42.297051212213944" lon="13.5323220286257"><ele>570.0</ele><time>2026-05-03T11:19:17.999Z</time></trkpt><trkpt lat="42.29695222387015" lon="13.532508828190112"><ele>572.0</ele><time>2026-05-03T11:19:18.999Z</time></trkpt><trkpt lat="42.296854224615444" lon="13.532697188745788"><ele>572.0</ele><time>2026-05-03T11:19:19.999Z</time></trkpt><trkpt lat="42.29675502161382" lon="13.532881645263421"><ele>572.0</ele><time>2026-05-03T11:19:20.999Z</time></trkpt><trkpt lat="42.29666057473252" lon="13.533066115934757"><ele>572.0</ele><time>2026-05-03T11:19:21.999Z</time></trkpt><trkpt lat="42.2965662821205" lon="13.53324728152421"><ele>572.0</ele><time>2026-05-03T11:19:22.999Z</time></trkpt><trkpt lat="42.2964716147592" lon="13.533429008800152"><ele>572.0</ele><time>2026-05-03T11:19:23.999Z</time></trkpt><trkpt lat="42.29638023287967" lon="13.533612931230952"><ele>572.0</ele><time>2026-05-03T11:19:24.999Z</time></trkpt><trkpt lat="42.29629327930089" lon="13.533797150194319"><ele>572.0</ele><time>2026-05-03T11:19:25.999Z</time></trkpt><trkpt lat="42.29621108642179" lon="13.53398544363064"><ele>572.0</ele><time>2026-05-03T11:19:26.999Z</time></trkpt><trkpt lat="42.29613061011525" lon="13.534176758672116"><ele>572.0</ele><time>2026-05-03T11:19:27.999Z</time></trkpt><trkpt lat="42.29604674548939" lon="13.534365963033048"><ele>572.3333333333333</ele><time>2026-05-03T11:19:28.999Z</time></trkpt><trkpt lat="42.29596422275298" lon="13.534554659223398"><ele>572.6666666666666</ele><time>2026-05-03T11:19:29.999Z</time></trkpt><trkpt lat="42.29588340897794" lon="13.534746123625117"><ele>573.0</ele><time>2026-05-03T11:19:30.999Z</time></trkpt><trkpt lat="42.295801565552296" lon="13.53493391066671"><ele>573.0</ele><time>2026-05-03T11:19:31.999Z</time></trkpt><trkpt lat="42.29571963255698" lon="13.535127208989755"><ele>573.0</ele><time>2026-05-03T11:19:32.999Z</time></trkpt><trkpt lat="42.29564047738062" lon="13.535317220719154"><ele>573.0</ele><time>2026-05-03T11:19:33.999Z</time></trkpt><trkpt lat="42.29555893313244" lon="13.53550972064024"><ele>573.0</ele><time>2026-05-03T11:19:34.999Z</time></trkpt><trkpt lat="42.295478168186555" lon="13.535703176545063"><ele>573.0</ele><time>2026-05-03T11:19:35.999Z</time></trkpt><trkpt lat="42.29539812535103" lon="13.535893983534166"><ele>573.0</ele><time>2026-05-03T11:19:36.999Z</time></trkpt><trkpt lat="42.295317821436065" lon="13.536078257747072"><ele>574.0</ele><time>2026-05-03T11:19:37.999Z</time></trkpt><trkpt lat="42.29523630073833" lon="13.536268771967896"><ele>575.0</ele><time>2026-05-03T11:19:38.999Z</time></trkpt><trkpt lat="42.295158041089785" lon="13.536457103561187"><ele>576.0</ele><time>2026-05-03T11:19:39.999Z</time></trkpt><trkpt lat="42.29507818707976" lon="13.536641676610357"><ele>576.0</ele><time>2026-05-03T11:19:40.999Z</time></trkpt><trkpt lat="42.295000580193" lon="13.536830605876853"><ele>576.0</ele><time>2026-05-03T11:19:41.999Z</time></trkpt><trkpt lat="42.294922024088855" lon="13.537010948642767"><ele>576.0</ele><time>2026-05-03T11:19:42.999Z</time></trkpt><trkpt lat="42.29484452778634" lon="13.537196076508918"><ele>576.3333333333334</ele><time>2026-05-03T11:19:43.999Z</time></trkpt><trkpt lat="42.294766240592864" lon="13.537379101961921"><ele>576.6666666666667</ele><time>2026-05-03T11:19:44.999Z</time></trkpt><trkpt lat="42.294686360144105" lon="13.537560083285694"><ele>577.0</ele><time>2026-05-03T11:19:45.999Z</time></trkpt><trkpt lat="42.294609932837254" lon="13.537738047527807"><ele>577.3333333333334</ele><time>2026-05-03T11:19:46.999Z</time></trkpt><trkpt lat="42.29453078415428" lon="13.537919066255176"><ele>577.6666666666666</ele><time>2026-05-03T11:19:47.999Z</time></trkpt><trkpt lat="42.294455908037165" lon="13.538099761397653"><ele>578.0</ele><time>2026-05-03T11:19:48.999Z</time></trkpt><trkpt lat="42.294381850278825" lon="13.53827808437883"><ele>578.0</ele><time>2026-05-03T11:19:49.999Z</time></trkpt><trkpt lat="42.29430470846092" lon="13.538458825219301"><ele>578.0</ele><time>2026-05-03T11:19:50.999Z</time></trkpt><trkpt lat="42.294226161238626" lon="13.538632765924865"><ele>578.0</ele><time>2026-05-03T11:19:51.999Z</time></trkpt><trkpt lat="42.29414855398923" lon="13.538811041128822"><ele>578.0</ele><time>2026-05-03T11:19:52.999Z</time></trkpt><trkpt lat="42.294072743473066" lon="13.538989528552365"><ele>578.0</ele><time>2026-05-03T11:19:53.999Z</time></trkpt><trkpt lat="42.293994681469364" lon="13.539170435485667"><ele>578.0</ele><time>2026-05-03T11:19:54.999Z</time></trkpt><trkpt lat="42.293915311033196" lon="13.539352727544408"><ele>578.0</ele><time>2026-05-03T11:19:55.999Z</time></trkpt><trkpt lat="42.29383583926418" lon="13.539536005657846"><ele>578.0</ele><time>2026-05-03T11:19:56.999Z</time></trkpt><trkpt lat="42.29375851895958" lon="13.539715085716676"><ele>578.0</ele><time>2026-05-03T11:19:57.999Z</time></trkpt><trkpt lat="42.293681315964115" lon="13.539899744269531"><ele>579.3333333333333</ele><time>2026-05-03T11:19:58.999Z</time></trkpt><trkpt lat="42.29360016404887" lon="13.54008705363974"><ele>580.6666666666666</ele><time>2026-05-03T11:19:59.999Z</time></trkpt><trkpt lat="42.29351828789593" lon="13.540276374469258"><ele>582.0</ele><time>2026-05-03T11:20:00.999Z</time></trkpt><trkpt lat="42.293436766650245" lon="13.540467231668478"><ele>583.3333333333334</ele><time>2026-05-03T11:20:01.999Z</time></trkpt><trkpt lat="42.293356240612646" lon="13.540661943461075"><ele>584.6666666666667</ele><time>2026-05-03T11:20:02.999Z</time></trkpt><trkpt lat="42.29327352572469" lon="13.540859271253431"><ele>586.0</ele><time>2026-05-03T11:20:03.999Z</time></trkpt><trkpt lat="42.293189378843294" lon="13.541054687837976"><ele>585.6666666666667</ele><time>2026-05-03T11:20:04.999Z</time></trkpt><trkpt lat="42.293104304914486" lon="13.541252642645793"><ele>585.3333333333334</ele><time>2026-05-03T11:20:05.999Z</time></trkpt><trkpt lat="42.29301929590398" lon="13.541452462364122"><ele>585.0</ele><time>2026-05-03T11:20:06.999Z</time></trkpt><trkpt lat="42.29293009111284" lon="13.54165499515323"><ele>585.0</ele><time>2026-05-03T11:20:07.999Z</time></trkpt><trkpt lat="42.29283971613868" lon="13.541860186352158"><ele>585.0</ele><time>2026-05-03T11:20:08.999Z</time></trkpt><trkpt lat="42.29275281838572" lon="13.54206493132928"><ele>585.0</ele><time>2026-05-03T11:20:09.999Z</time></trkpt><trkpt lat="42.2926653008537" lon="13.542275566677976"><ele>586.0</ele><time>2026-05-03T11:20:10.999Z</time></trkpt><trkpt lat="42.29257711806414" lon="13.542485277804833"><ele>587.0</ele><time>2026-05-03T11:20:11.999Z</time></trkpt><trkpt lat="42.29248722173825" lon="13.542695008282035"><ele>588.0</ele><time>2026-05-03T11:20:12.999Z</time></trkpt><trkpt lat="42.292396705606905" lon="13.542903340730982"><ele>588.6666666666666</ele><time>2026-05-03T11:20:13.999Z</time></trkpt><trkpt lat="42.29230747393381" lon="13.5431088538166"><ele>589.3333333333333</ele><time>2026-05-03T11:20:14.999Z</time></trkpt><trkpt lat="42.29221944681073" lon="13.54331382301737"><ele>590.0</ele><time>2026-05-03T11:20:15.999Z</time></trkpt><trkpt lat="42.29213344577891" lon="13.543519248171757"><ele>589.0</ele><time>2026-05-03T11:20:16.999Z</time></trkpt><trkpt lat="42.29204863458273" lon="13.5437231855919"><ele>588.0</ele><time>2026-05-03T11:20:17.999Z</time></trkpt><trkpt lat="42.291963881566055" lon="13.543927631547708"><ele>587.0</ele><time>2026-05-03T11:20:18.999Z</time></trkpt><trkpt lat="42.2918767740723" lon="13.54412861166674"><ele>587.0</ele><time>2026-05-03T11:20:19.999Z</time></trkpt><trkpt lat="42.29179118801506" lon="13.544330288572597"><ele>587.0</ele><time>2026-05-03T11:20:20.999Z</time></trkpt><trkpt lat="42.29170427037518" lon="13.544531948484172"><ele>587.0</ele><time>2026-05-03T11:20:21.999Z</time></trkpt><trkpt lat="42.29161736932903" lon="13.544731867159062"><ele>587.6666666666666</ele><time>2026-05-03T11:20:22.999Z</time></trkpt><trkpt lat="42.291529288811674" lon="13.544929815959724"><ele>588.3333333333334</ele><time>2026-05-03T11:20:23.999Z</time></trkpt><trkpt lat="42.291443231667735" lon="13.545136711939607"><ele>589.0</ele><time>2026-05-03T11:20:24.999Z</time></trkpt><trkpt lat="42.29135533257953" lon="13.545336110624241"><ele>590.6666666666667</ele><time>2026-05-03T11:20:25.999Z</time></trkpt><trkpt lat="42.291264127075095" lon="13.545538536896911"><ele>592.3333333333334</ele><time>2026-05-03T11:20:26.999Z</time></trkpt><trkpt lat="42.29118273528447" lon="13.545740545610796"><ele>594.0</ele><time>2026-05-03T11:20:27.999Z</time></trkpt><trkpt lat="42.29109854115933" lon="13.545945836007032"><ele>594.0</ele><time>2026-05-03T11:20:28.999Z</time></trkpt><trkpt lat="42.29100957850841" lon="13.546146369564543"><ele>594.0</ele><time>2026-05-03T11:20:29.999Z</time></trkpt><trkpt lat="42.290920695444335" lon="13.546350140734601"><ele>594.0</ele><time>2026-05-03T11:20:30.999Z</time></trkpt><trkpt lat="42.29083161197004" lon="13.546552906158496"><ele>594.6666666666666</ele><time>2026-05-03T11:20:31.999Z</time></trkpt><trkpt lat="42.290744297223576" lon="13.546759746722774"><ele>595.3333333333333</ele><time>2026-05-03T11:20:32.999Z</time></trkpt><trkpt lat="42.29065795790861" lon="13.546967314127501"><ele>596.0</ele><time>2026-05-03T11:20:33.999Z</time></trkpt><trkpt lat="42.29057064400259" lon="13.54717094801018"><ele>596.3333333333333</ele><time>2026-05-03T11:20:34.999Z</time></trkpt><trkpt lat="42.29048194406265" lon="13.547376203317295"><ele>596.6666666666666</ele><time>2026-05-03T11:20:35.999Z</time></trkpt><trkpt lat="42.29039475760725" lon="13.54757783372845"><ele>597.0</ele><time>2026-05-03T11:20:36.999Z</time></trkpt><trkpt lat="42.29030695289977" lon="13.54778355391825"><ele>598.3333333333334</ele><time>2026-05-03T11:20:37.999Z</time></trkpt><trkpt lat="42.29021860891302" lon="13.547986556926913"><ele>599.6666666666667</ele><time>2026-05-03T11:20:38.999Z</time></trkpt><trkpt lat="42.29013078755774" lon="13.54819311655767"><ele>601.0</ele><time>2026-05-03T11:20:39.999Z</time></trkpt><trkpt lat="42.29004238754937" lon="13.54840310562578"><ele>601.0</ele><time>2026-05-03T11:20:40.999Z</time></trkpt><trkpt lat="42.28995191850165" lon="13.54861480194191"><ele>601.0</ele><time>2026-05-03T11:20:41.999Z</time></trkpt><trkpt lat="42.28985894896015" lon="13.548827799430558"><ele>601.0</ele><time>2026-05-03T11:20:42.999Z</time></trkpt><trkpt lat="42.28976705494039" lon="13.549042066237332"><ele>601.6666666666667</ele><time>2026-05-03T11:20:43.999Z</time></trkpt><trkpt lat="42.289675348000145" lon="13.549254192247881"><ele>602.3333333333334</ele><time>2026-05-03T11:20:44.999Z</time></trkpt><trkpt lat="42.28958446025994" lon="13.549469774049678"><ele>603.0</ele><time>2026-05-03T11:20:45.999Z</time></trkpt><trkpt lat="42.28949360591826" lon="13.549683511238007"><ele>604.0</ele><time>2026-05-03T11:20:46.999Z</time></trkpt><trkpt lat="42.28940272391056" lon="13.549892680950858"><ele>605.0</ele><time>2026-05-03T11:20:47.999Z</time></trkpt><trkpt lat="42.28931188501498" lon="13.550096930114165"><ele>606.0</ele><time>2026-05-03T11:20:48.999Z</time></trkpt><trkpt lat="42.289223928184846" lon="13.550294987394942"><ele>607.3333333333334</ele><time>2026-05-03T11:20:49.999Z</time></trkpt><trkpt lat="42.2891383362681" lon="13.550492564945396"><ele>608.6666666666667</ele><time>2026-05-03T11:20:50.999Z</time></trkpt><trkpt lat="42.289055596201514" lon="13.550686114476907"><ele>610.0</ele><time>2026-05-03T11:20:51.999Z</time></trkpt><trkpt lat="42.288975940903164" lon="13.550872642557419"><ele>611.3333333333334</ele><time>2026-05-03T11:20:52.999Z</time></trkpt><trkpt lat="42.28889570471252" lon="13.551052885421566"><ele>612.6666666666666</ele><time>2026-05-03T11:20:53.999Z</time></trkpt><trkpt lat="42.28881218483495" lon="13.551231876543222"><ele>614.0</ele><time>2026-05-03T11:20:54.999Z</time></trkpt><trkpt lat="42.28872575934833" lon="13.55140198219645"><ele>614.0</ele><time>2026-05-03T11:20:55.999Z</time></trkpt><trkpt lat="42.28863291139877" lon="13.551560594030654"><ele>614.0</ele><time>2026-05-03T11:20:56.999Z</time></trkpt><trkpt lat="42.28853723951742" lon="13.551715541688681"><ele>614.0</ele><time>2026-05-03T11:20:57.999Z</time></trkpt><trkpt lat="42.288436227999874" lon="13.55186506973189"><ele>614.0</ele><time>2026-05-03T11:20:58.999Z</time></trkpt><trkpt lat="42.288333405871825" lon="13.55201647401919"><ele>614.6666666666666</ele><time>2026-05-03T11:20:59.999Z</time></trkpt><trkpt lat="42.28822901980312" lon="13.552168653675615"><ele>615.3333333333334</ele><time>2026-05-03T11:21:00.999Z</time></trkpt><trkpt lat="42.288121252377906" lon="13.55232370178069"><ele>616.0</ele><time>2026-05-03T11:21:01.999Z</time></trkpt><trkpt lat="42.28801484195779" lon="13.552480126262783"><ele>616.0</ele><time>2026-05-03T11:21:02.999Z</time></trkpt><trkpt lat="42.28790771431885" lon="13.552636304630607"><ele>616.0</ele><time>2026-05-03T11:21:03.999Z</time></trkpt><trkpt lat="42.28780191543334" lon="13.552792739317223"><ele>616.0</ele><time>2026-05-03T11:21:04.999Z</time></trkpt><trkpt lat="42.28769380749117" lon="13.552950971291459"><ele>616.6666666666667</ele><time>2026-05-03T11:21:05.999Z</time></trkpt><trkpt lat="42.287585984149594" lon="13.553109723734385"><ele>617.3333333333334</ele><time>2026-05-03T11:21:06.999Z</time></trkpt><trkpt lat="42.287477378425685" lon="13.553272237185558"><ele>618.0</ele><time>2026-05-03T11:21:07.999Z</time></trkpt><trkpt lat="42.287368647853796" lon="13.55343412998365"><ele>617.3333333333334</ele><time>2026-05-03T11:21:08.999Z</time></trkpt><trkpt lat="42.28725887941602" lon="13.553591871508488"><ele>616.6666666666667</ele><time>2026-05-03T11:21:09.999Z</time></trkpt><trkpt lat="42.28715253327497" lon="13.5537498400953"><ele>616.0</ele><time>2026-05-03T11:21:10.999Z</time></trkpt><trkpt lat="42.28704698367667" lon="13.553901906038458"><ele>616.0</ele><time>2026-05-03T11:21:11.999Z</time></trkpt><trkpt lat="42.28693992035638" lon="13.554053271842083"><ele>616.0</ele><time>2026-05-03T11:21:12.999Z</time></trkpt><trkpt lat="42.286835685647844" lon="13.554204446233163"><ele>616.0</ele><time>2026-05-03T11:21:13.999Z</time></trkpt><trkpt lat="42.28673514975756" lon="13.554350069220567"><ele>616.0</ele><time>2026-05-03T11:21:14.999Z</time></trkpt><trkpt lat="42.28663376685316" lon="13.554493760126563"><ele>616.0</ele><time>2026-05-03T11:21:15.999Z</time></trkpt><trkpt lat="42.2865284932736" lon="13.554626308962954"><ele>616.0</ele><time>2026-05-03T11:21:16.999Z</time></trkpt><trkpt lat="42.28640653161024" lon="13.554740640222438"><ele>616.0</ele><time>2026-05-03T11:21:17.999Z</time></trkpt><trkpt lat="42.28626468871733" lon="13.554826471416115"><ele>616.6666666666667</ele><time>2026-05-03T11:21:18.999Z</time></trkpt><trkpt lat="42.286105265883386" lon="13.554869998752284"><ele>617.3333333333334</ele><time>2026-05-03T11:21:19.999Z</time></trkpt><trkpt lat="42.28594296696698" lon="13.554928159900879"><ele>618.0</ele><time>2026-05-03T11:21:20.999Z</time></trkpt><trkpt lat="42.285773896850536" lon="13.554997341304421"><ele>618.0</ele><time>2026-05-03T11:21:21.999Z</time></trkpt><trkpt lat="42.285603375910966" lon="13.555047141854622"><ele>618.0</ele><time>2026-05-03T11:21:22.999Z</time></trkpt><trkpt lat="42.28543476562882" lon="13.555099680814587"><ele>618.0</ele><time>2026-05-03T11:21:23.999Z</time></trkpt><trkpt lat="42.28525935843088" lon="13.555153140894165"><ele>617.0</ele><time>2026-05-03T11:21:24.999Z</time></trkpt><trkpt lat="42.28508232739372" lon="13.555209300670583"><ele>616.0</ele><time>2026-05-03T11:21:25.999Z</time></trkpt><trkpt lat="42.284907565213544" lon="13.55526411365975"><ele>615.0</ele><time>2026-05-03T11:21:26.999Z</time></trkpt><trkpt lat="42.284731239871256" lon="13.55531555949901"><ele>614.3333333333334</ele><time>2026-05-03T11:21:27.999Z</time></trkpt><trkpt lat="42.28455764425133" lon="13.555360707016298"><ele>613.6666666666667</ele><time>2026-05-03T11:21:28.999Z</time></trkpt><trkpt lat="42.28438318806191" lon="13.555396904665127"><ele>613.0</ele><time>2026-05-03T11:21:29.999Z</time></trkpt><trkpt lat="42.28420989492573" lon="13.555422539917176"><ele>614.0</ele><time>2026-05-03T11:21:30.999Z</time></trkpt><trkpt lat="42.284039111270225" lon="13.555426916377645"><ele>615.0</ele><time>2026-05-03T11:21:31.999Z</time></trkpt><trkpt lat="42.28386894045079" lon="13.555411849370977"><ele>616.0</ele><time>2026-05-03T11:21:32.999Z</time></trkpt><trkpt lat="42.283703836376624" lon="13.555395055941407"><ele>615.6666666666667</ele><time>2026-05-03T11:21:33.999Z</time></trkpt><trkpt lat="42.283533179754315" lon="13.555366618120514"><ele>615.3333333333334</ele><time>2026-05-03T11:21:34.999Z</time></trkpt><trkpt lat="42.28336050602839" lon="13.555335365728473"><ele>615.0</ele><time>2026-05-03T11:21:35.999Z</time></trkpt><trkpt lat="42.283189101866995" lon="13.555305286618633"><ele>614.6666666666666</ele><time>2026-05-03T11:21:36.999Z</time></trkpt><trkpt lat="42.28301709073609" lon="13.555277970567111"><ele>614.3333333333333</ele><time>2026-05-03T11:21:37.999Z</time></trkpt><trkpt lat="42.282846767811115" lon="13.55525036919834"><ele>614.0</ele><time>2026-05-03T11:21:38.999Z</time></trkpt><trkpt lat="42.28268235588786" lon="13.555228221136796"><ele>614.0</ele><time>2026-05-03T11:21:39.999Z</time></trkpt><trkpt lat="42.28252374122751" lon="13.555217944345394"><ele>614.0</ele><time>2026-05-03T11:21:40.999Z</time></trkpt><trkpt lat="42.282370156682944" lon="13.555228588472689"><ele>614.0</ele><time>2026-05-03T11:21:41.999Z</time></trkpt><trkpt lat="42.282221466378196" lon="13.555280475909118"><ele>614.3333333333333</ele><time>2026-05-03T11:21:42.999Z</time></trkpt><trkpt lat="42.282072967921785" lon="13.555361078234634"><ele>614.6666666666666</ele><time>2026-05-03T11:21:43.999Z</time></trkpt><trkpt lat="42.281924977929414" lon="13.55545955444389"><ele>615.0</ele><time>2026-05-03T11:21:44.999Z</time></trkpt><trkpt lat="42.28178188051793" lon="13.555576710737821"><ele>615.0</ele><time>2026-05-03T11:21:45.999Z</time></trkpt><trkpt lat="42.28164409350265" lon="13.555710512916438"><ele>615.0</ele><time>2026-05-03T11:21:46.999Z</time></trkpt><trkpt lat="42.28151480481405" lon="13.555857399177027"><ele>615.0</ele><time>2026-05-03T11:21:47.999Z</time></trkpt><trkpt lat="42.28140259675497" lon="13.556019653600456"><ele>613.0</ele><time>2026-05-03T11:21:48.999Z</time></trkpt><trkpt lat="42.28130723454559" lon="13.556200438500838"><ele>611.0</ele><time>2026-05-03T11:21:49.999Z</time></trkpt><trkpt lat="42.2812351626994" lon="13.556393694405592"><ele>609.0</ele><time>2026-05-03T11:21:50.999Z</time></trkpt><trkpt lat="42.28118180243906" lon="13.556588569993277"><ele>609.0</ele><time>2026-05-03T11:21:51.999Z</time></trkpt><trkpt lat="42.28113936458747" lon="13.5567818230126"><ele>609.0</ele><time>2026-05-03T11:21:52.999Z</time></trkpt><trkpt lat="42.281102065212366" lon="13.55696935966242"><ele>609.0</ele><time>2026-05-03T11:21:53.999Z</time></trkpt><trkpt lat="42.28107145061014" lon="13.557149708703864"><ele>609.0</ele><time>2026-05-03T11:21:54.999Z</time></trkpt><trkpt lat="42.28103994062497" lon="13.557319337707018"><ele>609.5</ele><time>2026-05-03T11:21:55.999Z</time></trkpt><trkpt lat="42.28100641770669" lon="13.557480092300125"><ele>610.0</ele><time>2026-05-03T11:21:56.999Z</time></trkpt><trkpt lat="42.28097533549488" lon="13.55763674795681"><ele>610.5</ele><time>2026-05-03T11:21:57.999Z</time></trkpt><trkpt lat="42.28094881610847" lon="13.557790885010245"><ele>611.0</ele><time>2026-05-03T11:21:58.999Z</time></trkpt><trkpt lat="42.280924819442475" lon="13.55794738869814"><ele>611.4</ele><time>2026-05-03T11:21:59.999Z</time></trkpt><trkpt lat="42.28089849984471" lon="13.558101822044831"><ele>611.8</ele><time>2026-05-03T11:22:00.999Z</time></trkpt><trkpt lat="42.280868820881054" lon="13.558236889265622"><ele>612.1999999999999</ele><time>2026-05-03T11:22:01.999Z</time></trkpt><trkpt lat="42.2808349197491" lon="13.558351277415708"><ele>612.6</ele><time>2026-05-03T11:22:02.999Z</time></trkpt><trkpt lat="42.28079299483104" lon="13.558455611104923"><ele>613.0</ele><time>2026-05-03T11:22:03.999Z</time></trkpt><trkpt lat="42.280738913331746" lon="13.558552198561543"><ele>613.0</ele><time>2026-05-03T11:22:04.999Z</time></trkpt><trkpt lat="42.28066356207746" lon="13.558635670999246"><ele>613.0</ele><time>2026-05-03T11:22:05.999Z</time></trkpt><trkpt lat="42.28056785310939" lon="13.558701070211063"><ele>613.0</ele><time>2026-05-03T11:22:06.999Z</time></trkpt><trkpt lat="42.28045762459138" lon="13.558743099478207"><ele>613.0</ele><time>2026-05-03T11:22:07.999Z</time></trkpt><trkpt lat="42.28033710857178" lon="13.558761066407213"><ele>613.0</ele><time>2026-05-03T11:22:08.999Z</time></trkpt><trkpt lat="42.28020944354445" lon="13.55877269258957"><ele>612.25</ele><time>2026-05-03T11:22:09.999Z</time></trkpt><trkpt lat="42.280076040938525" lon="13.558785294653761"><ele>611.5</ele><time>2026-05-03T11:22:10.999Z</time></trkpt><trkpt lat="42.27993776217776" lon="13.558799637136778"><ele>610.75</ele><time>2026-05-03T11:22:11.999Z</time></trkpt><trkpt lat="42.27979236860013" lon="13.558816676720644"><ele>610.0</ele><time>2026-05-03T11:22:12.999Z</time></trkpt><trkpt lat="42.27964239637799" lon="13.558832944256036"><ele>612.0</ele><time>2026-05-03T11:22:13.998Z</time></trkpt><trkpt lat="42.27948733713334" lon="13.55884827009549"><ele>614.0</ele><time>2026-05-03T11:22:14.998Z</time></trkpt><trkpt lat="42.279332624330536" lon="13.558863511572639"><ele>616.0</ele><time>2026-05-03T11:22:15.998Z</time></trkpt><trkpt lat="42.27917314298551" lon="13.55887260907934"><ele>616.0</ele><time>2026-05-03T11:22:16.998Z</time></trkpt><trkpt lat="42.27900931596995" lon="13.55887470574569"><ele>616.0</ele><time>2026-05-03T11:22:17.998Z</time></trkpt><trkpt lat="42.278841044974115" lon="13.558875412921026"><ele>616.0</ele><time>2026-05-03T11:22:18.998Z</time></trkpt><trkpt lat="42.278669797478905" lon="13.558874952298565"><ele>615.0</ele><time>2026-05-03T11:22:19.998Z</time></trkpt><trkpt lat="42.278495598660086" lon="13.558868639488844"><ele>614.0</ele><time>2026-05-03T11:22:20.998Z</time></trkpt><trkpt lat="42.278323042802555" lon="13.558853415110885"><ele>613.0</ele><time>2026-05-03T11:22:21.998Z</time></trkpt><trkpt lat="42.27815165780666" lon="13.558834713367856"><ele>612.0</ele><time>2026-05-03T11:22:22.998Z</time></trkpt><trkpt lat="42.27797730333583" lon="13.5588164976264"><ele>611.0</ele><time>2026-05-03T11:22:23.998Z</time></trkpt><trkpt lat="42.277803315529844" lon="13.558802564104557"><ele>610.0</ele><time>2026-05-03T11:22:24.998Z</time></trkpt><trkpt lat="42.27762987139611" lon="13.558789329474978"><ele>610.0</ele><time>2026-05-03T11:22:25.998Z</time></trkpt><trkpt lat="42.27745784540372" lon="13.558774510417289"><ele>610.0</ele><time>2026-05-03T11:22:26.998Z</time></trkpt><trkpt lat="42.277288019124136" lon="13.558756807042581"><ele>610.0</ele><time>2026-05-03T11:22:27.998Z</time></trkpt><trkpt lat="42.27712648299139" lon="13.558738674399592"><ele>610.3333333333334</ele><time>2026-05-03T11:22:28.998Z</time></trkpt><trkpt lat="42.276971011805266" lon="13.558720322162571"><ele>610.6666666666666</ele><time>2026-05-03T11:22:29.998Z</time></trkpt><trkpt lat="42.2768215651256" lon="13.558702779405197"><ele>611.0</ele><time>2026-05-03T11:22:30.998Z</time></trkpt><trkpt lat="42.27667841601806" lon="13.558685656431283"><ele>611.75</ele><time>2026-05-03T11:22:31.998Z</time></trkpt><trkpt lat="42.276537475723245" lon="13.55866788237136"><ele>612.5</ele><time>2026-05-03T11:22:32.999Z</time></trkpt><trkpt lat="42.276403373343406" lon="13.558638079261652"><ele>613.25</ele><time>2026-05-03T11:22:33.999Z</time></trkpt><trkpt lat="42.276276773451954" lon="13.558589125851947"><ele>614.0</ele><time>2026-05-03T11:22:34.999Z</time></trkpt><trkpt lat="42.27616132105619" lon="13.55849612889373"><ele>614.0</ele><time>2026-05-03T11:22:35.999Z</time></trkpt><trkpt lat="42.27607029921272" lon="13.558351419881715"><ele>614.0</ele><time>2026-05-03T11:22:36.999Z</time></trkpt><trkpt lat="42.27597474643679" lon="13.558202951939316"><ele>614.0</ele><time>2026-05-03T11:22:37.999Z</time></trkpt><trkpt lat="42.27587072814013" lon="13.55804809175127"><ele>614.0</ele><time>2026-05-03T11:22:38.999Z</time></trkpt><trkpt lat="42.2757800203934" lon="13.557878903990012"><ele>614.5</ele><time>2026-05-03T11:22:39.999Z</time></trkpt><trkpt lat="42.27569269648015" lon="13.557725378780876"><ele>615.0</ele><time>2026-05-03T11:22:40.999Z</time></trkpt><trkpt lat="42.27560823188506" lon="13.557592214114338"><ele>615.5</ele><time>2026-05-03T11:22:41.999Z</time></trkpt><trkpt lat="42.27552087062417" lon="13.55747545245997"><ele>616.0</ele><time>2026-05-03T11:22:42.999Z</time></trkpt><trkpt lat="42.27544286363165" lon="13.55736963016207"><ele>614.25</ele><time>2026-05-03T11:22:43.999Z</time></trkpt><trkpt lat="42.27532454000852" lon="13.557352165163774"><ele>612.5</ele><time>2026-05-03T11:22:44.999Z</time></trkpt><trkpt lat="42.27521812529447" lon="13.557419689282593"><ele>610.75</ele><time>2026-05-03T11:22:45.999Z</time></trkpt><trkpt lat="42.27512452450114" lon="13.557518604313833"><ele>609.0</ele><time>2026-05-03T11:22:46.999Z</time></trkpt><trkpt lat="42.27504520500996" lon="13.55764473188824"><ele>609.0</ele><time>2026-05-03T11:22:47.999Z</time></trkpt><trkpt lat="42.27496271241362" lon="13.557816134740385"><ele>609.0</ele><time>2026-05-03T11:22:48.999Z</time></trkpt><trkpt lat="42.27487740763515" lon="13.557975372155477"><ele>609.0</ele><time>2026-05-03T11:22:49.999Z</time></trkpt><trkpt lat="42.274783552384115" lon="13.558143800040899"><ele>607.6666666666666</ele><time>2026-05-03T11:22:50.999Z</time></trkpt><trkpt lat="42.27468660136763" lon="13.558312522072834"><ele>606.3333333333333</ele><time>2026-05-03T11:22:51.999Z</time></trkpt><trkpt lat="42.27458427918182" lon="13.558482484671064"><ele>605.0</ele><time>2026-05-03T11:22:52.999Z</time></trkpt><trkpt lat="42.27448267671543" lon="13.558652721706514"><ele>610.0</ele><time>2026-05-03T11:22:53.999Z</time></trkpt><trkpt lat="42.27436466664752" lon="13.55881925077303"><ele>615.0</ele><time>2026-05-03T11:22:54.999Z</time></trkpt><trkpt lat="42.27422443066369" lon="13.558960272013657"><ele>620.0</ele><time>2026-05-03T11:22:55.999Z</time></trkpt><trkpt lat="42.27407498857532" lon="13.559092912814998"><ele>616.0</ele><time>2026-05-03T11:22:56.999Z</time></trkpt><trkpt lat="42.273924743638155" lon="13.559228109465993"><ele>612.0</ele><time>2026-05-03T11:22:57.999Z</time></trkpt><trkpt lat="42.273775089842935" lon="13.559360304783919"><ele>608.0</ele><time>2026-05-03T11:22:58.999Z</time></trkpt><trkpt lat="42.27363144167679" lon="13.559488847524413"><ele>613.0</ele><time>2026-05-03T11:22:59.999Z</time></trkpt><trkpt lat="42.27349515827997" lon="13.559611781365728"><ele>618.0</ele><time>2026-05-03T11:23:00.999Z</time></trkpt><trkpt lat="42.27336912177267" lon="13.559727006320161"><ele>623.0</ele><time>2026-05-03T11:23:01.999Z</time></trkpt><trkpt lat="42.27324806844789" lon="13.559825032529098"><ele>623.0</ele><time>2026-05-03T11:23:02.999Z</time></trkpt><trkpt lat="42.27312389627432" lon="13.559886643908579"><ele>623.0</ele><time>2026-05-03T11:23:03.999Z</time></trkpt><trkpt lat="42.272987749602315" lon="13.559899244806248"><ele>623.0</ele><time>2026-05-03T11:23:04.999Z</time></trkpt><trkpt lat="42.27284149922055" lon="13.559874188148969"><ele>623.0</ele><time>2026-05-03T11:23:05.999Z</time></trkpt><trkpt lat="42.2726907662753" lon="13.559826972541195"><ele>622.3333333333333</ele><time>2026-05-03T11:23:06.999Z</time></trkpt><trkpt lat="42.272541304304994" lon="13.559773572210585"><ele>621.6666666666666</ele><time>2026-05-03T11:23:07.999Z</time></trkpt><trkpt lat="42.27239238470351" lon="13.559721342304229"><ele>621.0</ele><time>2026-05-03T11:23:08.999Z</time></trkpt><trkpt lat="42.27224614393458" lon="13.559670210872543"><ele>622.0</ele><time>2026-05-03T11:23:09.999Z</time></trkpt><trkpt lat="42.27210717390948" lon="13.559618538071105"><ele>623.0</ele><time>2026-05-03T11:23:10.999Z</time></trkpt><trkpt lat="42.271973845520094" lon="13.55957107567533"><ele>624.0</ele><time>2026-05-03T11:23:11.999Z</time></trkpt><trkpt lat="42.27184740814873" lon="13.559529006243796"><ele>625.0</ele><time>2026-05-03T11:23:12.999Z</time></trkpt><trkpt lat="42.271721066815076" lon="13.559497618444178"><ele>624.0</ele><time>2026-05-03T11:23:13.999Z</time></trkpt><trkpt lat="42.27159552361715" lon="13.559482993420927"><ele>623.0</ele><time>2026-05-03T11:23:14.999Z</time></trkpt><trkpt lat="42.27147264691368" lon="13.559479121914244"><ele>622.0</ele><time>2026-05-03T11:23:15.999Z</time></trkpt><trkpt lat="42.27135564824777" lon="13.559487692026657"><ele>621.0</ele><time>2026-05-03T11:23:16.999Z</time></trkpt><trkpt lat="42.271245621981826" lon="13.559508420277044"><ele>621.0</ele><time>2026-05-03T11:23:17.999Z</time></trkpt><trkpt lat="42.27114433601267" lon="13.559529128946032"><ele>621.0</ele><time>2026-05-03T11:23:18.999Z</time></trkpt><trkpt lat="42.27105160847626" lon="13.55954436105385"><ele>621.0</ele><time>2026-05-03T11:23:19.999Z</time></trkpt><trkpt lat="42.2709635286784" lon="13.559557528013885"><ele>621.0</ele><time>2026-05-03T11:23:20.999Z</time></trkpt><trkpt lat="42.27088663364789" lon="13.559574113141734"><ele>621.0</ele><time>2026-05-03T11:23:21.999Z</time></trkpt><trkpt lat="42.27081308521693" lon="13.559615923412487"><ele>621.0</ele><time>2026-05-03T11:23:22.999Z</time></trkpt><trkpt lat="42.27074830859131" lon="13.559688592172375"><ele>621.4</ele><time>2026-05-03T11:23:23.999Z</time></trkpt><trkpt lat="42.27070653673702" lon="13.559786102077835"><ele>621.8</ele><time>2026-05-03T11:23:24.999Z</time></trkpt><trkpt lat="42.27068976941735" lon="13.559904790698267"><ele>622.1999999999999</ele><time>2026-05-03T11:23:25.999Z</time></trkpt><trkpt lat="42.27073360638862" lon="13.56002478347514"><ele>622.6</ele><time>2026-05-03T11:23:26.999Z</time></trkpt><trkpt lat="42.270784640066246" lon="13.560170355922645"><ele>623.0</ele><time>2026-05-03T11:23:27.999Z</time></trkpt><trkpt lat="42.270839647560734" lon="13.560346834229964"><ele>622.0</ele><time>2026-05-03T11:23:28.999Z</time></trkpt><trkpt lat="42.27088424080474" lon="13.560536422132715"><ele>621.0</ele><time>2026-05-03T11:23:29.999Z</time></trkpt><trkpt lat="42.27095076075011" lon="13.560728151535507"><ele>620.0</ele><time>2026-05-03T11:23:30.999Z</time></trkpt><trkpt lat="42.271016071072154" lon="13.560919372224856"><ele>620.0</ele><time>2026-05-03T11:23:31.999Z</time></trkpt><trkpt lat="42.27107257508487" lon="13.561117060323571"><ele>620.0</ele><time>2026-05-03T11:23:32.999Z</time></trkpt><trkpt lat="42.271110514231715" lon="13.561319874710142"><ele>620.0</ele><time>2026-05-03T11:23:33.999Z</time></trkpt><trkpt lat="42.27113875138128" lon="13.561517244469112"><ele>619.5</ele><time>2026-05-03T11:23:34.999Z</time></trkpt><trkpt lat="42.27116563252357" lon="13.561712925823402"><ele>619.0</ele><time>2026-05-03T11:23:35.999Z</time></trkpt><trkpt lat="42.27118075687745" lon="13.561905714430278"><ele>618.5</ele><time>2026-05-03T11:23:36.999Z</time></trkpt><trkpt lat="42.27116799782581" lon="13.562091096220628"><ele>618.0</ele><time>2026-05-03T11:23:37.999Z</time></trkpt><trkpt lat="42.271118030889994" lon="13.562265638058962"><ele>618.0</ele><time>2026-05-03T11:23:38.999Z</time></trkpt><trkpt lat="42.27102823743799" lon="13.562416175736212"><ele>618.0</ele><time>2026-05-03T11:23:39.999Z</time></trkpt><trkpt lat="42.27092243330838" lon="13.5625565384324"><ele>618.0</ele><time>2026-05-03T11:23:40.999Z</time></trkpt><trkpt lat="42.27081903784926" lon="13.562709919405437"><ele>618.0</ele><time>2026-05-03T11:23:41.999Z</time></trkpt><trkpt lat="42.27072018984562" lon="13.562875012996159"><ele>619.0</ele><time>2026-05-03T11:23:42.999Z</time></trkpt><trkpt lat="42.270630493177165" lon="13.563060071718503"><ele>620.0</ele><time>2026-05-03T11:23:43.999Z</time></trkpt><trkpt lat="42.270558987999074" lon="13.563252079814948"><ele>621.0</ele><time>2026-05-03T11:23:44.999Z</time></trkpt><trkpt lat="42.2705045800555" lon="13.563445251192546"><ele>617.5</ele><time>2026-05-03T11:23:45.999Z</time></trkpt><trkpt lat="42.270471081147456" lon="13.563638000018289"><ele>614.0</ele><time>2026-05-03T11:23:46.999Z</time></trkpt><trkpt lat="42.27047186842483" lon="13.563829007196517"><ele>610.5</ele><time>2026-05-03T11:23:47.999Z</time></trkpt><trkpt lat="42.27051301203268" lon="13.564020582227789"><ele>607.0</ele><time>2026-05-03T11:23:48.999Z</time></trkpt><trkpt lat="42.27057699816823" lon="13.564221883934033"><ele>610.0</ele><time>2026-05-03T11:23:49.999Z</time></trkpt><trkpt lat="42.27065186352768" lon="13.564435843307866"><ele>613.0</ele><time>2026-05-03T11:23:50.999Z</time></trkpt><trkpt lat="42.270727504927734" lon="13.56466015083326"><ele>616.0</ele><time>2026-05-03T11:23:51.999Z</time></trkpt><trkpt lat="42.27080709486915" lon="13.564877546286272"><ele>616.0</ele><time>2026-05-03T11:23:52.999Z</time></trkpt><trkpt lat="42.27089026124154" lon="13.565098607360675"><ele>616.0</ele><time>2026-05-03T11:23:53.999Z</time></trkpt><trkpt lat="42.2709803254438" lon="13.56531589396101"><ele>616.0</ele><time>2026-05-03T11:23:54.999Z</time></trkpt><trkpt lat="42.27107378140747" lon="13.56551960389143"><ele>614.0</ele><time>2026-05-03T11:23:55.999Z</time></trkpt><trkpt lat="42.27116592654821" lon="13.565715077475733"><ele>612.0</ele><time>2026-05-03T11:23:56.999Z</time></trkpt><trkpt lat="42.271254229594646" lon="13.565908594437394"><ele>610.0</ele><time>2026-05-03T11:23:57.999Z</time></trkpt><trkpt lat="42.27133734110747" lon="13.566098411593114"><ele>609.5</ele><time>2026-05-03T11:23:58.999Z</time></trkpt><trkpt lat="42.27141648498427" lon="13.566283053804483"><ele>609.0</ele><time>2026-05-03T11:23:59.999Z</time></trkpt><trkpt lat="42.271483227151876" lon="13.566465907356903"><ele>608.5</ele><time>2026-05-03T11:24:00.999Z</time></trkpt><trkpt lat="42.2715179288045" lon="13.566643278672755"><ele>608.0</ele><time>2026-05-03T11:24:01.999Z</time></trkpt><trkpt lat="42.27151666028479" lon="13.56681181019068"><ele>609.25</ele><time>2026-05-03T11:24:02.999Z</time></trkpt><trkpt lat="42.271478653618956" lon="13.566967961767647"><ele>610.5</ele><time>2026-05-03T11:24:03.999Z</time></trkpt><trkpt lat="42.27145653913075" lon="13.5671036710466"><ele>611.75</ele><time>2026-05-03T11:24:04.999Z</time></trkpt><trkpt lat="42.27144954491026" lon="13.567206828608427"><ele>613.0</ele><time>2026-05-03T11:24:05.999Z</time></trkpt><trkpt lat="42.27104238433548" lon="13.567308806324291"><ele>613.0</ele><time>2026-05-03T11:24:07.999Z</time></trkpt><trkpt lat="42.270879475231894" lon="13.567370672497578"><ele>613.0</ele><time>2026-05-03T11:24:08.999Z</time></trkpt><trkpt lat="42.27071208971685" lon="13.567431381004543"><ele>613.0</ele><time>2026-05-03T11:24:09.999Z</time></trkpt><trkpt lat="42.27053804812497" lon="13.567500404002638"><ele>611.3333333333334</ele><time>2026-05-03T11:24:10.999Z</time></trkpt><trkpt lat="42.270359425888074" lon="13.5675751531947"><ele>609.6666666666666</ele><time>2026-05-03T11:24:11.999Z</time></trkpt><trkpt lat="42.27019207463245" lon="13.567642676525852"><ele>608.0</ele><time>2026-05-03T11:24:12.999Z</time></trkpt><trkpt lat="42.27003201156743" lon="13.567700196370119"><ele>608.0</ele><time>2026-05-03T11:24:13.999Z</time></trkpt><trkpt lat="42.269877430900586" lon="13.567751023847833"><ele>608.0</ele><time>2026-05-03T11:24:14.999Z</time></trkpt><trkpt lat="42.26973071679338" lon="13.56779968596149"><ele>608.0</ele><time>2026-05-03T11:24:15.999Z</time></trkpt><trkpt lat="42.2695976631347" lon="13.567864209700884"><ele>608.3333333333333</ele><time>2026-05-03T11:24:16.999Z</time></trkpt><trkpt lat="42.26947573921656" lon="13.567963168253337"><ele>608.6666666666666</ele><time>2026-05-03T11:24:17.999Z</time></trkpt><trkpt lat="42.26937018221038" lon="13.568120726353408"><ele>609.0</ele><time>2026-05-03T11:24:18.999Z</time></trkpt><trkpt lat="42.26927660535778" lon="13.568303320758687"><ele>609.0</ele><time>2026-05-03T11:24:19.999Z</time></trkpt><trkpt lat="42.26918488095302" lon="13.568496833966401"><ele>609.0</ele><time>2026-05-03T11:24:20.999Z</time></trkpt><trkpt lat="42.269093357874546" lon="13.568692210202325"><ele>609.0</ele><time>2026-05-03T11:24:21.999Z</time></trkpt><trkpt lat="42.26900139978834" lon="13.568886409557413"><ele>607.3333333333334</ele><time>2026-05-03T11:24:22.999Z</time></trkpt><trkpt lat="42.268903715367095" lon="13.56907453534986"><ele>605.6666666666667</ele><time>2026-05-03T11:24:23.999Z</time></trkpt><trkpt lat="42.26878314992892" lon="13.56926720980606"><ele>604.0</ele><time>2026-05-03T11:24:24.999Z</time></trkpt><trkpt lat="42.26867047760737" lon="13.569447297239918"><ele>607.6666666666667</ele><time>2026-05-03T11:24:25.999Z</time></trkpt><trkpt lat="42.26854538946435" lon="13.56961771140673"><ele>611.3333333333334</ele><time>2026-05-03T11:24:26.999Z</time></trkpt><trkpt lat="42.268409167246304" lon="13.569777792897392"><ele>615.0</ele><time>2026-05-03T11:24:27.999Z</time></trkpt><trkpt lat="42.26827570199103" lon="13.569929510736529"><ele>615.0</ele><time>2026-05-03T11:24:28.999Z</time></trkpt><trkpt lat="42.26815202236653" lon="13.570079575608037"><ele>615.0</ele><time>2026-05-03T11:24:29.999Z</time></trkpt><trkpt lat="42.26804071357954" lon="13.57023278055288"><ele>615.0</ele><time>2026-05-03T11:24:30.999Z</time></trkpt><trkpt lat="42.267940142864" lon="13.570387828585686"><ele>613.3333333333334</ele><time>2026-05-03T11:24:31.999Z</time></trkpt><trkpt lat="42.26785737357187" lon="13.570560532255048"><ele>611.6666666666667</ele><time>2026-05-03T11:24:32.999Z</time></trkpt><trkpt lat="42.267788281476506" lon="13.570747343326039"><ele>610.0</ele><time>2026-05-03T11:24:33.999Z</time></trkpt><trkpt lat="42.267727805359186" lon="13.570932980218547"><ele>610.0</ele><time>2026-05-03T11:24:34.999Z</time></trkpt><trkpt lat="42.26767266966733" lon="13.571115147924651"><ele>610.0</ele><time>2026-05-03T11:24:35.999Z</time></trkpt><trkpt lat="42.26762591967533" lon="13.571305758690873"><ele>610.0</ele><time>2026-05-03T11:24:36.999Z</time></trkpt><trkpt lat="42.26759731414019" lon="13.571508490059875"><ele>610.0</ele><time>2026-05-03T11:24:37.999Z</time></trkpt><trkpt lat="42.2675738605608" lon="13.571717733027135"><ele>611.75</ele><time>2026-05-03T11:24:39Z</time></trkpt><trkpt lat="42.26755829453238" lon="13.571930141527625"><ele>613.5</ele><time>2026-05-03T11:24:40Z</time></trkpt><trkpt lat="42.267548038793436" lon="13.57213243240209"><ele>615.25</ele><time>2026-05-03T11:24:41Z</time></trkpt><trkpt lat="42.26754192895666" lon="13.572319826294633"><ele>617.0</ele><time>2026-05-03T11:24:42Z</time></trkpt><trkpt lat="42.26752928431359" lon="13.572491102557096"><ele>617.75</ele><time>2026-05-03T11:24:43Z</time></trkpt><trkpt lat="42.2675137168839" lon="13.572655810092451"><ele>618.5</ele><time>2026-05-03T11:24:44Z</time></trkpt><trkpt lat="42.267478097433624" lon="13.572802340451686"><ele>619.25</ele><time>2026-05-03T11:24:45Z</time></trkpt><trkpt lat="42.26741107130232" lon="13.572929727567368"><ele>620.0</ele><time>2026-05-03T11:24:46Z</time></trkpt><trkpt lat="42.26729352712793" lon="13.57298982145989"><ele>618.6666666666666</ele><time>2026-05-03T11:24:47Z</time></trkpt><trkpt lat="42.2671592364507" lon="13.573096907858671"><ele>617.3333333333334</ele><time>2026-05-03T11:24:48Z</time></trkpt><trkpt lat="42.26701951356934" lon="13.57317648039635"><ele>616.0</ele><time>2026-05-03T11:24:49Z</time></trkpt><trkpt lat="42.2668760699624" lon="13.573259242450751"><ele>616.0</ele><time>2026-05-03T11:24:50Z</time></trkpt><trkpt lat="42.26673382100874" lon="13.573342363284066"><ele>616.0</ele><time>2026-05-03T11:24:51Z</time></trkpt><trkpt lat="42.266587933493064" lon="13.573428024361903"><ele>616.0</ele><time>2026-05-03T11:24:52Z</time></trkpt><trkpt lat="42.26644627347931" lon="13.573514259458216"><ele>615.3333333333334</ele><time>2026-05-03T11:24:53Z</time></trkpt><trkpt lat="42.26630537801149" lon="13.57360253171095"><ele>614.6666666666666</ele><time>2026-05-03T11:24:54Z</time></trkpt><trkpt lat="42.266163175595416" lon="13.573690803194228"><ele>614.0</ele><time>2026-05-03T11:24:55Z</time></trkpt><trkpt lat="42.26601723717847" lon="13.573778391375377"><ele>616.3333333333333</ele><time>2026-05-03T11:24:56Z</time></trkpt><trkpt lat="42.26587188470731" lon="13.573859994652837"><ele>618.6666666666666</ele><time>2026-05-03T11:24:57Z</time></trkpt><trkpt lat="42.26573277182095" lon="13.573934244961217"><ele>621.0</ele><time>2026-05-03T11:24:58Z</time></trkpt><trkpt lat="42.265599775108164" lon="13.574006098223668"><ele>621.0</ele><time>2026-05-03T11:24:59Z</time></trkpt><trkpt lat="42.26548153833976" lon="13.57407339411532"><ele>621.0</ele><time>2026-05-03T11:25:00Z</time></trkpt><trkpt lat="42.26536865595422" lon="13.57414166304181"><ele>621.0</ele><time>2026-05-03T11:25:01Z</time></trkpt><trkpt lat="42.26526158474036" lon="13.574209878080175"><ele>621.0</ele><time>2026-05-03T11:25:02Z</time></trkpt><trkpt lat="42.265155316752335" lon="13.574283287528038"><ele>621.0</ele><time>2026-05-03T11:25:03Z</time></trkpt><trkpt lat="42.265051804875455" lon="13.574372351396391"><ele>621.0</ele><time>2026-05-03T11:25:04Z</time></trkpt><trkpt lat="42.264953716917084" lon="13.574475884111838"><ele>621.0</ele><time>2026-05-03T11:25:05Z</time></trkpt><trkpt lat="42.2648589489386" lon="13.574587401748762"><ele>621.0</ele><time>2026-05-03T11:25:06Z</time></trkpt><trkpt lat="42.26476668277837" lon="13.574707817280672"><ele>622.5</ele><time>2026-05-03T11:25:07Z</time></trkpt><trkpt lat="42.264677266291805" lon="13.574829490303635"><ele>624.0</ele><time>2026-05-03T11:25:08Z</time></trkpt><trkpt lat="42.264575095562044" lon="13.574941836081923"><ele>625.5</ele><time>2026-05-03T11:25:09Z</time></trkpt><trkpt lat="42.26446626440992" lon="13.575035108010587"><ele>627.0</ele><time>2026-05-03T11:25:10Z</time></trkpt><trkpt lat="42.26435288840486" lon="13.575113998733139"><ele>627.0</ele><time>2026-05-03T11:25:11Z</time></trkpt><trkpt lat="42.26423360981507" lon="13.575195081939894"><ele>627.0</ele><time>2026-05-03T11:25:12Z</time></trkpt><trkpt lat="42.264112579922426" lon="13.57527577831891"><ele>627.0</ele><time>2026-05-03T11:25:13Z</time></trkpt><trkpt lat="42.26398850954199" lon="13.575353256299076"><ele>627.0</ele><time>2026-05-03T11:25:14Z</time></trkpt><trkpt lat="42.26386610276229" lon="13.575429128048036"><ele>629.75</ele><time>2026-05-03T11:25:15Z</time></trkpt><trkpt lat="42.26375107890273" lon="13.575503541915934"><ele>632.5</ele><time>2026-05-03T11:25:16Z</time></trkpt><trkpt lat="42.26363560082968" lon="13.575546186338123"><ele>635.25</ele><time>2026-05-03T11:25:17Z</time></trkpt><trkpt lat="42.2635359828238" lon="13.575587906461044"><ele>638.0</ele><time>2026-05-03T11:25:18Z</time></trkpt><trkpt lat="42.26343648004924" lon="13.575623231180355"><ele>638.0</ele><time>2026-05-03T11:25:19Z</time></trkpt><trkpt lat="42.26332549520637" lon="13.575607064246304"><ele>638.0</ele><time>2026-05-03T11:25:20Z</time></trkpt><trkpt lat="42.26322010315402" lon="13.57555574515715"><ele>638.0</ele><time>2026-05-03T11:25:21Z</time></trkpt><trkpt lat="42.26312869931635" lon="13.575457132610838"><ele>638.0</ele><time>2026-05-03T11:25:22Z</time></trkpt><trkpt lat="42.26303572276105" lon="13.57536135982828"><ele>638.25</ele><time>2026-05-03T11:25:23Z</time></trkpt><trkpt lat="42.26293935285935" lon="13.575272631828293"><ele>638.5</ele><time>2026-05-03T11:25:24Z</time></trkpt><trkpt lat="42.26282392422934" lon="13.575168949170608"><ele>638.75</ele><time>2026-05-03T11:25:25Z</time></trkpt><trkpt lat="42.26271951147389" lon="13.57505937304379"><ele>639.0</ele><time>2026-05-03T11:25:26Z</time></trkpt><trkpt lat="42.26261490257057" lon="13.574949550209432"><ele>639.0</ele><time>2026-05-03T11:25:27Z</time></trkpt><trkpt lat="42.26251410571406" lon="13.574841660375524"><ele>639.0</ele><time>2026-05-03T11:25:28Z</time></trkpt><trkpt lat="42.26241845579045" lon="13.574743944734019"><ele>639.0</ele><time>2026-05-03T11:25:29Z</time></trkpt><trkpt lat="42.262327620902724" lon="13.574657251381685"><ele>639.0</ele><time>2026-05-03T11:25:30Z</time></trkpt><trkpt lat="42.2622397444112" lon="13.57458455763653"><ele>639.0</ele><time>2026-05-03T11:25:31Z</time></trkpt><trkpt lat="42.26215492043167" lon="13.574526069073762"><ele>639.0</ele><time>2026-05-03T11:25:32Z</time></trkpt><trkpt lat="42.262072059817584" lon="13.574483247688772"><ele>639.0</ele><time>2026-05-03T11:25:33Z</time></trkpt><trkpt lat="42.26199981170462" lon="13.574447438003526"><ele>639.0</ele><time>2026-05-03T11:25:34Z</time></trkpt><trkpt lat="42.26193004666415" lon="13.574419666382711"><ele>639.0</ele><time>2026-05-03T11:25:35Z</time></trkpt><trkpt lat="42.26183048883214" lon="13.574402876616187"><ele>639.0</ele><time>2026-05-03T11:25:37Z</time></trkpt><trkpt lat="42.26179428055792" lon="13.57448903042682"><ele>642.6</ele><time>2026-05-03T11:25:39Z</time></trkpt><trkpt lat="42.26184415601942" lon="13.574606106297916"><ele>646.2</ele><time>2026-05-03T11:25:41Z</time></trkpt><trkpt lat="42.261907338141775" lon="13.574641251508615"><ele>649.8000000000001</ele><time>2026-05-03T11:25:42Z</time></trkpt><trkpt lat="42.2619856962896" lon="13.574678768976362"><ele>653.4</ele><time>2026-05-03T11:25:43Z</time></trkpt><trkpt lat="42.26207477213582" lon="13.574721171021435"><ele>657.0</ele><time>2026-05-03T11:25:44Z</time></trkpt><trkpt lat="42.262172210684646" lon="13.57478037550035"><ele>652.5</ele><time>2026-05-03T11:25:45Z</time></trkpt><trkpt lat="42.262284406275676" lon="13.57486066394419"><ele>648.0</ele><time>2026-05-03T11:25:46Z</time></trkpt><trkpt lat="42.26239852269525" lon="13.574958396800048"><ele>643.5</ele><time>2026-05-03T11:25:47Z</time></trkpt><trkpt lat="42.262510000342054" lon="13.57508027867919"><ele>639.0</ele><time>2026-05-03T11:25:48Z</time></trkpt><trkpt lat="42.26261832783874" lon="13.575217571088018"><ele>639.0</ele><time>2026-05-03T11:25:48.999Z</time></trkpt><trkpt lat="42.26272921316449" lon="13.575349657792842"><ele>639.0</ele><time>2026-05-03T11:25:49.999Z</time></trkpt><trkpt lat="42.26283973364943" lon="13.575479051221333"><ele>639.0</ele><time>2026-05-03T11:25:50.999Z</time></trkpt><trkpt lat="42.262946680600564" lon="13.575609198922159"><ele>639.0</ele><time>2026-05-03T11:25:51.999Z</time></trkpt><trkpt lat="42.26303694379514" lon="13.575742428797826"><ele>638.75</ele><time>2026-05-03T11:25:52.999Z</time></trkpt><trkpt lat="42.26310849759903" lon="13.575890770242273"><ele>638.5</ele><time>2026-05-03T11:25:53.999Z</time></trkpt><trkpt lat="42.26316731108835" lon="13.576036455544862"><ele>638.25</ele><time>2026-05-03T11:25:54.999Z</time></trkpt><trkpt lat="42.26322330215797" lon="13.57617378706072"><ele>638.0</ele><time>2026-05-03T11:25:55.999Z</time></trkpt><trkpt lat="42.26329665762772" lon="13.576298409705746"><ele>640.25</ele><time>2026-05-03T11:25:56.999Z</time></trkpt><trkpt lat="42.26338958208723" lon="13.576397349257958"><ele>642.5</ele><time>2026-05-03T11:25:57.999Z</time></trkpt><trkpt lat="42.26349763922598" lon="13.576465683611932"><ele>644.75</ele><time>2026-05-03T11:25:58.999Z</time></trkpt><trkpt lat="42.26360663975659" lon="13.576522300592407"><ele>647.0</ele><time>2026-05-03T11:25:59.999Z</time></trkpt><trkpt lat="42.26371905043914" lon="13.576576928348665"><ele>647.0</ele><time>2026-05-03T11:26:00.999Z</time></trkpt><trkpt lat="42.263829482805846" lon="13.576638562615116"><ele>647.0</ele><time>2026-05-03T11:26:01.999Z</time></trkpt><trkpt lat="42.26394093950098" lon="13.576704810467016"><ele>647.0</ele><time>2026-05-03T11:26:02.999Z</time></trkpt><trkpt lat="42.26405142465986" lon="13.57677029406289"><ele>647.0</ele><time>2026-05-03T11:26:03.999Z</time></trkpt><trkpt lat="42.26415822417584" lon="13.576848359295804"><ele>646.0</ele><time>2026-05-03T11:26:04.999Z</time></trkpt><trkpt lat="42.264261666954624" lon="13.576930151980577"><ele>645.0</ele><time>2026-05-03T11:26:05.999Z</time></trkpt><trkpt lat="42.26435951193114" lon="13.577021328339518"><ele>644.0</ele><time>2026-05-03T11:26:06.999Z</time></trkpt><trkpt lat="42.264452976644364" lon="13.577119748158061"><ele>643.0</ele><time>2026-05-03T11:26:07.999Z</time></trkpt><trkpt lat="42.264537803976665" lon="13.577228107970198"><ele>645.4</ele><time>2026-05-03T11:26:08.999Z</time></trkpt><trkpt lat="42.26460567119091" lon="13.577339376444288"><ele>647.8</ele><time>2026-05-03T11:26:09.999Z</time></trkpt><trkpt lat="42.264653702250406" lon="13.577451385955142"><ele>650.2</ele><time>2026-05-03T11:26:10.999Z</time></trkpt><trkpt lat="42.26468045778935" lon="13.577576663296224"><ele>652.6</ele><time>2026-05-03T11:26:11.999Z</time></trkpt><trkpt lat="42.26468390922971" lon="13.577709343673932"><ele>655.0</ele><time>2026-05-03T11:26:12.999Z</time></trkpt><trkpt lat="42.26465620854655" lon="13.57785364190081"><ele>656.25</ele><time>2026-05-03T11:26:13.999Z</time></trkpt><trkpt lat="42.26461398658064" lon="13.578001238948133"><ele>657.5</ele><time>2026-05-03T11:26:14.999Z</time></trkpt><trkpt lat="42.26456463847456" lon="13.578160448273813"><ele>658.75</ele><time>2026-05-03T11:26:15.999Z</time></trkpt><trkpt lat="42.26451047219682" lon="13.578320327542572"><ele>660.0</ele><time>2026-05-03T11:26:16.999Z</time></trkpt><trkpt lat="42.26444998492224" lon="13.578477663949538"><ele>660.0</ele><time>2026-05-03T11:26:17.999Z</time></trkpt><trkpt lat="42.264385190385184" lon="13.57862925027051"><ele>660.0</ele><time>2026-05-03T11:26:18.999Z</time></trkpt><trkpt lat="42.26431480738032" lon="13.578771164826875"><ele>660.0</ele><time>2026-05-03T11:26:19.999Z</time></trkpt><trkpt lat="42.264231060277915" lon="13.578911946523167"><ele>660.0</ele><time>2026-05-03T11:26:20.999Z</time></trkpt><trkpt lat="42.264132817118266" lon="13.579051316129323"><ele>660.0</ele><time>2026-05-03T11:26:21.999Z</time></trkpt><trkpt lat="42.264022510403564" lon="13.579185756463342"><ele>660.0</ele><time>2026-05-03T11:26:22.999Z</time></trkpt><trkpt lat="42.2639087386883" lon="13.579317554249593"><ele>660.0</ele><time>2026-05-03T11:26:23.999Z</time></trkpt><trkpt lat="42.26379623166913" lon="13.579450264319396"><ele>660.0</ele><time>2026-05-03T11:26:24.999Z</time></trkpt><trkpt lat="42.2636940818491" lon="13.579594209739032"><ele>662.6666666666666</ele><time>2026-05-03T11:26:25.999Z</time></trkpt><trkpt lat="42.26361223281217" lon="13.579759651516584"><ele>665.3333333333333</ele><time>2026-05-03T11:26:26.999Z</time></trkpt><trkpt lat="42.26355239468971" lon="13.579948837787867"><ele>668.0</ele><time>2026-05-03T11:26:27.999Z</time></trkpt><trkpt lat="42.26351812561298" lon="13.580157930324354"><ele>668.6666666666666</ele><time>2026-05-03T11:26:28.999Z</time></trkpt><trkpt lat="42.26348975012524" lon="13.580368376516748"><ele>669.3333333333334</ele><time>2026-05-03T11:26:29.999Z</time></trkpt><trkpt lat="42.26346472693993" lon="13.580576690264673"><ele>670.0</ele><time>2026-05-03T11:26:30.999Z</time></trkpt><trkpt lat="42.26343772865406" lon="13.580770650076412"><ele>670.0</ele><time>2026-05-03T11:26:31.999Z</time></trkpt><trkpt lat="42.263408189058545" lon="13.580948107136352"><ele>670.0</ele><time>2026-05-03T11:26:32.999Z</time></trkpt><trkpt lat="42.26338550874895" lon="13.581110148727685"><ele>670.0</ele><time>2026-05-03T11:26:33.999Z</time></trkpt><trkpt lat="42.26337719911307" lon="13.581276620384672"><ele>670.0</ele><time>2026-05-03T11:26:34.999Z</time></trkpt><trkpt lat="42.26339204904931" lon="13.581448996200624"><ele>671.0</ele><time>2026-05-03T11:26:35.999Z</time></trkpt><trkpt lat="42.26342729554219" lon="13.581625684288777"><ele>672.0</ele><time>2026-05-03T11:26:36.999Z</time></trkpt><trkpt lat="42.263471271943274" lon="13.581803401569566"><ele>673.0</ele><time>2026-05-03T11:26:37.999Z</time></trkpt><trkpt lat="42.26351754095788" lon="13.581973528265271"><ele>674.0</ele><time>2026-05-03T11:26:38.999Z</time></trkpt><trkpt lat="42.26356311461378" lon="13.582138327805998"><ele>675.0</ele><time>2026-05-03T11:26:39.999Z</time></trkpt><trkpt lat="42.26360723949322" lon="13.582295294843503"><ele>676.0</ele><time>2026-05-03T11:26:40.999Z</time></trkpt><trkpt lat="42.263646440442834" lon="13.582442169129829"><ele>677.0</ele><time>2026-05-03T11:26:41.999Z</time></trkpt><trkpt lat="42.263678875857494" lon="13.582570081846328"><ele>678.0</ele><time>2026-05-03T11:26:42.999Z</time></trkpt><trkpt lat="42.26370584264196" lon="13.582686176834198"><ele>679.0</ele><time>2026-05-03T11:26:43.999Z</time></trkpt><trkpt lat="42.263722821500245" lon="13.582792547116616"><ele>681.0</ele><time>2026-05-03T11:26:45Z</time></trkpt><trkpt lat="42.26371901355947" lon="13.582882717059002"><ele>683.0</ele><time>2026-05-03T11:26:46Z</time></trkpt><trkpt lat="42.26374336349759" lon="13.582991588708023"><ele>685.0</ele><time>2026-05-03T11:26:48Z</time></trkpt><trkpt lat="42.263540186817835" lon="13.583060626804143"><ele>687.0</ele><time>2026-05-03T11:26:49Z</time></trkpt><trkpt lat="42.26343828760414" lon="13.58308178179015"><ele>687.0</ele><time>2026-05-03T11:26:50Z</time></trkpt><trkpt lat="42.26331729973775" lon="13.583092775751291"><ele>687.0</ele><time>2026-05-03T11:26:51Z</time></trkpt><trkpt lat="42.263187781307096" lon="13.58311322297011"><ele>687.0</ele><time>2026-05-03T11:26:52Z</time></trkpt><trkpt lat="42.263072520851715" lon="13.583100314901396"><ele>687.0</ele><time>2026-05-03T11:26:53Z</time></trkpt><trkpt lat="42.26297259031565" lon="13.58309090397253"><ele>687.4000000000001</ele><time>2026-05-03T11:26:54Z</time></trkpt><trkpt lat="42.262893437753405" lon="13.583045530916674"><ele>687.8000000000001</ele><time>2026-05-03T11:26:55Z</time></trkpt><trkpt lat="42.262829364941865" lon="13.58298119205306"><ele>688.2</ele><time>2026-05-03T11:26:56Z</time></trkpt><trkpt lat="42.26281718210336" lon="13.582854948447954"><ele>688.6</ele><time>2026-05-03T11:26:57Z</time></trkpt><trkpt lat="42.26277338947016" lon="13.582715907255926"><ele>689.0</ele><time>2026-05-03T11:26:58Z</time></trkpt><trkpt lat="42.262715432152575" lon="13.58256535473174"><ele>689.0</ele><time>2026-05-03T11:26:59Z</time></trkpt><trkpt lat="42.26265519817743" lon="13.58241299664988"><ele>689.0</ele><time>2026-05-03T11:27:00Z</time></trkpt><trkpt lat="42.262569434886935" lon="13.582256817558417"><ele>689.0</ele><time>2026-05-03T11:27:01Z</time></trkpt><trkpt lat="42.262464654689374" lon="13.582108858098524"><ele>689.0</ele><time>2026-05-03T11:27:02Z</time></trkpt><trkpt lat="42.26235179174106" lon="13.581962145312627"><ele>692.0</ele><time>2026-05-03T11:27:03Z</time></trkpt><trkpt lat="42.2622342712011" lon="13.581852846858295"><ele>695.0</ele><time>2026-05-03T11:27:04Z</time></trkpt><trkpt lat="42.26209409322056" lon="13.581723484547497"><ele>698.0</ele><time>2026-05-03T11:27:05Z</time></trkpt><trkpt lat="42.261967836425114" lon="13.581580048949451"><ele>698.0</ele><time>2026-05-03T11:27:06Z</time></trkpt><trkpt lat="42.26186812434476" lon="13.581413720808039"><ele>698.0</ele><time>2026-05-03T11:27:07Z</time></trkpt><trkpt lat="42.26175696215042" lon="13.581290771934261"><ele>698.0</ele><time>2026-05-03T11:27:08Z</time></trkpt><trkpt lat="42.26166075571818" lon="13.581168109529578"><ele>698.0</ele><time>2026-05-03T11:27:09Z</time></trkpt><trkpt lat="42.26157191291463" lon="13.581076591755588"><ele>696.4</ele><time>2026-05-03T11:27:10Z</time></trkpt><trkpt lat="42.261479115574176" lon="13.581033388616737"><ele>694.8</ele><time>2026-05-03T11:27:11Z</time></trkpt><trkpt lat="42.261382571049275" lon="13.58104473962962"><ele>693.2</ele><time>2026-05-03T11:27:12Z</time></trkpt><trkpt lat="42.261295167215145" lon="13.58111407959637"><ele>691.6</ele><time>2026-05-03T11:27:13Z</time></trkpt><trkpt lat="42.26125077440426" lon="13.581244099329469"><ele>690.0</ele><time>2026-05-03T11:27:14Z</time></trkpt><trkpt lat="42.26125453449907" lon="13.581378572124319"><ele>692.0</ele><time>2026-05-03T11:27:15Z</time></trkpt><trkpt lat="42.261267348456165" lon="13.58151007708032"><ele>694.0</ele><time>2026-05-03T11:27:16Z</time></trkpt><trkpt lat="42.26131322282089" lon="13.581644457733027"><ele>696.0</ele><time>2026-05-03T11:27:17Z</time></trkpt><trkpt lat="42.261392708089915" lon="13.58177871546136"><ele>698.0</ele><time>2026-05-03T11:27:18Z</time></trkpt><trkpt lat="42.26149474707079" lon="13.581913126275957"><ele>701.3333333333333</ele><time>2026-05-03T11:27:19Z</time></trkpt><trkpt lat="42.261602716902274" lon="13.582060918150418"><ele>704.6666666666666</ele><time>2026-05-03T11:27:20Z</time></trkpt><trkpt lat="42.26172148943285" lon="13.582186101047562"><ele>708.0</ele><time>2026-05-03T11:27:21Z</time></trkpt><trkpt lat="42.261829290128645" lon="13.582335189081922"><ele>708.0</ele><time>2026-05-03T11:27:22Z</time></trkpt><trkpt lat="42.26188645076754" lon="13.582541082913952"><ele>708.0</ele><time>2026-05-03T11:27:23Z</time></trkpt><trkpt lat="42.26192662171736" lon="13.582773502150216"><ele>708.0</ele><time>2026-05-03T11:27:24Z</time></trkpt><trkpt lat="42.26196403863647" lon="13.583030656170703"><ele>710.6666666666666</ele><time>2026-05-03T11:27:25Z</time></trkpt><trkpt lat="42.26201190628475" lon="13.583321097336137"><ele>713.3333333333333</ele><time>2026-05-03T11:27:26Z</time></trkpt><trkpt lat="42.262036486420186" lon="13.583596991699226"><ele>716.0</ele><time>2026-05-03T11:27:27Z</time></trkpt><trkpt lat="42.2620653854341" lon="13.583856224154584"><ele>717.3333333333333</ele><time>2026-05-03T11:27:28Z</time></trkpt><trkpt lat="42.26210141905786" lon="13.584088602279003"><ele>718.6666666666666</ele><time>2026-05-03T11:27:29Z</time></trkpt><trkpt lat="42.26213840815749" lon="13.584297773124252"><ele>720.0</ele><time>2026-05-03T11:27:30Z</time></trkpt><trkpt lat="42.26215563734508" lon="13.584486176478556"><ele>721.0</ele><time>2026-05-03T11:27:31Z</time></trkpt><trkpt lat="42.26212394265363" lon="13.584666084804626"><ele>722.0</ele><time>2026-05-03T11:27:32Z</time></trkpt><trkpt lat="42.262083735419026" lon="13.584841264560533"><ele>723.0</ele><time>2026-05-03T11:27:33Z</time></trkpt><trkpt lat="42.26199316846005" lon="13.585001619052285"><ele>724.0</ele><time>2026-05-03T11:27:34Z</time></trkpt><trkpt lat="42.261901855091054" lon="13.585157796724653"><ele>724.0</ele><time>2026-05-03T11:27:35Z</time></trkpt><trkpt lat="42.261858890874535" lon="13.585314214547395"><ele>724.0</ele><time>2026-05-03T11:27:36Z</time></trkpt><trkpt lat="42.26187414418024" lon="13.585463765328523"><ele>724.0</ele><time>2026-05-03T11:27:37Z</time></trkpt><trkpt lat="42.26193349703885" lon="13.585605146240935"><ele>724.0</ele><time>2026-05-03T11:27:38Z</time></trkpt><trkpt lat="42.26202511913611" lon="13.58573222674747"><ele>723.5</ele><time>2026-05-03T11:27:39Z</time></trkpt><trkpt lat="42.26213846762263" lon="13.585850560447279"><ele>723.0</ele><time>2026-05-03T11:27:40Z</time></trkpt><trkpt lat="42.262245625897414" lon="13.585977822638252"><ele>722.5</ele><time>2026-05-03T11:27:41Z</time></trkpt><trkpt lat="42.262329955722244" lon="13.586117702105424"><ele>722.0</ele><time>2026-05-03T11:27:42Z</time></trkpt><trkpt lat="42.26238867750281" lon="13.586271832668917"><ele>722.0</ele><time>2026-05-03T11:27:43Z</time></trkpt><trkpt lat="42.262418032612366" lon="13.586434664086998"><ele>722.0</ele><time>2026-05-03T11:27:44Z</time></trkpt><trkpt lat="42.26239591946459" lon="13.58659475297932"><ele>722.0</ele><time>2026-05-03T11:27:45Z</time></trkpt><trkpt lat="42.26237513703243" lon="13.586775395322814"><ele>722.0</ele><time>2026-05-03T11:27:46Z</time></trkpt><trkpt lat="42.26231254488918" lon="13.586966340838089"><ele>725.5</ele><time>2026-05-03T11:27:47Z</time></trkpt><trkpt lat="42.2622442972049" lon="13.587150354578204"><ele>729.0</ele><time>2026-05-03T11:27:48Z</time></trkpt><trkpt lat="42.26217770251861" lon="13.587323435938119"><ele>732.5</ele><time>2026-05-03T11:27:49Z</time></trkpt><trkpt lat="42.262117813479115" lon="13.587471720826175"><ele>736.0</ele><time>2026-05-03T11:27:50Z</time></trkpt><trkpt lat="42.26205296957004" lon="13.58758849897522"><ele>736.0</ele><time>2026-05-03T11:27:51Z</time></trkpt><trkpt lat="42.26196994963623" lon="13.587662303710031"><ele>736.0</ele><time>2026-05-03T11:27:52Z</time></trkpt><trkpt lat="42.26186280818081" lon="13.58764815909024"><ele>736.0</ele><time>2026-05-03T11:27:53Z</time></trkpt><trkpt lat="42.26176051072577" lon="13.587630562870174"><ele>736.0</ele><time>2026-05-03T11:27:54Z</time></trkpt><trkpt lat="42.26169417644768" lon="13.587496085910619"><ele>736.0</ele><time>2026-05-03T11:27:55Z</time></trkpt><trkpt lat="42.26166802281616" lon="13.587356335254334"><ele>736.0</ele><time>2026-05-03T11:27:56Z</time></trkpt><trkpt lat="42.26163081978964" lon="13.587201188397028"><ele>736.0</ele><time>2026-05-03T11:27:57Z</time></trkpt><trkpt lat="42.26159912845814" lon="13.587024334265502"><ele>736.0</ele><time>2026-05-03T11:27:58Z</time></trkpt><trkpt lat="42.26154241547018" lon="13.586858696474087"><ele>736.0</ele><time>2026-05-03T11:27:59Z</time></trkpt><trkpt lat="42.26149014300434" lon="13.586685341637315"><ele>738.0</ele><time>2026-05-03T11:28:00Z</time></trkpt><trkpt lat="42.261403825780896" lon="13.586519003723874"><ele>740.0</ele><time>2026-05-03T11:28:01Z</time></trkpt><trkpt lat="42.26130000548017" lon="13.586347571380344"><ele>742.0</ele><time>2026-05-03T11:28:02Z</time></trkpt><trkpt lat="42.26121206562213" lon="13.586148425444284"><ele>742.0</ele><time>2026-05-03T11:28:03Z</time></trkpt><trkpt lat="42.2611151908582" lon="13.585964259850439"><ele>742.0</ele><time>2026-05-03T11:28:04Z</time></trkpt><trkpt lat="42.26102044886331" lon="13.585782581501784"><ele>742.0</ele><time>2026-05-03T11:28:05Z</time></trkpt><trkpt lat="42.26092691490598" lon="13.585597107092273"><ele>742.0</ele><time>2026-05-03T11:28:06Z</time></trkpt><trkpt lat="42.26084741050806" lon="13.585420631102053"><ele>742.0</ele><time>2026-05-03T11:28:07Z</time></trkpt><trkpt lat="42.26079489412629" lon="13.585251697612433"><ele>742.0</ele><time>2026-05-03T11:28:08Z</time></trkpt><trkpt lat="42.26077311341263" lon="13.5850798340647"><ele>742.0</ele><time>2026-05-03T11:28:09Z</time></trkpt><trkpt lat="42.26078588513971" lon="13.58490219335795"><ele>741.75</ele><time>2026-05-03T11:28:10Z</time></trkpt><trkpt lat="42.260819844043105" lon="13.584726405831411"><ele>741.5</ele><time>2026-05-03T11:28:10.999Z</time></trkpt><trkpt lat="42.26086355285102" lon="13.584534521679913"><ele>741.25</ele><time>2026-05-03T11:28:11.999Z</time></trkpt><trkpt lat="42.2609037985338" lon="13.584353726549828"><ele>741.0</ele><time>2026-05-03T11:28:12.999Z</time></trkpt><trkpt lat="42.26092179204224" lon="13.584181088777607"><ele>741.0</ele><time>2026-05-03T11:28:13.999Z</time></trkpt><trkpt lat="42.260928022003675" lon="13.584020398582602"><ele>741.0</ele><time>2026-05-03T11:28:14.999Z</time></trkpt><trkpt lat="42.260896983255854" lon="13.583854996866403"><ele>741.0</ele><time>2026-05-03T11:28:15.999Z</time></trkpt><trkpt lat="42.260841173506044" lon="13.583675925714665"><ele>741.0</ele><time>2026-05-03T11:28:16.999Z</time></trkpt><trkpt lat="42.260785329138265" lon="13.583487492348294"><ele>740.25</ele><time>2026-05-03T11:28:17.999Z</time></trkpt><trkpt lat="42.26073364266491" lon="13.583308156598314"><ele>739.5</ele><time>2026-05-03T11:28:18.999Z</time></trkpt><trkpt lat="42.2607083123212" lon="13.583132558462868"><ele>738.75</ele><time>2026-05-03T11:28:19.999Z</time></trkpt><trkpt lat="42.26064838068379" lon="13.582995629498875"><ele>738.0</ele><time>2026-05-03T11:28:20.999Z</time></trkpt><trkpt lat="42.260596508653485" lon="13.582880594976993"><ele>738.5999999999999</ele><time>2026-05-03T11:28:21.999Z</time></trkpt><trkpt lat="42.260523090373674" lon="13.582811215242135"><ele>739.1999999999999</ele><time>2026-05-03T11:28:22.999Z</time></trkpt><trkpt lat="42.26043370635503" lon="13.582796757520457"><ele>739.8</ele><time>2026-05-03T11:28:23.999Z</time></trkpt><trkpt lat="42.260337256929084" lon="13.58283471772107"><ele>740.4</ele><time>2026-05-03T11:28:24.999Z</time></trkpt><trkpt lat="42.260237332413396" lon="13.582905103729857"><ele>741.0</ele><time>2026-05-03T11:28:25.999Z</time></trkpt><trkpt lat="42.260127068444035" lon="13.582989994058924"><ele>744.0</ele><time>2026-05-03T11:28:26.999Z</time></trkpt><trkpt lat="42.26000373044021" lon="13.58306601732338"><ele>747.0</ele><time>2026-05-03T11:28:27.999Z</time></trkpt><trkpt lat="42.25986697294865" lon="13.583139773159857"><ele>750.0</ele><time>2026-05-03T11:28:28.999Z</time></trkpt><trkpt lat="42.25972582933932" lon="13.583220066897526"><ele>753.0</ele><time>2026-05-03T11:28:29.999Z</time></trkpt><trkpt lat="42.25958776171" lon="13.583299409663079"><ele>753.25</ele><time>2026-05-03T11:28:30.999Z</time></trkpt><trkpt lat="42.25945252463393" lon="13.583385091443908"><ele>753.5</ele><time>2026-05-03T11:28:31.999Z</time></trkpt><trkpt lat="42.25933638819362" lon="13.583470320042087"><ele>753.75</ele><time>2026-05-03T11:28:32.999Z</time></trkpt><trkpt lat="42.259244814151046" lon="13.583560160387945"><ele>754.0</ele><time>2026-05-03T11:28:33.999Z</time></trkpt><trkpt lat="42.2591780992617" lon="13.583662586158894"><ele>756.0</ele><time>2026-05-03T11:28:34.999Z</time></trkpt><trkpt lat="42.2591435792406" lon="13.583778858179596"><ele>758.0</ele><time>2026-05-03T11:28:35.999Z</time></trkpt><trkpt lat="42.2591478545075" lon="13.583897758901768"><ele>760.0</ele><time>2026-05-03T11:28:36.999Z</time></trkpt><trkpt lat="42.25919098370518" lon="13.584012505658466"><ele>762.0</ele><time>2026-05-03T11:28:37.999Z</time></trkpt><trkpt lat="42.25926369304657" lon="13.584117148696215"><ele>764.0</ele><time>2026-05-03T11:28:38.999Z</time></trkpt><trkpt lat="42.25934247254895" lon="13.584212805739472"><ele>764.0</ele><time>2026-05-03T11:28:39.999Z</time></trkpt><trkpt lat="42.259404984202156" lon="13.584310022388491"><ele>764.0</ele><time>2026-05-03T11:28:40.999Z</time></trkpt><trkpt lat="42.25943563025861" lon="13.584420990718279"><ele>764.0</ele><time>2026-05-03T11:28:41.999Z</time></trkpt><trkpt lat="42.25943408564825" lon="13.58454135257922"><ele>764.0</ele><time>2026-05-03T11:28:42.999Z</time></trkpt><trkpt lat="42.25940444296376" lon="13.584661200255129"><ele>764.0</ele><time>2026-05-03T11:28:43.999Z</time></trkpt><trkpt lat="42.25935167755461" lon="13.584770377584526"><ele>763.75</ele><time>2026-05-03T11:28:44.999Z</time></trkpt><trkpt lat="42.25928726086656" lon="13.584881193443184"><ele>763.5</ele><time>2026-05-03T11:28:45.999Z</time></trkpt><trkpt lat="42.259216212557064" lon="13.584996779344774"><ele>763.25</ele><time>2026-05-03T11:28:46.999Z</time></trkpt><trkpt lat="42.25913503571983" lon="13.585125011382983"><ele>763.0</ele><time>2026-05-03T11:28:47.999Z</time></trkpt><trkpt lat="42.259047834631055" lon="13.585260582723835"><ele>762.75</ele><time>2026-05-03T11:28:48.999Z</time></trkpt><trkpt lat="42.258957347009456" lon="13.585401754406602"><ele>762.5</ele><time>2026-05-03T11:28:49.999Z</time></trkpt><trkpt lat="42.25886258401599" lon="13.585539469318416"><ele>762.25</ele><time>2026-05-03T11:28:51Z</time></trkpt><trkpt lat="42.25876696582206" lon="13.585665800402982"><ele>762.0</ele><time>2026-05-03T11:28:52Z</time></trkpt><trkpt lat="42.25866908395238" lon="13.58579349234265"><ele>764.5</ele><time>2026-05-03T11:28:53Z</time></trkpt><trkpt lat="42.25857751794609" lon="13.585924551335033"><ele>767.0</ele><time>2026-05-03T11:28:54Z</time></trkpt><trkpt lat="42.258501345384914" lon="13.586067785674857"><ele>769.5</ele><time>2026-05-03T11:28:55Z</time></trkpt><trkpt lat="42.25844370451094" lon="13.586227916114481"><ele>772.0</ele><time>2026-05-03T11:28:56Z</time></trkpt><trkpt lat="42.25839836203168" lon="13.586400215140968"><ele>772.0</ele><time>2026-05-03T11:28:57Z</time></trkpt><trkpt lat="42.25835229754909" lon="13.586576750307959"><ele>772.0</ele><time>2026-05-03T11:28:58Z</time></trkpt><trkpt lat="42.258301017955716" lon="13.586759492816498"><ele>772.0</ele><time>2026-05-03T11:28:59Z</time></trkpt><trkpt lat="42.25825032547167" lon="13.586953986738695"><ele>772.0</ele><time>2026-05-03T11:29:00Z</time></trkpt><trkpt lat="42.25819991814594" lon="13.587155955819608"><ele>773.3333333333333</ele><time>2026-05-03T11:29:01Z</time></trkpt><trkpt lat="42.25815719041667" lon="13.587363161650016"><ele>774.6666666666667</ele><time>2026-05-03T11:29:02Z</time></trkpt><trkpt lat="42.258130918778186" lon="13.587578791834526"><ele>776.0</ele><time>2026-05-03T11:29:03Z</time></trkpt><trkpt lat="42.25811544619874" lon="13.58779882250363"><ele>782.6666666666667</ele><time>2026-05-03T11:29:04Z</time></trkpt><trkpt lat="42.25810076615858" lon="13.588020437331"><ele>789.3333333333333</ele><time>2026-05-03T11:29:05Z</time></trkpt><trkpt lat="42.25808613803676" lon="13.588230256484705"><ele>796.0</ele><time>2026-05-03T11:29:06Z</time></trkpt><trkpt lat="42.25807622405974" lon="13.58842407215931"><ele>796.0</ele><time>2026-05-03T11:29:07Z</time></trkpt><trkpt lat="42.25807931516684" lon="13.588604209837035"><ele>796.0</ele><time>2026-05-03T11:29:08Z</time></trkpt><trkpt lat="42.258107778503316" lon="13.588766785731694"><ele>796.0</ele><time>2026-05-03T11:29:09Z</time></trkpt><trkpt lat="42.25816740063078" lon="13.588918908920485"><ele>796.0</ele><time>2026-05-03T11:29:10Z</time></trkpt><trkpt lat="42.258262708020055" lon="13.589060770657424"><ele>793.3333333333333</ele><time>2026-05-03T11:29:11Z</time></trkpt><trkpt lat="42.25838272689586" lon="13.589189516879138"><ele>790.6666666666667</ele><time>2026-05-03T11:29:12Z</time></trkpt><trkpt lat="42.25851302632074" lon="13.58930715766561"><ele>788.0</ele><time>2026-05-03T11:29:13Z</time></trkpt><trkpt lat="42.258637309775956" lon="13.589416538991504"><ele>789.25</ele><time>2026-05-03T11:29:14Z</time></trkpt><trkpt lat="42.258746890340355" lon="13.589522274201983"><ele>790.5</ele><time>2026-05-03T11:29:15Z</time></trkpt><trkpt lat="42.25883842257536" lon="13.589641357375035"><ele>791.75</ele><time>2026-05-03T11:29:16Z</time></trkpt><trkpt lat="42.25890538595518" lon="13.58978215192894"><ele>793.0</ele><time>2026-05-03T11:29:17Z</time></trkpt><trkpt lat="42.25893908364336" lon="13.589942835982491"><ele>793.0</ele><time>2026-05-03T11:29:18Z</time></trkpt><trkpt lat="42.258942913511" lon="13.590112603563338"><ele>793.0</ele><time>2026-05-03T11:29:19Z</time></trkpt><trkpt lat="42.25889883915445" lon="13.590273376261084"><ele>793.0</ele><time>2026-05-03T11:29:20Z</time></trkpt><trkpt lat="42.258854889639565" lon="13.590446753903803"><ele>793.0</ele><time>2026-05-03T11:29:21Z</time></trkpt><trkpt lat="42.258781590529686" lon="13.59061850317329"><ele>793.3333333333333</ele><time>2026-05-03T11:29:22Z</time></trkpt><trkpt lat="42.25870366840935" lon="13.590796287738003"><ele>793.6666666666667</ele><time>2026-05-03T11:29:23Z</time></trkpt><trkpt lat="42.258621383640254" lon="13.59098370779814"><ele>794.0</ele><time>2026-05-03T11:29:24Z</time></trkpt><trkpt lat="42.258545268511064" lon="13.591172685625855"><ele>794.25</ele><time>2026-05-03T11:29:25Z</time></trkpt><trkpt lat="42.258477033157064" lon="13.591356112064975"><ele>794.5</ele><time>2026-05-03T11:29:26Z</time></trkpt><trkpt lat="42.25840551583671" lon="13.591530259111439"><ele>794.75</ele><time>2026-05-03T11:29:27Z</time></trkpt><trkpt lat="42.25832823136619" lon="13.591692013480127"><ele>795.0</ele><time>2026-05-03T11:29:28Z</time></trkpt><trkpt lat="42.25823899250589" lon="13.591832590249206"><ele>795.0</ele><time>2026-05-03T11:29:29Z</time></trkpt><trkpt lat="42.25813178144336" lon="13.59194997690109"><ele>795.0</ele><time>2026-05-03T11:29:30Z</time></trkpt><trkpt lat="42.25800397859084" lon="13.592054503572882"><ele>795.0</ele><time>2026-05-03T11:29:31Z</time></trkpt><trkpt lat="42.25786497281266" lon="13.592150013966837"><ele>795.0</ele><time>2026-05-03T11:29:32Z</time></trkpt><trkpt lat="42.257723655206" lon="13.592242074420856"><ele>797.3333333333333</ele><time>2026-05-03T11:29:33Z</time></trkpt><trkpt lat="42.25758192460361" lon="13.592339013149848"><ele>799.6666666666666</ele><time>2026-05-03T11:29:34Z</time></trkpt><trkpt lat="42.25743965720994" lon="13.592436622642705"><ele>802.0</ele><time>2026-05-03T11:29:35Z</time></trkpt><trkpt lat="42.25729674975453" lon="13.592531087511338"><ele>805.3333333333333</ele><time>2026-05-03T11:29:36Z</time></trkpt><trkpt lat="42.25715528387364" lon="13.592623108885801"><ele>808.6666666666667</ele><time>2026-05-03T11:29:37Z</time></trkpt><trkpt lat="42.257015571908404" lon="13.592711894781834"><ele>812.0</ele><time>2026-05-03T11:29:38Z</time></trkpt><trkpt lat="42.25686071205727" lon="13.592746625095684"><ele>812.0</ele><time>2026-05-03T11:29:39Z</time></trkpt><trkpt lat="42.25670739483146" lon="13.59279105847789"><ele>812.0</ele><time>2026-05-03T11:29:40Z</time></trkpt><trkpt lat="42.25655716962934" lon="13.592827833936115"><ele>812.0</ele><time>2026-05-03T11:29:41Z</time></trkpt><trkpt lat="42.25640713664502" lon="13.592871163459941"><ele>813.25</ele><time>2026-05-03T11:29:42Z</time></trkpt><trkpt lat="42.256261894014216" lon="13.592912590718205"><ele>814.5</ele><time>2026-05-03T11:29:43Z</time></trkpt><trkpt lat="42.256118262702444" lon="13.59294702553159"><ele>815.75</ele><time>2026-05-03T11:29:44Z</time></trkpt><trkpt lat="42.25598263363225" lon="13.592979850374617"><ele>817.0</ele><time>2026-05-03T11:29:45Z</time></trkpt><trkpt lat="42.25585811459515" lon="13.59301185953461"><ele>817.0</ele><time>2026-05-03T11:29:46Z</time></trkpt><trkpt lat="42.255731414832766" lon="13.593035711627925"><ele>817.0</ele><time>2026-05-03T11:29:47Z</time></trkpt><trkpt lat="42.25559806314405" lon="13.593053953673339"><ele>817.0</ele><time>2026-05-03T11:29:48Z</time></trkpt><trkpt lat="42.255457493810475" lon="13.593062066895545"><ele>817.0</ele><time>2026-05-03T11:29:49Z</time></trkpt><trkpt lat="42.25531386918965" lon="13.593053507391868"><ele>818.25</ele><time>2026-05-03T11:29:50Z</time></trkpt><trkpt lat="42.25516961692192" lon="13.593031711975778"><ele>819.5</ele><time>2026-05-03T11:29:51Z</time></trkpt><trkpt lat="42.255023403213144" lon="13.592984052741334"><ele>820.75</ele><time>2026-05-03T11:29:52Z</time></trkpt><trkpt lat="42.254871395360915" lon="13.592980101545582"><ele>822.0</ele><time>2026-05-03T11:29:53Z</time></trkpt><trkpt lat="42.25471730537936" lon="13.592953255003666"><ele>823.6666666666667</ele><time>2026-05-03T11:29:54Z</time></trkpt><trkpt lat="42.25456116061951" lon="13.592924421667046"><ele>825.3333333333334</ele><time>2026-05-03T11:29:55Z</time></trkpt><trkpt lat="42.254405125893996" lon="13.592897326610503"><ele>827.0</ele><time>2026-05-03T11:29:56Z</time></trkpt><trkpt lat="42.254248078819174" lon="13.59287183796085"><ele>829.0</ele><time>2026-05-03T11:29:57Z</time></trkpt><trkpt lat="42.25409407691179" lon="13.592823824047956"><ele>831.0</ele><time>2026-05-03T11:29:58Z</time></trkpt><trkpt lat="42.25393970449549" lon="13.592832823805177"><ele>833.0</ele><time>2026-05-03T11:29:59Z</time></trkpt><trkpt lat="42.25379027705705" lon="13.592830047461772"><ele>833.75</ele><time>2026-05-03T11:30:00Z</time></trkpt><trkpt lat="42.25364421438834" lon="13.592843395937805"><ele>834.5</ele><time>2026-05-03T11:30:01Z</time></trkpt><trkpt lat="42.25350239176415" lon="13.592864140699113"><ele>835.25</ele><time>2026-05-03T11:30:02Z</time></trkpt><trkpt lat="42.253371717920146" lon="13.592884423373727"><ele>836.0</ele><time>2026-05-03T11:30:03Z</time></trkpt><trkpt lat="42.25325285653921" lon="13.592879562833913"><ele>836.0</ele><time>2026-05-03T11:30:04Z</time></trkpt><trkpt lat="42.2531392576411" lon="13.592913007551326"><ele>836.0</ele><time>2026-05-03T11:30:05Z</time></trkpt><trkpt lat="42.253022924885286" lon="13.592924577659488"><ele>836.0</ele><time>2026-05-03T11:30:06Z</time></trkpt><trkpt lat="42.2529095086275" lon="13.592949371272983"><ele>836.0</ele><time>2026-05-03T11:30:07Z</time></trkpt><trkpt lat="42.252810569032455" lon="13.592989001964943"><ele>837.5</ele><time>2026-05-03T11:30:08Z</time></trkpt><trkpt lat="42.2527132329039" lon="13.593054576313374"><ele>839.0</ele><time>2026-05-03T11:30:09Z</time></trkpt><trkpt lat="42.25261723685737" lon="13.593140014846039"><ele>840.5</ele><time>2026-05-03T11:30:10Z</time></trkpt><trkpt lat="42.25253049718767" lon="13.593254276316921"><ele>842.0</ele><time>2026-05-03T11:30:11Z</time></trkpt><trkpt lat="42.252444752289975" lon="13.593373331073668"><ele>842.0</ele><time>2026-05-03T11:30:12Z</time></trkpt><trkpt lat="42.252360705659164" lon="13.593503054945556"><ele>842.0</ele><time>2026-05-03T11:30:13Z</time></trkpt><trkpt lat="42.25227004013831" lon="13.593645363251106"><ele>842.0</ele><time>2026-05-03T11:30:14Z</time></trkpt><trkpt lat="42.252171550404356" lon="13.593797690696084"><ele>842.0</ele><time>2026-05-03T11:30:15Z</time></trkpt><trkpt lat="42.25207003464728" lon="13.59395559823042"><ele>842.6666666666667</ele><time>2026-05-03T11:30:16Z</time></trkpt><trkpt lat="42.251971218534685" lon="13.594109096876636"><ele>843.3333333333333</ele><time>2026-05-03T11:30:17Z</time></trkpt><trkpt lat="42.25187203092807" lon="13.594265619428196"><ele>844.0</ele><time>2026-05-03T11:30:18Z</time></trkpt><trkpt lat="42.25176700981179" lon="13.594421763919568"><ele>846.0</ele><time>2026-05-03T11:30:19Z</time></trkpt><trkpt lat="42.251667549906465" lon="13.594579037344083"><ele>848.0</ele><time>2026-05-03T11:30:20Z</time></trkpt><trkpt lat="42.2515833570354" lon="13.59473723788166"><ele>850.0</ele><time>2026-05-03T11:30:21Z</time></trkpt><trkpt lat="42.25151451179052" lon="13.594905205875335"><ele>852.0</ele><time>2026-05-03T11:30:22Z</time></trkpt><trkpt lat="42.25147931941138" lon="13.595083966910895"><ele>852.5</ele><time>2026-05-03T11:30:23Z</time></trkpt><trkpt lat="42.25144750354656" lon="13.595263368253981"><ele>853.0</ele><time>2026-05-03T11:30:24Z</time></trkpt><trkpt lat="42.25142834754946" lon="13.595446144161759"><ele>853.5</ele><time>2026-05-03T11:30:25Z</time></trkpt><trkpt lat="42.2514209357739" lon="13.59564678750822"><ele>854.0</ele><time>2026-05-03T11:30:26Z</time></trkpt><trkpt lat="42.251421004687685" lon="13.595857531273774"><ele>852.6666666666667</ele><time>2026-05-03T11:30:27Z</time></trkpt><trkpt lat="42.25142523569856" lon="13.596071197006353"><ele>851.3333333333333</ele><time>2026-05-03T11:30:28Z</time></trkpt><trkpt lat="42.25141540520611" lon="13.596286298560612"><ele>850.0</ele><time>2026-05-03T11:30:29Z</time></trkpt><trkpt lat="42.251424935136484" lon="13.596500421121226"><ele>847.6666666666666</ele><time>2026-05-03T11:30:30Z</time></trkpt><trkpt lat="42.251435530784676" lon="13.596715728321659"><ele>845.3333333333333</ele><time>2026-05-03T11:30:31Z</time></trkpt><trkpt lat="42.251441490493846" lon="13.596933865035897"><ele>843.0</ele><time>2026-05-03T11:30:31.999Z</time></trkpt><trkpt lat="42.251446092849115" lon="13.59715081501869"><ele>841.6666666666667</ele><time>2026-05-03T11:30:32.999Z</time></trkpt><trkpt lat="42.25145529160889" lon="13.597361679964916"><ele>840.3333333333334</ele><time>2026-05-03T11:30:33.999Z</time></trkpt><trkpt lat="42.251461512766305" lon="13.597569681531395"><ele>839.0</ele><time>2026-05-03T11:30:34.999Z</time></trkpt><trkpt lat="42.251466168042626" lon="13.597769446214144"><ele>837.5</ele><time>2026-05-03T11:30:35.999Z</time></trkpt><trkpt lat="42.2514697330915" lon="13.597967147773698"><ele>836.0</ele><time>2026-05-03T11:30:36.999Z</time></trkpt><trkpt lat="42.2514711506035" lon="13.59816256286673"><ele>834.5</ele><time>2026-05-03T11:30:37.999Z</time></trkpt><trkpt lat="42.25146617430799" lon="13.59835417279389"><ele>833.0</ele><time>2026-05-03T11:30:38.999Z</time></trkpt><trkpt lat="42.25145479898457" lon="13.598555094010115"><ele>832.0</ele><time>2026-05-03T11:30:39.999Z</time></trkpt><trkpt lat="42.251430187919844" lon="13.598759459779387"><ele>831.0</ele><time>2026-05-03T11:30:40.999Z</time></trkpt><trkpt lat="42.25141082399955" lon="13.598963010801063"><ele>830.0</ele><time>2026-05-03T11:30:41.999Z</time></trkpt><trkpt lat="42.25138822958658" lon="13.599166816646129"><ele>830.0</ele><time>2026-05-03T11:30:42.999Z</time></trkpt><trkpt lat="42.251362821545385" lon="13.599364378351787"><ele>830.0</ele><time>2026-05-03T11:30:43.999Z</time></trkpt><trkpt lat="42.25134180763766" lon="13.599553959941979"><ele>830.0</ele><time>2026-05-03T11:30:44.999Z</time></trkpt><trkpt lat="42.25132172266389" lon="13.599743596041586"><ele>830.0</ele><time>2026-05-03T11:30:45.999Z</time></trkpt><trkpt lat="42.25130158997178" lon="13.599938977662744"><ele>829.6666666666667</ele><time>2026-05-03T11:30:46.999Z</time></trkpt><trkpt lat="42.25127930390977" lon="13.600139970960273"><ele>829.3333333333333</ele><time>2026-05-03T11:30:47.999Z</time></trkpt><trkpt lat="42.25125530191312" lon="13.60034238807654"><ele>829.0</ele><time>2026-05-03T11:30:48.999Z</time></trkpt><trkpt lat="42.251231082627825" lon="13.60054013110383"><ele>829.0</ele><time>2026-05-03T11:30:49.999Z</time></trkpt><trkpt lat="42.25120673957746" lon="13.600729834247632"><ele>829.0</ele><time>2026-05-03T11:30:50.999Z</time></trkpt><trkpt lat="42.2511854573671" lon="13.600918413691593"><ele>829.0</ele><time>2026-05-03T11:30:51.999Z</time></trkpt><trkpt lat="42.251165636596006" lon="13.601100457856074"><ele>829.0</ele><time>2026-05-03T11:30:52.999Z</time></trkpt><trkpt lat="42.25114589546681" lon="13.601287338914604"><ele>829.25</ele><time>2026-05-03T11:30:53.999Z</time></trkpt><trkpt lat="42.251133074177936" lon="13.60147174726855"><ele>829.5</ele><time>2026-05-03T11:30:54.999Z</time></trkpt><trkpt lat="42.25113309490527" lon="13.601653873330916"><ele>829.75</ele><time>2026-05-03T11:30:55.999Z</time></trkpt><trkpt lat="42.25115375419475" lon="13.601847521657216"><ele>830.0</ele><time>2026-05-03T11:30:57.001Z</time></trkpt><trkpt lat="42.251181587564375" lon="13.602049433217445"><ele>829.0</ele><time>2026-05-03T11:30:58.001Z</time></trkpt><trkpt lat="42.25119798490105" lon="13.602288033229877"><ele>828.0</ele><time>2026-05-03T11:30:59.001Z</time></trkpt><trkpt lat="42.25123519722914" lon="13.602530914133412"><ele>827.0</ele><time>2026-05-03T11:31:00.001Z</time></trkpt><trkpt lat="42.25124861627725" lon="13.602774910753835"><ele>826.3333333333334</ele><time>2026-05-03T11:31:01.001Z</time></trkpt><trkpt lat="42.251261420525616" lon="13.603022347574976"><ele>825.6666666666667</ele><time>2026-05-03T11:31:02.001Z</time></trkpt><trkpt lat="42.251277004351586" lon="13.603270613614697"><ele>825.0</ele><time>2026-05-03T11:31:03.001Z</time></trkpt><trkpt lat="42.25129640881884" lon="13.603519870915072"><ele>824.3333333333333</ele><time>2026-05-03T11:31:04.001Z</time></trkpt><trkpt lat="42.2513201419606" lon="13.603770941165992"><ele>823.6666666666666</ele><time>2026-05-03T11:31:05.001Z</time></trkpt><trkpt lat="42.25134473310027" lon="13.604024252672595"><ele>823.0</ele><time>2026-05-03T11:31:06.001Z</time></trkpt><trkpt lat="42.25136881787398" lon="13.604278987223008"><ele>823.6666666666666</ele><time>2026-05-03T11:31:07.001Z</time></trkpt><trkpt lat="42.251393566732" lon="13.60453029896586"><ele>824.3333333333333</ele><time>2026-05-03T11:31:08Z</time></trkpt><trkpt lat="42.25141744712887" lon="13.604777755286959"><ele>825.0</ele><time>2026-05-03T11:31:09Z</time></trkpt><trkpt lat="42.25143942264366" lon="13.605016117548995"><ele>827.3333333333333</ele><time>2026-05-03T11:31:10Z</time></trkpt><trkpt lat="42.25146059977241" lon="13.605248826595629"><ele>829.6666666666666</ele><time>2026-05-03T11:31:11Z</time></trkpt><trkpt lat="42.25148080139674" lon="13.605472163862904"><ele>832.0</ele><time>2026-05-03T11:31:12Z</time></trkpt><trkpt lat="42.25150045244653" lon="13.605690418110429"><ele>833.25</ele><time>2026-05-03T11:31:13Z</time></trkpt><trkpt lat="42.25151785928262" lon="13.60589285971637"><ele>834.5</ele><time>2026-05-03T11:31:14Z</time></trkpt><trkpt lat="42.251534408866" lon="13.606081902387677"><ele>835.75</ele><time>2026-05-03T11:31:15Z</time></trkpt><trkpt lat="42.25155191138986" lon="13.606262663179502"><ele>837.0</ele><time>2026-05-03T11:31:16Z</time></trkpt><trkpt lat="42.25156795971974" lon="13.60643627403733"><ele>838.6</ele><time>2026-05-03T11:31:17Z</time></trkpt><trkpt lat="42.25158218960004" lon="13.606597218850318"><ele>840.2</ele><time>2026-05-03T11:31:18Z</time></trkpt><trkpt lat="42.251593923706885" lon="13.60675184262399"><ele>841.8</ele><time>2026-05-03T11:31:19Z</time></trkpt><trkpt lat="42.25160749640483" lon="13.606891472574896"><ele>843.4</ele><time>2026-05-03T11:31:20Z</time></trkpt><trkpt lat="42.25163418959598" lon="13.607021147423419"><ele>845.0</ele><time>2026-05-03T11:31:21Z</time></trkpt><trkpt lat="42.25167859824613" lon="13.607144171141616"><ele>846.5000000000001</ele><time>2026-05-03T11:31:22Z</time></trkpt><trkpt lat="42.251737759693285" lon="13.607243246834534"><ele>848.0</ele><time>2026-05-03T11:31:23Z</time></trkpt><trkpt lat="42.25180087209259" lon="13.607325255596734"><ele>849.5</ele><time>2026-05-03T11:31:24Z</time></trkpt><trkpt lat="42.251857396230406" lon="13.607405607750971"><ele>851.0</ele><time>2026-05-03T11:31:25Z</time></trkpt><trkpt lat="42.25190596580476" lon="13.607477098657919"><ele>852.5000000000001</ele><time>2026-05-03T11:31:26Z</time></trkpt><trkpt lat="42.25194442715848" lon="13.60754759847407"><ele>854.0</ele><time>2026-05-03T11:31:27Z</time></trkpt><trkpt lat="42.25195983355523" lon="13.607631117247484"><ele>854.0000000000001</ele><time>2026-05-03T11:31:28Z</time></trkpt><trkpt lat="42.25192546841062" lon="13.607717179304956"><ele>854.0</ele><time>2026-05-03T11:31:29Z</time></trkpt><trkpt lat="42.251928006218456" lon="13.607833075913785"><ele>854.0</ele><time>2026-05-03T11:31:30Z</time></trkpt><trkpt lat="42.25195494843458" lon="13.607911394197323"><ele>854.0</ele><time>2026-05-03T11:31:31Z</time></trkpt><trkpt lat="42.25197936069718" lon="13.607990525966777"><ele>854.0000000000001</ele><time>2026-05-03T11:31:32Z</time></trkpt><trkpt lat="42.252017955575305" lon="13.608059673345188"><ele>854.0</ele><time>2026-05-03T11:31:33Z</time></trkpt><trkpt lat="42.25203083904915" lon="13.60822017293335"><ele>854.6666666666667</ele><time>2026-05-03T11:31:35Z</time></trkpt><trkpt lat="42.252008656001195" lon="13.608305087418362"><ele>855.3333333333334</ele><time>2026-05-03T11:31:36Z</time></trkpt><trkpt lat="42.2519779371801" lon="13.608391169736691"><ele>856.0</ele><time>2026-05-03T11:31:37Z</time></trkpt><trkpt lat="42.251951683944206" lon="13.608481803380098"><ele>856.6666666666667</ele><time>2026-05-03T11:31:38Z</time></trkpt><trkpt lat="42.251895245952106" lon="13.608567057500295"><ele>857.3333333333334</ele><time>2026-05-03T11:31:39Z</time></trkpt><trkpt lat="42.25183935324614" lon="13.608650218999093"><ele>858.0</ele><time>2026-05-03T11:31:40Z</time></trkpt><trkpt lat="42.251792800882676" lon="13.60874105165809"><ele>858.4</ele><time>2026-05-03T11:31:41Z</time></trkpt><trkpt lat="42.251740662221565" lon="13.608835483536112"><ele>858.8</ele><time>2026-05-03T11:31:42Z</time></trkpt><trkpt lat="42.25168716466604" lon="13.608930706181994"><ele>859.2</ele><time>2026-05-03T11:31:43Z</time></trkpt><trkpt lat="42.251638055310295" lon="13.60904513941774"><ele>859.6</ele><time>2026-05-03T11:31:44Z</time></trkpt><trkpt lat="42.251591730966474" lon="13.609174846574557"><ele>860.0</ele><time>2026-05-03T11:31:45Z</time></trkpt><trkpt lat="42.2515508083642" lon="13.609317057431767"><ele>860.0</ele><time>2026-05-03T11:31:46Z</time></trkpt><trkpt lat="42.2515204259332" lon="13.609467167691244"><ele>860.0</ele><time>2026-05-03T11:31:47Z</time></trkpt><trkpt lat="42.25149819020495" lon="13.60962753399897"><ele>860.0</ele><time>2026-05-03T11:31:48Z</time></trkpt><trkpt lat="42.25148141520316" lon="13.609790483383675"><ele>860.0</ele><time>2026-05-03T11:31:49Z</time></trkpt><trkpt lat="42.25146727886179" lon="13.609956395470299"><ele>864.0</ele><time>2026-05-03T11:31:50Z</time></trkpt><trkpt lat="42.251455748306675" lon="13.610124241418873"><ele>868.0</ele><time>2026-05-03T11:31:51Z</time></trkpt><trkpt lat="42.25144397221158" lon="13.610294400885017"><ele>872.0</ele><time>2026-05-03T11:31:52Z</time></trkpt><trkpt lat="42.25143089812055" lon="13.610463708577164"><ele>876.0</ele><time>2026-05-03T11:31:53Z</time></trkpt><trkpt lat="42.25141908445939" lon="13.610634532798459"><ele>878.0</ele><time>2026-05-03T11:31:54Z</time></trkpt><trkpt lat="42.25140759515346" lon="13.610807538197994"><ele>880.0</ele><time>2026-05-03T11:31:55Z</time></trkpt><trkpt lat="42.251394475052194" lon="13.610981580333071"><ele>882.0</ele><time>2026-05-03T11:31:56Z</time></trkpt><trkpt lat="42.25138042140725" lon="13.611159049276297"><ele>884.0</ele><time>2026-05-03T11:31:57Z</time></trkpt><trkpt lat="42.25136721327439" lon="13.61133919801685"><ele>885.25</ele><time>2026-05-03T11:31:58Z</time></trkpt><trkpt lat="42.25135440855689" lon="13.611534492669652"><ele>886.5</ele><time>2026-05-03T11:31:59Z</time></trkpt><trkpt lat="42.25134206782119" lon="13.611738078458343"><ele>887.75</ele><time>2026-05-03T11:32:00Z</time></trkpt><trkpt lat="42.25133069654381" lon="13.611941603856213"><ele>889.0</ele><time>2026-05-03T11:32:01Z</time></trkpt><trkpt lat="42.25132313674929" lon="13.612144777974951"><ele>890.0</ele><time>2026-05-03T11:32:02Z</time></trkpt><trkpt lat="42.25131218944504" lon="13.612345062234242"><ele>891.0</ele><time>2026-05-03T11:32:03Z</time></trkpt><trkpt lat="42.251291008203786" lon="13.612541147183398"><ele>892.0</ele><time>2026-05-03T11:32:04Z</time></trkpt><trkpt lat="42.2512585054015" lon="13.612742071347402"><ele>893.0</ele><time>2026-05-03T11:32:05Z</time></trkpt><trkpt lat="42.251202311048864" lon="13.612949809185233"><ele>894.3333333333334</ele><time>2026-05-03T11:32:06Z</time></trkpt><trkpt lat="42.25113195433003" lon="13.613151944129243"><ele>895.6666666666667</ele><time>2026-05-03T11:32:07Z</time></trkpt><trkpt lat="42.25105577219454" lon="13.61335292630489"><ele>897.0</ele><time>2026-05-03T11:32:08Z</time></trkpt><trkpt lat="42.250988577735754" lon="13.613554405002619"><ele>896.6666666666667</ele><time>2026-05-03T11:32:09Z</time></trkpt><trkpt lat="42.25093144057133" lon="13.613756396472583"><ele>896.3333333333334</ele><time>2026-05-03T11:32:10Z</time></trkpt><trkpt lat="42.250886462691234" lon="13.613957863588224"><ele>896.0</ele><time>2026-05-03T11:32:11Z</time></trkpt><trkpt lat="42.25085333757391" lon="13.614159936346"><ele>896.0</ele><time>2026-05-03T11:32:12Z</time></trkpt><trkpt lat="42.25083322266897" lon="13.614362448427233"><ele>896.0</ele><time>2026-05-03T11:32:13Z</time></trkpt><trkpt lat="42.25082887197666" lon="13.614567236716693"><ele>896.0</ele><time>2026-05-03T11:32:14Z</time></trkpt><trkpt lat="42.25085456123555" lon="13.61477709883358"><ele>896.0</ele><time>2026-05-03T11:32:15Z</time></trkpt><trkpt lat="42.25088807757668" lon="13.614993204689435"><ele>896.0</ele><time>2026-05-03T11:32:16Z</time></trkpt><trkpt lat="42.250925462416305" lon="13.61521390363916"><ele>896.0</ele><time>2026-05-03T11:32:17Z</time></trkpt><trkpt lat="42.25096622674793" lon="13.615432624247614"><ele>897.0</ele><time>2026-05-03T11:32:18Z</time></trkpt><trkpt lat="42.2510080452413" lon="13.61565003669949"><ele>898.0</ele><time>2026-05-03T11:32:19Z</time></trkpt><trkpt lat="42.25105051024723" lon="13.615858924848038"><ele>899.0</ele><time>2026-05-03T11:32:20Z</time></trkpt><trkpt lat="42.25109917931572" lon="13.616059060859719"><ele>904.3333333333334</ele><time>2026-05-03T11:32:21Z</time></trkpt><trkpt lat="42.25115347673538" lon="13.6162559137503"><ele>909.6666666666667</ele><time>2026-05-03T11:32:22Z</time></trkpt><trkpt lat="42.251218211953045" lon="13.616445336558941"><ele>915.0</ele><time>2026-05-03T11:32:23Z</time></trkpt><trkpt lat="42.251302163144814" lon="13.616620701604091"><ele>915.0</ele><time>2026-05-03T11:32:24Z</time></trkpt><trkpt lat="42.251392251810465" lon="13.616776505613666"><ele>915.0</ele><time>2026-05-03T11:32:25Z</time></trkpt><trkpt lat="42.251483454197725" lon="13.616908733235713"><ele>915.0</ele><time>2026-05-03T11:32:26Z</time></trkpt><trkpt lat="42.25157502612876" lon="13.617003398125224"><ele>915.0</ele><time>2026-05-03T11:32:27Z</time></trkpt><trkpt lat="42.25167070209775" lon="13.61705938112007"><ele>916.5</ele><time>2026-05-03T11:32:28Z</time></trkpt><trkpt lat="42.251778960278145" lon="13.61704709871425"><ele>918.0</ele><time>2026-05-03T11:32:29Z</time></trkpt><trkpt lat="42.25188641904842" lon="13.61699959234493"><ele>919.5</ele><time>2026-05-03T11:32:30Z</time></trkpt><trkpt lat="42.2519856925616" lon="13.61689756358571"><ele>921.0</ele><time>2026-05-03T11:32:31Z</time></trkpt><trkpt lat="42.25208346636964" lon="13.616772207706362"><ele>920.5</ele><time>2026-05-03T11:32:32Z</time></trkpt><trkpt lat="42.252187764243374" lon="13.616630917007388"><ele>920.0</ele><time>2026-05-03T11:32:32.999Z</time></trkpt><trkpt lat="42.2522976437295" lon="13.616505434658977"><ele>919.5</ele><time>2026-05-03T11:32:33.999Z</time></trkpt><trkpt lat="42.25240765025095" lon="13.616384019866953"><ele>919.0</ele><time>2026-05-03T11:32:34.999Z</time></trkpt><trkpt lat="42.25251096289487" lon="13.61627457379604"><ele>918.9999999999999</ele><time>2026-05-03T11:32:35.999Z</time></trkpt><trkpt lat="42.2526036814036" lon="13.616195972654141"><ele>919.0</ele><time>2026-05-03T11:32:36.999Z</time></trkpt><trkpt lat="42.25268900393227" lon="13.616144436444543"><ele>919.0</ele><time>2026-05-03T11:32:37.999Z</time></trkpt><trkpt lat="42.25275960957417" lon="13.616160516417887"><ele>919.0</ele><time>2026-05-03T11:32:38.999Z</time></trkpt><trkpt lat="42.25280510305253" lon="13.616237129591875"><ele>918.9999999999999</ele><time>2026-05-03T11:32:39.999Z</time></trkpt><trkpt lat="42.2528225926517" lon="13.616340042150428"><ele>919.0</ele><time>2026-05-03T11:32:40.999Z</time></trkpt><trkpt lat="42.25279575305582" lon="13.616452200853109"><ele>919.0</ele><time>2026-05-03T11:32:41.999Z</time></trkpt><trkpt lat="42.25271180842826" lon="13.616534572620727"><ele>919.0</ele><time>2026-05-03T11:32:42.999Z</time></trkpt><trkpt lat="42.25262478353107" lon="13.616639339048596"><ele>919.0</ele><time>2026-05-03T11:32:43.999Z</time></trkpt><trkpt lat="42.25252595096999" lon="13.616768090697821"><ele>919.0</ele><time>2026-05-03T11:32:44.999Z</time></trkpt><trkpt lat="42.252415092417515" lon="13.616897981523518"><ele>919.6666666666666</ele><time>2026-05-03T11:32:45.999Z</time></trkpt><trkpt lat="42.25230600990944" lon="13.617051997900928"><ele>920.3333333333333</ele><time>2026-05-03T11:32:46.999Z</time></trkpt><trkpt lat="42.252197473017944" lon="13.617223166878485"><ele>921.0</ele><time>2026-05-03T11:32:47.999Z</time></trkpt><trkpt lat="42.25209352690686" lon="13.617392159694504"><ele>921.0</ele><time>2026-05-03T11:32:48.999Z</time></trkpt><trkpt lat="42.251992852394466" lon="13.617563248168358"><ele>921.0</ele><time>2026-05-03T11:32:49.999Z</time></trkpt><trkpt lat="42.251894598945235" lon="13.617741291592415"><ele>921.0</ele><time>2026-05-03T11:32:50.999Z</time></trkpt><trkpt lat="42.251788357093226" lon="13.61792783814439"><ele>926.0</ele><time>2026-05-03T11:32:51.999Z</time></trkpt><trkpt lat="42.25168567589986" lon="13.618106119165256"><ele>931.0</ele><time>2026-05-03T11:32:52.999Z</time></trkpt><trkpt lat="42.25158697057403" lon="13.618283434466328"><ele>936.0</ele><time>2026-05-03T11:32:53.999Z</time></trkpt><trkpt lat="42.25149250144981" lon="13.618459073224235"><ele>935.6666666666667</ele><time>2026-05-03T11:32:54.999Z</time></trkpt><trkpt lat="42.25140262287898" lon="13.618634564545339"><ele>935.3333333333334</ele><time>2026-05-03T11:32:55.999Z</time></trkpt><trkpt lat="42.2513268546263" lon="13.618821856706745"><ele>935.0</ele><time>2026-05-03T11:32:56.999Z</time></trkpt><trkpt lat="42.25126548323379" lon="13.619023543193144"><ele>936.6666666666667</ele><time>2026-05-03T11:32:57.999Z</time></trkpt><trkpt lat="42.251219557789106" lon="13.619241788164617"><ele>938.3333333333333</ele><time>2026-05-03T11:32:58.999Z</time></trkpt><trkpt lat="42.251182501823884" lon="13.619472653757448"><ele>940.0</ele><time>2026-05-03T11:32:59.999Z</time></trkpt><trkpt lat="42.25115250921091" lon="13.619708053947887"><ele>942.6666666666666</ele><time>2026-05-03T11:33:00.999Z</time></trkpt><trkpt lat="42.25112859158366" lon="13.619944992239104"><ele>945.3333333333333</ele><time>2026-05-03T11:33:01.999Z</time></trkpt><trkpt lat="42.25110584391557" lon="13.620179816675261"><ele>948.0</ele><time>2026-05-03T11:33:03.001Z</time></trkpt><trkpt lat="42.25108519400198" lon="13.620411224295239"><ele>948.6666666666667</ele><time>2026-05-03T11:33:04.001Z</time></trkpt><trkpt lat="42.251063328072476" lon="13.620639178515574"><ele>949.3333333333334</ele><time>2026-05-03T11:33:05.001Z</time></trkpt><trkpt lat="42.25104029478203" lon="13.620870060080142"><ele>950.0</ele><time>2026-05-03T11:33:06.001Z</time></trkpt><trkpt lat="42.25101486448709" lon="13.6211051771404"><ele>949.6666666666667</ele><time>2026-05-03T11:33:07.001Z</time></trkpt><trkpt lat="42.25098963305251" lon="13.62134315332524"><ele>949.3333333333333</ele><time>2026-05-03T11:33:08.001Z</time></trkpt><trkpt lat="42.25096446882608" lon="13.621581794837617"><ele>949.0</ele><time>2026-05-03T11:33:09.001Z</time></trkpt><trkpt lat="42.25093812286488" lon="13.621821526843716"><ele>950.3333333333333</ele><time>2026-05-03T11:33:10.001Z</time></trkpt><trkpt lat="42.250913828614785" lon="13.622061681712651"><ele>951.6666666666667</ele><time>2026-05-03T11:33:11.001Z</time></trkpt><trkpt lat="42.250889963968184" lon="13.622302657091288"><ele>953.0</ele><time>2026-05-03T11:33:12.001Z</time></trkpt><trkpt lat="42.250868715323676" lon="13.622544055244889"><ele>953.0</ele><time>2026-05-03T11:33:13.001Z</time></trkpt><trkpt lat="42.25084638499642" lon="13.622786909842032"><ele>953.0</ele><time>2026-05-03T11:33:14.001Z</time></trkpt><trkpt lat="42.25082372575137" lon="13.623031221860181"><ele>953.0</ele><time>2026-05-03T11:33:15.001Z</time></trkpt><trkpt lat="42.250797911655326" lon="13.62327155252035"><ele>954.0</ele><time>2026-05-03T11:33:16.001Z</time></trkpt><trkpt lat="42.250769679313706" lon="13.623511823284154"><ele>955.0</ele><time>2026-05-03T11:33:17Z</time></trkpt><trkpt lat="42.250746835541726" lon="13.623751026233625"><ele>956.0</ele><time>2026-05-03T11:33:18Z</time></trkpt><trkpt lat="42.25072345455575" lon="13.623984189299499"><ele>958.6666666666667</ele><time>2026-05-03T11:33:19Z</time></trkpt><trkpt lat="42.25069897059104" lon="13.624216934300739"><ele>961.3333333333333</ele><time>2026-05-03T11:33:20Z</time></trkpt><trkpt lat="42.2506743257559" lon="13.624447008510156"><ele>964.0</ele><time>2026-05-03T11:33:21Z</time></trkpt><trkpt lat="42.25064650310735" lon="13.624671194341499"><ele>964.3333333333333</ele><time>2026-05-03T11:33:22Z</time></trkpt><trkpt lat="42.25061421013548" lon="13.624893955930009"><ele>964.6666666666667</ele><time>2026-05-03T11:33:23Z</time></trkpt><trkpt lat="42.250573425087225" lon="13.62511161446878"><ele>965.0</ele><time>2026-05-03T11:33:24Z</time></trkpt><trkpt lat="42.25052325387424" lon="13.625325830583924"><ele>965.0</ele><time>2026-05-03T11:33:25Z</time></trkpt><trkpt lat="42.25046543134674" lon="13.625541160045254"><ele>965.0</ele><time>2026-05-03T11:33:26Z</time></trkpt><trkpt lat="42.25040109322235" lon="13.625757875492372"><ele>965.0</ele><time>2026-05-03T11:33:27Z</time></trkpt><trkpt lat="42.250336222844666" lon="13.625976424255484"><ele>967.0</ele><time>2026-05-03T11:33:28Z</time></trkpt><trkpt lat="42.25027015171495" lon="13.626199899365934"><ele>969.0</ele><time>2026-05-03T11:33:29Z</time></trkpt><trkpt lat="42.250205425609074" lon="13.6264236719501"><ele>971.0</ele><time>2026-05-03T11:33:30Z</time></trkpt><trkpt lat="42.25014041786741" lon="13.626647698387055"><ele>971.0</ele><time>2026-05-03T11:33:31Z</time></trkpt><trkpt lat="42.250076600803105" lon="13.626871289227346"><ele>971.0</ele><time>2026-05-03T11:33:32Z</time></trkpt><trkpt lat="42.25001450565848" lon="13.627093295255719"><ele>971.0</ele><time>2026-05-03T11:33:33Z</time></trkpt><trkpt lat="42.24995287423101" lon="13.62731328131691"><ele>970.0</ele><time>2026-05-03T11:33:34Z</time></trkpt><trkpt lat="42.249892666817374" lon="13.627529622689346"><ele>969.0</ele><time>2026-05-03T11:33:35Z</time></trkpt><trkpt lat="42.2498330079451" lon="13.627744847966243"><ele>968.0</ele><time>2026-05-03T11:33:36Z</time></trkpt><trkpt lat="42.249773992779026" lon="13.627959732587271"><ele>968.0</ele><time>2026-05-03T11:33:37Z</time></trkpt><trkpt lat="42.249712762285945" lon="13.628166117559134"><ele>968.0</ele><time>2026-05-03T11:33:38Z</time></trkpt><trkpt lat="42.24964770627249" lon="13.628377187576778"><ele>968.0</ele><time>2026-05-03T11:33:39Z</time></trkpt><trkpt lat="42.24957562791588" lon="13.628591181934027"><ele>969.6666666666667</ele><time>2026-05-03T11:33:40Z</time></trkpt><trkpt lat="42.24950364869002" lon="13.62880354751135"><ele>971.3333333333333</ele><time>2026-05-03T11:33:41Z</time></trkpt><trkpt lat="42.24943207912945" lon="13.629016647524969"><ele>973.0</ele><time>2026-05-03T11:33:42Z</time></trkpt><trkpt lat="42.24936133645792" lon="13.629236847889551"><ele>973.0</ele><time>2026-05-03T11:33:43Z</time></trkpt><trkpt lat="42.24929068400384" lon="13.629461787812321"><ele>973.0</ele><time>2026-05-03T11:33:44Z</time></trkpt><trkpt lat="42.24922046082607" lon="13.629690073490643"><ele>973.0</ele><time>2026-05-03T11:33:45Z</time></trkpt><trkpt lat="42.249159778501664" lon="13.62991939904437"><ele>972.3333333333333</ele><time>2026-05-03T11:33:46Z</time></trkpt><trkpt lat="42.249087319703484" lon="13.630150169057758"><ele>971.6666666666667</ele><time>2026-05-03T11:33:47Z</time></trkpt><trkpt lat="42.2490220877493" lon="13.630378788391456"><ele>971.0</ele><time>2026-05-03T11:33:48Z</time></trkpt><trkpt lat="42.248958598241444" lon="13.630608973653517"><ele>971.0</ele><time>2026-05-03T11:33:49Z</time></trkpt><trkpt lat="42.24889964536105" lon="13.630840123244377"><ele>971.0</ele><time>2026-05-03T11:33:50Z</time></trkpt><trkpt lat="42.24884514617058" lon="13.631072543931415"><ele>971.0</ele><time>2026-05-03T11:33:51Z</time></trkpt><trkpt lat="42.24879303523821" lon="13.631306254196634"><ele>972.0</ele><time>2026-05-03T11:33:52Z</time></trkpt><trkpt lat="42.24873779860344" lon="13.6315355731496"><ele>973.0</ele><time>2026-05-03T11:33:53Z</time></trkpt><trkpt lat="42.24868018748072" lon="13.631765434442755"><ele>974.0</ele><time>2026-05-03T11:33:54Z</time></trkpt><trkpt lat="42.24862334566234" lon="13.63199430246236"><ele>975.3333333333334</ele><time>2026-05-03T11:33:55Z</time></trkpt><trkpt lat="42.24856624658912" lon="13.632226378731028"><ele>976.6666666666667</ele><time>2026-05-03T11:33:56Z</time></trkpt><trkpt lat="42.24851111318107" lon="13.632458599584417"><ele>978.0</ele><time>2026-05-03T11:33:57Z</time></trkpt><trkpt lat="42.248456884501515" lon="13.632693128904089"><ele>979.3333333333333</ele><time>2026-05-03T11:33:58Z</time></trkpt><trkpt lat="42.248396752824796" lon="13.63292856081238"><ele>980.6666666666666</ele><time>2026-05-03T11:33:59Z</time></trkpt><trkpt lat="42.24833928675799" lon="13.633165142194821"><ele>982.0</ele><time>2026-05-03T11:34:00Z</time></trkpt><trkpt lat="42.24828713446665" lon="13.6333893014693"><ele>982.0</ele><time>2026-05-03T11:34:01Z</time></trkpt><trkpt lat="42.2482353574748" lon="13.63360532574711"><ele>982.0</ele><time>2026-05-03T11:34:02Z</time></trkpt><trkpt lat="42.248184729416536" lon="13.633813953515935"><ele>982.0</ele><time>2026-05-03T11:34:03Z</time></trkpt><trkpt lat="42.24813625218292" lon="13.6340139255397"><ele>978.6666666666666</ele><time>2026-05-03T11:34:04Z</time></trkpt><trkpt lat="42.248090232574604" lon="13.634209699367656"><ele>975.3333333333333</ele><time>2026-05-03T11:34:05Z</time></trkpt><trkpt lat="42.24804851531838" lon="13.634402575488872"><ele>972.0</ele><time>2026-05-03T11:34:06Z</time></trkpt><trkpt lat="42.24801120471237" lon="13.634600231468825"><ele>972.0</ele><time>2026-05-03T11:34:07Z</time></trkpt><trkpt lat="42.24797124805819" lon="13.634800429678847"><ele>972.0</ele><time>2026-05-03T11:34:08Z</time></trkpt><trkpt lat="42.24794312170013" lon="13.635006002472268"><ele>972.0</ele><time>2026-05-03T11:34:09Z</time></trkpt><trkpt lat="42.24791637583103" lon="13.635218098020294"><ele>972.6666666666667</ele><time>2026-05-03T11:34:10Z</time></trkpt><trkpt lat="42.24789512397289" lon="13.635436227748299"><ele>973.3333333333334</ele><time>2026-05-03T11:34:11Z</time></trkpt><trkpt lat="42.247879082119226" lon="13.635654241456274"><ele>974.0</ele><time>2026-05-03T11:34:12Z</time></trkpt><trkpt lat="42.2478623759636" lon="13.63587996048714"><ele>974.0</ele><time>2026-05-03T11:34:13Z</time></trkpt><trkpt lat="42.24784656295335" lon="13.636110084256556"><ele>974.0</ele><time>2026-05-03T11:34:14Z</time></trkpt><trkpt lat="42.24783016180749" lon="13.636346285226166"><ele>974.0</ele><time>2026-05-03T11:34:15Z</time></trkpt><trkpt lat="42.24781593973173" lon="13.636586084868457"><ele>974.0</ele><time>2026-05-03T11:34:16Z</time></trkpt><trkpt lat="42.24780297503079" lon="13.636817344692972"><ele>974.0</ele><time>2026-05-03T11:34:17Z</time></trkpt><trkpt lat="42.24778921304197" lon="13.637051354487475"><ele>974.0</ele><time>2026-05-03T11:34:18Z</time></trkpt><trkpt lat="42.24778040851514" lon="13.637281665205474"><ele>974.6666666666667</ele><time>2026-05-03T11:34:19Z</time></trkpt><trkpt lat="42.24778238189989" lon="13.637508955744822"><ele>975.3333333333333</ele><time>2026-05-03T11:34:20Z</time></trkpt><trkpt lat="42.247793994174586" lon="13.63773274329371"><ele>976.0</ele><time>2026-05-03T11:34:21Z</time></trkpt><trkpt lat="42.247808479571155" lon="13.637953774019243"><ele>977.0</ele><time>2026-05-03T11:34:22Z</time></trkpt><trkpt lat="42.24782182472277" lon="13.63817556905117"><ele>978.0</ele><time>2026-05-03T11:34:23Z</time></trkpt><trkpt lat="42.24783398825188" lon="13.638393852044162"><ele>979.0</ele><time>2026-05-03T11:34:24Z</time></trkpt><trkpt lat="42.24784734151314" lon="13.638603624838398"><ele>978.5</ele><time>2026-05-03T11:34:25Z</time></trkpt><trkpt lat="42.24785787072758" lon="13.63880998515732"><ele>978.0</ele><time>2026-05-03T11:34:26Z</time></trkpt><trkpt lat="42.24786972648375" lon="13.639009841813055"><ele>977.5</ele><time>2026-05-03T11:34:27Z</time></trkpt><trkpt lat="42.247878291445815" lon="13.63920426138061"><ele>977.0</ele><time>2026-05-03T11:34:28Z</time></trkpt><trkpt lat="42.24788399541042" lon="13.639399706300287"><ele>978.0</ele><time>2026-05-03T11:34:29Z</time></trkpt><trkpt lat="42.24789183534758" lon="13.639599571231692"><ele>979.0</ele><time>2026-05-03T11:34:30Z</time></trkpt><trkpt lat="42.247904665991655" lon="13.639801020438481"><ele>980.0</ele><time>2026-05-03T11:34:31Z</time></trkpt><trkpt lat="42.24792099653551" lon="13.640002287266952"><ele>981.0</ele><time>2026-05-03T11:34:32Z</time></trkpt><trkpt lat="42.247937345588944" lon="13.640200187538086"><ele>980.25</ele><time>2026-05-03T11:34:33Z</time></trkpt><trkpt lat="42.24795615720172" lon="13.640392115237137"><ele>979.5</ele><time>2026-05-03T11:34:34Z</time></trkpt><trkpt lat="42.247974559816896" lon="13.640575845169048"><ele>978.75</ele><time>2026-05-03T11:34:34.999Z</time></trkpt><trkpt lat="42.24799008611975" lon="13.640758330464559"><ele>978.0</ele><time>2026-05-03T11:34:35.999Z</time></trkpt><trkpt lat="42.248001540980376" lon="13.640933736163595"><ele>978.0</ele><time>2026-05-03T11:34:36.999Z</time></trkpt><trkpt lat="42.24800312363605" lon="13.641097518465426"><ele>978.0</ele><time>2026-05-03T11:34:37.999Z</time></trkpt><trkpt lat="42.247996090150515" lon="13.641248590605134"><ele>978.0</ele><time>2026-05-03T11:34:38.999Z</time></trkpt><trkpt lat="42.24800209569544" lon="13.64140332749134"><ele>978.0</ele><time>2026-05-03T11:34:39.999Z</time></trkpt><trkpt lat="42.24797211026098" lon="13.641535545988882"><ele>976.25</ele><time>2026-05-03T11:34:40.999Z</time></trkpt><trkpt lat="42.24808164963595" lon="13.641692813983855"><ele>974.5</ele><time>2026-05-03T11:34:41.999Z</time></trkpt><trkpt lat="42.24812649454794" lon="13.641839621205591"><ele>972.75</ele><time>2026-05-03T11:34:42.999Z</time></trkpt><trkpt lat="42.248164746945534" lon="13.642001060015929"><ele>971.0</ele><time>2026-05-03T11:34:43.999Z</time></trkpt><trkpt lat="42.24817815610909" lon="13.642189119693047"><ele>978.3333333333334</ele><time>2026-05-03T11:34:44.999Z</time></trkpt><trkpt lat="42.248182223771366" lon="13.642385385024996"><ele>985.6666666666667</ele><time>2026-05-03T11:34:45.999Z</time></trkpt><trkpt lat="42.24817853309953" lon="13.642593456286834"><ele>993.0</ele><time>2026-05-03T11:34:46.999Z</time></trkpt><trkpt lat="42.248165209731525" lon="13.642803573583388"><ele>995.6666666666667</ele><time>2026-05-03T11:34:47.999Z</time></trkpt><trkpt lat="42.2481466651754" lon="13.643013705155884"><ele>998.3333333333334</ele><time>2026-05-03T11:34:48.999Z</time></trkpt><trkpt lat="42.24812667691652" lon="13.64322560528621"><ele>1001.0</ele><time>2026-05-03T11:34:49.999Z</time></trkpt><trkpt lat="42.24810398470018" lon="13.643435933488542"><ele>992.0</ele><time>2026-05-03T11:34:50.999Z</time></trkpt><trkpt lat="42.24807923257107" lon="13.643648679780764"><ele>983.0</ele><time>2026-05-03T11:34:51.999Z</time></trkpt><trkpt lat="42.24805453661167" lon="13.643859236776258"><ele>974.0</ele><time>2026-05-03T11:34:52.999Z</time></trkpt><trkpt lat="42.24802871316716" lon="13.6440703112299"><ele>974.0</ele><time>2026-05-03T11:34:53.999Z</time></trkpt><trkpt lat="42.24799853745762" lon="13.6442816915347"><ele>974.0</ele><time>2026-05-03T11:34:54.999Z</time></trkpt><trkpt lat="42.247963251261595" lon="13.6444988531181"><ele>974.0</ele><time>2026-05-03T11:34:55.999Z</time></trkpt><trkpt lat="42.247923287371655" lon="13.644721701551978"><ele>976.0</ele><time>2026-05-03T11:34:56.999Z</time></trkpt><trkpt lat="42.24788151410608" lon="13.64494537817554"><ele>978.0</ele><time>2026-05-03T11:34:57.999Z</time></trkpt><trkpt lat="42.24784010748034" lon="13.64516741382581"><ele>980.0</ele><time>2026-05-03T11:34:58.999Z</time></trkpt><trkpt lat="42.24780004732699" lon="13.645388624668444"><ele>983.0</ele><time>2026-05-03T11:34:59.999Z</time></trkpt><trkpt lat="42.24775710553642" lon="13.645609952444646"><ele>986.0</ele><time>2026-05-03T11:35:00.999Z</time></trkpt><trkpt lat="42.24770924584713" lon="13.64582978706261"><ele>989.0</ele><time>2026-05-03T11:35:01.999Z</time></trkpt><trkpt lat="42.24765585040727" lon="13.646046353352977"><ele>993.0</ele><time>2026-05-03T11:35:02.999Z</time></trkpt><trkpt lat="42.24760076627681" lon="13.646262996105342"><ele>997.0</ele><time>2026-05-03T11:35:03.999Z</time></trkpt><trkpt lat="42.24754744529501" lon="13.646481324477794"><ele>1001.0</ele><time>2026-05-03T11:35:04.999Z</time></trkpt><trkpt lat="42.24749421879315" lon="13.64670312436084"><ele>1001.0</ele><time>2026-05-03T11:35:05.999Z</time></trkpt><trkpt lat="42.24743852160223" lon="13.646924436063781"><ele>1001.0</ele><time>2026-05-03T11:35:06.999Z</time></trkpt><trkpt lat="42.247380023494166" lon="13.647143740870588"><ele>1001.0</ele><time>2026-05-03T11:35:07.999Z</time></trkpt><trkpt lat="42.24731561035478" lon="13.647359277806247"><ele>996.0</ele><time>2026-05-03T11:35:09.001Z</time></trkpt><trkpt lat="42.24724586101937" lon="13.64756535445349"><ele>991.0</ele><time>2026-05-03T11:35:10.001Z</time></trkpt><trkpt lat="42.24717411395399" lon="13.647764333907512"><ele>986.0</ele><time>2026-05-03T11:35:11.001Z</time></trkpt><trkpt lat="42.247104301602036" lon="13.647959056157774"><ele>986.0</ele><time>2026-05-03T11:35:12.001Z</time></trkpt><trkpt lat="42.24703616162272" lon="13.64815663212588"><ele>986.0</ele><time>2026-05-03T11:35:13.001Z</time></trkpt><trkpt lat="42.246969057788085" lon="13.648352716929082"><ele>986.0</ele><time>2026-05-03T11:35:14.001Z</time></trkpt><trkpt lat="42.246903545768596" lon="13.648547060200722"><ele>990.3333333333334</ele><time>2026-05-03T11:35:15.001Z</time></trkpt><trkpt lat="42.24684168629671" lon="13.648740702678936"><ele>994.6666666666667</ele><time>2026-05-03T11:35:16.001Z</time></trkpt><trkpt lat="42.24678273165466" lon="13.648934215586442"><ele>999.0</ele><time>2026-05-03T11:35:17.001Z</time></trkpt><trkpt lat="42.24670661011543" lon="13.649117128428603"><ele>999.0</ele><time>2026-05-03T11:35:18Z</time></trkpt><trkpt lat="42.246644994608936" lon="13.649310180935577"><ele>999.0</ele><time>2026-05-03T11:35:19Z</time></trkpt><trkpt lat="42.24660269071505" lon="13.649508925553459"><ele>999.0</ele><time>2026-05-03T11:35:20Z</time></trkpt><trkpt lat="42.24654612740841" lon="13.649697219298838"><ele>1003.6666666666667</ele><time>2026-05-03T11:35:21Z</time></trkpt><trkpt lat="42.24649477659161" lon="13.649887455349559"><ele>1008.3333333333334</ele><time>2026-05-03T11:35:22Z</time></trkpt><trkpt lat="42.24644337147541" lon="13.650082048954138"><ele>1013.0</ele><time>2026-05-03T11:35:23Z</time></trkpt><trkpt lat="42.24639202460995" lon="13.650282276192122"><ele>1003.0</ele><time>2026-05-03T11:35:24Z</time></trkpt><trkpt lat="42.24634558182321" lon="13.650484387527403"><ele>993.0</ele><time>2026-05-03T11:35:25Z</time></trkpt><trkpt lat="42.24630014594551" lon="13.650686146115511"><ele>983.0</ele><time>2026-05-03T11:35:26Z</time></trkpt><trkpt lat="42.24625420718159" lon="13.650888689580137"><ele>983.0</ele><time>2026-05-03T11:35:27Z</time></trkpt><trkpt lat="42.24620674945647" lon="13.651089869340169"><ele>983.0</ele><time>2026-05-03T11:35:28Z</time></trkpt><trkpt lat="42.2461574434771" lon="13.65128864348147"><ele>983.0</ele><time>2026-05-03T11:35:29Z</time></trkpt><trkpt lat="42.246108478361315" lon="13.651487694660137"><ele>986.0</ele><time>2026-05-03T11:35:30Z</time></trkpt><trkpt lat="42.24605981164995" lon="13.651685190391547"><ele>989.0</ele><time>2026-05-03T11:35:31Z</time></trkpt><trkpt lat="42.24601039926031" lon="13.651883537664476"><ele>992.0</ele><time>2026-05-03T11:35:32Z</time></trkpt><trkpt lat="42.24596018143778" lon="13.652083845060826"><ele>994.3333333333334</ele><time>2026-05-03T11:35:33Z</time></trkpt><trkpt lat="42.24590881170081" lon="13.652284402057324"><ele>996.6666666666667</ele><time>2026-05-03T11:35:34Z</time></trkpt><trkpt lat="42.24585723125502" lon="13.652487017466287"><ele>999.0</ele><time>2026-05-03T11:35:35Z</time></trkpt><trkpt lat="42.2458052195661" lon="13.652691221816884"><ele>1001.6666666666667</ele><time>2026-05-03T11:35:36Z</time></trkpt><trkpt lat="42.24575119061081" lon="13.652897617106841"><ele>1004.3333333333334</ele><time>2026-05-03T11:35:37Z</time></trkpt><trkpt lat="42.24569868352279" lon="13.653106208460173"><ele>1007.0</ele><time>2026-05-03T11:35:38Z</time></trkpt><trkpt lat="42.245644472676794" lon="13.653310216817932"><ele>998.0</ele><time>2026-05-03T11:35:39Z</time></trkpt><trkpt lat="42.245587804534956" lon="13.653507339261015"><ele>989.0</ele><time>2026-05-03T11:35:40Z</time></trkpt><trkpt lat="42.245531534360964" lon="13.65369848698082"><ele>980.0</ele><time>2026-05-03T11:35:41Z</time></trkpt><trkpt lat="42.24547232555936" lon="13.65388343701485"><ele>980.0</ele><time>2026-05-03T11:35:42Z</time></trkpt><trkpt lat="42.245411635135866" lon="13.654062675484424"><ele>980.0</ele><time>2026-05-03T11:35:43Z</time></trkpt><trkpt lat="42.245355076917185" lon="13.654231180119876"><ele>980.0</ele><time>2026-05-03T11:35:44Z</time></trkpt><trkpt lat="42.24530078590448" lon="13.654387089297948"><ele>980.0</ele><time>2026-05-03T11:35:45Z</time></trkpt><trkpt lat="42.2452435448819" lon="13.654532755120018"><ele>981.8</ele><time>2026-05-03T11:35:46Z</time></trkpt><trkpt lat="42.245181388133055" lon="13.654665214664087"><ele>983.6</ele><time>2026-05-03T11:35:47Z</time></trkpt><trkpt lat="42.24511390177851" lon="13.654783658867759"><ele>985.4000000000001</ele><time>2026-05-03T11:35:48Z</time></trkpt><trkpt lat="42.2450416919268" lon="13.654896605039745"><ele>987.2</ele><time>2026-05-03T11:35:49Z</time></trkpt><trkpt lat="42.24497086924026" lon="13.655008278971902"><ele>989.0</ele><time>2026-05-03T11:35:50Z</time></trkpt><trkpt lat="42.24490719655611" lon="13.655113138767065"><ele>989.0000000000001</ele><time>2026-05-03T11:35:51Z</time></trkpt><trkpt lat="42.244834779764794" lon="13.655201642878314"><ele>989.0</ele><time>2026-05-03T11:35:52Z</time></trkpt><trkpt lat="42.24479680772936" lon="13.655317564942333"><ele>989.0</ele><time>2026-05-03T11:35:53Z</time></trkpt><trkpt lat="42.24475538610307" lon="13.655422703597448"><ele>989.0</ele><time>2026-05-03T11:35:54Z</time></trkpt><trkpt lat="42.24472489270599" lon="13.655527444757467"><ele>989.0000000000001</ele><time>2026-05-03T11:35:55Z</time></trkpt><trkpt lat="42.24471053417179" lon="13.655636322490366"><ele>989.0</ele><time>2026-05-03T11:35:56Z</time></trkpt><trkpt lat="42.244718106239134" lon="13.655738114932191"><ele>988.8571428571428</ele><time>2026-05-03T11:35:57Z</time></trkpt><trkpt lat="42.24474419861577" lon="13.655831767645866"><ele>988.7142857142856</ele><time>2026-05-03T11:35:58Z</time></trkpt><trkpt lat="42.24477823307941" lon="13.655920317235571"><ele>988.5714285714286</ele><time>2026-05-03T11:35:59Z</time></trkpt><trkpt lat="42.24482159912961" lon="13.655999269730657"><ele>988.4285714285713</ele><time>2026-05-03T11:36:00Z</time></trkpt><trkpt lat="42.244871973043615" lon="13.656067789337026"><ele>988.2857142857142</ele><time>2026-05-03T11:36:01Z</time></trkpt><trkpt lat="42.24493294625998" lon="13.65612031899967"><ele>988.1428571428571</ele><time>2026-05-03T11:36:02Z</time></trkpt><trkpt lat="42.2449873894115" lon="13.656172281611175"><ele>988.0</ele><time>2026-05-03T11:36:03Z</time></trkpt><trkpt lat="42.24507310674207" lon="13.656280404230573"><ele>987.4999999999999</ele><time>2026-05-03T11:36:05Z</time></trkpt><trkpt lat="42.24510590438285" lon="13.656436218288608"><ele>987.0</ele><time>2026-05-03T11:36:07Z</time></trkpt><trkpt lat="42.24508987650359" lon="13.656600382375675"><ele>986.5</ele><time>2026-05-03T11:36:09Z</time></trkpt><trkpt lat="42.245076323392816" lon="13.656688910480474"><ele>986.0</ele><time>2026-05-03T11:36:10Z</time></trkpt><trkpt lat="42.24505401905111" lon="13.656778117616396"><ele>985.4999999999999</ele><time>2026-05-03T11:36:11Z</time></trkpt><trkpt lat="42.24501143345669" lon="13.65685295949527"><ele>985.0</ele><time>2026-05-03T11:36:12Z</time></trkpt><trkpt lat="42.244996579237885" lon="13.656945844669684"><ele>984.9999999999999</ele><time>2026-05-03T11:36:13Z</time></trkpt><trkpt lat="42.24495211065877" lon="13.657015149225604"><ele>985.0</ele><time>2026-05-03T11:36:14Z</time></trkpt><trkpt lat="42.2449212689031" lon="13.657093768740092"><ele>985.0</ele><time>2026-05-03T11:36:15Z</time></trkpt><trkpt lat="42.24489046893195" lon="13.65716874640584"><ele>985.0</ele><time>2026-05-03T11:36:16Z</time></trkpt><trkpt lat="42.24482960498724" lon="13.657309252506245"><ele>984.9999999999999</ele><time>2026-05-03T11:36:18Z</time></trkpt><trkpt lat="42.24478185864712" lon="13.657448200598937"><ele>985.0</ele><time>2026-05-03T11:36:20Z</time></trkpt><trkpt lat="42.24472421578112" lon="13.657533912654383"><ele>983.8333333333333</ele><time>2026-05-03T11:36:22Z</time></trkpt><trkpt lat="42.244640355977076" lon="13.657524748155694"><ele>982.6666666666666</ele><time>2026-05-03T11:36:26.999Z</time></trkpt><trkpt lat="42.24456920734595" lon="13.657465989536208"><ele>981.5</ele><time>2026-05-03T11:36:28.999Z</time></trkpt><trkpt lat="42.244498358320804" lon="13.657407478345243"><ele>980.3333333333333</ele><time>2026-05-03T11:36:30.999Z</time></trkpt><trkpt lat="42.24442864611712" lon="13.657350303832773"><ele>979.1666666666666</ele><time>2026-05-03T11:36:32.999Z</time></trkpt><trkpt lat="42.24436109534645" lon="13.657294967986394"><ele>978.0</ele><time>2026-05-03T11:36:34.999Z</time></trkpt><trkpt lat="42.24430595687783" lon="13.657249799853062"><ele>978.0</ele><time>2026-05-03T11:36:36.999Z</time></trkpt><trkpt lat="42.24424562791834" lon="13.657200379970352"><ele>978.0</ele><time>2026-05-03T11:36:47.999Z</time></trkpt><trkpt lat="42.24413037314857" lon="13.657391160348634"><ele>978.0</ele><time>2026-05-03T11:36:51.999Z</time></trkpt><trkpt lat="42.24407858943325" lon="13.657491533537925"><ele>978.0</ele><time>2026-05-03T11:36:53.999Z</time></trkpt><trkpt lat="42.2440382509428" lon="13.657602383306903"><ele>978.0</ele><time>2026-05-03T11:36:56.999Z</time></trkpt><trkpt lat="42.24398522622475" lon="13.657672111897867"><ele>977.1666666666666</ele><time>2026-05-03T11:36:58.999Z</time></trkpt><trkpt lat="42.243939096235025" lon="13.657756684723406"><ele>976.3333333333333</ele><time>2026-05-03T11:37:00.999Z</time></trkpt><trkpt lat="42.24388757085905" lon="13.657843349531177"><ele>975.5</ele><time>2026-05-03T11:37:02.999Z</time></trkpt><trkpt lat="42.24383363014113" lon="13.657927493569739"><ele>974.6666666666666</ele><time>2026-05-03T11:37:04.999Z</time></trkpt><trkpt lat="42.24377121643761" lon="13.658005252533963"><ele>973.8333333333333</ele><time>2026-05-03T11:37:06.999Z</time></trkpt><trkpt lat="42.24369884042832" lon="13.658084723458009"><ele>973.0</ele><time>2026-05-03T11:37:08.999Z</time></trkpt><trkpt lat="42.243635736854706" lon="13.658163036086004"><ele>972.9999999999999</ele><time>2026-05-03T11:37:10.999Z</time></trkpt><trkpt lat="42.243575268531316" lon="13.658251089001224"><ele>973.0</ele><time>2026-05-03T11:37:12.999Z</time></trkpt><trkpt lat="42.24351786426694" lon="13.658335980273671"><ele>973.0</ele><time>2026-05-03T11:37:15Z</time></trkpt><trkpt lat="42.24346098005686" lon="13.658419657765275"><ele>973.0</ele><time>2026-05-03T11:37:17Z</time></trkpt><trkpt lat="42.243405560166245" lon="13.65850077151577"><ele>972.9999999999999</ele><time>2026-05-03T11:37:19Z</time></trkpt><trkpt lat="42.24335237092654" lon="13.658577508400834"><ele>973.0</ele><time>2026-05-03T11:37:21Z</time></trkpt><trkpt lat="42.24330250574302" lon="13.658647690933146"><ele>973.8333333333333</ele><time>2026-05-03T11:37:23Z</time></trkpt><trkpt lat="42.243252674931924" lon="13.658717820784423"><ele>974.6666666666666</ele><time>2026-05-03T11:37:25Z</time></trkpt><trkpt lat="42.24327624246354" lon="13.658891392307291"><ele>975.5</ele><time>2026-05-03T11:37:27Z</time></trkpt><trkpt lat="42.2432448680445" lon="13.65897005097616"><ele>976.3333333333333</ele><time>2026-05-03T11:37:29Z</time></trkpt><trkpt lat="42.243175323785785" lon="13.659052562251167"><ele>977.1666666666666</ele><time>2026-05-03T11:37:32Z</time></trkpt><trkpt lat="42.24311622697151" lon="13.65910679840668"><ele>978.0</ele><time>2026-05-03T11:37:35Z</time></trkpt><trkpt lat="42.24306943104537" lon="13.659030321560971"><ele>978.0</ele><time>2026-05-03T11:37:39Z</time></trkpt><trkpt lat="42.243127013305454" lon="13.658981392193795"><ele>978.0</ele><time>2026-05-03T11:37:42Z</time></trkpt><trkpt lat="42.24319745687048" lon="13.659019413769308"><ele>978.0</ele><time>2026-05-03T11:37:45Z</time></trkpt><trkpt lat="42.243252566720564" lon="13.65909304849329"><ele>978.0</ele><time>2026-05-03T11:38:01Z</time></trkpt><trkpt lat="42.24327314099436" lon="13.659261886950596"><ele>978.0</ele><time>2026-05-03T11:38:06Z</time></trkpt><trkpt lat="42.243341614708996" lon="13.659321240880338"><ele>978.0</ele><time>2026-05-03T11:38:09Z</time></trkpt><trkpt lat="42.24339871620026" lon="13.659270018657239"><ele>978.0</ele><time>2026-05-03T11:39:47Z</time></trkpt><trkpt lat="42.24332953299877" lon="13.659275940450748"><ele>978.0</ele><time>2026-05-03T11:41:12.999Z</time></trkpt><trkpt lat="42.24333937355199" lon="13.659168015336872"><ele>978.0</ele><time>2026-05-03T11:41:22.999Z</time></trkpt><trkpt lat="42.24333735018059" lon="13.659081362769635"><ele>978.0</ele><time>2026-05-03T11:41:30Z</time></trkpt><trkpt lat="42.243368440122886" lon="13.65900692351752"><ele>978.0</ele><time>2026-05-03T11:41:43Z</time></trkpt><trkpt lat="42.243338046566556" lon="13.65918166888504"><ele>978.0</ele><time>2026-05-03T11:47:56.422Z</time></trkpt><trkpt lat="42.243366632083756" lon="13.659074189951829"><ele>978.0</ele><time>2026-05-03T11:49:41.997Z</time></trkpt><trkpt lat="42.24339506892021" lon="13.65898306366881"><ele>978.0000000000001</ele><time>2026-05-03T12:09:35Z</time></trkpt><trkpt lat="42.24343676666504" lon="13.659055554078936"><ele>978.0</ele><time>2026-05-03T12:20:06Z</time></trkpt><trkpt lat="42.24339274981241" lon="13.65899384198012"><ele>978.0</ele><time>2026-05-03T12:36:01Z</time></trkpt><trkpt lat="42.24345981452558" lon="13.658927944211117"><ele>978.0000000000001</ele><time>2026-05-03T12:42:40Z</time></trkpt><trkpt lat="42.243425215225635" lon="13.659020121498838"><ele>978.0</ele><time>2026-05-03T12:44:42Z</time></trkpt><trkpt lat="42.24348346509243" lon="13.658981248799837"><ele>978.0</ele><time>2026-05-03T12:58:11.999Z</time></trkpt><trkpt lat="42.24340802908191" lon="13.659004771998061"><ele>978.0</ele><time>2026-05-03T12:58:23.999Z</time></trkpt><trkpt lat="42.24333406375752" lon="13.65914094864951"><ele>978.0</ele><time>2026-05-03T13:03:13.02Z</time></trkpt><trkpt lat="42.243367980634126" lon="13.659032423180873"><ele>978.0</ele><time>2026-05-03T13:05:18.997Z</time></trkpt><trkpt lat="42.24331025015911" lon="13.659067442964862"><ele>978.0</ele><time>2026-05-03T13:06:15Z</time></trkpt><trkpt lat="42.243307024400295" lon="13.659190653793587"><ele>978.0</ele><time>2026-05-03T13:08:16.999Z</time></trkpt><trkpt lat="42.24333801234934" lon="13.659278613359119"><ele>978.0</ele><time>2026-05-03T13:08:24.999Z</time></trkpt><trkpt lat="42.24338778101542" lon="13.65934052202027"><ele>978.0</ele><time>2026-05-03T13:08:45.999Z</time></trkpt><trkpt lat="42.24341704100499" lon="13.65942345128083"><ele>978.0000000000001</ele><time>2026-05-03T13:08:55.999Z</time></trkpt><trkpt lat="42.24341177317195" lon="13.659517723257395"><ele>978.0</ele><time>2026-05-03T13:09:04.999Z</time></trkpt><trkpt lat="42.243434496303514" lon="13.6596068402496"><ele>978.0</ele><time>2026-05-03T13:09:17.999Z</time></trkpt><trkpt lat="42.24344363467577" lon="13.65969244072889"><ele>978.0000000000001</ele><time>2026-05-03T13:09:24.999Z</time></trkpt><trkpt lat="42.243471505651215" lon="13.659776206907159"><ele>978.0</ele><time>2026-05-03T13:09:37.999Z</time></trkpt><trkpt lat="42.24346591029269" lon="13.659863874662522"><ele>978.0</ele><time>2026-05-03T13:09:44.999Z</time></trkpt><trkpt lat="42.2434847620881" lon="13.659952119648366"><ele>979.2857142857143</ele><time>2026-05-03T13:09:53Z</time></trkpt><trkpt lat="42.24350026197129" lon="13.660043150692518"><ele>980.5714285714287</ele><time>2026-05-03T13:10:04Z</time></trkpt><trkpt lat="42.243485578950924" lon="13.660135137495379"><ele>981.8571428571429</ele><time>2026-05-03T13:10:08.999Z</time></trkpt><trkpt lat="42.2434748490724" lon="13.660224928605793"><ele>983.1428571428571</ele><time>2026-05-03T13:10:18.999Z</time></trkpt><trkpt lat="42.24346517827083" lon="13.660314160926832"><ele>984.4285714285714</ele><time>2026-05-03T13:10:24.999Z</time></trkpt><trkpt lat="42.24346172764973" lon="13.660404279755442"><ele>985.7142857142858</ele><time>2026-05-03T13:10:32.999Z</time></trkpt><trkpt lat="42.24345247333505" lon="13.660494243581084"><ele>987.0</ele><time>2026-05-03T13:10:39.999Z</time></trkpt><trkpt lat="42.24343225245256" lon="13.660577856163517"><ele>987.7142857142858</ele><time>2026-05-03T13:10:45.999Z</time></trkpt><trkpt lat="42.24339727154168" lon="13.660670150027398"><ele>988.4285714285714</ele><time>2026-05-03T13:10:51.999Z</time></trkpt><trkpt lat="42.24334792103976" lon="13.660732207359912"><ele>989.1428571428571</ele><time>2026-05-03T13:10:59.999Z</time></trkpt><trkpt lat="42.24329547770753" lon="13.660796685871345"><ele>989.8571428571429</ele><time>2026-05-03T13:11:08.999Z</time></trkpt><trkpt lat="42.24325043056216" lon="13.660865255730577"><ele>990.5714285714287</ele><time>2026-05-03T13:11:17.999Z</time></trkpt><trkpt lat="42.24320165936284" lon="13.660924279346746"><ele>991.2857142857143</ele><time>2026-05-03T13:11:24.999Z</time></trkpt><trkpt lat="42.24315971484749" lon="13.660991436999293"><ele>992.0</ele><time>2026-05-03T13:12:35.999Z</time></trkpt><trkpt lat="42.2431343546822" lon="13.660873857669374"><ele>991.2857142857143</ele><time>2026-05-03T13:16:17Z</time></trkpt><trkpt lat="42.24307837923315" lon="13.660822610710971"><ele>990.5714285714287</ele><time>2026-05-03T13:17:46.999Z</time></trkpt><trkpt lat="42.24302683850431" lon="13.660733456271547"><ele>989.8571428571429</ele><time>2026-05-03T13:19:41.999Z</time></trkpt><trkpt lat="42.24308716792532" lon="13.660761748876666"><ele>989.1428571428571</ele><time>2026-05-03T13:22:03.999Z</time></trkpt><trkpt lat="42.24302394388195" lon="13.66076588430283"><ele>988.4285714285714</ele><time>2026-05-03T13:22:20.999Z</time></trkpt><trkpt lat="42.242966147645355" lon="13.660802030662195"><ele>987.7142857142858</ele><time>2026-05-03T13:26:11.999Z</time></trkpt><trkpt lat="42.2430375428476" lon="13.660745197108755"><ele>987.0</ele><time>2026-05-03T13:27:14Z</time></trkpt><trkpt lat="42.243075323127485" lon="13.660887615704443"><ele>987.0</ele><time>2026-05-03T13:30:09.013Z</time></trkpt><trkpt lat="42.243010284015035" lon="13.660899276502164"><ele>987.0</ele><time>2026-05-03T13:30:28.999Z</time></trkpt><trkpt lat="42.24295297467112" lon="13.660850814051793"><ele>987.0</ele><time>2026-05-03T13:30:39.001Z</time></trkpt><trkpt lat="42.242896108063974" lon="13.660809952042296"><ele>987.0</ele><time>2026-05-03T13:30:50Z</time></trkpt><trkpt lat="42.24283086245805" lon="13.660813395910532"><ele>987.0</ele><time>2026-05-03T13:31:02Z</time></trkpt><trkpt lat="42.24277006201607" lon="13.660772851215498"><ele>987.0</ele><time>2026-05-03T13:31:13Z</time></trkpt><trkpt lat="42.24271273589777" lon="13.660737429677079"><ele>987.0</ele><time>2026-05-03T13:31:20Z</time></trkpt><trkpt lat="42.242682063080466" lon="13.660655598596705"><ele>987.0</ele><time>2026-05-03T13:33:40.999Z</time></trkpt><trkpt lat="42.24264135925996" lon="13.660583120692618"><ele>987.0</ele><time>2026-05-03T13:33:47.999Z</time></trkpt><trkpt lat="42.242606233754344" lon="13.6605107572047"><ele>987.0</ele><time>2026-05-03T13:33:52.999Z</time></trkpt><trkpt lat="42.24259520643885" lon="13.660417695245293"><ele>987.0</ele><time>2026-05-03T13:33:57.999Z</time></trkpt><trkpt lat="42.242615541866975" lon="13.6603314045871"><ele>987.0</ele><time>2026-05-03T13:34:03.999Z</time></trkpt><trkpt lat="42.24266438600754" lon="13.660273930517628"><ele>987.0</ele><time>2026-05-03T13:35:23.999Z</time></trkpt><trkpt lat="42.24270282052512" lon="13.66020427126421"><ele>987.0</ele><time>2026-05-03T13:35:32.999Z</time></trkpt><trkpt lat="42.242751794369" lon="13.66013394639773"><ele>987.0</ele><time>2026-05-03T13:35:42.999Z</time></trkpt><trkpt lat="42.242801599323954" lon="13.660060920118097"><ele>987.0</ele><time>2026-05-03T13:35:55.999Z</time></trkpt><trkpt lat="42.24289400319019" lon="13.660076762562156"><ele>987.0</ele><time>2026-05-03T13:39:41Z</time></trkpt><trkpt lat="42.24287305045394" lon="13.660163789947031"><ele>987.0</ele><time>2026-05-03T13:41:25Z</time></trkpt><trkpt lat="42.24282498890956" lon="13.660263657878565"><ele>987.0</ele><time>2026-05-03T13:42:00Z</time></trkpt><trkpt lat="42.24282242805678" lon="13.660358087976928"><ele>987.0</ele><time>2026-05-03T13:44:02Z</time></trkpt><trkpt lat="42.242829727645216" lon="13.660245333757379"><ele>987.0</ele><time>2026-05-03T13:50:50.999Z</time></trkpt><trkpt lat="42.24289577562332" lon="13.6601895587204"><ele>987.0</ele><time>2026-05-03T13:51:34Z</time></trkpt><trkpt lat="42.2429632941661" lon="13.660228750276591"><ele>987.0</ele><time>2026-05-03T13:52:28.999Z</time></trkpt><trkpt lat="42.24295422342657" lon="13.660315085529422"><ele>987.0</ele><time>2026-05-03T13:52:36.999Z</time></trkpt><trkpt lat="42.2429228131925" lon="13.660391349182346"><ele>987.0</ele><time>2026-05-03T13:52:47.999Z</time></trkpt><trkpt lat="42.24289222397292" lon="13.660535276801761"><ele>987.0</ele><time>2026-05-03T13:53:05.999Z</time></trkpt><trkpt lat="42.24291204191741" lon="13.66063234202451"><ele>987.0</ele><time>2026-05-03T13:53:21.999Z</time></trkpt><trkpt lat="42.242907218662566" lon="13.66071746271653"><ele>987.0</ele><time>2026-05-03T13:53:38Z</time></trkpt><trkpt lat="42.24286603957847" lon="13.660781916493342"><ele>987.0</ele><time>2026-05-03T13:53:45Z</time></trkpt><trkpt lat="42.24293188600087" lon="13.660787856181194"><ele>987.0</ele><time>2026-05-03T13:54:00.999Z</time></trkpt><trkpt lat="42.24297989831447" lon="13.660847468937645"><ele>987.0</ele><time>2026-05-03T13:54:06.999Z</time></trkpt><trkpt lat="42.2430399085799" lon="13.660886704814462"><ele>987.0</ele><time>2026-05-03T13:54:13.999Z</time></trkpt><trkpt lat="42.243095399651786" lon="13.660943344546657"><ele>987.0</ele><time>2026-05-03T13:54:20.999Z</time></trkpt><trkpt lat="42.24316687145583" lon="13.660889627639238"><ele>987.7142857142858</ele><time>2026-05-03T13:55:46Z</time></trkpt><trkpt lat="42.243223575215616" lon="13.660945297518209"><ele>988.4285714285714</ele><time>2026-05-03T13:55:55Z</time></trkpt><trkpt lat="42.243256937726024" lon="13.661021952947417"><ele>989.1428571428571</ele><time>2026-05-03T13:56:03Z</time></trkpt><trkpt lat="42.24327641089395" lon="13.661108431816729"><ele>989.8571428571429</ele><time>2026-05-03T13:56:10Z</time></trkpt><trkpt lat="42.24329717949685" lon="13.661190128109704"><ele>990.5714285714287</ele><time>2026-05-03T13:56:19Z</time></trkpt><trkpt lat="42.24332453017649" lon="13.661278760725123"><ele>991.2857142857143</ele><time>2026-05-03T13:56:30Z</time></trkpt><trkpt lat="42.2433842681224" lon="13.661328607367869"><ele>992.0</ele><time>2026-05-03T13:56:38Z</time></trkpt><trkpt lat="42.24344917695766" lon="13.661355329855475"><ele>990.4285714285714</ele><time>2026-05-03T13:56:46.999Z</time></trkpt><trkpt lat="42.24352096934198" lon="13.661389859301963"><ele>988.8571428571429</ele><time>2026-05-03T13:56:56.999Z</time></trkpt><trkpt lat="42.24358814468322" lon="13.661413079243273"><ele>987.2857142857143</ele><time>2026-05-03T13:57:07.999Z</time></trkpt><trkpt lat="42.24365204324596" lon="13.661431558199073"><ele>985.7142857142858</ele><time>2026-05-03T13:57:17.999Z</time></trkpt><trkpt lat="42.2437327503351" lon="13.661437161969442"><ele>984.1428571428571</ele><time>2026-05-03T13:57:29.999Z</time></trkpt><trkpt lat="42.24379879505718" lon="13.661444878778157"><ele>982.5714285714287</ele><time>2026-05-03T13:57:41Z</time></trkpt><trkpt lat="42.24386617640886" lon="13.66143627770815"><ele>981.0</ele><time>2026-05-03T13:57:51Z</time></trkpt><trkpt lat="42.24392917227993" lon="13.661447732055333"><ele>982.8571428571429</ele><time>2026-05-03T13:58:01Z</time></trkpt><trkpt lat="42.243994049701016" lon="13.661469518582846"><ele>984.7142857142857</ele><time>2026-05-03T13:58:10Z</time></trkpt><trkpt lat="42.24405745942679" lon="13.66147600060784"><ele>986.5714285714286</ele><time>2026-05-03T13:58:22Z</time></trkpt><trkpt lat="42.24412575434967" lon="13.661469160196727"><ele>988.4285714285714</ele><time>2026-05-03T13:58:33Z</time></trkpt><trkpt lat="42.2441916806099" lon="13.661461764557643"><ele>990.2857142857142</ele><time>2026-05-03T13:58:42Z</time></trkpt><trkpt lat="42.24425387643005" lon="13.661442856097528"><ele>992.1428571428571</ele><time>2026-05-03T13:58:54Z</time></trkpt><trkpt lat="42.2443120232623" lon="13.661405375678363"><ele>994.0</ele><time>2026-05-03T13:59:05.999Z</time></trkpt><trkpt lat="42.244349031829934" lon="13.661326415735893"><ele>994.0</ele><time>2026-05-03T13:59:17.999Z</time></trkpt><trkpt lat="42.244418415503716" lon="13.661332752876818"><ele>994.0</ele><time>2026-05-03T13:59:26.999Z</time></trkpt><trkpt lat="42.2444795841032" lon="13.661310605092275"><ele>994.0</ele><time>2026-05-03T13:59:38Z</time></trkpt><trkpt lat="42.24445308784584" lon="13.661227521725998"><ele>994.0</ele><time>2026-05-03T13:59:52Z</time></trkpt><trkpt lat="42.24444150130136" lon="13.661139941139748"><ele>994.0</ele><time>2026-05-03T14:00:06Z</time></trkpt><trkpt lat="42.24450702767356" lon="13.661157490366756"><ele>994.0</ele><time>2026-05-03T14:00:17Z</time></trkpt><trkpt lat="42.24449604464135" lon="13.661071732542744"><ele>994.0</ele><time>2026-05-03T14:00:40Z</time></trkpt><trkpt lat="42.24450048797776" lon="13.660967412341524"><ele>996.0</ele><time>2026-05-03T14:00:49Z</time></trkpt><trkpt lat="42.244526723308226" lon="13.660871226974798"><ele>998.0</ele><time>2026-05-03T14:00:55.999Z</time></trkpt><trkpt lat="42.24456247155722" lon="13.66078782290353"><ele>1000.0</ele><time>2026-05-03T14:01:03.999Z</time></trkpt><trkpt lat="42.244622316231975" lon="13.660740383860283"><ele>1002.0</ele><time>2026-05-03T14:01:26.999Z</time></trkpt><trkpt lat="42.244663028301446" lon="13.660669353244618"><ele>1004.0</ele><time>2026-05-03T14:01:36.999Z</time></trkpt><trkpt lat="42.24470372920541" lon="13.660597139738517"><ele>1006.0</ele><time>2026-05-03T14:01:46Z</time></trkpt><trkpt lat="42.24474489161941" lon="13.660531367898807"><ele>1008.0</ele><time>2026-05-03T14:01:55Z</time></trkpt><trkpt lat="42.2448008946586" lon="13.660470825950568"><ele>1011.1428571428571</ele><time>2026-05-03T14:02:17Z</time></trkpt><trkpt lat="42.24484709578829" lon="13.660409405128233"><ele>1014.2857142857142</ele><time>2026-05-03T14:02:32Z</time></trkpt><trkpt lat="42.244898856058356" lon="13.66035515771942"><ele>1017.4285714285714</ele><time>2026-05-03T14:02:41Z</time></trkpt><trkpt lat="42.24493786605924" lon="13.660254862520887"><ele>1020.5714285714286</ele><time>2026-05-03T14:03:05.999Z</time></trkpt><trkpt lat="42.24499709691291" lon="13.660205889331406"><ele>1023.7142857142857</ele><time>2026-05-03T14:03:18.999Z</time></trkpt><trkpt lat="42.24504868334647" lon="13.660146276185527"><ele>1026.857142857143</ele><time>2026-05-03T14:03:28.999Z</time></trkpt><trkpt lat="42.24508632347243" lon="13.660217196795509"><ele>1030.0</ele><time>2026-05-03T14:04:11Z</time></trkpt><trkpt lat="42.2451518286483" lon="13.660185832472663"><ele>1030.0</ele><time>2026-05-03T14:04:21Z</time></trkpt><trkpt lat="42.24521326461649" lon="13.660159690766184"><ele>1030.0</ele><time>2026-05-03T14:04:48Z</time></trkpt><trkpt lat="42.245270468753866" lon="13.660118037361391"><ele>1030.0</ele><time>2026-05-03T14:04:56.999Z</time></trkpt><trkpt lat="42.245333478981706" lon="13.660112408548743"><ele>1030.0</ele><time>2026-05-03T14:05:03.999Z</time></trkpt><trkpt lat="42.24541165880681" lon="13.660084387682993"><ele>1030.0</ele><time>2026-05-03T14:05:17.999Z</time></trkpt><trkpt lat="42.24547994129813" lon="13.660084580144655"><ele>1030.0</ele><time>2026-05-03T14:05:30.999Z</time></trkpt><trkpt lat="42.245538824936276" lon="13.660053514277646"><ele>1030.0</ele><time>2026-05-03T14:05:41.999Z</time></trkpt><trkpt lat="42.24560786855051" lon="13.660034614702628"><ele>1033.5714285714287</ele><time>2026-05-03T14:05:53.999Z</time></trkpt><trkpt lat="42.24567521844213" lon="13.66001858123244"><ele>1037.142857142857</ele><time>2026-05-03T14:06:04Z</time></trkpt><trkpt lat="42.245745190834654" lon="13.660016314573319"><ele>1040.7142857142858</ele><time>2026-05-03T14:06:12Z</time></trkpt><trkpt lat="42.24581710436985" lon="13.660017974029573"><ele>1044.2857142857142</ele><time>2026-05-03T14:06:29Z</time></trkpt><trkpt lat="42.24581376137138" lon="13.660104860452188"><ele>1047.857142857143</ele><time>2026-05-03T14:06:52Z</time></trkpt><trkpt lat="42.24582042927288" lon="13.660194217648353"><ele>1051.4285714285716</ele><time>2026-05-03T14:09:34.999Z</time></trkpt><trkpt lat="42.245765940353586" lon="13.660244709678027"><ele>1055.0</ele><time>2026-05-03T14:09:47.999Z</time></trkpt><trkpt lat="42.24570205015173" lon="13.660270772188605"><ele>1055.0</ele><time>2026-05-03T14:09:58.999Z</time></trkpt><trkpt lat="42.245638251335414" lon="13.660295869699006"><ele>1055.0</ele><time>2026-05-03T14:14:27.999Z</time></trkpt><trkpt lat="42.245578052203236" lon="13.660329461931573"><ele>1055.0</ele><time>2026-05-03T14:14:57.999Z</time></trkpt><trkpt lat="42.245638044642135" lon="13.660294587877338"><ele>1055.0</ele><time>2026-05-03T14:22:22Z</time></trkpt><trkpt lat="42.24570721627701" lon="13.660267541877918"><ele>1055.0</ele><time>2026-05-03T14:22:31Z</time></trkpt><trkpt lat="42.245776149843856" lon="13.660242504690494"><ele>1055.0</ele><time>2026-05-03T14:22:40Z</time></trkpt><trkpt lat="42.24584453494321" lon="13.660244051744918"><ele>1055.0</ele><time>2026-05-03T14:22:47Z</time></trkpt><trkpt lat="42.245908865181" lon="13.660259758121766"><ele>1055.0</ele><time>2026-05-03T14:22:54Z</time></trkpt><trkpt lat="42.24597416157388" lon="13.660281501821267"><ele>1055.0</ele><time>2026-05-03T14:23:02Z</time></trkpt><trkpt lat="42.24591124656285" lon="13.660269347883789"><ele>1055.0</ele><time>2026-05-03T14:25:12Z</time></trkpt><trkpt lat="42.24584231292716" lon="13.660260090467157"><ele>1055.0</ele><time>2026-05-03T14:25:21Z</time></trkpt><trkpt lat="42.245814467521384" lon="13.660182720833976"><ele>1055.0</ele><time>2026-05-03T14:25:30Z</time></trkpt><trkpt lat="42.245812988883586" lon="13.660091830593796"><ele>1055.0</ele><time>2026-05-03T14:25:44Z</time></trkpt><trkpt lat="42.245770030209655" lon="13.660020569558181"><ele>1055.0</ele><time>2026-05-03T14:26:15Z</time></trkpt><trkpt lat="42.24570372897832" lon="13.660033930653766"><ele>1055.0</ele><time>2026-05-03T14:26:22Z</time></trkpt><trkpt lat="42.245636178695406" lon="13.66003222943046"><ele>1055.0</ele><time>2026-05-03T14:26:33Z</time></trkpt><trkpt lat="42.24556708440403" lon="13.66004330693249"><ele>1055.0</ele><time>2026-05-03T14:26:42Z</time></trkpt><trkpt lat="42.24550289917873" lon="13.660046415427006"><ele>1055.0</ele><time>2026-05-03T14:26:54Z</time></trkpt><trkpt lat="42.245446207358285" lon="13.660085262164616"><ele>1055.0</ele><time>2026-05-03T14:27:05.001Z</time></trkpt><trkpt lat="42.245380869087086" lon="13.66008989889271"><ele>1055.0</ele><time>2026-05-03T14:27:19Z</time></trkpt><trkpt lat="42.24530097290678" lon="13.660098087938222"><ele>1055.0</ele><time>2026-05-03T14:27:36Z</time></trkpt><trkpt lat="42.24524095073359" lon="13.66012504062728"><ele>1052.142857142857</ele><time>2026-05-03T14:27:48Z</time></trkpt><trkpt lat="42.24518160608479" lon="13.660162328722256"><ele>1049.2857142857144</ele><time>2026-05-03T14:27:59Z</time></trkpt><trkpt lat="42.245134316642506" lon="13.660219667301392"><ele>1046.4285714285716</ele><time>2026-05-03T14:28:10Z</time></trkpt><trkpt lat="42.245069118168324" lon="13.660256611414226"><ele>1043.5714285714287</ele><time>2026-05-03T14:28:26Z</time></trkpt><trkpt lat="42.24505715047163" lon="13.66016447052667"><ele>1040.7142857142858</ele><time>2026-05-03T14:28:38Z</time></trkpt><trkpt lat="42.24500789728303" lon="13.660224215122186"><ele>1037.857142857143</ele><time>2026-05-03T14:28:56.001Z</time></trkpt><trkpt lat="42.2449618053609" lon="13.66028478689408"><ele>1035.0</ele><time>2026-05-03T14:29:07.001Z</time></trkpt><trkpt lat="42.244906487504196" lon="13.660331559153768"><ele>1035.0</ele><time>2026-05-03T14:29:23.001Z</time></trkpt><trkpt lat="42.24485661616107" lon="13.660383580535756"><ele>1035.0</ele><time>2026-05-03T14:29:34Z</time></trkpt><trkpt lat="42.24479943834344" lon="13.660458966656766"><ele>1035.0</ele><time>2026-05-03T14:29:51Z</time></trkpt><trkpt lat="42.244755486582726" lon="13.660526078689838"><ele>1035.0</ele><time>2026-05-03T14:30:05Z</time></trkpt><trkpt lat="42.2447096082578" lon="13.660584993288648"><ele>1035.0</ele><time>2026-05-03T14:30:16Z</time></trkpt><trkpt lat="42.24467989811479" lon="13.66066316619599"><ele>1035.0</ele><time>2026-05-03T14:30:27Z</time></trkpt><trkpt lat="42.24464533473565" lon="13.660736935434503"><ele>1035.0</ele><time>2026-05-03T14:30:40Z</time></trkpt><trkpt lat="42.24459866917573" lon="13.660798133332795"><ele>1031.142857142857</ele><time>2026-05-03T14:30:51Z</time></trkpt><trkpt lat="42.24456666873432" lon="13.660876130728608"><ele>1027.2857142857142</ele><time>2026-05-03T14:31:02Z</time></trkpt><trkpt lat="42.244534825207275" lon="13.660954904860532"><ele>1023.4285714285714</ele><time>2026-05-03T14:31:12.001Z</time></trkpt><trkpt lat="42.244512210318206" lon="13.661046622359525"><ele>1019.5714285714286</ele><time>2026-05-03T14:31:26Z</time></trkpt><trkpt lat="42.244547997564595" lon="13.661121174747665"><ele>1015.7142857142858</ele><time>2026-05-03T14:31:36Z</time></trkpt><trkpt lat="42.244490058478334" lon="13.661166605901492"><ele>1011.8571428571429</ele><time>2026-05-03T14:31:52Z</time></trkpt><trkpt lat="42.244477537040076" lon="13.6612545394572"><ele>1008.0</ele><time>2026-05-03T14:32:18Z</time></trkpt><trkpt lat="42.244461086707496" lon="13.661341299171248"><ele>1006.0</ele><time>2026-05-03T14:32:40Z</time></trkpt><trkpt lat="42.24439867685813" lon="13.661363602096907"><ele>1004.0</ele><time>2026-05-03T14:32:53Z</time></trkpt><trkpt lat="42.24433369337949" lon="13.661414225409256"><ele>1002.0</ele><time>2026-05-03T14:33:11Z</time></trkpt><trkpt lat="42.24427598461264" lon="13.66145389333785"><ele>1000.0</ele><time>2026-05-03T14:33:24Z</time></trkpt><trkpt lat="42.24421236352804" lon="13.661472340189965"><ele>998.0</ele><time>2026-05-03T14:33:39Z</time></trkpt><trkpt lat="42.244151056383586" lon="13.661497254016105"><ele>996.0</ele><time>2026-05-03T14:33:49Z</time></trkpt><trkpt lat="42.244085116119656" lon="13.661502138936608"><ele>994.0</ele><time>2026-05-03T14:34:00Z</time></trkpt><trkpt lat="42.24402124269867" lon="13.661499629135541"><ele>992.1428571428571</ele><time>2026-05-03T14:34:10Z</time></trkpt><trkpt lat="42.24396026833579" lon="13.661475009426548"><ele>990.2857142857142</ele><time>2026-05-03T14:34:19Z</time></trkpt><trkpt lat="42.24389644554686" lon="13.661463944037742"><ele>988.4285714285714</ele><time>2026-05-03T14:34:26Z</time></trkpt><trkpt lat="42.243832981542326" lon="13.661462923181537"><ele>986.5714285714286</ele><time>2026-05-03T14:34:35Z</time></trkpt><trkpt lat="42.243762456319004" lon="13.661447931755095"><ele>984.7142857142857</ele><time>2026-05-03T14:34:48Z</time></trkpt><trkpt lat="42.243697626169165" lon="13.661461001622891"><ele>982.8571428571429</ele><time>2026-05-03T14:35:23Z</time></trkpt><trkpt lat="42.243633331360044" lon="13.661452190861695"><ele>981.0</ele><time>2026-05-03T14:35:33Z</time></trkpt><trkpt lat="42.243569296824006" lon="13.661425465767753"><ele>981.0</ele><time>2026-05-03T14:35:44Z</time></trkpt><trkpt lat="42.243502149243014" lon="13.66140766517612"><ele>981.0</ele><time>2026-05-03T14:35:55Z</time></trkpt><trkpt lat="42.24344717725988" lon="13.66134945564222"><ele>981.0</ele><time>2026-05-03T14:36:04Z</time></trkpt><trkpt lat="42.24338632719659" lon="13.661315179526861"><ele>981.0</ele><time>2026-05-03T14:36:14Z</time></trkpt><trkpt lat="42.24333351063862" lon="13.661252260610867"><ele>981.0</ele><time>2026-05-03T14:36:24Z</time></trkpt><trkpt lat="42.24329329403848" lon="13.661184595233085"><ele>981.0</ele><time>2026-05-03T14:36:34Z</time></trkpt><trkpt lat="42.243291790080825" lon="13.66109454014357"><ele>981.0</ele><time>2026-05-03T14:36:53Z</time></trkpt><trkpt lat="42.243268139865755" lon="13.661008141015264"><ele>982.5714285714287</ele><time>2026-05-03T14:37:02Z</time></trkpt><trkpt lat="42.24328464496713" lon="13.660916081157078"><ele>984.1428571428571</ele><time>2026-05-03T14:37:36Z</time></trkpt><trkpt lat="42.24332239217538" lon="13.660841682439283"><ele>985.7142857142858</ele><time>2026-05-03T14:37:45Z</time></trkpt><trkpt lat="42.24335290927182" lon="13.66075902955697"><ele>987.2857142857143</ele><time>2026-05-03T14:37:55Z</time></trkpt><trkpt lat="42.243391048345" lon="13.660673108549426"><ele>988.8571428571429</ele><time>2026-05-03T14:38:03Z</time></trkpt><trkpt lat="42.243409986605855" lon="13.660582013714015"><ele>990.4285714285714</ele><time>2026-05-03T14:38:11Z</time></trkpt><trkpt lat="42.243424992690386" lon="13.660497983549044"><ele>992.0</ele><time>2026-05-03T14:38:19Z</time></trkpt><trkpt lat="42.24343769944748" lon="13.660414089882604"><ele>992.0</ele><time>2026-05-03T14:38:26Z</time></trkpt><trkpt lat="42.24344290046899" lon="13.660321266154998"><ele>992.0</ele><time>2026-05-03T14:38:34Z</time></trkpt><trkpt lat="42.243762456319004" lon="13.661447931755095"><ele>990.4285714285714</ele><time>2026-05-03T14:34:48Z</time></trkpt><trkpt lat="42.243697626169165" lon="13.661461001622891"><ele>988.8571428571429</ele><time>2026-05-03T14:35:23Z</time></trkpt><trkpt lat="42.243633331360044" lon="13.661452190861695"><ele>987.2857142857143</ele><time>2026-05-03T14:35:33Z</time></trkpt><trkpt lat="42.243569296824006" lon="13.661425465767753"><ele>985.7142857142858</ele><time>2026-05-03T14:35:44Z</time></trkpt><trkpt lat="42.243502149243014" lon="13.66140766517612"><ele>984.1428571428571</ele><time>2026-05-03T14:35:55Z</time></trkpt><trkpt lat="42.24344717725988" lon="13.66134945564222"><ele>982.5714285714287</ele><time>2026-05-03T14:36:04Z</time></trkpt><trkpt lat="42.24338632719659" lon="13.661315179526861"><ele>981.0</ele><time>2026-05-03T14:36:14Z</time></trkpt><trkpt lat="42.24333351063862" lon="13.661252260610867"><ele>981.0</ele><time>2026-05-03T14:36:24Z</time></trkpt><trkpt lat="42.24329329403848" lon="13.661184595233085"><ele>981.0</ele><time>2026-05-03T14:36:34Z</time></trkpt><trkpt lat="42.243291790080825" lon="13.66109454014357"><ele>981.0</ele><time>2026-05-03T14:36:53Z</time></trkpt><trkpt lat="42.243268139865755" lon="13.661008141015264"><ele>981.0</ele><time>2026-05-03T14:37:02Z</time></trkpt><trkpt lat="42.24328464496713" lon="13.660916081157078"><ele>981.0</ele><time>2026-05-03T14:37:36Z</time></trkpt><trkpt lat="42.24332239217538" lon="13.660841682439283"><ele>981.0</ele><time>2026-05-03T14:37:45Z</time></trkpt><trkpt lat="42.24335290927182" lon="13.66075902955697"><ele>981.0</ele><time>2026-05-03T14:37:55Z</time></trkpt><trkpt lat="42.243391048345" lon="13.660673108549426"><ele>981.8571428571429</ele><time>2026-05-03T14:38:03Z</time></trkpt><trkpt lat="42.243409986605855" lon="13.660582013714015"><ele>982.7142857142857</ele><time>2026-05-03T14:38:11Z</time></trkpt><trkpt lat="42.243424992690386" lon="13.660497983549044"><ele>983.5714285714286</ele><time>2026-05-03T14:38:19Z</time></trkpt><trkpt lat="42.24343769944748" lon="13.660414089882604"><ele>984.4285714285714</ele><time>2026-05-03T14:38:26Z</time></trkpt><trkpt lat="42.24344290046899" lon="13.660321266154998"><ele>985.2857142857142</ele><time>2026-05-03T14:38:34Z</time></trkpt><trkpt lat="42.24345158149124" lon="13.660235946605596"><ele>986.1428571428571</ele><time>2026-05-03T14:38:42Z</time></trkpt><trkpt lat="42.243454226518" lon="13.66013827824271"><ele>987.0</ele><time>2026-05-03T14:38:51Z</time></trkpt><trkpt lat="42.24346141309958" lon="13.660052349141848"><ele>987.0</ele><time>2026-05-03T14:38:59Z</time></trkpt><trkpt lat="42.24347042021459" lon="13.65995746913821"><ele>987.0</ele><time>2026-05-03T14:39:08Z</time></trkpt><trkpt lat="42.243458002329355" lon="13.659864396004476"><ele>987.0</ele><time>2026-05-03T14:39:27Z</time></trkpt><trkpt lat="42.243434250769205" lon="13.65978067135706"><ele>987.0</ele><time>2026-05-03T14:39:37.999Z</time></trkpt><trkpt lat="42.24343966821501" lon="13.659690473535164"><ele>987.0</ele><time>2026-05-03T14:39:48.999Z</time></trkpt><trkpt lat="42.24342666432074" lon="13.65960259267723"><ele>987.0</ele><time>2026-05-03T14:39:57.999Z</time></trkpt><trkpt lat="42.243406988694474" lon="13.659512644184812"><ele>987.0</ele><time>2026-05-03T14:40:05.999Z</time></trkpt><trkpt lat="42.243390860660334" lon="13.659424651033985"><ele>985.5</ele><time>2026-05-03T14:40:14.999Z</time></trkpt><trkpt lat="42.24335991184562" lon="13.659337418105512"><ele>984.0</ele><time>2026-05-03T14:40:22.999Z</time></trkpt><trkpt lat="42.243323631637665" lon="13.659257093728133"><ele>982.5</ele><time>2026-05-03T14:50:29Z</time></trkpt><trkpt lat="42.24326246699605" lon="13.659203365408537"><ele>981.0</ele><time>2026-05-03T14:50:32Z</time></trkpt><trkpt lat="42.24324713094021" lon="13.659070153342611"><ele>979.5</ele><time>2026-05-03T14:50:35Z</time></trkpt><trkpt lat="42.24327134206372" lon="13.658971046747638"><ele>978.0</ele><time>2026-05-03T14:50:37Z</time></trkpt><trkpt lat="42.24329718164204" lon="13.658869190612473"><ele>978.0</ele><time>2026-05-03T14:50:39Z</time></trkpt><trkpt lat="42.24333075209234" lon="13.658756561929756"><ele>978.0</ele><time>2026-05-03T14:50:41Z</time></trkpt><trkpt lat="42.24337686383485" lon="13.658628517396787"><ele>978.0</ele><time>2026-05-03T14:50:43Z</time></trkpt><trkpt lat="42.24343099741696" lon="13.658506459069164"><ele>978.0</ele><time>2026-05-03T14:50:45Z</time></trkpt><trkpt lat="42.24350635505458" lon="13.658419468138867"><ele>978.0</ele><time>2026-05-03T14:50:47Z</time></trkpt><trkpt lat="42.24354707857939" lon="13.658336489420222"><ele>977.1666666666666</ele><time>2026-05-03T14:50:49Z</time></trkpt><trkpt lat="42.24360706442926" lon="13.658255966249662"><ele>976.3333333333333</ele><time>2026-05-03T14:50:51Z</time></trkpt><trkpt lat="42.24365784100111" lon="13.658177511983537"><ele>975.5</ele><time>2026-05-03T14:50:53Z</time></trkpt><trkpt lat="42.24371473104387" lon="13.658125557919066"><ele>974.6666666666666</ele><time>2026-05-03T14:50:55Z</time></trkpt><trkpt lat="42.24365358053801" lon="13.658202224479124"><ele>973.8333333333333</ele><time>2026-05-03T14:51:16Z</time></trkpt><trkpt lat="42.24360475237194" lon="13.658274082927642"><ele>973.0</ele><time>2026-05-03T14:51:18Z</time></trkpt><trkpt lat="42.24353898334992" lon="13.65833852386523"><ele>972.9999999999999</ele><time>2026-05-03T14:51:20Z</time></trkpt><trkpt lat="42.24349127246463" lon="13.658429966218208"><ele>973.0</ele><time>2026-05-03T14:51:22Z</time></trkpt><trkpt lat="42.24343904042751" lon="13.65852321208407"><ele>973.0</ele><time>2026-05-03T14:51:24Z</time></trkpt><trkpt lat="42.243377727160734" lon="13.65860700624077"><ele>973.0</ele><time>2026-05-03T14:51:26Z</time></trkpt><trkpt lat="42.24331003581832" lon="13.658677339114348"><ele>972.9999999999999</ele><time>2026-05-03T14:51:28Z</time></trkpt><trkpt lat="42.24325792025268" lon="13.658775293331875"><ele>973.0</ele><time>2026-05-03T14:51:30Z</time></trkpt><trkpt lat="42.24318950841742" lon="13.658871575081129"><ele>974.25</ele><time>2026-05-03T14:51:32Z</time></trkpt><trkpt lat="42.24313118827705" lon="13.658945504432884"><ele>975.5</ele><time>2026-05-03T14:51:33Z</time></trkpt><trkpt lat="42.24291849712258" lon="13.65874762559116"><ele>976.75</ele><time>2026-05-03T14:51:35Z</time></trkpt><trkpt lat="42.242910804705474" lon="13.658614728414113"><ele>978.0</ele><time>2026-05-03T14:51:37Z</time></trkpt><trkpt lat="42.24295075513633" lon="13.658533638423187"><ele>973.5</ele><time>2026-05-03T14:51:38Z</time></trkpt><trkpt lat="42.24299397280996" lon="13.658452785841478"><ele>969.0</ele><time>2026-05-03T14:51:39Z</time></trkpt><trkpt lat="42.24303084414282" lon="13.658362798328584"><ele>964.5</ele><time>2026-05-03T14:51:40Z</time></trkpt><trkpt lat="42.24306494328797" lon="13.65826348441306"><ele>960.0</ele><time>2026-05-03T14:51:41Z</time></trkpt><trkpt lat="42.24309020904941" lon="13.658148058967514"><ele>955.5</ele><time>2026-05-03T14:51:42Z</time></trkpt><trkpt lat="42.24310972782824" lon="13.658024964563625"><ele>951.0</ele><time>2026-05-03T14:51:43Z</time></trkpt><trkpt lat="42.243123458891276" lon="13.657900955795219"><ele>953.3333333333334</ele><time>2026-05-03T14:51:44Z</time></trkpt><trkpt lat="42.24314036885458" lon="13.657781427715408"><ele>955.6666666666667</ele><time>2026-05-03T14:51:45Z</time></trkpt><trkpt lat="42.24316052014287" lon="13.657664605115805"><ele>958.0</ele><time>2026-05-03T14:51:46Z</time></trkpt><trkpt lat="42.243187066636736" lon="13.657551066946347"><ele>960.3333333333334</ele><time>2026-05-03T14:51:47Z</time></trkpt><trkpt lat="42.24322552083589" lon="13.657444095239013"><ele>962.6666666666667</ele><time>2026-05-03T14:51:48Z</time></trkpt><trkpt lat="42.24327131988201" lon="13.657343681555844"><ele>965.0</ele><time>2026-05-03T14:51:49Z</time></trkpt><trkpt lat="42.243317463649824" lon="13.657248380344344"><ele>965.0000000000001</ele><time>2026-05-03T14:51:50Z</time></trkpt><trkpt lat="42.24336808738957" lon="13.657156444854156"><ele>965.0</ele><time>2026-05-03T14:51:51Z</time></trkpt><trkpt lat="42.24342213557144" lon="13.657070619346106"><ele>965.0</ele><time>2026-05-03T14:51:52Z</time></trkpt><trkpt lat="42.24348110664009" lon="13.65699092721773"><ele>965.0</ele><time>2026-05-03T14:51:53Z</time></trkpt><trkpt lat="42.243542231198866" lon="13.65691730299354"><ele>965.0000000000001</ele><time>2026-05-03T14:51:54Z</time></trkpt><trkpt lat="42.24360073656349" lon="13.656842869157577"><ele>965.0</ele><time>2026-05-03T14:51:55Z</time></trkpt><trkpt lat="42.24365205771381" lon="13.656770858029315"><ele>962.1666666666667</ele><time>2026-05-03T14:51:56Z</time></trkpt><trkpt lat="42.243685717729285" lon="13.656628845999984"><ele>959.3333333333334</ele><time>2026-05-03T14:51:58Z</time></trkpt><trkpt lat="42.24359595911766" lon="13.65654340175001"><ele>956.5</ele><time>2026-05-03T14:52:00Z</time></trkpt><trkpt lat="42.24353108280767" lon="13.656570145065574"><ele>953.6666666666667</ele><time>2026-05-03T14:52:01Z</time></trkpt><trkpt lat="42.24347737720262" lon="13.656635022500954"><ele>950.8333333333334</ele><time>2026-05-03T14:52:02Z</time></trkpt><trkpt lat="42.24342789836449" lon="13.656716827179698"><ele>948.0</ele><time>2026-05-03T14:52:03Z</time></trkpt><trkpt lat="42.243375451917196" lon="13.656804321706447"><ele>948.0</ele><time>2026-05-03T14:52:04Z</time></trkpt><trkpt lat="42.243314610326685" lon="13.656899209962871"><ele>948.0</ele><time>2026-05-03T14:52:05Z</time></trkpt><trkpt lat="42.2432489575331" lon="13.657001912058668"><ele>948.0</ele><time>2026-05-03T14:52:06Z</time></trkpt><trkpt lat="42.24317842702674" lon="13.657104333233539"><ele>948.0</ele><time>2026-05-03T14:52:07Z</time></trkpt><trkpt lat="42.243103966484604" lon="13.657210300508957"><ele>948.0</ele><time>2026-05-03T14:52:08Z</time></trkpt><trkpt lat="42.24303371406668" lon="13.657316768752157"><ele>948.5999999999999</ele><time>2026-05-03T14:52:09Z</time></trkpt><trkpt lat="42.242965151376765" lon="13.657420119976718"><ele>949.1999999999999</ele><time>2026-05-03T14:52:10Z</time></trkpt><trkpt lat="42.24290040079816" lon="13.657525882954921"><ele>949.8</ele><time>2026-05-03T14:52:11Z</time></trkpt><trkpt lat="42.242838604088114" lon="13.65763158664377"><ele>950.4</ele><time>2026-05-03T14:52:12Z</time></trkpt><trkpt lat="42.24277901833393" lon="13.657738053570043"><ele>951.0</ele><time>2026-05-03T14:52:13Z</time></trkpt><trkpt lat="42.242722535615805" lon="13.65784589425923"><ele>951.0</ele><time>2026-05-03T14:52:14Z</time></trkpt><trkpt lat="42.242665640891495" lon="13.657953239659195"><ele>950.9999999999999</ele><time>2026-05-03T14:52:15Z</time></trkpt><trkpt lat="42.24260623834791" lon="13.658055815678578"><ele>950.9999999999999</ele><time>2026-05-03T14:52:16Z</time></trkpt><trkpt lat="42.24254040078524" lon="13.658149706793385"><ele>951.0</ele><time>2026-05-03T14:52:17Z</time></trkpt><trkpt lat="42.24247457751107" lon="13.658241326371844"><ele>951.0</ele><time>2026-05-03T14:52:18Z</time></trkpt><trkpt lat="42.24240504366429" lon="13.658335513877534"><ele>951.0</ele><time>2026-05-03T14:52:19Z</time></trkpt><trkpt lat="42.24233681761775" lon="13.658435877191755"><ele>950.9999999999999</ele><time>2026-05-03T14:52:20Z</time></trkpt><trkpt lat="42.24227278807798" lon="13.658538647880532"><ele>950.9999999999999</ele><time>2026-05-03T14:52:21Z</time></trkpt><trkpt lat="42.24220930268206" lon="13.658641597457455"><ele>951.0</ele><time>2026-05-03T14:52:22Z</time></trkpt><trkpt lat="42.242145958905674" lon="13.658743331202373"><ele>951.0</ele><time>2026-05-03T14:52:23Z</time></trkpt><trkpt lat="42.24208213679962" lon="13.658844948403992"><ele>947.8</ele><time>2026-05-03T14:52:24Z</time></trkpt><trkpt lat="42.242017331051066" lon="13.658943385192583"><ele>944.5999999999999</ele><time>2026-05-03T14:52:25Z</time></trkpt><trkpt lat="42.24195198535552" lon="13.65903953659985"><ele>941.4</ele><time>2026-05-03T14:52:26Z</time></trkpt><trkpt lat="42.24188637337182" lon="13.659131775257546"><ele>938.2</ele><time>2026-05-03T14:52:27Z</time></trkpt><trkpt lat="42.241819777676234" lon="13.659219897704968"><ele>935.0</ele><time>2026-05-03T14:52:28Z</time></trkpt><trkpt lat="42.24175319956072" lon="13.65930787481483"><ele>935.0</ele><time>2026-05-03T14:52:29Z</time></trkpt><trkpt lat="42.241682073094395" lon="13.659402497516558"><ele>935.0</ele><time>2026-05-03T14:52:30Z</time></trkpt><trkpt lat="42.24160685490601" lon="13.659502358874839"><ele>935.0</ele><time>2026-05-03T14:52:31Z</time></trkpt><trkpt lat="42.24153568280687" lon="13.659593700900981"><ele>935.0</ele><time>2026-05-03T14:52:32Z</time></trkpt><trkpt lat="42.24147199034945" lon="13.659672905098624"><ele>935.0</ele><time>2026-05-03T14:52:33Z</time></trkpt><trkpt lat="42.24141510604751" lon="13.659736260940079"><ele>933.4</ele><time>2026-05-03T14:52:34Z</time></trkpt><trkpt lat="42.24136085692612" lon="13.659787319602403"><ele>931.8</ele><time>2026-05-03T14:52:35Z</time></trkpt><trkpt lat="42.24130719778754" lon="13.659835883446679"><ele>930.2</ele><time>2026-05-03T14:52:36Z</time></trkpt><trkpt lat="42.24123283843168" lon="13.659894644384158"><ele>928.6</ele><time>2026-05-03T14:52:37Z</time></trkpt><trkpt lat="42.24114597128902" lon="13.659988884508744"><ele>927.0</ele><time>2026-05-03T14:52:38Z</time></trkpt><trkpt lat="42.241053830673195" lon="13.660113617928253"><ele>927.0</ele><time>2026-05-03T14:52:39Z</time></trkpt><trkpt lat="42.24095968924054" lon="13.660248042155184"><ele>927.0</ele><time>2026-05-03T14:52:40Z</time></trkpt><trkpt lat="42.24086495914703" lon="13.660386919209683"><ele>927.0</ele><time>2026-05-03T14:52:41Z</time></trkpt><trkpt lat="42.240767889796444" lon="13.660534484153514"><ele>927.0</ele><time>2026-05-03T14:52:42Z</time></trkpt><trkpt lat="42.240669054555404" lon="13.66068807796324"><ele>924.6666666666667</ele><time>2026-05-03T14:52:43Z</time></trkpt><trkpt lat="42.24057450008513" lon="13.660850615474745"><ele>922.3333333333334</ele><time>2026-05-03T14:52:44Z</time></trkpt><trkpt lat="42.24048613496621" lon="13.661023605771488"><ele>920.0</ele><time>2026-05-03T14:52:45Z</time></trkpt><trkpt lat="42.24040870723232" lon="13.661204304736296"><ele>920.0</ele><time>2026-05-03T14:52:46Z</time></trkpt><trkpt lat="42.240349559346015" lon="13.661395704416982"><ele>920.0</ele><time>2026-05-03T14:52:47Z</time></trkpt><trkpt lat="42.240297097241" lon="13.66158829679504"><ele>920.0</ele><time>2026-05-03T14:52:48Z</time></trkpt><trkpt lat="42.24025293340845" lon="13.661773200991775"><ele>920.0</ele><time>2026-05-03T14:52:49Z</time></trkpt><trkpt lat="42.24021636246973" lon="13.661948916667303"><ele>919.6</ele><time>2026-05-03T14:52:50Z</time></trkpt><trkpt lat="42.2401845181312" lon="13.66210941807913"><ele>919.2</ele><time>2026-05-03T14:52:51Z</time></trkpt><trkpt lat="42.24015987917543" lon="13.66226205136798"><ele>918.8</ele><time>2026-05-03T14:52:52Z</time></trkpt><trkpt lat="42.24015494112035" lon="13.662400433919524"><ele>918.4</ele><time>2026-05-03T14:52:53Z</time></trkpt><trkpt lat="42.240176899998076" lon="13.66252009812011"><ele>918.0</ele><time>2026-05-03T14:52:54Z</time></trkpt><trkpt lat="42.24022981973856" lon="13.662607818713877"><ele>918.0</ele><time>2026-05-03T14:52:55Z</time></trkpt><trkpt lat="42.24030858358174" lon="13.662657703906428"><ele>918.0</ele><time>2026-05-03T14:52:56Z</time></trkpt><trkpt lat="42.24040643903215" lon="13.662675292198106"><ele>918.0</ele><time>2026-05-03T14:52:57Z</time></trkpt><trkpt lat="42.24051663625479" lon="13.66270863365326"><ele>918.0</ele><time>2026-05-03T14:52:58Z</time></trkpt><trkpt lat="42.24064072561642" lon="13.66274918164668"><ele>918.0</ele><time>2026-05-03T14:52:59Z</time></trkpt><trkpt lat="42.24077008613676" lon="13.662816607451768"><ele>916.3333333333333</ele><time>2026-05-03T14:53:00Z</time></trkpt><trkpt lat="42.2409092896415" lon="13.662893883894272"><ele>914.6666666666666</ele><time>2026-05-03T14:53:01Z</time></trkpt><trkpt lat="42.24103967023928" lon="13.66300343770165"><ele>913.0</ele><time>2026-05-03T14:53:02Z</time></trkpt><trkpt lat="42.24116491053073" lon="13.66311521980939"><ele>913.0</ele><time>2026-05-03T14:53:03Z</time></trkpt><trkpt lat="42.24127962951282" lon="13.66322814353325"><ele>913.0</ele><time>2026-05-03T14:53:04Z</time></trkpt><trkpt lat="42.24138551842546" lon="13.663345789745831"><ele>913.0</ele><time>2026-05-03T14:53:05Z</time></trkpt><trkpt lat="42.241489260083014" lon="13.663456621210322"><ele>913.0</ele><time>2026-05-03T14:53:06Z</time></trkpt><trkpt lat="42.24161671992683" lon="13.66354171828477"><ele>911.6666666666666</ele><time>2026-05-03T14:53:07Z</time></trkpt><trkpt lat="42.2417623418591" lon="13.66358789907955"><ele>910.3333333333333</ele><time>2026-05-03T14:53:08Z</time></trkpt><trkpt lat="42.24191569292677" lon="13.66360682532366"><ele>909.0</ele><time>2026-05-03T14:53:09Z</time></trkpt><trkpt lat="42.24207453547954" lon="13.663615435341555"><ele>909.0</ele><time>2026-05-03T14:53:10Z</time></trkpt><trkpt lat="42.242234079089556" lon="13.663648405716403"><ele>909.0</ele><time>2026-05-03T14:53:11Z</time></trkpt><trkpt lat="42.242394589509225" lon="13.663666232432174"><ele>909.0</ele><time>2026-05-03T14:53:12Z</time></trkpt><trkpt lat="42.24255144734254" lon="13.663685333970667"><ele>907.6666666666667</ele><time>2026-05-03T14:53:13Z</time></trkpt><trkpt lat="42.242702272786886" lon="13.66370979531635"><ele>906.3333333333334</ele><time>2026-05-03T14:53:14Z</time></trkpt><trkpt lat="42.242849284645814" lon="13.663732671954781"><ele>905.0</ele><time>2026-05-03T14:53:15Z</time></trkpt><trkpt lat="42.24299385549086" lon="13.663795038110193"><ele>905.75</ele><time>2026-05-03T14:53:16Z</time></trkpt><trkpt lat="42.24313637720944" lon="13.663870887773506"><ele>906.5</ele><time>2026-05-03T14:53:17Z</time></trkpt><trkpt lat="42.24327213358376" lon="13.663954022369179"><ele>907.25</ele><time>2026-05-03T14:53:18Z</time></trkpt><trkpt lat="42.24340603403386" lon="13.66403366569849"><ele>908.0</ele><time>2026-05-03T14:53:19Z</time></trkpt><trkpt lat="42.24354588373514" lon="13.664104734498801"><ele>908.0</ele><time>2026-05-03T14:53:20Z</time></trkpt><trkpt lat="42.24369359168316" lon="13.664155907562266"><ele>908.0</ele><time>2026-05-03T14:53:21Z</time></trkpt><trkpt lat="42.24384500191931" lon="13.664184387619098"><ele>908.0</ele><time>2026-05-03T14:53:22Z</time></trkpt><trkpt lat="42.24400087664129" lon="13.66418849665897"><ele>908.3333333333334</ele><time>2026-05-03T14:53:23Z</time></trkpt><trkpt lat="42.24416092312472" lon="13.664173775804969"><ele>908.6666666666667</ele><time>2026-05-03T14:53:24Z</time></trkpt><trkpt lat="42.24432367671276" lon="13.66415451679586"><ele>909.0</ele><time>2026-05-03T14:53:24.999Z</time></trkpt><trkpt lat="42.2444919500056" lon="13.664169104541664"><ele>909.0</ele><time>2026-05-03T14:53:25.999Z</time></trkpt><trkpt lat="42.24466515253952" lon="13.664165846534356"><ele>909.0</ele><time>2026-05-03T14:53:26.999Z</time></trkpt><trkpt lat="42.24484444762274" lon="13.664150264175055"><ele>909.0</ele><time>2026-05-03T14:53:27.999Z</time></trkpt><trkpt lat="42.245026228230195" lon="13.664196433101733"><ele>908.6666666666667</ele><time>2026-05-03T14:53:28.999Z</time></trkpt><trkpt lat="42.24521143624249" lon="13.664221943877918"><ele>908.3333333333334</ele><time>2026-05-03T14:53:29.999Z</time></trkpt><trkpt lat="42.24538992985174" lon="13.664248828029393"><ele>908.0</ele><time>2026-05-03T14:53:30.999Z</time></trkpt><trkpt lat="42.24556366161662" lon="13.664252498632724"><ele>907.0</ele><time>2026-05-03T14:53:31.999Z</time></trkpt><trkpt lat="42.245731940119605" lon="13.664282472562432"><ele>906.0</ele><time>2026-05-03T14:53:32.999Z</time></trkpt><trkpt lat="42.2458971115364" lon="13.664320447580453"><ele>905.0</ele><time>2026-05-03T14:53:33.999Z</time></trkpt><trkpt lat="42.246057428061185" lon="13.664399553432416"><ele>903.6666666666667</ele><time>2026-05-03T14:53:34.999Z</time></trkpt><trkpt lat="42.24621752226683" lon="13.664479018380112"><ele>902.3333333333333</ele><time>2026-05-03T14:53:35.999Z</time></trkpt><trkpt lat="42.24637481301083" lon="13.664567268860866"><ele>901.0</ele><time>2026-05-03T14:53:36.999Z</time></trkpt><trkpt lat="42.24652738930337" lon="13.664657941191624"><ele>901.0</ele><time>2026-05-03T14:53:37.999Z</time></trkpt><trkpt lat="42.246682010394856" lon="13.664730001505506"><ele>901.0</ele><time>2026-05-03T14:53:38.999Z</time></trkpt><trkpt lat="42.24682482044769" lon="13.664818595241474"><ele>901.0</ele><time>2026-05-03T14:53:39.999Z</time></trkpt><trkpt lat="42.246962033453514" lon="13.664910466956954"><ele>901.0</ele><time>2026-05-03T14:53:40.999Z</time></trkpt><trkpt lat="42.24708572410681" lon="13.665024639383596"><ele>901.0</ele><time>2026-05-03T14:53:41.999Z</time></trkpt><trkpt lat="42.24721887882357" lon="13.66510977853348"><ele>901.0</ele><time>2026-05-03T14:53:42.999Z</time></trkpt><trkpt lat="42.2473374449477" lon="13.665230171366899"><ele>901.0</ele><time>2026-05-03T14:53:43.999Z</time></trkpt><trkpt lat="42.24744249495304" lon="13.66536850104949"><ele>900.75</ele><time>2026-05-03T14:53:44.999Z</time></trkpt><trkpt lat="42.24753375084768" lon="13.665514404019921"><ele>900.5</ele><time>2026-05-03T14:53:45.999Z</time></trkpt><trkpt lat="42.24761361574211" lon="13.665658993929258"><ele>900.25</ele><time>2026-05-03T14:53:46.999Z</time></trkpt><trkpt lat="42.247686739058054" lon="13.665817882856803"><ele>900.0</ele><time>2026-05-03T14:53:47.999Z</time></trkpt><trkpt lat="42.24771286742206" lon="13.66597931381575"><ele>898.5</ele><time>2026-05-03T14:53:48.999Z</time></trkpt><trkpt lat="42.247719698803216" lon="13.666167020771876"><ele>897.0</ele><time>2026-05-03T14:53:49.999Z</time></trkpt><trkpt lat="42.247718154073674" lon="13.666358969548016"><ele>895.5</ele><time>2026-05-03T14:53:50.999Z</time></trkpt><trkpt lat="42.24772148899229" lon="13.666560136356615"><ele>894.0</ele><time>2026-05-03T14:53:51.999Z</time></trkpt><trkpt lat="42.247737493380676" lon="13.666765098765204"><ele>890.5</ele><time>2026-05-03T14:53:52.999Z</time></trkpt><trkpt lat="42.2477673288679" lon="13.666965523009045"><ele>887.0</ele><time>2026-05-03T14:53:53.999Z</time></trkpt><trkpt lat="42.24779965530262" lon="13.667160860180024"><ele>883.5</ele><time>2026-05-03T14:53:54.999Z</time></trkpt><trkpt lat="42.24782538010639" lon="13.66734542678501"><ele>880.0</ele><time>2026-05-03T14:53:55.999Z</time></trkpt><trkpt lat="42.2478503882129" lon="13.667518205834433"><ele>880.0</ele><time>2026-05-03T14:53:56.999Z</time></trkpt><trkpt lat="42.247898160539194" lon="13.667674892823785"><ele>880.0</ele><time>2026-05-03T14:53:57.999Z</time></trkpt><trkpt lat="42.24798170915251" lon="13.667801705415114"><ele>880.0</ele><time>2026-05-03T14:53:58.999Z</time></trkpt><trkpt lat="42.24808756395471" lon="13.667913317047251"><ele>880.0</ele><time>2026-05-03T14:53:59.999Z</time></trkpt><trkpt lat="42.24819625467783" lon="13.668018941448693"><ele>880.25</ele><time>2026-05-03T14:54:00.999Z</time></trkpt><trkpt lat="42.248299548702114" lon="13.668131272205626"><ele>880.5</ele><time>2026-05-03T14:54:01.999Z</time></trkpt><trkpt lat="42.24839490322977" lon="13.668249757498902"><ele>880.75</ele><time>2026-05-03T14:54:02.999Z</time></trkpt><trkpt lat="42.248465157743034" lon="13.668393663126233"><ele>881.0</ele><time>2026-05-03T14:54:03.999Z</time></trkpt><trkpt lat="42.24854954171611" lon="13.668524436822844"><ele>877.0</ele><time>2026-05-03T14:54:04.999Z</time></trkpt><trkpt lat="42.2486178163295" lon="13.668684953897117"><ele>873.0</ele><time>2026-05-03T14:54:05.999Z</time></trkpt><trkpt lat="42.2486831445846" lon="13.668845270217059"><ele>869.0</ele><time>2026-05-03T14:54:06.999Z</time></trkpt><trkpt lat="42.24874081169281" lon="13.668989674179116"><ele>865.0</ele><time>2026-05-03T14:54:07.999Z</time></trkpt><trkpt lat="42.248795538033974" lon="13.669100838698698"><ele>865.0</ele><time>2026-05-03T14:54:08.999Z</time></trkpt><trkpt lat="42.248870843328014" lon="13.669175801450292"><ele>865.0</ele><time>2026-05-03T14:54:09.999Z</time></trkpt><trkpt lat="42.24896309130544" lon="13.669198491025115"><ele>865.0</ele><time>2026-05-03T14:54:10.999Z</time></trkpt><trkpt lat="42.24906067649607" lon="13.669177053613907"><ele>865.0</ele><time>2026-05-03T14:54:12Z</time></trkpt><trkpt lat="42.24916668673053" lon="13.669176730231168"><ele>865.0</ele><time>2026-05-03T14:54:13Z</time></trkpt><trkpt lat="42.249278184997735" lon="13.669162081139335"><ele>866.0</ele><time>2026-05-03T14:54:14Z</time></trkpt><trkpt lat="42.249396689146465" lon="13.669156502388624"><ele>867.0</ele><time>2026-05-03T14:54:15Z</time></trkpt><trkpt lat="42.24952329677767" lon="13.669150827127437"><ele>868.0</ele><time>2026-05-03T14:54:16Z</time></trkpt><trkpt lat="42.249653811243654" lon="13.669119589575535"><ele>869.0</ele><time>2026-05-03T14:54:17Z</time></trkpt><trkpt lat="42.24978968015812" lon="13.669103298722684"><ele>867.5</ele><time>2026-05-03T14:54:18Z</time></trkpt><trkpt lat="42.24992474048639" lon="13.669081947107664"><ele>866.0</ele><time>2026-05-03T14:54:19Z</time></trkpt><trkpt lat="42.25005599249326" lon="13.66906564597293"><ele>864.5</ele><time>2026-05-03T14:54:20Z</time></trkpt><trkpt lat="42.25018423096121" lon="13.669073731211727"><ele>863.0</ele><time>2026-05-03T14:54:21Z</time></trkpt><trkpt lat="42.25031085525185" lon="13.669099085474558"><ele>863.0</ele><time>2026-05-03T14:54:22Z</time></trkpt><trkpt lat="42.25043702576979" lon="13.669119928997327"><ele>863.0</ele><time>2026-05-03T14:54:23Z</time></trkpt><trkpt lat="42.25056895634069" lon="13.669136395234434"><ele>863.0</ele><time>2026-05-03T14:54:24Z</time></trkpt><trkpt lat="42.250706468928676" lon="13.669144710323447"><ele>863.0</ele><time>2026-05-03T14:54:25Z</time></trkpt><trkpt lat="42.25084867109072" lon="13.669136492328732"><ele>861.5</ele><time>2026-05-03T14:54:26Z</time></trkpt><trkpt lat="42.250992748284574" lon="13.669116602613563"><ele>860.0</ele><time>2026-05-03T14:54:27Z</time></trkpt><trkpt lat="42.25114076655983" lon="13.669086145806896"><ele>858.5</ele><time>2026-05-03T14:54:28Z</time></trkpt><trkpt lat="42.25128884855154" lon="13.66905075055863"><ele>857.0</ele><time>2026-05-03T14:54:29Z</time></trkpt><trkpt lat="42.25143453635373" lon="13.669015067760986"><ele>853.75</ele><time>2026-05-03T14:54:30Z</time></trkpt><trkpt lat="42.25157816823918" lon="13.668977956165003"><ele>850.5</ele><time>2026-05-03T14:54:31Z</time></trkpt><trkpt lat="42.25172444637843" lon="13.668952575484736"><ele>847.25</ele><time>2026-05-03T14:54:32Z</time></trkpt><trkpt lat="42.251861967498066" lon="13.668886959016378"><ele>844.0</ele><time>2026-05-03T14:54:33Z</time></trkpt><trkpt lat="42.25199416444153" lon="13.668805429018985"><ele>844.0</ele><time>2026-05-03T14:54:34Z</time></trkpt><trkpt lat="42.25212135105859" lon="13.668717000217944"><ele>844.0</ele><time>2026-05-03T14:54:35Z</time></trkpt><trkpt lat="42.25223967519965" lon="13.668626361878594"><ele>844.0</ele><time>2026-05-03T14:54:36Z</time></trkpt><trkpt lat="42.25234403605538" lon="13.66853781825479"><ele>844.0</ele><time>2026-05-03T14:54:37Z</time></trkpt><trkpt lat="42.25243371228657" lon="13.668466838265264"><ele>844.0</ele><time>2026-05-03T14:54:38Z</time></trkpt><trkpt lat="42.25250840890496" lon="13.668395927379718"><ele>844.0</ele><time>2026-05-03T14:54:39Z</time></trkpt><trkpt lat="42.25260020443693" lon="13.668401928803885"><ele>844.0</ele><time>2026-05-03T14:54:40Z</time></trkpt><trkpt lat="42.252683283947306" lon="13.66846939823287"><ele>844.0</ele><time>2026-05-03T14:54:41Z</time></trkpt><trkpt lat="42.25274365540559" lon="13.668586113021702"><ele>844.0</ele><time>2026-05-03T14:54:42Z</time></trkpt><trkpt lat="42.25277766739988" lon="13.668724691234937"><ele>844.0</ele><time>2026-05-03T14:54:43Z</time></trkpt><trkpt lat="42.25277989611688" lon="13.668867233756284"><ele>844.0</ele><time>2026-05-03T14:54:44Z</time></trkpt><trkpt lat="42.25274596409244" lon="13.669006230461612"><ele>844.0</ele><time>2026-05-03T14:54:45Z</time></trkpt><trkpt lat="42.25267410507778" lon="13.669120110027166"><ele>844.0</ele><time>2026-05-03T14:54:46Z</time></trkpt><trkpt lat="42.25258820339312" lon="13.669225435954749"><ele>844.0</ele><time>2026-05-03T14:54:47Z</time></trkpt><trkpt lat="42.25250628798562" lon="13.66934848383664"><ele>844.75</ele><time>2026-05-03T14:54:48Z</time></trkpt><trkpt lat="42.252431761789424" lon="13.66949054365293"><ele>845.5</ele><time>2026-05-03T14:54:49Z</time></trkpt><trkpt lat="42.252362068259714" lon="13.66963793545727"><ele>846.25</ele><time>2026-05-03T14:54:50Z</time></trkpt><trkpt lat="42.2522956605944" lon="13.669790937098474"><ele>847.0</ele><time>2026-05-03T14:54:51Z</time></trkpt><trkpt lat="42.25223292076638" lon="13.669944093356516"><ele>843.4000000000001</ele><time>2026-05-03T14:54:52Z</time></trkpt><trkpt lat="42.25217915955065" lon="13.670098120313465"><ele>839.8000000000001</ele><time>2026-05-03T14:54:53Z</time></trkpt><trkpt lat="42.25213265735515" lon="13.670248790669541"><ele>836.2</ele><time>2026-05-03T14:54:54Z</time></trkpt><trkpt lat="42.252095131061836" lon="13.670382484216846"><ele>832.6</ele><time>2026-05-03T14:54:55Z</time></trkpt><trkpt lat="42.252071914312545" lon="13.670498117391242"><ele>829.0</ele><time>2026-05-03T14:54:56Z</time></trkpt><trkpt lat="42.25205146067585" lon="13.670589084306936"><ele>828.8333333333333</ele><time>2026-05-03T14:54:57Z</time></trkpt><trkpt lat="42.2520274751112" lon="13.670693059992796"><ele>828.6666666666666</ele><time>2026-05-03T14:54:59Z</time></trkpt><trkpt lat="42.25199470110846" lon="13.670815113285311"><ele>828.5</ele><time>2026-05-03T14:55:01Z</time></trkpt><trkpt lat="42.251976192764815" lon="13.67090621202148"><ele>828.3333333333333</ele><time>2026-05-03T14:55:02Z</time></trkpt><trkpt lat="42.251953709436656" lon="13.671004570206298"><ele>828.1666666666666</ele><time>2026-05-03T14:55:03Z</time></trkpt><trkpt lat="42.25192978232353" lon="13.671109965470261"><ele>828.0</ele><time>2026-05-03T14:55:04Z</time></trkpt><trkpt lat="42.251918115613094" lon="13.671225079511006"><ele>828.8333333333334</ele><time>2026-05-03T14:55:05Z</time></trkpt><trkpt lat="42.25188440925451" lon="13.671331141537891"><ele>829.6666666666667</ele><time>2026-05-03T14:55:06Z</time></trkpt><trkpt lat="42.25185594764512" lon="13.67143701604007"><ele>830.5</ele><time>2026-05-03T14:55:07Z</time></trkpt><trkpt lat="42.25182463563185" lon="13.671542418723964"><ele>831.3333333333334</ele><time>2026-05-03T14:55:08Z</time></trkpt><trkpt lat="42.25179332694326" lon="13.67164319160188"><ele>832.1666666666667</ele><time>2026-05-03T14:55:09Z</time></trkpt><trkpt lat="42.25175376895097" lon="13.671759915811236"><ele>833.0</ele><time>2026-05-03T14:55:11Z</time></trkpt><trkpt lat="42.2517210250104" lon="13.671881934337637"><ele>833.3333333333334</ele><time>2026-05-03T14:55:15Z</time></trkpt><trkpt lat="42.251680823303865" lon="13.672047558399255"><ele>833.6666666666667</ele><time>2026-05-03T14:55:17Z</time></trkpt><trkpt lat="42.25165338206281" lon="13.672147649198473"><ele>834.0</ele><time>2026-05-03T14:55:18Z</time></trkpt><trkpt lat="42.25163015754821" lon="13.672249494019994"><ele>834.3333333333333</ele><time>2026-05-03T14:55:19Z</time></trkpt><trkpt lat="42.25160594689388" lon="13.672345550506433"><ele>834.6666666666666</ele><time>2026-05-03T14:55:20Z</time></trkpt><trkpt lat="42.25158005368193" lon="13.672437122378955"><ele>835.0</ele><time>2026-05-03T14:55:21Z</time></trkpt><trkpt lat="42.25155214937638" lon="13.672519327000886"><ele>835.0</ele><time>2026-05-03T14:55:22Z</time></trkpt><trkpt lat="42.251507066851524" lon="13.672666379625676"><ele>835.0</ele><time>2026-05-03T14:55:24Z</time></trkpt><trkpt lat="42.25150597878188" lon="13.67279069225066"><ele>835.0</ele><time>2026-05-03T14:55:26Z</time></trkpt><trkpt lat="42.251606475942886" lon="13.672859076607619"><ele>835.0</ele><time>2026-05-03T14:55:28Z</time></trkpt><trkpt lat="42.25167917705734" lon="13.672796343027896"><ele>835.0</ele><time>2026-05-03T14:55:29Z</time></trkpt><trkpt lat="42.25174233320718" lon="13.672749516342439"><ele>835.0</ele><time>2026-05-03T14:55:30Z</time></trkpt><trkpt lat="42.25180915435447" lon="13.672692169363"><ele>835.0</ele><time>2026-05-03T14:55:31Z</time></trkpt><trkpt lat="42.25188172625914" lon="13.67262794291859"><ele>835.0</ele><time>2026-05-03T14:55:32Z</time></trkpt><trkpt lat="42.25196029203137" lon="13.672557138364049"><ele>835.0</ele><time>2026-05-03T14:55:33Z</time></trkpt><trkpt lat="42.25204624466637" lon="13.67248119618901"><ele>835.0</ele><time>2026-05-03T14:55:34Z</time></trkpt><trkpt lat="42.25213761572072" lon="13.672398817592077"><ele>835.0</ele><time>2026-05-03T14:55:35Z</time></trkpt><trkpt lat="42.252216761932054" lon="13.672284871280267"><ele>835.0</ele><time>2026-05-03T14:55:36Z</time></trkpt><trkpt lat="42.25231640373751" lon="13.6722052435205"><ele>835.0</ele><time>2026-05-03T14:55:37Z</time></trkpt><trkpt lat="42.25241551530712" lon="13.672121326633862"><ele>835.0</ele><time>2026-05-03T14:55:38Z</time></trkpt><trkpt lat="42.25251961637547" lon="13.672026985364816"><ele>835.25</ele><time>2026-05-03T14:55:39Z</time></trkpt><trkpt lat="42.25262369233069" lon="13.671932267059029"><ele>835.5</ele><time>2026-05-03T14:55:40Z</time></trkpt><trkpt lat="42.252726169960084" lon="13.671841953192853"><ele>835.75</ele><time>2026-05-03T14:55:41Z</time></trkpt><trkpt lat="42.25284092132177" lon="13.671775667052696"><ele>836.0</ele><time>2026-05-03T14:55:42Z</time></trkpt><trkpt lat="42.25294117873414" lon="13.671684473423563"><ele>836.0</ele><time>2026-05-03T14:55:43Z</time></trkpt><trkpt lat="42.25304504093453" lon="13.671590629068385"><ele>836.0</ele><time>2026-05-03T14:55:44Z</time></trkpt><trkpt lat="42.253153414787626" lon="13.671492757348865"><ele>836.0</ele><time>2026-05-03T14:55:45Z</time></trkpt><trkpt lat="42.25326306676061" lon="13.671393744764762"><ele>836.0</ele><time>2026-05-03T14:55:46Z</time></trkpt><trkpt lat="42.25337824337141" lon="13.671284388301148"><ele>836.75</ele><time>2026-05-03T14:55:47Z</time></trkpt><trkpt lat="42.25349339472" lon="13.671173888723237"><ele>837.5</ele><time>2026-05-03T14:55:48Z</time></trkpt><trkpt lat="42.25361236510816" lon="13.671059724666668"><ele>838.25</ele><time>2026-05-03T14:55:49Z</time></trkpt><trkpt lat="42.253724452732456" lon="13.670925521696034"><ele>839.0</ele><time>2026-05-03T14:55:50Z</time></trkpt><trkpt lat="42.25385263536655" lon="13.670813587241517"><ele>830.0</ele><time>2026-05-03T14:55:51Z</time></trkpt><trkpt lat="42.25397005492649" lon="13.670696570165545"><ele>821.0</ele><time>2026-05-03T14:55:52Z</time></trkpt><trkpt lat="42.25409654825391" lon="13.670580759762695"><ele>812.0</ele><time>2026-05-03T14:55:53Z</time></trkpt><trkpt lat="42.25422257470655" lon="13.670459062094997"><ele>812.0</ele><time>2026-05-03T14:55:54Z</time></trkpt><trkpt lat="42.254345793428044" lon="13.670336228074092"><ele>812.0</ele><time>2026-05-03T14:55:55Z</time></trkpt><trkpt lat="42.25446805127746" lon="13.67021344868676"><ele>812.0</ele><time>2026-05-03T14:55:56Z</time></trkpt><trkpt lat="42.25458938181462" lon="13.670089827013843"><ele>810.6666666666667</ele><time>2026-05-03T14:55:57Z</time></trkpt><trkpt lat="42.254709564618985" lon="13.66996599241909"><ele>809.3333333333333</ele><time>2026-05-03T14:55:58Z</time></trkpt><trkpt lat="42.25483971868263" lon="13.669860245685992"><ele>808.0</ele><time>2026-05-03T14:55:59Z</time></trkpt><trkpt lat="42.254957630613475" lon="13.669733535446209"><ele>808.0</ele><time>2026-05-03T14:56:00Z</time></trkpt><trkpt lat="42.255074555130655" lon="13.669608141829011"><ele>808.0</ele><time>2026-05-03T14:56:01Z</time></trkpt><trkpt lat="42.255179928362445" lon="13.669466793012182"><ele>808.0</ele><time>2026-05-03T14:56:02Z</time></trkpt><trkpt lat="42.2552986971302" lon="13.669348067910477"><ele>808.0</ele><time>2026-05-03T14:56:03Z</time></trkpt><trkpt lat="42.25541251426308" lon="13.669231722805597"><ele>805.75</ele><time>2026-05-03T14:56:04Z</time></trkpt><trkpt lat="42.255524814084104" lon="13.669110991561103"><ele>803.5</ele><time>2026-05-03T14:56:05Z</time></trkpt><trkpt lat="42.25563203266348" lon="13.668985976310541"><ele>801.25</ele><time>2026-05-03T14:56:06Z</time></trkpt><trkpt lat="42.2557304321308" lon="13.668851873159023"><ele>799.0</ele><time>2026-05-03T14:56:06.999Z</time></trkpt><trkpt lat="42.2558110618081" lon="13.668699891534658"><ele>802.0</ele><time>2026-05-03T14:56:07.999Z</time></trkpt><trkpt lat="42.2558765193839" lon="13.668538701684867"><ele>805.0</ele><time>2026-05-03T14:56:08.999Z</time></trkpt><trkpt lat="42.255941149443494" lon="13.668378898849117"><ele>808.0</ele><time>2026-05-03T14:56:09.999Z</time></trkpt><trkpt lat="42.2560276292532" lon="13.668245171638027"><ele>811.0</ele><time>2026-05-03T14:56:10.999Z</time></trkpt><trkpt lat="42.25612238075844" lon="13.668133735637397"><ele>811.0</ele><time>2026-05-03T14:56:11.999Z</time></trkpt><trkpt lat="42.25623442179267" lon="13.668025683768697"><ele>811.0</ele><time>2026-05-03T14:56:12.999Z</time></trkpt><trkpt lat="42.25635506073231" lon="13.667908957284485"><ele>811.0</ele><time>2026-05-03T14:56:13.999Z</time></trkpt><trkpt lat="42.25647550758332" lon="13.667781294539049"><ele>811.0</ele><time>2026-05-03T14:56:14.999Z</time></trkpt><trkpt lat="42.25660261538999" lon="13.667668004660628"><ele>809.75</ele><time>2026-05-03T14:56:15.999Z</time></trkpt><trkpt lat="42.25672430066295" lon="13.667553529449757"><ele>808.5</ele><time>2026-05-03T14:56:16.999Z</time></trkpt><trkpt lat="42.25683887980919" lon="13.667436430659354"><ele>807.25</ele><time>2026-05-03T14:56:18.001Z</time></trkpt><trkpt lat="42.256941265097694" lon="13.66732297590619"><ele>806.0</ele><time>2026-05-03T14:56:19.001Z</time></trkpt><trkpt lat="42.25703162468609" lon="13.667203392817564"><ele>806.0000000000001</ele><time>2026-05-03T14:56:20.001Z</time></trkpt><trkpt lat="42.25710905223945" lon="13.667074676621551"><ele>806.0</ele><time>2026-05-03T14:56:21.001Z</time></trkpt><trkpt lat="42.25716517656516" lon="13.666960987120811"><ele>806.0</ele><time>2026-05-03T14:56:22.001Z</time></trkpt><trkpt lat="42.257208488077715" lon="13.666872011937556"><ele>806.0</ele><time>2026-05-03T14:56:23.001Z</time></trkpt><trkpt lat="42.25725819735635" lon="13.666807086499325"><ele>806.0000000000001</ele><time>2026-05-03T14:56:24.001Z</time></trkpt><trkpt lat="42.25732438504695" lon="13.666800959099803"><ele>806.0</ele><time>2026-05-03T14:56:25.001Z</time></trkpt><trkpt lat="42.25737978085853" lon="13.666897894105652"><ele>806.0</ele><time>2026-05-03T14:56:26.001Z</time></trkpt><trkpt lat="42.2573982006277" lon="13.666990951617823"><ele>806.0</ele><time>2026-05-03T14:56:27.001Z</time></trkpt><trkpt lat="42.25736987697562" lon="13.667113307808618"><ele>806.0</ele><time>2026-05-03T14:56:28.001Z</time></trkpt><trkpt lat="42.257323053487404" lon="13.66724572237151"><ele>806.0</ele><time>2026-05-03T14:56:29.001Z</time></trkpt><trkpt lat="42.25726438090061" lon="13.667388845784785"><ele>806.0</ele><time>2026-05-03T14:56:30.001Z</time></trkpt><trkpt lat="42.25720059173775" lon="13.667551313858334"><ele>806.0</ele><time>2026-05-03T14:56:31.001Z</time></trkpt><trkpt lat="42.25713448301199" lon="13.667719780107838"><ele>806.0</ele><time>2026-05-03T14:56:32.001Z</time></trkpt><trkpt lat="42.2570675737416" lon="13.667886312975478"><ele>806.0</ele><time>2026-05-03T14:56:33.001Z</time></trkpt><trkpt lat="42.25700753066725" lon="13.66806285106479"><ele>806.0</ele><time>2026-05-03T14:56:34.001Z</time></trkpt><trkpt lat="42.25696477414696" lon="13.66825687064922"><ele>801.0</ele><time>2026-05-03T14:56:35.001Z</time></trkpt><trkpt lat="42.25695210535526" lon="13.668461016843539"><ele>796.0</ele><time>2026-05-03T14:56:36.001Z</time></trkpt><trkpt lat="42.25695210523928" lon="13.668670553518366"><ele>791.0</ele><time>2026-05-03T14:56:37.001Z</time></trkpt><trkpt lat="42.25695898820694" lon="13.668874788064324"><ele>789.5</ele><time>2026-05-03T14:56:38Z</time></trkpt><trkpt lat="42.256967890292984" lon="13.669074661849827"><ele>788.0</ele><time>2026-05-03T14:56:39Z</time></trkpt><trkpt lat="42.2569757766397" lon="13.66926933835344"><ele>786.5</ele><time>2026-05-03T14:56:40Z</time></trkpt><trkpt lat="42.256986926132804" lon="13.669442203006025"><ele>785.0</ele><time>2026-05-03T14:56:41Z</time></trkpt><trkpt lat="42.25701106042533" lon="13.669596912233727"><ele>783.5</ele><time>2026-05-03T14:56:42Z</time></trkpt><trkpt lat="42.257063255552104" lon="13.669733173301681"><ele>782.0</ele><time>2026-05-03T14:56:43Z</time></trkpt><trkpt lat="42.257149261761136" lon="13.669853856106336"><ele>780.5</ele><time>2026-05-03T14:56:44Z</time></trkpt><trkpt lat="42.257261742131774" lon="13.66995972630596"><ele>779.0</ele><time>2026-05-03T14:56:45Z</time></trkpt><trkpt lat="42.2573836586113" lon="13.670063690402033"><ele>777.6666666666667</ele><time>2026-05-03T14:56:46Z</time></trkpt><trkpt lat="42.25750995749313" lon="13.67017124757757"><ele>776.3333333333333</ele><time>2026-05-03T14:56:47Z</time></trkpt><trkpt lat="42.257642538248206" lon="13.670281212709991"><ele>775.0</ele><time>2026-05-03T14:56:48Z</time></trkpt><trkpt lat="42.25777850457613" lon="13.67039627290096"><ele>773.3333333333333</ele><time>2026-05-03T14:56:49Z</time></trkpt><trkpt lat="42.25791284862356" lon="13.670516151923263"><ele>771.6666666666667</ele><time>2026-05-03T14:56:50Z</time></trkpt><trkpt lat="42.25804828557448" lon="13.670636240776469"><ele>770.0</ele><time>2026-05-03T14:56:51Z</time></trkpt><trkpt lat="42.258182617792606" lon="13.670752553539524"><ele>768.3333333333334</ele><time>2026-05-03T14:56:52Z</time></trkpt><trkpt lat="42.25831581482562" lon="13.67086734294745"><ele>766.6666666666667</ele><time>2026-05-03T14:56:53Z</time></trkpt><trkpt lat="42.25845057459642" lon="13.670980012752297"><ele>765.0</ele><time>2026-05-03T14:56:54Z</time></trkpt><trkpt lat="42.258585909168204" lon="13.67108985601027"><ele>763.6666666666666</ele><time>2026-05-03T14:56:55Z</time></trkpt><trkpt lat="42.25872577934947" lon="13.671193855063336"><ele>762.3333333333333</ele><time>2026-05-03T14:56:56Z</time></trkpt><trkpt lat="42.25886807259262" lon="13.671298796471586"><ele>761.0</ele><time>2026-05-03T14:56:57Z</time></trkpt><trkpt lat="42.259010679989665" lon="13.671405898934536"><ele>761.0</ele><time>2026-05-03T14:56:58Z</time></trkpt><trkpt lat="42.25915515159475" lon="13.671511512028724"><ele>761.0</ele><time>2026-05-03T14:56:59Z</time></trkpt><trkpt lat="42.259300529267556" lon="13.671615560798356"><ele>761.0</ele><time>2026-05-03T14:57:00Z</time></trkpt><trkpt lat="42.25944702991292" lon="13.671720081764693"><ele>761.0</ele><time>2026-05-03T14:57:01Z</time></trkpt><trkpt lat="42.25959532471746" lon="13.671825301617423"><ele>761.0</ele><time>2026-05-03T14:57:02Z</time></trkpt><trkpt lat="42.25974505769086" lon="13.671933729020965"><ele>761.0</ele><time>2026-05-03T14:57:03Z</time></trkpt><trkpt lat="42.25989735407489" lon="13.672045041500573"><ele>759.0</ele><time>2026-05-03T14:57:04Z</time></trkpt><trkpt lat="42.26005020551521" lon="13.672156585784832"><ele>757.0</ele><time>2026-05-03T14:57:05Z</time></trkpt><trkpt lat="42.26020637962599" lon="13.672271039402622"><ele>755.0</ele><time>2026-05-03T14:57:06Z</time></trkpt><trkpt lat="42.260362410676535" lon="13.67238547543289"><ele>755.0</ele><time>2026-05-03T14:57:07Z</time></trkpt><trkpt lat="42.260520786954174" lon="13.672498860765586"><ele>755.0</ele><time>2026-05-03T14:57:08Z</time></trkpt><trkpt lat="42.26067981772892" lon="13.672612496973985"><ele>755.0</ele><time>2026-05-03T14:57:09Z</time></trkpt><trkpt lat="42.260839647394334" lon="13.672731242032887"><ele>753.3333333333333</ele><time>2026-05-03T14:57:10Z</time></trkpt><trkpt lat="42.26099951519484" lon="13.672852694292109"><ele>751.6666666666666</ele><time>2026-05-03T14:57:11Z</time></trkpt><trkpt lat="42.261162314711946" lon="13.672970358225216"><ele>750.0</ele><time>2026-05-03T14:57:12Z</time></trkpt><trkpt lat="42.26132741888672" lon="13.673088494871516"><ele>749.6666666666666</ele><time>2026-05-03T14:57:13Z</time></trkpt><trkpt lat="42.26149192168025" lon="13.67320912394479"><ele>749.3333333333333</ele><time>2026-05-03T14:57:14Z</time></trkpt><trkpt lat="42.26165824862254" lon="13.673332225010634"><ele>749.0</ele><time>2026-05-03T14:57:15Z</time></trkpt><trkpt lat="42.261823655917524" lon="13.673454726393803"><ele>749.0</ele><time>2026-05-03T14:57:16Z</time></trkpt><trkpt lat="42.261991809891626" lon="13.673575991658709"><ele>749.0</ele><time>2026-05-03T14:57:17Z</time></trkpt><trkpt lat="42.26216011276955" lon="13.673696146040864"><ele>749.0</ele><time>2026-05-03T14:57:18Z</time></trkpt><trkpt lat="42.26232547395936" lon="13.673815734867874"><ele>748.3333333333333</ele><time>2026-05-03T14:57:19Z</time></trkpt><trkpt lat="42.26248648571052" lon="13.673931897672466"><ele>747.6666666666666</ele><time>2026-05-03T14:57:20Z</time></trkpt><trkpt lat="42.26264019219053" lon="13.674045242202403"><ele>747.0</ele><time>2026-05-03T14:57:21Z</time></trkpt><trkpt lat="42.26278959491736" lon="13.674148867695013"><ele>747.0</ele><time>2026-05-03T14:57:22Z</time></trkpt><trkpt lat="42.26294156163322" lon="13.67423586416774"><ele>747.0</ele><time>2026-05-03T14:57:23Z</time></trkpt><trkpt lat="42.26309746538271" lon="13.6743107583762"><ele>747.0</ele><time>2026-05-03T14:57:24Z</time></trkpt><trkpt lat="42.26325677922489" lon="13.674380921075864"><ele>747.0</ele><time>2026-05-03T14:57:25Z</time></trkpt><trkpt lat="42.26341702222603" lon="13.674447210656295"><ele>747.0</ele><time>2026-05-03T14:57:26Z</time></trkpt><trkpt lat="42.2635696161022" lon="13.674514999704373"><ele>747.0</ele><time>2026-05-03T14:57:27Z</time></trkpt><trkpt lat="42.26371424547297" lon="13.67457731973329"><ele>747.0</ele><time>2026-05-03T14:57:28Z</time></trkpt><trkpt lat="42.26383369646922" lon="13.674629586564784"><ele>747.0</ele><time>2026-05-03T14:57:29Z</time></trkpt><trkpt lat="42.26393597192285" lon="13.674676082396843"><ele>747.0</ele><time>2026-05-03T14:57:30Z</time></trkpt><trkpt lat="42.26401694005491" lon="13.674713225553758"><ele>747.0</ele><time>2026-05-03T14:57:31Z</time></trkpt><trkpt lat="42.26408187105438" lon="13.674738289453222"><ele>747.0</ele><time>2026-05-03T14:57:32Z</time></trkpt><trkpt lat="42.26419832394578" lon="13.674725415002891"><ele>746.6666666666666</ele><time>2026-05-03T14:57:34Z</time></trkpt><trkpt lat="42.264318191879184" lon="13.674650228351314"><ele>746.3333333333334</ele><time>2026-05-03T14:57:36Z</time></trkpt><trkpt lat="42.26438666656121" lon="13.674616903962363"><ele>746.0</ele><time>2026-05-03T14:57:37Z</time></trkpt><trkpt lat="42.264455996474766" lon="13.674614869307328"><ele>745.6666666666667</ele><time>2026-05-03T14:57:38Z</time></trkpt><trkpt lat="42.26452489542562" lon="13.674641702896002"><ele>745.3333333333334</ele><time>2026-05-03T14:57:39Z</time></trkpt><trkpt lat="42.264581675640954" lon="13.674692960596147"><ele>745.0</ele><time>2026-05-03T14:57:40Z</time></trkpt><trkpt lat="42.26462589568337" lon="13.67476084824887"><ele>745.0</ele><time>2026-05-03T14:57:41Z</time></trkpt><trkpt lat="42.26465992878568" lon="13.674833256552528"><ele>745.0</ele><time>2026-05-03T14:57:42Z</time></trkpt><trkpt lat="42.2646707552735" lon="13.675022642558188"><ele>745.0</ele><time>2026-05-03T14:57:44Z</time></trkpt><trkpt lat="42.26464848644698" lon="13.675136718112899"><ele>745.0</ele><time>2026-05-03T14:57:45Z</time></trkpt><trkpt lat="42.26462263323006" lon="13.675261031911656"><ele>745.0</ele><time>2026-05-03T14:57:46Z</time></trkpt><trkpt lat="42.26460927448685" lon="13.675384389756495"><ele>744.6666666666667</ele><time>2026-05-03T14:57:47Z</time></trkpt><trkpt lat="42.26461917892682" lon="13.675501056603732"><ele>744.3333333333334</ele><time>2026-05-03T14:57:48Z</time></trkpt><trkpt lat="42.264662975570644" lon="13.675595307533902"><ele>744.0</ele><time>2026-05-03T14:57:49Z</time></trkpt><trkpt lat="42.2647222557909" lon="13.67566184744175"><ele>743.6666666666666</ele><time>2026-05-03T14:57:50Z</time></trkpt><trkpt lat="42.26479622089824" lon="13.675700247804908"><ele>743.3333333333333</ele><time>2026-05-03T14:57:51Z</time></trkpt><trkpt lat="42.2648805812859" lon="13.675704365801863"><ele>743.0</ele><time>2026-05-03T14:57:52Z</time></trkpt><trkpt lat="42.2649646154974" lon="13.675672370310298"><ele>742.8</ele><time>2026-05-03T14:57:53Z</time></trkpt><trkpt lat="42.26504306390334" lon="13.675607673728118"><ele>742.5999999999999</ele><time>2026-05-03T14:57:54Z</time></trkpt><trkpt lat="42.26511788942894" lon="13.675519484327515"><ele>742.4000000000001</ele><time>2026-05-03T14:57:55Z</time></trkpt><trkpt lat="42.26519170847079" lon="13.675413234353586"><ele>742.2</ele><time>2026-05-03T14:57:56Z</time></trkpt><trkpt lat="42.26526007578459" lon="13.675291645337795"><ele>742.0</ele><time>2026-05-03T14:57:57Z</time></trkpt><trkpt lat="42.26531525120196" lon="13.675147992583142"><ele>742.0</ele><time>2026-05-03T14:57:58Z</time></trkpt><trkpt lat="42.26535834878831" lon="13.674987866956055"><ele>742.0</ele><time>2026-05-03T14:57:59Z</time></trkpt><trkpt lat="42.26540354515583" lon="13.674823602299401"><ele>742.0</ele><time>2026-05-03T14:58:00Z</time></trkpt><trkpt lat="42.2654616490138" lon="13.674663591505409"><ele>742.0</ele><time>2026-05-03T14:58:01Z</time></trkpt><trkpt lat="42.26554126838631" lon="13.674514352735672"><ele>742.0</ele><time>2026-05-03T14:58:02Z</time></trkpt><trkpt lat="42.26563856343408" lon="13.674378447488545"><ele>742.0</ele><time>2026-05-03T14:58:03Z</time></trkpt><trkpt lat="42.26574417137288" lon="13.674247684897137"><ele>742.0</ele><time>2026-05-03T14:58:04Z</time></trkpt><trkpt lat="42.26585043947592" lon="13.67411131404338"><ele>742.0</ele><time>2026-05-03T14:58:05Z</time></trkpt><trkpt lat="42.26595608259777" lon="13.673969109965093"><ele>742.0</ele><time>2026-05-03T14:58:06Z</time></trkpt><trkpt lat="42.266063264965744" lon="13.67382572447586"><ele>742.0</ele><time>2026-05-03T14:58:07Z</time></trkpt><trkpt lat="42.2661714225195" lon="13.673682565167532"><ele>742.0</ele><time>2026-05-03T14:58:08Z</time></trkpt><trkpt lat="42.26628035181238" lon="13.6735376231523"><ele>742.6666666666667</ele><time>2026-05-03T14:58:09Z</time></trkpt><trkpt lat="42.26639241613672" lon="13.673386647252267"><ele>743.3333333333334</ele><time>2026-05-03T14:58:10Z</time></trkpt><trkpt lat="42.26650631013128" lon="13.673235142151116"><ele>744.0</ele><time>2026-05-03T14:58:11Z</time></trkpt><trkpt lat="42.26662202314729" lon="13.673081135281892"><ele>744.0</ele><time>2026-05-03T14:58:12Z</time></trkpt><trkpt lat="42.2667384092529" lon="13.672925367112306"><ele>744.0</ele><time>2026-05-03T14:58:13Z</time></trkpt><trkpt lat="42.26685877333057" lon="13.672770494703492"><ele>744.0</ele><time>2026-05-03T14:58:14Z</time></trkpt><trkpt lat="42.26698238600625" lon="13.672618567791675"><ele>743.3333333333334</ele><time>2026-05-03T14:58:15Z</time></trkpt><trkpt lat="42.267107600408835" lon="13.672465166507198"><ele>742.6666666666667</ele><time>2026-05-03T14:58:16Z</time></trkpt><trkpt lat="42.267233969320195" lon="13.672311585413507"><ele>742.0</ele><time>2026-05-03T14:58:17Z</time></trkpt><trkpt lat="42.26736510719143" lon="13.672160325490577"><ele>742.0</ele><time>2026-05-03T14:58:18Z</time></trkpt><trkpt lat="42.26750040869539" lon="13.672012514941185"><ele>742.0</ele><time>2026-05-03T14:58:19Z</time></trkpt><trkpt lat="42.26763812524834" lon="13.671868189922414"><ele>742.0</ele><time>2026-05-03T14:58:20Z</time></trkpt><trkpt lat="42.267776954717824" lon="13.671723494311532"><ele>742.0</ele><time>2026-05-03T14:58:21Z</time></trkpt><trkpt lat="42.267918285068994" lon="13.671581159649078"><ele>742.0</ele><time>2026-05-03T14:58:22Z</time></trkpt><trkpt lat="42.268061822239666" lon="13.671442527523883"><ele>742.0</ele><time>2026-05-03T14:58:23Z</time></trkpt><trkpt lat="42.26820830649732" lon="13.671307714817399"><ele>741.3333333333334</ele><time>2026-05-03T14:58:24.001Z</time></trkpt><trkpt lat="42.26835438985796" lon="13.67117396183251"><ele>740.6666666666666</ele><time>2026-05-03T14:58:25.001Z</time></trkpt><trkpt lat="42.26850082379975" lon="13.6710402598324"><ele>740.0</ele><time>2026-05-03T14:58:26.001Z</time></trkpt><trkpt lat="42.268647457173536" lon="13.670905606564418"><ele>740.0</ele><time>2026-05-03T14:58:27.001Z</time></trkpt><trkpt lat="42.268794202948264" lon="13.670771990203118"><ele>740.0</ele><time>2026-05-03T14:58:28.001Z</time></trkpt><trkpt lat="42.26894025374348" lon="13.670636162167652"><ele>740.0</ele><time>2026-05-03T14:58:29.001Z</time></trkpt><trkpt lat="42.26908626814516" lon="13.670498865686728"><ele>739.6666666666666</ele><time>2026-05-03T14:58:30.001Z</time></trkpt><trkpt lat="42.26923156622614" lon="13.670360456528813"><ele>739.3333333333334</ele><time>2026-05-03T14:58:31.001Z</time></trkpt><trkpt lat="42.269375228843266" lon="13.670217748115023"><ele>739.0</ele><time>2026-05-03T14:58:32.001Z</time></trkpt><trkpt lat="42.2695187055981" lon="13.67007041778168"><ele>739.6666666666667</ele><time>2026-05-03T14:58:33.001Z</time></trkpt><trkpt lat="42.26965844996054" lon="13.66992035104457"><ele>740.3333333333334</ele><time>2026-05-03T14:58:34.001Z</time></trkpt><trkpt lat="42.26979691481813" lon="13.669770043199959"><ele>741.0</ele><time>2026-05-03T14:58:35.001Z</time></trkpt><trkpt lat="42.269934965921344" lon="13.669615701129171"><ele>740.6666666666666</ele><time>2026-05-03T14:58:36.001Z</time></trkpt><trkpt lat="42.27007057015578" lon="13.669460838515954"><ele>740.3333333333333</ele><time>2026-05-03T14:58:37.001Z</time></trkpt><trkpt lat="42.27020390511416" lon="13.669301650735186"><ele>740.0</ele><time>2026-05-03T14:58:38.001Z</time></trkpt><trkpt lat="42.27033392204829" lon="13.669134715716584"><ele>740.0</ele><time>2026-05-03T14:58:39.001Z</time></trkpt><trkpt lat="42.27046229049719" lon="13.668963382564815"><ele>740.0</ele><time>2026-05-03T14:58:40.001Z</time></trkpt><trkpt lat="42.27058945919773" lon="13.668789649438157"><ele>740.0</ele><time>2026-05-03T14:58:41.001Z</time></trkpt><trkpt lat="42.270713497291" lon="13.66861186690703"><ele>739.6666666666666</ele><time>2026-05-03T14:58:42.001Z</time></trkpt><trkpt lat="42.270834448549714" lon="13.66843192799512"><ele>739.3333333333334</ele><time>2026-05-03T14:58:43.001Z</time></trkpt><trkpt lat="42.270952023371116" lon="13.668246869121198"><ele>739.0</ele><time>2026-05-03T14:58:44.001Z</time></trkpt><trkpt lat="42.271068811023795" lon="13.668059105943184"><ele>739.0</ele><time>2026-05-03T14:58:45.001Z</time></trkpt><trkpt lat="42.271184988341055" lon="13.667869489641712"><ele>739.0</ele><time>2026-05-03T14:58:46.001Z</time></trkpt><trkpt lat="42.271299543903574" lon="13.667674762547792"><ele>739.0</ele><time>2026-05-03T14:58:47Z</time></trkpt><trkpt lat="42.2714090008674" lon="13.667474152953757"><ele>739.3333333333334</ele><time>2026-05-03T14:58:48Z</time></trkpt><trkpt lat="42.271514460565704" lon="13.667267978799153"><ele>739.6666666666666</ele><time>2026-05-03T14:58:49Z</time></trkpt><trkpt lat="42.27161674420203" lon="13.667054572278998"><ele>740.0</ele><time>2026-05-03T14:58:50Z</time></trkpt><trkpt lat="42.271717732992265" lon="13.66683812870953"><ele>740.3333333333333</ele><time>2026-05-03T14:58:51Z</time></trkpt><trkpt lat="42.2718203263" lon="13.666618469658957"><ele>740.6666666666666</ele><time>2026-05-03T14:58:52Z</time></trkpt><trkpt lat="42.27192256256858" lon="13.666396986925795"><ele>741.0</ele><time>2026-05-03T14:58:53Z</time></trkpt><trkpt lat="42.272021004037136" lon="13.666171056373008"><ele>741.0</ele><time>2026-05-03T14:58:54Z</time></trkpt><trkpt lat="42.27211516647971" lon="13.665939477824441"><ele>741.0</ele><time>2026-05-03T14:58:55Z</time></trkpt><trkpt lat="42.27221104841604" lon="13.665705781626269"><ele>741.0</ele><time>2026-05-03T14:58:56Z</time></trkpt><trkpt lat="42.27230952104963" lon="13.665473078120757"><ele>741.3333333333334</ele><time>2026-05-03T14:58:57Z</time></trkpt><trkpt lat="42.27241012936792" lon="13.665242410391512"><ele>741.6666666666667</ele><time>2026-05-03T14:58:58Z</time></trkpt><trkpt lat="42.27251209371634" lon="13.665010752034094"><ele>742.0</ele><time>2026-05-03T14:58:59Z</time></trkpt><trkpt lat="42.272615399427856" lon="13.664782362982466"><ele>742.0</ele><time>2026-05-03T14:59:00Z</time></trkpt><trkpt lat="42.27272208167299" lon="13.664558610124192"><ele>742.0</ele><time>2026-05-03T14:59:01Z</time></trkpt><trkpt lat="42.27283397703406" lon="13.664338361444681"><ele>742.0</ele><time>2026-05-03T14:59:02Z</time></trkpt><trkpt lat="42.27295134251493" lon="13.664123932996528"><ele>742.0</ele><time>2026-05-03T14:59:03Z</time></trkpt><trkpt lat="42.273071874253326" lon="13.663912863502484"><ele>742.0</ele><time>2026-05-03T14:59:04Z</time></trkpt><trkpt lat="42.27319719138927" lon="13.663704818765423"><ele>742.0</ele><time>2026-05-03T14:59:05Z</time></trkpt><trkpt lat="42.273325348189005" lon="13.663498929742692"><ele>742.0</ele><time>2026-05-03T14:59:06Z</time></trkpt><trkpt lat="42.273456119576274" lon="13.663293831109696"><ele>742.0</ele><time>2026-05-03T14:59:07Z</time></trkpt><trkpt lat="42.27359203514379" lon="13.663092658299503"><ele>742.0</ele><time>2026-05-03T14:59:08Z</time></trkpt><trkpt lat="42.273731770148686" lon="13.662896290717294"><ele>742.3333333333334</ele><time>2026-05-03T14:59:09Z</time></trkpt><trkpt lat="42.27387728925127" lon="13.66270479695696"><ele>742.6666666666666</ele><time>2026-05-03T14:59:10Z</time></trkpt><trkpt lat="42.27402604467984" lon="13.662520847757902"><ele>743.0</ele><time>2026-05-03T14:59:11Z</time></trkpt><trkpt lat="42.274176471653554" lon="13.662339696003714"><ele>743.0</ele><time>2026-05-03T14:59:12Z</time></trkpt><trkpt lat="42.27432830929545" lon="13.662163710389851"><ele>743.0</ele><time>2026-05-03T14:59:13Z</time></trkpt><trkpt lat="42.274480527604815" lon="13.66199217798377"><ele>743.0</ele><time>2026-05-03T14:59:14Z</time></trkpt><trkpt lat="42.27463427926889" lon="13.661828174435191"><ele>742.6666666666666</ele><time>2026-05-03T14:59:15Z</time></trkpt><trkpt lat="42.2747891269754" lon="13.661665218959577"><ele>742.3333333333334</ele><time>2026-05-03T14:59:16Z</time></trkpt><trkpt lat="42.27494520662066" lon="13.661506294784923"><ele>742.0</ele><time>2026-05-03T14:59:17Z</time></trkpt><trkpt lat="42.275101474808984" lon="13.661348254928214"><ele>742.0</ele><time>2026-05-03T14:59:18Z</time></trkpt><trkpt lat="42.27525621484499" lon="13.661193644309035"><ele>742.0</ele><time>2026-05-03T14:59:19Z</time></trkpt><trkpt lat="42.27541003972571" lon="13.661042125406299"><ele>742.0</ele><time>2026-05-03T14:59:20Z</time></trkpt><trkpt lat="42.275561689905075" lon="13.660888966057271"><ele>742.6666666666667</ele><time>2026-05-03T14:59:21Z</time></trkpt><trkpt lat="42.2757136101883" lon="13.660733851417508"><ele>743.3333333333334</ele><time>2026-05-03T14:59:22Z</time></trkpt><trkpt lat="42.275862309929" lon="13.660576794643529"><ele>744.0</ele><time>2026-05-03T14:59:23Z</time></trkpt><trkpt lat="42.27601002083356" lon="13.660416274792073"><ele>744.0</ele><time>2026-05-03T14:59:24Z</time></trkpt><trkpt lat="42.276156502846504" lon="13.660253307162163"><ele>744.0</ele><time>2026-05-03T14:59:25Z</time></trkpt><trkpt lat="42.276300363610524" lon="13.660084017119365"><ele>744.0</ele><time>2026-05-03T14:59:26Z</time></trkpt><trkpt lat="42.27644195263849" lon="13.65990796151622"><ele>744.0</ele><time>2026-05-03T14:59:27Z</time></trkpt><trkpt lat="42.27658371352912" lon="13.65973131340073"><ele>744.0</ele><time>2026-05-03T14:59:28Z</time></trkpt><trkpt lat="42.2767232306116" lon="13.659550198517904"><ele>744.0</ele><time>2026-05-03T14:59:29Z</time></trkpt><trkpt lat="42.276861398641174" lon="13.65936662957164"><ele>744.6666666666666</ele><time>2026-05-03T14:59:30Z</time></trkpt><trkpt lat="42.27699993324164" lon="13.659184428720767"><ele>745.3333333333333</ele><time>2026-05-03T14:59:31Z</time></trkpt><trkpt lat="42.27713703970837" lon="13.658999957298514"><ele>746.0</ele><time>2026-05-03T14:59:32Z</time></trkpt><trkpt lat="42.27727409606431" lon="13.65881682709997"><ele>746.0</ele><time>2026-05-03T14:59:33Z</time></trkpt><trkpt lat="42.277413974002236" lon="13.658634791382074"><ele>746.0</ele><time>2026-05-03T14:59:34Z</time></trkpt><trkpt lat="42.27754945630619" lon="13.658450065920107"><ele>746.0</ele><time>2026-05-03T14:59:35Z</time></trkpt><trkpt lat="42.27768690325102" lon="13.658265680942165"><ele>746.6666666666666</ele><time>2026-05-03T14:59:36Z</time></trkpt><trkpt lat="42.27782468655698" lon="13.658083875688689"><ele>747.3333333333334</ele><time>2026-05-03T14:59:37Z</time></trkpt><trkpt lat="42.27796597466961" lon="13.657902727082872"><ele>748.0</ele><time>2026-05-03T14:59:38Z</time></trkpt><trkpt lat="42.27810392761352" lon="13.65771926079084"><ele>750.0</ele><time>2026-05-03T14:59:39Z</time></trkpt><trkpt lat="42.27824117388816" lon="13.657537711778883"><ele>752.0</ele><time>2026-05-03T14:59:40Z</time></trkpt><trkpt lat="42.27837805137002" lon="13.657357108000406"><ele>754.0</ele><time>2026-05-03T14:59:41Z</time></trkpt><trkpt lat="42.27851451419874" lon="13.65717837522823"><ele>754.0</ele><time>2026-05-03T14:59:42Z</time></trkpt><trkpt lat="42.27864855916969" lon="13.656999526742101"><ele>754.0</ele><time>2026-05-03T14:59:43Z</time></trkpt><trkpt lat="42.27878319242708" lon="13.656820661902165"><ele>754.0</ele><time>2026-05-03T14:59:44Z</time></trkpt><trkpt lat="42.27891571079254" lon="13.656642329080952"><ele>753.6666666666667</ele><time>2026-05-03T14:59:45Z</time></trkpt><trkpt lat="42.279044853682386" lon="13.65646455720109"><ele>753.3333333333334</ele><time>2026-05-03T14:59:46Z</time></trkpt><trkpt lat="42.279174413761005" lon="13.65628714797535"><ele>753.0</ele><time>2026-05-03T14:59:47Z</time></trkpt><trkpt lat="42.2793043387039" lon="13.65611396392901"><ele>753.0</ele><time>2026-05-03T14:59:48Z</time></trkpt><trkpt lat="42.279433910853086" lon="13.655943018451563"><ele>753.0</ele><time>2026-05-03T14:59:49Z</time></trkpt><trkpt lat="42.27956396778717" lon="13.655773781884982"><ele>753.0</ele><time>2026-05-03T14:59:50Z</time></trkpt><trkpt lat="42.27969017609254" lon="13.655597789470013"><ele>753.0</ele><time>2026-05-03T14:59:51Z</time></trkpt><trkpt lat="42.27981409587118" lon="13.655422782419345"><ele>753.0</ele><time>2026-05-03T14:59:52Z</time></trkpt><trkpt lat="42.2799377783352" lon="13.655244664554807"><ele>753.0</ele><time>2026-05-03T14:59:53Z</time></trkpt><trkpt lat="42.28005563714988" lon="13.655061164600431"><ele>753.0</ele><time>2026-05-03T14:59:54Z</time></trkpt><trkpt lat="42.28017536499287" lon="13.654880241102171"><ele>753.0</ele><time>2026-05-03T14:59:55Z</time></trkpt><trkpt lat="42.280298357918845" lon="13.654698759442748"><ele>753.0</ele><time>2026-05-03T14:59:56Z</time></trkpt><trkpt lat="42.28042344649949" lon="13.65451560371084"><ele>751.6666666666666</ele><time>2026-05-03T14:59:57Z</time></trkpt><trkpt lat="42.28054869755132" lon="13.65433857214403"><ele>750.3333333333333</ele><time>2026-05-03T14:59:58Z</time></trkpt><trkpt lat="42.28067600197311" lon="13.654159146149572"><ele>749.0</ele><time>2026-05-03T14:59:59Z</time></trkpt><trkpt lat="42.280803681282535" lon="13.653982783345379"><ele>749.0</ele><time>2026-05-03T15:00:00Z</time></trkpt><trkpt lat="42.28093403240674" lon="13.653805291460909"><ele>749.0</ele><time>2026-05-03T15:00:01Z</time></trkpt><trkpt lat="42.28106446783511" lon="13.653629592148551"><ele>749.0</ele><time>2026-05-03T15:00:02Z</time></trkpt><trkpt lat="42.28119711846374" lon="13.653456841815904"><ele>749.3333333333333</ele><time>2026-05-03T15:00:03Z</time></trkpt><trkpt lat="42.281330256799315" lon="13.653281059750045"><ele>749.6666666666666</ele><time>2026-05-03T15:00:04Z</time></trkpt><trkpt lat="42.281462444025756" lon="13.653101287224915"><ele>750.0</ele><time>2026-05-03T15:00:05Z</time></trkpt><trkpt lat="42.281595631958815" lon="13.65291941843185"><ele>751.3333333333334</ele><time>2026-05-03T15:00:06Z</time></trkpt><trkpt lat="42.28172685083655" lon="13.65274018300904"><ele>752.6666666666667</ele><time>2026-05-03T15:00:06.999Z</time></trkpt><trkpt lat="42.281861559526554" lon="13.652559051647652"><ele>754.0</ele><time>2026-05-03T15:00:07.999Z</time></trkpt><trkpt lat="42.28199516359067" lon="13.65238066909777"><ele>754.0</ele><time>2026-05-03T15:00:08.999Z</time></trkpt><trkpt lat="42.2821314804745" lon="13.652198642280661"><ele>754.0</ele><time>2026-05-03T15:00:09.999Z</time></trkpt><trkpt lat="42.28226840280738" lon="13.652020423050418"><ele>754.0</ele><time>2026-05-03T15:00:10.999Z</time></trkpt><trkpt lat="42.282405282753444" lon="13.651838391766361"><ele>754.3333333333334</ele><time>2026-05-03T15:00:11.999Z</time></trkpt><trkpt lat="42.28254088818972" lon="13.651653975400029"><ele>754.6666666666666</ele><time>2026-05-03T15:00:12.999Z</time></trkpt><trkpt lat="42.28267484818306" lon="13.651471620783271"><ele>755.0</ele><time>2026-05-03T15:00:13.999Z</time></trkpt><trkpt lat="42.28280851580417" lon="13.651290651381478"><ele>755.0</ele><time>2026-05-03T15:00:14.999Z</time></trkpt><trkpt lat="42.2829432748419" lon="13.65111170413998"><ele>755.0</ele><time>2026-05-03T15:00:15.999Z</time></trkpt><trkpt lat="42.283077305666275" lon="13.650928122378936"><ele>755.0</ele><time>2026-05-03T15:00:16.999Z</time></trkpt><trkpt lat="42.28321300940658" lon="13.650749308400625"><ele>755.3333333333333</ele><time>2026-05-03T15:00:17.999Z</time></trkpt><trkpt lat="42.283348186675425" lon="13.650572939397891"><ele>755.6666666666666</ele><time>2026-05-03T15:00:18.999Z</time></trkpt><trkpt lat="42.28348611844306" lon="13.65039539543134"><ele>756.0</ele><time>2026-05-03T15:00:19.999Z</time></trkpt><trkpt lat="42.283624492145606" lon="13.650223207239117"><ele>756.0</ele><time>2026-05-03T15:00:20.999Z</time></trkpt><trkpt lat="42.28376665374048" lon="13.650053941809722"><ele>756.0</ele><time>2026-05-03T15:00:21.999Z</time></trkpt><trkpt lat="42.283910095570796" lon="13.649881995306417"><ele>756.0</ele><time>2026-05-03T15:00:22.999Z</time></trkpt><trkpt lat="42.28405232363963" lon="13.649711490948839"><ele>757.0</ele><time>2026-05-03T15:00:23.999Z</time></trkpt><trkpt lat="42.28419419399758" lon="13.649540758209339"><ele>758.0</ele><time>2026-05-03T15:00:24.999Z</time></trkpt><trkpt lat="42.28433888065504" lon="13.64936494523923"><ele>759.0</ele><time>2026-05-03T15:00:25.999Z</time></trkpt><trkpt lat="42.28448099996397" lon="13.649190917352138"><ele>759.0</ele><time>2026-05-03T15:00:26.999Z</time></trkpt><trkpt lat="42.284621818049274" lon="13.649012440887777"><ele>759.0</ele><time>2026-05-03T15:00:27.999Z</time></trkpt><trkpt lat="42.284759998488425" lon="13.64883255898739"><ele>759.0</ele><time>2026-05-03T15:00:28.999Z</time></trkpt><trkpt lat="42.284900401430974" lon="13.648650409584068"><ele>759.3333333333334</ele><time>2026-05-03T15:00:30.001Z</time></trkpt><trkpt lat="42.285040299948996" lon="13.648468443531344"><ele>759.6666666666667</ele><time>2026-05-03T15:00:31.001Z</time></trkpt><trkpt lat="42.28517671782304" lon="13.648285829710712"><ele>760.0</ele><time>2026-05-03T15:00:32.001Z</time></trkpt><trkpt lat="42.285314087980346" lon="13.648099194096693"><ele>760.0</ele><time>2026-05-03T15:00:33.001Z</time></trkpt><trkpt lat="42.28545364167874" lon="13.647914281497703"><ele>760.0</ele><time>2026-05-03T15:00:34.001Z</time></trkpt><trkpt lat="42.2855916622945" lon="13.647728314348889"><ele>760.0</ele><time>2026-05-03T15:00:35.001Z</time></trkpt><trkpt lat="42.28573060021246" lon="13.64754301523734"><ele>761.3333333333334</ele><time>2026-05-03T15:00:36.001Z</time></trkpt><trkpt lat="42.28587008163123" lon="13.647358981353745"><ele>762.6666666666666</ele><time>2026-05-03T15:00:37.001Z</time></trkpt><trkpt lat="42.286012443534574" lon="13.647173135504746"><ele>764.0</ele><time>2026-05-03T15:00:38.001Z</time></trkpt><trkpt lat="42.28615156176307" lon="13.646987402865266"><ele>764.0</ele><time>2026-05-03T15:00:39.001Z</time></trkpt><trkpt lat="42.286290752991995" lon="13.646801431603578"><ele>764.0</ele><time>2026-05-03T15:00:40.001Z</time></trkpt><trkpt lat="42.286410080708116" lon="13.64661643028604"><ele>764.0</ele><time>2026-05-03T15:00:41.001Z</time></trkpt><trkpt lat="42.2865795168274" lon="13.646432831169715"><ele>765.6666666666666</ele><time>2026-05-03T15:00:42.001Z</time></trkpt><trkpt lat="42.286725709774146" lon="13.64625120115918"><ele>767.3333333333333</ele><time>2026-05-03T15:00:43.001Z</time></trkpt><trkpt lat="42.286869483349385" lon="13.646061577155521"><ele>769.0</ele><time>2026-05-03T15:00:44.001Z</time></trkpt><trkpt lat="42.28701267310362" lon="13.64586745442361"><ele>769.0</ele><time>2026-05-03T15:00:45.001Z</time></trkpt><trkpt lat="42.28715872727471" lon="13.64567020439965"><ele>769.0</ele><time>2026-05-03T15:00:46.001Z</time></trkpt><trkpt lat="42.28730737983909" lon="13.64547466111365"><ele>769.0</ele><time>2026-05-03T15:00:47.001Z</time></trkpt><trkpt lat="42.28745598168549" lon="13.645277581110104"><ele>771.3333333333333</ele><time>2026-05-03T15:00:48.001Z</time></trkpt><trkpt lat="42.28760427874883" lon="13.645075752654598"><ele>773.6666666666667</ele><time>2026-05-03T15:00:49Z</time></trkpt><trkpt lat="42.28774727695597" lon="13.64487610189389"><ele>776.0</ele><time>2026-05-03T15:00:50Z</time></trkpt><trkpt lat="42.28790937320158" lon="13.644674350075103"><ele>775.6666666666667</ele><time>2026-05-03T15:00:51Z</time></trkpt><trkpt lat="42.28805601447865" lon="13.644459627545478"><ele>775.3333333333333</ele><time>2026-05-03T15:00:52Z</time></trkpt><trkpt lat="42.288202012959374" lon="13.64425449274681"><ele>775.0</ele><time>2026-05-03T15:00:53Z</time></trkpt><trkpt lat="42.288346228527196" lon="13.644057836921535"><ele>775.0</ele><time>2026-05-03T15:00:54Z</time></trkpt><trkpt lat="42.28849073881254" lon="13.643856320703737"><ele>775.0</ele><time>2026-05-03T15:00:55Z</time></trkpt><trkpt lat="42.288645143740716" lon="13.643648016727896"><ele>775.0</ele><time>2026-05-03T15:00:56Z</time></trkpt><trkpt lat="42.28879035363178" lon="13.643455337860225"><ele>775.6666666666666</ele><time>2026-05-03T15:00:57Z</time></trkpt><trkpt lat="42.28893697520777" lon="13.643256050395106"><ele>776.3333333333333</ele><time>2026-05-03T15:00:58Z</time></trkpt><trkpt lat="42.28908163963036" lon="13.643057692704033"><ele>777.0</ele><time>2026-05-03T15:00:59Z</time></trkpt><trkpt lat="42.289224542740506" lon="13.64286410758973"><ele>777.0</ele><time>2026-05-03T15:01:00Z</time></trkpt><trkpt lat="42.28936812404964" lon="13.642671116136626"><ele>777.0</ele><time>2026-05-03T15:01:01Z</time></trkpt><trkpt lat="42.28951140009215" lon="13.642478698036845"><ele>777.0</ele><time>2026-05-03T15:01:02Z</time></trkpt><trkpt lat="42.28965255146562" lon="13.642284462053514"><ele>778.0</ele><time>2026-05-03T15:01:03Z</time></trkpt><trkpt lat="42.289791938432195" lon="13.642089646619592"><ele>779.0</ele><time>2026-05-03T15:01:04Z</time></trkpt><trkpt lat="42.289928366172184" lon="13.641891078766228"><ele>780.0</ele><time>2026-05-03T15:01:05Z</time></trkpt><trkpt lat="42.29006522102705" lon="13.64169511235894"><ele>780.0</ele><time>2026-05-03T15:01:06Z</time></trkpt><trkpt lat="42.290201764238205" lon="13.641497147274096"><ele>780.0</ele><time>2026-05-03T15:01:07Z</time></trkpt><trkpt lat="42.290338723566315" lon="13.641303658110687"><ele>780.0</ele><time>2026-05-03T15:01:08Z</time></trkpt><trkpt lat="42.29047552044316" lon="13.641110116887047"><ele>780.0</ele><time>2026-05-03T15:01:09Z</time></trkpt><trkpt lat="42.29061250532625" lon="13.640915143853432"><ele>780.0</ele><time>2026-05-03T15:01:10Z</time></trkpt><trkpt lat="42.29074804346363" lon="13.640723946735083"><ele>780.0</ele><time>2026-05-03T15:01:11Z</time></trkpt><trkpt lat="42.29088021387778" lon="13.640531779682643"><ele>780.0</ele><time>2026-05-03T15:01:12Z</time></trkpt><trkpt lat="42.29101137914982" lon="13.640341341386023"><ele>780.0</ele><time>2026-05-03T15:01:13Z</time></trkpt><trkpt lat="42.29114708709524" lon="13.640153386829605"><ele>780.0</ele><time>2026-05-03T15:01:14Z</time></trkpt><trkpt lat="42.291284214920765" lon="13.639964624069464"><ele>779.6666666666667</ele><time>2026-05-03T15:01:15Z</time></trkpt><trkpt lat="42.29141921001853" lon="13.639773808879761"><ele>779.3333333333334</ele><time>2026-05-03T15:01:16Z</time></trkpt><trkpt lat="42.29155262551118" lon="13.639580166360028"><ele>779.0</ele><time>2026-05-03T15:01:17Z</time></trkpt><trkpt lat="42.291688671319385" lon="13.639391251372297"><ele>779.0</ele><time>2026-05-03T15:01:18Z</time></trkpt><trkpt lat="42.291823131742305" lon="13.639197952841588"><ele>779.0</ele><time>2026-05-03T15:01:19Z</time></trkpt><trkpt lat="42.291955969418495" lon="13.639004122058244"><ele>779.0</ele><time>2026-05-03T15:01:20Z</time></trkpt><trkpt lat="42.29208960856637" lon="13.63881295611756"><ele>778.6666666666667</ele><time>2026-05-03T15:01:21Z</time></trkpt><trkpt lat="42.29222220369083" lon="13.638623026194775"><ele>778.3333333333333</ele><time>2026-05-03T15:01:22Z</time></trkpt><trkpt lat="42.29235679044101" lon="13.638432654787032"><ele>778.0</ele><time>2026-05-03T15:01:23Z</time></trkpt><trkpt lat="42.29248934885349" lon="13.638246786626738"><ele>779.3333333333333</ele><time>2026-05-03T15:01:24Z</time></trkpt><trkpt lat="42.29262308936138" lon="13.638058640307658"><ele>780.6666666666667</ele><time>2026-05-03T15:01:25Z</time></trkpt><trkpt lat="42.29275951076635" lon="13.637872498129639"><ele>782.0</ele><time>2026-05-03T15:01:26Z</time></trkpt><trkpt lat="42.29289497508013" lon="13.637683152586614"><ele>782.3333333333334</ele><time>2026-05-03T15:01:27Z</time></trkpt><trkpt lat="42.29303033768707" lon="13.637494586464484"><ele>782.6666666666667</ele><time>2026-05-03T15:01:28Z</time></trkpt><trkpt lat="42.293165870612306" lon="13.637307338244948"><ele>783.0</ele><time>2026-05-03T15:01:29Z</time></trkpt><trkpt lat="42.293301670315216" lon="13.637118353727768"><ele>784.0</ele><time>2026-05-03T15:01:30Z</time></trkpt><trkpt lat="42.293437329434184" lon="13.63692819570916"><ele>785.0</ele><time>2026-05-03T15:01:31Z</time></trkpt><trkpt lat="42.293573465999415" lon="13.636738606734827"><ele>786.0</ele><time>2026-05-03T15:01:32Z</time></trkpt><trkpt lat="42.29371037681419" lon="13.636553351838337"><ele>786.0</ele><time>2026-05-03T15:01:33Z</time></trkpt><trkpt lat="42.29384918821832" lon="13.636368341058796"><ele>786.0</ele><time>2026-05-03T15:01:34Z</time></trkpt><trkpt lat="42.293985630000535" lon="13.636176162659156"><ele>786.0</ele><time>2026-05-03T15:01:35Z</time></trkpt><trkpt lat="42.29412444968173" lon="13.635985603540494"><ele>787.0</ele><time>2026-05-03T15:01:36Z</time></trkpt><trkpt lat="42.2942651730657" lon="13.635796341148897"><ele>788.0</ele><time>2026-05-03T15:01:37Z</time></trkpt><trkpt lat="42.29440610326693" lon="13.635608409691372"><ele>789.0</ele><time>2026-05-03T15:01:38Z</time></trkpt><trkpt lat="42.29454566692888" lon="13.6354193747389"><ele>790.3333333333333</ele><time>2026-05-03T15:01:39Z</time></trkpt><trkpt lat="42.294686772575126" lon="13.635233037220233"><ele>791.6666666666666</ele><time>2026-05-03T15:01:40Z</time></trkpt><trkpt lat="42.29482566102863" lon="13.635045230791691"><ele>793.0</ele><time>2026-05-03T15:01:41Z</time></trkpt><trkpt lat="42.29496405604897" lon="13.63485592709535"><ele>793.0</ele><time>2026-05-03T15:01:42Z</time></trkpt><trkpt lat="42.29510230472753" lon="13.634668587655602"><ele>793.0</ele><time>2026-05-03T15:01:43Z</time></trkpt><trkpt lat="42.29523672722864" lon="13.634481697435598"><ele>793.0</ele><time>2026-05-03T15:01:44Z</time></trkpt><trkpt lat="42.295369199899525" lon="13.63429570093845"><ele>794.6666666666666</ele><time>2026-05-03T15:01:45Z</time></trkpt><trkpt lat="42.29549916418491" lon="13.634109929870137"><ele>796.3333333333333</ele><time>2026-05-03T15:01:46Z</time></trkpt><trkpt lat="42.29562757570525" lon="13.633931586100891"><ele>798.0</ele><time>2026-05-03T15:01:47Z</time></trkpt><trkpt lat="42.29575332038637" lon="13.633756797807747"><ele>801.3333333333333</ele><time>2026-05-03T15:01:48Z</time></trkpt><trkpt lat="42.29587803676756" lon="13.633587467659847"><ele>804.6666666666666</ele><time>2026-05-03T15:01:49Z</time></trkpt><trkpt lat="42.296001144825354" lon="13.633418515760823"><ele>808.0</ele><time>2026-05-03T15:01:50Z</time></trkpt><trkpt lat="42.29612403143041" lon="13.633251221467619"><ele>808.0</ele><time>2026-05-03T15:01:51Z</time></trkpt><trkpt lat="42.29624763022591" lon="13.633083990619333"><ele>808.0</ele><time>2026-05-03T15:01:52Z</time></trkpt><trkpt lat="42.296368904155855" lon="13.632916987255552"><ele>808.0</ele><time>2026-05-03T15:01:53Z</time></trkpt><trkpt lat="42.29648993924264" lon="13.63274728840436"><ele>808.3333333333333</ele><time>2026-05-03T15:01:53.999Z</time></trkpt><trkpt lat="42.296610393088336" lon="13.632580208277886"><ele>808.6666666666667</ele><time>2026-05-03T15:01:54.999Z</time></trkpt><trkpt lat="42.29673540710063" lon="13.632412954059687"><ele>809.0</ele><time>2026-05-03T15:01:55.999Z</time></trkpt><trkpt lat="42.296859566782906" lon="13.632244854515626"><ele>809.0</ele><time>2026-05-03T15:01:56.999Z</time></trkpt><trkpt lat="42.296980935841134" lon="13.632070859242361"><ele>809.0</ele><time>2026-05-03T15:01:57.999Z</time></trkpt><trkpt lat="42.29710445674036" lon="13.631894095188533"><ele>809.0</ele><time>2026-05-03T15:01:58.999Z</time></trkpt><trkpt lat="42.297227824884516" lon="13.631719304919432"><ele>809.3333333333334</ele><time>2026-05-03T15:01:59.999Z</time></trkpt><trkpt lat="42.29735411970161" lon="13.631545002378445"><ele>809.6666666666667</ele><time>2026-05-03T15:02:00.999Z</time></trkpt><trkpt lat="42.29748153623582" lon="13.631371623488285"><ele>810.0</ele><time>2026-05-03T15:02:01.999Z</time></trkpt><trkpt lat="42.297609676133526" lon="13.631197071531336"><ele>810.6666666666667</ele><time>2026-05-03T15:02:02.999Z</time></trkpt><trkpt lat="42.297737016093805" lon="13.631021603898633"><ele>811.3333333333334</ele><time>2026-05-03T15:02:03.999Z</time></trkpt><trkpt lat="42.29786159030421" lon="13.630843589052908"><ele>812.0</ele><time>2026-05-03T15:02:04.999Z</time></trkpt><trkpt lat="42.29798417393993" lon="13.63066371619776"><ele>813.0</ele><time>2026-05-03T15:02:05.999Z</time></trkpt><trkpt lat="42.29810011575803" lon="13.630477605195475"><ele>814.0</ele><time>2026-05-03T15:02:06.999Z</time></trkpt><trkpt lat="42.29820706566962" lon="13.63028087308275"><ele>815.0</ele><time>2026-05-03T15:02:07.999Z</time></trkpt><trkpt lat="42.29830453806512" lon="13.630077475461919"><ele>815.0</ele><time>2026-05-03T15:02:08.999Z</time></trkpt><trkpt lat="42.298398155530364" lon="13.629873845280207"><ele>815.0</ele><time>2026-05-03T15:02:09.999Z</time></trkpt><trkpt lat="42.29848288976287" lon="13.62967113324719"><ele>815.0</ele><time>2026-05-03T15:02:10.999Z</time></trkpt><trkpt lat="42.29855835585501" lon="13.629462230192711"><ele>816.0</ele><time>2026-05-03T15:02:11.999Z</time></trkpt><trkpt lat="42.298623799496866" lon="13.62924812609288"><ele>817.0</ele><time>2026-05-03T15:02:12.999Z</time></trkpt><trkpt lat="42.29867951500901" lon="13.62902666030914"><ele>818.0</ele><time>2026-05-03T15:02:13.999Z</time></trkpt><trkpt lat="42.29873443708851" lon="13.628801994885736"><ele>818.0</ele><time>2026-05-03T15:02:14.999Z</time></trkpt><trkpt lat="42.29879541868888" lon="13.628580837600328"><ele>818.0</ele><time>2026-05-03T15:02:15.999Z</time></trkpt><trkpt lat="42.298849856048214" lon="13.628355834905928"><ele>818.0</ele><time>2026-05-03T15:02:16.999Z</time></trkpt><trkpt lat="42.29890427743349" lon="13.628129330681421"><ele>817.0</ele><time>2026-05-03T15:02:17.999Z</time></trkpt><trkpt lat="42.298956970283754" lon="13.627902802409242"><ele>816.0</ele><time>2026-05-03T15:02:18.999Z</time></trkpt><trkpt lat="42.299012390199664" lon="13.627688164332785"><ele>815.0</ele><time>2026-05-03T15:02:19.999Z</time></trkpt><trkpt lat="42.2990687153003" lon="13.627465866795365"><ele>815.0</ele><time>2026-05-03T15:02:20.999Z</time></trkpt><trkpt lat="42.29912821615611" lon="13.627254676368338"><ele>815.0</ele><time>2026-05-03T15:02:21.999Z</time></trkpt><trkpt lat="42.29918272882659" lon="13.62704247050288"><ele>815.0</ele><time>2026-05-03T15:02:22.999Z</time></trkpt><trkpt lat="42.29923038379559" lon="13.626840635961123"><ele>816.3333333333334</ele><time>2026-05-03T15:02:23.999Z</time></trkpt><trkpt lat="42.299280090358586" lon="13.626632967667218"><ele>817.6666666666667</ele><time>2026-05-03T15:02:24.999Z</time></trkpt><trkpt lat="42.29933480623044" lon="13.626424300717257"><ele>819.0</ele><time>2026-05-03T15:02:25.999Z</time></trkpt><trkpt lat="42.29939521261785" lon="13.62621718138979"><ele>819.6666666666667</ele><time>2026-05-03T15:02:26.999Z</time></trkpt><trkpt lat="42.2994574797768" lon="13.62601345746808"><ele>820.3333333333334</ele><time>2026-05-03T15:02:27.999Z</time></trkpt><trkpt lat="42.29952169670633" lon="13.625813672157204"><ele>821.0</ele><time>2026-05-03T15:02:28.999Z</time></trkpt><trkpt lat="42.29959148882159" lon="13.625613187465824"><ele>821.0</ele><time>2026-05-03T15:02:29.999Z</time></trkpt><trkpt lat="42.29966667355797" lon="13.625418173194054"><ele>821.0</ele><time>2026-05-03T15:02:30.999Z</time></trkpt><trkpt lat="42.299746416389056" lon="13.62522708634274"><ele>821.0</ele><time>2026-05-03T15:02:31.999Z</time></trkpt><trkpt lat="42.299827467384524" lon="13.625037735527982"><ele>821.0</ele><time>2026-05-03T15:02:32.999Z</time></trkpt><trkpt lat="42.29991049192262" lon="13.624849762676886"><ele>821.0</ele><time>2026-05-03T15:02:33.999Z</time></trkpt><trkpt lat="42.299993586625426" lon="13.624659049281767"><ele>821.0</ele><time>2026-05-03T15:02:34.999Z</time></trkpt><trkpt lat="42.300082481556295" lon="13.624466005096757"><ele>821.0</ele><time>2026-05-03T15:02:36.001Z</time></trkpt><trkpt lat="42.30017393458579" lon="13.62427639833625"><ele>821.0</ele><time>2026-05-03T15:02:37.001Z</time></trkpt><trkpt lat="42.3002695786858" lon="13.624093101312292"><ele>821.0</ele><time>2026-05-03T15:02:38.001Z</time></trkpt><trkpt lat="42.30037074164244" lon="13.62391491423639"><ele>821.0</ele><time>2026-05-03T15:02:39.001Z</time></trkpt><trkpt lat="42.300472577966445" lon="13.623738892733439"><ele>821.0</ele><time>2026-05-03T15:02:40.001Z</time></trkpt><trkpt lat="42.30057073515432" lon="13.623559983102885"><ele>821.0</ele><time>2026-05-03T15:02:41.001Z</time></trkpt><trkpt lat="42.30066947559333" lon="13.623381454858645"><ele>821.3333333333334</ele><time>2026-05-03T15:02:42Z</time></trkpt><trkpt lat="42.30076718987365" lon="13.623202578658923"><ele>821.6666666666667</ele><time>2026-05-03T15:02:43Z</time></trkpt><trkpt lat="42.300862363999485" lon="13.623025001887695"><ele>822.0</ele><time>2026-05-03T15:02:44Z</time></trkpt><trkpt lat="42.3009580506091" lon="13.622850943251116"><ele>822.6666666666667</ele><time>2026-05-03T15:02:45Z</time></trkpt><trkpt lat="42.30105503859654" lon="13.622676957146593"><ele>823.3333333333334</ele><time>2026-05-03T15:02:46Z</time></trkpt><trkpt lat="42.301152170032545" lon="13.622504893684393"><ele>824.0</ele><time>2026-05-03T15:02:47Z</time></trkpt><trkpt lat="42.301249234604136" lon="13.622335279134411"><ele>824.0</ele><time>2026-05-03T15:02:48Z</time></trkpt><trkpt lat="42.30134609702297" lon="13.622161381107794"><ele>824.0</ele><time>2026-05-03T15:02:49Z</time></trkpt><trkpt lat="42.301442691130354" lon="13.62198703315679"><ele>824.0</ele><time>2026-05-03T15:02:50Z</time></trkpt><trkpt lat="42.30153920181806" lon="13.621808877624078"><ele>825.6666666666667</ele><time>2026-05-03T15:02:51Z</time></trkpt><trkpt lat="42.30163671792402" lon="13.621630488001843"><ele>827.3333333333333</ele><time>2026-05-03T15:02:52Z</time></trkpt><trkpt lat="42.301735558132954" lon="13.621448778033967"><ele>829.0</ele><time>2026-05-03T15:02:53Z</time></trkpt><trkpt lat="42.301833959504314" lon="13.621263808935428"><ele>831.6666666666666</ele><time>2026-05-03T15:02:54Z</time></trkpt><trkpt lat="42.301936238405524" lon="13.621078943894348"><ele>834.3333333333333</ele><time>2026-05-03T15:02:55Z</time></trkpt><trkpt lat="42.30203902811402" lon="13.620891388610994"><ele>837.0</ele><time>2026-05-03T15:02:56Z</time></trkpt><trkpt lat="42.30214302959258" lon="13.620700972125505"><ele>837.0</ele><time>2026-05-03T15:02:57Z</time></trkpt><trkpt lat="42.30224656995285" lon="13.620507655046458"><ele>837.0</ele><time>2026-05-03T15:02:58Z</time></trkpt><trkpt lat="42.302350818212375" lon="13.620313312099317"><ele>837.0</ele><time>2026-05-03T15:02:59Z</time></trkpt><trkpt lat="42.302456404627875" lon="13.620118731338547"><ele>834.6666666666667</ele><time>2026-05-03T15:03:00Z</time></trkpt><trkpt lat="42.30256258493508" lon="13.61992688831137"><ele>832.3333333333334</ele><time>2026-05-03T15:03:01Z</time></trkpt><trkpt lat="42.30266913249409" lon="13.619728992114661"><ele>830.0</ele><time>2026-05-03T15:03:02Z</time></trkpt><trkpt lat="42.30277428495456" lon="13.61953087685983"><ele>830.0</ele><time>2026-05-03T15:03:03Z</time></trkpt><trkpt lat="42.302880503775434" lon="13.619333324052493"><ele>830.0</ele><time>2026-05-03T15:03:04Z</time></trkpt><trkpt lat="42.302985133481066" lon="13.61913658525333"><ele>830.0</ele><time>2026-05-03T15:03:05Z</time></trkpt><trkpt lat="42.303090777092414" lon="13.618938448425201"><ele>830.0</ele><time>2026-05-03T15:03:06Z</time></trkpt><trkpt lat="42.303197195357406" lon="13.618740570121219"><ele>830.0</ele><time>2026-05-03T15:03:07Z</time></trkpt><trkpt lat="42.3033048190392" lon="13.618540753803169"><ele>830.0</ele><time>2026-05-03T15:03:08Z</time></trkpt><trkpt lat="42.30341264447087" lon="13.618338819728924"><ele>830.3333333333334</ele><time>2026-05-03T15:03:09Z</time></trkpt><trkpt lat="42.30352031040811" lon="13.618137127342449"><ele>830.6666666666667</ele><time>2026-05-03T15:03:10Z</time></trkpt><trkpt lat="42.303629947306995" lon="13.61793598544544"><ele>831.0</ele><time>2026-05-03T15:03:11Z</time></trkpt><trkpt lat="42.303740899558655" lon="13.617733933182352"><ele>831.3333333333333</ele><time>2026-05-03T15:03:12Z</time></trkpt><trkpt lat="42.30385087285645" lon="13.61752862880992"><ele>831.6666666666666</ele><time>2026-05-03T15:03:13Z</time></trkpt><trkpt lat="42.30395963847418" lon="13.617323008139483"><ele>832.0</ele><time>2026-05-03T15:03:14Z</time></trkpt><trkpt lat="42.304068367085065" lon="13.6171180517897"><ele>833.6666666666666</ele><time>2026-05-03T15:03:15Z</time></trkpt><trkpt lat="42.30417685208953" lon="13.616917722876556"><ele>835.3333333333333</ele><time>2026-05-03T15:03:16Z</time></trkpt><trkpt lat="42.30428367255163" lon="13.616723121444423"><ele>837.0</ele><time>2026-05-03T15:03:17Z</time></trkpt><trkpt lat="42.30439033194296" lon="13.61652896058487"><ele>837.0</ele><time>2026-05-03T15:03:18Z</time></trkpt><trkpt lat="42.30449641166728" lon="13.616335331984217"><ele>837.0</ele><time>2026-05-03T15:03:19Z</time></trkpt><trkpt lat="42.30460266856092" lon="13.61614119536725"><ele>837.0</ele><time>2026-05-03T15:03:20Z</time></trkpt><trkpt lat="42.3047088360378" lon="13.61594438394217"><ele>836.0</ele><time>2026-05-03T15:03:21Z</time></trkpt><trkpt lat="42.30481519499727" lon="13.615744417406145"><ele>835.0</ele><time>2026-05-03T15:03:22Z</time></trkpt><trkpt lat="42.30492493626979" lon="13.615538564002552"><ele>834.0</ele><time>2026-05-03T15:03:23Z</time></trkpt><trkpt lat="42.3050363336376" lon="13.615328443065875"><ele>834.6666666666667</ele><time>2026-05-03T15:03:24Z</time></trkpt><trkpt lat="42.305147844587374" lon="13.615115856931741"><ele>835.3333333333334</ele><time>2026-05-03T15:03:25Z</time></trkpt><trkpt lat="42.30526420367832" lon="13.614897416691914"><ele>836.0</ele><time>2026-05-03T15:03:26Z</time></trkpt><trkpt lat="42.305386392735905" lon="13.614672391982417"><ele>835.3333333333334</ele><time>2026-05-03T15:03:27Z</time></trkpt><trkpt lat="42.30551180507471" lon="13.614444335666695"><ele>834.6666666666667</ele><time>2026-05-03T15:03:28Z</time></trkpt><trkpt lat="42.305636758659624" lon="13.614217120641069"><ele>834.0</ele><time>2026-05-03T15:03:29Z</time></trkpt><trkpt lat="42.30576560721507" lon="13.613983349419835"><ele>834.0</ele><time>2026-05-03T15:03:30Z</time></trkpt><trkpt lat="42.305893976628894" lon="13.613749651962626"><ele>834.0</ele><time>2026-05-03T15:03:31Z</time></trkpt><trkpt lat="42.306014164491245" lon="13.613524720017283"><ele>834.0</ele><time>2026-05-03T15:03:32Z</time></trkpt><trkpt lat="42.306131459858754" lon="13.613298333088647"><ele>834.6666666666667</ele><time>2026-05-03T15:03:33Z</time></trkpt><trkpt lat="42.30624699589257" lon="13.613079796483907"><ele>835.3333333333334</ele><time>2026-05-03T15:03:34Z</time></trkpt><trkpt lat="42.30636213458057" lon="13.612869787888497"><ele>836.0</ele><time>2026-05-03T15:03:35Z</time></trkpt><trkpt lat="42.30647833689568" lon="13.612653040810017"><ele>836.0</ele><time>2026-05-03T15:03:36Z</time></trkpt><trkpt lat="42.30659525259165" lon="13.612437238862217"><ele>836.0</ele><time>2026-05-03T15:03:37Z</time></trkpt><trkpt lat="42.30670999222928" lon="13.612221028302505"><ele>836.0</ele><time>2026-05-03T15:03:38Z</time></trkpt><trkpt lat="42.306826835636436" lon="13.61200143998953"><ele>836.0</ele><time>2026-05-03T15:03:39Z</time></trkpt><trkpt lat="42.30694697984687" lon="13.611782352493933"><ele>836.0</ele><time>2026-05-03T15:03:40Z</time></trkpt><trkpt lat="42.30706674122553" lon="13.61156106045078"><ele>836.0</ele><time>2026-05-03T15:03:41Z</time></trkpt><trkpt lat="42.30718478179595" lon="13.611339076368298"><ele>836.6666666666667</ele><time>2026-05-03T15:03:42Z</time></trkpt><trkpt lat="42.307304726359625" lon="13.611117967192454"><ele>837.3333333333333</ele><time>2026-05-03T15:03:43Z</time></trkpt><trkpt lat="42.3074242180011" lon="13.610899326168564"><ele>838.0</ele><time>2026-05-03T15:03:43.999Z</time></trkpt><trkpt lat="42.30754327633806" lon="13.610681375296375"><ele>838.0</ele><time>2026-05-03T15:03:44.999Z</time></trkpt><trkpt lat="42.30766150030918" lon="13.610466138936252"><ele>838.0</ele><time>2026-05-03T15:03:45.999Z</time></trkpt><trkpt lat="42.30777603103801" lon="13.610256352479928"><ele>838.0</ele><time>2026-05-03T15:03:46.999Z</time></trkpt><trkpt lat="42.30789042151129" lon="13.610047184396167"><ele>839.0</ele><time>2026-05-03T15:03:47.999Z</time></trkpt><trkpt lat="42.30800417446115" lon="13.609838709361728"><ele>840.0</ele><time>2026-05-03T15:03:48.999Z</time></trkpt><trkpt lat="42.30811678718394" lon="13.609629705363258"><ele>841.0</ele><time>2026-05-03T15:03:49.999Z</time></trkpt><trkpt lat="42.30822804044855" lon="13.609420570533091"><ele>841.6666666666666</ele><time>2026-05-03T15:03:50.999Z</time></trkpt><trkpt lat="42.308343000018965" lon="13.609206746077962"><ele>842.3333333333333</ele><time>2026-05-03T15:03:51.999Z</time></trkpt><trkpt lat="42.30845931675305" lon="13.608988594962753"><ele>843.0</ele><time>2026-05-03T15:03:52.999Z</time></trkpt><trkpt lat="42.30857812335071" lon="13.608775097570819"><ele>843.0</ele><time>2026-05-03T15:03:53.999Z</time></trkpt><trkpt lat="42.30869620977121" lon="13.60855661826833"><ele>843.0</ele><time>2026-05-03T15:03:54.999Z</time></trkpt><trkpt lat="42.30881374680021" lon="13.608337084820008"><ele>843.0</ele><time>2026-05-03T15:03:55.999Z</time></trkpt><trkpt lat="42.308931364880884" lon="13.608124281033636"><ele>843.0</ele><time>2026-05-03T15:03:56.999Z</time></trkpt><trkpt lat="42.309047693082036" lon="13.60790736007514"><ele>843.0</ele><time>2026-05-03T15:03:57.999Z</time></trkpt><trkpt lat="42.30916510773205" lon="13.607684919842256"><ele>843.0</ele><time>2026-05-03T15:03:58.999Z</time></trkpt><trkpt lat="42.309283981231" lon="13.60746640951624"><ele>843.0</ele><time>2026-05-03T15:03:59.999Z</time></trkpt><trkpt lat="42.30940413072413" lon="13.607242998650458"><ele>843.0</ele><time>2026-05-03T15:04:00.999Z</time></trkpt><trkpt lat="42.30952421021753" lon="13.607017437237714"><ele>843.0</ele><time>2026-05-03T15:04:01.999Z</time></trkpt><trkpt lat="42.309644964944745" lon="13.606792051977118"><ele>844.0</ele><time>2026-05-03T15:04:02.999Z</time></trkpt><trkpt lat="42.30976719271694" lon="13.606565805251929"><ele>845.0</ele><time>2026-05-03T15:04:03.999Z</time></trkpt><trkpt lat="42.30989115000478" lon="13.606338027127828"><ele>846.0</ele><time>2026-05-03T15:04:04.999Z</time></trkpt><trkpt lat="42.31001576771704" lon="13.606108795458953"><ele>846.0</ele><time>2026-05-03T15:04:05.999Z</time></trkpt><trkpt lat="42.310139876096606" lon="13.60588046960941"><ele>846.0</ele><time>2026-05-03T15:04:06.999Z</time></trkpt><trkpt lat="42.310261624551266" lon="13.60565356007496"><ele>846.0</ele><time>2026-05-03T15:04:07.999Z</time></trkpt><trkpt lat="42.310377200536124" lon="13.605438385992116"><ele>846.0</ele><time>2026-05-03T15:04:08.999Z</time></trkpt><trkpt lat="42.310493467720526" lon="13.605222563766633"><ele>846.0</ele><time>2026-05-03T15:04:09.999Z</time></trkpt><trkpt lat="42.31061099884271" lon="13.605006198497202"><ele>846.0</ele><time>2026-05-03T15:04:10.999Z</time></trkpt><trkpt lat="42.31073038571482" lon="13.604784636746617"><ele>846.6666666666667</ele><time>2026-05-03T15:04:11.999Z</time></trkpt><trkpt lat="42.31084829470699" lon="13.604561929429803"><ele>847.3333333333334</ele><time>2026-05-03T15:04:12.999Z</time></trkpt><trkpt lat="42.31097242471722" lon="13.604324723346542"><ele>848.0</ele><time>2026-05-03T15:04:13.999Z</time></trkpt><trkpt lat="42.311103014217274" lon="13.604065156965733"><ele>848.0</ele><time>2026-05-03T15:04:14.999Z</time></trkpt><trkpt lat="42.31123522410443" lon="13.603809164956136"><ele>848.0</ele><time>2026-05-03T15:04:15.999Z</time></trkpt><trkpt lat="42.31138608886923" lon="13.60356139979148"><ele>850.0</ele><time>2026-05-03T15:04:16.999Z</time></trkpt><trkpt lat="42.31152785100782" lon="13.603297716058712"><ele>852.0</ele><time>2026-05-03T15:04:17.999Z</time></trkpt><trkpt lat="42.311668616015425" lon="13.603035887033336"><ele>851.5</ele><time>2026-05-03T15:04:18.999Z</time></trkpt><trkpt lat="42.31179990710951" lon="13.60276815006617"><ele>851.0</ele><time>2026-05-03T15:04:19.999Z</time></trkpt><trkpt lat="42.31194115210166" lon="13.602507510916261"><ele>851.0</ele><time>2026-05-03T15:04:20.999Z</time></trkpt><trkpt lat="42.31208050752374" lon="13.602253009308315"><ele>851.0</ele><time>2026-05-03T15:04:21.999Z</time></trkpt><trkpt lat="42.31222006115395" lon="13.602001474520902"><ele>852.5</ele><time>2026-05-03T15:04:22.999Z</time></trkpt><trkpt lat="42.312358557670045" lon="13.601746250295541"><ele>854.0</ele><time>2026-05-03T15:04:23.999Z</time></trkpt><trkpt lat="42.312497719726366" lon="13.601490045085216"><ele>854.0</ele><time>2026-05-03T15:04:24.999Z</time></trkpt><trkpt lat="42.31263687076178" lon="13.601232687065787"><ele>854.0</ele><time>2026-05-03T15:04:25.999Z</time></trkpt><trkpt lat="42.31277710839728" lon="13.600973068854069"><ele>853.5</ele><time>2026-05-03T15:04:26.999Z</time></trkpt><trkpt lat="42.31291750970656" lon="13.600714002436918"><ele>853.0</ele><time>2026-05-03T15:04:27.999Z</time></trkpt><trkpt lat="42.31305464499318" lon="13.600454451503749"><ele>854.0</ele><time>2026-05-03T15:04:28.999Z</time></trkpt><trkpt lat="42.31319168391043" lon="13.600197306933856"><ele>855.0</ele><time>2026-05-03T15:04:29.999Z</time></trkpt><trkpt lat="42.31332907250279" lon="13.599944379669981"><ele>855.0</ele><time>2026-05-03T15:04:30.999Z</time></trkpt><trkpt lat="42.31346868321216" lon="13.599690833448175"><ele>855.0</ele><time>2026-05-03T15:04:31.999Z</time></trkpt><trkpt lat="42.3136069829067" lon="13.599434571838732"><ele>855.0</ele><time>2026-05-03T15:04:32.999Z</time></trkpt><trkpt lat="42.313744360645444" lon="13.599178219210197"><ele>855.0</ele><time>2026-05-03T15:04:33.999Z</time></trkpt><trkpt lat="42.31388342765894" lon="13.598919999402913"><ele>857.0</ele><time>2026-05-03T15:04:34.999Z</time></trkpt><trkpt lat="42.3140260626392" lon="13.598657651613841"><ele>859.0</ele><time>2026-05-03T15:04:35.999Z</time></trkpt><trkpt lat="42.31416789055475" lon="13.598389987200251"><ele>859.0</ele><time>2026-05-03T15:04:36.999Z</time></trkpt><trkpt lat="42.31430913251044" lon="13.598124426666502"><ele>859.0</ele><time>2026-05-03T15:04:37.999Z</time></trkpt><trkpt lat="42.314450923243406" lon="13.597860855366246"><ele>860.0</ele><time>2026-05-03T15:04:38.999Z</time></trkpt><trkpt lat="42.31459235897409" lon="13.597598888067798"><ele>861.0</ele><time>2026-05-03T15:04:39.999Z</time></trkpt><trkpt lat="42.31473133738879" lon="13.597339076666481"><ele>861.5</ele><time>2026-05-03T15:04:40.999Z</time></trkpt><trkpt lat="42.31486807506657" lon="13.59708062040525"><ele>862.0</ele><time>2026-05-03T15:04:42Z</time></trkpt><trkpt lat="42.31500504930092" lon="13.59682283660526"><ele>863.5</ele><time>2026-05-03T15:04:43Z</time></trkpt><trkpt lat="42.31514432743551" lon="13.596564339991222"><ele>865.0</ele><time>2026-05-03T15:04:44Z</time></trkpt><trkpt lat="42.31528523916189" lon="13.596305530249554"><ele>867.0</ele><time>2026-05-03T15:04:45Z</time></trkpt><trkpt lat="42.31542609122321" lon="13.596043994480995"><ele>869.0</ele><time>2026-05-03T15:04:46Z</time></trkpt><trkpt lat="42.31556765794884" lon="13.595783201976495"><ele>868.5</ele><time>2026-05-03T15:04:47Z</time></trkpt><trkpt lat="42.31570749568013" lon="13.595523862023208"><ele>868.0</ele><time>2026-05-03T15:04:48Z</time></trkpt><trkpt lat="42.315843688735335" lon="13.595267624884723"><ele>870.0</ele><time>2026-05-03T15:04:49Z</time></trkpt><trkpt lat="42.31597867759173" lon="13.595016261559747"><ele>872.0</ele><time>2026-05-03T15:04:50Z</time></trkpt><trkpt lat="42.31611530896215" lon="13.594764791734915"><ele>872.0</ele><time>2026-05-03T15:04:51Z</time></trkpt><trkpt lat="42.31625018014436" lon="13.594511598451321"><ele>872.0</ele><time>2026-05-03T15:04:52Z</time></trkpt><trkpt lat="42.31638677723205" lon="13.594258345453575"><ele>870.5</ele><time>2026-05-03T15:04:53Z</time></trkpt><trkpt lat="42.31652260848915" lon="13.594007048073141"><ele>869.0</ele><time>2026-05-03T15:04:54Z</time></trkpt><trkpt lat="42.31665898570677" lon="13.593755055337331"><ele>871.0</ele><time>2026-05-03T15:04:55Z</time></trkpt><trkpt lat="42.31679581106207" lon="13.593502899386387"><ele>873.0</ele><time>2026-05-03T15:04:56Z</time></trkpt><trkpt lat="42.316929777743255" lon="13.593253426710557"><ele>873.0</ele><time>2026-05-03T15:04:57Z</time></trkpt><trkpt lat="42.31705514352451" lon="13.593016371733505"><ele>873.0</ele><time>2026-05-03T15:04:58Z</time></trkpt><trkpt lat="42.31718107617783" lon="13.592786471670156"><ele>873.0</ele><time>2026-05-03T15:04:59Z</time></trkpt><trkpt lat="42.31729744364523" lon="13.59256860117596"><ele>873.6666666666667</ele><time>2026-05-03T15:05:00Z</time></trkpt><trkpt lat="42.31741101794663" lon="13.59235778782138"><ele>874.3333333333334</ele><time>2026-05-03T15:05:01Z</time></trkpt><trkpt lat="42.31752322454012" lon="13.592148704161353"><ele>875.0</ele><time>2026-05-03T15:05:02Z</time></trkpt><trkpt lat="42.317632883448155" lon="13.591946870976036"><ele>876.3333333333334</ele><time>2026-05-03T15:05:03Z</time></trkpt><trkpt lat="42.31773771910094" lon="13.591754226032405"><ele>877.6666666666667</ele><time>2026-05-03T15:05:04Z</time></trkpt><trkpt lat="42.31784038864769" lon="13.591566098384149"><ele>879.0</ele><time>2026-05-03T15:05:05Z</time></trkpt><trkpt lat="42.31794213625139" lon="13.591382711957653"><ele>879.0</ele><time>2026-05-03T15:05:06Z</time></trkpt><trkpt lat="42.318042995469966" lon="13.591198351855931"><ele>879.0</ele><time>2026-05-03T15:05:07Z</time></trkpt><trkpt lat="42.31814472954738" lon="13.591011597425371"><ele>879.0</ele><time>2026-05-03T15:05:08Z</time></trkpt><trkpt lat="42.31824651150037" lon="13.590818441601096"><ele>880.6666666666667</ele><time>2026-05-03T15:05:09Z</time></trkpt><trkpt lat="42.3183465854977" lon="13.590624485246453"><ele>882.3333333333334</ele><time>2026-05-03T15:05:10Z</time></trkpt><trkpt lat="42.31844046633397" lon="13.590442499902755"><ele>884.0</ele><time>2026-05-03T15:05:11Z</time></trkpt><trkpt lat="42.31853241613455" lon="13.59027051214357"><ele>884.75</ele><time>2026-05-03T15:05:12Z</time></trkpt><trkpt lat="42.31861947052873" lon="13.59010787098783"><ele>885.5</ele><time>2026-05-03T15:05:13Z</time></trkpt><trkpt lat="42.318707849682234" lon="13.589945027104875"><ele>886.25</ele><time>2026-05-03T15:05:14Z</time></trkpt><trkpt lat="42.318796053530704" lon="13.589781232507534"><ele>887.0</ele><time>2026-05-03T15:05:15Z</time></trkpt><trkpt lat="42.318885497265306" lon="13.589618840630719"><ele>888.0</ele><time>2026-05-03T15:05:16Z</time></trkpt><trkpt lat="42.31897838365988" lon="13.589455386746645"><ele>889.0</ele><time>2026-05-03T15:05:17Z</time></trkpt><trkpt lat="42.31907313328856" lon="13.589289304272134"><ele>890.0</ele><time>2026-05-03T15:05:18Z</time></trkpt><trkpt lat="42.31916603746917" lon="13.589122904921075"><ele>890.0</ele><time>2026-05-03T15:05:19Z</time></trkpt><trkpt lat="42.31925057266601" lon="13.58896425612143"><ele>890.0</ele><time>2026-05-03T15:05:20Z</time></trkpt><trkpt lat="42.31933268096159" lon="13.588811099221683"><ele>890.0</ele><time>2026-05-03T15:05:21Z</time></trkpt><trkpt lat="42.31941107935383" lon="13.588663159168652"><ele>890.0</ele><time>2026-05-03T15:05:22Z</time></trkpt><trkpt lat="42.319486384485764" lon="13.588520026258093"><ele>890.0</ele><time>2026-05-03T15:05:23Z</time></trkpt><trkpt lat="42.31955920181537" lon="13.588373858373673"><ele>890.0</ele><time>2026-05-03T15:05:24Z</time></trkpt><trkpt lat="42.31962460562674" lon="13.58821997165351"><ele>890.0</ele><time>2026-05-03T15:05:25Z</time></trkpt><trkpt lat="42.31967711519489" lon="13.58805328238551"><ele>890.0</ele><time>2026-05-03T15:05:26Z</time></trkpt><trkpt lat="42.3197180127764" lon="13.587874735935818"><ele>890.0</ele><time>2026-05-03T15:05:27Z</time></trkpt><trkpt lat="42.31974364027601" lon="13.587700257361917"><ele>890.0</ele><time>2026-05-03T15:05:27.999Z</time></trkpt><trkpt lat="42.319750017913066" lon="13.587533465387775"><ele>890.0</ele><time>2026-05-03T15:05:28.999Z</time></trkpt><trkpt lat="42.319745989159244" lon="13.587368650402208"><ele>890.0</ele><time>2026-05-03T15:05:29.999Z</time></trkpt><trkpt lat="42.31973359716899" lon="13.587204013541694"><ele>890.0</ele><time>2026-05-03T15:05:30.999Z</time></trkpt><trkpt lat="42.31971822864364" lon="13.587039495791013"><ele>890.0</ele><time>2026-05-03T15:05:31.999Z</time></trkpt><trkpt lat="42.319698125259094" lon="13.58686370625448"><ele>890.0</ele><time>2026-05-03T15:05:32.999Z</time></trkpt><trkpt lat="42.319671757810504" lon="13.586678423078283"><ele>890.0</ele><time>2026-05-03T15:05:33.999Z</time></trkpt><trkpt lat="42.31964059789806" lon="13.586490615479972"><ele>889.25</ele><time>2026-05-03T15:05:34.999Z</time></trkpt><trkpt lat="42.31960832426352" lon="13.58630935752822"><ele>888.5</ele><time>2026-05-03T15:05:35.999Z</time></trkpt><trkpt lat="42.31957165686849" lon="13.586137456886101"><ele>887.75</ele><time>2026-05-03T15:05:36.999Z</time></trkpt><trkpt lat="42.31952517474554" lon="13.585975139838247"><ele>887.0</ele><time>2026-05-03T15:05:37.999Z</time></trkpt><trkpt lat="42.31947690527916" lon="13.585816035431248"><ele>886.75</ele><time>2026-05-03T15:05:38.999Z</time></trkpt><trkpt lat="42.319380817134835" lon="13.585693946724538"><ele>886.5</ele><time>2026-05-03T15:05:39.999Z</time></trkpt><trkpt lat="42.319284097846875" lon="13.585575413705"><ele>886.25</ele><time>2026-05-03T15:05:40.999Z</time></trkpt><trkpt lat="42.3191747864107" lon="13.585465855659054"><ele>886.0</ele><time>2026-05-03T15:05:41.999Z</time></trkpt><trkpt lat="42.319061367392905" lon="13.585359223055073"><ele>886.0</ele><time>2026-05-03T15:05:42.999Z</time></trkpt><trkpt lat="42.31894704950022" lon="13.585249837888218"><ele>886.0</ele><time>2026-05-03T15:05:43.999Z</time></trkpt><trkpt lat="42.318834985003285" lon="13.585130864251862"><ele>886.0</ele><time>2026-05-03T15:05:44.999Z</time></trkpt><trkpt lat="42.31872805725819" lon="13.585000234131915"><ele>886.0</ele><time>2026-05-03T15:05:45.999Z</time></trkpt><trkpt lat="42.31863247731845" lon="13.584853530307306"><ele>886.0</ele><time>2026-05-03T15:05:46.999Z</time></trkpt><trkpt lat="42.318548103558854" lon="13.584692710390872"><ele>886.0</ele><time>2026-05-03T15:05:47.999Z</time></trkpt><trkpt lat="42.318471460524286" lon="13.584522786020376"><ele>886.0</ele><time>2026-05-03T15:05:48.999Z</time></trkpt><trkpt lat="42.318399985554265" lon="13.584348492526786"><ele>886.0</ele><time>2026-05-03T15:05:49.999Z</time></trkpt><trkpt lat="42.31832791507383" lon="13.584171270929794"><ele>886.3333333333333</ele><time>2026-05-03T15:05:50.999Z</time></trkpt><trkpt lat="42.318253117632736" lon="13.583989180139076"><ele>886.6666666666667</ele><time>2026-05-03T15:05:51.999Z</time></trkpt><trkpt lat="42.31817874559376" lon="13.583802857744164"><ele>887.0</ele><time>2026-05-03T15:05:52.999Z</time></trkpt><trkpt lat="42.31810228362935" lon="13.583609843666656"><ele>884.0</ele><time>2026-05-03T15:05:53.999Z</time></trkpt><trkpt lat="42.31802331793099" lon="13.583410435684259"><ele>881.0</ele><time>2026-05-03T15:05:54.999Z</time></trkpt><trkpt lat="42.31794312100835" lon="13.583214980741408"><ele>878.0</ele><time>2026-05-03T15:05:55.999Z</time></trkpt><trkpt lat="42.317861958298145" lon="13.583018211019274"><ele>879.6666666666667</ele><time>2026-05-03T15:05:56.999Z</time></trkpt><trkpt lat="42.31778067566543" lon="13.582819800857807"><ele>881.3333333333333</ele><time>2026-05-03T15:05:57.999Z</time></trkpt><trkpt lat="42.317700068864184" lon="13.582620457798761"><ele>883.0</ele><time>2026-05-03T15:05:58.999Z</time></trkpt><trkpt lat="42.31762037724668" lon="13.582422654563825"><ele>883.0</ele><time>2026-05-03T15:05:59.999Z</time></trkpt><trkpt lat="42.317545816552986" lon="13.58222920043762"><ele>883.0</ele><time>2026-05-03T15:06:00.999Z</time></trkpt><trkpt lat="42.31747108743839" lon="13.582038372299188"><ele>883.0</ele><time>2026-05-03T15:06:01.999Z</time></trkpt><trkpt lat="42.317392857138664" lon="13.581843361231646"><ele>884.0</ele><time>2026-05-03T15:06:02.999Z</time></trkpt><trkpt lat="42.31731394967467" lon="13.581647165049441"><ele>885.0</ele><time>2026-05-03T15:06:03.999Z</time></trkpt><trkpt lat="42.31723427832893" lon="13.581447025183321"><ele>886.0</ele><time>2026-05-03T15:06:04.999Z</time></trkpt><trkpt lat="42.31715437442915" lon="13.581248099351866"><ele>882.6666666666666</ele><time>2026-05-03T15:06:05.999Z</time></trkpt><trkpt lat="42.31707614127225" lon="13.581055155663023"><ele>879.3333333333333</ele><time>2026-05-03T15:06:06.999Z</time></trkpt><trkpt lat="42.31699935392471" lon="13.580864884794279"><ele>876.0</ele><time>2026-05-03T15:06:07.999Z</time></trkpt><trkpt lat="42.31692303123067" lon="13.580673970173391"><ele>876.0</ele><time>2026-05-03T15:06:08.999Z</time></trkpt><trkpt lat="42.31684455466392" lon="13.580477910253316"><ele>876.0</ele><time>2026-05-03T15:06:09.999Z</time></trkpt><trkpt lat="42.31676578648997" lon="13.580280620056394"><ele>876.0</ele><time>2026-05-03T15:06:10.999Z</time></trkpt><trkpt lat="42.31668851650867" lon="13.580085035448457"><ele>876.3333333333333</ele><time>2026-05-03T15:06:11.999Z</time></trkpt><trkpt lat="42.31661687427933" lon="13.579892812739649"><ele>876.6666666666666</ele><time>2026-05-03T15:06:12.999Z</time></trkpt><trkpt lat="42.31655600894383" lon="13.579693901145484"><ele>877.0</ele><time>2026-05-03T15:06:13.999Z</time></trkpt><trkpt lat="42.31652461420626" lon="13.579477072535111"><ele>877.0</ele><time>2026-05-03T15:06:14.999Z</time></trkpt><trkpt lat="42.31648621643643" lon="13.579246425525834"><ele>877.0</ele><time>2026-05-03T15:06:15.999Z</time></trkpt><trkpt lat="42.31644627761441" lon="13.578994728608244"><ele>877.0</ele><time>2026-05-03T15:06:16.999Z</time></trkpt><trkpt lat="42.31640459421103" lon="13.578725278271229"><ele>874.0</ele><time>2026-05-03T15:06:17.999Z</time></trkpt><trkpt lat="42.31635988476646" lon="13.578436266835514"><ele>871.0</ele><time>2026-05-03T15:06:18.999Z</time></trkpt><trkpt lat="42.31631437443275" lon="13.578142047728056"><ele>868.0</ele><time>2026-05-03T15:06:19.999Z</time></trkpt><trkpt lat="42.31626803615437" lon="13.57784112952453"><ele>868.0</ele><time>2026-05-03T15:06:20.999Z</time></trkpt><trkpt lat="42.316220805021935" lon="13.57753441330608"><ele>868.0</ele><time>2026-05-03T15:06:21.999Z</time></trkpt><trkpt lat="42.316172685913465" lon="13.57722193053951"><ele>869.0</ele><time>2026-05-03T15:06:22.999Z</time></trkpt><trkpt lat="42.31612274067543" lon="13.576897589071981"><ele>870.0</ele><time>2026-05-03T15:06:23.999Z</time></trkpt><trkpt lat="42.31607168142163" lon="13.576566013173853"><ele>870.0</ele><time>2026-05-03T15:06:24.999Z</time></trkpt><trkpt lat="42.31602041180037" lon="13.57623501621765"><ele>870.0</ele><time>2026-05-03T15:06:25.999Z</time></trkpt><trkpt lat="42.31597074661369" lon="13.57591496438186"><ele>870.0</ele><time>2026-05-03T15:06:26.999Z</time></trkpt><trkpt lat="42.31592204104598" lon="13.57560109661015"><ele>870.0</ele><time>2026-05-03T15:06:27.999Z</time></trkpt><trkpt lat="42.315874568136586" lon="13.575295172275766"><ele>869.0</ele><time>2026-05-03T15:06:28.999Z</time></trkpt><trkpt lat="42.315811602955" lon="13.574997047093147"><ele>868.0</ele><time>2026-05-03T15:06:29.999Z</time></trkpt><trkpt lat="42.31578105511547" lon="13.574692556884056"><ele>868.3333333333333</ele><time>2026-05-03T15:06:30.999Z</time></trkpt><trkpt lat="42.31573485647879" lon="13.574394844222713"><ele>868.6666666666667</ele><time>2026-05-03T15:06:31.999Z</time></trkpt><trkpt lat="42.315689014195854" lon="13.574099427929275"><ele>869.0</ele><time>2026-05-03T15:06:32.999Z</time></trkpt><trkpt lat="42.315643537072525" lon="13.573807201586913"><ele>869.0</ele><time>2026-05-03T15:06:33.999Z</time></trkpt><trkpt lat="42.31559830655446" lon="13.573517120962014"><ele>869.0</ele><time>2026-05-03T15:06:34.999Z</time></trkpt><trkpt lat="42.315554331174106" lon="13.573235090041255"><ele>869.0</ele><time>2026-05-03T15:06:35.999Z</time></trkpt><trkpt lat="42.31549580249234" lon="13.572965230613063"><ele>868.0</ele><time>2026-05-03T15:06:36.999Z</time></trkpt><trkpt lat="42.31545452255518" lon="13.572700465914103"><ele>867.0</ele><time>2026-05-03T15:06:37.999Z</time></trkpt><trkpt lat="42.315430726414604" lon="13.572442365495341"><ele>866.0</ele><time>2026-05-03T15:06:38.999Z</time></trkpt><trkpt lat="42.31539275478894" lon="13.572198838882592"><ele>865.6666666666667</ele><time>2026-05-03T15:06:39.999Z</time></trkpt><trkpt lat="42.31535655510372" lon="13.571966676517656"><ele>865.3333333333333</ele><time>2026-05-03T15:06:40.999Z</time></trkpt><trkpt lat="42.31532104577249" lon="13.571740850604561"><ele>865.0</ele><time>2026-05-03T15:06:41.999Z</time></trkpt><trkpt lat="42.31526977983908" lon="13.571521691847954"><ele>865.0</ele><time>2026-05-03T15:06:42.999Z</time></trkpt><trkpt lat="42.31523659608423" lon="13.571304475141378"><ele>865.0</ele><time>2026-05-03T15:06:43.999Z</time></trkpt><trkpt lat="42.31520432126647" lon="13.571100565487415"><ele>865.0</ele><time>2026-05-03T15:06:44.999Z</time></trkpt><trkpt lat="42.31517211416547" lon="13.570901881856427"><ele>865.25</ele><time>2026-05-03T15:06:45.999Z</time></trkpt><trkpt lat="42.315158275796975" lon="13.570710848952492"><ele>865.5</ele><time>2026-05-03T15:06:46.998Z</time></trkpt><trkpt lat="42.31513009895372" lon="13.570532547440882"><ele>865.75</ele><time>2026-05-03T15:06:47.999Z</time></trkpt><trkpt lat="42.31508754661492" lon="13.570360894331534"><ele>866.0</ele><time>2026-05-03T15:06:48.999Z</time></trkpt><trkpt lat="42.31506181510954" lon="13.570188930788346"><ele>865.25</ele><time>2026-05-03T15:06:49.999Z</time></trkpt><trkpt lat="42.31503573476106" lon="13.570019952229805"><ele>864.5</ele><time>2026-05-03T15:06:50.999Z</time></trkpt><trkpt lat="42.31501016951234" lon="13.569853005049783"><ele>863.75</ele><time>2026-05-03T15:06:51.999Z</time></trkpt><trkpt lat="42.31498430332084" lon="13.569675025832913"><ele>863.0</ele><time>2026-05-03T15:06:52.999Z</time></trkpt><trkpt lat="42.314957437796245" lon="13.569492226626053"><ele>863.0</ele><time>2026-05-03T15:06:53.999Z</time></trkpt><trkpt lat="42.31493010751389" lon="13.569304898503672"><ele>863.0</ele><time>2026-05-03T15:06:54.999Z</time></trkpt><trkpt lat="42.314899347581225" lon="13.56911384418386"><ele>863.0</ele><time>2026-05-03T15:06:55.999Z</time></trkpt><trkpt lat="42.31486766567846" lon="13.568916001061552"><ele>863.0</ele><time>2026-05-03T15:06:56.999Z</time></trkpt><trkpt lat="42.31483539994332" lon="13.568719027765782"><ele>863.6666666666667</ele><time>2026-05-03T15:06:57.999Z</time></trkpt><trkpt lat="42.314819040211404" lon="13.568512535090983"><ele>864.3333333333333</ele><time>2026-05-03T15:06:58.999Z</time></trkpt><trkpt lat="42.31478683355234" lon="13.568303209550946"><ele>865.0</ele><time>2026-05-03T15:06:59.999Z</time></trkpt><trkpt lat="42.3147534467825" lon="13.568086213888398"><ele>862.6666666666666</ele><time>2026-05-03T15:07:00.999Z</time></trkpt><trkpt lat="42.31472000698281" lon="13.567868873171998"><ele>860.3333333333333</ele><time>2026-05-03T15:07:01.999Z</time></trkpt><trkpt lat="42.314687289476446" lon="13.567656226974488"><ele>858.0</ele><time>2026-05-03T15:07:02.999Z</time></trkpt><trkpt lat="42.31463658849201" lon="13.567461290881234"><ele>857.6666666666667</ele><time>2026-05-03T15:07:03.999Z</time></trkpt><trkpt lat="42.31460684916551" lon="13.567261767006986"><ele>857.3333333333334</ele><time>2026-05-03T15:07:04.999Z</time></trkpt><trkpt lat="42.31457450828836" lon="13.567054924003141"><ele>857.0</ele><time>2026-05-03T15:07:05.999Z</time></trkpt><trkpt lat="42.31454267997279" lon="13.56684692851762"><ele>857.6666666666667</ele><time>2026-05-03T15:07:06.999Z</time></trkpt><trkpt lat="42.31451055029597" lon="13.566641732571211"><ele>858.3333333333333</ele><time>2026-05-03T15:07:07.999Z</time></trkpt><trkpt lat="42.314477410462786" lon="13.566435342533081"><ele>859.0</ele><time>2026-05-03T15:07:08.999Z</time></trkpt><trkpt lat="42.314444193054165" lon="13.566229747434578"><ele>859.75</ele><time>2026-05-03T15:07:09.999Z</time></trkpt><trkpt lat="42.31441339168271" lon="13.56602565082254"><ele>860.5</ele><time>2026-05-03T15:07:10.999Z</time></trkpt><trkpt lat="42.31438551203436" lon="13.565831314376148"><ele>861.25</ele><time>2026-05-03T15:07:11.999Z</time></trkpt><trkpt lat="42.31435684281476" lon="13.565638335198196"><ele>862.0</ele><time>2026-05-03T15:07:12.999Z</time></trkpt><trkpt lat="42.31432542998949" lon="13.565446106552963"><ele>862.25</ele><time>2026-05-03T15:07:13.999Z</time></trkpt><trkpt lat="42.31429395926258" lon="13.565254254022898"><ele>862.5</ele><time>2026-05-03T15:07:14.999Z</time></trkpt><trkpt lat="42.31426547603283" lon="13.56506375792466"><ele>862.75</ele><time>2026-05-03T15:07:15.999Z</time></trkpt><trkpt lat="42.314237102199876" lon="13.564872853163289"><ele>863.0</ele><time>2026-05-03T15:07:16.999Z</time></trkpt><trkpt lat="42.31420885247541" lon="13.56468092622799"><ele>863.5</ele><time>2026-05-03T15:07:17.999Z</time></trkpt><trkpt lat="42.3141813893841" lon="13.564488175702717"><ele>864.0</ele><time>2026-05-03T15:07:18.999Z</time></trkpt><trkpt lat="42.31415391965722" lon="13.564294943207068"><ele>864.5</ele><time>2026-05-03T15:07:19.999Z</time></trkpt><trkpt lat="42.31412721718573" lon="13.564102609984985"><ele>865.0</ele><time>2026-05-03T15:07:20.999Z</time></trkpt><trkpt lat="42.31410257795719" lon="13.563907883472197"><ele>865.0</ele><time>2026-05-03T15:07:21.999Z</time></trkpt><trkpt lat="42.31408062431628" lon="13.563710050010199"><ele>865.0</ele><time>2026-05-03T15:07:22.999Z</time></trkpt><trkpt lat="42.31406118277527" lon="13.563511674178217"><ele>865.0</ele><time>2026-05-03T15:07:23.999Z</time></trkpt><trkpt lat="42.3140494030069" lon="13.56332261203542"><ele>865.0</ele><time>2026-05-03T15:07:24.999Z</time></trkpt><trkpt lat="42.31404909702264" lon="13.563136877563107"><ele>864.75</ele><time>2026-05-03T15:07:25.999Z</time></trkpt><trkpt lat="42.314060093433774" lon="13.562947254059916"><ele>864.5</ele><time>2026-05-03T15:07:26.999Z</time></trkpt><trkpt lat="42.31408238225507" lon="13.562752718161878"><ele>864.25</ele><time>2026-05-03T15:07:27.999Z</time></trkpt><trkpt lat="42.31411294553484" lon="13.562553048918138"><ele>864.0</ele><time>2026-05-03T15:07:28.999Z</time></trkpt><trkpt lat="42.31414858678278" lon="13.562349394092609"><ele>864.0</ele><time>2026-05-03T15:07:29.999Z</time></trkpt><trkpt lat="42.314186213465554" lon="13.562144240091058"><ele>864.0</ele><time>2026-05-03T15:07:30.999Z</time></trkpt><trkpt lat="42.31422351858891" lon="13.561941439279563"><ele>864.0</ele><time>2026-05-03T15:07:31.999Z</time></trkpt><trkpt lat="42.31425798157004" lon="13.561740490007454"><ele>863.0</ele><time>2026-05-03T15:07:32.999Z</time></trkpt><trkpt lat="42.314293662241184" lon="13.561539823132748"><ele>862.0</ele><time>2026-05-03T15:07:33.999Z</time></trkpt><trkpt lat="42.31432976252012" lon="13.561346839481793"><ele>861.0</ele><time>2026-05-03T15:07:34.999Z</time></trkpt><trkpt lat="42.31436585503627" lon="13.561156344360963"><ele>860.0</ele><time>2026-05-03T15:07:35.999Z</time></trkpt><trkpt lat="42.31440210165179" lon="13.560967743629593"><ele>858.5</ele><time>2026-05-03T15:07:36.999Z</time></trkpt><trkpt lat="42.3144362720578" lon="13.560782798983245"><ele>857.0</ele><time>2026-05-03T15:07:37.999Z</time></trkpt><trkpt lat="42.31447129634304" lon="13.560599072285738"><ele>855.5</ele><time>2026-05-03T15:07:38.999Z</time></trkpt><trkpt lat="42.314508851530206" lon="13.560415833946603"><ele>854.0</ele><time>2026-05-03T15:07:39.999Z</time></trkpt><trkpt lat="42.314549008009195" lon="13.560224940431972"><ele>852.0</ele><time>2026-05-03T15:07:40.999Z</time></trkpt><trkpt lat="42.31459817751031" lon="13.560021809718195"><ele>850.0</ele><time>2026-05-03T15:07:41.999Z</time></trkpt><trkpt lat="42.31465703315583" lon="13.559821446843102"><ele>848.0</ele><time>2026-05-03T15:07:42.999Z</time></trkpt><trkpt lat="42.31472535259553" lon="13.559628384043076"><ele>849.25</ele><time>2026-05-03T15:07:43.999Z</time></trkpt><trkpt lat="42.31479352496462" lon="13.559449933560169"><ele>850.5</ele><time>2026-05-03T15:07:44.999Z</time></trkpt><trkpt lat="42.314856917092726" lon="13.559280547619384"><ele>851.75</ele><time>2026-05-03T15:07:45.999Z</time></trkpt><trkpt lat="42.31492308643419" lon="13.559112711452974"><ele>853.0</ele><time>2026-05-03T15:07:46.999Z</time></trkpt><trkpt lat="42.31498946629117" lon="13.55894550476934"><ele>853.0</ele><time>2026-05-03T15:07:47.999Z</time></trkpt><trkpt lat="42.31505449834385" lon="13.558777626721685"><ele>853.0</ele><time>2026-05-03T15:07:48.999Z</time></trkpt><trkpt lat="42.315118913834446" lon="13.558609941067289"><ele>853.0</ele><time>2026-05-03T15:07:49.999Z</time></trkpt><trkpt lat="42.315185367266245" lon="13.558441155999061"><ele>853.0</ele><time>2026-05-03T15:07:50.999Z</time></trkpt><trkpt lat="42.315251393247465" lon="13.55826905293283"><ele>851.0</ele><time>2026-05-03T15:07:51.999Z</time></trkpt><trkpt lat="42.31531837632593" lon="13.558098318346696"><ele>849.0</ele><time>2026-05-03T15:07:52.999Z</time></trkpt><trkpt lat="42.315387151707625" lon="13.557930266172505"><ele>847.0</ele><time>2026-05-03T15:07:53.999Z</time></trkpt><trkpt lat="42.3154575918556" lon="13.5577581884344"><ele>845.0</ele><time>2026-05-03T15:07:54.999Z</time></trkpt><trkpt lat="42.3155304520684" lon="13.557578263692653"><ele>845.0</ele><time>2026-05-03T15:07:55.999Z</time></trkpt><trkpt lat="42.31560570569769" lon="13.557394051620612"><ele>845.0</ele><time>2026-05-03T15:07:56.999Z</time></trkpt><trkpt lat="42.315682271772154" lon="13.557203677485113"><ele>845.0</ele><time>2026-05-03T15:07:57.999Z</time></trkpt><trkpt lat="42.31575782136036" lon="13.557008034475801"><ele>842.6666666666667</ele><time>2026-05-03T15:07:58.999Z</time></trkpt><trkpt lat="42.31583159607667" lon="13.556812990317601"><ele>840.3333333333333</ele><time>2026-05-03T15:07:59.999Z</time></trkpt><trkpt lat="42.31590658101661" lon="13.556617782070044"><ele>838.0</ele><time>2026-05-03T15:08:00.999Z</time></trkpt><trkpt lat="42.31598592389935" lon="13.556425977360446"><ele>838.0</ele><time>2026-05-03T15:08:01.999Z</time></trkpt><trkpt lat="42.31606627084224" lon="13.55623563124067"><ele>838.0</ele><time>2026-05-03T15:08:02.999Z</time></trkpt><trkpt lat="42.316150265664135" lon="13.55604684939521"><ele>838.0</ele><time>2026-05-03T15:08:03.999Z</time></trkpt><trkpt lat="42.31623802299206" lon="13.555861523166467"><ele>836.6666666666666</ele><time>2026-05-03T15:08:04.999Z</time></trkpt><trkpt lat="42.316330030767006" lon="13.55568119522371"><ele>835.3333333333333</ele><time>2026-05-03T15:08:05.999Z</time></trkpt><trkpt lat="42.316425694727926" lon="13.555505514083716"><ele>834.0</ele><time>2026-05-03T15:08:06.999Z</time></trkpt><trkpt lat="42.31652421547085" lon="13.555332064128985"><ele>831.3333333333333</ele><time>2026-05-03T15:08:07.999Z</time></trkpt><trkpt lat="42.31662563313153" lon="13.555162500306853"><ele>828.6666666666666</ele><time>2026-05-03T15:08:08.999Z</time></trkpt><trkpt lat="42.31673187581076" lon="13.554998122263514"><ele>826.0</ele><time>2026-05-03T15:08:09.999Z</time></trkpt><trkpt lat="42.316840416380124" lon="13.554837946864204"><ele>826.0</ele><time>2026-05-03T15:08:10.999Z</time></trkpt><trkpt lat="42.31695303513929" lon="13.554682884873365"><ele>826.0</ele><time>2026-05-03T15:08:11.999Z</time></trkpt><trkpt lat="42.31706856505274" lon="13.554529558089706"><ele>826.0</ele><time>2026-05-03T15:08:12.999Z</time></trkpt><trkpt lat="42.31718827817596" lon="13.554382406395806"><ele>826.0</ele><time>2026-05-03T15:08:13.999Z</time></trkpt><trkpt lat="42.317308480515315" lon="13.554237190921329"><ele>826.0</ele><time>2026-05-03T15:08:14.999Z</time></trkpt><trkpt lat="42.31742721327509" lon="13.554090874815762"><ele>826.0</ele><time>2026-05-03T15:08:15.999Z</time></trkpt><trkpt lat="42.31754533485764" lon="13.553942470339413"><ele>826.0</ele><time>2026-05-03T15:08:16.999Z</time></trkpt><trkpt lat="42.317661523040144" lon="13.55379411702132"><ele>826.0</ele><time>2026-05-03T15:08:17.999Z</time></trkpt><trkpt lat="42.31777569594084" lon="13.553649413668083"><ele>826.0</ele><time>2026-05-03T15:08:18.999Z</time></trkpt><trkpt lat="42.31788921427036" lon="13.553507702603369"><ele>826.6666666666666</ele><time>2026-05-03T15:08:19.999Z</time></trkpt><trkpt lat="42.31800597555168" lon="13.553360555898841"><ele>827.3333333333333</ele><time>2026-05-03T15:08:20.999Z</time></trkpt><trkpt lat="42.318121675100556" lon="13.55321297865871"><ele>828.0</ele><time>2026-05-03T15:08:21.999Z</time></trkpt><trkpt lat="42.31823664371495" lon="13.553067242661387"><ele>828.0</ele><time>2026-05-03T15:08:22.999Z</time></trkpt><trkpt lat="42.318352559138795" lon="13.552920649456428"><ele>828.0</ele><time>2026-05-03T15:08:23.999Z</time></trkpt><trkpt lat="42.31846742175385" lon="13.552772756381277"><ele>828.0</ele><time>2026-05-03T15:08:24.999Z</time></trkpt><trkpt lat="42.31858402272933" lon="13.552628124890711"><ele>824.3333333333333</ele><time>2026-05-03T15:08:25.999Z</time></trkpt><trkpt lat="42.31869883836102" lon="13.552481765262577"><ele>820.6666666666666</ele><time>2026-05-03T15:08:26.999Z</time></trkpt><trkpt lat="42.318815432490226" lon="13.552337498977396"><ele>817.0</ele><time>2026-05-03T15:08:27.999Z</time></trkpt><trkpt lat="42.31893062988371" lon="13.552195372706642"><ele>816.6666666666666</ele><time>2026-05-03T15:08:28.999Z</time></trkpt><trkpt lat="42.31904576002562" lon="13.552051827316749"><ele>816.3333333333333</ele><time>2026-05-03T15:08:29.999Z</time></trkpt><trkpt lat="42.31916511677661" lon="13.551902130907017"><ele>816.0</ele><time>2026-05-03T15:08:30.999Z</time></trkpt><trkpt lat="42.3192837717533" lon="13.551748582618051"><ele>812.6666666666667</ele><time>2026-05-03T15:08:31.999Z</time></trkpt><trkpt lat="42.319403473359074" lon="13.551592343958903"><ele>809.3333333333334</ele><time>2026-05-03T15:08:32.999Z</time></trkpt><trkpt lat="42.31952105263637" lon="13.551436311179312"><ele>806.0</ele><time>2026-05-03T15:08:33.999Z</time></trkpt><trkpt lat="42.31963562318023" lon="13.55128011116199"><ele>804.0</ele><time>2026-05-03T15:08:34.999Z</time></trkpt><trkpt lat="42.319763154218975" lon="13.551142105558615"><ele>802.0</ele><time>2026-05-03T15:08:35.999Z</time></trkpt><trkpt lat="42.319882698467396" lon="13.55099127971469"><ele>800.0</ele><time>2026-05-03T15:08:36.999Z</time></trkpt><trkpt lat="42.319993290384886" lon="13.550851748782739"><ele>800.0</ele><time>2026-05-03T15:08:37.999Z</time></trkpt><trkpt lat="42.32009241787255" lon="13.550726652400138"><ele>800.0</ele><time>2026-05-03T15:08:38.999Z</time></trkpt><trkpt lat="42.320187956543116" lon="13.550606047576688"><ele>800.0</ele><time>2026-05-03T15:08:39.999Z</time></trkpt><trkpt lat="42.32027000396674" lon="13.550472534196324"><ele>800.0</ele><time>2026-05-03T15:08:40.999Z</time></trkpt><trkpt lat="42.32036472873541" lon="13.550354187325988"><ele>798.5</ele><time>2026-05-03T15:08:41.999Z</time></trkpt><trkpt lat="42.320459439321446" lon="13.550235092834495"><ele>797.0</ele><time>2026-05-03T15:08:42.999Z</time></trkpt><trkpt lat="42.320553139966734" lon="13.550117287368924"><ele>795.5</ele><time>2026-05-03T15:08:43.999Z</time></trkpt><trkpt lat="42.32064657067242" lon="13.549999248798054"><ele>794.0</ele><time>2026-05-03T15:08:44.999Z</time></trkpt><trkpt lat="42.3207433623803" lon="13.549884597781094"><ele>794.0</ele><time>2026-05-03T15:08:45.999Z</time></trkpt><trkpt lat="42.3208374770848" lon="13.549767612067635"><ele>794.0</ele><time>2026-05-03T15:08:46.999Z</time></trkpt><trkpt lat="42.32092840057093" lon="13.549649761302017"><ele>794.0</ele><time>2026-05-03T15:08:47.999Z</time></trkpt><trkpt lat="42.32101803653916" lon="13.5495370605826"><ele>794.0</ele><time>2026-05-03T15:08:48.999Z</time></trkpt><trkpt lat="42.321108491762125" lon="13.549427449503193"><ele>794.5</ele><time>2026-05-03T15:08:49.999Z</time></trkpt><trkpt lat="42.32119905313565" lon="13.549317166504219"><ele>795.0</ele><time>2026-05-03T15:08:50.999Z</time></trkpt><trkpt lat="42.32129035552905" lon="13.549199464390673"><ele>795.5</ele><time>2026-05-03T15:08:51.999Z</time></trkpt><trkpt lat="42.32138661836753" lon="13.549068332832958"><ele>796.0</ele><time>2026-05-03T15:08:52.999Z</time></trkpt><trkpt lat="42.321502608265874" lon="13.548941089635601"><ele>796.0</ele><time>2026-05-03T15:08:53.999Z</time></trkpt><trkpt lat="42.32161341520793" lon="13.548776919635777"><ele>796.0</ele><time>2026-05-03T15:08:54.999Z</time></trkpt><trkpt lat="42.321707979150816" lon="13.548586167363624"><ele>796.0</ele><time>2026-05-03T15:08:55.999Z</time></trkpt><trkpt lat="42.321813582544586" lon="13.548391016953124"><ele>790.6666666666666</ele><time>2026-05-03T15:08:56.999Z</time></trkpt><trkpt lat="42.321911894974505" lon="13.54817719733709"><ele>785.3333333333333</ele><time>2026-05-03T15:08:57.999Z</time></trkpt><trkpt lat="42.322000748805905" lon="13.547949295082994"><ele>780.0</ele><time>2026-05-03T15:08:58.999Z</time></trkpt><trkpt lat="42.32207988501638" lon="13.547706143215592"><ele>776.3333333333333</ele><time>2026-05-03T15:08:59.999Z</time></trkpt><trkpt lat="42.32214628713933" lon="13.547447424892708"><ele>772.6666666666666</ele><time>2026-05-03T15:09:00.999Z</time></trkpt><trkpt lat="42.32220105940883" lon="13.54717631834673"><ele>769.0</ele><time>2026-05-03T15:09:01.999Z</time></trkpt><trkpt lat="42.32224737800202" lon="13.54689928884852"><ele>769.0</ele><time>2026-05-03T15:09:02.999Z</time></trkpt><trkpt lat="42.322292160698495" lon="13.54661609004029"><ele>769.0</ele><time>2026-05-03T15:09:03.999Z</time></trkpt><trkpt lat="42.32233646776219" lon="13.546334320757461"><ele>769.0</ele><time>2026-05-03T15:09:04.999Z</time></trkpt><trkpt lat="42.32238182861389" lon="13.54605076330321"><ele>769.0</ele><time>2026-05-03T15:09:05.999Z</time></trkpt><trkpt lat="42.322425813330995" lon="13.545774399844406"><ele>769.0</ele><time>2026-05-03T15:09:06.999Z</time></trkpt><trkpt lat="42.32246816616044" lon="13.545502815894634"><ele>769.0</ele><time>2026-05-03T15:09:07.999Z</time></trkpt><trkpt lat="42.32250951464572" lon="13.545222829887543"><ele>768.0</ele><time>2026-05-03T15:09:08.999Z</time></trkpt><trkpt lat="42.32255469781004" lon="13.54494149517072"><ele>767.0</ele><time>2026-05-03T15:09:09.999Z</time></trkpt><trkpt lat="42.3225952325613" lon="13.544667071937418"><ele>766.0</ele><time>2026-05-03T15:09:10.999Z</time></trkpt><trkpt lat="42.32264100385788" lon="13.54437423840239"><ele>765.0</ele><time>2026-05-03T15:09:11.999Z</time></trkpt><trkpt lat="42.32268589208951" lon="13.544081670632584"><ele>764.0</ele><time>2026-05-03T15:09:12.999Z</time></trkpt><trkpt lat="42.32272985735475" lon="13.543798419602826"><ele>763.0</ele><time>2026-05-03T15:09:13.999Z</time></trkpt><trkpt lat="42.32277174304886" lon="13.543519597798161"><ele>761.6666666666667</ele><time>2026-05-03T15:09:14.999Z</time></trkpt><trkpt lat="42.322809509841285" lon="13.54323988407237"><ele>760.3333333333334</ele><time>2026-05-03T15:09:15.999Z</time></trkpt><trkpt lat="42.32284394275129" lon="13.54296560054623"><ele>759.0</ele><time>2026-05-03T15:09:16.999Z</time></trkpt><trkpt lat="42.32287380161543" lon="13.542695310049842"><ele>757.6666666666666</ele><time>2026-05-03T15:09:17.999Z</time></trkpt><trkpt lat="42.32289810321436" lon="13.54242626068961"><ele>756.3333333333333</ele><time>2026-05-03T15:09:18.999Z</time></trkpt><trkpt lat="42.32291608533161" lon="13.542155666218136"><ele>755.0</ele><time>2026-05-03T15:09:19.999Z</time></trkpt><trkpt lat="42.32292437033674" lon="13.54188336612738"><ele>755.3333333333333</ele><time>2026-05-03T15:09:20.999Z</time></trkpt><trkpt lat="42.32292846147842" lon="13.541605350190817"><ele>755.6666666666666</ele><time>2026-05-03T15:09:21.999Z</time></trkpt><trkpt lat="42.322928571548566" lon="13.541325730658926"><ele>756.0</ele><time>2026-05-03T15:09:22.999Z</time></trkpt><trkpt lat="42.3229223304962" lon="13.541042909724505"><ele>756.0</ele><time>2026-05-03T15:09:23.999Z</time></trkpt><trkpt lat="42.32291026050666" lon="13.540759704926408"><ele>756.0</ele><time>2026-05-03T15:09:24.999Z</time></trkpt><trkpt lat="42.32289635901405" lon="13.540474068685846"><ele>756.0</ele><time>2026-05-03T15:09:25.999Z</time></trkpt><trkpt lat="42.32287901732859" lon="13.540189248479425"><ele>756.0</ele><time>2026-05-03T15:09:26.999Z</time></trkpt><trkpt lat="42.32286107239059" lon="13.539891825120547"><ele>756.0</ele><time>2026-05-03T15:09:27.999Z</time></trkpt><trkpt lat="42.322843401237556" lon="13.539593491585693"><ele>756.0</ele><time>2026-05-03T15:09:28.999Z</time></trkpt><trkpt lat="42.32283083945573" lon="13.539322450285976"><ele>756.0</ele><time>2026-05-03T15:09:29.999Z</time></trkpt><trkpt lat="42.322814928394386" lon="13.539030544766133"><ele>756.0</ele><time>2026-05-03T15:09:30.999Z</time></trkpt><trkpt lat="42.322798137113146" lon="13.538739172394175"><ele>756.0</ele><time>2026-05-03T15:09:31.999Z</time></trkpt><trkpt lat="42.32277954118755" lon="13.538460365087632"><ele>754.0</ele><time>2026-05-03T15:09:32.999Z</time></trkpt><trkpt lat="42.322760369589005" lon="13.538174167897251"><ele>752.0</ele><time>2026-05-03T15:09:33.999Z</time></trkpt><trkpt lat="42.32274040207861" lon="13.53789163655285"><ele>750.0</ele><time>2026-05-03T15:09:34.999Z</time></trkpt><trkpt lat="42.32272486620578" lon="13.537622805349676"><ele>749.3333333333334</ele><time>2026-05-03T15:09:35.999Z</time></trkpt><trkpt lat="42.32270519274507" lon="13.537343677520742"><ele>748.6666666666667</ele><time>2026-05-03T15:09:36.999Z</time></trkpt><trkpt lat="42.32269120423912" lon="13.537062845067426"><ele>748.0</ele><time>2026-05-03T15:09:37.999Z</time></trkpt><trkpt lat="42.32267588468798" lon="13.536783774117058"><ele>746.0</ele><time>2026-05-03T15:09:38.999Z</time></trkpt><trkpt lat="42.32266455511557" lon="13.536516165530404"><ele>744.0</ele><time>2026-05-03T15:09:39.999Z</time></trkpt><trkpt lat="42.322653120834374" lon="13.536258196774664"><ele>742.0</ele><time>2026-05-03T15:09:40.999Z</time></trkpt><trkpt lat="42.3226352164929" lon="13.536004984252575"><ele>740.6666666666667</ele><time>2026-05-03T15:09:41.999Z</time></trkpt><trkpt lat="42.32264222780759" lon="13.535754217323618"><ele>739.3333333333334</ele><time>2026-05-03T15:09:42.999Z</time></trkpt><trkpt lat="42.32262769152545" lon="13.535496333548771"><ele>738.0</ele><time>2026-05-03T15:09:43.999Z</time></trkpt><trkpt lat="42.322651826410684" lon="13.535222540679857"><ele>736.6666666666666</ele><time>2026-05-03T15:09:44.999Z</time></trkpt><trkpt lat="42.3226980489175" lon="13.53495002241401"><ele>735.3333333333333</ele><time>2026-05-03T15:09:45.999Z</time></trkpt><trkpt lat="42.322758853873275" lon="13.534678086335282"><ele>734.0</ele><time>2026-05-03T15:09:46.999Z</time></trkpt><trkpt lat="42.32283229343025" lon="13.534403808587117"><ele>733.6666666666666</ele><time>2026-05-03T15:09:47.999Z</time></trkpt><trkpt lat="42.32292100096601" lon="13.534130488205115"><ele>733.3333333333334</ele><time>2026-05-03T15:09:48.999Z</time></trkpt><trkpt lat="42.323018408905355" lon="13.533853790619862"><ele>733.0</ele><time>2026-05-03T15:09:49.999Z</time></trkpt><trkpt lat="42.323123614552074" lon="13.533579419628435"><ele>733.0</ele><time>2026-05-03T15:09:50.999Z</time></trkpt><trkpt lat="42.32323846285819" lon="13.533308266774593"><ele>733.0</ele><time>2026-05-03T15:09:51.999Z</time></trkpt><trkpt lat="42.323370919936" lon="13.533033189137491"><ele>728.0</ele><time>2026-05-03T15:09:52.999Z</time></trkpt><trkpt lat="42.32348422585229" lon="13.532746359294785"><ele>723.0</ele><time>2026-05-03T15:09:53.999Z</time></trkpt><trkpt lat="42.32359118571136" lon="13.532463990559405"><ele>723.0</ele><time>2026-05-03T15:09:54.999Z</time></trkpt><trkpt lat="42.32369710239094" lon="13.532196000396775"><ele>723.0</ele><time>2026-05-03T15:09:55.999Z</time></trkpt><trkpt lat="42.323800291514566" lon="13.531933897808239"><ele>723.0</ele><time>2026-05-03T15:09:56.999Z</time></trkpt><trkpt lat="42.32390198065075" lon="13.531678782067326"><ele>721.6666666666666</ele><time>2026-05-03T15:09:57.999Z</time></trkpt><trkpt lat="42.32400299118792" lon="13.531424965946318"><ele>720.3333333333333</ele><time>2026-05-03T15:09:58.999Z</time></trkpt><trkpt lat="42.324104825112904" lon="13.531169382846517"><ele>719.0</ele><time>2026-05-03T15:09:59.999Z</time></trkpt><trkpt lat="42.324201370513386" lon="13.530921630786532"><ele>717.0</ele><time>2026-05-03T15:10:00.999Z</time></trkpt><trkpt lat="42.32428216879874" lon="13.530686546592758"><ele>715.0</ele><time>2026-05-03T15:10:01.999Z</time></trkpt><trkpt lat="42.32434802240092" lon="13.530457570771565"><ele>713.0</ele><time>2026-05-03T15:10:02.999Z</time></trkpt><trkpt lat="42.32440455737012" lon="13.530226216888435"><ele>710.6666666666666</ele><time>2026-05-03T15:10:03.999Z</time></trkpt><trkpt lat="42.32444925381982" lon="13.529999812391805"><ele>708.3333333333334</ele><time>2026-05-03T15:10:04.999Z</time></trkpt><trkpt lat="42.324476762488416" lon="13.529777194340587"><ele>706.0</ele><time>2026-05-03T15:10:05.999Z</time></trkpt><trkpt lat="42.32448846238077" lon="13.529570258333756"><ele>705.0</ele><time>2026-05-03T15:10:06.999Z</time></trkpt><trkpt lat="42.32449132148864" lon="13.52936592358663"><ele>704.0</ele><time>2026-05-03T15:10:07.999Z</time></trkpt><trkpt lat="42.32448654538759" lon="13.529162053260873"><ele>703.0</ele><time>2026-05-03T15:10:08.999Z</time></trkpt><trkpt lat="42.32447207460425" lon="13.52894427731677"><ele>702.3333333333334</ele><time>2026-05-03T15:10:09.999Z</time></trkpt><trkpt lat="42.324448876444364" lon="13.528711288926047"><ele>701.6666666666666</ele><time>2026-05-03T15:10:10.999Z</time></trkpt><trkpt lat="42.324412150401535" lon="13.528449549270851"><ele>701.0</ele><time>2026-05-03T15:10:11.999Z</time></trkpt><trkpt lat="42.32437974394851" lon="13.52815589301342"><ele>699.3333333333333</ele><time>2026-05-03T15:10:12.999Z</time></trkpt><trkpt lat="42.3243532839396" lon="13.527855773222212"><ele>697.6666666666666</ele><time>2026-05-03T15:10:13.999Z</time></trkpt><trkpt lat="42.324328683779385" lon="13.527581079468138"><ele>696.0</ele><time>2026-05-03T15:10:14.999Z</time></trkpt><trkpt lat="42.32430547668623" lon="13.527332815547258"><ele>696.0</ele><time>2026-05-03T15:10:15.999Z</time></trkpt><trkpt lat="42.324280634269755" lon="13.52708813319909"><ele>696.0</ele><time>2026-05-03T15:10:16.999Z</time></trkpt><trkpt lat="42.32423950624448" lon="13.526817120116585"><ele>696.0</ele><time>2026-05-03T15:10:17.999Z</time></trkpt><trkpt lat="42.32419589935111" lon="13.5265193848972"><ele>694.0</ele><time>2026-05-03T15:10:18.999Z</time></trkpt><trkpt lat="42.32415991723219" lon="13.526214867697947"><ele>692.0</ele><time>2026-05-03T15:10:19.999Z</time></trkpt><trkpt lat="42.324121855734255" lon="13.525916954221598"><ele>692.0</ele><time>2026-05-03T15:10:20.999Z</time></trkpt><trkpt lat="42.3240780684855" lon="13.525623409855289"><ele>692.0</ele><time>2026-05-03T15:10:21.999Z</time></trkpt><trkpt lat="42.32402730951683" lon="13.525336594848282"><ele>692.0</ele><time>2026-05-03T15:10:22.999Z</time></trkpt><trkpt lat="42.32397397755687" lon="13.52504724293683"><ele>690.6666666666666</ele><time>2026-05-03T15:10:23.999Z</time></trkpt><trkpt lat="42.32392689405084" lon="13.524760914567223"><ele>689.3333333333334</ele><time>2026-05-03T15:10:24.999Z</time></trkpt><trkpt lat="42.32388300300823" lon="13.52448246463378"><ele>688.0</ele><time>2026-05-03T15:10:25.999Z</time></trkpt><trkpt lat="42.32383904059153" lon="13.524217729459082"><ele>684.3333333333334</ele><time>2026-05-03T15:10:26.999Z</time></trkpt><trkpt lat="42.323796570538974" lon="13.523966353541429"><ele>680.6666666666666</ele><time>2026-05-03T15:10:27.999Z</time></trkpt><trkpt lat="42.32375603327381" lon="13.523715523722958"><ele>677.0</ele><time>2026-05-03T15:10:28.999Z</time></trkpt><trkpt lat="42.32371826432017" lon="13.52347108733951"><ele>675.6666666666666</ele><time>2026-05-03T15:10:29.999Z</time></trkpt><trkpt lat="42.32368119806984" lon="13.523243441288173"><ele>674.3333333333334</ele><time>2026-05-03T15:10:30.999Z</time></trkpt><trkpt lat="42.323641965127784" lon="13.523021831048144"><ele>673.0</ele><time>2026-05-03T15:10:31.999Z</time></trkpt><trkpt lat="42.32361064178525" lon="13.522798103856047"><ele>672.0</ele><time>2026-05-03T15:10:32.999Z</time></trkpt><trkpt lat="42.32359041276147" lon="13.52256896379984"><ele>671.0</ele><time>2026-05-03T15:10:33.999Z</time></trkpt><trkpt lat="42.323587892338566" lon="13.522333949290289"><ele>670.0</ele><time>2026-05-03T15:10:34.999Z</time></trkpt><trkpt lat="42.32360102061047" lon="13.522091025495184"><ele>668.6666666666667</ele><time>2026-05-03T15:10:35.999Z</time></trkpt><trkpt lat="42.32362421385911" lon="13.521844330895648"><ele>667.3333333333334</ele><time>2026-05-03T15:10:36.999Z</time></trkpt><trkpt lat="42.32364797109389" lon="13.521595165414928"><ele>666.0</ele><time>2026-05-03T15:10:37.999Z</time></trkpt><trkpt lat="42.32366775817077" lon="13.52134141024975"><ele>665.6666666666666</ele><time>2026-05-03T15:10:38.999Z</time></trkpt><trkpt lat="42.323685560876974" lon="13.52108192198113"><ele>665.3333333333333</ele><time>2026-05-03T15:10:39.999Z</time></trkpt><trkpt lat="42.3237057374019" lon="13.520827186579448"><ele>665.0</ele><time>2026-05-03T15:10:40.999Z</time></trkpt><trkpt lat="42.32372657826594" lon="13.520585049056866"><ele>664.3333333333333</ele><time>2026-05-03T15:10:41.999Z</time></trkpt><trkpt lat="42.323748313826776" lon="13.520351433718393"><ele>663.6666666666666</ele><time>2026-05-03T15:10:42.999Z</time></trkpt><trkpt lat="42.32376878232019" lon="13.520121992587937"><ele>663.0</ele><time>2026-05-03T15:10:43.999Z</time></trkpt><trkpt lat="42.323787978598034" lon="13.519895057218488"><ele>663.0</ele><time>2026-05-03T15:10:44.999Z</time></trkpt><trkpt lat="42.32380798577285" lon="13.519672136551966"><ele>663.0</ele><time>2026-05-03T15:10:45.999Z</time></trkpt><trkpt lat="42.32382617640207" lon="13.519445892001283"><ele>663.0</ele><time>2026-05-03T15:10:46.999Z</time></trkpt><trkpt lat="42.32384422231484" lon="13.519216528158386"><ele>662.3333333333334</ele><time>2026-05-03T15:10:47.999Z</time></trkpt><trkpt lat="42.32386406783426" lon="13.518982429037097"><ele>661.6666666666667</ele><time>2026-05-03T15:10:48.999Z</time></trkpt><trkpt lat="42.32388420767639" lon="13.518747765184356"><ele>661.0</ele><time>2026-05-03T15:10:49.999Z</time></trkpt><trkpt lat="42.32390536216995" lon="13.518511482719541"><ele>661.0</ele><time>2026-05-03T15:10:50.999Z</time></trkpt><trkpt lat="42.32392430145491" lon="13.5182715508726"><ele>661.0</ele><time>2026-05-03T15:10:51.999Z</time></trkpt><trkpt lat="42.323944693366506" lon="13.518030889668118"><ele>661.0</ele><time>2026-05-03T15:10:52.999Z</time></trkpt><trkpt lat="42.32396544438016" lon="13.517785028579194"><ele>659.3333333333334</ele><time>2026-05-03T15:10:53.999Z</time></trkpt><trkpt lat="42.32398446480491" lon="13.517541493199367"><ele>657.6666666666666</ele><time>2026-05-03T15:10:54.999Z</time></trkpt><trkpt lat="42.32400222432541" lon="13.517298899934177"><ele>656.0</ele><time>2026-05-03T15:10:55.999Z</time></trkpt><trkpt lat="42.32402039343059" lon="13.517057961506119"><ele>654.3333333333333</ele><time>2026-05-03T15:10:56.999Z</time></trkpt><trkpt lat="42.32404345248202" lon="13.516817323985745"><ele>652.6666666666666</ele><time>2026-05-03T15:10:57.999Z</time></trkpt><trkpt lat="42.324061565472164" lon="13.51657511824302"><ele>651.0</ele><time>2026-05-03T15:10:58.999Z</time></trkpt><trkpt lat="42.324080742229675" lon="13.516334231572634"><ele>650.0</ele><time>2026-05-03T15:10:59.999Z</time></trkpt><trkpt lat="42.32410023666315" lon="13.516097073357912"><ele>649.0</ele><time>2026-05-03T15:11:00.999Z</time></trkpt><trkpt lat="42.32411948934842" lon="13.515856437911186"><ele>648.0</ele><time>2026-05-03T15:11:01.999Z</time></trkpt><trkpt lat="42.32414018644694" lon="13.51561857486668"><ele>647.3333333333334</ele><time>2026-05-03T15:11:02.999Z</time></trkpt><trkpt lat="42.3241590756116" lon="13.515385633413885"><ele>646.6666666666667</ele><time>2026-05-03T15:11:03.999Z</time></trkpt><trkpt lat="42.32417681297577" lon="13.515154166141246"><ele>646.0</ele><time>2026-05-03T15:11:04.999Z</time></trkpt><trkpt lat="42.32419753256448" lon="13.514928493463461"><ele>646.0</ele><time>2026-05-03T15:11:05.999Z</time></trkpt><trkpt lat="42.32421915457572" lon="13.514697812997046"><ele>646.0</ele><time>2026-05-03T15:11:06.999Z</time></trkpt><trkpt lat="42.32424074558871" lon="13.514457404910962"><ele>646.0</ele><time>2026-05-03T15:11:07.999Z</time></trkpt><trkpt lat="42.32426156644956" lon="13.514216607843572"><ele>644.6666666666667</ele><time>2026-05-03T15:11:08.999Z</time></trkpt><trkpt lat="42.32428131020162" lon="13.513972676490752"><ele>643.3333333333334</ele><time>2026-05-03T15:11:09.999Z</time></trkpt><trkpt lat="42.32430041751855" lon="13.513728532715886"><ele>642.0</ele><time>2026-05-03T15:11:10.999Z</time></trkpt><trkpt lat="42.32431804520175" lon="13.513487401716532"><ele>641.3333333333334</ele><time>2026-05-03T15:11:11.999Z</time></trkpt><trkpt lat="42.32433477380761" lon="13.513254417803655"><ele>640.6666666666667</ele><time>2026-05-03T15:11:12.999Z</time></trkpt><trkpt lat="42.32435320255979" lon="13.513031168946846"><ele>640.0</ele><time>2026-05-03T15:11:13.999Z</time></trkpt><trkpt lat="42.324371537882584" lon="13.512808652495059"><ele>639.3333333333334</ele><time>2026-05-03T15:11:15Z</time></trkpt><trkpt lat="42.324391652608305" lon="13.51258802513839"><ele>638.6666666666666</ele><time>2026-05-03T15:11:16Z</time></trkpt><trkpt lat="42.324410305019875" lon="13.512363124030983"><ele>638.0</ele><time>2026-05-03T15:11:17Z</time></trkpt><trkpt lat="42.32442953536785" lon="13.51214217469233"><ele>637.6666666666666</ele><time>2026-05-03T15:11:18Z</time></trkpt><trkpt lat="42.324448852701565" lon="13.51192417802514"><ele>637.3333333333334</ele><time>2026-05-03T15:11:19Z</time></trkpt><trkpt lat="42.32446792088901" lon="13.511705468887442"><ele>637.0</ele><time>2026-05-03T15:11:20Z</time></trkpt><trkpt lat="42.324485089643645" lon="13.511484955655764"><ele>637.0</ele><time>2026-05-03T15:11:21Z</time></trkpt><trkpt lat="42.32450196332288" lon="13.511265636248778"><ele>637.0</ele><time>2026-05-03T15:11:22Z</time></trkpt><trkpt lat="42.32452257672451" lon="13.511044291023156"><ele>637.0</ele><time>2026-05-03T15:11:23Z</time></trkpt><trkpt lat="42.324546095330916" lon="13.51082348751867"><ele>635.6666666666667</ele><time>2026-05-03T15:11:24Z</time></trkpt><trkpt lat="42.32456809914844" lon="13.510600628203317"><ele>634.3333333333334</ele><time>2026-05-03T15:11:25Z</time></trkpt><trkpt lat="42.32459008600674" lon="13.510374614004158"><ele>633.0</ele><time>2026-05-03T15:11:26Z</time></trkpt><trkpt lat="42.324611572499194" lon="13.510148343909858"><ele>632.0</ele><time>2026-05-03T15:11:27Z</time></trkpt><trkpt lat="42.32463588797885" lon="13.509916528799522"><ele>631.0</ele><time>2026-05-03T15:11:28Z</time></trkpt><trkpt lat="42.32465980916339" lon="13.509681758783305"><ele>630.0</ele><time>2026-05-03T15:11:29Z</time></trkpt><trkpt lat="42.32468181998417" lon="13.5094555406196"><ele>630.6666666666666</ele><time>2026-05-03T15:11:30Z</time></trkpt><trkpt lat="42.32470394310293" lon="13.509226338047117"><ele>631.3333333333333</ele><time>2026-05-03T15:11:31Z</time></trkpt><trkpt lat="42.324724959140184" lon="13.508995101164574"><ele>632.0</ele><time>2026-05-03T15:11:32Z</time></trkpt><trkpt lat="42.32474688379795" lon="13.508753347100834"><ele>630.3333333333333</ele><time>2026-05-03T15:11:33Z</time></trkpt><trkpt lat="42.3247686045243" lon="13.50850499441994"><ele>628.6666666666666</ele><time>2026-05-03T15:11:34Z</time></trkpt><trkpt lat="42.324793454665745" lon="13.508252676390471"><ele>627.0</ele><time>2026-05-03T15:11:35Z</time></trkpt><trkpt lat="42.32481661601988" lon="13.507999246903198"><ele>626.0</ele><time>2026-05-03T15:11:36Z</time></trkpt><trkpt lat="42.32484112922741" lon="13.507744699727853"><ele>625.0</ele><time>2026-05-03T15:11:37Z</time></trkpt><trkpt lat="42.324867380012435" lon="13.50748352001902"><ele>624.0</ele><time>2026-05-03T15:11:38Z</time></trkpt><trkpt lat="42.32489407156218" lon="13.507216117738027"><ele>622.6666666666666</ele><time>2026-05-03T15:11:39Z</time></trkpt><trkpt lat="42.32491912112357" lon="13.50694779938937"><ele>621.3333333333333</ele><time>2026-05-03T15:11:40Z</time></trkpt><trkpt lat="42.324944375393414" lon="13.506677850122351"><ele>620.0</ele><time>2026-05-03T15:11:41Z</time></trkpt><trkpt lat="42.32497151565059" lon="13.50640689539435"><ele>618.6666666666666</ele><time>2026-05-03T15:11:42Z</time></trkpt><trkpt lat="42.32499938750592" lon="13.506132790723688"><ele>617.3333333333334</ele><time>2026-05-03T15:11:43Z</time></trkpt><trkpt lat="42.32502681764743" lon="13.505856422494249"><ele>616.0</ele><time>2026-05-03T15:11:44Z</time></trkpt><trkpt lat="42.3250537506357" lon="13.505573903474069"><ele>614.6666666666667</ele><time>2026-05-03T15:11:45Z</time></trkpt><trkpt lat="42.32508278597608" lon="13.505290424658858"><ele>613.3333333333334</ele><time>2026-05-03T15:11:46Z</time></trkpt><trkpt lat="42.325111763054615" lon="13.504998382125603"><ele>612.0</ele><time>2026-05-03T15:11:47Z</time></trkpt><trkpt lat="42.32514280891954" lon="13.504704360026224"><ele>610.0</ele><time>2026-05-03T15:11:48Z</time></trkpt><trkpt lat="42.32517301863865" lon="13.504414114168197"><ele>608.0</ele><time>2026-05-03T15:11:49Z</time></trkpt><trkpt lat="42.325201850131165" lon="13.504125072153355"><ele>606.0</ele><time>2026-05-03T15:11:50Z</time></trkpt><trkpt lat="42.32523048809242" lon="13.503838332671437"><ele>604.6666666666666</ele><time>2026-05-03T15:11:51Z</time></trkpt><trkpt lat="42.32525887301737" lon="13.503552355247205"><ele>603.3333333333333</ele><time>2026-05-03T15:11:52Z</time></trkpt><trkpt lat="42.32528729063022" lon="13.503267393967814"><ele>602.0</ele><time>2026-05-03T15:11:53Z</time></trkpt><trkpt lat="42.32531644789533" lon="13.502985778119697"><ele>601.3333333333333</ele><time>2026-05-03T15:11:54Z</time></trkpt><trkpt lat="42.32534146852329" lon="13.502704348479364"><ele>600.6666666666666</ele><time>2026-05-03T15:11:55Z</time></trkpt><trkpt lat="42.32536738822281" lon="13.502433241670769"><ele>600.0</ele><time>2026-05-03T15:11:56Z</time></trkpt><trkpt lat="42.32539145367817" lon="13.50216310805113"><ele>598.6666666666666</ele><time>2026-05-03T15:11:57Z</time></trkpt><trkpt lat="42.325415539708665" lon="13.501893262025053"><ele>597.3333333333333</ele><time>2026-05-03T15:11:58Z</time></trkpt><trkpt lat="42.32544106235079" lon="13.501619295384492"><ele>596.0</ele><time>2026-05-03T15:11:59Z</time></trkpt><trkpt lat="42.32546720736186" lon="13.501343749361089"><ele>595.3333333333333</ele><time>2026-05-03T15:12:00Z</time></trkpt><trkpt lat="42.32549493407105" lon="13.501065165736481"><ele>594.6666666666666</ele><time>2026-05-03T15:12:01Z</time></trkpt><trkpt lat="42.325522600143714" lon="13.500787271191426"><ele>594.0</ele><time>2026-05-03T15:12:02Z</time></trkpt><trkpt lat="42.32555041684571" lon="13.500508100420397"><ele>595.0</ele><time>2026-05-03T15:12:03Z</time></trkpt><trkpt lat="42.32557914783659" lon="13.500230760257736"><ele>596.0</ele><time>2026-05-03T15:12:04Z</time></trkpt><trkpt lat="42.32560618147039" lon="13.499961712019196"><ele>597.0</ele><time>2026-05-03T15:12:05Z</time></trkpt><trkpt lat="42.325635447567834" lon="13.499701539215016"><ele>596.3333333333334</ele><time>2026-05-03T15:12:06Z</time></trkpt><trkpt lat="42.32566439957164" lon="13.499445947239783"><ele>595.6666666666667</ele><time>2026-05-03T15:12:07Z</time></trkpt><trkpt lat="42.325691335908566" lon="13.49919663640454"><ele>595.0</ele><time>2026-05-03T15:12:08Z</time></trkpt><trkpt lat="42.325717611532916" lon="13.498951921947098"><ele>593.3333333333334</ele><time>2026-05-03T15:12:09Z</time></trkpt><trkpt lat="42.32574362792256" lon="13.498713731007637"><ele>591.6666666666666</ele><time>2026-05-03T15:12:10Z</time></trkpt><trkpt lat="42.325768695449604" lon="13.49848240789764"><ele>590.0</ele><time>2026-05-03T15:12:11Z</time></trkpt><trkpt lat="42.3257882298018" lon="13.498271220955498"><ele>590.0</ele><time>2026-05-03T15:12:12Z</time></trkpt><trkpt lat="42.325808614165204" lon="13.498071875103507"><ele>590.0</ele><time>2026-05-03T15:12:13Z</time></trkpt><trkpt lat="42.32582921546631" lon="13.497886616795677"><ele>590.0</ele><time>2026-05-03T15:12:13.999Z</time></trkpt><trkpt lat="42.325848684893145" lon="13.497724375316094"><ele>590.0</ele><time>2026-05-03T15:12:14.999Z</time></trkpt><trkpt lat="42.32586382997347" lon="13.497590728160313"><ele>589.2</ele><time>2026-05-03T15:12:15.999Z</time></trkpt><trkpt lat="42.325873441069376" lon="13.497466868586546"><ele>588.4</ele><time>2026-05-03T15:12:16.999Z</time></trkpt><trkpt lat="42.32588038327057" lon="13.497334683559837"><ele>587.6</ele><time>2026-05-03T15:12:17.999Z</time></trkpt><trkpt lat="42.325889629197476" lon="13.497186519184003"><ele>586.8</ele><time>2026-05-03T15:12:18.999Z</time></trkpt><trkpt lat="42.32590881035708" lon="13.497026564986559"><ele>586.0</ele><time>2026-05-03T15:12:19.999Z</time></trkpt><trkpt lat="42.32593486020328" lon="13.496858966785222"><ele>584.5</ele><time>2026-05-03T15:12:20.999Z</time></trkpt><trkpt lat="42.3259653682624" lon="13.496685477035607"><ele>583.0</ele><time>2026-05-03T15:12:21.999Z</time></trkpt><trkpt lat="42.326002715253196" lon="13.496508941173381"><ele>581.5</ele><time>2026-05-03T15:12:22.999Z</time></trkpt><trkpt lat="42.32604267237484" lon="13.496323265867442"><ele>580.0</ele><time>2026-05-03T15:12:23.999Z</time></trkpt><trkpt lat="42.326083974514454" lon="13.49612707809195"><ele>579.3333333333334</ele><time>2026-05-03T15:12:24.999Z</time></trkpt><trkpt lat="42.3261345799729" lon="13.49592740679419"><ele>578.6666666666666</ele><time>2026-05-03T15:12:25.999Z</time></trkpt><trkpt lat="42.32619120013495" lon="13.495731936265315"><ele>578.0</ele><time>2026-05-03T15:12:26.999Z</time></trkpt><trkpt lat="42.32624947004416" lon="13.495534227481125"><ele>577.0</ele><time>2026-05-03T15:12:27.999Z</time></trkpt><trkpt lat="42.32630952487859" lon="13.495331303382534"><ele>576.0</ele><time>2026-05-03T15:12:28.999Z</time></trkpt><trkpt lat="42.32637010473939" lon="13.495125646115673"><ele>575.0</ele><time>2026-05-03T15:12:29.999Z</time></trkpt><trkpt lat="42.32643202274238" lon="13.494917176664538"><ele>575.6666666666666</ele><time>2026-05-03T15:12:30.999Z</time></trkpt><trkpt lat="42.326495483775126" lon="13.494706565028318"><ele>576.3333333333334</ele><time>2026-05-03T15:12:31.999Z</time></trkpt><trkpt lat="42.32655836644209" lon="13.49449339536432"><ele>577.0</ele><time>2026-05-03T15:12:32.999Z</time></trkpt><trkpt lat="42.32662204866192" lon="13.49427672668878"><ele>577.0</ele><time>2026-05-03T15:12:33.999Z</time></trkpt><trkpt lat="42.32668817457741" lon="13.494060585786338"><ele>577.0</ele><time>2026-05-03T15:12:34.999Z</time></trkpt><trkpt lat="42.32675449228961" lon="13.493841194329354"><ele>577.0</ele><time>2026-05-03T15:12:35.999Z</time></trkpt><trkpt lat="42.326821377386054" lon="13.493620027004445"><ele>576.3333333333334</ele><time>2026-05-03T15:12:36.999Z</time></trkpt><trkpt lat="42.32689019760761" lon="13.49339222914866"><ele>575.6666666666666</ele><time>2026-05-03T15:12:37.999Z</time></trkpt><trkpt lat="42.32695882918917" lon="13.493164266236722"><ele>575.0</ele><time>2026-05-03T15:12:38.999Z</time></trkpt><trkpt lat="42.327025350417436" lon="13.492932037716049"><ele>575.3333333333333</ele><time>2026-05-03T15:12:39.999Z</time></trkpt><trkpt lat="42.327092619748356" lon="13.492702247106912"><ele>575.6666666666666</ele><time>2026-05-03T15:12:40.999Z</time></trkpt><trkpt lat="42.32715963965384" lon="13.492482314405661"><ele>576.0</ele><time>2026-05-03T15:12:41.999Z</time></trkpt><trkpt lat="42.32722528026593" lon="13.492263406512416"><ele>576.3333333333334</ele><time>2026-05-03T15:12:42.999Z</time></trkpt><trkpt lat="42.32728922305688" lon="13.492056001111411"><ele>576.6666666666667</ele><time>2026-05-03T15:12:43.999Z</time></trkpt><trkpt lat="42.3273524950039" lon="13.491847908384937"><ele>577.0</ele><time>2026-05-03T15:12:44.999Z</time></trkpt><trkpt lat="42.32741592053212" lon="13.491639531308952"><ele>577.0</ele><time>2026-05-03T15:12:45.999Z</time></trkpt><trkpt lat="42.327480147263" lon="13.491430540629487"><ele>577.0</ele><time>2026-05-03T15:12:46.999Z</time></trkpt><trkpt lat="42.32754325982978" lon="13.491218826604456"><ele>577.0</ele><time>2026-05-03T15:12:47.999Z</time></trkpt><trkpt lat="42.32760638878658" lon="13.491001831963636"><ele>577.0</ele><time>2026-05-03T15:12:48.999Z</time></trkpt><trkpt lat="42.327670529985895" lon="13.49078155180369"><ele>577.0</ele><time>2026-05-03T15:12:49.999Z</time></trkpt><trkpt lat="42.32773589283194" lon="13.490560866821436"><ele>577.0</ele><time>2026-05-03T15:12:50.999Z</time></trkpt><trkpt lat="42.32780169644651" lon="13.490341356144667"><ele>576.6666666666667</ele><time>2026-05-03T15:12:51.999Z</time></trkpt><trkpt lat="42.32786696443448" lon="13.49012465907486"><ele>576.3333333333334</ele><time>2026-05-03T15:12:52.999Z</time></trkpt><trkpt lat="42.32793261657231" lon="13.489910291306991"><ele>576.0</ele><time>2026-05-03T15:12:53.999Z</time></trkpt><trkpt lat="42.327994626742296" lon="13.489694339020904"><ele>575.6666666666666</ele><time>2026-05-03T15:12:54.999Z</time></trkpt><trkpt lat="42.32805750853412" lon="13.489475632140758"><ele>575.3333333333333</ele><time>2026-05-03T15:12:55.999Z</time></trkpt><trkpt lat="42.32812178760084" lon="13.48925417914402"><ele>575.0</ele><time>2026-05-03T15:12:56.999Z</time></trkpt><trkpt lat="42.3281865095605" lon="13.489030243625324"><ele>575.6666666666666</ele><time>2026-05-03T15:12:57.999Z</time></trkpt><trkpt lat="42.32825376363846" lon="13.488804286459867"><ele>576.3333333333334</ele><time>2026-05-03T15:12:58.999Z</time></trkpt><trkpt lat="42.328322279379904" lon="13.488577982453235"><ele>577.0</ele><time>2026-05-03T15:12:59.999Z</time></trkpt><trkpt lat="42.32839164860517" lon="13.488348460225174"><ele>577.3333333333334</ele><time>2026-05-03T15:13:00.999Z</time></trkpt><trkpt lat="42.32846123163846" lon="13.488118493484563"><ele>577.6666666666666</ele><time>2026-05-03T15:13:01.999Z</time></trkpt><trkpt lat="42.32853011200125" lon="13.487889871337858"><ele>578.0</ele><time>2026-05-03T15:13:02.999Z</time></trkpt><trkpt lat="42.328599562150295" lon="13.48766250426472"><ele>578.0</ele><time>2026-05-03T15:13:03.999Z</time></trkpt><trkpt lat="42.328668712832744" lon="13.487433154922101"><ele>578.0</ele><time>2026-05-03T15:13:04.999Z</time></trkpt><trkpt lat="42.32873612335053" lon="13.487201545703819"><ele>578.0</ele><time>2026-05-03T15:13:06Z</time></trkpt><trkpt lat="42.32880340200588" lon="13.486970413726509"><ele>578.3333333333333</ele><time>2026-05-03T15:13:07Z</time></trkpt><trkpt lat="42.32887080517285" lon="13.486739751702626"><ele>578.6666666666666</ele><time>2026-05-03T15:13:08Z</time></trkpt><trkpt lat="42.32894127935764" lon="13.486508682796075"><ele>579.0</ele><time>2026-05-03T15:13:09Z</time></trkpt><trkpt lat="42.32901203666837" lon="13.486278981868619"><ele>579.6666666666666</ele><time>2026-05-03T15:13:10Z</time></trkpt><trkpt lat="42.329081809851054" lon="13.48605068065173"><ele>580.3333333333333</ele><time>2026-05-03T15:13:11Z</time></trkpt><trkpt lat="42.32915052316367" lon="13.485824814423218"><ele>581.0</ele><time>2026-05-03T15:13:12Z</time></trkpt><trkpt lat="42.32921743573505" lon="13.485599383437815"><ele>580.6666666666666</ele><time>2026-05-03T15:13:13Z</time></trkpt><trkpt lat="42.32928434119169" lon="13.485373598467447"><ele>580.3333333333334</ele><time>2026-05-03T15:13:14Z</time></trkpt><trkpt lat="42.32935163363353" lon="13.485147793888665"><ele>580.0</ele><time>2026-05-03T15:13:15Z</time></trkpt><trkpt lat="42.32941988657146" lon="13.48492043953178"><ele>580.0</ele><time>2026-05-03T15:13:16Z</time></trkpt><trkpt lat="42.32948761781147" lon="13.484691748989768"><ele>580.0</ele><time>2026-05-03T15:13:17Z</time></trkpt><trkpt lat="42.32955474672346" lon="13.484463439113794"><ele>580.0</ele><time>2026-05-03T15:13:18Z</time></trkpt><trkpt lat="42.32962302530795" lon="13.48423345627848"><ele>580.3333333333334</ele><time>2026-05-03T15:13:19Z</time></trkpt><trkpt lat="42.32969259485933" lon="13.484004546834857"><ele>580.6666666666666</ele><time>2026-05-03T15:13:20Z</time></trkpt><trkpt lat="42.329762509570664" lon="13.483779750778767"><ele>581.0</ele><time>2026-05-03T15:13:21Z</time></trkpt><trkpt lat="42.32982864141655" lon="13.483553384361203"><ele>581.6666666666666</ele><time>2026-05-03T15:13:22Z</time></trkpt><trkpt lat="42.32989531192583" lon="13.48332378281046"><ele>582.3333333333334</ele><time>2026-05-03T15:13:23Z</time></trkpt><trkpt lat="42.32996308093632" lon="13.483094894833178"><ele>583.0</ele><time>2026-05-03T15:13:24Z</time></trkpt><trkpt lat="42.33003045585811" lon="13.4828661646841"><ele>583.0</ele><time>2026-05-03T15:13:25Z</time></trkpt><trkpt lat="42.33009886477672" lon="13.482639362782527"><ele>583.0</ele><time>2026-05-03T15:13:26Z</time></trkpt><trkpt lat="42.33016682181125" lon="13.482412338864636"><ele>583.0</ele><time>2026-05-03T15:13:27Z</time></trkpt><trkpt lat="42.3302338939822" lon="13.482191510462457"><ele>583.0</ele><time>2026-05-03T15:13:28Z</time></trkpt><trkpt lat="42.33029987481392" lon="13.48197600410449"><ele>583.0</ele><time>2026-05-03T15:13:29Z</time></trkpt><trkpt lat="42.33036518358324" lon="13.481760867655582"><ele>583.0</ele><time>2026-05-03T15:13:30Z</time></trkpt><trkpt lat="42.33042901310226" lon="13.481544969385485"><ele>583.0</ele><time>2026-05-03T15:13:31Z</time></trkpt><trkpt lat="42.33049297083397" lon="13.48132334490702"><ele>583.0</ele><time>2026-05-03T15:13:32Z</time></trkpt><trkpt lat="42.33055652812478" lon="13.481104361331981"><ele>583.0</ele><time>2026-05-03T15:13:33Z</time></trkpt><trkpt lat="42.33062026722385" lon="13.480892659804638"><ele>584.3333333333334</ele><time>2026-05-03T15:13:34Z</time></trkpt><trkpt lat="42.330681235574694" lon="13.48069412523804"><ele>585.6666666666666</ele><time>2026-05-03T15:13:35Z</time></trkpt><trkpt lat="42.33073806439999" lon="13.480495251978137"><ele>587.0</ele><time>2026-05-03T15:13:36Z</time></trkpt><trkpt lat="42.330796711127896" lon="13.480298819305235"><ele>587.25</ele><time>2026-05-03T15:13:37Z</time></trkpt><trkpt lat="42.33085363951325" lon="13.480106704506333"><ele>587.5</ele><time>2026-05-03T15:13:38Z</time></trkpt><trkpt lat="42.330908082771465" lon="13.479923379496785"><ele>587.75</ele><time>2026-05-03T15:13:39Z</time></trkpt><trkpt lat="42.3309609812469" lon="13.47974833680404"><ele>588.0</ele><time>2026-05-03T15:13:40Z</time></trkpt><trkpt lat="42.331011334185725" lon="13.479584710667528"><ele>588.25</ele><time>2026-05-03T15:13:41Z</time></trkpt><trkpt lat="42.33105799176373" lon="13.479428179218512"><ele>588.5</ele><time>2026-05-03T15:13:42Z</time></trkpt><trkpt lat="42.33110394922462" lon="13.479273597764701"><ele>588.75</ele><time>2026-05-03T15:13:43Z</time></trkpt><trkpt lat="42.33115173814641" lon="13.479111074929436"><ele>589.0</ele><time>2026-05-03T15:13:44Z</time></trkpt><trkpt lat="42.33119889763767" lon="13.478957564421334"><ele>589.0</ele><time>2026-05-03T15:13:45Z</time></trkpt><trkpt lat="42.331242602169254" lon="13.47881610293302"><ele>589.0</ele><time>2026-05-03T15:13:46Z</time></trkpt><trkpt lat="42.331280431106855" lon="13.478686654787975"><ele>589.0</ele><time>2026-05-03T15:13:47Z</time></trkpt><trkpt lat="42.33131482332208" lon="13.478552868439163"><ele>589.0</ele><time>2026-05-03T15:13:48Z</time></trkpt><trkpt lat="42.33135085870996" lon="13.478410680791098"><ele>589.0</ele><time>2026-05-03T15:13:49Z</time></trkpt><trkpt lat="42.33139396465402" lon="13.478265156841392"><ele>589.25</ele><time>2026-05-03T15:13:50Z</time></trkpt><trkpt lat="42.331440158220964" lon="13.478117989387115"><ele>589.5</ele><time>2026-05-03T15:13:51Z</time></trkpt><trkpt lat="42.33148498207031" lon="13.47796918569061"><ele>589.75</ele><time>2026-05-03T15:13:52Z</time></trkpt><trkpt lat="42.331529395497455" lon="13.477816665022974"><ele>590.0</ele><time>2026-05-03T15:13:53Z</time></trkpt><trkpt lat="42.33157805536233" lon="13.477655252312884"><ele>590.5</ele><time>2026-05-03T15:13:54Z</time></trkpt><trkpt lat="42.33163204317934" lon="13.477478390408635"><ele>591.0</ele><time>2026-05-03T15:13:55Z</time></trkpt><trkpt lat="42.33168859048341" lon="13.477294766727868"><ele>591.5</ele><time>2026-05-03T15:13:56Z</time></trkpt><trkpt lat="42.33174340802096" lon="13.477102060010171"><ele>592.0</ele><time>2026-05-03T15:13:57Z</time></trkpt><trkpt lat="42.33179933307408" lon="13.47689958233465"><ele>592.0</ele><time>2026-05-03T15:13:58Z</time></trkpt><trkpt lat="42.33185602927253" lon="13.476694052665882"><ele>592.0</ele><time>2026-05-03T15:13:59Z</time></trkpt><trkpt lat="42.331912067213274" lon="13.476487866992018"><ele>592.0</ele><time>2026-05-03T15:14:00Z</time></trkpt><trkpt lat="42.331969861315194" lon="13.476279360390592"><ele>592.0</ele><time>2026-05-03T15:14:01Z</time></trkpt><trkpt lat="42.33202600504192" lon="13.476066693960306"><ele>592.0</ele><time>2026-05-03T15:14:02Z</time></trkpt><trkpt lat="42.33208299398811" lon="13.475850942170993"><ele>592.0</ele><time>2026-05-03T15:14:03Z</time></trkpt><trkpt lat="42.33213953860618" lon="13.475630800176782"><ele>592.0</ele><time>2026-05-03T15:14:04Z</time></trkpt><trkpt lat="42.33219506579341" lon="13.475407419210395"><ele>592.0</ele><time>2026-05-03T15:14:05Z</time></trkpt><trkpt lat="42.33224892689564" lon="13.475186630894727"><ele>592.0</ele><time>2026-05-03T15:14:06Z</time></trkpt><trkpt lat="42.33230528158017" lon="13.474966922402524"><ele>592.0</ele><time>2026-05-03T15:14:07Z</time></trkpt><trkpt lat="42.33236538991142" lon="13.474743016834424"><ele>592.0</ele><time>2026-05-03T15:14:08Z</time></trkpt><trkpt lat="42.33242664712233" lon="13.47451457348893"><ele>592.0</ele><time>2026-05-03T15:14:09Z</time></trkpt><trkpt lat="42.33248684191089" lon="13.47428297803325"><ele>592.3333333333334</ele><time>2026-05-03T15:14:10Z</time></trkpt><trkpt lat="42.332545337809904" lon="13.474055281905557"><ele>592.6666666666666</ele><time>2026-05-03T15:14:11Z</time></trkpt><trkpt lat="42.33260509284757" lon="13.473829928625442"><ele>593.0</ele><time>2026-05-03T15:14:12Z</time></trkpt><trkpt lat="42.33266373084853" lon="13.473605385277777"><ele>593.0</ele><time>2026-05-03T15:14:13Z</time></trkpt><trkpt lat="42.3327220505375" lon="13.47338054026252"><ele>593.0</ele><time>2026-05-03T15:14:14Z</time></trkpt><trkpt lat="42.33277847935379" lon="13.473164754391197"><ele>593.0</ele><time>2026-05-03T15:14:15Z</time></trkpt><trkpt lat="42.33283264568412" lon="13.472955295274115"><ele>592.5</ele><time>2026-05-03T15:14:16Z</time></trkpt><trkpt lat="42.33288450716596" lon="13.472754098932244"><ele>592.0</ele><time>2026-05-03T15:14:17Z</time></trkpt><trkpt lat="42.33293419752429" lon="13.47256948203367"><ele>591.5</ele><time>2026-05-03T15:14:18Z</time></trkpt><trkpt lat="42.33298132354967" lon="13.472393702746611"><ele>591.0</ele><time>2026-05-03T15:14:19Z</time></trkpt><trkpt lat="42.33302838363885" lon="13.472226159050798"><ele>591.75</ele><time>2026-05-03T15:14:20Z</time></trkpt><trkpt lat="42.33307256484698" lon="13.472069936325287"><ele>592.5</ele><time>2026-05-03T15:14:21Z</time></trkpt><trkpt lat="42.33311531011295" lon="13.471923302073751"><ele>593.25</ele><time>2026-05-03T15:14:22Z</time></trkpt><trkpt lat="42.333160767867845" lon="13.471784014261232"><ele>594.0</ele><time>2026-05-03T15:14:23Z</time></trkpt><trkpt lat="42.333212229762125" lon="13.471654923534944"><ele>594.0</ele><time>2026-05-03T15:14:24Z</time></trkpt><trkpt lat="42.33327223351082" lon="13.471540996911571"><ele>594.0</ele><time>2026-05-03T15:14:25Z</time></trkpt><trkpt lat="42.333343863078625" lon="13.471439937171995"><ele>594.0</ele><time>2026-05-03T15:14:26Z</time></trkpt><trkpt lat="42.33342264659652" lon="13.471363705348624"><ele>594.0</ele><time>2026-05-03T15:14:27Z</time></trkpt><trkpt lat="42.33350059748485" lon="13.471307359857748"><ele>594.0</ele><time>2026-05-03T15:14:28Z</time></trkpt><trkpt lat="42.333566237200934" lon="13.47125564838544"><ele>593.7142857142858</ele><time>2026-05-03T15:14:29Z</time></trkpt><trkpt lat="42.333610229765235" lon="13.47119137014668"><ele>593.4285714285714</ele><time>2026-05-03T15:14:30Z</time></trkpt><trkpt lat="42.33363516862016" lon="13.471111155146449"><ele>593.1428571428571</ele><time>2026-05-03T15:14:31Z</time></trkpt><trkpt lat="42.33363590230263" lon="13.471012065940176"><ele>592.8571428571429</ele><time>2026-05-03T15:14:32Z</time></trkpt><trkpt lat="42.333608133130085" lon="13.470917991961906"><ele>592.5714285714286</ele><time>2026-05-03T15:14:33Z</time></trkpt><trkpt lat="42.33356734084997" lon="13.470824049668826"><ele>592.2857142857143</ele><time>2026-05-03T15:14:34Z</time></trkpt><trkpt lat="42.3335057354042" lon="13.47075618423683"><ele>592.0</ele><time>2026-05-03T15:14:35Z</time></trkpt><trkpt lat="42.33351116439028" lon="13.470605274033659"><ele>592.0</ele><time>2026-05-03T15:14:36Z</time></trkpt><trkpt lat="42.33351102083803" lon="13.470483993786036"><ele>592.0</ele><time>2026-05-03T15:14:37Z</time></trkpt><trkpt lat="42.33352365415688" lon="13.470356607399184"><ele>592.0</ele><time>2026-05-03T15:14:38Z</time></trkpt><trkpt lat="42.33354820720355" lon="13.47022559502899"><ele>592.0</ele><time>2026-05-03T15:14:39Z</time></trkpt><trkpt lat="42.33357643733137" lon="13.470088789581371"><ele>592.0</ele><time>2026-05-03T15:14:40Z</time></trkpt><trkpt lat="42.333607942809486" lon="13.46995038138551"><ele>591.75</ele><time>2026-05-03T15:14:41Z</time></trkpt><trkpt lat="42.33364623526833" lon="13.469808291118724"><ele>591.5</ele><time>2026-05-03T15:14:42Z</time></trkpt><trkpt lat="42.33368518380061" lon="13.469663165009244"><ele>591.25</ele><time>2026-05-03T15:14:43Z</time></trkpt><trkpt lat="42.33372605488748" lon="13.469518727147275"><ele>591.0</ele><time>2026-05-03T15:14:44Z</time></trkpt><trkpt lat="42.33376691140318" lon="13.469373506316593"><ele>591.0</ele><time>2026-05-03T15:14:45Z</time></trkpt><trkpt lat="42.33381158661507" lon="13.469222178504458"><ele>591.0</ele><time>2026-05-03T15:14:46Z</time></trkpt><trkpt lat="42.333857130009925" lon="13.469068289660903"><ele>591.0</ele><time>2026-05-03T15:14:47Z</time></trkpt><trkpt lat="42.33390085407086" lon="13.468909478617785"><ele>591.0</ele><time>2026-05-03T15:14:48Z</time></trkpt><trkpt lat="42.33394447826112" lon="13.46874728312091"><ele>591.5</ele><time>2026-05-03T15:14:49Z</time></trkpt><trkpt lat="42.33398879857659" lon="13.468582691423125"><ele>592.0</ele><time>2026-05-03T15:14:50Z</time></trkpt><trkpt lat="42.33403218289354" lon="13.468419007544945"><ele>592.5</ele><time>2026-05-03T15:14:51Z</time></trkpt><trkpt lat="42.33407803164929" lon="13.468255896405402"><ele>593.0</ele><time>2026-05-03T15:14:52Z</time></trkpt><trkpt lat="42.33412741866012" lon="13.46808687172601"><ele>592.5</ele><time>2026-05-03T15:14:53Z</time></trkpt><trkpt lat="42.33417693994353" lon="13.467920667369764"><ele>592.0</ele><time>2026-05-03T15:14:54Z</time></trkpt><trkpt lat="42.33422684167415" lon="13.467747469076997"><ele>591.5</ele><time>2026-05-03T15:14:55Z</time></trkpt><trkpt lat="42.334275003317344" lon="13.46757387582215"><ele>591.0</ele><time>2026-05-03T15:14:56Z</time></trkpt><trkpt lat="42.334322257702965" lon="13.467396906655788"><ele>591.0</ele><time>2026-05-03T15:14:57Z</time></trkpt><trkpt lat="42.33437145823081" lon="13.467216069706847"><ele>591.0</ele><time>2026-05-03T15:14:58Z</time></trkpt><trkpt lat="42.33442196075409" lon="13.467033669644591"><ele>591.0</ele><time>2026-05-03T15:14:59Z</time></trkpt><trkpt lat="42.334471362321125" lon="13.466850479778914"><ele>591.0</ele><time>2026-05-03T15:15:00Z</time></trkpt><trkpt lat="42.33452295064579" lon="13.466663899956727"><ele>591.25</ele><time>2026-05-03T15:15:01Z</time></trkpt><trkpt lat="42.33457228804373" lon="13.466478125116971"><ele>591.5</ele><time>2026-05-03T15:15:02Z</time></trkpt><trkpt lat="42.33462399146006" lon="13.466291984102636"><ele>591.75</ele><time>2026-05-03T15:15:03Z</time></trkpt><trkpt lat="42.33467394635533" lon="13.466115371212533"><ele>592.0</ele><time>2026-05-03T15:15:04Z</time></trkpt><trkpt lat="42.33472070633501" lon="13.465951931781616"><ele>592.5</ele><time>2026-05-03T15:15:05Z</time></trkpt><trkpt lat="42.33476286015445" lon="13.465794914597568"><ele>593.0</ele><time>2026-05-03T15:15:06Z</time></trkpt><trkpt lat="42.33480493573469" lon="13.465633320966946"><ele>593.5</ele><time>2026-05-03T15:15:07Z</time></trkpt><trkpt lat="42.3348503857735" lon="13.465470561185311"><ele>594.0</ele><time>2026-05-03T15:15:08Z</time></trkpt><trkpt lat="42.33489726475248" lon="13.46532099607938"><ele>594.0</ele><time>2026-05-03T15:15:09Z</time></trkpt><trkpt lat="42.334940226816" lon="13.465171108950313"><ele>594.0</ele><time>2026-05-03T15:15:10Z</time></trkpt><trkpt lat="42.33498360099773" lon="13.465025796001504"><ele>594.0</ele><time>2026-05-03T15:15:11Z</time></trkpt><trkpt lat="42.33501896699771" lon="13.464890296848663"><ele>594.0</ele><time>2026-05-03T15:15:12.001Z</time></trkpt><trkpt lat="42.3350508631568" lon="13.464770835788325"><ele>594.0</ele><time>2026-05-03T15:15:13.001Z</time></trkpt><trkpt lat="42.335084992306875" lon="13.464648323920404"><ele>594.2</ele><time>2026-05-03T15:15:14.001Z</time></trkpt><trkpt lat="42.33512113835065" lon="13.464519467134936"><ele>594.4</ele><time>2026-05-03T15:15:15.001Z</time></trkpt><trkpt lat="42.3351573560104" lon="13.464398709868581"><ele>594.6</ele><time>2026-05-03T15:15:16.001Z</time></trkpt><trkpt lat="42.33518826080728" lon="13.464288576579094"><ele>594.8</ele><time>2026-05-03T15:15:17.001Z</time></trkpt><trkpt lat="42.335219036325924" lon="13.464165110504245"><ele>595.0</ele><time>2026-05-03T15:15:18.001Z</time></trkpt><trkpt lat="42.33525565018142" lon="13.46403280460869"><ele>595.0</ele><time>2026-05-03T15:15:19.001Z</time></trkpt><trkpt lat="42.335296784747115" lon="13.463895627470986"><ele>595.0</ele><time>2026-05-03T15:15:20.001Z</time></trkpt><trkpt lat="42.33533694267532" lon="13.463756034901843"><ele>595.0</ele><time>2026-05-03T15:15:21.001Z</time></trkpt><trkpt lat="42.335378157000505" lon="13.463612605603329"><ele>595.0</ele><time>2026-05-03T15:15:22.001Z</time></trkpt><trkpt lat="42.33542147538755" lon="13.463465002491166"><ele>594.75</ele><time>2026-05-03T15:15:23.001Z</time></trkpt><trkpt lat="42.33546466074121" lon="13.463312748468741"><ele>594.5</ele><time>2026-05-03T15:15:24.001Z</time></trkpt><trkpt lat="42.3355059451195" lon="13.463155004607575"><ele>594.25</ele><time>2026-05-03T15:15:25.001Z</time></trkpt><trkpt lat="42.335550315864914" lon="13.463002438833277"><ele>594.0</ele><time>2026-05-03T15:15:26.001Z</time></trkpt><trkpt lat="42.33559344153625" lon="13.462845447079028"><ele>594.75</ele><time>2026-05-03T15:15:27.001Z</time></trkpt><trkpt lat="42.335635144413914" lon="13.462683203467474"><ele>595.5</ele><time>2026-05-03T15:15:28.001Z</time></trkpt><trkpt lat="42.335678532134104" lon="13.462519872779914"><ele>596.25</ele><time>2026-05-03T15:15:29.001Z</time></trkpt><trkpt lat="42.335724258128145" lon="13.46235322304333"><ele>597.0</ele><time>2026-05-03T15:15:30.001Z</time></trkpt><trkpt lat="42.33577253032138" lon="13.46217540761802"><ele>596.25</ele><time>2026-05-03T15:15:31.001Z</time></trkpt><trkpt lat="42.335820614217525" lon="13.462003273611634"><ele>595.5</ele><time>2026-05-03T15:15:32.001Z</time></trkpt><trkpt lat="42.3358662733496" lon="13.461834076673094"><ele>594.75</ele><time>2026-05-03T15:15:33.001Z</time></trkpt><trkpt lat="42.33590970693693" lon="13.461668007385123"><ele>594.0</ele><time>2026-05-03T15:15:34.001Z</time></trkpt><trkpt lat="42.335953937278276" lon="13.461500635479728"><ele>594.0</ele><time>2026-05-03T15:15:35Z</time></trkpt><trkpt lat="42.33600213630249" lon="13.461330061103707"><ele>594.0</ele><time>2026-05-03T15:15:36Z</time></trkpt><trkpt lat="42.33605091841935" lon="13.461160616615217"><ele>594.0</ele><time>2026-05-03T15:15:37Z</time></trkpt><trkpt lat="42.33609936241218" lon="13.460995092818493"><ele>594.0</ele><time>2026-05-03T15:15:38Z</time></trkpt><trkpt lat="42.33614527562608" lon="13.460841657083161"><ele>594.0</ele><time>2026-05-03T15:15:39Z</time></trkpt><trkpt lat="42.33618672172547" lon="13.460689093918527"><ele>594.0</ele><time>2026-05-03T15:15:40Z</time></trkpt><trkpt lat="42.33622889170335" lon="13.460530884566902"><ele>594.0</ele><time>2026-05-03T15:15:41Z</time></trkpt><trkpt lat="42.33627309228325" lon="13.460369432810674"><ele>594.0</ele><time>2026-05-03T15:15:42Z</time></trkpt><trkpt lat="42.33631797031554" lon="13.460207446644905"><ele>594.25</ele><time>2026-05-03T15:15:43Z</time></trkpt><trkpt lat="42.33636346064695" lon="13.460043062859755"><ele>594.5</ele><time>2026-05-03T15:15:44Z</time></trkpt><trkpt lat="42.33640885726638" lon="13.459877211285459"><ele>594.75</ele><time>2026-05-03T15:15:45Z</time></trkpt><trkpt lat="42.33645511714466" lon="13.459710584045782"><ele>595.0</ele><time>2026-05-03T15:15:46Z</time></trkpt><trkpt lat="42.336500658431625" lon="13.459552254885185"><ele>595.0</ele><time>2026-05-03T15:15:47Z</time></trkpt><trkpt lat="42.33654361129136" lon="13.459394346517334"><ele>595.0</ele><time>2026-05-03T15:15:48Z</time></trkpt><trkpt lat="42.33658662820296" lon="13.459234077298346"><ele>595.0</ele><time>2026-05-03T15:15:49Z</time></trkpt><trkpt lat="42.33663092797966" lon="13.459070023167072"><ele>595.0</ele><time>2026-05-03T15:15:50Z</time></trkpt><trkpt lat="42.33667536792004" lon="13.458911106407498"><ele>595.0</ele><time>2026-05-03T15:15:51Z</time></trkpt><trkpt lat="42.336717237152605" lon="13.45875789050337"><ele>595.0</ele><time>2026-05-03T15:15:52Z</time></trkpt><trkpt lat="42.33675852254264" lon="13.458602445031007"><ele>595.0</ele><time>2026-05-03T15:15:53Z</time></trkpt><trkpt lat="42.336801195401456" lon="13.458448291745249"><ele>595.0</ele><time>2026-05-03T15:15:54Z</time></trkpt><trkpt lat="42.33684309950732" lon="13.458306036836484"><ele>595.0</ele><time>2026-05-03T15:15:55Z</time></trkpt><trkpt lat="42.33688044395576" lon="13.458179432530189"><ele>595.0</ele><time>2026-05-03T15:15:56Z</time></trkpt><trkpt lat="42.33691372763184" lon="13.458063768215558"><ele>595.0</ele><time>2026-05-03T15:15:57Z</time></trkpt><trkpt lat="42.33694814103694" lon="13.457955977908435"><ele>595.0</ele><time>2026-05-03T15:15:58Z</time></trkpt><trkpt lat="42.33700104683129" lon="13.457861082404726"><ele>595.0</ele><time>2026-05-03T15:15:59Z</time></trkpt><trkpt lat="42.337067066918486" lon="13.457777777615274"><ele>595.1666666666667</ele><time>2026-05-03T15:16:00Z</time></trkpt><trkpt lat="42.33713110787985" lon="13.457700327934647"><ele>595.3333333333334</ele><time>2026-05-03T15:16:01Z</time></trkpt><trkpt lat="42.33718151638233" lon="13.457617833314531"><ele>595.5</ele><time>2026-05-03T15:16:02Z</time></trkpt><trkpt lat="42.337209659098285" lon="13.457526727131546"><ele>595.6666666666666</ele><time>2026-05-03T15:16:03Z</time></trkpt><trkpt lat="42.337210735920586" lon="13.457427317867749"><ele>595.8333333333333</ele><time>2026-05-03T15:16:04Z</time></trkpt><trkpt lat="42.33719057615053" lon="13.457305597213548"><ele>596.0</ele><time>2026-05-03T15:16:05Z</time></trkpt><trkpt lat="42.337175847210695" lon="13.457166536708687"><ele>596.0</ele><time>2026-05-03T15:16:06Z</time></trkpt><trkpt lat="42.33719366968152" lon="13.4570154364024"><ele>596.0</ele><time>2026-05-03T15:16:07Z</time></trkpt><trkpt lat="42.3372299122098" lon="13.456847512065371"><ele>596.0</ele><time>2026-05-03T15:16:08Z</time></trkpt><trkpt lat="42.33726271678863" lon="13.456665900225582"><ele>596.0</ele><time>2026-05-03T15:16:09Z</time></trkpt><trkpt lat="42.33729222996421" lon="13.456472473887404"><ele>597.0</ele><time>2026-05-03T15:16:10Z</time></trkpt><trkpt lat="42.33731610168681" lon="13.456272928115602"><ele>598.0</ele><time>2026-05-03T15:16:11Z</time></trkpt><trkpt lat="42.33733020446687" lon="13.456070904171602"><ele>599.0</ele><time>2026-05-03T15:16:12Z</time></trkpt><trkpt lat="42.33733144538308" lon="13.455869795023158"><ele>600.0</ele><time>2026-05-03T15:16:13Z</time></trkpt><trkpt lat="42.3373179551584" lon="13.455671515658524"><ele>600.0</ele><time>2026-05-03T15:16:14Z</time></trkpt><trkpt lat="42.33729181757282" lon="13.455474060150621"><ele>600.0</ele><time>2026-05-03T15:16:15Z</time></trkpt><trkpt lat="42.33725751692358" lon="13.455278084283895"><ele>600.0</ele><time>2026-05-03T15:16:16Z</time></trkpt><trkpt lat="42.33722144520887" lon="13.455079554897845"><ele>600.0</ele><time>2026-05-03T15:16:17Z</time></trkpt><trkpt lat="42.33718521410769" lon="13.454885206867605"><ele>599.75</ele><time>2026-05-03T15:16:18Z</time></trkpt><trkpt lat="42.33714812637743" lon="13.454704049064302"><ele>599.5</ele><time>2026-05-03T15:16:19Z</time></trkpt><trkpt lat="42.337108620773854" lon="13.454532338169065"><ele>599.25</ele><time>2026-05-03T15:16:20Z</time></trkpt><trkpt lat="42.337073100281955" lon="13.454355674232167"><ele>599.0</ele><time>2026-05-03T15:16:21Z</time></trkpt><trkpt lat="42.33703940162568" lon="13.454182958355938"><ele>599.0</ele><time>2026-05-03T15:16:22Z</time></trkpt><trkpt lat="42.33700587464593" lon="13.454012556888863"><ele>599.0</ele><time>2026-05-03T15:16:23Z</time></trkpt><trkpt lat="42.33697174631437" lon="13.453844956876024"><ele>599.0</ele><time>2026-05-03T15:16:24Z</time></trkpt><trkpt lat="42.3369311579782" lon="13.453682606179012"><ele>599.0</ele><time>2026-05-03T15:16:25Z</time></trkpt><trkpt lat="42.33688975285011" lon="13.453531166187897"><ele>599.5</ele><time>2026-05-03T15:16:26Z</time></trkpt><trkpt lat="42.3368520877244" lon="13.45338036121284"><ele>600.0</ele><time>2026-05-03T15:16:27Z</time></trkpt><trkpt lat="42.33681628372687" lon="13.453224398323774"><ele>600.5</ele><time>2026-05-03T15:16:28Z</time></trkpt><trkpt lat="42.33678334912601" lon="13.45307843533416"><ele>601.0</ele><time>2026-05-03T15:16:29Z</time></trkpt><trkpt lat="42.33675408502648" lon="13.452938692731097"><ele>601.4</ele><time>2026-05-03T15:16:30Z</time></trkpt><trkpt lat="42.3367282806194" lon="13.452804531901354"><ele>601.8</ele><time>2026-05-03T15:16:31Z</time></trkpt><trkpt lat="42.33670436769379" lon="13.452665539540567"><ele>602.1999999999999</ele><time>2026-05-03T15:16:32Z</time></trkpt><trkpt lat="42.336678345908325" lon="13.452524155599082"><ele>602.6</ele><time>2026-05-03T15:16:33Z</time></trkpt><trkpt lat="42.33664822428447" lon="13.452377342046791"><ele>603.0</ele><time>2026-05-03T15:16:34Z</time></trkpt><trkpt lat="42.336618859003" lon="13.452222663009428"><ele>603.0</ele><time>2026-05-03T15:16:35Z</time></trkpt><trkpt lat="42.33659462076516" lon="13.452078389833295"><ele>603.0</ele><time>2026-05-03T15:16:36Z</time></trkpt><trkpt lat="42.33657559071299" lon="13.451942428218352"><ele>603.0</ele><time>2026-05-03T15:16:37Z</time></trkpt><trkpt lat="42.336562093592654" lon="13.451822941830098"><ele>603.0</ele><time>2026-05-03T15:16:38Z</time></trkpt><trkpt lat="42.33655500735424" lon="13.451711097586317"><ele>603.0</ele><time>2026-05-03T15:16:39Z</time></trkpt><trkpt lat="42.33656667726109" lon="13.45159574092057"><ele>603.0</ele><time>2026-05-03T15:16:40Z</time></trkpt><trkpt lat="42.33660656806525" lon="13.451477290400595"><ele>603.0</ele><time>2026-05-03T15:16:41Z</time></trkpt><trkpt lat="42.336647105100916" lon="13.451341313398691"><ele>603.0</ele><time>2026-05-03T15:16:42Z</time></trkpt><trkpt lat="42.33668840193344" lon="13.451182225072069"><ele>603.0</ele><time>2026-05-03T15:16:43Z</time></trkpt><trkpt lat="42.33672762361684" lon="13.45100516908912"><ele>603.6666666666666</ele><time>2026-05-03T15:16:44Z</time></trkpt><trkpt lat="42.33674489095196" lon="13.450800613374284"><ele>604.3333333333333</ele><time>2026-05-03T15:16:45Z</time></trkpt><trkpt lat="42.33681368426165" lon="13.45059210840329"><ele>605.0</ele><time>2026-05-03T15:16:46Z</time></trkpt><trkpt lat="42.33685712953374" lon="13.450378263179346"><ele>605.6666666666666</ele><time>2026-05-03T15:16:47Z</time></trkpt><trkpt lat="42.33690650861241" lon="13.45014193127758"><ele>606.3333333333334</ele><time>2026-05-03T15:16:48Z</time></trkpt><trkpt lat="42.336950846771046" lon="13.44994127633668"><ele>607.0</ele><time>2026-05-03T15:16:49Z</time></trkpt><trkpt lat="42.337000511485435" lon="13.449716585655406"><ele>607.0</ele><time>2026-05-03T15:16:50Z</time></trkpt><trkpt lat="42.3370499078479" lon="13.44948926321883"><ele>607.0</ele><time>2026-05-03T15:16:51Z</time></trkpt><trkpt lat="42.337097009490705" lon="13.449265474179004"><ele>607.0</ele><time>2026-05-03T15:16:52Z</time></trkpt><trkpt lat="42.33714301986458" lon="13.44904805869794"><ele>607.0</ele><time>2026-05-03T15:16:53Z</time></trkpt><trkpt lat="42.33718382866652" lon="13.448844422465816"><ele>607.0</ele><time>2026-05-03T15:16:54Z</time></trkpt><trkpt lat="42.33721904431647" lon="13.448656403145579"><ele>607.0</ele><time>2026-05-03T15:16:55Z</time></trkpt><trkpt lat="42.33725428233983" lon="13.44849165215161"><ele>607.0</ele><time>2026-05-03T15:16:56Z</time></trkpt><trkpt lat="42.337290151697694" lon="13.44834932510359"><ele>610.2</ele><time>2026-05-03T15:16:57Z</time></trkpt><trkpt lat="42.33732741660121" lon="13.448230594886926"><ele>613.4000000000001</ele><time>2026-05-03T15:16:58Z</time></trkpt><trkpt lat="42.33737156010321" lon="13.448135334071269"><ele>616.5999999999999</ele><time>2026-05-03T15:16:59Z</time></trkpt><trkpt lat="42.33742966141117" lon="13.448045334387984"><ele>619.8</ele><time>2026-05-03T15:17:00Z</time></trkpt><trkpt lat="42.33750672915414" lon="13.447950944999969"><ele>623.0</ele><time>2026-05-03T15:17:01Z</time></trkpt><trkpt lat="42.33756503008516" lon="13.44786491116517"><ele>623.0</ele><time>2026-05-03T15:17:02Z</time></trkpt><trkpt lat="42.33760122981522" lon="13.447769930267267"><ele>623.0</ele><time>2026-05-03T15:17:03Z</time></trkpt><trkpt lat="42.33760776547524" lon="13.447668201491403"><ele>623.0</ele><time>2026-05-03T15:17:04Z</time></trkpt><trkpt lat="42.33759790441484" lon="13.447550414864736"><ele>623.0</ele><time>2026-05-03T15:17:05Z</time></trkpt><trkpt lat="42.33759641118158" lon="13.447414701906292"><ele>623.0</ele><time>2026-05-03T15:17:06Z</time></trkpt><trkpt lat="42.33761711135716" lon="13.447262290133352"><ele>623.0</ele><time>2026-05-03T15:17:07Z</time></trkpt><trkpt lat="42.33765844922629" lon="13.447094381973013"><ele>623.0</ele><time>2026-05-03T15:17:08Z</time></trkpt><trkpt lat="42.33770099862541" lon="13.446920817663326"><ele>623.0</ele><time>2026-05-03T15:17:09Z</time></trkpt><trkpt lat="42.33774550671198" lon="13.446738869708414"><ele>623.0</ele><time>2026-05-03T15:17:10Z</time></trkpt><trkpt lat="42.33778820841414" lon="13.446540814022843"><ele>623.0</ele><time>2026-05-03T15:17:11Z</time></trkpt><trkpt lat="42.337831822013456" lon="13.446332843410115"><ele>623.0</ele><time>2026-05-03T15:17:12Z</time></trkpt><trkpt lat="42.33787792530703" lon="13.446114300653601"><ele>623.0</ele><time>2026-05-03T15:17:13Z</time></trkpt><trkpt lat="42.337917054572216" lon="13.445898638267733"><ele>623.3333333333333</ele><time>2026-05-03T15:17:14Z</time></trkpt><trkpt lat="42.337924042147215" lon="13.4456805016729"><ele>623.6666666666666</ele><time>2026-05-03T15:17:15Z</time></trkpt><trkpt lat="42.337996276831554" lon="13.44544291550667"><ele>624.0</ele><time>2026-05-03T15:17:16Z</time></trkpt><trkpt lat="42.33804249568999" lon="13.445200473323716"><ele>628.6666666666666</ele><time>2026-05-03T15:17:17Z</time></trkpt><trkpt lat="42.338085740692364" lon="13.44496029503273"><ele>633.3333333333333</ele><time>2026-05-03T15:17:18.001Z</time></trkpt><trkpt lat="42.33813096505599" lon="13.444727868768519"><ele>638.0</ele><time>2026-05-03T15:17:19.001Z</time></trkpt><trkpt lat="42.33818367211691" lon="13.444497584566967"><ele>639.0</ele><time>2026-05-03T15:17:20.001Z</time></trkpt><trkpt lat="42.338248058991724" lon="13.44426550024163"><ele>640.0</ele><time>2026-05-03T15:17:21.001Z</time></trkpt><trkpt lat="42.33831625661525" lon="13.444033638011161"><ele>641.0</ele><time>2026-05-03T15:17:22.001Z</time></trkpt><trkpt lat="42.338387217321696" lon="13.443802117026685"><ele>639.6666666666666</ele><time>2026-05-03T15:17:23.001Z</time></trkpt><trkpt lat="42.33845772398703" lon="13.443571580793211"><ele>638.3333333333334</ele><time>2026-05-03T15:17:24.001Z</time></trkpt><trkpt lat="42.33852327878846" lon="13.443342356667513"><ele>637.0</ele><time>2026-05-03T15:17:25.001Z</time></trkpt><trkpt lat="42.338589000819965" lon="13.443115013008246"><ele>637.0</ele><time>2026-05-03T15:17:26.001Z</time></trkpt><trkpt lat="42.33865856257149" lon="13.442883307493457"><ele>637.0</ele><time>2026-05-03T15:17:27.001Z</time></trkpt><trkpt lat="42.338728399980226" lon="13.44265389433465"><ele>637.0</ele><time>2026-05-03T15:17:28.001Z</time></trkpt><trkpt lat="42.33879728782431" lon="13.442422196086907"><ele>637.0</ele><time>2026-05-03T15:17:29.001Z</time></trkpt><trkpt lat="42.33886457118207" lon="13.442189913958295"><ele>637.0</ele><time>2026-05-03T15:17:30.001Z</time></trkpt><trkpt lat="42.33892950923881" lon="13.441950297192449"><ele>637.0</ele><time>2026-05-03T15:17:31.001Z</time></trkpt><trkpt lat="42.33899628174721" lon="13.44171031856452"><ele>641.3333333333334</ele><time>2026-05-03T15:17:32.001Z</time></trkpt><trkpt lat="42.33906471978147" lon="13.44145810360702"><ele>645.6666666666666</ele><time>2026-05-03T15:17:33.001Z</time></trkpt><trkpt lat="42.339135930542085" lon="13.44120750539732"><ele>650.0</ele><time>2026-05-03T15:17:34.001Z</time></trkpt><trkpt lat="42.339212962078356" lon="13.440954721125946"><ele>649.3333333333333</ele><time>2026-05-03T15:17:35.001Z</time></trkpt><trkpt lat="42.33929090573837" lon="13.440706232673065"><ele>648.6666666666666</ele><time>2026-05-03T15:17:36.001Z</time></trkpt><trkpt lat="42.339381772136555" lon="13.44047261369609"><ele>648.0</ele><time>2026-05-03T15:17:37.001Z</time></trkpt><trkpt lat="42.3394904778278" lon="13.440237947573372"><ele>648.0</ele><time>2026-05-03T15:17:38.001Z</time></trkpt><trkpt lat="42.33961338052847" lon="13.440011510230873"><ele>648.0</ele><time>2026-05-03T15:17:39.001Z</time></trkpt><trkpt lat="42.3397464701047" lon="13.439807955312775"><ele>648.0</ele><time>2026-05-03T15:17:40Z</time></trkpt><trkpt lat="42.33989155906171" lon="13.439624227901119"><ele>650.3333333333334</ele><time>2026-05-03T15:17:41Z</time></trkpt><trkpt lat="42.34004422980225" lon="13.439453909922316"><ele>652.6666666666667</ele><time>2026-05-03T15:17:42Z</time></trkpt><trkpt lat="42.3402100600309" lon="13.439300048534825"><ele>655.0</ele><time>2026-05-03T15:17:43Z</time></trkpt><trkpt lat="42.34038155535111" lon="13.43916361083652"><ele>658.3333333333334</ele><time>2026-05-03T15:17:44Z</time></trkpt><trkpt lat="42.34056000919087" lon="13.439048184580312"><ele>661.6666666666666</ele><time>2026-05-03T15:17:45Z</time></trkpt><trkpt lat="42.3407457787937" lon="13.438951448604872"><ele>665.0</ele><time>2026-05-03T15:17:46Z</time></trkpt><trkpt lat="42.340933963172645" lon="13.438868381010682"><ele>665.0</ele><time>2026-05-03T15:17:47Z</time></trkpt><trkpt lat="42.34112071114138" lon="13.438800686526408"><ele>665.0</ele><time>2026-05-03T15:17:48Z</time></trkpt><trkpt lat="42.34130740311339" lon="13.438750056112042"><ele>665.0</ele><time>2026-05-03T15:17:49Z</time></trkpt><trkpt lat="42.34149726449845" lon="13.438705700676692"><ele>665.0</ele><time>2026-05-03T15:17:50Z</time></trkpt><trkpt lat="42.341693022868554" lon="13.438652001010349"><ele>665.0</ele><time>2026-05-03T15:17:51Z</time></trkpt><trkpt lat="42.34189854829846" lon="13.43858285165885"><ele>665.0</ele><time>2026-05-03T15:17:52Z</time></trkpt><trkpt lat="42.34211536687547" lon="13.438509849066081"><ele>667.3333333333333</ele><time>2026-05-03T15:17:53Z</time></trkpt><trkpt lat="42.34232694642183" lon="13.438437089779418"><ele>669.6666666666666</ele><time>2026-05-03T15:17:54Z</time></trkpt><trkpt lat="42.34253584598616" lon="13.438357660929684"><ele>672.0</ele><time>2026-05-03T15:17:55Z</time></trkpt><trkpt lat="42.342744948175074" lon="13.438252789868708"><ele>672.0</ele><time>2026-05-03T15:17:56Z</time></trkpt><trkpt lat="42.34294390164649" lon="13.43811299549732"><ele>672.0</ele><time>2026-05-03T15:17:57Z</time></trkpt><trkpt lat="42.343133391673085" lon="13.43795188274335"><ele>672.0</ele><time>2026-05-03T15:17:58Z</time></trkpt><trkpt lat="42.34330708498866" lon="13.437760596229014"><ele>673.5</ele><time>2026-05-03T15:17:59Z</time></trkpt><trkpt lat="42.343456248565026" lon="13.437532144283606"><ele>675.0</ele><time>2026-05-03T15:18:00Z</time></trkpt><trkpt lat="42.34359685043267" lon="13.437288030735205"><ele>673.0</ele><time>2026-05-03T15:18:01Z</time></trkpt><trkpt lat="42.34371961429207" lon="13.437027592154404"><ele>671.0</ele><time>2026-05-03T15:18:02Z</time></trkpt><trkpt lat="42.34382571220307" lon="13.436745511345194"><ele>683.5</ele><time>2026-05-03T15:18:03Z</time></trkpt><trkpt lat="42.34390793457873" lon="13.43645220837002"><ele>696.0</ele><time>2026-05-03T15:18:04Z</time></trkpt><trkpt lat="42.34396882836957" lon="13.436158664710572"><ele>696.3333333333334</ele><time>2026-05-03T15:18:05Z</time></trkpt><trkpt lat="42.3440161770556" lon="13.435860395193817"><ele>696.6666666666667</ele><time>2026-05-03T15:18:06Z</time></trkpt><trkpt lat="42.34404576473654" lon="13.435562943659674"><ele>697.0</ele><time>2026-05-03T15:18:07Z</time></trkpt><trkpt lat="42.34407817975554" lon="13.435269339078411"><ele>696.0</ele><time>2026-05-03T15:18:08Z</time></trkpt><trkpt lat="42.34411544354613" lon="13.434975898185806"><ele>695.0</ele><time>2026-05-03T15:18:09Z</time></trkpt><trkpt lat="42.34415846795112" lon="13.434690185040884"><ele>694.0</ele><time>2026-05-03T15:18:10Z</time></trkpt><trkpt lat="42.3442155326899" lon="13.434418548422581"><ele>693.3333333333334</ele><time>2026-05-03T15:18:11Z</time></trkpt><trkpt lat="42.344284399532164" lon="13.434167921453021"><ele>692.6666666666666</ele><time>2026-05-03T15:18:12Z</time></trkpt><trkpt lat="42.34436520497619" lon="13.433929494994395"><ele>692.0</ele><time>2026-05-03T15:18:13Z</time></trkpt><trkpt lat="42.34446378928961" lon="13.433697035634568"><ele>692.0</ele><time>2026-05-03T15:18:14Z</time></trkpt><trkpt lat="42.344580881717995" lon="13.43347303448116"><ele>692.0</ele><time>2026-05-03T15:18:15Z</time></trkpt><trkpt lat="42.34471247800652" lon="13.433265389148136"><ele>692.0</ele><time>2026-05-03T15:18:16Z</time></trkpt><trkpt lat="42.34485668754574" lon="13.43306765814152"><ele>694.3333333333333</ele><time>2026-05-03T15:18:17Z</time></trkpt><trkpt lat="42.34501991214633" lon="13.432882412121236"><ele>696.6666666666666</ele><time>2026-05-03T15:18:18Z</time></trkpt><trkpt lat="42.345202824853644" lon="13.432717398622476"><ele>699.0</ele><time>2026-05-03T15:18:19Z</time></trkpt><trkpt lat="42.34540148842065" lon="13.432574361064267"><ele>703.5</ele><time>2026-05-03T15:18:20Z</time></trkpt><trkpt lat="42.34561600550394" lon="13.432462554027245"><ele>708.0</ele><time>2026-05-03T15:18:21Z</time></trkpt><trkpt lat="42.345833108024955" lon="13.43236632425597"><ele>708.0</ele><time>2026-05-03T15:18:22Z</time></trkpt><trkpt lat="42.3460636571932" lon="13.432288028270603"><ele>708.0</ele><time>2026-05-03T15:18:23Z</time></trkpt><trkpt lat="42.34629516888948" lon="13.432197853675511"><ele>706.0</ele><time>2026-05-03T15:18:24Z</time></trkpt><trkpt lat="42.34652218218215" lon="13.432099925736392"><ele>704.0</ele><time>2026-05-03T15:18:25Z</time></trkpt><trkpt lat="42.34674908239177" lon="13.431998139870164"><ele>704.0</ele><time>2026-05-03T15:18:26Z</time></trkpt><trkpt lat="42.34698188931834" lon="13.431896187161037"><ele>704.0</ele><time>2026-05-03T15:18:27Z</time></trkpt><trkpt lat="42.34721778915206" lon="13.431795961789273"><ele>707.5</ele><time>2026-05-03T15:18:28Z</time></trkpt><trkpt lat="42.34745116182203" lon="13.431694603021237"><ele>711.0</ele><time>2026-05-03T15:18:29Z</time></trkpt><trkpt lat="42.34767734026702" lon="13.431593359606154"><ele>711.0</ele><time>2026-05-03T15:18:30Z</time></trkpt><trkpt lat="42.34789797632066" lon="13.431492975007318"><ele>711.0</ele><time>2026-05-03T15:18:31Z</time></trkpt><trkpt lat="42.34811343609869" lon="13.431397827342222"><ele>711.6666666666666</ele><time>2026-05-03T15:18:32Z</time></trkpt><trkpt lat="42.348325444617764" lon="13.43130440923978"><ele>712.3333333333333</ele><time>2026-05-03T15:18:33Z</time></trkpt><trkpt lat="42.34853630587845" lon="13.431210854704071"><ele>713.0</ele><time>2026-05-03T15:18:34Z</time></trkpt><trkpt lat="42.348749396526294" lon="13.43111623885618"><ele>717.0</ele><time>2026-05-03T15:18:35Z</time></trkpt><trkpt lat="42.348963442216295" lon="13.431019741793067"><ele>721.0</ele><time>2026-05-03T15:18:36Z</time></trkpt><trkpt lat="42.34917683880726" lon="13.430922947429266"><ele>721.0</ele><time>2026-05-03T15:18:37Z</time></trkpt><trkpt lat="42.34938570546457" lon="13.430824530694304"><ele>721.0</ele><time>2026-05-03T15:18:38Z</time></trkpt><trkpt lat="42.3495863314722" lon="13.430716171296444"><ele>721.0</ele><time>2026-05-03T15:18:39Z</time></trkpt><trkpt lat="42.34978061947484" lon="13.43059467195696"><ele>720.3333333333334</ele><time>2026-05-03T15:18:40Z</time></trkpt><trkpt lat="42.349972294845976" lon="13.43046121473833"><ele>719.6666666666666</ele><time>2026-05-03T15:18:41Z</time></trkpt><trkpt lat="42.35016459653042" lon="13.430318585407981"><ele>719.0</ele><time>2026-05-03T15:18:42Z</time></trkpt><trkpt lat="42.350359099648834" lon="13.430171581395122"><ele>723.3333333333333</ele><time>2026-05-03T15:18:43Z</time></trkpt><trkpt lat="42.35055508989457" lon="13.430022987988187"><ele>727.6666666666666</ele><time>2026-05-03T15:18:44Z</time></trkpt><trkpt lat="42.35074807111263" lon="13.429875989205332"><ele>732.0</ele><time>2026-05-03T15:18:45Z</time></trkpt><trkpt lat="42.35093355299218" lon="13.42973423844351"><ele>730.6666666666666</ele><time>2026-05-03T15:18:46Z</time></trkpt><trkpt lat="42.35111285456637" lon="13.429593164617268"><ele>729.3333333333333</ele><time>2026-05-03T15:18:47Z</time></trkpt><trkpt lat="42.35128626999581" lon="13.429452730396784"><ele>728.0</ele><time>2026-05-03T15:18:48Z</time></trkpt><trkpt lat="42.35144348870517" lon="13.42932246825784"><ele>732.6666666666666</ele><time>2026-05-03T15:18:49Z</time></trkpt><trkpt lat="42.35159255629442" lon="13.429202047291643"><ele>737.3333333333334</ele><time>2026-05-03T15:18:50Z</time></trkpt><trkpt lat="42.35173748093386" lon="13.429081937320339"><ele>742.0</ele><time>2026-05-03T15:18:51Z</time></trkpt><trkpt lat="42.351875969569754" lon="13.428957078867844"><ele>742.0</ele><time>2026-05-03T15:18:52Z</time></trkpt><trkpt lat="42.35200904471378" lon="13.428839027433566"><ele>742.0</ele><time>2026-05-03T15:18:53Z</time></trkpt><trkpt lat="42.35213627033008" lon="13.428726543060723"><ele>742.0</ele><time>2026-05-03T15:18:54Z</time></trkpt><trkpt lat="42.35226218573574" lon="13.42862443139158"><ele>742.0</ele><time>2026-05-03T15:18:55Z</time></trkpt><trkpt lat="42.35238512349104" lon="13.428539931557367"><ele>742.0</ele><time>2026-05-03T15:18:56Z</time></trkpt><trkpt lat="42.352509167614784" lon="13.428472997408518"><ele>742.0</ele><time>2026-05-03T15:18:57Z</time></trkpt><trkpt lat="42.35264818830893" lon="13.428427334191714"><ele>742.0</ele><time>2026-05-03T15:18:58Z</time></trkpt><trkpt lat="42.35279188323162" lon="13.428395110307203"><ele>742.0</ele><time>2026-05-03T15:18:59Z</time></trkpt><trkpt lat="42.352941687449665" lon="13.428381600549468"><ele>742.0</ele><time>2026-05-03T15:19:00Z</time></trkpt><trkpt lat="42.3530926478561" lon="13.428392267706684"><ele>742.0</ele><time>2026-05-03T15:19:00.999Z</time></trkpt><trkpt lat="42.35323792461728" lon="13.428419758635819"><ele>742.0</ele><time>2026-05-03T15:19:01.999Z</time></trkpt><trkpt lat="42.35339184953552" lon="13.428464274443023"><ele>740.0</ele><time>2026-05-03T15:19:02.999Z</time></trkpt><trkpt lat="42.35355868986219" lon="13.428533773506807"><ele>738.0</ele><time>2026-05-03T15:19:03.999Z</time></trkpt><trkpt lat="42.35373369397736" lon="13.428625188691516"><ele>736.0</ele><time>2026-05-03T15:19:04.999Z</time></trkpt><trkpt lat="42.3539184303941" lon="13.428728788869012"><ele>738.3333333333334</ele><time>2026-05-03T15:19:05.999Z</time></trkpt><trkpt lat="42.354112501739195" lon="13.42883533149648"><ele>740.6666666666666</ele><time>2026-05-03T15:19:06.999Z</time></trkpt><trkpt lat="42.354313911343496" lon="13.428945834401325"><ele>743.0</ele><time>2026-05-03T15:19:07.999Z</time></trkpt><trkpt lat="42.35452506975457" lon="13.429065240904992"><ele>743.0</ele><time>2026-05-03T15:19:08.999Z</time></trkpt><trkpt lat="42.35474013338598" lon="13.429188134266424"><ele>743.0</ele><time>2026-05-03T15:19:09.999Z</time></trkpt><trkpt lat="42.35494948650306" lon="13.429301775967208"><ele>743.0</ele><time>2026-05-03T15:19:10.999Z</time></trkpt><trkpt lat="42.35515549986807" lon="13.429408053967519"><ele>743.0</ele><time>2026-05-03T15:19:11.999Z</time></trkpt><trkpt lat="42.355359232718726" lon="13.429510386982919"><ele>743.0</ele><time>2026-05-03T15:19:12.999Z</time></trkpt><trkpt lat="42.355561283299224" lon="13.429606817413717"><ele>747.3333333333333</ele><time>2026-05-03T15:19:13.999Z</time></trkpt><trkpt lat="42.35576301645364" lon="13.42969851097614"><ele>751.6666666666666</ele><time>2026-05-03T15:19:14.999Z</time></trkpt><trkpt lat="42.3559632321401" lon="13.429779884861814"><ele>756.0</ele><time>2026-05-03T15:19:15.999Z</time></trkpt><trkpt lat="42.356164667197966" lon="13.429842956655643"><ele>756.0</ele><time>2026-05-03T15:19:16.999Z</time></trkpt><trkpt lat="42.35636832961845" lon="13.429890180075157"><ele>756.0</ele><time>2026-05-03T15:19:17.999Z</time></trkpt><trkpt lat="42.35657612981666" lon="13.42991502966706"><ele>756.0</ele><time>2026-05-03T15:19:18.999Z</time></trkpt><trkpt lat="42.35678236106556" lon="13.42991489748344"><ele>758.3333333333334</ele><time>2026-05-03T15:19:19.999Z</time></trkpt><trkpt lat="42.35698975774968" lon="13.42989252692264"><ele>760.6666666666667</ele><time>2026-05-03T15:19:20.999Z</time></trkpt><trkpt lat="42.35720605856313" lon="13.429875051613953"><ele>763.0</ele><time>2026-05-03T15:19:22.027Z</time></trkpt><trkpt lat="42.3574136224174" lon="13.42986472182556"><ele>764.6666666666667</ele><time>2026-05-03T15:19:23.016Z</time></trkpt><trkpt lat="42.35763080785952" lon="13.429846623894324"><ele>766.3333333333334</ele><time>2026-05-03T15:19:24.024Z</time></trkpt><trkpt lat="42.35783926638231" lon="13.429843989991017"><ele>768.0</ele><time>2026-05-03T15:19:25.026Z</time></trkpt><trkpt lat="42.358029515183205" lon="13.429847713642868"><ele>765.6666666666666</ele><time>2026-05-03T15:19:26.023Z</time></trkpt><trkpt lat="42.35820570459009" lon="13.429869010609341"><ele>763.3333333333333</ele><time>2026-05-03T15:19:27.015Z</time></trkpt><trkpt lat="42.35838318656598" lon="13.429899142219814"><ele>761.0</ele><time>2026-05-03T15:19:28.027Z</time></trkpt><trkpt lat="42.35856087976869" lon="13.429926185420152"><ele>761.0</ele><time>2026-05-03T15:19:28.999Z</time></trkpt><trkpt lat="42.35885717880418" lon="13.429658127653797"><ele>761.0</ele><time>2026-05-03T15:19:29.999Z</time></trkpt><trkpt lat="42.359113190590655" lon="13.429686215567214"><ele>760.0</ele><time>2026-05-03T15:19:31.001Z</time></trkpt><trkpt lat="42.35930727132031" lon="13.429738967964662"><ele>759.0</ele><time>2026-05-03T15:19:32.001Z</time></trkpt><trkpt lat="42.35949059114978" lon="13.429778978327851"><ele>758.0</ele><time>2026-05-03T15:19:33.001Z</time></trkpt><trkpt lat="42.35967107942347" lon="13.429792388297459"><ele>757.0</ele><time>2026-05-03T15:19:34.001Z</time></trkpt><trkpt lat="42.35984782893559" lon="13.429790987955984"><ele>756.0</ele><time>2026-05-03T15:19:35.001Z</time></trkpt><trkpt lat="42.36002061652991" lon="13.429760508766146"><ele>755.0</ele><time>2026-05-03T15:19:36.001Z</time></trkpt><trkpt lat="42.360189537261846" lon="13.429700534452703"><ele>757.0</ele><time>2026-05-03T15:19:37.001Z</time></trkpt><trkpt lat="42.36034598620617" lon="13.429619156580303"><ele>759.0</ele><time>2026-05-03T15:19:38.001Z</time></trkpt><trkpt lat="42.36049349654633" lon="13.429510713054032"><ele>761.0</ele><time>2026-05-03T15:19:39.001Z</time></trkpt><trkpt lat="42.36063359938387" lon="13.429389953238827"><ele>761.0</ele><time>2026-05-03T15:19:40.001Z</time></trkpt><trkpt lat="42.36076803561117" lon="13.429283786521912"><ele>761.0</ele><time>2026-05-03T15:19:41.001Z</time></trkpt><trkpt lat="42.36089801314329" lon="13.429150421669462"><ele>761.0</ele><time>2026-05-03T15:19:42Z</time></trkpt><trkpt lat="42.36103198510747" lon="13.429030877189415"><ele>761.0</ele><time>2026-05-03T15:19:43Z</time></trkpt><trkpt lat="42.361166876553604" lon="13.42891915372037"><ele>761.0</ele><time>2026-05-03T15:19:44Z</time></trkpt><trkpt lat="42.361294668184314" lon="13.428833867838533"><ele>761.0</ele><time>2026-05-03T15:19:45Z</time></trkpt><trkpt lat="42.361424822333674" lon="13.428793530510243"><ele>761.0</ele><time>2026-05-03T15:19:46Z</time></trkpt><trkpt lat="42.36156491894163" lon="13.42879114770212"><ele>758.3333333333333</ele><time>2026-05-03T15:19:47Z</time></trkpt><trkpt lat="42.361712785826434" lon="13.42882622895385"><ele>755.6666666666666</ele><time>2026-05-03T15:19:48Z</time></trkpt><trkpt lat="42.36187165006838" lon="13.428896635165241"><ele>753.0</ele><time>2026-05-03T15:19:49Z</time></trkpt><trkpt lat="42.362012875580625" lon="13.42902022193573"><ele>753.0</ele><time>2026-05-03T15:19:50Z</time></trkpt><trkpt lat="42.36215181525757" lon="13.429074529106904"><ele>753.0</ele><time>2026-05-03T15:19:51Z</time></trkpt><trkpt lat="42.362289265563895" lon="13.429095244499965"><ele>753.0</ele><time>2026-05-03T15:19:52Z</time></trkpt><trkpt lat="42.362410770441485" lon="13.429117173940574"><ele>753.0</ele><time>2026-05-03T15:19:53Z</time></trkpt><trkpt lat="42.36250882213177" lon="13.429107763628062"><ele>752.3333333333334</ele><time>2026-05-03T15:19:54Z</time></trkpt><trkpt lat="42.36258922426249" lon="13.42908133319927"><ele>751.6666666666666</ele><time>2026-05-03T15:19:55Z</time></trkpt><trkpt lat="42.36265270739953" lon="13.429048275800069"><ele>751.0</ele><time>2026-05-03T15:19:56Z</time></trkpt><trkpt lat="42.36274785654088" lon="13.429007992131798"><ele>750.3333333333333</ele><time>2026-05-03T15:19:58Z</time></trkpt><trkpt lat="42.36282253466145" lon="13.4289814549192"><ele>749.6666666666666</ele><time>2026-05-03T15:20:00Z</time></trkpt><trkpt lat="42.36290564386921" lon="13.428961240940284"><ele>749.0</ele><time>2026-05-03T15:20:02Z</time></trkpt><trkpt lat="42.36299527971026" lon="13.428945279928547"><ele>748.5</ele><time>2026-05-03T15:20:04Z</time></trkpt><trkpt lat="42.363075929034274" lon="13.428922485582397"><ele>748.0</ele><time>2026-05-03T15:20:06Z</time></trkpt><trkpt lat="42.36314658763762" lon="13.42890408947761"><ele>747.5</ele><time>2026-05-03T15:20:08Z</time></trkpt><trkpt lat="42.36322054047981" lon="13.428876190391884"><ele>747.0</ele><time>2026-05-03T15:20:11Z</time></trkpt><trkpt lat="42.36328675404188" lon="13.42885531692647"><ele>746.5</ele><time>2026-05-03T15:20:14Z</time></trkpt><trkpt lat="42.36337492206981" lon="13.428809181232989"><ele>746.0</ele><time>2026-05-03T15:20:36Z</time></trkpt><trkpt lat="42.36348182312484" lon="13.42877573783745"><ele>748.5999999999999</ele><time>2026-05-03T15:20:38Z</time></trkpt><trkpt lat="42.363567877483604" lon="13.428748438435363"><ele>751.2</ele><time>2026-05-03T15:20:39Z</time></trkpt><trkpt lat="42.36366539126356" lon="13.42871646432137"><ele>753.8</ele><time>2026-05-03T15:20:40Z</time></trkpt><trkpt lat="42.36377003726846" lon="13.42867734184961"><ele>756.4000000000001</ele><time>2026-05-03T15:20:41Z</time></trkpt><trkpt lat="42.36387903320782" lon="13.428615828364615"><ele>759.0</ele><time>2026-05-03T15:20:42Z</time></trkpt><trkpt lat="42.363995976219734" lon="13.428529806411218"><ele>759.0</ele><time>2026-05-03T15:20:43Z</time></trkpt><trkpt lat="42.364134835948704" lon="13.428450452677122"><ele>759.0</ele><time>2026-05-03T15:20:44Z</time></trkpt><trkpt lat="42.36425593790038" lon="13.428329700711693"><ele>759.0</ele><time>2026-05-03T15:20:45Z</time></trkpt><trkpt lat="42.36438227226239" lon="13.42820372738168"><ele>759.0</ele><time>2026-05-03T15:20:46Z</time></trkpt><trkpt lat="42.3644967094718" lon="13.428089889600395"><ele>759.0</ele><time>2026-05-03T15:20:47Z</time></trkpt><trkpt lat="42.36461897533855" lon="13.427993064272663"><ele>759.0</ele><time>2026-05-03T15:20:48Z</time></trkpt><trkpt lat="42.36475551862475" lon="13.427929319582049"><ele>759.0</ele><time>2026-05-03T15:20:49Z</time></trkpt><trkpt lat="42.36489971061511" lon="13.427912726325438"><ele>759.75</ele><time>2026-05-03T15:20:50Z</time></trkpt><trkpt lat="42.36503376516069" lon="13.427943421644061"><ele>760.5</ele><time>2026-05-03T15:20:50.999Z</time></trkpt><trkpt lat="42.36515643339996" lon="13.428012271201158"><ele>761.25</ele><time>2026-05-03T15:20:51.999Z</time></trkpt><trkpt lat="42.36527335331879" lon="13.428122595717966"><ele>762.0</ele><time>2026-05-03T15:20:52.999Z</time></trkpt><trkpt lat="42.3653765262378" lon="13.42826399044809"><ele>758.6666666666666</ele><time>2026-05-03T15:20:53.999Z</time></trkpt><trkpt lat="42.365468045185" lon="13.428431178001057"><ele>755.3333333333333</ele><time>2026-05-03T15:20:54.999Z</time></trkpt><trkpt lat="42.365553811343695" lon="13.428610520571866"><ele>752.0</ele><time>2026-05-03T15:20:55.999Z</time></trkpt><trkpt lat="42.36564087301595" lon="13.428795707803854"><ele>752.3333333333333</ele><time>2026-05-03T15:20:56.999Z</time></trkpt><trkpt lat="42.36573273671815" lon="13.428973827305304"><ele>752.6666666666666</ele><time>2026-05-03T15:20:57.999Z</time></trkpt><trkpt lat="42.36583418132464" lon="13.42914332104543"><ele>753.0</ele><time>2026-05-03T15:20:58.999Z</time></trkpt><trkpt lat="42.365956645152075" lon="13.42929864662625"><ele>753.0</ele><time>2026-05-03T15:20:59.999Z</time></trkpt><trkpt lat="42.3661042497398" lon="13.429438922525009"><ele>753.0</ele><time>2026-05-03T15:21:00.999Z</time></trkpt><trkpt lat="42.36627009817474" lon="13.429561704457189"><ele>753.0</ele><time>2026-05-03T15:21:01.999Z</time></trkpt><trkpt lat="42.36644811307281" lon="13.429658099727964"><ele>757.0</ele><time>2026-05-03T15:21:02.999Z</time></trkpt><trkpt lat="42.366635277593375" lon="13.429735988102593"><ele>761.0</ele><time>2026-05-03T15:21:03.999Z</time></trkpt><trkpt lat="42.36681323165822" lon="13.429804421026835"><ele>765.0</ele><time>2026-05-03T15:21:04.999Z</time></trkpt><trkpt lat="42.366977699689805" lon="13.429887920525127"><ele>765.0</ele><time>2026-05-03T15:21:05.999Z</time></trkpt><trkpt lat="42.367133435973855" lon="13.4299950944094"><ele>765.0</ele><time>2026-05-03T15:21:06.999Z</time></trkpt><trkpt lat="42.36727705392587" lon="13.430118533883359"><ele>765.0</ele><time>2026-05-03T15:21:07.999Z</time></trkpt><trkpt lat="42.367414030030375" lon="13.430257163026043"><ele>765.6666666666666</ele><time>2026-05-03T15:21:08.999Z</time></trkpt><trkpt lat="42.36754303290042" lon="13.430412448096696"><ele>766.3333333333333</ele><time>2026-05-03T15:21:09.999Z</time></trkpt><trkpt lat="42.3676709751064" lon="13.430578132891554"><ele>767.0</ele><time>2026-05-03T15:21:10.999Z</time></trkpt><trkpt lat="42.36779361163" lon="13.43075847882953"><ele>767.0</ele><time>2026-05-03T15:21:11.999Z</time></trkpt><trkpt lat="42.36791515396534" lon="13.430956441101257"><ele>767.0</ele><time>2026-05-03T15:21:12.999Z</time></trkpt><trkpt lat="42.36804118271188" lon="13.431168139883113"><ele>767.0</ele><time>2026-05-03T15:21:13.999Z</time></trkpt><trkpt lat="42.368170334314115" lon="13.431390078782588"><ele>769.3333333333333</ele><time>2026-05-03T15:21:14.999Z</time></trkpt><trkpt lat="42.368308695367894" lon="13.431615793237896"><ele>771.6666666666666</ele><time>2026-05-03T15:21:15.999Z</time></trkpt><trkpt lat="42.368452383837806" lon="13.431840132568617"><ele>774.0</ele><time>2026-05-03T15:21:16.999Z</time></trkpt><trkpt lat="42.36860729942939" lon="13.43207642618118"><ele>776.0</ele><time>2026-05-03T15:21:17.999Z</time></trkpt><trkpt lat="42.36877159779841" lon="13.432321150744862"><ele>778.0</ele><time>2026-05-03T15:21:18.999Z</time></trkpt><trkpt lat="42.368933646395995" lon="13.43256644238054"><ele>778.0</ele><time>2026-05-03T15:21:19.999Z</time></trkpt><trkpt lat="42.369097721862765" lon="13.43281482379338"><ele>778.0</ele><time>2026-05-03T15:21:20.999Z</time></trkpt><trkpt lat="42.36926628920363" lon="13.43305999066783"><ele>778.0</ele><time>2026-05-03T15:21:21.999Z</time></trkpt><trkpt lat="42.36944695628998" lon="13.433317577558805"><ele>778.0</ele><time>2026-05-03T15:21:22.999Z</time></trkpt><trkpt lat="42.36962770221215" lon="13.433561387035022"><ele>775.0</ele><time>2026-05-03T15:21:23.999Z</time></trkpt><trkpt lat="42.369817743756606" lon="13.433810179352347"><ele>772.0</ele><time>2026-05-03T15:21:24.999Z</time></trkpt><trkpt lat="42.37001397369906" lon="13.434062562450414"><ele>772.0</ele><time>2026-05-03T15:21:25.999Z</time></trkpt><trkpt lat="42.370216148919766" lon="13.434317829502666"><ele>772.0</ele><time>2026-05-03T15:21:26.999Z</time></trkpt><trkpt lat="42.37042303161933" lon="13.43457144050608"><ele>771.0</ele><time>2026-05-03T15:21:27.999Z</time></trkpt><trkpt lat="42.370634082881594" lon="13.434818896998696"><ele>770.0</ele><time>2026-05-03T15:21:28.999Z</time></trkpt><trkpt lat="42.37084744725165" lon="13.435061779917921"><ele>770.0</ele><time>2026-05-03T15:21:29.999Z</time></trkpt><trkpt lat="42.371064028912855" lon="13.435299685935034"><ele>770.0</ele><time>2026-05-03T15:21:30.999Z</time></trkpt><trkpt lat="42.37128257317878" lon="13.435534674827712"><ele>760.0</ele><time>2026-05-03T15:21:31.999Z</time></trkpt><trkpt lat="42.371501506558474" lon="13.435761735103354"><ele>750.0</ele><time>2026-05-03T15:21:32.999Z</time></trkpt><trkpt lat="42.37172542601893" lon="13.43598182002832"><ele>750.0</ele><time>2026-05-03T15:21:33.999Z</time></trkpt><trkpt lat="42.37195714745115" lon="13.436195948119577"><ele>750.0</ele><time>2026-05-03T15:21:34.999Z</time></trkpt><trkpt lat="42.37219705374015" lon="13.43640719603656"><ele>753.0</ele><time>2026-05-03T15:21:35.999Z</time></trkpt><trkpt lat="42.37244237862301" lon="13.436617318407771"><ele>756.0</ele><time>2026-05-03T15:21:37Z</time></trkpt><trkpt lat="42.372692281234016" lon="13.436827784173985"><ele>756.0</ele><time>2026-05-03T15:21:38Z</time></trkpt><trkpt lat="42.372948157404416" lon="13.43703631750402"><ele>756.0</ele><time>2026-05-03T15:21:39Z</time></trkpt><trkpt lat="42.37320824796064" lon="13.437242833120635"><ele>768.5</ele><time>2026-05-03T15:21:40Z</time></trkpt><trkpt lat="42.3734746208381" lon="13.437447500133226"><ele>781.0</ele><time>2026-05-03T15:21:41Z</time></trkpt><trkpt lat="42.37374447303127" lon="13.437649891571892"><ele>791.0</ele><time>2026-05-03T15:21:42Z</time></trkpt><trkpt lat="42.37401571034915" lon="13.437850822220204"><ele>801.0</ele><time>2026-05-03T15:21:43Z</time></trkpt><trkpt lat="42.37428931084843" lon="13.438048960488866"><ele>803.5</ele><time>2026-05-03T15:21:44Z</time></trkpt><trkpt lat="42.374564278072356" lon="13.43824581348264"><ele>806.0</ele><time>2026-05-03T15:21:45Z</time></trkpt><trkpt lat="42.37483863765381" lon="13.438433472977227"><ele>810.0</ele><time>2026-05-03T15:21:46Z</time></trkpt><trkpt lat="42.37510698899574" lon="13.438616512555004"><ele>814.0</ele><time>2026-05-03T15:21:47Z</time></trkpt><trkpt lat="42.37536694691428" lon="13.438799349504535"><ele>814.0</ele><time>2026-05-03T15:21:48Z</time></trkpt><trkpt lat="42.37562755763644" lon="13.438982909683807"><ele>814.0</ele><time>2026-05-03T15:21:49Z</time></trkpt><trkpt lat="42.37588119985891" lon="13.43916492110323"><ele>814.0</ele><time>2026-05-03T15:21:50Z</time></trkpt><trkpt lat="42.37613260991177" lon="13.439350570473529"><ele>814.0</ele><time>2026-05-03T15:21:51Z</time></trkpt><trkpt lat="42.376382351965155" lon="13.43954604067379"><ele>803.5</ele><time>2026-05-03T15:21:52Z</time></trkpt><trkpt lat="42.37662722857918" lon="13.439751001560246"><ele>793.0</ele><time>2026-05-03T15:21:53Z</time></trkpt><trkpt lat="42.37686944034281" lon="13.439960115992468"><ele>793.0</ele><time>2026-05-03T15:21:54Z</time></trkpt><trkpt lat="42.37710574155388" lon="13.440176496424211"><ele>793.0</ele><time>2026-05-03T15:21:55Z</time></trkpt><trkpt lat="42.377334089204176" lon="13.440402073822643"><ele>794.0</ele><time>2026-05-03T15:21:56Z</time></trkpt><trkpt lat="42.37755980670242" lon="13.440638046431841"><ele>795.0</ele><time>2026-05-03T15:21:57Z</time></trkpt><trkpt lat="42.37778143324687" lon="13.440884191293684"><ele>795.0</ele><time>2026-05-03T15:21:58Z</time></trkpt><trkpt lat="42.377994174754306" lon="13.441143063467312"><ele>795.0</ele><time>2026-05-03T15:21:59Z</time></trkpt><trkpt lat="42.37820238247948" lon="13.441412862421315"><ele>782.5</ele><time>2026-05-03T15:22:00Z</time></trkpt><trkpt lat="42.37840586508058" lon="13.441689215167559"><ele>770.0</ele><time>2026-05-03T15:22:01Z</time></trkpt><trkpt lat="42.37860072374566" lon="13.441974202576755"><ele>767.5</ele><time>2026-05-03T15:22:02Z</time></trkpt><trkpt lat="42.3787876087326" lon="13.442271186450029"><ele>765.0</ele><time>2026-05-03T15:22:03Z</time></trkpt><trkpt lat="42.3789727672363" lon="13.44258298787023"><ele>770.5</ele><time>2026-05-03T15:22:04Z</time></trkpt><trkpt lat="42.37915152783245" lon="13.44290319027399"><ele>776.0</ele><time>2026-05-03T15:22:05Z</time></trkpt><trkpt lat="42.379325665119765" lon="13.44323581273323"><ele>776.0</ele><time>2026-05-03T15:22:06Z</time></trkpt><trkpt lat="42.37949292048566" lon="13.443577539656202"><ele>776.0</ele><time>2026-05-03T15:22:07Z</time></trkpt><trkpt lat="42.37965821667776" lon="13.44392026319253"><ele>791.5</ele><time>2026-05-03T15:22:08Z</time></trkpt><trkpt lat="42.37982394854453" lon="13.444264649078775"><ele>807.0</ele><time>2026-05-03T15:22:09Z</time></trkpt><trkpt lat="42.37999062559614" lon="13.444609554742122"><ele>813.0</ele><time>2026-05-03T15:22:10Z</time></trkpt><trkpt lat="42.38015920005957" lon="13.44495430365972"><ele>819.0</ele><time>2026-05-03T15:22:11Z</time></trkpt><trkpt lat="42.38033156608085" lon="13.445299111499578"><ele>825.5</ele><time>2026-05-03T15:22:12Z</time></trkpt><trkpt lat="42.38050556211989" lon="13.445644608385958"><ele>832.0</ele><time>2026-05-03T15:22:13Z</time></trkpt><trkpt lat="42.3806817753566" lon="13.445991899824472"><ele>838.5</ele><time>2026-05-03T15:22:14Z</time></trkpt><trkpt lat="42.380862115109444" lon="13.446339185760007"><ele>845.0</ele><time>2026-05-03T15:22:15Z</time></trkpt><trkpt lat="42.381045697144906" lon="13.446686109729496"><ele>845.0</ele><time>2026-05-03T15:22:16Z</time></trkpt><trkpt lat="42.38123022138336" lon="13.447033296170751"><ele>845.0</ele><time>2026-05-03T15:22:17Z</time></trkpt><trkpt lat="42.38141993490752" lon="13.447380898689774"><ele>845.5</ele><time>2026-05-03T15:22:18Z</time></trkpt><trkpt lat="42.381616168812386" lon="13.447723486489206"><ele>846.0</ele><time>2026-05-03T15:22:19Z</time></trkpt><trkpt lat="42.38181444833178" lon="13.448063740463448"><ele>846.0</ele><time>2026-05-03T15:22:20Z</time></trkpt><trkpt lat="42.38201281346631" lon="13.44840225313119"><ele>846.0</ele><time>2026-05-03T15:22:21Z</time></trkpt><trkpt lat="42.3822112042937" lon="13.448734515318316"><ele>853.5</ele><time>2026-05-03T15:22:22Z</time></trkpt><trkpt lat="42.38240844289863" lon="13.449057095204816"><ele>861.0</ele><time>2026-05-03T15:22:23Z</time></trkpt><trkpt lat="42.38260513419198" lon="13.449369239207547"><ele>854.0</ele><time>2026-05-03T15:22:24Z</time></trkpt><trkpt lat="42.382800839327636" lon="13.449683035044487"><ele>847.0</ele><time>2026-05-03T15:22:25Z</time></trkpt><trkpt lat="42.38299220305402" lon="13.449999694489431"><ele>850.5</ele><time>2026-05-03T15:22:26Z</time></trkpt><trkpt lat="42.38318197957743" lon="13.450320027540856"><ele>854.0</ele><time>2026-05-03T15:22:27Z</time></trkpt><trkpt lat="42.38337173722839" lon="13.450645535175692"><ele>854.0</ele><time>2026-05-03T15:22:28Z</time></trkpt><trkpt lat="42.38356089141769" lon="13.450972425462304"><ele>854.0</ele><time>2026-05-03T15:22:29Z</time></trkpt><trkpt lat="42.38374668521335" lon="13.45130554689076"><ele>852.5</ele><time>2026-05-03T15:22:30Z</time></trkpt><trkpt lat="42.38392607501461" lon="13.451646543171428"><ele>851.0</ele><time>2026-05-03T15:22:31Z</time></trkpt><trkpt lat="42.384098227917775" lon="13.451995095862816"><ele>847.0</ele><time>2026-05-03T15:22:32Z</time></trkpt><trkpt lat="42.38426694711295" lon="13.452350002756736"><ele>843.0</ele><time>2026-05-03T15:22:33Z</time></trkpt><trkpt lat="42.384430637805394" lon="13.452705679854763"><ele>852.0</ele><time>2026-05-03T15:22:34Z</time></trkpt><trkpt lat="42.38459299638534" lon="13.453063918061767"><ele>861.0</ele><time>2026-05-03T15:22:35Z</time></trkpt><trkpt lat="42.38475462459585" lon="13.453422131241505"><ele>869.5</ele><time>2026-05-03T15:22:36Z</time></trkpt><trkpt lat="42.38491117869134" lon="13.45378045072211"><ele>878.0</ele><time>2026-05-03T15:22:37Z</time></trkpt><trkpt lat="42.38506258418907" lon="13.454142603204472"><ele>883.0</ele><time>2026-05-03T15:22:38Z</time></trkpt><trkpt lat="42.385202046839765" lon="13.454519258227226"><ele>888.0</ele><time>2026-05-03T15:22:38.999Z</time></trkpt><trkpt lat="42.38532899719174" lon="13.4549077625647"><ele>889.5</ele><time>2026-05-03T15:22:39.999Z</time></trkpt><trkpt lat="42.385450688077405" lon="13.455301689020667"><ele>891.0</ele><time>2026-05-03T15:22:40.999Z</time></trkpt><trkpt lat="42.385567140269316" lon="13.455699534739916"><ele>888.0</ele><time>2026-05-03T15:22:41.999Z</time></trkpt><trkpt lat="42.385681443489815" lon="13.45609832056205"><ele>885.0</ele><time>2026-05-03T15:22:42.999Z</time></trkpt><trkpt lat="42.385793861453095" lon="13.456498235525755"><ele>885.0</ele><time>2026-05-03T15:22:43.999Z</time></trkpt><trkpt lat="42.38590849271753" lon="13.45689743664417"><ele>885.0</ele><time>2026-05-03T15:22:44.999Z</time></trkpt><trkpt lat="42.38600886551505" lon="13.457299916750102"><ele>885.5</ele><time>2026-05-03T15:22:45.999Z</time></trkpt><trkpt lat="42.38610587018917" lon="13.457692327705571"><ele>886.0</ele><time>2026-05-03T15:22:46.999Z</time></trkpt><trkpt lat="42.386198093688876" lon="13.458085857113517"><ele>886.0</ele><time>2026-05-03T15:22:47.999Z</time></trkpt><trkpt lat="42.38629158152069" lon="13.458473565133728"><ele>886.0</ele><time>2026-05-03T15:22:48.999Z</time></trkpt><trkpt lat="42.386384390050964" lon="13.45885741497886"><ele>883.5</ele><time>2026-05-03T15:22:49.999Z</time></trkpt><trkpt lat="42.38647555140933" lon="13.459247110201513"><ele>881.0</ele><time>2026-05-03T15:22:50.999Z</time></trkpt><trkpt lat="42.38656350007699" lon="13.459643856713335"><ele>878.5</ele><time>2026-05-03T15:22:51.999Z</time></trkpt><trkpt lat="42.38664237359621" lon="13.460047304376612"><ele>876.0</ele><time>2026-05-03T15:22:52.999Z</time></trkpt><trkpt lat="42.3867179116009" lon="13.460457440878061"><ele>875.5</ele><time>2026-05-03T15:22:53.999Z</time></trkpt><trkpt lat="42.38679174134467" lon="13.46087064998121"><ele>875.0</ele><time>2026-05-03T15:22:54.999Z</time></trkpt><trkpt lat="42.38686085592088" lon="13.461286427994162"><ele>873.0</ele><time>2026-05-03T15:22:55.999Z</time></trkpt><trkpt lat="42.386925776025315" lon="13.461701128870443"><ele>871.0</ele><time>2026-05-03T15:22:56.999Z</time></trkpt><trkpt lat="42.386990568748395" lon="13.46211798988974"><ele>871.5</ele><time>2026-05-03T15:22:57.999Z</time></trkpt><trkpt lat="42.38705432000374" lon="13.462538241365129"><ele>872.0</ele><time>2026-05-03T15:22:58.999Z</time></trkpt><trkpt lat="42.38711208823686" lon="13.462959258299323"><ele>872.0</ele><time>2026-05-03T15:22:59.999Z</time></trkpt><trkpt lat="42.387163472845415" lon="13.46337677635672"><ele>872.0</ele><time>2026-05-03T15:23:00.999Z</time></trkpt><trkpt lat="42.38721192128996" lon="13.46379284256876"><ele>877.0</ele><time>2026-05-03T15:23:01.999Z</time></trkpt><trkpt lat="42.38725639335568" lon="13.4642048954819"><ele>882.0</ele><time>2026-05-03T15:23:02.999Z</time></trkpt><trkpt lat="42.38729371614448" lon="13.464613425191315"><ele>882.0</ele><time>2026-05-03T15:23:03.999Z</time></trkpt><trkpt lat="42.38732355401767" lon="13.465021137542951"><ele>882.0</ele><time>2026-05-03T15:23:04.999Z</time></trkpt><trkpt lat="42.387354295738255" lon="13.465431398498716"><ele>882.5</ele><time>2026-05-03T15:23:05.999Z</time></trkpt><trkpt lat="42.3873803915914" lon="13.465841693076628"><ele>883.0</ele><time>2026-05-03T15:23:06.999Z</time></trkpt><trkpt lat="42.38740507238705" lon="13.466253293596973"><ele>883.5</ele><time>2026-05-03T15:23:07.999Z</time></trkpt><trkpt lat="42.38742562808623" lon="13.466666600518753"><ele>884.0</ele><time>2026-05-03T15:23:08.999Z</time></trkpt><trkpt lat="42.38744179083328" lon="13.467080831155165"><ele>883.0</ele><time>2026-05-03T15:23:09.999Z</time></trkpt><trkpt lat="42.387453454126884" lon="13.467495109880204"><ele>882.0</ele><time>2026-05-03T15:23:10.999Z</time></trkpt><trkpt lat="42.38746400588468" lon="13.467910346212136"><ele>883.5</ele><time>2026-05-03T15:23:11.999Z</time></trkpt><trkpt lat="42.387475355394095" lon="13.468324737562718"><ele>885.0</ele><time>2026-05-03T15:23:12.999Z</time></trkpt><trkpt lat="42.38748190327243" lon="13.468739495547487"><ele>883.5</ele><time>2026-05-03T15:23:13.999Z</time></trkpt><trkpt lat="42.38748529054351" lon="13.469154969261856"><ele>882.0</ele><time>2026-05-03T15:23:14.999Z</time></trkpt><trkpt lat="42.38748507042489" lon="13.469569624072863"><ele>881.0</ele><time>2026-05-03T15:23:15.999Z</time></trkpt><trkpt lat="42.38748039608394" lon="13.469983365676503"><ele>880.0</ele><time>2026-05-03T15:23:16.999Z</time></trkpt><trkpt lat="42.38747522053653" lon="13.470398519261368"><ele>881.5</ele><time>2026-05-03T15:23:17.999Z</time></trkpt><trkpt lat="42.38746678465502" lon="13.470813223248896"><ele>883.0</ele><time>2026-05-03T15:23:18.999Z</time></trkpt><trkpt lat="42.38745586868509" lon="13.471227762752864"><ele>883.0</ele><time>2026-05-03T15:23:19.999Z</time></trkpt><trkpt lat="42.387445351749506" lon="13.47164057450141"><ele>883.0</ele><time>2026-05-03T15:23:20.999Z</time></trkpt><trkpt lat="42.38743780071451" lon="13.472054309214755"><ele>885.0</ele><time>2026-05-03T15:23:21.999Z</time></trkpt><trkpt lat="42.387434377915916" lon="13.472468427353803"><ele>887.0</ele><time>2026-05-03T15:23:22.999Z</time></trkpt><trkpt lat="42.38743581929234" lon="13.472884129889529"><ele>887.5</ele><time>2026-05-03T15:23:23.999Z</time></trkpt><trkpt lat="42.38744528592237" lon="13.47329954742215"><ele>888.0</ele><time>2026-05-03T15:23:24.999Z</time></trkpt><trkpt lat="42.387460691224085" lon="13.473712616762"><ele>888.0</ele><time>2026-05-03T15:23:25.999Z</time></trkpt><trkpt lat="42.387481735920524" lon="13.474126162768707"><ele>888.0</ele><time>2026-05-03T15:23:26.999Z</time></trkpt><trkpt lat="42.38751141245533" lon="13.474537986985167"><ele>888.5</ele><time>2026-05-03T15:23:27.999Z</time></trkpt><trkpt lat="42.38755273110648" lon="13.4749482159374"><ele>889.0</ele><time>2026-05-03T15:23:28.999Z</time></trkpt><trkpt lat="42.3876023580598" lon="13.475358169110041"><ele>889.5</ele><time>2026-05-03T15:23:29.999Z</time></trkpt><trkpt lat="42.38766629651703" lon="13.4757629674059"><ele>890.0</ele><time>2026-05-03T15:23:30.999Z</time></trkpt><trkpt lat="42.38774688995991" lon="13.476162962594657"><ele>890.5</ele><time>2026-05-03T15:23:31.999Z</time></trkpt><trkpt lat="42.387843044699316" lon="13.476556462618897"><ele>891.0</ele><time>2026-05-03T15:23:32.999Z</time></trkpt><trkpt lat="42.387956990685566" lon="13.476941645817764"><ele>895.5</ele><time>2026-05-03T15:23:33.999Z</time></trkpt><trkpt lat="42.38808885405417" lon="13.477316133819427"><ele>900.0</ele><time>2026-05-03T15:23:34.999Z</time></trkpt><trkpt lat="42.38823657340752" lon="13.477685552936308"><ele>899.0</ele><time>2026-05-03T15:23:35.999Z</time></trkpt><trkpt lat="42.38839800656609" lon="13.4780430099548"><ele>898.0</ele><time>2026-05-03T15:23:36.999Z</time></trkpt><trkpt lat="42.388573130751176" lon="13.478386182286679"><ele>898.0</ele><time>2026-05-03T15:23:37.999Z</time></trkpt><trkpt lat="42.38876256923162" lon="13.478714211729748"><ele>898.0</ele><time>2026-05-03T15:23:38.999Z</time></trkpt><trkpt lat="42.388966543839246" lon="13.479025419591164"><ele>903.5</ele><time>2026-05-03T15:23:39.999Z</time></trkpt><trkpt lat="42.389183587225176" lon="13.479320377177539"><ele>909.0</ele><time>2026-05-03T15:23:40.999Z</time></trkpt><trkpt lat="42.38941578925152" lon="13.479593838192084"><ele>908.5</ele><time>2026-05-03T15:23:41.999Z</time></trkpt><trkpt lat="42.38965496160546" lon="13.479854986061408"><ele>908.0</ele><time>2026-05-03T15:23:43Z</time></trkpt><trkpt lat="42.389904316642365" lon="13.480097694099452"><ele>908.0</ele><time>2026-05-03T15:23:44Z</time></trkpt><trkpt lat="42.39016307747716" lon="13.480318778031148"><ele>908.0</ele><time>2026-05-03T15:23:45Z</time></trkpt><trkpt lat="42.3904318537081" lon="13.480519306358595"><ele>904.5</ele><time>2026-05-03T15:23:46Z</time></trkpt><trkpt lat="42.39070796456839" lon="13.48069786244405"><ele>901.0</ele><time>2026-05-03T15:23:47Z</time></trkpt><trkpt lat="42.3909902272113" lon="13.480857654159026"><ele>901.0</ele><time>2026-05-03T15:23:48Z</time></trkpt><trkpt lat="42.391278162260456" lon="13.480997916805837"><ele>901.0</ele><time>2026-05-03T15:23:49Z</time></trkpt><trkpt lat="42.39157005402223" lon="13.481121536639218"><ele>900.0</ele><time>2026-05-03T15:23:50Z</time></trkpt><trkpt lat="42.39186465016859" lon="13.481235597145078"><ele>899.0</ele><time>2026-05-03T15:23:51Z</time></trkpt><trkpt lat="42.39216207349078" lon="13.481343678452346"><ele>896.5</ele><time>2026-05-03T15:23:52Z</time></trkpt><trkpt lat="42.39246049594697" lon="13.481447157149223"><ele>894.0</ele><time>2026-05-03T15:23:53Z</time></trkpt><trkpt lat="42.39275973730218" lon="13.481542714924677"><ele>894.0</ele><time>2026-05-03T15:23:54Z</time></trkpt><trkpt lat="42.393058415538704" lon="13.481637560854733"><ele>894.0</ele><time>2026-05-03T15:23:55Z</time></trkpt><trkpt lat="42.39335636492655" lon="13.481735851083183"><ele>894.0</ele><time>2026-05-03T15:23:56Z</time></trkpt><trkpt lat="42.39365315679095" lon="13.481839214210243"><ele>894.0</ele><time>2026-05-03T15:23:57Z</time></trkpt><trkpt lat="42.39395007505174" lon="13.481944803066703"><ele>897.5</ele><time>2026-05-03T15:23:58Z</time></trkpt><trkpt lat="42.39424544921166" lon="13.4820585469127"><ele>901.0</ele><time>2026-05-03T15:23:59Z</time></trkpt><trkpt lat="42.39453976159742" lon="13.482181919965331"><ele>902.0</ele><time>2026-05-03T15:24:00Z</time></trkpt><trkpt lat="42.39483173221522" lon="13.482310177151536"><ele>903.0</ele><time>2026-05-03T15:24:01Z</time></trkpt><trkpt lat="42.39512190983641" lon="13.482449497874457"><ele>903.0</ele><time>2026-05-03T15:24:02Z</time></trkpt><trkpt lat="42.395409212708095" lon="13.482601011712758"><ele>903.0</ele><time>2026-05-03T15:24:03Z</time></trkpt><trkpt lat="42.395691219589416" lon="13.482761548283031"><ele>901.5</ele><time>2026-05-03T15:24:04Z</time></trkpt><trkpt lat="42.39596868468588" lon="13.4829339306406"><ele>900.0</ele><time>2026-05-03T15:24:05Z</time></trkpt><trkpt lat="42.39624274471572" lon="13.483121943126928"><ele>900.5</ele><time>2026-05-03T15:24:06Z</time></trkpt><trkpt lat="42.396513135634464" lon="13.483319402828739"><ele>901.0</ele><time>2026-05-03T15:24:07Z</time></trkpt><trkpt lat="42.39678063451913" lon="13.483525650557723"><ele>901.0</ele><time>2026-05-03T15:24:08Z</time></trkpt><trkpt lat="42.39704397807885" lon="13.483742458908003"><ele>901.0</ele><time>2026-05-03T15:24:09Z</time></trkpt><trkpt lat="42.39730302515875" lon="13.483964449791868"><ele>902.5</ele><time>2026-05-03T15:24:10Z</time></trkpt><trkpt lat="42.39755970097338" lon="13.484191057351671"><ele>904.0</ele><time>2026-05-03T15:24:11Z</time></trkpt><trkpt lat="42.39781327740713" lon="13.484423299850942"><ele>903.5</ele><time>2026-05-03T15:24:12Z</time></trkpt><trkpt lat="42.39806333756724" lon="13.48466497986862"><ele>903.0</ele><time>2026-05-03T15:24:13Z</time></trkpt><trkpt lat="42.398310946147056" lon="13.48491273093584"><ele>903.0</ele><time>2026-05-03T15:24:14Z</time></trkpt><trkpt lat="42.39855272406497" lon="13.485169379509165"><ele>903.0</ele><time>2026-05-03T15:24:15Z</time></trkpt><trkpt lat="42.398788286025265" lon="13.485435676344087"><ele>907.0</ele><time>2026-05-03T15:24:16Z</time></trkpt><trkpt lat="42.39901854396872" lon="13.48570890152434"><ele>911.0</ele><time>2026-05-03T15:24:17Z</time></trkpt><trkpt lat="42.39924411452256" lon="13.485990767153313"><ele>906.5</ele><time>2026-05-03T15:24:18Z</time></trkpt><trkpt lat="42.39946584471989" lon="13.486279676344976"><ele>902.0</ele><time>2026-05-03T15:24:19Z</time></trkpt><trkpt lat="42.39968159823201" lon="13.486572276896663"><ele>908.0</ele><time>2026-05-03T15:24:20Z</time></trkpt><trkpt lat="42.399891931322266" lon="13.486871016219107"><ele>914.0</ele><time>2026-05-03T15:24:21Z</time></trkpt><trkpt lat="42.400097372968474" lon="13.487176511578761"><ele>914.0</ele><time>2026-05-03T15:24:22Z</time></trkpt><trkpt lat="42.40029896527761" lon="13.487489473579075"><ele>914.0</ele><time>2026-05-03T15:24:23Z</time></trkpt><trkpt lat="42.400497127605476" lon="13.487806920021795"><ele>914.5</ele><time>2026-05-03T15:24:24Z</time></trkpt><trkpt lat="42.400693764920824" lon="13.488125970004665"><ele>915.0</ele><time>2026-05-03T15:24:25Z</time></trkpt><trkpt lat="42.40089175293785" lon="13.488446005108797"><ele>914.0</ele><time>2026-05-03T15:24:26Z</time></trkpt><trkpt lat="42.40108761508685" lon="13.48876852711091"><ele>913.0</ele><time>2026-05-03T15:24:27Z</time></trkpt><trkpt lat="42.40128034190928" lon="13.489093352529531"><ele>917.0</ele><time>2026-05-03T15:24:28Z</time></trkpt><trkpt lat="42.40147244241998" lon="13.489415741499531"><ele>921.0</ele><time>2026-05-03T15:24:29Z</time></trkpt><trkpt lat="42.40166526269088" lon="13.489740734680547"><ele>927.5</ele><time>2026-05-03T15:24:30Z</time></trkpt><trkpt lat="42.4018568267949" lon="13.490064382730312"><ele>934.0</ele><time>2026-05-03T15:24:31Z</time></trkpt><trkpt lat="42.40204922988237" lon="13.490387642806276"><ele>931.0</ele><time>2026-05-03T15:24:32Z</time></trkpt><trkpt lat="42.40224300021807" lon="13.49070882518926"><ele>928.0</ele><time>2026-05-03T15:24:33Z</time></trkpt><trkpt lat="42.40244114256701" lon="13.491026174320895"><ele>930.0</ele><time>2026-05-03T15:24:34Z</time></trkpt><trkpt lat="42.4026428078796" lon="13.491339578638907"><ele>932.0</ele><time>2026-05-03T15:24:35Z</time></trkpt><trkpt lat="42.40284585310304" lon="13.491652673106422"><ele>933.5</ele><time>2026-05-03T15:24:36Z</time></trkpt><trkpt lat="42.4030497517754" lon="13.491962842577685"><ele>935.0</ele><time>2026-05-03T15:24:37Z</time></trkpt><trkpt lat="42.40325710878186" lon="13.49226964630778"><ele>938.5</ele><time>2026-05-03T15:24:38Z</time></trkpt><trkpt lat="42.40346817860596" lon="13.492571530786591"><ele>942.0</ele><time>2026-05-03T15:24:38.999Z</time></trkpt><trkpt lat="42.403687378720484" lon="13.49286446298673"><ele>943.0</ele><time>2026-05-03T15:24:39.999Z</time></trkpt><trkpt lat="42.40391012678169" lon="13.49315231099223"><ele>944.0</ele><time>2026-05-03T15:24:40.999Z</time></trkpt><trkpt lat="42.4041390682135" lon="13.493432253207327"><ele>944.0</ele><time>2026-05-03T15:24:41.999Z</time></trkpt><trkpt lat="42.40437482017677" lon="13.493704257356477"><ele>944.0</ele><time>2026-05-03T15:24:42.999Z</time></trkpt><trkpt lat="42.40461244790279" lon="13.4939716831064"><ele>946.0</ele><time>2026-05-03T15:24:43.999Z</time></trkpt><trkpt lat="42.404853598233586" lon="13.494233312259048"><ele>948.0</ele><time>2026-05-03T15:24:44.999Z</time></trkpt><trkpt lat="42.40509860561931" lon="13.49448968843018"><ele>948.0</ele><time>2026-05-03T15:24:45.999Z</time></trkpt><trkpt lat="42.40534963875595" lon="13.494730005445836"><ele>948.0</ele><time>2026-05-03T15:24:46.999Z</time></trkpt><trkpt lat="42.405603624953244" lon="13.494969506542729"><ele>949.5</ele><time>2026-05-03T15:24:47.999Z</time></trkpt><trkpt lat="42.40586123658613" lon="13.49520215829328"><ele>951.0</ele><time>2026-05-03T15:24:48.999Z</time></trkpt><trkpt lat="42.40612218926085" lon="13.495420285632607"><ele>948.0</ele><time>2026-05-03T15:24:49.999Z</time></trkpt><trkpt lat="42.40638507833218" lon="13.495638658687742"><ele>945.0</ele><time>2026-05-03T15:24:50.999Z</time></trkpt><trkpt lat="42.40665215085303" lon="13.495846048372538"><ele>945.0</ele><time>2026-05-03T15:24:51.999Z</time></trkpt><trkpt lat="42.4069214051709" lon="13.496045711623408"><ele>945.0</ele><time>2026-05-03T15:24:52.999Z</time></trkpt><trkpt lat="42.40719475386054" lon="13.496236270400551"><ele>941.0</ele><time>2026-05-03T15:24:53.999Z</time></trkpt><trkpt lat="42.40747235260313" lon="13.496416683584306"><ele>937.0</ele><time>2026-05-03T15:24:54.999Z</time></trkpt><trkpt lat="42.407752883057555" lon="13.49659105260823"><ele>939.5</ele><time>2026-05-03T15:24:55.999Z</time></trkpt><trkpt lat="42.408035143256804" lon="13.496757469180356"><ele>942.0</ele><time>2026-05-03T15:24:56.999Z</time></trkpt><trkpt lat="42.408320137763106" lon="13.496916907764087"><ele>942.0</ele><time>2026-05-03T15:24:57.999Z</time></trkpt><trkpt lat="42.4086077687233" lon="13.497070164391179"><ele>942.0</ele><time>2026-05-03T15:24:58.999Z</time></trkpt><trkpt lat="42.4088987282704" lon="13.497217010617495"><ele>940.0</ele><time>2026-05-03T15:24:59.999Z</time></trkpt><trkpt lat="42.40919049577612" lon="13.497357984762079"><ele>938.0</ele><time>2026-05-03T15:25:00.999Z</time></trkpt><trkpt lat="42.409483648869966" lon="13.497488213278332"><ele>938.5</ele><time>2026-05-03T15:25:01.999Z</time></trkpt><trkpt lat="42.409779758192016" lon="13.497602278219391"><ele>939.0</ele><time>2026-05-03T15:25:02.999Z</time></trkpt><trkpt lat="42.410079232265296" lon="13.497710576805066"><ele>939.0</ele><time>2026-05-03T15:25:03.999Z</time></trkpt><trkpt lat="42.410380334271856" lon="13.497808674031742"><ele>939.0</ele><time>2026-05-03T15:25:04.999Z</time></trkpt><trkpt lat="42.41068167406961" lon="13.49789923366827"><ele>935.5</ele><time>2026-05-03T15:25:05.999Z</time></trkpt><trkpt lat="42.410984163324315" lon="13.497981683967069"><ele>932.0</ele><time>2026-05-03T15:25:06.999Z</time></trkpt><trkpt lat="42.41128809072724" lon="13.498054606085553"><ele>930.0</ele><time>2026-05-03T15:25:07.999Z</time></trkpt><trkpt lat="42.411591614012025" lon="13.498120382780831"><ele>928.0</ele><time>2026-05-03T15:25:08.999Z</time></trkpt><trkpt lat="42.41189643492481" lon="13.498179083603722"><ele>926.0</ele><time>2026-05-03T15:25:09.999Z</time></trkpt><trkpt lat="42.41220335527363" lon="13.498224532100119"><ele>924.0</ele><time>2026-05-03T15:25:10.999Z</time></trkpt><trkpt lat="42.41250946927588" lon="13.498262603844752"><ele>924.0</ele><time>2026-05-03T15:25:11.999Z</time></trkpt><trkpt lat="42.412817301561915" lon="13.498294216081254"><ele>924.0</ele><time>2026-05-03T15:25:12.999Z</time></trkpt><trkpt lat="42.413125170539395" lon="13.498319746384459"><ele>922.0</ele><time>2026-05-03T15:25:13.999Z</time></trkpt><trkpt lat="42.413432152233675" lon="13.498338870732816"><ele>920.0</ele><time>2026-05-03T15:25:14.999Z</time></trkpt><trkpt lat="42.413739770070286" lon="13.498354043869313"><ele>917.0</ele><time>2026-05-03T15:25:15.999Z</time></trkpt><trkpt lat="42.41404523093136" lon="13.498368835759049"><ele>914.0</ele><time>2026-05-03T15:25:16.999Z</time></trkpt><trkpt lat="42.41434959566258" lon="13.498383544627304"><ele>912.5</ele><time>2026-05-03T15:25:17.999Z</time></trkpt><trkpt lat="42.41465594050771" lon="13.498405891278646"><ele>911.0</ele><time>2026-05-03T15:25:18.999Z</time></trkpt><trkpt lat="42.41496233100718" lon="13.49843681958111"><ele>911.0</ele><time>2026-05-03T15:25:19.999Z</time></trkpt><trkpt lat="42.41527008710418" lon="13.498481576815545"><ele>911.0</ele><time>2026-05-03T15:25:20.999Z</time></trkpt><trkpt lat="42.41557563115803" lon="13.498543923617142"><ele>909.0</ele><time>2026-05-03T15:25:21.999Z</time></trkpt><trkpt lat="42.41587804208177" lon="13.49862487327983"><ele>907.0</ele><time>2026-05-03T15:25:22.999Z</time></trkpt><trkpt lat="42.416177428739175" lon="13.498727426919011"><ele>903.5</ele><time>2026-05-03T15:25:23.999Z</time></trkpt><trkpt lat="42.416470443157245" lon="13.498851515809468"><ele>900.0</ele><time>2026-05-03T15:25:24.999Z</time></trkpt><trkpt lat="42.416757643794185" lon="13.49899842879965"><ele>900.0</ele><time>2026-05-03T15:25:25.999Z</time></trkpt><trkpt lat="42.41703884607943" lon="13.499166127723011"><ele>900.0</ele><time>2026-05-03T15:25:26.999Z</time></trkpt><trkpt lat="42.41731167968758" lon="13.499353976495465"><ele>895.5</ele><time>2026-05-03T15:25:27.999Z</time></trkpt><trkpt lat="42.417578755106284" lon="13.499553824663165"><ele>891.0</ele><time>2026-05-03T15:25:28.999Z</time></trkpt><trkpt lat="42.41783332822579" lon="13.499785409335981"><ele>882.0</ele><time>2026-05-03T15:25:29.999Z</time></trkpt><trkpt lat="42.41807901502447" lon="13.500032481734667"><ele>873.0</ele><time>2026-05-03T15:25:30.999Z</time></trkpt><trkpt lat="42.41831390452598" lon="13.500301964304848"><ele>871.0</ele><time>2026-05-03T15:25:31.999Z</time></trkpt><trkpt lat="42.41853658811814" lon="13.500589173518028"><ele>869.0</ele><time>2026-05-03T15:25:32.999Z</time></trkpt><trkpt lat="42.418745312402805" lon="13.500893830952162"><ele>866.5</ele><time>2026-05-03T15:25:33.999Z</time></trkpt><trkpt lat="42.418942335300805" lon="13.501211125674118"><ele>864.0</ele><time>2026-05-03T15:25:34.999Z</time></trkpt><trkpt lat="42.41912614682977" lon="13.501545286380386"><ele>872.0</ele><time>2026-05-03T15:25:35.999Z</time></trkpt><trkpt lat="42.4192936399282" lon="13.501895150463094"><ele>880.0</ele><time>2026-05-03T15:25:36.999Z</time></trkpt><trkpt lat="42.4194453446414" lon="13.502258525804146"><ele>881.5</ele><time>2026-05-03T15:25:37.999Z</time></trkpt><trkpt lat="42.41958265735627" lon="13.502630149244407"><ele>883.0</ele><time>2026-05-03T15:25:38.999Z</time></trkpt><trkpt lat="42.41970215140977" lon="13.503013320104417"><ele>885.5</ele><time>2026-05-03T15:25:39.999Z</time></trkpt><trkpt lat="42.41980801201982" lon="13.50340951676776"><ele>888.0</ele><time>2026-05-03T15:25:40.999Z</time></trkpt><trkpt lat="42.419895187183016" lon="13.503811804803835"><ele>891.0</ele><time>2026-05-03T15:25:41.999Z</time></trkpt><trkpt lat="42.41996644493372" lon="13.504215673902287"><ele>894.0</ele><time>2026-05-03T15:25:42.999Z</time></trkpt><trkpt lat="42.42002214770231" lon="13.50461273302982"><ele>897.0</ele><time>2026-05-03T15:25:43.999Z</time></trkpt><trkpt lat="42.42005889030016" lon="13.505007096871003"><ele>900.0</ele><time>2026-05-03T15:25:44.999Z</time></trkpt><trkpt lat="42.420080250645775" lon="13.505396828078322"><ele>901.0</ele><time>2026-05-03T15:25:45.999Z</time></trkpt><trkpt lat="42.420081579228096" lon="13.505789739638479"><ele>902.0</ele><time>2026-05-03T15:25:46.999Z</time></trkpt><trkpt lat="42.420068233095975" lon="13.506161477668977"><ele>904.0</ele><time>2026-05-03T15:25:47.999Z</time></trkpt><trkpt lat="42.42003796421051" lon="13.506527735509035"><ele>906.0</ele><time>2026-05-03T15:25:49Z</time></trkpt><trkpt lat="42.419995237191" lon="13.506904359167043"><ele>910.0</ele><time>2026-05-03T15:25:50Z</time></trkpt><trkpt lat="42.41993859699744" lon="13.507269918802203"><ele>914.0</ele><time>2026-05-03T15:25:51Z</time></trkpt><trkpt lat="42.41987164414186" lon="13.507622690274772"><ele>916.5</ele><time>2026-05-03T15:25:52Z</time></trkpt><trkpt lat="42.41979519451939" lon="13.507969644479584"><ele>919.0</ele><time>2026-05-03T15:25:53Z</time></trkpt><trkpt lat="42.4197063863676" lon="13.50831645636859"><ele>917.5</ele><time>2026-05-03T15:25:54Z</time></trkpt><trkpt lat="42.41960431947924" lon="13.5086528134157"><ele>916.0</ele><time>2026-05-03T15:25:55Z</time></trkpt><trkpt lat="42.419488673824205" lon="13.508987969238088"><ele>916.0</ele><time>2026-05-03T15:25:56Z</time></trkpt><trkpt lat="42.41936961500085" lon="13.509322218583666"><ele>916.0</ele><time>2026-05-03T15:25:57Z</time></trkpt><trkpt lat="42.419246111800305" lon="13.509648926105065"><ele>919.0</ele><time>2026-05-03T15:25:58Z</time></trkpt><trkpt lat="42.4191182781728" lon="13.509976955172329"><ele>922.0</ele><time>2026-05-03T15:25:59Z</time></trkpt><trkpt lat="42.41898279253757" lon="13.510312497625492"><ele>924.0</ele><time>2026-05-03T15:26:00Z</time></trkpt><trkpt lat="42.41884443747801" lon="13.51064442085548"><ele>926.0</ele><time>2026-05-03T15:26:01Z</time></trkpt><trkpt lat="42.4187058784776" lon="13.511000711123328"><ele>926.5</ele><time>2026-05-03T15:26:02Z</time></trkpt><trkpt lat="42.418563030227006" lon="13.511343457216354"><ele>927.0</ele><time>2026-05-03T15:26:03Z</time></trkpt><trkpt lat="42.41841973875232" lon="13.511688008768651"><ele>927.0</ele><time>2026-05-03T15:26:04Z</time></trkpt><trkpt lat="42.418278021742104" lon="13.512041363641844"><ele>927.0</ele><time>2026-05-03T15:26:05Z</time></trkpt><trkpt lat="42.4181393112667" lon="13.512397319560412"><ele>930.0</ele><time>2026-05-03T15:26:06Z</time></trkpt><trkpt lat="42.41800944127876" lon="13.512750018855186"><ele>933.0</ele><time>2026-05-03T15:26:07Z</time></trkpt><trkpt lat="42.41789033168564" lon="13.513104975309252"><ele>935.5</ele><time>2026-05-03T15:26:08Z</time></trkpt><trkpt lat="42.41777923511697" lon="13.513458434193007"><ele>938.0</ele><time>2026-05-03T15:26:09Z</time></trkpt><trkpt lat="42.41767631797257" lon="13.513829440857482"><ele>939.5</ele><time>2026-05-03T15:26:10Z</time></trkpt><trkpt lat="42.41757381295299" lon="13.514197625663575"><ele>941.0</ele><time>2026-05-03T15:26:11Z</time></trkpt><trkpt lat="42.41748121161604" lon="13.514571166329373"><ele>942.5</ele><time>2026-05-03T15:26:12Z</time></trkpt><trkpt lat="42.41739983520829" lon="13.514953687981663"><ele>944.0</ele><time>2026-05-03T15:26:13Z</time></trkpt><trkpt lat="42.417333743588195" lon="13.515349923790007"><ele>945.0</ele><time>2026-05-03T15:26:14Z</time></trkpt><trkpt lat="42.41727457177276" lon="13.515743948824127"><ele>946.0</ele><time>2026-05-03T15:26:15Z</time></trkpt><trkpt lat="42.41722254449903" lon="13.516135128298092"><ele>947.5</ele><time>2026-05-03T15:26:16Z</time></trkpt><trkpt lat="42.4171832857235" lon="13.516523696368267"><ele>949.0</ele><time>2026-05-03T15:26:17Z</time></trkpt><trkpt lat="42.41715806524628" lon="13.516908484415502"><ele>946.5</ele><time>2026-05-03T15:26:18Z</time></trkpt><trkpt lat="42.41714038612109" lon="13.51728469079771"><ele>944.0</ele><time>2026-05-03T15:26:19Z</time></trkpt><trkpt lat="42.417131729359895" lon="13.517650023737422"><ele>941.0</ele><time>2026-05-03T15:26:20Z</time></trkpt><trkpt lat="42.417130403635134" lon="13.518008232516358"><ele>938.0</ele><time>2026-05-03T15:26:21Z</time></trkpt><trkpt lat="42.41713081259073" lon="13.518363727318128"><ele>938.0</ele><time>2026-05-03T15:26:22Z</time></trkpt><trkpt lat="42.41714015352969" lon="13.518716308152085"><ele>938.0</ele><time>2026-05-03T15:26:23Z</time></trkpt><trkpt lat="42.41715205289062" lon="13.519066704398783"><ele>948.0</ele><time>2026-05-03T15:26:24Z</time></trkpt><trkpt lat="42.417171855836884" lon="13.519403303810247"><ele>958.0</ele><time>2026-05-03T15:26:25Z</time></trkpt><trkpt lat="42.41719120404803" lon="13.51973853481859"><ele>958.5</ele><time>2026-05-03T15:26:26Z</time></trkpt><trkpt lat="42.417213275380355" lon="13.520073372597448"><ele>959.0</ele><time>2026-05-03T15:26:27Z</time></trkpt><trkpt lat="42.41723640987406" lon="13.520406341259742"><ele>959.0</ele><time>2026-05-03T15:26:28Z</time></trkpt><trkpt lat="42.4172621338198" lon="13.520738153581547"><ele>959.0</ele><time>2026-05-03T15:26:29Z</time></trkpt><trkpt lat="42.417287777611456" lon="13.52106454546912"><ele>960.0</ele><time>2026-05-03T15:26:30Z</time></trkpt><trkpt lat="42.417315267282376" lon="13.521389337893359"><ele>961.0</ele><time>2026-05-03T15:26:31Z</time></trkpt><trkpt lat="42.41734325900902" lon="13.521717799376155"><ele>961.0</ele><time>2026-05-03T15:26:32Z</time></trkpt><trkpt lat="42.417374004543504" lon="13.522049967849743"><ele>961.0</ele><time>2026-05-03T15:26:33Z</time></trkpt><trkpt lat="42.41740407424099" lon="13.522386756291409"><ele>962.0</ele><time>2026-05-03T15:26:34Z</time></trkpt><trkpt lat="42.41743547788044" lon="13.522719591969508"><ele>963.0</ele><time>2026-05-03T15:26:35Z</time></trkpt><trkpt lat="42.41746658278192" lon="13.523052507048007"><ele>967.0</ele><time>2026-05-03T15:26:36Z</time></trkpt><trkpt lat="42.41750053446871" lon="13.523386825559426"><ele>971.0</ele><time>2026-05-03T15:26:37Z</time></trkpt><trkpt lat="42.41753612634503" lon="13.523724163533881"><ele>976.5</ele><time>2026-05-03T15:26:38Z</time></trkpt><trkpt lat="42.417571543375644" lon="13.524068102995336"><ele>982.0</ele><time>2026-05-03T15:26:39.026Z</time></trkpt><trkpt lat="42.41760582976943" lon="13.524399803220266"><ele>985.0</ele><time>2026-05-03T15:26:40.019Z</time></trkpt><trkpt lat="42.41763936136048" lon="13.524729085535359"><ele>988.0</ele><time>2026-05-03T15:26:41.017Z</time></trkpt><trkpt lat="42.41767289615071" lon="13.525055862952131"><ele>988.0</ele><time>2026-05-03T15:26:42.018Z</time></trkpt><trkpt lat="42.41770567998002" lon="13.525383415066342"><ele>988.0</ele><time>2026-05-03T15:26:43.02Z</time></trkpt><trkpt lat="42.41773827513056" lon="13.525718627585134"><ele>992.5</ele><time>2026-05-03T15:26:44.021Z</time></trkpt><trkpt lat="42.41777024245869" lon="13.526051225821178"><ele>997.0</ele><time>2026-05-03T15:26:45.017Z</time></trkpt><trkpt lat="42.481801612342224" lon="13.603957425815615"><ele>946.5</ele><time>2026-05-03T15:34:06.994Z</time></trkpt><trkpt lat="42.482014794984615" lon="13.603934403286363"><ele>896.0</ele><time>2026-05-03T15:34:07.994Z</time></trkpt><trkpt lat="42.482271925622214" lon="13.603929055706619"><ele>891.3333333333334</ele><time>2026-05-03T15:34:08.994Z</time></trkpt><trkpt lat="42.482475966900175" lon="13.603866966144965"><ele>886.6666666666667</ele><time>2026-05-03T15:34:09.994Z</time></trkpt><trkpt lat="42.48269241335644" lon="13.60379632148497"><ele>882.0</ele><time>2026-05-03T15:34:10.994Z</time></trkpt><trkpt lat="42.48290832294089" lon="13.603702227662842"><ele>870.5</ele><time>2026-05-03T15:34:11.994Z</time></trkpt><trkpt lat="42.48313210386472" lon="13.603585190877835"><ele>859.0</ele><time>2026-05-03T15:34:13.001Z</time></trkpt><trkpt lat="42.48334935594583" lon="13.603463806251554"><ele>859.0</ele><time>2026-05-03T15:34:14.001Z</time></trkpt><trkpt lat="42.48356524303231" lon="13.603331777219326"><ele>859.0</ele><time>2026-05-03T15:34:15.001Z</time></trkpt><trkpt lat="42.48377715483623" lon="13.603184794887786"><ele>846.0</ele><time>2026-05-03T15:34:16.001Z</time></trkpt><trkpt lat="42.48398581322685" lon="13.603033685543288"><ele>833.0</ele><time>2026-05-03T15:34:17.001Z</time></trkpt><trkpt lat="42.48418962358132" lon="13.602870912090374"><ele>837.5</ele><time>2026-05-03T15:34:18.001Z</time></trkpt><trkpt lat="42.48439154363768" lon="13.602705674565449"><ele>842.0</ele><time>2026-05-03T15:34:19.001Z</time></trkpt><trkpt lat="42.48458479179727" lon="13.602526275623495"><ele>839.5</ele><time>2026-05-03T15:34:20.001Z</time></trkpt><trkpt lat="42.48477940879172" lon="13.602347192546086"><ele>837.0</ele><time>2026-05-03T15:34:21.001Z</time></trkpt><trkpt lat="42.48497546988892" lon="13.602168826387768"><ele>843.5</ele><time>2026-05-03T15:34:22.001Z</time></trkpt><trkpt lat="42.48517015361827" lon="13.601984230915246"><ele>850.0</ele><time>2026-05-03T15:34:23.001Z</time></trkpt><trkpt lat="42.48536429288285" lon="13.601804594890792"><ele>848.5</ele><time>2026-05-03T15:34:24.001Z</time></trkpt><trkpt lat="42.48556131406054" lon="13.601630572197863"><ele>847.0</ele><time>2026-05-03T15:34:25.001Z</time></trkpt><trkpt lat="42.48576557397997" lon="13.60146148699982"><ele>847.0</ele><time>2026-05-03T15:34:26.001Z</time></trkpt><trkpt lat="42.48597876574057" lon="13.601299944055908"><ele>847.0</ele><time>2026-05-03T15:34:27.001Z</time></trkpt><trkpt lat="42.48619235576739" lon="13.601149738796849"><ele>846.0</ele><time>2026-05-03T15:34:28.001Z</time></trkpt><trkpt lat="42.486413455656255" lon="13.601011702053588"><ele>845.0</ele><time>2026-05-03T15:34:29.001Z</time></trkpt><trkpt lat="42.48664455966766" lon="13.600883514170205"><ele>845.0</ele><time>2026-05-03T15:34:30Z</time></trkpt><trkpt lat="42.48688475547884" lon="13.600769640542488"><ele>845.0</ele><time>2026-05-03T15:34:31Z</time></trkpt><trkpt lat="42.48713418791282" lon="13.600675801810908"><ele>836.0</ele><time>2026-05-03T15:34:32Z</time></trkpt><trkpt lat="42.48736275673644" lon="13.600564505490514"><ele>827.0</ele><time>2026-05-03T15:34:33Z</time></trkpt><trkpt lat="42.4876183183192" lon="13.600511808856599"><ele>827.0</ele><time>2026-05-03T15:34:34Z</time></trkpt><trkpt lat="42.48787837513648" lon="13.600489417295769"><ele>827.0</ele><time>2026-05-03T15:34:35Z</time></trkpt><trkpt lat="42.488138742434096" lon="13.600481558554396"><ele>823.5</ele><time>2026-05-03T15:34:36Z</time></trkpt><trkpt lat="42.488392436975715" lon="13.600504594838945"><ele>820.0</ele><time>2026-05-03T15:34:37Z</time></trkpt><trkpt lat="42.488635711005706" lon="13.600546857313207"><ele>828.0</ele><time>2026-05-03T15:34:38Z</time></trkpt><trkpt lat="42.488869733368915" lon="13.600611593796462"><ele>836.0</ele><time>2026-05-03T15:34:39Z</time></trkpt><trkpt lat="42.489100343243216" lon="13.600690481903802"><ele>836.0</ele><time>2026-05-03T15:34:40Z</time></trkpt><trkpt lat="42.48932762879379" lon="13.600788929152726"><ele>836.0</ele><time>2026-05-03T15:34:41Z</time></trkpt><trkpt lat="42.489554118253615" lon="13.600904402487924"><ele>836.5</ele><time>2026-05-03T15:34:42Z</time></trkpt><trkpt lat="42.48977573120056" lon="13.601065096503477"><ele>837.0</ele><time>2026-05-03T15:34:43Z</time></trkpt><trkpt lat="42.4900022126139" lon="13.601215504254384"><ele>832.0</ele><time>2026-05-03T15:34:44Z</time></trkpt><trkpt lat="42.49022604138594" lon="13.60138415351741"><ele>827.0</ele><time>2026-05-03T15:34:45Z</time></trkpt><trkpt lat="42.49044499078528" lon="13.60157114954495"><ele>824.0</ele><time>2026-05-03T15:34:46Z</time></trkpt><trkpt lat="42.49066637641819" lon="13.601767276425868"><ele>821.0</ele><time>2026-05-03T15:34:47Z</time></trkpt><trkpt lat="42.490883481865595" lon="13.601959880020724"><ele>822.5</ele><time>2026-05-03T15:34:48Z</time></trkpt><trkpt lat="42.49109120211102" lon="13.602136007953161"><ele>824.0</ele><time>2026-05-03T15:34:49Z</time></trkpt><trkpt lat="42.49130143912501" lon="13.602311213809164"><ele>824.0</ele><time>2026-05-03T15:34:50Z</time></trkpt><trkpt lat="42.49151273968675" lon="13.602487233079094"><ele>824.0</ele><time>2026-05-03T15:34:51Z</time></trkpt><trkpt lat="42.49172868574201" lon="13.602660615590851"><ele>824.0</ele><time>2026-05-03T15:34:52Z</time></trkpt><trkpt lat="42.491950167210895" lon="13.602820934939835"><ele>824.0</ele><time>2026-05-03T15:34:53Z</time></trkpt><trkpt lat="42.49217833921672" lon="13.602970486202222"><ele>810.5</ele><time>2026-05-03T15:34:54Z</time></trkpt><trkpt lat="42.492416721415346" lon="13.603099944424716"><ele>797.0</ele><time>2026-05-03T15:34:55Z</time></trkpt><trkpt lat="42.49266156944021" lon="13.603210127424825"><ele>797.0</ele><time>2026-05-03T15:34:56Z</time></trkpt><trkpt lat="42.49291024178397" lon="13.603302878228515"><ele>797.0</ele><time>2026-05-03T15:34:57Z</time></trkpt><trkpt lat="42.49316122090085" lon="13.603388268750221"><ele>797.0</ele><time>2026-05-03T15:34:58Z</time></trkpt><trkpt lat="42.49341650707413" lon="13.60345979124751"><ele>797.0</ele><time>2026-05-03T15:34:59Z</time></trkpt><trkpt lat="42.49367087414129" lon="13.603512085927935"><ele>797.0</ele><time>2026-05-03T15:35:00Z</time></trkpt><trkpt lat="42.49390985372462" lon="13.603568379413037"><ele>797.0</ele><time>2026-05-03T15:35:01Z</time></trkpt><trkpt lat="42.49414231263414" lon="13.60363230688514"><ele>792.5</ele><time>2026-05-03T15:35:02Z</time></trkpt><trkpt lat="42.49437665656008" lon="13.603705136500945"><ele>788.0</ele><time>2026-05-03T15:35:03Z</time></trkpt><trkpt lat="42.49460585983139" lon="13.603780796727227"><ele>788.0</ele><time>2026-05-03T15:35:04Z</time></trkpt><trkpt lat="42.494824447757026" lon="13.603868170835993"><ele>788.0</ele><time>2026-05-03T15:35:05Z</time></trkpt><trkpt lat="42.495043272159485" lon="13.60397164085896"><ele>788.0</ele><time>2026-05-03T15:35:05.999Z</time></trkpt><trkpt lat="42.495258684761566" lon="13.604086531103487"><ele>788.0</ele><time>2026-05-03T15:35:06.999Z</time></trkpt><trkpt lat="42.495464384051914" lon="13.604213115185162"><ele>785.6666666666667</ele><time>2026-05-03T15:35:07.999Z</time></trkpt><trkpt lat="42.495662764921356" lon="13.604353379973569"><ele>783.3333333333333</ele><time>2026-05-03T15:35:08.999Z</time></trkpt><trkpt lat="42.49585137995291" lon="13.604506282509645"><ele>781.0</ele><time>2026-05-03T15:35:09.999Z</time></trkpt><trkpt lat="42.49603657295157" lon="13.604680773060446"><ele>781.0</ele><time>2026-05-03T15:35:10.999Z</time></trkpt><trkpt lat="42.496217662968434" lon="13.604870607965397"><ele>781.0</ele><time>2026-05-03T15:35:11.999Z</time></trkpt><trkpt lat="42.49639362990563" lon="13.605079176444697"><ele>780.5</ele><time>2026-05-03T15:35:12.999Z</time></trkpt><trkpt lat="42.496560995073786" lon="13.605301580930933"><ele>780.0</ele><time>2026-05-03T15:35:13.999Z</time></trkpt><trkpt lat="42.49672269218343" lon="13.60553630374048"><ele>780.0</ele><time>2026-05-03T15:35:14.999Z</time></trkpt><trkpt lat="42.49687185367434" lon="13.605785449578923"><ele>780.0</ele><time>2026-05-03T15:35:15.999Z</time></trkpt><trkpt lat="42.4970136595585" lon="13.606048764233522"><ele>772.0</ele><time>2026-05-03T15:35:16.999Z</time></trkpt><trkpt lat="42.49714600368342" lon="13.60632691392238"><ele>764.0</ele><time>2026-05-03T15:35:17.999Z</time></trkpt><trkpt lat="42.49726433221132" lon="13.60661641365822"><ele>764.0</ele><time>2026-05-03T15:35:18.999Z</time></trkpt><trkpt lat="42.49736899669965" lon="13.606920152791643"><ele>764.0</ele><time>2026-05-03T15:35:19.999Z</time></trkpt><trkpt lat="42.49746056165158" lon="13.60723195684605"><ele>756.0</ele><time>2026-05-03T15:35:20.999Z</time></trkpt><trkpt lat="42.497536398241564" lon="13.607548210774777"><ele>748.0</ele><time>2026-05-03T15:35:21.999Z</time></trkpt><trkpt lat="42.49759694958435" lon="13.607870411159706"><ele>741.5</ele><time>2026-05-03T15:35:22.999Z</time></trkpt><trkpt lat="42.49764250718042" lon="13.608193842834565"><ele>735.0</ele><time>2026-05-03T15:35:23.999Z</time></trkpt><trkpt lat="42.4976744522372" lon="13.608523518450696"><ele>737.0</ele><time>2026-05-03T15:35:24.999Z</time></trkpt><trkpt lat="42.49768977236994" lon="13.60885582211229"><ele>739.0</ele><time>2026-05-03T15:35:25.999Z</time></trkpt><trkpt lat="42.49769034335921" lon="13.609191697472358"><ele>738.0</ele><time>2026-05-03T15:35:26.999Z</time></trkpt><trkpt lat="42.49767565896439" lon="13.60952634669368"><ele>737.0</ele><time>2026-05-03T15:35:27.999Z</time></trkpt><trkpt lat="42.49764952584026" lon="13.609857573051487"><ele>737.0</ele><time>2026-05-03T15:35:28.999Z</time></trkpt><trkpt lat="42.49760641255129" lon="13.610188314716948"><ele>737.0</ele><time>2026-05-03T15:35:29.999Z</time></trkpt><trkpt lat="42.49754667525741" lon="13.610517531631833"><ele>736.0</ele><time>2026-05-03T15:35:30.999Z</time></trkpt><trkpt lat="42.4974726039009" lon="13.610845087459492"><ele>735.0</ele><time>2026-05-03T15:35:31.999Z</time></trkpt><trkpt lat="42.49738363253012" lon="13.611172876344694"><ele>740.0</ele><time>2026-05-03T15:35:32.999Z</time></trkpt><trkpt lat="42.49728068305629" lon="13.611500266613227"><ele>745.0</ele><time>2026-05-03T15:35:33.999Z</time></trkpt><trkpt lat="42.49716775305148" lon="13.611821849095554"><ele>743.5</ele><time>2026-05-03T15:35:34.999Z</time></trkpt><trkpt lat="42.49704708427303" lon="13.612142408076373"><ele>742.0</ele><time>2026-05-03T15:35:35.999Z</time></trkpt><trkpt lat="42.4969240193937" lon="13.61246321057625"><ele>742.0</ele><time>2026-05-03T15:35:36.999Z</time></trkpt><trkpt lat="42.49680050098318" lon="13.612783509518044"><ele>742.0</ele><time>2026-05-03T15:35:37.999Z</time></trkpt><trkpt lat="42.49667956745604" lon="13.613104757021414"><ele>743.0</ele><time>2026-05-03T15:35:38.999Z</time></trkpt><trkpt lat="42.49656316241259" lon="13.61342833653949"><ele>744.0</ele><time>2026-05-03T15:35:39.999Z</time></trkpt><trkpt lat="42.49645281377779" lon="13.613756328946494"><ele>742.0</ele><time>2026-05-03T15:35:40.999Z</time></trkpt><trkpt lat="42.49635273306646" lon="13.614090187042576"><ele>740.0</ele><time>2026-05-03T15:35:41.999Z</time></trkpt><trkpt lat="42.49626587946591" lon="13.614430280234851"><ele>730.0</ele><time>2026-05-03T15:35:42.999Z</time></trkpt><trkpt lat="42.49619322029073" lon="13.614773465522562"><ele>720.0</ele><time>2026-05-03T15:35:43.999Z</time></trkpt><trkpt lat="42.49613746705922" lon="13.615121533851937"><ele>730.0</ele><time>2026-05-03T15:35:44.999Z</time></trkpt><trkpt lat="42.49609910704269" lon="13.61547216122174"><ele>740.0</ele><time>2026-05-03T15:35:45.999Z</time></trkpt><trkpt lat="42.49607828580922" lon="13.61582138940824"><ele>740.0</ele><time>2026-05-03T15:35:46.999Z</time></trkpt><trkpt lat="42.496083684299954" lon="13.61614969210167"><ele>740.0</ele><time>2026-05-03T15:35:47.999Z</time></trkpt><trkpt lat="42.49610054643642" lon="13.616472067572898"><ele>749.5</ele><time>2026-05-03T15:35:48.999Z</time></trkpt><trkpt lat="42.49611576637215" lon="13.616810086809386"><ele>759.0</ele><time>2026-05-03T15:35:50.016Z</time></trkpt><trkpt lat="42.49613157739158" lon="13.617138245349139"><ele>759.5</ele><time>2026-05-03T15:35:51.017Z</time></trkpt><trkpt lat="42.49614894904884" lon="13.617461583654219"><ele>760.0</ele><time>2026-05-03T15:35:52.015Z</time></trkpt><trkpt lat="42.49619430779639" lon="13.617773415396071"><ele>763.5</ele><time>2026-05-03T15:35:53.015Z</time></trkpt><trkpt lat="42.49626787557134" lon="13.618069732446509"><ele>767.0</ele><time>2026-05-03T15:35:54.014Z</time></trkpt><trkpt lat="42.49771767299855" lon="13.620619894949366"><ele>739.0</ele><time>2026-05-03T15:36:03.998Z</time></trkpt><trkpt lat="42.49789840102275" lon="13.6208439936739"><ele>711.0</ele><time>2026-05-03T15:36:04.998Z</time></trkpt><trkpt lat="42.49808608432508" lon="13.621069106585157"><ele>701.0</ele><time>2026-05-03T15:36:05.998Z</time></trkpt><trkpt lat="42.49828136366212" lon="13.621274581850157"><ele>691.0</ele><time>2026-05-03T15:36:06.998Z</time></trkpt><trkpt lat="42.49848286228514" lon="13.621512758650397"><ele>691.0</ele><time>2026-05-03T15:36:07.998Z</time></trkpt><trkpt lat="42.4986868935537" lon="13.621772143194798"><ele>691.0</ele><time>2026-05-03T15:36:08.998Z</time></trkpt><trkpt lat="42.49889725015647" lon="13.62204309002132"><ele>690.0</ele><time>2026-05-03T15:36:09.998Z</time></trkpt><trkpt lat="42.4990982582529" lon="13.622324135890949"><ele>689.0</ele><time>2026-05-03T15:36:10.998Z</time></trkpt><trkpt lat="42.499299034348084" lon="13.622607940144496"><ele>684.5</ele><time>2026-05-03T15:36:11.998Z</time></trkpt><trkpt lat="42.49949932596586" lon="13.622909245033293"><ele>680.0</ele><time>2026-05-03T15:36:12.998Z</time></trkpt><trkpt lat="42.49969936549205" lon="13.623220944848116"><ele>680.0</ele><time>2026-05-03T15:36:13.998Z</time></trkpt><trkpt lat="42.499895201713336" lon="13.623545769304707"><ele>680.0</ele><time>2026-05-03T15:36:14.998Z</time></trkpt><trkpt lat="42.50008540604762" lon="13.623874247662807"><ele>674.0</ele><time>2026-05-03T15:36:15.998Z</time></trkpt><trkpt lat="42.50027065414793" lon="13.624205856835857"><ele>668.0</ele><time>2026-05-03T15:36:16.998Z</time></trkpt><trkpt lat="42.50045540018341" lon="13.624537490098628"><ele>668.0</ele><time>2026-05-03T15:36:17.998Z</time></trkpt><trkpt lat="42.50063116291703" lon="13.62486486371225"><ele>668.0</ele><time>2026-05-03T15:36:19Z</time></trkpt><trkpt lat="42.50080069427565" lon="13.625189509370347"><ele>661.0</ele><time>2026-05-03T15:36:20Z</time></trkpt><trkpt lat="42.50096965074019" lon="13.625511968576758"><ele>654.0</ele><time>2026-05-03T15:36:21Z</time></trkpt><trkpt lat="42.50114143242878" lon="13.625829592088982"><ele>655.0</ele><time>2026-05-03T15:36:22Z</time></trkpt><trkpt lat="42.50131666513377" lon="13.62614629439649"><ele>656.0</ele><time>2026-05-03T15:36:23Z</time></trkpt><trkpt lat="42.50149694111808" lon="13.626454628704819"><ele>656.0</ele><time>2026-05-03T15:36:24Z</time></trkpt><trkpt lat="42.5016856139437" lon="13.626756737776187"><ele>656.0</ele><time>2026-05-03T15:36:25Z</time></trkpt><trkpt lat="42.50188175641643" lon="13.627047698416844"><ele>657.5</ele><time>2026-05-03T15:36:26Z</time></trkpt><trkpt lat="42.50208851454912" lon="13.627322369277675"><ele>659.0</ele><time>2026-05-03T15:36:27Z</time></trkpt><trkpt lat="42.502304408829396" lon="13.62758235779625"><ele>650.0</ele><time>2026-05-03T15:36:28Z</time></trkpt><trkpt lat="42.50253075539866" lon="13.627824067202623"><ele>641.0</ele><time>2026-05-03T15:36:29Z</time></trkpt><trkpt lat="42.502765772505356" lon="13.628051554808648"><ele>645.5</ele><time>2026-05-03T15:36:30Z</time></trkpt><trkpt lat="42.50301028426203" lon="13.62825570661171"><ele>650.0</ele><time>2026-05-03T15:36:31Z</time></trkpt><trkpt lat="42.503258059148656" lon="13.628453439502803"><ele>650.0</ele><time>2026-05-03T15:36:32Z</time></trkpt><trkpt lat="42.50351921273731" lon="13.628616024526274"><ele>650.0</ele><time>2026-05-03T15:36:33Z</time></trkpt><trkpt lat="42.5037860642061" lon="13.628761737474028"><ele>644.5</ele><time>2026-05-03T15:36:34Z</time></trkpt><trkpt lat="42.5040570288077" lon="13.628886176100051"><ele>639.0</ele><time>2026-05-03T15:36:35Z</time></trkpt><trkpt lat="42.50433369834656" lon="13.62898652970915"><ele>635.0</ele><time>2026-05-03T15:36:36Z</time></trkpt><trkpt lat="42.50461418525245" lon="13.62906518479547"><ele>631.0</ele><time>2026-05-03T15:36:37Z</time></trkpt><trkpt lat="42.504897498769196" lon="13.6291258588835"><ele>631.0</ele><time>2026-05-03T15:36:38Z</time></trkpt><trkpt lat="42.50518181963686" lon="13.629161631738237"><ele>631.0</ele><time>2026-05-03T15:36:39Z</time></trkpt><trkpt lat="42.505468199855876" lon="13.62917141609787"><ele>634.5</ele><time>2026-05-03T15:36:40Z</time></trkpt><trkpt lat="42.50575670981227" lon="13.629161051169755"><ele>638.0</ele><time>2026-05-03T15:36:41Z</time></trkpt><trkpt lat="42.50604543660401" lon="13.62913785659591"><ele>641.5</ele><time>2026-05-03T15:36:42Z</time></trkpt><trkpt lat="42.50633482488504" lon="13.629101825592295"><ele>645.0</ele><time>2026-05-03T15:36:43Z</time></trkpt><trkpt lat="42.50662334937392" lon="13.629060498674347"><ele>645.0</ele><time>2026-05-03T15:36:44Z</time></trkpt><trkpt lat="42.50691170613393" lon="13.629016815432244"><ele>645.0</ele><time>2026-05-03T15:36:45Z</time></trkpt><trkpt lat="42.507200900747044" lon="13.628980003641413"><ele>632.0</ele><time>2026-05-03T15:36:46Z</time></trkpt><trkpt lat="42.50748947988714" lon="13.628953072382817"><ele>619.0</ele><time>2026-05-03T15:36:47Z</time></trkpt><trkpt lat="42.50777960997999" lon="13.628932268271235"><ele>615.0</ele><time>2026-05-03T15:36:48Z</time></trkpt><trkpt lat="42.50806337805486" lon="13.628931914922328"><ele>611.0</ele><time>2026-05-03T15:36:49Z</time></trkpt><trkpt lat="42.50834596301599" lon="13.628955085723714"><ele>611.0</ele><time>2026-05-03T15:36:50Z</time></trkpt><trkpt lat="42.50862595075557" lon="13.629004518050154"><ele>611.0</ele><time>2026-05-03T15:36:51Z</time></trkpt><trkpt lat="42.508900925971815" lon="13.629077716846439"><ele>618.0</ele><time>2026-05-03T15:36:52Z</time></trkpt><trkpt lat="42.509171894812674" lon="13.62917608723657"><ele>625.0</ele><time>2026-05-03T15:36:53Z</time></trkpt><trkpt lat="42.5094384809571" lon="13.62929326521205"><ele>622.5</ele><time>2026-05-03T15:36:54Z</time></trkpt><trkpt lat="42.50969705121157" lon="13.629434740844232"><ele>620.0</ele><time>2026-05-03T15:36:55Z</time></trkpt><trkpt lat="42.50994074993943" lon="13.629592748727969"><ele>620.0</ele><time>2026-05-03T15:36:56Z</time></trkpt><trkpt lat="42.51017009495552" lon="13.629767457114607"><ele>620.0</ele><time>2026-05-03T15:36:57Z</time></trkpt><trkpt lat="42.51039640238448" lon="13.629961169221787"><ele>619.5</ele><time>2026-05-03T15:36:58Z</time></trkpt><trkpt lat="42.510614940405816" lon="13.630178461161432"><ele>619.0</ele><time>2026-05-03T15:36:59Z</time></trkpt><trkpt lat="42.510825143962556" lon="13.63041440487674"><ele>618.5</ele><time>2026-05-03T15:37:00Z</time></trkpt><trkpt lat="42.511027550614564" lon="13.630671105845394"><ele>618.0</ele><time>2026-05-03T15:37:01Z</time></trkpt><trkpt lat="42.511221284383645" lon="13.630940984626388"><ele>615.5</ele><time>2026-05-03T15:37:02Z</time></trkpt><trkpt lat="42.511401646751004" lon="13.631230130422965"><ele>613.0</ele><time>2026-05-03T15:37:03Z</time></trkpt><trkpt lat="42.51156847667253" lon="13.631535922123842"><ele>613.0</ele><time>2026-05-03T15:37:04Z</time></trkpt><trkpt lat="42.51172168946112" lon="13.631854882959338"><ele>613.0</ele><time>2026-05-03T15:37:04.999Z</time></trkpt><trkpt lat="42.511863186832414" lon="13.63218413926217"><ele>603.0</ele><time>2026-05-03T15:37:05.999Z</time></trkpt><trkpt lat="42.51199272629527" lon="13.632520352850994"><ele>593.0</ele><time>2026-05-03T15:37:06.999Z</time></trkpt><trkpt lat="42.512120446267666" lon="13.632867860775294"><ele>591.5</ele><time>2026-05-03T15:37:07.999Z</time></trkpt><trkpt lat="42.51223605289656" lon="13.633217501406403"><ele>590.0</ele><time>2026-05-03T15:37:08.999Z</time></trkpt><trkpt lat="42.5123382871667" lon="13.633572958934394"><ele>587.0</ele><time>2026-05-03T15:37:09.999Z</time></trkpt><trkpt lat="42.51244057708746" lon="13.633942251094485"><ele>584.0</ele><time>2026-05-03T15:37:10.999Z</time></trkpt><trkpt lat="42.51254398028742" lon="13.63431626799608"><ele>589.5</ele><time>2026-05-03T15:37:11.999Z</time></trkpt><trkpt lat="42.512644483242646" lon="13.634684919870304"><ele>595.0</ele><time>2026-05-03T15:37:12.999Z</time></trkpt><trkpt lat="42.512737383534194" lon="13.635043743841555"><ele>604.5</ele><time>2026-05-03T15:37:13.999Z</time></trkpt><trkpt lat="42.51283120316499" lon="13.635393724581803"><ele>614.0</ele><time>2026-05-03T15:37:14.999Z</time></trkpt><trkpt lat="42.51291645458776" lon="13.635769084523133"><ele>620.0</ele><time>2026-05-03T15:37:15.999Z</time></trkpt><trkpt lat="42.51300128519518" lon="13.636147575228348"><ele>626.0</ele><time>2026-05-03T15:37:16.999Z</time></trkpt><trkpt lat="42.51309108826517" lon="13.636532739477527"><ele>626.0</ele><time>2026-05-03T15:37:18.014Z</time></trkpt><trkpt lat="42.51317859864579" lon="13.636901144313057"><ele>626.0</ele><time>2026-05-03T15:37:19.015Z</time></trkpt><trkpt lat="42.51326869256553" lon="13.63728342033163"><ele>623.5</ele><time>2026-05-03T15:37:20.014Z</time></trkpt><trkpt lat="42.513358343670156" lon="13.637657695936289"><ele>621.0</ele><time>2026-05-03T15:37:21.015Z</time></trkpt><trkpt lat="42.51348694647887" lon="13.638011246965059"><ele>565.0</ele><time>2026-05-03T15:37:22.015Z</time></trkpt><trkpt lat="42.51454328877622" lon="13.640341489498962"><ele>571.0</ele><time>2026-05-03T15:37:25.916Z</time></trkpt><trkpt lat="42.51476929104263" lon="13.640065484209138"><ele>577.0</ele><time>2026-05-03T15:37:27.92Z</time></trkpt><trkpt lat="42.51414771687357" lon="13.638726774827738"><ele>621.0</ele><time>2026-05-03T15:37:28.92Z</time></trkpt><trkpt lat="42.51365116357728" lon="13.637295498537576"><ele>623.0</ele><time>2026-05-03T15:37:29.92Z</time></trkpt><trkpt lat="42.51324533286099" lon="13.63581497191988"><ele>570.0</ele><time>2026-05-03T15:37:30.919Z</time></trkpt><trkpt lat="42.514935191760316" lon="13.641003929091283"><ele>565.0</ele><time>2026-05-03T15:37:31.999Z</time></trkpt><trkpt lat="42.51511334083239" lon="13.64129011977592"><ele>560.0</ele><time>2026-05-03T15:37:32.999Z</time></trkpt><trkpt lat="42.515299550046954" lon="13.64154724039219"><ele>559.0</ele><time>2026-05-03T15:37:33.999Z</time></trkpt><trkpt lat="42.51549264953458" lon="13.641809362990758"><ele>558.0</ele><time>2026-05-03T15:37:34.999Z</time></trkpt><trkpt lat="42.5156937182579" lon="13.642061943742544"><ele>558.0</ele><time>2026-05-03T15:37:35.999Z</time></trkpt><trkpt lat="42.51590591854322" lon="13.642294718138887"><ele>558.0</ele><time>2026-05-03T15:37:36.999Z</time></trkpt><trkpt lat="42.51612238154265" lon="13.642523498698408"><ele>551.5</ele><time>2026-05-03T15:37:37.999Z</time></trkpt><trkpt lat="42.516345174663016" lon="13.642740661789826"><ele>545.0</ele><time>2026-05-03T15:37:38.999Z</time></trkpt><trkpt lat="42.516574708034675" lon="13.642955840501958"><ele>544.5</ele><time>2026-05-03T15:37:39.999Z</time></trkpt><trkpt lat="42.5168086904679" lon="13.64317181675399"><ele>544.0</ele><time>2026-05-03T15:37:40.999Z</time></trkpt><trkpt lat="42.5170553221312" lon="13.64337586405847"><ele>532.5</ele><time>2026-05-03T15:37:41.999Z</time></trkpt><trkpt lat="42.51730953936904" lon="13.64358049082575"><ele>521.0</ele><time>2026-05-03T15:37:42.999Z</time></trkpt><trkpt lat="42.51756322378217" lon="13.643789742419315"><ele>523.5</ele><time>2026-05-03T15:37:43.999Z</time></trkpt><trkpt lat="42.51781893670768" lon="13.643995605491614"><ele>526.0</ele><time>2026-05-03T15:37:44.999Z</time></trkpt><trkpt lat="42.51807652291026" lon="13.644197954575791"><ele>526.0</ele><time>2026-05-03T15:37:45.999Z</time></trkpt><trkpt lat="42.51833365006118" lon="13.64439989870258"><ele>526.0</ele><time>2026-05-03T15:37:46.999Z</time></trkpt><trkpt lat="42.51859378288029" lon="13.644602103181809"><ele>535.0</ele><time>2026-05-03T15:37:47.999Z</time></trkpt><trkpt lat="42.51885313628688" lon="13.644802454079203"><ele>544.0</ele><time>2026-05-03T15:37:48.999Z</time></trkpt><trkpt lat="42.51910577379102" lon="13.645010031511086"><ele>544.0</ele><time>2026-05-03T15:37:49.999Z</time></trkpt><trkpt lat="42.51936382684427" lon="13.64521618623721"><ele>544.0</ele><time>2026-05-03T15:37:50.999Z</time></trkpt><trkpt lat="42.51963012041204" lon="13.64542442631292"><ele>539.5</ele><time>2026-05-03T15:37:51.999Z</time></trkpt><trkpt lat="42.51989862091747" lon="13.645638452037987"><ele>535.0</ele><time>2026-05-03T15:37:52.999Z</time></trkpt><trkpt lat="42.52016715587464" lon="13.645863819864902"><ele>534.0</ele><time>2026-05-03T15:37:53.999Z</time></trkpt><trkpt lat="42.520427849072" lon="13.646097897201214"><ele>533.0</ele><time>2026-05-03T15:37:54.999Z</time></trkpt><trkpt lat="42.52068801096244" lon="13.64634211117001"><ele>533.0</ele><time>2026-05-03T15:37:55.999Z</time></trkpt><trkpt lat="42.520946678092905" lon="13.646591442499762"><ele>533.0</ele><time>2026-05-03T15:37:56.999Z</time></trkpt><trkpt lat="42.52120293731111" lon="13.646845218060825"><ele>525.5</ele><time>2026-05-03T15:37:57.999Z</time></trkpt><trkpt lat="42.521458979531545" lon="13.647097268744139"><ele>518.0</ele><time>2026-05-03T15:37:58.999Z</time></trkpt><trkpt lat="42.521712458832305" lon="13.647346760979769"><ele>518.0</ele><time>2026-05-03T15:37:59.999Z</time></trkpt><trkpt lat="42.52196290568903" lon="13.647596239062127"><ele>518.0</ele><time>2026-05-03T15:38:00.999Z</time></trkpt><trkpt lat="42.52220452533314" lon="13.647847919598185"><ele>524.0</ele><time>2026-05-03T15:38:01.999Z</time></trkpt><trkpt lat="42.522443143062105" lon="13.648102166661868"><ele>530.0</ele><time>2026-05-03T15:38:02.999Z</time></trkpt><trkpt lat="42.522680907502455" lon="13.648357556481749"><ele>531.5</ele><time>2026-05-03T15:38:03.998Z</time></trkpt><trkpt lat="42.5229168801474" lon="13.648614789517644"><ele>533.0</ele><time>2026-05-03T15:38:04.998Z</time></trkpt><trkpt lat="42.52315148374121" lon="13.648878821703558"><ele>533.0</ele><time>2026-05-03T15:38:05.998Z</time></trkpt><trkpt lat="42.52338354363995" lon="13.649149530434386"><ele>533.0</ele><time>2026-05-03T15:38:06.998Z</time></trkpt><trkpt lat="42.52361344128717" lon="13.649425128612593"><ele>530.0</ele><time>2026-05-03T15:38:07.998Z</time></trkpt><trkpt lat="42.52384100414819" lon="13.649702249258825"><ele>527.0</ele><time>2026-05-03T15:38:08.998Z</time></trkpt><trkpt lat="42.52406834132681" lon="13.649980143449163"><ele>527.0</ele><time>2026-05-03T15:38:09.998Z</time></trkpt><trkpt lat="42.52429595635198" lon="13.650260459507983"><ele>527.0</ele><time>2026-05-03T15:38:10.998Z</time></trkpt><trkpt lat="42.52452120958396" lon="13.65054440746032"><ele>526.0</ele><time>2026-05-03T15:38:11.998Z</time></trkpt><trkpt lat="42.5247453169544" lon="13.650831444877808"><ele>525.0</ele><time>2026-05-03T15:38:12.998Z</time></trkpt><trkpt lat="42.52496902918518" lon="13.651119324962071"><ele>526.0</ele><time>2026-05-03T15:38:13.998Z</time></trkpt><trkpt lat="42.5251940222084" lon="13.651408957751574"><ele>527.0</ele><time>2026-05-03T15:38:14.998Z</time></trkpt><trkpt lat="42.52541486862453" lon="13.651700345100597"><ele>524.0</ele><time>2026-05-03T15:38:15.998Z</time></trkpt><trkpt lat="42.525635918169385" lon="13.651997792216605"><ele>521.0</ele><time>2026-05-03T15:38:16.998Z</time></trkpt><trkpt lat="42.52585486419614" lon="13.652300087726394"><ele>521.0</ele><time>2026-05-03T15:38:17.998Z</time></trkpt><trkpt lat="42.52607036552788" lon="13.65260907660691"><ele>521.0</ele><time>2026-05-03T15:38:18.998Z</time></trkpt><trkpt lat="42.52628238155387" lon="13.652921106532617"><ele>520.0</ele><time>2026-05-03T15:38:19.998Z</time></trkpt><trkpt lat="42.526492113550795" lon="13.65323392006516"><ele>519.0</ele><time>2026-05-03T15:38:20.998Z</time></trkpt><trkpt lat="42.52670761890226" lon="13.65355629564486"><ele>519.5</ele><time>2026-05-03T15:38:21.998Z</time></trkpt><trkpt lat="42.526913761388805" lon="13.653866829744668"><ele>520.0</ele><time>2026-05-03T15:38:22.998Z</time></trkpt><trkpt lat="42.52712207893551" lon="13.654188799751564"><ele>514.5</ele><time>2026-05-03T15:38:23.998Z</time></trkpt><trkpt lat="42.52732407346361" lon="13.654516119998922"><ele>509.0</ele><time>2026-05-03T15:38:25Z</time></trkpt><trkpt lat="42.52752507476098" lon="13.654845516560142"><ele>509.0</ele><time>2026-05-03T15:38:26Z</time></trkpt><trkpt lat="42.52772547098388" lon="13.65517297717585"><ele>509.0</ele><time>2026-05-03T15:38:27Z</time></trkpt><trkpt lat="42.52792706724403" lon="13.65550201704279"><ele>503.5</ele><time>2026-05-03T15:38:28Z</time></trkpt><trkpt lat="42.52812811542309" lon="13.655828139624658"><ele>498.0</ele><time>2026-05-03T15:38:29Z</time></trkpt><trkpt lat="42.52832700245508" lon="13.656160530609855"><ele>492.0</ele><time>2026-05-03T15:38:30Z</time></trkpt><trkpt lat="42.528520980041996" lon="13.656495812251688"><ele>486.0</ele><time>2026-05-03T15:38:31Z</time></trkpt><trkpt lat="42.528712198566474" lon="13.656831867664412"><ele>487.0</ele><time>2026-05-03T15:38:32Z</time></trkpt><trkpt lat="42.52890168328423" lon="13.657170891610658"><ele>488.0</ele><time>2026-05-03T15:38:33Z</time></trkpt><trkpt lat="42.52908547489867" lon="13.657514146378794"><ele>487.0</ele><time>2026-05-03T15:38:34Z</time></trkpt><trkpt lat="42.529265852036716" lon="13.657857949144253"><ele>486.0</ele><time>2026-05-03T15:38:35Z</time></trkpt><trkpt lat="42.52944579052408" lon="13.658200613841881"><ele>485.5</ele><time>2026-05-03T15:38:36Z</time></trkpt><trkpt lat="42.529621456492656" lon="13.658542548844391"><ele>485.0</ele><time>2026-05-03T15:38:37Z</time></trkpt><trkpt lat="42.52979417950334" lon="13.658886523605691"><ele>486.0</ele><time>2026-05-03T15:38:38Z</time></trkpt><trkpt lat="42.5299652728278" lon="13.65923450915778"><ele>487.0</ele><time>2026-05-03T15:38:39Z</time></trkpt><trkpt lat="42.530133369550924" lon="13.659584819683525"><ele>487.0</ele><time>2026-05-03T15:38:40Z</time></trkpt><trkpt lat="42.530298829609904" lon="13.659935721234822"><ele>487.0</ele><time>2026-05-03T15:38:41Z</time></trkpt><trkpt lat="42.53046471059071" lon="13.660291926547199"><ele>487.5</ele><time>2026-05-03T15:38:42Z</time></trkpt><trkpt lat="42.53062742937572" lon="13.660651005072335"><ele>488.0</ele><time>2026-05-03T15:38:43Z</time></trkpt><trkpt lat="42.53078761561245" lon="13.661017106457228"><ele>486.5</ele><time>2026-05-03T15:38:44Z</time></trkpt><trkpt lat="42.53094332697594" lon="13.661387976445344"><ele>485.0</ele><time>2026-05-03T15:38:45Z</time></trkpt><trkpt lat="42.53109506210639" lon="13.66175949063515"><ele>487.5</ele><time>2026-05-03T15:38:46Z</time></trkpt><trkpt lat="42.53124142825204" lon="13.662134057489462"><ele>490.0</ele><time>2026-05-03T15:38:47Z</time></trkpt><trkpt lat="42.53138486859492" lon="13.662510379153847"><ele>486.5</ele><time>2026-05-03T15:38:48Z</time></trkpt><trkpt lat="42.53152772441169" lon="13.662889675119464"><ele>483.0</ele><time>2026-05-03T15:38:49Z</time></trkpt><trkpt lat="42.53166680151233" lon="13.66327443307996"><ele>476.5</ele><time>2026-05-03T15:38:50Z</time></trkpt><trkpt lat="42.53181150375893" lon="13.663657329650835"><ele>470.0</ele><time>2026-05-03T15:38:51Z</time></trkpt><trkpt lat="42.53195236431363" lon="13.664046875144685"><ele>470.5</ele><time>2026-05-03T15:38:52Z</time></trkpt><trkpt lat="42.53208426234207" lon="13.664438910522586"><ele>471.0</ele><time>2026-05-03T15:38:53Z</time></trkpt><trkpt lat="42.53221323763358" lon="13.664838508350002"><ele>471.0</ele><time>2026-05-03T15:38:54Z</time></trkpt><trkpt lat="42.53233858456595" lon="13.665234699322037"><ele>471.0</ele><time>2026-05-03T15:38:55Z</time></trkpt><trkpt lat="42.5324587241583" lon="13.665635808097052"><ele>464.5</ele><time>2026-05-03T15:38:56Z</time></trkpt><trkpt lat="42.5325730633962" lon="13.66603972021628"><ele>458.0</ele><time>2026-05-03T15:38:57Z</time></trkpt><trkpt lat="42.532681768828276" lon="13.666445245417446"><ele>453.5</ele><time>2026-05-03T15:38:58Z</time></trkpt><trkpt lat="42.532788645036256" lon="13.666846710805299"><ele>449.0</ele><time>2026-05-03T15:38:59Z</time></trkpt><trkpt lat="42.532896040908476" lon="13.667244326127342"><ele>449.0</ele><time>2026-05-03T15:39:00Z</time></trkpt><trkpt lat="42.53300432003424" lon="13.667636952940695"><ele>449.0</ele><time>2026-05-03T15:39:01Z</time></trkpt><trkpt lat="42.5331132910856" lon="13.668025667085763"><ele>440.5</ele><time>2026-05-03T15:39:02Z</time></trkpt><trkpt lat="42.5332222949629" lon="13.668412335039337"><ele>432.0</ele><time>2026-05-03T15:39:03Z</time></trkpt><trkpt lat="42.53333429730322" lon="13.668794895443284"><ele>424.0</ele><time>2026-05-03T15:39:04Z</time></trkpt><trkpt lat="42.533447808756826" lon="13.669176585360677"><ele>416.0</ele><time>2026-05-03T15:39:05Z</time></trkpt><trkpt lat="42.53356332460751" lon="13.669554169790885"><ele>412.0</ele><time>2026-05-03T15:39:06Z</time></trkpt><trkpt lat="42.53368477527055" lon="13.669935112224199"><ele>408.0</ele><time>2026-05-03T15:39:07Z</time></trkpt><trkpt lat="42.533812313090216" lon="13.67031984177231"><ele>408.0</ele><time>2026-05-03T15:39:08Z</time></trkpt><trkpt lat="42.53394473964604" lon="13.670708174850885"><ele>408.0</ele><time>2026-05-03T15:39:09Z</time></trkpt><trkpt lat="42.53408152859645" lon="13.671090533443444"><ele>407.0</ele><time>2026-05-03T15:39:09.999Z</time></trkpt><trkpt lat="42.534224052185024" lon="13.671466295630967"><ele>406.0</ele><time>2026-05-03T15:39:10.999Z</time></trkpt><trkpt lat="42.53438120762205" lon="13.67183727613567"><ele>406.5</ele><time>2026-05-03T15:39:11.999Z</time></trkpt><trkpt lat="42.53454874457209" lon="13.672202510249642"><ele>407.0</ele><time>2026-05-03T15:39:12.999Z</time></trkpt><trkpt lat="42.53472606237491" lon="13.672559346182405"><ele>413.0</ele><time>2026-05-03T15:39:13.999Z</time></trkpt><trkpt lat="42.5349181621542" lon="13.672909078787768"><ele>419.0</ele><time>2026-05-03T15:39:14.999Z</time></trkpt><trkpt lat="42.53511043319137" lon="13.67325166253667"><ele>419.0</ele><time>2026-05-03T15:39:15.999Z</time></trkpt><trkpt lat="42.53530364524936" lon="13.673581431745815"><ele>419.0</ele><time>2026-05-03T15:39:16.999Z</time></trkpt><trkpt lat="42.53550294063464" lon="13.673907367247331"><ele>419.0</ele><time>2026-05-03T15:39:17.999Z</time></trkpt><trkpt lat="42.53571166284768" lon="13.674224372768624"><ele>419.0</ele><time>2026-05-03T15:39:18.999Z</time></trkpt><trkpt lat="42.53592694519364" lon="13.674531017850194"><ele>419.0</ele><time>2026-05-03T15:39:19.999Z</time></trkpt><trkpt lat="42.536146950898626" lon="13.674826728085018"><ele>419.0</ele><time>2026-05-03T15:39:20.999Z</time></trkpt><trkpt lat="42.53637332682273" lon="13.675113266344345"><ele>416.5</ele><time>2026-05-03T15:39:21.999Z</time></trkpt><trkpt lat="42.53660870886922" lon="13.675394339974384"><ele>414.0</ele><time>2026-05-03T15:39:22.999Z</time></trkpt><trkpt lat="42.53685120058261" lon="13.675668122042211"><ele>415.0</ele><time>2026-05-03T15:39:23.999Z</time></trkpt><trkpt lat="42.537096629788245" lon="13.675935615005082"><ele>416.0</ele><time>2026-05-03T15:39:24.999Z</time></trkpt><trkpt lat="42.537343259395286" lon="13.676200729332034"><ele>412.0</ele><time>2026-05-03T15:39:25.999Z</time></trkpt><trkpt lat="42.537589886055116" lon="13.676465120649127"><ele>408.0</ele><time>2026-05-03T15:39:26.999Z</time></trkpt><trkpt lat="42.537833924004495" lon="13.676725848638021"><ele>405.0</ele><time>2026-05-03T15:39:27.999Z</time></trkpt><trkpt lat="42.53807119635487" lon="13.676984966924747"><ele>402.0</ele><time>2026-05-03T15:39:28.999Z</time></trkpt><trkpt lat="42.53830738623013" lon="13.677241243769423"><ele>402.0</ele><time>2026-05-03T15:39:29.999Z</time></trkpt><trkpt lat="42.5385388225131" lon="13.67749831779843"><ele>402.0</ele><time>2026-05-03T15:39:30.999Z</time></trkpt><trkpt lat="42.53876782400855" lon="13.677754625843562"><ele>409.5</ele><time>2026-05-03T15:39:31.999Z</time></trkpt><trkpt lat="42.53899124700656" lon="13.678014704071655"><ele>417.0</ele><time>2026-05-03T15:39:32.999Z</time></trkpt><trkpt lat="42.539209184074366" lon="13.678284788474814"><ele>417.0</ele><time>2026-05-03T15:39:33.999Z</time></trkpt><trkpt lat="42.53941609065489" lon="13.678563241620079"><ele>417.0</ele><time>2026-05-03T15:39:34.999Z</time></trkpt><trkpt lat="42.539614778069975" lon="13.678854752285101"><ele>421.0</ele><time>2026-05-03T15:39:36.014Z</time></trkpt><trkpt lat="42.53980458871191" lon="13.679148981294531"><ele>425.0</ele><time>2026-05-03T15:39:37.023Z</time></trkpt><trkpt lat="42.539979228389214" lon="13.679446589919866"><ele>431.0</ele><time>2026-05-03T15:39:38.021Z</time></trkpt><trkpt lat="42.54014632958495" lon="13.679747452354299"><ele>437.0</ele><time>2026-05-03T15:39:39.022Z</time></trkpt><trkpt lat="42.54030044631365" lon="13.680056048198734"><ele>433.0</ele><time>2026-05-03T15:39:40.024Z</time></trkpt><trkpt lat="42.54044834781937" lon="13.680364632385707"><ele>429.0</ele><time>2026-05-03T15:39:41.023Z</time></trkpt><trkpt lat="42.541419264353664" lon="13.683951428712069"><ele>350.0</ele><time>2026-05-03T15:39:51.54Z</time></trkpt><trkpt lat="42.542351223568005" lon="13.688488164929382"><ele>345.5</ele><time>2026-05-03T15:40:03.999Z</time></trkpt><trkpt lat="42.542476241476926" lon="13.688824038428663"><ele>341.0</ele><time>2026-05-03T15:40:04.999Z</time></trkpt><trkpt lat="42.54233459046861" lon="13.689127316710426"><ele>335.0</ele><time>2026-05-03T15:40:05.999Z</time></trkpt><trkpt lat="42.54249553020682" lon="13.689436097371832"><ele>329.0</ele><time>2026-05-03T15:40:06.999Z</time></trkpt><trkpt lat="42.5426595647325" lon="13.689739666216374"><ele>329.0</ele><time>2026-05-03T15:40:07.999Z</time></trkpt><trkpt lat="42.54283462730191" lon="13.690033858719028"><ele>329.0</ele><time>2026-05-03T15:40:08.999Z</time></trkpt><trkpt lat="42.54301700278085" lon="13.69031881927606"><ele>335.0</ele><time>2026-05-03T15:40:09.999Z</time></trkpt><trkpt lat="42.543206802554344" lon="13.69059640908827"><ele>341.0</ele><time>2026-05-03T15:40:10.998Z</time></trkpt><trkpt lat="42.543403072520704" lon="13.690867740278529"><ele>341.0</ele><time>2026-05-03T15:40:11.998Z</time></trkpt><trkpt lat="42.54359848948788" lon="13.691139144698488"><ele>341.0</ele><time>2026-05-03T15:40:12.998Z</time></trkpt><trkpt lat="42.543805190257025" lon="13.691418029911079"><ele>341.0</ele><time>2026-05-03T15:40:13.998Z</time></trkpt><trkpt lat="42.54402018345411" lon="13.691687133987868"><ele>341.0</ele><time>2026-05-03T15:40:14.998Z</time></trkpt><trkpt lat="42.54424331598018" lon="13.691952939235536"><ele>339.5</ele><time>2026-05-03T15:40:15.998Z</time></trkpt><trkpt lat="42.5444750401652" lon="13.692209640283368"><ele>338.0</ele><time>2026-05-03T15:40:16.998Z</time></trkpt><trkpt lat="42.54471401278843" lon="13.69246104612773"><ele>338.0</ele><time>2026-05-03T15:40:17.998Z</time></trkpt><trkpt lat="42.5449595163253" lon="13.692707156007671"><ele>338.0</ele><time>2026-05-03T15:40:18.998Z</time></trkpt><trkpt lat="42.54521185094534" lon="13.692948278511535"><ele>336.5</ele><time>2026-05-03T15:40:19.998Z</time></trkpt><trkpt lat="42.54546807195684" lon="13.693182918846565"><ele>335.0</ele><time>2026-05-03T15:40:20.998Z</time></trkpt><trkpt lat="42.545729322354056" lon="13.693409528402649"><ele>333.5</ele><time>2026-05-03T15:40:21.998Z</time></trkpt><trkpt lat="42.545992141017585" lon="13.693635331180559"><ele>332.0</ele><time>2026-05-03T15:40:22.998Z</time></trkpt><trkpt lat="42.546257331524345" lon="13.693857489615665"><ele>332.0</ele><time>2026-05-03T15:40:23.998Z</time></trkpt><trkpt lat="42.54652285199992" lon="13.694076465027035"><ele>332.0</ele><time>2026-05-03T15:40:24.998Z</time></trkpt><trkpt lat="42.54678798390705" lon="13.694292192633553"><ele>326.5</ele><time>2026-05-03T15:40:25.998Z</time></trkpt><trkpt lat="42.547051505605296" lon="13.694508617582521"><ele>321.0</ele><time>2026-05-03T15:40:26.998Z</time></trkpt><trkpt lat="42.5473172408748" lon="13.694721483750639"><ele>321.0</ele><time>2026-05-03T15:40:27.998Z</time></trkpt><trkpt lat="42.547586263198674" lon="13.69493457141949"><ele>321.0</ele><time>2026-05-03T15:40:28.998Z</time></trkpt><trkpt lat="42.547854641541406" lon="13.69514900402618"><ele>315.5</ele><time>2026-05-03T15:40:30Z</time></trkpt><trkpt lat="42.548121896289345" lon="13.695361290378306"><ele>310.0</ele><time>2026-05-03T15:40:31Z</time></trkpt><trkpt lat="42.548387853455374" lon="13.695573573213952"><ele>310.0</ele><time>2026-05-03T15:40:32Z</time></trkpt><trkpt lat="42.54865260725183" lon="13.695783040384262"><ele>310.0</ele><time>2026-05-03T15:40:33Z</time></trkpt><trkpt lat="42.548912375315695" lon="13.69599385023845"><ele>316.5</ele><time>2026-05-03T15:40:34Z</time></trkpt><trkpt lat="42.54916757208259" lon="13.696204962721696"><ele>323.0</ele><time>2026-05-03T15:40:35Z</time></trkpt><trkpt lat="42.54942042664564" lon="13.69641310784398"><ele>331.0</ele><time>2026-05-03T15:40:36Z</time></trkpt><trkpt lat="42.54967040006303" lon="13.696625258037374"><ele>339.0</ele><time>2026-05-03T15:40:37Z</time></trkpt><trkpt lat="42.549924620324546" lon="13.69683988377088"><ele>336.0</ele><time>2026-05-03T15:40:38Z</time></trkpt><trkpt lat="42.55018631464895" lon="13.697066661062866"><ele>333.0</ele><time>2026-05-03T15:40:39.017Z</time></trkpt><trkpt lat="42.55044420207939" lon="13.697298815539481"><ele>331.0</ele><time>2026-05-03T15:40:40.024Z</time></trkpt><trkpt lat="42.55069791629946" lon="13.697533468670123"><ele>329.0</ele><time>2026-05-03T15:40:41.024Z</time></trkpt><trkpt lat="42.55094720340865" lon="13.69777000134976"><ele>328.0</ele><time>2026-05-03T15:40:42.026Z</time></trkpt><trkpt lat="42.551195546151355" lon="13.698009451423616"><ele>327.0</ele><time>2026-05-03T15:40:43.026Z</time></trkpt><trkpt lat="42.55142150516435" lon="13.69827611623786"><ele>321.5</ele><time>2026-05-03T15:40:44.018Z</time></trkpt><trkpt lat="42.551647517153356" lon="13.6985528244954"><ele>316.0</ele><time>2026-05-03T15:40:45.027Z</time></trkpt><trkpt lat="42.55186231558912" lon="13.698820674632646"><ele>307.0</ele><time>2026-05-03T15:40:46Z</time></trkpt><trkpt lat="42.55204340346033" lon="13.699177005018129"><ele>298.0</ele><time>2026-05-03T15:40:47Z</time></trkpt><trkpt lat="42.55226148172802" lon="13.699460073353247"><ele>297.0</ele><time>2026-05-03T15:40:48Z</time></trkpt><trkpt lat="42.552475130948345" lon="13.69974817996698"><ele>296.0</ele><time>2026-05-03T15:40:49Z</time></trkpt><trkpt lat="42.55268723303801" lon="13.700035222745493"><ele>293.0</ele><time>2026-05-03T15:40:50Z</time></trkpt><trkpt lat="42.55289794553401" lon="13.7003229640576"><ele>290.0</ele><time>2026-05-03T15:40:51Z</time></trkpt><trkpt lat="42.553107158922835" lon="13.700606602164147"><ele>290.0</ele><time>2026-05-03T15:40:52Z</time></trkpt><trkpt lat="42.55331917828139" lon="13.700884485253223"><ele>290.0</ele><time>2026-05-03T15:40:53Z</time></trkpt><trkpt lat="42.55353393564608" lon="13.701161269488697"><ele>286.5</ele><time>2026-05-03T15:40:54Z</time></trkpt><trkpt lat="42.553752168624534" lon="13.701433738951835"><ele>283.0</ele><time>2026-05-03T15:40:55Z</time></trkpt><trkpt lat="42.553973947284156" lon="13.701699436528779"><ele>282.0</ele><time>2026-05-03T15:40:56Z</time></trkpt><trkpt lat="42.55420197469551" lon="13.701958864939776"><ele>281.0</ele><time>2026-05-03T15:40:57Z</time></trkpt><trkpt lat="42.55443802464351" lon="13.702214223709126"><ele>276.5</ele><time>2026-05-03T15:40:58Z</time></trkpt><trkpt lat="42.55467944569562" lon="13.702462995633457"><ele>272.0</ele><time>2026-05-03T15:40:59Z</time></trkpt><trkpt lat="42.554926535041936" lon="13.702709804348393"><ele>272.5</ele><time>2026-05-03T15:41:00Z</time></trkpt><trkpt lat="42.55517740079018" lon="13.702957977211977"><ele>273.0</ele><time>2026-05-03T15:41:01Z</time></trkpt><trkpt lat="42.555429632804326" lon="13.703201407144629"><ele>264.0</ele><time>2026-05-03T15:41:02Z</time></trkpt><trkpt lat="42.55568937275136" lon="13.7034357924382"><ele>255.0</ele><time>2026-05-03T15:41:03Z</time></trkpt><trkpt lat="42.55595489807614" lon="13.703660123751034"><ele>253.0</ele><time>2026-05-03T15:41:04Z</time></trkpt><trkpt lat="42.556228103952925" lon="13.703877574296879"><ele>251.0</ele><time>2026-05-03T15:41:04.999Z</time></trkpt><trkpt lat="42.55650523916558" lon="13.704088755111469"><ele>251.0</ele><time>2026-05-03T15:41:05.999Z</time></trkpt><trkpt lat="42.55678603837436" lon="13.70429628979885"><ele>251.0</ele><time>2026-05-03T15:41:06.999Z</time></trkpt><trkpt lat="42.55707200344682" lon="13.704500089857916"><ele>250.0</ele><time>2026-05-03T15:41:07.999Z</time></trkpt><trkpt lat="42.55736111598554" lon="13.704703285806383"><ele>249.0</ele><time>2026-05-03T15:41:08.999Z</time></trkpt><trkpt lat="42.55764972917861" lon="13.70490587837971"><ele>258.5</ele><time>2026-05-03T15:41:09.999Z</time></trkpt><trkpt lat="42.557937753681806" lon="13.705106002124133"><ele>268.0</ele><time>2026-05-03T15:41:10.999Z</time></trkpt><trkpt lat="42.55822539283632" lon="13.705302778272818"><ele>268.0</ele><time>2026-05-03T15:41:11.999Z</time></trkpt><trkpt lat="42.558511481058595" lon="13.70549611882664"><ele>268.0</ele><time>2026-05-03T15:41:12.999Z</time></trkpt><trkpt lat="42.558797792021394" lon="13.70568826223504"><ele>275.0</ele><time>2026-05-03T15:41:13.999Z</time></trkpt><trkpt lat="42.55908284286082" lon="13.705881301414124"><ele>282.0</ele><time>2026-05-03T15:41:14.999Z</time></trkpt><trkpt lat="42.55936705765882" lon="13.706073309271197"><ele>281.0</ele><time>2026-05-03T15:41:15.999Z</time></trkpt><trkpt lat="42.55965152032877" lon="13.706263919903556"><ele>280.0</ele><time>2026-05-03T15:41:16.999Z</time></trkpt><trkpt lat="42.55993314545424" lon="13.706460505321969"><ele>280.0</ele><time>2026-05-03T15:41:17.999Z</time></trkpt><trkpt lat="42.56021127616634" lon="13.70666375079602"><ele>280.0</ele><time>2026-05-03T15:41:18.999Z</time></trkpt><trkpt lat="42.56048607238339" lon="13.70687339348198"><ele>278.5</ele><time>2026-05-03T15:41:19.999Z</time></trkpt><trkpt lat="42.56075785106313" lon="13.707089963854084"><ele>277.0</ele><time>2026-05-03T15:41:20.999Z</time></trkpt><trkpt lat="42.5610257346101" lon="13.707313123517515"><ele>277.0</ele><time>2026-05-03T15:41:21.999Z</time></trkpt><trkpt lat="42.561289934574454" lon="13.707541731619113"><ele>277.0</ele><time>2026-05-03T15:41:22.999Z</time></trkpt><trkpt lat="42.56155038051289" lon="13.707779534538526"><ele>276.0</ele><time>2026-05-03T15:41:23.999Z</time></trkpt><trkpt lat="42.56180664772688" lon="13.708027013647586"><ele>275.0</ele><time>2026-05-03T15:41:24.999Z</time></trkpt><trkpt lat="42.562061776307786" lon="13.708285964033946"><ele>273.0</ele><time>2026-05-03T15:41:25.999Z</time></trkpt><trkpt lat="42.56231518808844" lon="13.708552301443728"><ele>271.0</ele><time>2026-05-03T15:41:26.999Z</time></trkpt><trkpt lat="42.56256539150147" lon="13.708830095434866"><ele>271.5</ele><time>2026-05-03T15:41:27.999Z</time></trkpt><trkpt lat="42.56281223555297" lon="13.709112335168612"><ele>272.0</ele><time>2026-05-03T15:41:28.999Z</time></trkpt><trkpt lat="42.56305845780839" lon="13.709403834539108"><ele>270.5</ele><time>2026-05-03T15:41:29.999Z</time></trkpt><trkpt lat="42.563301010177945" lon="13.709702314118552"><ele>269.0</ele><time>2026-05-03T15:41:30.999Z</time></trkpt><trkpt lat="42.56354021111592" lon="13.710006971650849"><ele>268.0</ele><time>2026-05-03T15:41:31.999Z</time></trkpt><trkpt lat="42.563771839678665" lon="13.710323735843868"><ele>267.0</ele><time>2026-05-03T15:41:32.999Z</time></trkpt><trkpt lat="42.563998545088985" lon="13.710644290222596"><ele>267.0</ele><time>2026-05-03T15:41:33.999Z</time></trkpt><trkpt lat="42.56422071415386" lon="13.710970023343595"><ele>267.0</ele><time>2026-05-03T15:41:34.999Z</time></trkpt><trkpt lat="42.5644381661714" lon="13.711297217743951"><ele>266.0</ele><time>2026-05-03T15:41:35.999Z</time></trkpt><trkpt lat="42.56465061737255" lon="13.71162282540054"><ele>265.0</ele><time>2026-05-03T15:41:36.999Z</time></trkpt><trkpt lat="42.56486157905733" lon="13.71194622730035"><ele>262.0</ele><time>2026-05-03T15:41:37.999Z</time></trkpt><trkpt lat="42.56506834737903" lon="13.712268951280961"><ele>259.0</ele><time>2026-05-03T15:41:38.999Z</time></trkpt><trkpt lat="42.56527167022578" lon="13.712589180801693"><ele>256.0</ele><time>2026-05-03T15:41:39.999Z</time></trkpt><trkpt lat="42.56547342106558" lon="13.712905890651921"><ele>253.0</ele><time>2026-05-03T15:41:40.999Z</time></trkpt><trkpt lat="42.56567463347942" lon="13.713220563766724"><ele>253.0</ele><time>2026-05-03T15:41:41.999Z</time></trkpt><trkpt lat="42.56587588450373" lon="13.713531847899928"><ele>253.0</ele><time>2026-05-03T15:41:42.999Z</time></trkpt><trkpt lat="42.56607576591293" lon="13.7138416706478"><ele>253.0</ele><time>2026-05-03T15:41:43.999Z</time></trkpt><trkpt lat="42.56627469542856" lon="13.714150042872278"><ele>253.0</ele><time>2026-05-03T15:41:44.999Z</time></trkpt><trkpt lat="42.566475370764074" lon="13.714453782451894"><ele>250.0</ele><time>2026-05-03T15:41:45.999Z</time></trkpt><trkpt lat="42.56667781186515" lon="13.714754287582169"><ele>247.0</ele><time>2026-05-03T15:41:46.999Z</time></trkpt><trkpt lat="42.566885100538784" lon="13.715050076917743"><ele>247.0</ele><time>2026-05-03T15:41:47.999Z</time></trkpt><trkpt lat="42.56709678634659" lon="13.7153416467671"><ele>247.0</ele><time>2026-05-03T15:41:48.999Z</time></trkpt><trkpt lat="42.56731385984209" lon="13.715631218171367"><ele>247.0</ele><time>2026-05-03T15:41:49.999Z</time></trkpt><trkpt lat="42.56753516806078" lon="13.715915099012166"><ele>247.0</ele><time>2026-05-03T15:41:50.999Z</time></trkpt><trkpt lat="42.56776003762197" lon="13.716192376496966"><ele>246.0</ele><time>2026-05-03T15:41:51.999Z</time></trkpt><trkpt lat="42.56799123805323" lon="13.716462616651995"><ele>245.0</ele><time>2026-05-03T15:41:52.999Z</time></trkpt><trkpt lat="42.56822350236244" lon="13.71672796649956"><ele>245.0</ele><time>2026-05-03T15:41:53.999Z</time></trkpt><trkpt lat="42.56846461967902" lon="13.716981216497896"><ele>245.0</ele><time>2026-05-03T15:41:54.999Z</time></trkpt><trkpt lat="42.56870940425928" lon="13.717230208642066"><ele>240.0</ele><time>2026-05-03T15:41:55.999Z</time></trkpt><trkpt lat="42.568957605822696" lon="13.717472960515044"><ele>235.0</ele><time>2026-05-03T15:41:56.999Z</time></trkpt><trkpt lat="42.56920808344518" lon="13.717708375646147"><ele>236.5</ele><time>2026-05-03T15:41:57.999Z</time></trkpt><trkpt lat="42.56946044376973" lon="13.717943308111769"><ele>238.0</ele><time>2026-05-03T15:41:58.999Z</time></trkpt><trkpt lat="42.56971733181701" lon="13.718170533672259"><ele>230.5</ele><time>2026-05-03T15:41:59.999Z</time></trkpt><trkpt lat="42.56997914131834" lon="13.718390024256339"><ele>223.0</ele><time>2026-05-03T15:42:00.999Z</time></trkpt><trkpt lat="42.57024572366035" lon="13.718597902269945"><ele>217.0</ele><time>2026-05-03T15:42:01.999Z</time></trkpt><trkpt lat="42.57051739309491" lon="13.718796314621773"><ele>211.0</ele><time>2026-05-03T15:42:02.999Z</time></trkpt><trkpt lat="42.57079426283809" lon="13.718988638170545"><ele>211.0</ele><time>2026-05-03T15:42:03.999Z</time></trkpt><trkpt lat="42.57107341247088" lon="13.719174876401764"><ele>211.0</ele><time>2026-05-03T15:42:04.999Z</time></trkpt><trkpt lat="42.57135609388069" lon="13.719353550447428"><ele>209.5</ele><time>2026-05-03T15:42:05.998Z</time></trkpt><trkpt lat="42.57164167102785" lon="13.719522163588609"><ele>208.0</ele><time>2026-05-03T15:42:06.998Z</time></trkpt><trkpt lat="42.57192884750973" lon="13.719684056437417"><ele>208.5</ele><time>2026-05-03T15:42:07.998Z</time></trkpt><trkpt lat="42.57221779550235" lon="13.719838724414036"><ele>209.0</ele><time>2026-05-03T15:42:08.998Z</time></trkpt><trkpt lat="42.572507552443895" lon="13.71998585192547"><ele>209.0</ele><time>2026-05-03T15:42:09.998Z</time></trkpt><trkpt lat="42.572798232847056" lon="13.720128253029582"><ele>209.0</ele><time>2026-05-03T15:42:10.998Z</time></trkpt><trkpt lat="42.57308627629203" lon="13.720265203389042"><ele>213.0</ele><time>2026-05-03T15:42:11.998Z</time></trkpt><trkpt lat="42.573375054798234" lon="13.720397969708504"><ele>217.0</ele><time>2026-05-03T15:42:12.998Z</time></trkpt><trkpt lat="42.57366236200448" lon="13.720521327098583"><ele>213.0</ele><time>2026-05-03T15:42:13.998Z</time></trkpt><trkpt lat="42.57394779155303" lon="13.720637406642236"><ele>209.0</ele><time>2026-05-03T15:42:14.998Z</time></trkpt><trkpt lat="42.5742287952365" lon="13.720750909818827"><ele>209.0</ele><time>2026-05-03T15:42:15.998Z</time></trkpt><trkpt lat="42.57450863074047" lon="13.720863671198043"><ele>209.0</ele><time>2026-05-03T15:42:16.998Z</time></trkpt><trkpt lat="42.57479399149865" lon="13.720973732799315"><ele>208.0</ele><time>2026-05-03T15:42:17.998Z</time></trkpt><trkpt lat="42.57508083814246" lon="13.721077949902238"><ele>207.0</ele><time>2026-05-03T15:42:18.998Z</time></trkpt><trkpt lat="42.575370353233446" lon="13.72117835305344"><ele>207.0</ele><time>2026-05-03T15:42:19.998Z</time></trkpt><trkpt lat="42.57566152706819" lon="13.721275455853116"><ele>207.0</ele><time>2026-05-03T15:42:20.998Z</time></trkpt><trkpt lat="42.57595642367335" lon="13.721367496282147"><ele>206.5</ele><time>2026-05-03T15:42:21.998Z</time></trkpt><trkpt lat="42.57625342530267" lon="13.721460412242218"><ele>206.0</ele><time>2026-05-03T15:42:22.998Z</time></trkpt><trkpt lat="42.5765544557135" lon="13.721550609617054"><ele>206.0</ele><time>2026-05-03T15:42:23.998Z</time></trkpt><trkpt lat="42.576855426372525" lon="13.721636438708522"><ele>206.0</ele><time>2026-05-03T15:42:24.998Z</time></trkpt><trkpt lat="42.57715985221347" lon="13.721718677779092"><ele>204.5</ele><time>2026-05-03T15:42:25.998Z</time></trkpt><trkpt lat="42.577465215365706" lon="13.721797857402796"><ele>203.0</ele><time>2026-05-03T15:42:26.998Z</time></trkpt><trkpt lat="42.5777714847806" lon="13.721875581319331"><ele>202.5</ele><time>2026-05-03T15:42:27.998Z</time></trkpt><trkpt lat="42.57807776156453" lon="13.721947433944722"><ele>202.0</ele><time>2026-05-03T15:42:28.998Z</time></trkpt><trkpt lat="42.57838374860344" lon="13.722017992861089"><ele>205.0</ele><time>2026-05-03T15:42:29.998Z</time></trkpt><trkpt lat="42.57869118634276" lon="13.722086946910938"><ele>208.0</ele><time>2026-05-03T15:42:30.998Z</time></trkpt><trkpt lat="42.57900117564226" lon="13.722153388395691"><ele>208.0</ele><time>2026-05-03T15:42:31.998Z</time></trkpt><trkpt lat="42.57930954136993" lon="13.722218467540142"><ele>208.0</ele><time>2026-05-03T15:42:32.998Z</time></trkpt><trkpt lat="42.57961465722931" lon="13.722279682905013"><ele>209.5</ele><time>2026-05-03T15:42:33.998Z</time></trkpt><trkpt lat="42.57991774358156" lon="13.72233210437489"><ele>211.0</ele><time>2026-05-03T15:42:34.999Z</time></trkpt><trkpt lat="42.58021393221091" lon="13.722376669622616"><ele>210.0</ele><time>2026-05-03T15:42:35.999Z</time></trkpt><trkpt lat="42.58050582628251" lon="13.722414803051066"><ele>209.0</ele><time>2026-05-03T15:42:36.999Z</time></trkpt><trkpt lat="42.580791623667594" lon="13.722449041089156"><ele>209.0</ele><time>2026-05-03T15:42:37.999Z</time></trkpt><trkpt lat="42.581076746221385" lon="13.722483816745042"><ele>209.0</ele><time>2026-05-03T15:42:38.999Z</time></trkpt><trkpt lat="42.581353375674254" lon="13.722517851266765"><ele>211.5</ele><time>2026-05-03T15:42:39.999Z</time></trkpt><trkpt lat="42.581633989821654" lon="13.722545281139658"><ele>214.0</ele><time>2026-05-03T15:42:40.999Z</time></trkpt><trkpt lat="42.5819140091492" lon="13.722574877249471"><ele>216.0</ele><time>2026-05-03T15:42:41.999Z</time></trkpt><trkpt lat="42.5821937639883" lon="13.722602540160242"><ele>218.0</ele><time>2026-05-03T15:42:42.999Z</time></trkpt><trkpt lat="42.582474524710214" lon="13.722625496314537"><ele>218.0</ele><time>2026-05-03T15:42:43.999Z</time></trkpt><trkpt lat="42.58275305790978" lon="13.722646264574388"><ele>218.0</ele><time>2026-05-03T15:42:45Z</time></trkpt><trkpt lat="42.58303042407942" lon="13.722659271560406"><ele>217.0</ele><time>2026-05-03T15:42:46Z</time></trkpt><trkpt lat="42.583306800467184" lon="13.722667521787665"><ele>216.0</ele><time>2026-05-03T15:42:47Z</time></trkpt><trkpt lat="42.58358271033247" lon="13.722674100946293"><ele>215.0</ele><time>2026-05-03T15:42:48Z</time></trkpt><trkpt lat="42.58385626935887" lon="13.722677384320606"><ele>214.0</ele><time>2026-05-03T15:42:49Z</time></trkpt><trkpt lat="42.584128607857046" lon="13.722679154209722"><ele>214.0</ele><time>2026-05-03T15:42:50Z</time></trkpt><trkpt lat="42.58439929949748" lon="13.722677179850626"><ele>214.0</ele><time>2026-05-03T15:42:51Z</time></trkpt><trkpt lat="42.58466465283151" lon="13.722673691907582"><ele>213.0</ele><time>2026-05-03T15:42:52Z</time></trkpt><trkpt lat="42.584929074295765" lon="13.722665863358783"><ele>212.0</ele><time>2026-05-03T15:42:53Z</time></trkpt><trkpt lat="42.58519192423574" lon="13.722657736321464"><ele>210.5</ele><time>2026-05-03T15:42:54Z</time></trkpt><trkpt lat="42.5854548750579" lon="13.722645784874357"><ele>209.0</ele><time>2026-05-03T15:42:55Z</time></trkpt><trkpt lat="42.58571542048973" lon="13.722628840614282"><ele>209.0</ele><time>2026-05-03T15:42:56Z</time></trkpt><trkpt lat="42.58597264240857" lon="13.722605966823899"><ele>209.0</ele><time>2026-05-03T15:42:57Z</time></trkpt><trkpt lat="42.586228618077136" lon="13.722581030317837"><ele>208.0</ele><time>2026-05-03T15:42:58Z</time></trkpt><trkpt lat="42.58648097044449" lon="13.722555363181707"><ele>207.0</ele><time>2026-05-03T15:42:59Z</time></trkpt><trkpt lat="42.58673139132886" lon="13.722527051089463"><ele>207.0</ele><time>2026-05-03T15:43:00Z</time></trkpt><trkpt lat="42.58697850370528" lon="13.722494023864977"><ele>207.0</ele><time>2026-05-03T15:43:01Z</time></trkpt><trkpt lat="42.58721531185468" lon="13.722457630764232"><ele>203.0</ele><time>2026-05-03T15:43:01.999Z</time></trkpt><trkpt lat="42.587451798200775" lon="13.722418214416749"><ele>199.0</ele><time>2026-05-03T15:43:02.999Z</time></trkpt><trkpt lat="42.58768791898581" lon="13.722374908346254"><ele>195.5</ele><time>2026-05-03T15:43:03.999Z</time></trkpt><trkpt lat="42.58792187015261" lon="13.722328035732811"><ele>192.0</ele><time>2026-05-03T15:43:04.999Z</time></trkpt><trkpt lat="42.58815830101547" lon="13.722275178149953"><ele>192.0</ele><time>2026-05-03T15:43:05.999Z</time></trkpt><trkpt lat="42.58839448081207" lon="13.722217934898506"><ele>192.0</ele><time>2026-05-03T15:43:06.999Z</time></trkpt><trkpt lat="42.58863241366912" lon="13.722155959066034"><ele>192.5</ele><time>2026-05-03T15:43:07.999Z</time></trkpt><trkpt lat="42.588871483478854" lon="13.722084316267438"><ele>193.0</ele><time>2026-05-03T15:43:08.999Z</time></trkpt><trkpt lat="42.58911236462186" lon="13.722009248177018"><ele>193.0</ele><time>2026-05-03T15:43:09.999Z</time></trkpt><trkpt lat="42.589355383740006" lon="13.721931903783432"><ele>193.0</ele><time>2026-05-03T15:43:10.999Z</time></trkpt><trkpt lat="42.58959738145567" lon="13.721850000755953"><ele>192.0</ele><time>2026-05-03T15:43:11.999Z</time></trkpt><trkpt lat="42.589837796550086" lon="13.721761547081874"><ele>191.0</ele><time>2026-05-03T15:43:12.999Z</time></trkpt><trkpt lat="42.59007683167042" lon="13.721669980504451"><ele>191.0</ele><time>2026-05-03T15:43:13.999Z</time></trkpt><trkpt lat="42.59031670948618" lon="13.721572602910602"><ele>191.0</ele><time>2026-05-03T15:43:14.999Z</time></trkpt><trkpt lat="42.59055667811383" lon="13.721468315839154"><ele>190.0</ele><time>2026-05-03T15:43:15.999Z</time></trkpt><trkpt lat="42.59079426585021" lon="13.721359279433038"><ele>189.0</ele><time>2026-05-03T15:43:16.999Z</time></trkpt><trkpt lat="42.59103179964147" lon="13.721242327542168"><ele>187.5</ele><time>2026-05-03T15:43:17.999Z</time></trkpt><trkpt lat="42.59126796303496" lon="13.721122552425884"><ele>186.0</ele><time>2026-05-03T15:43:18.999Z</time></trkpt><trkpt lat="42.59150253405844" lon="13.720999976685873"><ele>186.0</ele><time>2026-05-03T15:43:19.999Z</time></trkpt><trkpt lat="42.59173534250262" lon="13.720873067956122"><ele>186.0</ele><time>2026-05-03T15:43:20.999Z</time></trkpt><trkpt lat="42.59196518062873" lon="13.720741515702175"><ele>184.5</ele><time>2026-05-03T15:43:21.999Z</time></trkpt><trkpt lat="42.59219271437025" lon="13.720603011977921"><ele>183.0</ele><time>2026-05-03T15:43:22.999Z</time></trkpt><trkpt lat="42.59241255819166" lon="13.720461758166003"><ele>183.0</ele><time>2026-05-03T15:43:23.999Z</time></trkpt><trkpt lat="42.5926263498728" lon="13.7203175989166"><ele>183.0</ele><time>2026-05-03T15:43:24.999Z</time></trkpt><trkpt lat="42.592835290523226" lon="13.72017525964319"><ele>187.0</ele><time>2026-05-03T15:43:25.999Z</time></trkpt><trkpt lat="42.59304070927053" lon="13.720032169180486"><ele>191.0</ele><time>2026-05-03T15:43:26.999Z</time></trkpt><trkpt lat="42.593243110921364" lon="13.719885567321171"><ele>191.0</ele><time>2026-05-03T15:43:27.999Z</time></trkpt><trkpt lat="42.59344164930469" lon="13.719736617603978"><ele>191.0</ele><time>2026-05-03T15:43:28.999Z</time></trkpt><trkpt lat="42.59363908454573" lon="13.719586576725407"><ele>192.33333333333331</ele><time>2026-05-03T15:43:29.999Z</time></trkpt><trkpt lat="42.5938354324831" lon="13.719434738114463"><ele>193.66666666666666</ele><time>2026-05-03T15:43:30.999Z</time></trkpt><trkpt lat="42.59402735073527" lon="13.719281485727452"><ele>195.0</ele><time>2026-05-03T15:43:31.999Z</time></trkpt><trkpt lat="42.59421439053338" lon="13.719124701046825"><ele>195.33333333333331</ele><time>2026-05-03T15:43:32.999Z</time></trkpt><trkpt lat="42.594397782870715" lon="13.718966744097706"><ele>195.66666666666666</ele><time>2026-05-03T15:43:33.999Z</time></trkpt><trkpt lat="42.59457827494724" lon="13.718810764705596"><ele>196.0</ele><time>2026-05-03T15:43:34.999Z</time></trkpt><trkpt lat="42.594756655175935" lon="13.718656994071688"><ele>195.33333333333331</ele><time>2026-05-03T15:43:35.999Z</time></trkpt><trkpt lat="42.59492783358567" lon="13.718498994265774"><ele>194.66666666666669</ele><time>2026-05-03T15:43:36.999Z</time></trkpt><trkpt lat="42.595100934741424" lon="13.718358258479014"><ele>194.0</ele><time>2026-05-03T15:43:37.999Z</time></trkpt><trkpt lat="42.59525521569444" lon="13.718227377820956"><ele>194.0</ele><time>2026-05-03T15:43:38.999Z</time></trkpt><trkpt lat="42.5954085667511" lon="13.718096497777099"><ele>194.0</ele><time>2026-05-03T15:43:39.999Z</time></trkpt><trkpt lat="42.595627351585954" lon="13.717934353207692"><ele>194.0</ele><time>2026-05-03T15:43:40.999Z</time></trkpt><trkpt lat="42.59577806704425" lon="13.717802793475826"><ele>194.0</ele><time>2026-05-03T15:43:41.999Z</time></trkpt><trkpt lat="42.595922753422315" lon="13.717667773782075"><ele>194.0</ele><time>2026-05-03T15:43:42.999Z</time></trkpt><trkpt lat="42.59606070678415" lon="13.717537398352105"><ele>194.0</ele><time>2026-05-03T15:43:43.999Z</time></trkpt><trkpt lat="42.59619633317052" lon="13.717407479083253"><ele>193.5</ele><time>2026-05-03T15:43:44.999Z</time></trkpt><trkpt lat="42.59632483745651" lon="13.717280959442514"><ele>193.0</ele><time>2026-05-03T15:43:45.999Z</time></trkpt><trkpt lat="42.596440129104884" lon="13.717163717501926"><ele>192.5</ele><time>2026-05-03T15:43:46.999Z</time></trkpt><trkpt lat="42.59653939163683" lon="13.717062661560947"><ele>192.0</ele><time>2026-05-03T15:43:47.999Z</time></trkpt><trkpt lat="42.596615046068806" lon="13.716974120264481"><ele>192.0</ele><time>2026-05-03T15:43:48.999Z</time></trkpt><trkpt lat="42.59667440039233" lon="13.716905044517386"><ele>192.0</ele><time>2026-05-03T15:43:49.999Z</time></trkpt><trkpt lat="42.5967530764804" lon="13.716816565261004"><ele>192.0</ele><time>2026-05-03T15:43:51.999Z</time></trkpt><trkpt lat="42.59681953959662" lon="13.716752202236448"><ele>192.0</ele><time>2026-05-03T15:44:25.998Z</time></trkpt><trkpt lat="42.596915893801864" lon="13.716667951620195"><ele>192.0</ele><time>2026-05-03T15:44:27.998Z</time></trkpt><trkpt lat="42.59697418376192" lon="13.716615544510399"><ele>192.0</ele><time>2026-05-03T15:44:28.998Z</time></trkpt><trkpt lat="42.597032399801776" lon="13.71655153625221"><ele>191.66666666666666</ele><time>2026-05-03T15:44:29.998Z</time></trkpt><trkpt lat="42.59709730431148" lon="13.716478846111798"><ele>191.33333333333334</ele><time>2026-05-03T15:44:30.998Z</time></trkpt><trkpt lat="42.597162618926696" lon="13.716407371739034"><ele>191.0</ele><time>2026-05-03T15:44:31.998Z</time></trkpt><trkpt lat="42.5972270155251" lon="13.716343823638725"><ele>190.66666666666669</ele><time>2026-05-03T15:44:32.998Z</time></trkpt><trkpt lat="42.59729269516489" lon="13.716292654240847"><ele>190.33333333333334</ele><time>2026-05-03T15:44:33.998Z</time></trkpt><trkpt lat="42.597331158288064" lon="13.716222408983409"><ele>190.0</ele><time>2026-05-03T15:44:34.998Z</time></trkpt><trkpt lat="42.59739411644253" lon="13.716148450382974"><ele>190.2</ele><time>2026-05-03T15:44:36.998Z</time></trkpt><trkpt lat="42.597485425019954" lon="13.716041187757206"><ele>190.4</ele><time>2026-05-03T15:47:55.999Z</time></trkpt><trkpt lat="42.59755277232245" lon="13.715987006611487"><ele>190.60000000000002</ele><time>2026-05-03T15:47:56.999Z</time></trkpt><trkpt lat="42.59760075207999" lon="13.715876567430122"><ele>190.8</ele><time>2026-05-03T15:47:57.999Z</time></trkpt><trkpt lat="42.59765826695095" lon="13.715769174906706"><ele>191.0</ele><time>2026-05-03T15:47:58.999Z</time></trkpt><trkpt lat="42.59773032819199" lon="13.71566475493974"><ele>191.0</ele><time>2026-05-03T15:47:59.999Z</time></trkpt><trkpt lat="42.59780899258239" lon="13.715562561366799"><ele>191.0</ele><time>2026-05-03T15:48:00.999Z</time></trkpt><trkpt lat="42.59789454277221" lon="13.715460461449918"><ele>191.0</ele><time>2026-05-03T15:48:01.999Z</time></trkpt><trkpt lat="42.597985081216" lon="13.71535849174703"><ele>191.0</ele><time>2026-05-03T15:48:02.999Z</time></trkpt><trkpt lat="42.598080743373814" lon="13.715251420836305"><ele>191.0</ele><time>2026-05-03T15:48:03.999Z</time></trkpt><trkpt lat="42.598184642100456" lon="13.715135520692343"><ele>191.0</ele><time>2026-05-03T15:48:04.999Z</time></trkpt><trkpt lat="42.59830072260451" lon="13.715017077135041"><ele>191.0</ele><time>2026-05-03T15:48:05.999Z</time></trkpt><trkpt lat="42.598429721543866" lon="13.714894542697738"><ele>191.0</ele><time>2026-05-03T15:48:06.999Z</time></trkpt><trkpt lat="42.59858261616599" lon="13.714771002161571"><ele>190.33333333333331</ele><time>2026-05-03T15:48:07.999Z</time></trkpt><trkpt lat="42.59874300976068" lon="13.71465092770823"><ele>189.66666666666666</ele><time>2026-05-03T15:48:08.999Z</time></trkpt><trkpt lat="42.59891788638267" lon="13.714525682258918"><ele>189.0</ele><time>2026-05-03T15:48:09.999Z</time></trkpt><trkpt lat="42.59910475267468" lon="13.71440507539252"><ele>189.0</ele><time>2026-05-03T15:48:10.999Z</time></trkpt><trkpt lat="42.59929819129501" lon="13.71428382848747"><ele>189.0</ele><time>2026-05-03T15:48:11.999Z</time></trkpt><trkpt lat="42.599502082414574" lon="13.714160639568728"><ele>189.0</ele><time>2026-05-03T15:48:12.999Z</time></trkpt><trkpt lat="42.59971041416568" lon="13.71404493318227"><ele>189.0</ele><time>2026-05-03T15:48:13.999Z</time></trkpt><trkpt lat="42.599921589065964" lon="13.71393426527495"><ele>189.0</ele><time>2026-05-03T15:48:14.999Z</time></trkpt><trkpt lat="42.60014199432595" lon="13.71382895085353"><ele>189.0</ele><time>2026-05-03T15:48:15.999Z</time></trkpt><trkpt lat="42.600370375108625" lon="13.71372925048306"><ele>189.0</ele><time>2026-05-03T15:48:16.999Z</time></trkpt><trkpt lat="42.60060067146148" lon="13.713642534601119"><ele>186.5</ele><time>2026-05-03T15:48:17.999Z</time></trkpt><trkpt lat="42.600836187251545" lon="13.7135682893365"><ele>184.0</ele><time>2026-05-03T15:48:18.999Z</time></trkpt><trkpt lat="42.601074527472484" lon="13.713509022265395"><ele>182.5</ele><time>2026-05-03T15:48:19.999Z</time></trkpt><trkpt lat="42.60131745815459" lon="13.71346501729143"><ele>181.0</ele><time>2026-05-03T15:48:20.999Z</time></trkpt><trkpt lat="42.60156212671779" lon="13.713434096894689"><ele>181.0</ele><time>2026-05-03T15:48:21.999Z</time></trkpt><trkpt lat="42.6018100240748" lon="13.713417582018787"><ele>181.0</ele><time>2026-05-03T15:48:22.999Z</time></trkpt><trkpt lat="42.602058616368964" lon="13.71340502924831"><ele>181.0</ele><time>2026-05-03T15:48:23.999Z</time></trkpt><trkpt lat="42.60230773596412" lon="13.7133985675994"><ele>181.0</ele><time>2026-05-03T15:48:24.999Z</time></trkpt><trkpt lat="42.60256040956038" lon="13.713394832619088"><ele>181.0</ele><time>2026-05-03T15:48:25.999Z</time></trkpt><trkpt lat="42.602817171549596" lon="13.71340144086999"><ele>181.0</ele><time>2026-05-03T15:48:26.999Z</time></trkpt><trkpt lat="42.60307210459275" lon="13.713414808748709"><ele>180.0</ele><time>2026-05-03T15:48:27.999Z</time></trkpt><trkpt lat="42.60332434817618" lon="13.713440018139577"><ele>179.0</ele><time>2026-05-03T15:48:28.999Z</time></trkpt><trkpt lat="42.60357556801052" lon="13.71347416465301"><ele>180.0</ele><time>2026-05-03T15:48:29.999Z</time></trkpt><trkpt lat="42.603827036597266" lon="13.713519106513475"><ele>181.0</ele><time>2026-05-03T15:48:30.999Z</time></trkpt><trkpt lat="42.6040825703147" lon="13.713578251311999"><ele>176.0</ele><time>2026-05-03T15:48:31.999Z</time></trkpt><trkpt lat="42.60434246521827" lon="13.713652635789852"><ele>171.0</ele><time>2026-05-03T15:48:32.999Z</time></trkpt><trkpt lat="42.604606430861836" lon="13.713745966170295"><ele>169.5</ele><time>2026-05-03T15:48:33.999Z</time></trkpt><trkpt lat="42.604874464237696" lon="13.713846479561981"><ele>168.0</ele><time>2026-05-03T15:48:34.999Z</time></trkpt><trkpt lat="42.60514521935355" lon="13.713965277112825"><ele>167.0</ele><time>2026-05-03T15:48:35.999Z</time></trkpt><trkpt lat="42.60541447046646" lon="13.714103442790105"><ele>166.0</ele><time>2026-05-03T15:48:36.999Z</time></trkpt><trkpt lat="42.60568348002448" lon="13.714248054307722"><ele>165.0</ele><time>2026-05-03T15:48:37.999Z</time></trkpt><trkpt lat="42.605950277574586" lon="13.714407747888679"><ele>164.0</ele><time>2026-05-03T15:48:38.999Z</time></trkpt><trkpt lat="42.60621202544399" lon="13.714584447944373"><ele>164.0</ele><time>2026-05-03T15:48:39.999Z</time></trkpt><trkpt lat="42.60646922175916" lon="13.714768908805823"><ele>164.0</ele><time>2026-05-03T15:48:40.999Z</time></trkpt><trkpt lat="42.60671854956356" lon="13.714972314285422"><ele>164.0</ele><time>2026-05-03T15:48:41.999Z</time></trkpt><trkpt lat="42.60695439761021" lon="13.715191968532407"><ele>164.0</ele><time>2026-05-03T15:48:42.999Z</time></trkpt><trkpt lat="42.607186402881204" lon="13.71541036095254"><ele>165.5</ele><time>2026-05-03T15:48:43.999Z</time></trkpt><trkpt lat="42.6074156543131" lon="13.715639919468655"><ele>167.0</ele><time>2026-05-03T15:48:44.999Z</time></trkpt><trkpt lat="42.60763750701623" lon="13.715882606779893"><ele>167.5</ele><time>2026-05-03T15:48:45.999Z</time></trkpt><trkpt lat="42.6078504936633" lon="13.716134061108674"><ele>168.0</ele><time>2026-05-03T15:48:46.999Z</time></trkpt><trkpt lat="42.60807369195109" lon="13.716376200094246"><ele>168.0</ele><time>2026-05-03T15:48:47.999Z</time></trkpt><trkpt lat="42.60827593961728" lon="13.716655109218745"><ele>168.0</ele><time>2026-05-03T15:48:48.999Z</time></trkpt><trkpt lat="42.60846957355372" lon="13.716945664645129"><ele>168.5</ele><time>2026-05-03T15:48:49.999Z</time></trkpt><trkpt lat="42.60865600480706" lon="13.717250297025915"><ele>169.0</ele><time>2026-05-03T15:48:50.999Z</time></trkpt><trkpt lat="42.60883664562945" lon="13.717560660117766"><ele>171.5</ele><time>2026-05-03T15:48:52Z</time></trkpt><trkpt lat="42.609008473252416" lon="13.717883103022976"><ele>174.0</ele><time>2026-05-03T15:48:53Z</time></trkpt><trkpt lat="42.609168297130374" lon="13.718207636342207"><ele>174.0</ele><time>2026-05-03T15:48:54Z</time></trkpt><trkpt lat="42.609319999664116" lon="13.718543875870381"><ele>174.0</ele><time>2026-05-03T15:48:55Z</time></trkpt><trkpt lat="42.60946319270486" lon="13.718887764598009"><ele>174.0</ele><time>2026-05-03T15:48:56Z</time></trkpt><trkpt lat="42.60960313950494" lon="13.719239963614148"><ele>174.0</ele><time>2026-05-03T15:48:57Z</time></trkpt><trkpt lat="42.60972548503198" lon="13.719604955198758"><ele>174.0</ele><time>2026-05-03T15:48:58Z</time></trkpt><trkpt lat="42.60984180794109" lon="13.719979088557297"><ele>174.0</ele><time>2026-05-03T15:48:59Z</time></trkpt><trkpt lat="42.6099518687268" lon="13.72036367703038"><ele>175.5</ele><time>2026-05-03T15:49:00Z</time></trkpt><trkpt lat="42.610048702807255" lon="13.720750488591616"><ele>177.0</ele><time>2026-05-03T15:49:01Z</time></trkpt><trkpt lat="42.61013492338757" lon="13.721141939149538"><ele>177.0</ele><time>2026-05-03T15:49:02Z</time></trkpt><trkpt lat="42.610213495328075" lon="13.72153291997442"><ele>177.0</ele><time>2026-05-03T15:49:03Z</time></trkpt><trkpt lat="42.61028166356837" lon="13.721929155174376"><ele>178.0</ele><time>2026-05-03T15:49:04Z</time></trkpt><trkpt lat="42.610341796752294" lon="13.722325293170394"><ele>179.0</ele><time>2026-05-03T15:49:05Z</time></trkpt><trkpt lat="42.61038353208436" lon="13.72272126730554"><ele>178.5</ele><time>2026-05-03T15:49:06Z</time></trkpt><trkpt lat="42.61041247265393" lon="13.72312635665714"><ele>178.0</ele><time>2026-05-03T15:49:07Z</time></trkpt><trkpt lat="42.610428920852634" lon="13.723534060890868"><ele>177.5</ele><time>2026-05-03T15:49:08Z</time></trkpt><trkpt lat="42.610438736591966" lon="13.723935101006882"><ele>177.0</ele><time>2026-05-03T15:49:09Z</time></trkpt><trkpt lat="42.61043621066951" lon="13.724336570040492"><ele>176.5</ele><time>2026-05-03T15:49:10Z</time></trkpt><trkpt lat="42.61040766599635" lon="13.72473551187023"><ele>176.0</ele><time>2026-05-03T15:49:11Z</time></trkpt><trkpt lat="42.61038395400725" lon="13.725126589714982"><ele>174.5</ele><time>2026-05-03T15:49:12Z</time></trkpt><trkpt lat="42.61034776537529" lon="13.725511299374519"><ele>173.0</ele><time>2026-05-03T15:49:13Z</time></trkpt><trkpt lat="42.610297671374816" lon="13.725889736704408"><ele>172.0</ele><time>2026-05-03T15:49:14Z</time></trkpt><trkpt lat="42.6102389206934" lon="13.726268958723836"><ele>171.0</ele><time>2026-05-03T15:49:15Z</time></trkpt><trkpt lat="42.610174826986686" lon="13.726647393484466"><ele>170.5</ele><time>2026-05-03T15:49:16Z</time></trkpt><trkpt lat="42.610102490622765" lon="13.727024786091402"><ele>170.0</ele><time>2026-05-03T15:49:17Z</time></trkpt><trkpt lat="42.61001870987506" lon="13.727401727449067"><ele>170.0</ele><time>2026-05-03T15:49:18Z</time></trkpt><trkpt lat="42.60992522342162" lon="13.727777985675806"><ele>170.0</ele><time>2026-05-03T15:49:19Z</time></trkpt><trkpt lat="42.60982740488672" lon="13.728152228195386"><ele>170.0</ele><time>2026-05-03T15:49:20Z</time></trkpt><trkpt lat="42.609721023258736" lon="13.728527940019775"><ele>170.0</ele><time>2026-05-03T15:49:21Z</time></trkpt><trkpt lat="42.60961211196991" lon="13.72889810732835"><ele>170.0</ele><time>2026-05-03T15:49:22Z</time></trkpt><trkpt lat="42.60949878451125" lon="13.729269474177396"><ele>170.0</ele><time>2026-05-03T15:49:23Z</time></trkpt><trkpt lat="42.60937880559403" lon="13.729640993790003"><ele>170.5</ele><time>2026-05-03T15:49:24Z</time></trkpt><trkpt lat="42.609257102257786" lon="13.730008971244462"><ele>171.0</ele><time>2026-05-03T15:49:25Z</time></trkpt><trkpt lat="42.60913335649749" lon="13.7303774849984"><ele>171.0</ele><time>2026-05-03T15:49:26Z</time></trkpt><trkpt lat="42.609008542124094" lon="13.730742431483568"><ele>171.0</ele><time>2026-05-03T15:49:27Z</time></trkpt><trkpt lat="42.608881923742416" lon="13.73110613465114"><ele>170.5</ele><time>2026-05-03T15:49:28Z</time></trkpt><trkpt lat="42.60875348736631" lon="13.731471737021733"><ele>170.0</ele><time>2026-05-03T15:49:29Z</time></trkpt><trkpt lat="42.60862767590819" lon="13.73183543207917"><ele>171.0</ele><time>2026-05-03T15:49:30Z</time></trkpt><trkpt lat="42.60850438438618" lon="13.73219773479752"><ele>172.0</ele><time>2026-05-03T15:49:31Z</time></trkpt><trkpt lat="42.60838002004372" lon="13.732559302191556"><ele>169.5</ele><time>2026-05-03T15:49:32Z</time></trkpt><trkpt lat="42.60826139800214" lon="13.73292447583719"><ele>167.0</ele><time>2026-05-03T15:49:33Z</time></trkpt><trkpt lat="42.608143018928565" lon="13.733292828724611"><ele>167.0</ele><time>2026-05-03T15:49:34Z</time></trkpt><trkpt lat="42.608027904330086" lon="13.73366765504461"><ele>167.0</ele><time>2026-05-03T15:49:35Z</time></trkpt><trkpt lat="42.607915807091615" lon="13.734043745703316"><ele>171.0</ele><time>2026-05-03T15:49:36Z</time></trkpt><trkpt lat="42.6078065532534" lon="13.734426934906608"><ele>175.0</ele><time>2026-05-03T15:49:37Z</time></trkpt><trkpt lat="42.60770452064021" lon="13.734810557770583"><ele>175.0</ele><time>2026-05-03T15:49:38Z</time></trkpt><trkpt lat="42.60760859853716" lon="13.735191744651194"><ele>175.0</ele><time>2026-05-03T15:49:39Z</time></trkpt><trkpt lat="42.6075278726061" lon="13.73556943675613"><ele>173.5</ele><time>2026-05-03T15:49:40Z</time></trkpt><trkpt lat="42.60744242071173" lon="13.735953797774545"><ele>172.0</ele><time>2026-05-03T15:49:40.999Z</time></trkpt><trkpt lat="42.607371311655484" lon="13.736333593917223"><ele>172.0</ele><time>2026-05-03T15:49:41.999Z</time></trkpt><trkpt lat="42.60730649299188" lon="13.736712531836728"><ele>172.0</ele><time>2026-05-03T15:49:42.999Z</time></trkpt><trkpt lat="42.60725125074562" lon="13.73709349346057"><ele>170.0</ele><time>2026-05-03T15:49:43.999Z</time></trkpt><trkpt lat="42.60719900912548" lon="13.737475109657383"><ele>168.0</ele><time>2026-05-03T15:49:44.999Z</time></trkpt><trkpt lat="42.60715273262775" lon="13.737860050283881"><ele>167.5</ele><time>2026-05-03T15:49:45.999Z</time></trkpt><trkpt lat="42.60711122160772" lon="13.738243469682716"><ele>167.0</ele><time>2026-05-03T15:49:46.999Z</time></trkpt><trkpt lat="42.60707733621881" lon="13.738628302003056"><ele>167.0</ele><time>2026-05-03T15:49:47.999Z</time></trkpt><trkpt lat="42.60704905274546" lon="13.739015294966963"><ele>167.0</ele><time>2026-05-03T15:49:48.999Z</time></trkpt><trkpt lat="42.60703511483331" lon="13.739402413472082"><ele>167.5</ele><time>2026-05-03T15:49:49.999Z</time></trkpt><trkpt lat="42.6070273458053" lon="13.73978546544871"><ele>168.0</ele><time>2026-05-03T15:49:50.999Z</time></trkpt><trkpt lat="42.607025790888066" lon="13.740173452715778"><ele>168.0</ele><time>2026-05-03T15:49:51.999Z</time></trkpt><trkpt lat="42.60703783010426" lon="13.74057703499236"><ele>168.0</ele><time>2026-05-03T15:49:52.999Z</time></trkpt><trkpt lat="42.60705913956342" lon="13.740989861699157"><ele>170.5</ele><time>2026-05-03T15:49:53.999Z</time></trkpt><trkpt lat="42.60708008155219" lon="13.741409636835067"><ele>173.0</ele><time>2026-05-03T15:49:54.999Z</time></trkpt><trkpt lat="42.60710351129784" lon="13.741827106997318"><ele>169.5</ele><time>2026-05-03T15:49:55.999Z</time></trkpt><trkpt lat="42.60713429835816" lon="13.742241329765111"><ele>166.0</ele><time>2026-05-03T15:49:56.999Z</time></trkpt><trkpt lat="42.607174010406354" lon="13.74265776383559"><ele>165.0</ele><time>2026-05-03T15:49:57.999Z</time></trkpt><trkpt lat="42.607220300212234" lon="13.743072034267241"><ele>164.0</ele><time>2026-05-03T15:49:58.999Z</time></trkpt><trkpt lat="42.6072713409338" lon="13.74348901333001"><ele>164.0</ele><time>2026-05-03T15:49:59.999Z</time></trkpt><trkpt lat="42.60733308798617" lon="13.743904772711641"><ele>164.0</ele><time>2026-05-03T15:50:00.999Z</time></trkpt><trkpt lat="42.60740093580288" lon="13.744316268356153"><ele>163.0</ele><time>2026-05-03T15:50:01.999Z</time></trkpt><trkpt lat="42.60747572758138" lon="13.744724417280455"><ele>162.0</ele><time>2026-05-03T15:50:02.999Z</time></trkpt><trkpt lat="42.60756322872577" lon="13.7451294433353"><ele>160.5</ele><time>2026-05-03T15:50:03.999Z</time></trkpt><trkpt lat="42.60765852611438" lon="13.745534042370922"><ele>159.0</ele><time>2026-05-03T15:50:04.999Z</time></trkpt><trkpt lat="42.60776075302449" lon="13.745938669247458"><ele>157.0</ele><time>2026-05-03T15:50:05.999Z</time></trkpt><trkpt lat="42.60786661426425" lon="13.746339298449465"><ele>155.0</ele><time>2026-05-03T15:50:06.999Z</time></trkpt><trkpt lat="42.607979655319205" lon="13.7467370003534"><ele>155.0</ele><time>2026-05-03T15:50:07.999Z</time></trkpt><trkpt lat="42.60810185377073" lon="13.74712379032214"><ele>155.0</ele><time>2026-05-03T15:50:08.999Z</time></trkpt><trkpt lat="42.60823038969161" lon="13.747504066004016"><ele>155.5</ele><time>2026-05-03T15:50:09.999Z</time></trkpt><trkpt lat="42.60836470995547" lon="13.74787584466135"><ele>156.0</ele><time>2026-05-03T15:50:10.999Z</time></trkpt><trkpt lat="42.608506378795916" lon="13.748241903955163"><ele>156.5</ele><time>2026-05-03T15:50:11.999Z</time></trkpt><trkpt lat="42.60865307935829" lon="13.748605082879722"><ele>157.0</ele><time>2026-05-03T15:50:12.999Z</time></trkpt><trkpt lat="42.60880585273478" lon="13.748964274450765"><ele>150.5</ele><time>2026-05-03T15:50:13.999Z</time></trkpt><trkpt lat="42.60896253294466" lon="13.749317337646204"><ele>144.0</ele><time>2026-05-03T15:50:14.999Z</time></trkpt><trkpt lat="42.60912974527904" lon="13.749661600113228"><ele>143.5</ele><time>2026-05-03T15:50:15.999Z</time></trkpt><trkpt lat="42.60929788984097" lon="13.750002156703129"><ele>143.0</ele><time>2026-05-03T15:50:16.999Z</time></trkpt><trkpt lat="42.609474569660115" lon="13.750336520359445"><ele>142.0</ele><time>2026-05-03T15:50:17.999Z</time></trkpt><trkpt lat="42.60965751096441" lon="13.750666618304356"><ele>141.0</ele><time>2026-05-03T15:50:18.999Z</time></trkpt><trkpt lat="42.609849080392515" lon="13.750990044244078"><ele>140.5</ele><time>2026-05-03T15:50:19.999Z</time></trkpt><trkpt lat="42.61004361572499" lon="13.751307040405685"><ele>140.0</ele><time>2026-05-03T15:50:20.999Z</time></trkpt><trkpt lat="42.61024117719271" lon="13.751620385097471"><ele>140.5</ele><time>2026-05-03T15:50:21.999Z</time></trkpt><trkpt lat="42.6104447754483" lon="13.751927540808412"><ele>141.0</ele><time>2026-05-03T15:50:22.999Z</time></trkpt><trkpt lat="42.61065667763259" lon="13.75222797545601"><ele>141.0</ele><time>2026-05-03T15:50:23.999Z</time></trkpt><trkpt lat="42.61087383914911" lon="13.752522810744471"><ele>141.0</ele><time>2026-05-03T15:50:24.999Z</time></trkpt><trkpt lat="42.6110968386804" lon="13.75281491515431"><ele>141.5</ele><time>2026-05-03T15:50:25.999Z</time></trkpt><trkpt lat="42.61132348964043" lon="13.753099601970066"><ele>142.0</ele><time>2026-05-03T15:50:26.999Z</time></trkpt><trkpt lat="42.611558022554625" lon="13.753375000135598"><ele>140.5</ele><time>2026-05-03T15:50:27.999Z</time></trkpt><trkpt lat="42.61179695973743" lon="13.753640869041098"><ele>139.0</ele><time>2026-05-03T15:50:28.999Z</time></trkpt><trkpt lat="42.612037854438036" lon="13.753901462393529"><ele>141.5</ele><time>2026-05-03T15:50:29.999Z</time></trkpt><trkpt lat="42.612282656003394" lon="13.754155438527723"><ele>144.0</ele><time>2026-05-03T15:50:30.999Z</time></trkpt><trkpt lat="42.61253244069048" lon="13.754401071554712"><ele>144.0</ele><time>2026-05-03T15:50:31.999Z</time></trkpt><trkpt lat="42.612780584334594" lon="13.754640506002655"><ele>144.0</ele><time>2026-05-03T15:50:32.999Z</time></trkpt><trkpt lat="42.61303299490693" lon="13.754870137858266"><ele>147.0</ele><time>2026-05-03T15:50:33.999Z</time></trkpt><trkpt lat="42.61328739086049" lon="13.755082995163008"><ele>150.0</ele><time>2026-05-03T15:50:34.999Z</time></trkpt><trkpt lat="42.61354388376414" lon="13.755285789761896"><ele>152.5</ele><time>2026-05-03T15:50:35.999Z</time></trkpt><trkpt lat="42.613803662823926" lon="13.75548260416441"><ele>155.0</ele><time>2026-05-03T15:50:36.999Z</time></trkpt><trkpt lat="42.614066182441974" lon="13.755676926894534"><ele>155.0</ele><time>2026-05-03T15:50:37.999Z</time></trkpt><trkpt lat="42.61433180938314" lon="13.75586218958755"><ele>155.0</ele><time>2026-05-03T15:50:38.999Z</time></trkpt><trkpt lat="42.61460492707624" lon="13.756035716463868"><ele>162.5</ele><time>2026-05-03T15:50:39.999Z</time></trkpt><trkpt lat="42.61488371606442" lon="13.756201051511598"><ele>170.0</ele><time>2026-05-03T15:50:40.999Z</time></trkpt><trkpt lat="42.615169311473295" lon="13.756355000713071"><ele>178.5</ele><time>2026-05-03T15:50:41.999Z</time></trkpt><trkpt lat="42.61546405674396" lon="13.756503274776406"><ele>187.0</ele><time>2026-05-03T15:50:43.016Z</time></trkpt><trkpt lat="42.615751836124595" lon="13.756655765298287"><ele>187.0</ele><time>2026-05-03T15:50:44.021Z</time></trkpt><trkpt lat="42.616040421977466" lon="13.756804736644282"><ele>187.0</ele><time>2026-05-03T15:50:45.022Z</time></trkpt><trkpt lat="42.616331442265924" lon="13.756947292034319"><ele>196.0</ele><time>2026-05-03T15:50:46.016Z</time></trkpt><trkpt lat="42.61662963787796" lon="13.757087287736873"><ele>205.0</ele><time>2026-05-03T15:50:47.025Z</time></trkpt><trkpt lat="42.61864274747906" lon="13.757425394768871"><ele>157.0</ele><time>2026-05-03T15:50:50.91Z</time></trkpt><trkpt lat="42.62230284516012" lon="13.757007876423891"><ele>157.0</ele><time>2026-05-03T15:51:04.998Z</time></trkpt><trkpt lat="42.622597522790194" lon="13.75689731572269"><ele>157.0</ele><time>2026-05-03T15:51:05.998Z</time></trkpt><trkpt lat="42.62289826287196" lon="13.756773337957776"><ele>156.5</ele><time>2026-05-03T15:51:06.998Z</time></trkpt><trkpt lat="42.62318820175066" lon="13.756652480002833"><ele>156.0</ele><time>2026-05-03T15:51:07.998Z</time></trkpt><trkpt lat="42.62348113412921" lon="13.756517550628693"><ele>159.0</ele><time>2026-05-03T15:51:08.998Z</time></trkpt><trkpt lat="42.623770274873216" lon="13.756367830303152"><ele>162.0</ele><time>2026-05-03T15:51:09.998Z</time></trkpt><trkpt lat="42.62405553562235" lon="13.756206772318114"><ele>160.0</ele><time>2026-05-03T15:51:11Z</time></trkpt><trkpt lat="42.62433724446867" lon="13.756030392679543"><ele>158.0</ele><time>2026-05-03T15:51:12Z</time></trkpt><trkpt lat="42.6246210007463" lon="13.75584862612491"><ele>158.0</ele><time>2026-05-03T15:51:13Z</time></trkpt><trkpt lat="42.62490235015775" lon="13.755657580842565"><ele>158.0</ele><time>2026-05-03T15:51:14Z</time></trkpt><trkpt lat="42.62517797280853" lon="13.755457494505412"><ele>159.5</ele><time>2026-05-03T15:51:15Z</time></trkpt><trkpt lat="42.62545107948319" lon="13.755245811665157"><ele>161.0</ele><time>2026-05-03T15:51:16Z</time></trkpt><trkpt lat="42.62571939691968" lon="13.755024876273868"><ele>161.0</ele><time>2026-05-03T15:51:17Z</time></trkpt><trkpt lat="42.625984792354906" lon="13.754795717265358"><ele>161.0</ele><time>2026-05-03T15:51:18Z</time></trkpt><trkpt lat="42.62624789861825" lon="13.75456484968964"><ele>161.0</ele><time>2026-05-03T15:51:19Z</time></trkpt><trkpt lat="42.62650897328492" lon="13.754330375756505"><ele>161.0</ele><time>2026-05-03T15:51:20Z</time></trkpt><trkpt lat="42.626768049698484" lon="13.7540931661588"><ele>166.0</ele><time>2026-05-03T15:51:21Z</time></trkpt><trkpt lat="42.62702379682277" lon="13.753854385714051"><ele>171.0</ele><time>2026-05-03T15:51:22Z</time></trkpt><trkpt lat="42.62727704160315" lon="13.753620248632602"><ele>165.5</ele><time>2026-05-03T15:51:23Z</time></trkpt><trkpt lat="42.62753017086489" lon="13.753385313844783"><ele>160.0</ele><time>2026-05-03T15:51:24Z</time></trkpt><trkpt lat="42.62778162578822" lon="13.753152716096082"><ele>160.0</ele><time>2026-05-03T15:51:25Z</time></trkpt><trkpt lat="42.62803193173004" lon="13.752923227525033"><ele>160.0</ele><time>2026-05-03T15:51:26Z</time></trkpt><trkpt lat="42.62828174356805" lon="13.752690565873866"><ele>160.0</ele><time>2026-05-03T15:51:27Z</time></trkpt><trkpt lat="42.62852710374354" lon="13.752459118249364"><ele>160.0</ele><time>2026-05-03T15:51:28Z</time></trkpt><trkpt lat="42.6287698297079" lon="13.752224372850419"><ele>162.0</ele><time>2026-05-03T15:51:29Z</time></trkpt><trkpt lat="42.629012750838164" lon="13.75198409437767"><ele>164.0</ele><time>2026-05-03T15:51:30Z</time></trkpt><trkpt lat="42.6292642972583" lon="13.751741696401965"><ele>163.0</ele><time>2026-05-03T15:51:31Z</time></trkpt><trkpt lat="42.62952392721955" lon="13.75149347429507"><ele>162.0</ele><time>2026-05-03T15:51:32Z</time></trkpt><trkpt lat="42.62978868449626" lon="13.751246910310506"><ele>162.0</ele><time>2026-05-03T15:51:33Z</time></trkpt><trkpt lat="42.63005721273554" lon="13.751004838437703"><ele>162.0</ele><time>2026-05-03T15:51:34Z</time></trkpt><trkpt lat="42.63032423980952" lon="13.750760779360828"><ele>162.0</ele><time>2026-05-03T15:51:35Z</time></trkpt><trkpt lat="42.6305919377557" lon="13.750509251440496"><ele>162.0</ele><time>2026-05-03T15:51:36Z</time></trkpt><trkpt lat="42.63085939623383" lon="13.750256385255108"><ele>163.5</ele><time>2026-05-03T15:51:37Z</time></trkpt><trkpt lat="42.63112701399685" lon="13.75000261053117"><ele>165.0</ele><time>2026-05-03T15:51:38Z</time></trkpt><trkpt lat="42.63139568368384" lon="13.7497498609077"><ele>163.5</ele><time>2026-05-03T15:51:39Z</time></trkpt><trkpt lat="42.631665236483016" lon="13.749497072337363"><ele>162.0</ele><time>2026-05-03T15:51:40Z</time></trkpt><trkpt lat="42.63193566785818" lon="13.749247123430832"><ele>164.5</ele><time>2026-05-03T15:51:41Z</time></trkpt><trkpt lat="42.632203266860316" lon="13.748997890194424"><ele>167.0</ele><time>2026-05-03T15:51:42Z</time></trkpt><trkpt lat="42.63246966191894" lon="13.748746876636835"><ele>166.0</ele><time>2026-05-03T15:51:43Z</time></trkpt><trkpt lat="42.63273419106631" lon="13.748503297652286"><ele>165.0</ele><time>2026-05-03T15:51:44Z</time></trkpt><trkpt lat="42.6329983333253" lon="13.748263391620036"><ele>165.0</ele><time>2026-05-03T15:51:45Z</time></trkpt><trkpt lat="42.633262609698875" lon="13.7480256967442"><ele>165.0</ele><time>2026-05-03T15:51:46Z</time></trkpt><trkpt lat="42.6335232841644" lon="13.747786484463347"><ele>166.5</ele><time>2026-05-03T15:51:47Z</time></trkpt><trkpt lat="42.633779526250635" lon="13.747545552955454"><ele>168.0</ele><time>2026-05-03T15:51:48Z</time></trkpt><trkpt lat="42.634031954473514" lon="13.747303856240054"><ele>168.0</ele><time>2026-05-03T15:51:49Z</time></trkpt><trkpt lat="42.63428327228695" lon="13.747061087980002"><ele>168.0</ele><time>2026-05-03T15:51:50Z</time></trkpt><trkpt lat="42.63452913971722" lon="13.746808966392512"><ele>169.0</ele><time>2026-05-03T15:51:51Z</time></trkpt><trkpt lat="42.63476825797588" lon="13.746545316258546"><ele>170.0</ele><time>2026-05-03T15:51:52Z</time></trkpt><trkpt lat="42.6350016923427" lon="13.746275805326219"><ele>170.5</ele><time>2026-05-03T15:51:53Z</time></trkpt><trkpt lat="42.63523202230904" lon="13.746000977612999"><ele>171.0</ele><time>2026-05-03T15:51:54Z</time></trkpt><trkpt lat="42.63545744742143" lon="13.745715496776189"><ele>171.0</ele><time>2026-05-03T15:51:55Z</time></trkpt><trkpt lat="42.6356788092588" lon="13.745419790342247"><ele>171.0</ele><time>2026-05-03T15:51:56Z</time></trkpt><trkpt lat="42.635897092849056" lon="13.745114159506494"><ele>173.0</ele><time>2026-05-03T15:51:57Z</time></trkpt><trkpt lat="42.63610962404834" lon="13.74479890918369"><ele>175.0</ele><time>2026-05-03T15:51:58Z</time></trkpt><trkpt lat="42.63631927440637" lon="13.744477828434086"><ele>174.5</ele><time>2026-05-03T15:51:59Z</time></trkpt><trkpt lat="42.63652324638483" lon="13.7441520958572"><ele>174.0</ele><time>2026-05-03T15:52:00Z</time></trkpt><trkpt lat="42.636727076497074" lon="13.743819162282298"><ele>174.0</ele><time>2026-05-03T15:52:01Z</time></trkpt><trkpt lat="42.63692882442594" lon="13.743483873250725"><ele>174.0</ele><time>2026-05-03T15:52:02Z</time></trkpt><trkpt lat="42.63712965636697" lon="13.743149418595104"><ele>174.5</ele><time>2026-05-03T15:52:03Z</time></trkpt><trkpt lat="42.637325658455275" lon="13.742811011688762"><ele>175.0</ele><time>2026-05-03T15:52:04Z</time></trkpt><trkpt lat="42.637519866928585" lon="13.74247423906174"><ele>175.0</ele><time>2026-05-03T15:52:05Z</time></trkpt><trkpt lat="42.637708384538804" lon="13.742134298374436"><ele>175.0</ele><time>2026-05-03T15:52:06Z</time></trkpt><trkpt lat="42.637893745846235" lon="13.74178870736606"><ele>177.5</ele><time>2026-05-03T15:52:07Z</time></trkpt><trkpt lat="42.63808310389255" lon="13.741445727500745"><ele>180.0</ele><time>2026-05-03T15:52:08Z</time></trkpt><trkpt lat="42.638275662746686" lon="13.741103189437196"><ele>177.0</ele><time>2026-05-03T15:52:08.999Z</time></trkpt><trkpt lat="42.63846860507349" lon="13.740760450675413"><ele>174.0</ele><time>2026-05-03T15:52:09.999Z</time></trkpt><trkpt lat="42.638662931701774" lon="13.74042624513382"><ele>178.0</ele><time>2026-05-03T15:52:10.999Z</time></trkpt><trkpt lat="42.63885713465562" lon="13.740097642490992"><ele>182.0</ele><time>2026-05-03T15:52:11.999Z</time></trkpt><trkpt lat="42.63905260828929" lon="13.739773663486124"><ele>182.0</ele><time>2026-05-03T15:52:12.999Z</time></trkpt><trkpt lat="42.63924686251611" lon="13.739460247538018"><ele>182.0</ele><time>2026-05-03T15:52:13.999Z</time></trkpt><trkpt lat="42.63944202223933" lon="13.73915267210011"><ele>180.5</ele><time>2026-05-03T15:52:14.999Z</time></trkpt><trkpt lat="42.63963795734776" lon="13.738854362377467"><ele>179.0</ele><time>2026-05-03T15:52:15.999Z</time></trkpt><trkpt lat="42.639834199179205" lon="13.738562410084317"><ele>182.5</ele><time>2026-05-03T15:52:16.999Z</time></trkpt><trkpt lat="42.64002958720695" lon="13.738277960830757"><ele>186.0</ele><time>2026-05-03T15:52:17.999Z</time></trkpt><trkpt lat="42.64023120588652" lon="13.737998376872607"><ele>186.5</ele><time>2026-05-03T15:52:18.999Z</time></trkpt><trkpt lat="42.64043042672144" lon="13.737723304698775"><ele>187.0</ele><time>2026-05-03T15:52:19.999Z</time></trkpt><trkpt lat="42.64063222424707" lon="13.737457999611296"><ele>197.0</ele><time>2026-05-03T15:52:20.999Z</time></trkpt><trkpt lat="42.64084397061178" lon="13.7371988575417"><ele>207.0</ele><time>2026-05-03T15:52:22.023Z</time></trkpt><trkpt lat="42.64105747029396" lon="13.736960667488233"><ele>219.5</ele><time>2026-05-03T15:52:23.016Z</time></trkpt><trkpt lat="42.64127752064519" lon="13.73672605094528"><ele>232.0</ele><time>2026-05-03T15:52:24.021Z</time></trkpt><trkpt lat="42.64149929451946" lon="13.736490121912993"><ele>232.0</ele><time>2026-05-03T15:52:25.022Z</time></trkpt><trkpt lat="42.64171975536003" lon="13.736253284077929"><ele>232.0</ele><time>2026-05-03T15:52:26.023Z</time></trkpt><trkpt lat="42.65631128572175" lon="13.723400719476606"><ele>223.5</ele><time>2026-05-03T15:53:25.999Z</time></trkpt><trkpt lat="42.65657090356609" lon="13.723289627165267"><ele>215.0</ele><time>2026-05-03T15:53:26.999Z</time></trkpt><trkpt lat="42.65682103810132" lon="13.72323711446536"><ele>213.0</ele><time>2026-05-03T15:53:27.999Z</time></trkpt><trkpt lat="42.65709355345254" lon="13.723198889577729"><ele>211.0</ele><time>2026-05-03T15:53:28.999Z</time></trkpt><trkpt lat="42.657358422504956" lon="13.723176045311543"><ele>211.0</ele><time>2026-05-03T15:53:29.999Z</time></trkpt><trkpt lat="42.65762258876654" lon="13.723170648976062"><ele>211.0</ele><time>2026-05-03T15:53:30.999Z</time></trkpt><trkpt lat="42.65789055171258" lon="13.7231824822059"><ele>212.5</ele><time>2026-05-03T15:53:32Z</time></trkpt><trkpt lat="42.65816034096073" lon="13.723217869670341"><ele>214.0</ele><time>2026-05-03T15:53:33Z</time></trkpt><trkpt lat="42.65842864512175" lon="13.723275179676612"><ele>214.0</ele><time>2026-05-03T15:53:34Z</time></trkpt><trkpt lat="42.658699780226186" lon="13.723352109576844"><ele>214.0</ele><time>2026-05-03T15:53:35Z</time></trkpt><trkpt lat="42.658967401928976" lon="13.723441404647321"><ele>214.0</ele><time>2026-05-03T15:53:36Z</time></trkpt><trkpt lat="42.65923551287367" lon="13.723548783359124"><ele>214.0</ele><time>2026-05-03T15:53:37Z</time></trkpt><trkpt lat="42.659496928086746" lon="13.723679204379913"><ele>213.0</ele><time>2026-05-03T15:53:38Z</time></trkpt><trkpt lat="42.65975356396855" lon="13.723824218219233"><ele>212.0</ele><time>2026-05-03T15:53:39Z</time></trkpt><trkpt lat="42.660007547262325" lon="13.723992428344586"><ele>212.0</ele><time>2026-05-03T15:53:40Z</time></trkpt><trkpt lat="42.660254336277355" lon="13.724175880374743"><ele>212.0</ele><time>2026-05-03T15:53:41Z</time></trkpt><trkpt lat="42.66049065861281" lon="13.72438278687778"><ele>211.5</ele><time>2026-05-03T15:53:42Z</time></trkpt><trkpt lat="42.660715677116904" lon="13.724607188300807"><ele>211.0</ele><time>2026-05-03T15:53:43Z</time></trkpt><trkpt lat="42.66093419960977" lon="13.724844396723473"><ele>210.0</ele><time>2026-05-03T15:53:44Z</time></trkpt><trkpt lat="42.66114959515975" lon="13.725099996571837"><ele>209.0</ele><time>2026-05-03T15:53:45Z</time></trkpt><trkpt lat="42.66135761092341" lon="13.725360166850791"><ele>209.0</ele><time>2026-05-03T15:53:46Z</time></trkpt><trkpt lat="42.66155456770909" lon="13.725622075391842"><ele>209.0</ele><time>2026-05-03T15:53:47Z</time></trkpt><trkpt lat="42.66175251160352" lon="13.725890877865318"><ele>210.5</ele><time>2026-05-03T15:53:48Z</time></trkpt><trkpt lat="42.66194929166771" lon="13.72615326729587"><ele>212.0</ele><time>2026-05-03T15:53:49Z</time></trkpt><trkpt lat="42.66214510455581" lon="13.726405691373744"><ele>212.0</ele><time>2026-05-03T15:53:50Z</time></trkpt><trkpt lat="42.66234411962434" lon="13.726652238914722"><ele>212.0</ele><time>2026-05-03T15:53:51Z</time></trkpt><trkpt lat="42.662550512467945" lon="13.726880666587773"><ele>212.5</ele><time>2026-05-03T15:53:52Z</time></trkpt><trkpt lat="42.66276755601475" lon="13.727101555460944"><ele>213.0</ele><time>2026-05-03T15:53:53Z</time></trkpt><trkpt lat="42.66299329787951" lon="13.727318523089362"><ele>213.0</ele><time>2026-05-03T15:53:54Z</time></trkpt><trkpt lat="42.66322157311883" lon="13.727529944314504"><ele>213.0</ele><time>2026-05-03T15:53:55Z</time></trkpt><trkpt lat="42.66345466653047" lon="13.72774123116193"><ele>211.0</ele><time>2026-05-03T15:53:56Z</time></trkpt><trkpt lat="42.66369099371149" lon="13.727937674472306"><ele>209.0</ele><time>2026-05-03T15:53:57Z</time></trkpt><trkpt lat="42.66393676963614" lon="13.728128870029533"><ele>209.0</ele><time>2026-05-03T15:53:58Z</time></trkpt><trkpt lat="42.66418384228863" lon="13.728303191730099"><ele>209.0</ele><time>2026-05-03T15:53:59Z</time></trkpt><trkpt lat="42.66443981765346" lon="13.728472855370832"><ele>207.5</ele><time>2026-05-03T15:54:00Z</time></trkpt><trkpt lat="42.664690322970976" lon="13.728631030137572"><ele>206.0</ele><time>2026-05-03T15:54:01Z</time></trkpt><trkpt lat="42.664938061669375" lon="13.728792226364689"><ele>206.0</ele><time>2026-05-03T15:54:02Z</time></trkpt><trkpt lat="42.66518037860688" lon="13.72895747903368"><ele>206.0</ele><time>2026-05-03T15:54:03Z</time></trkpt><trkpt lat="42.665412255687784" lon="13.729136289643222"><ele>205.5</ele><time>2026-05-03T15:54:04Z</time></trkpt><trkpt lat="42.66563918212995" lon="13.729332961818814"><ele>205.0</ele><time>2026-05-03T15:54:05Z</time></trkpt><trkpt lat="42.66585677195592" lon="13.729549026858656"><ele>205.0</ele><time>2026-05-03T15:54:06Z</time></trkpt><trkpt lat="42.666066751130366" lon="13.729782124342128"><ele>205.0</ele><time>2026-05-03T15:54:07Z</time></trkpt><trkpt lat="42.666268612690644" lon="13.730026894564087"><ele>206.0</ele><time>2026-05-03T15:54:08Z</time></trkpt><trkpt lat="42.66645630164092" lon="13.730295212771026"><ele>207.0</ele><time>2026-05-03T15:54:09Z</time></trkpt><trkpt lat="42.66663228818185" lon="13.730577466849523"><ele>207.0</ele><time>2026-05-03T15:54:10Z</time></trkpt><trkpt lat="42.666794126253045" lon="13.730877366702009"><ele>207.0</ele><time>2026-05-03T15:54:11Z</time></trkpt><trkpt lat="42.66693974353742" lon="13.73118805974749"><ele>205.5</ele><time>2026-05-03T15:54:12Z</time></trkpt><trkpt lat="42.66706881652327" lon="13.73151069176269"><ele>204.0</ele><time>2026-05-03T15:54:13Z</time></trkpt><trkpt lat="42.66718231128684" lon="13.731840099631514"><ele>203.5</ele><time>2026-05-03T15:54:14Z</time></trkpt><trkpt lat="42.667290559552114" lon="13.732168933184596"><ele>203.0</ele><time>2026-05-03T15:54:15Z</time></trkpt><trkpt lat="42.66737155243285" lon="13.732513879176876"><ele>202.5</ele><time>2026-05-03T15:54:16Z</time></trkpt><trkpt lat="42.667440934257804" lon="13.732855795969291"><ele>202.0</ele><time>2026-05-03T15:54:17Z</time></trkpt><trkpt lat="42.66750195844146" lon="13.733199273430277"><ele>202.0</ele><time>2026-05-03T15:54:18Z</time></trkpt><trkpt lat="42.667550539348866" lon="13.733544606039912"><ele>202.0</ele><time>2026-05-03T15:54:19Z</time></trkpt><trkpt lat="42.66758294396445" lon="13.733893198132328"><ele>202.0</ele><time>2026-05-03T15:54:20Z</time></trkpt><trkpt lat="42.667600980502364" lon="13.734248512791542"><ele>202.0</ele><time>2026-05-03T15:54:21Z</time></trkpt><trkpt lat="42.66760562341531" lon="13.734608652031769"><ele>202.0</ele><time>2026-05-03T15:54:22Z</time></trkpt><trkpt lat="42.66760489240932" lon="13.734974249059903"><ele>202.0</ele><time>2026-05-03T15:54:23Z</time></trkpt><trkpt lat="42.66759938154323" lon="13.735342407103486"><ele>202.0</ele><time>2026-05-03T15:54:24Z</time></trkpt><trkpt lat="42.6675915336675" lon="13.735713133051423"><ele>202.0</ele><time>2026-05-03T15:54:25Z</time></trkpt><trkpt lat="42.66758535249848" lon="13.736086712376292"><ele>202.5</ele><time>2026-05-03T15:54:26Z</time></trkpt><trkpt lat="42.66757966611663" lon="13.736462318945238"><ele>203.0</ele><time>2026-05-03T15:54:27Z</time></trkpt><trkpt lat="42.667575617521656" lon="13.736836157570938"><ele>200.5</ele><time>2026-05-03T15:54:28Z</time></trkpt><trkpt lat="42.66757394116266" lon="13.737208892497693"><ele>198.0</ele><time>2026-05-03T15:54:29Z</time></trkpt><trkpt lat="42.66758083766766" lon="13.737576735883401"><ele>198.0</ele><time>2026-05-03T15:54:30Z</time></trkpt><trkpt lat="42.667601869849285" lon="13.73794046501198"><ele>198.0</ele><time>2026-05-03T15:54:30.999Z</time></trkpt><trkpt lat="42.66762953158325" lon="13.738296984102412"><ele>197.5</ele><time>2026-05-03T15:54:31.999Z</time></trkpt><trkpt lat="42.66766189514475" lon="13.738647700382847"><ele>197.0</ele><time>2026-05-03T15:54:32.999Z</time></trkpt><trkpt lat="42.6676939063439" lon="13.739000774487907"><ele>197.0</ele><time>2026-05-03T15:54:33.999Z</time></trkpt><trkpt lat="42.66772854264983" lon="13.739354400107443"><ele>197.0</ele><time>2026-05-03T15:54:34.999Z</time></trkpt><trkpt lat="42.66776916921744" lon="13.739706293376601"><ele>199.0</ele><time>2026-05-03T15:54:35.999Z</time></trkpt><trkpt lat="42.66782189856034" lon="13.740053741237777"><ele>201.0</ele><time>2026-05-03T15:54:36.999Z</time></trkpt><trkpt lat="42.66788324382458" lon="13.740400027156578"><ele>201.0</ele><time>2026-05-03T15:54:37.999Z</time></trkpt><trkpt lat="42.667951772615694" lon="13.740743479756492"><ele>201.0</ele><time>2026-05-03T15:54:38.999Z</time></trkpt><trkpt lat="42.668027357184044" lon="13.741084418911454"><ele>199.0</ele><time>2026-05-03T15:54:39.999Z</time></trkpt><trkpt lat="42.668101089826095" lon="13.741425349526017"><ele>197.0</ele><time>2026-05-03T15:54:40.999Z</time></trkpt><trkpt lat="42.66818360761377" lon="13.74176555845401"><ele>193.0</ele><time>2026-05-03T15:54:41.999Z</time></trkpt><trkpt lat="42.66827114098541" lon="13.74210880439449"><ele>189.0</ele><time>2026-05-03T15:54:42.999Z</time></trkpt><trkpt lat="42.668364702650294" lon="13.742438742067398"><ele>187.5</ele><time>2026-05-03T15:54:43.999Z</time></trkpt><trkpt lat="42.66846170911966" lon="13.742767198546867"><ele>186.0</ele><time>2026-05-03T15:54:44.999Z</time></trkpt><trkpt lat="42.66856232849262" lon="13.743085538835501"><ele>186.0</ele><time>2026-05-03T15:54:45.999Z</time></trkpt><trkpt lat="42.66866712748719" lon="13.743396724629473"><ele>186.0</ele><time>2026-05-03T15:54:46.999Z</time></trkpt><trkpt lat="42.668776773797056" lon="13.743702578412185"><ele>186.0</ele><time>2026-05-03T15:54:47.999Z</time></trkpt><trkpt lat="42.66888868471398" lon="13.744003257687696"><ele>186.0</ele><time>2026-05-03T15:54:48.999Z</time></trkpt><trkpt lat="42.66900598226104" lon="13.74430313564392"><ele>185.5</ele><time>2026-05-03T15:54:49.999Z</time></trkpt><trkpt lat="42.66912800844854" lon="13.744601650209002"><ele>185.0</ele><time>2026-05-03T15:54:50.999Z</time></trkpt><trkpt lat="42.6692567774768" lon="13.744899489785272"><ele>185.0</ele><time>2026-05-03T15:54:51.999Z</time></trkpt><trkpt lat="42.66939080361732" lon="13.745193725416277"><ele>185.0</ele><time>2026-05-03T15:54:52.999Z</time></trkpt><trkpt lat="42.669526163846044" lon="13.7454898874873"><ele>185.0</ele><time>2026-05-03T15:54:53.999Z</time></trkpt><trkpt lat="42.669661431984295" lon="13.745782638183847"><ele>185.0</ele><time>2026-05-03T15:54:54.999Z</time></trkpt><trkpt lat="42.66980294589699" lon="13.746071428072039"><ele>183.5</ele><time>2026-05-03T15:54:55.999Z</time></trkpt><trkpt lat="42.669946225439304" lon="13.74635444950598"><ele>182.0</ele><time>2026-05-03T15:54:56.999Z</time></trkpt><trkpt lat="42.67010520739862" lon="13.746626174606583"><ele>181.5</ele><time>2026-05-03T15:54:57.999Z</time></trkpt><trkpt lat="42.67027074299588" lon="13.746895241150918"><ele>181.0</ele><time>2026-05-03T15:54:58.999Z</time></trkpt><trkpt lat="42.670438009863254" lon="13.747159940261332"><ele>181.0</ele><time>2026-05-03T15:54:59.999Z</time></trkpt><trkpt lat="42.670610402521525" lon="13.747418619284474"><ele>181.0</ele><time>2026-05-03T15:55:00.999Z</time></trkpt><trkpt lat="42.67078594943379" lon="13.74767432061835"><ele>180.5</ele><time>2026-05-03T15:55:01.999Z</time></trkpt><trkpt lat="42.670961087843835" lon="13.747929704320766"><ele>180.0</ele><time>2026-05-03T15:55:02.999Z</time></trkpt><trkpt lat="42.67113605466828" lon="13.748189297491052"><ele>179.0</ele><time>2026-05-03T15:55:03.999Z</time></trkpt><trkpt lat="42.67131024898542" lon="13.748450162733622"><ele>178.0</ele><time>2026-05-03T15:55:04.999Z</time></trkpt><trkpt lat="42.671484105575736" lon="13.748713913794251"><ele>181.5</ele><time>2026-05-03T15:55:05.999Z</time></trkpt><trkpt lat="42.671659105867164" lon="13.748973638035928"><ele>185.0</ele><time>2026-05-03T15:55:06.999Z</time></trkpt><trkpt lat="42.671834541899244" lon="13.749231125751866"><ele>186.0</ele><time>2026-05-03T15:55:07.999Z</time></trkpt><trkpt lat="42.67200671994725" lon="13.749490367758657"><ele>187.0</ele><time>2026-05-03T15:55:08.999Z</time></trkpt><trkpt lat="42.67217786705839" lon="13.749750328956617"><ele>187.0</ele><time>2026-05-03T15:55:09.999Z</time></trkpt><trkpt lat="42.6723482206713" lon="13.750011515243836"><ele>187.0</ele><time>2026-05-03T15:55:10.999Z</time></trkpt><trkpt lat="42.67252121022642" lon="13.75027293672585"><ele>186.5</ele><time>2026-05-03T15:55:11.999Z</time></trkpt><trkpt lat="42.672694540556655" lon="13.750528930130143"><ele>186.0</ele><time>2026-05-03T15:55:12.999Z</time></trkpt><trkpt lat="42.67288864363464" lon="13.750783128087608"><ele>187.0</ele><time>2026-05-03T15:55:13.999Z</time></trkpt><trkpt lat="42.673056806719025" lon="13.75104226840426"><ele>188.0</ele><time>2026-05-03T15:55:14.999Z</time></trkpt><trkpt lat="42.673226721593906" lon="13.751301211527991"><ele>188.0</ele><time>2026-05-03T15:55:15.999Z</time></trkpt><trkpt lat="42.67340101056052" lon="13.751557849987838"><ele>188.0</ele><time>2026-05-03T15:55:16.999Z</time></trkpt><trkpt lat="42.67357448611927" lon="13.751811408664576"><ele>184.0</ele><time>2026-05-03T15:55:17.999Z</time></trkpt><trkpt lat="42.673745334333766" lon="13.752061191205822"><ele>180.0</ele><time>2026-05-03T15:55:18.999Z</time></trkpt><trkpt lat="42.673914250181596" lon="13.752312191836815"><ele>180.0</ele><time>2026-05-03T15:55:19.999Z</time></trkpt><trkpt lat="42.67408427435985" lon="13.752563427727884"><ele>180.0</ele><time>2026-05-03T15:55:20.999Z</time></trkpt><trkpt lat="42.674254574371545" lon="13.75281525660055"><ele>180.0</ele><time>2026-05-03T15:55:21.999Z</time></trkpt><trkpt lat="42.67442967721577" lon="13.75306436712816"><ele>180.0</ele><time>2026-05-03T15:55:22.999Z</time></trkpt><trkpt lat="42.67458894814593" lon="13.753315446033744"><ele>175.0</ele><time>2026-05-03T15:55:23.999Z</time></trkpt><trkpt lat="42.67474553337586" lon="13.753552233784498"><ele>170.0</ele><time>2026-05-03T15:55:24.999Z</time></trkpt><trkpt lat="42.67490014023685" lon="13.753782231853389"><ele>170.0</ele><time>2026-05-03T15:55:25.999Z</time></trkpt><trkpt lat="42.67505922170947" lon="13.754015205532834"><ele>170.0</ele><time>2026-05-03T15:55:26.999Z</time></trkpt><trkpt lat="42.675220761431646" lon="13.754246899289502"><ele>168.5</ele><time>2026-05-03T15:55:27.999Z</time></trkpt><trkpt lat="42.6753803952595" lon="13.754477082561497"><ele>167.0</ele><time>2026-05-03T15:55:28.999Z</time></trkpt><trkpt lat="42.67553702052986" lon="13.754702642146578"><ele>167.0</ele><time>2026-05-03T15:55:29.999Z</time></trkpt><trkpt lat="42.67569422687423" lon="13.754934107207403"><ele>167.0</ele><time>2026-05-03T15:55:30.999Z</time></trkpt><trkpt lat="42.67584964632818" lon="13.755167021144155"><ele>166.5</ele><time>2026-05-03T15:55:31.999Z</time></trkpt><trkpt lat="42.676005067605864" lon="13.755400292429627"><ele>166.0</ele><time>2026-05-03T15:55:32.999Z</time></trkpt><trkpt lat="42.67616046921118" lon="13.755636821794397"><ele>166.0</ele><time>2026-05-03T15:55:33.999Z</time></trkpt><trkpt lat="42.67631679387725" lon="13.7558749910456"><ele>166.0</ele><time>2026-05-03T15:55:34.999Z</time></trkpt><trkpt lat="42.67647468628444" lon="13.756114963720176"><ele>165.0</ele><time>2026-05-03T15:55:35.999Z</time></trkpt><trkpt lat="42.67663133578543" lon="13.75635186593624"><ele>164.0</ele><time>2026-05-03T15:55:36.999Z</time></trkpt><trkpt lat="42.67678912101085" lon="13.756589085449837"><ele>165.0</ele><time>2026-05-03T15:55:38Z</time></trkpt><trkpt lat="42.676947750777224" lon="13.756825199082021"><ele>166.0</ele><time>2026-05-03T15:55:39Z</time></trkpt><trkpt lat="42.67710511883106" lon="13.757059483327312"><ele>166.0</ele><time>2026-05-03T15:55:40Z</time></trkpt><trkpt lat="42.67726158031842" lon="13.757292375032575"><ele>166.0</ele><time>2026-05-03T15:55:41Z</time></trkpt><trkpt lat="42.67741692046928" lon="13.757522785220383"><ele>164.0</ele><time>2026-05-03T15:55:42Z</time></trkpt><trkpt lat="42.6775727154082" lon="13.757752376383547"><ele>162.0</ele><time>2026-05-03T15:55:43Z</time></trkpt><trkpt lat="42.67772802197121" lon="13.757981651193845"><ele>161.5</ele><time>2026-05-03T15:55:44Z</time></trkpt><trkpt lat="42.677884048763744" lon="13.758213375690254"><ele>161.0</ele><time>2026-05-03T15:55:45Z</time></trkpt><trkpt lat="42.67803890178041" lon="13.758441833847355"><ele>160.5</ele><time>2026-05-03T15:55:46Z</time></trkpt><trkpt lat="42.67819502063649" lon="13.75867321437025"><ele>160.0</ele><time>2026-05-03T15:55:47Z</time></trkpt><trkpt lat="42.67835147462055" lon="13.758906959002028"><ele>160.0</ele><time>2026-05-03T15:55:48Z</time></trkpt><trkpt lat="42.67850972015061" lon="13.759144079240341"><ele>160.0</ele><time>2026-05-03T15:55:49Z</time></trkpt><trkpt lat="42.67866828341508" lon="13.759381214144884"><ele>159.0</ele><time>2026-05-03T15:55:50Z</time></trkpt><trkpt lat="42.67882834852173" lon="13.759616354964383"><ele>158.0</ele><time>2026-05-03T15:55:51Z</time></trkpt><trkpt lat="42.678989413414236" lon="13.759852749032106"><ele>158.0</ele><time>2026-05-03T15:55:52Z</time></trkpt><trkpt lat="42.67914748850813" lon="13.760086266303405"><ele>158.0</ele><time>2026-05-03T15:55:53Z</time></trkpt><trkpt lat="42.67930512460545" lon="13.760316135756774"><ele>157.33333333333331</ele><time>2026-05-03T15:55:54Z</time></trkpt><trkpt lat="42.679458527918335" lon="13.760542620189288"><ele>156.66666666666666</ele><time>2026-05-03T15:55:55Z</time></trkpt><trkpt lat="42.67960664824212" lon="13.760768534404734"><ele>156.0</ele><time>2026-05-03T15:55:56Z</time></trkpt><trkpt lat="42.67975421396075" lon="13.760992914403774"><ele>156.33333333333334</ele><time>2026-05-03T15:55:57Z</time></trkpt><trkpt lat="42.679904458713125" lon="13.7612175834407"><ele>156.66666666666669</ele><time>2026-05-03T15:55:58Z</time></trkpt><trkpt lat="42.68005288248774" lon="13.761442705736942"><ele>157.0</ele><time>2026-05-03T15:55:59Z</time></trkpt><trkpt lat="42.68020581252532" lon="13.761668032025424"><ele>157.33333333333334</ele><time>2026-05-03T15:56:00Z</time></trkpt><trkpt lat="42.68035690347867" lon="13.761893372944408"><ele>157.66666666666666</ele><time>2026-05-03T15:56:01Z</time></trkpt><trkpt lat="42.680507611786055" lon="13.762114761195587"><ele>158.0</ele><time>2026-05-03T15:56:02Z</time></trkpt><trkpt lat="42.680660020054596" lon="13.76233626470313"><ele>158.0</ele><time>2026-05-03T15:56:03Z</time></trkpt><trkpt lat="42.680810785408994" lon="13.762557333097254"><ele>158.0</ele><time>2026-05-03T15:56:04Z</time></trkpt><trkpt lat="42.68095545794199" lon="13.762769468964025"><ele>158.0</ele><time>2026-05-03T15:56:05Z</time></trkpt><trkpt lat="42.68109307016931" lon="13.76297483125112"><ele>157.66666666666666</ele><time>2026-05-03T15:56:06Z</time></trkpt><trkpt lat="42.68122704477781" lon="13.763188195533775"><ele>157.33333333333334</ele><time>2026-05-03T15:56:07Z</time></trkpt><trkpt lat="42.68135635352117" lon="13.763406490294221"><ele>157.0</ele><time>2026-05-03T15:56:08Z</time></trkpt><trkpt lat="42.68147524406254" lon="13.76362875490478"><ele>155.33333333333334</ele><time>2026-05-03T15:56:09Z</time></trkpt><trkpt lat="42.6815887686798" lon="13.763854113403768"><ele>153.66666666666666</ele><time>2026-05-03T15:56:10Z</time></trkpt><trkpt lat="42.68169963218926" lon="13.764078545135321"><ele>152.0</ele><time>2026-05-03T15:56:11Z</time></trkpt><trkpt lat="42.68180630405856" lon="13.76430763097157"><ele>152.33333333333331</ele><time>2026-05-03T15:56:12Z</time></trkpt><trkpt lat="42.68190670972181" lon="13.76454050989723"><ele>152.66666666666666</ele><time>2026-05-03T15:56:13Z</time></trkpt><trkpt lat="42.68199835601555" lon="13.76477388292787"><ele>153.0</ele><time>2026-05-03T15:56:14Z</time></trkpt><trkpt lat="42.68207967884472" lon="13.7650058874897"><ele>153.33333333333334</ele><time>2026-05-03T15:56:15Z</time></trkpt><trkpt lat="42.682148579242146" lon="13.765229584651086"><ele>153.66666666666669</ele><time>2026-05-03T15:56:16Z</time></trkpt><trkpt lat="42.68219915094921" lon="13.765453938479634"><ele>154.0</ele><time>2026-05-03T15:56:17Z</time></trkpt><trkpt lat="42.68223022226876" lon="13.765682396936144"><ele>154.0</ele><time>2026-05-03T15:56:18Z</time></trkpt><trkpt lat="42.68223485244672" lon="13.765906944830114"><ele>154.0</ele><time>2026-05-03T15:56:19Z</time></trkpt><trkpt lat="42.68221027877429" lon="13.766123963026592"><ele>154.0</ele><time>2026-05-03T15:56:20Z</time></trkpt><trkpt lat="42.68216547936565" lon="13.766328589112494"><ele>153.75</ele><time>2026-05-03T15:56:21Z</time></trkpt><trkpt lat="42.682107588093" lon="13.766526531363782"><ele>153.5</ele><time>2026-05-03T15:56:22Z</time></trkpt><trkpt lat="42.68205188300489" lon="13.766715719825186"><ele>153.25</ele><time>2026-05-03T15:56:23Z</time></trkpt><trkpt lat="42.68201962828293" lon="13.766896454758715"><ele>153.0</ele><time>2026-05-03T15:56:24Z</time></trkpt><trkpt lat="42.68202115123151" lon="13.767067269615703"><ele>152.75</ele><time>2026-05-03T15:56:25Z</time></trkpt><trkpt lat="42.68206327680286" lon="13.767231149830105"><ele>152.5</ele><time>2026-05-03T15:56:26Z</time></trkpt><trkpt lat="42.682123895295106" lon="13.767382828276034"><ele>152.25</ele><time>2026-05-03T15:56:27Z</time></trkpt><trkpt lat="42.68219877345912" lon="13.767526773254769"><ele>152.0</ele><time>2026-05-03T15:56:28Z</time></trkpt><trkpt lat="42.68231466214242" lon="13.767613853642462"><ele>152.0</ele><time>2026-05-03T15:56:29Z</time></trkpt><trkpt lat="42.682434549328484" lon="13.76769019945973"><ele>152.0</ele><time>2026-05-03T15:56:30Z</time></trkpt><trkpt lat="42.682566975892705" lon="13.767742399241639"><ele>152.0</ele><time>2026-05-03T15:56:31Z</time></trkpt><trkpt lat="42.6827028185471" lon="13.767773408462801"><ele>152.0</ele><time>2026-05-03T15:56:32Z</time></trkpt><trkpt lat="42.682844405390476" lon="13.767796052595925"><ele>151.25</ele><time>2026-05-03T15:56:33Z</time></trkpt><trkpt lat="42.68298649359273" lon="13.767813898301766"><ele>150.5</ele><time>2026-05-03T15:56:34Z</time></trkpt><trkpt lat="42.68313163336745" lon="13.767834389059447"><ele>149.75</ele><time>2026-05-03T15:56:35Z</time></trkpt><trkpt lat="42.68327853820429" lon="13.767852512897397"><ele>149.0</ele><time>2026-05-03T15:56:36Z</time></trkpt><trkpt lat="42.68342036088638" lon="13.767890624181968"><ele>149.0</ele><time>2026-05-03T15:56:36.999Z</time></trkpt><trkpt lat="42.68355749631647" lon="13.767908191042048"><ele>149.0</ele><time>2026-05-03T15:56:37.999Z</time></trkpt><trkpt lat="42.68368799129837" lon="13.767925227614512"><ele>149.0</ele><time>2026-05-03T15:56:38.999Z</time></trkpt><trkpt lat="42.68380632158277" lon="13.767918694038856"><ele>149.0</ele><time>2026-05-03T15:56:39.999Z</time></trkpt><trkpt lat="42.68389782178459" lon="13.767931302541632"><ele>150.33333333333331</ele><time>2026-05-03T15:56:40.999Z</time></trkpt><trkpt lat="42.683964606075826" lon="13.767948660258053"><ele>151.66666666666666</ele><time>2026-05-03T15:56:41.999Z</time></trkpt><trkpt lat="42.684061865358416" lon="13.76806670112643"><ele>153.0</ele><time>2026-05-03T15:56:43.999Z</time></trkpt><trkpt lat="42.68411230615763" lon="13.768154568843844"><ele>154.33333333333334</ele><time>2026-05-03T15:56:44.999Z</time></trkpt><trkpt lat="42.68414794508485" lon="13.768259119445927"><ele>155.66666666666669</ele><time>2026-05-03T15:56:45.999Z</time></trkpt><trkpt lat="42.68420906165117" lon="13.76832912348874"><ele>157.0</ele><time>2026-05-03T15:56:46.999Z</time></trkpt><trkpt lat="42.684288826431555" lon="13.76837165180351"><ele>157.0</ele><time>2026-05-03T15:56:47.999Z</time></trkpt><trkpt lat="42.68436651860141" lon="13.768387407530673"><ele>157.0</ele><time>2026-05-03T15:56:48.999Z</time></trkpt><trkpt lat="42.68445067781105" lon="13.768351899208552"><ele>157.0</ele><time>2026-05-03T15:56:49.999Z</time></trkpt><trkpt lat="42.68451544967787" lon="13.768266001721752"><ele>157.0</ele><time>2026-05-03T15:56:50.999Z</time></trkpt><trkpt lat="42.68456683208552" lon="13.768186014495727"><ele>157.0</ele><time>2026-05-03T15:56:51.999Z</time></trkpt><trkpt lat="42.684595714485155" lon="13.768085978350989"><ele>157.0</ele><time>2026-05-03T15:56:52.999Z</time></trkpt><trkpt lat="42.68459968892889" lon="13.767979605693295"><ele>157.57142857142856</ele><time>2026-05-03T15:56:53.999Z</time></trkpt><trkpt lat="42.68457991026489" lon="13.767884271288764"><ele>158.14285714285714</ele><time>2026-05-03T15:56:54.999Z</time></trkpt><trkpt lat="42.68454414228823" lon="13.767801811258341"><ele>158.71428571428572</ele><time>2026-05-03T15:56:55.999Z</time></trkpt><trkpt lat="42.684492030269496" lon="13.767731997742674"><ele>159.28571428571428</ele><time>2026-05-03T15:56:56.999Z</time></trkpt><trkpt lat="42.68443051960647" lon="13.767681590195867"><ele>159.85714285714286</ele><time>2026-05-03T15:56:57.999Z</time></trkpt><trkpt lat="42.68436079721855" lon="13.767652824639384"><ele>160.42857142857142</ele><time>2026-05-03T15:56:58.999Z</time></trkpt><trkpt lat="42.68428313336297" lon="13.767650840423398"><ele>161.0</ele><time>2026-05-03T15:56:59.999Z</time></trkpt><trkpt lat="42.684202762566066" lon="13.767663437075301"><ele>161.0</ele><time>2026-05-03T15:57:00.999Z</time></trkpt><trkpt lat="42.684125437431504" lon="13.767671238776654"><ele>161.0</ele><time>2026-05-03T15:57:01.999Z</time></trkpt><trkpt lat="42.68405056932271" lon="13.767659113798112"><ele>161.0</ele><time>2026-05-03T15:57:02.999Z</time></trkpt><trkpt lat="42.68397344678842" lon="13.767622157808463"><ele>161.0</ele><time>2026-05-03T15:57:03.999Z</time></trkpt><trkpt lat="42.683895878265666" lon="13.76756985998639"><ele>161.0</ele><time>2026-05-03T15:57:04.999Z</time></trkpt><trkpt lat="42.68381831442667" lon="13.767498311616938"><ele>161.0</ele><time>2026-05-03T15:57:05.999Z</time></trkpt><trkpt lat="42.683745449893095" lon="13.767396752937719"><ele>161.0</ele><time>2026-05-03T15:57:06.999Z</time></trkpt><trkpt lat="42.68366345164856" lon="13.767281790970095"><ele>161.0</ele><time>2026-05-03T15:57:07.999Z</time></trkpt><trkpt lat="42.683573546183304" lon="13.767170932435311"><ele>161.0</ele><time>2026-05-03T15:57:08.999Z</time></trkpt><trkpt lat="42.683479735805086" lon="13.767044687872916"><ele>161.0</ele><time>2026-05-03T15:57:09.999Z</time></trkpt><trkpt lat="42.68338789532391" lon="13.766902024179291"><ele>159.25</ele><time>2026-05-03T15:57:10.999Z</time></trkpt><trkpt lat="42.6833045811357" lon="13.766745498747094"><ele>157.5</ele><time>2026-05-03T15:57:11.999Z</time></trkpt><trkpt lat="42.68322525962088" lon="13.766578357884422"><ele>155.75</ele><time>2026-05-03T15:57:12.999Z</time></trkpt><trkpt lat="42.68314932180802" lon="13.766402840242405"><ele>154.0</ele><time>2026-05-03T15:57:13.999Z</time></trkpt><trkpt lat="42.68307420144619" lon="13.766223897156738"><ele>154.0</ele><time>2026-05-03T15:57:14.999Z</time></trkpt><trkpt lat="42.68299948816971" lon="13.766042321627529"><ele>154.0</ele><time>2026-05-03T15:57:15.999Z</time></trkpt><trkpt lat="42.6829214523229" lon="13.765861089062714"><ele>154.0</ele><time>2026-05-03T15:57:16.999Z</time></trkpt><trkpt lat="42.68284292309505" lon="13.765673370363814"><ele>154.0</ele><time>2026-05-03T15:57:17.999Z</time></trkpt><trkpt lat="42.682765908679144" lon="13.765483767246314"><ele>154.0</ele><time>2026-05-03T15:57:18.999Z</time></trkpt><trkpt lat="42.68268587509375" lon="13.765294797145277"><ele>154.0</ele><time>2026-05-03T15:57:19.999Z</time></trkpt><trkpt lat="42.682601577937675" lon="13.765109007774955"><ele>153.66666666666669</ele><time>2026-05-03T15:57:20.999Z</time></trkpt><trkpt lat="42.682511516019005" lon="13.764926531885973"><ele>153.33333333333334</ele><time>2026-05-03T15:57:21.999Z</time></trkpt><trkpt lat="42.68241801400369" lon="13.764748679315142"><ele>153.0</ele><time>2026-05-03T15:57:22.999Z</time></trkpt><trkpt lat="42.68232057068531" lon="13.764575975167016"><ele>153.0</ele><time>2026-05-03T15:57:23.999Z</time></trkpt><trkpt lat="42.68221955689485" lon="13.764410245950545"><ele>153.0</ele><time>2026-05-03T15:57:24.999Z</time></trkpt><trkpt lat="42.6821155739805" lon="13.764247399765198"><ele>153.0</ele><time>2026-05-03T15:57:25.999Z</time></trkpt><trkpt lat="42.682011614435034" lon="13.764086029427226"><ele>152.66666666666666</ele><time>2026-05-03T15:57:26.999Z</time></trkpt><trkpt lat="42.681907761658834" lon="13.763926200472232"><ele>152.33333333333331</ele><time>2026-05-03T15:57:27.999Z</time></trkpt><trkpt lat="42.68180376178411" lon="13.763769291041838"><ele>152.0</ele><time>2026-05-03T15:57:28.999Z</time></trkpt><trkpt lat="42.68169895025357" lon="13.763614513041519"><ele>153.25</ele><time>2026-05-03T15:57:29.999Z</time></trkpt><trkpt lat="42.681598560918026" lon="13.763466011651895"><ele>154.5</ele><time>2026-05-03T15:57:30.999Z</time></trkpt><trkpt lat="42.68149749016916" lon="13.763319815518935"><ele>155.75</ele><time>2026-05-03T15:57:31.999Z</time></trkpt><trkpt lat="42.681393063940284" lon="13.763170640465589"><ele>157.0</ele><time>2026-05-03T15:57:32.999Z</time></trkpt><trkpt lat="42.68128580878589" lon="13.763019122631777"><ele>157.0</ele><time>2026-05-03T15:57:33.999Z</time></trkpt><trkpt lat="42.68117564651962" lon="13.762860583988584"><ele>157.0</ele><time>2026-05-03T15:57:34.999Z</time></trkpt><trkpt lat="42.681062627841804" lon="13.762699867652247"><ele>157.0</ele><time>2026-05-03T15:57:35.999Z</time></trkpt><trkpt lat="42.68094626084148" lon="13.762537980015669"><ele>157.33333333333334</ele><time>2026-05-03T15:57:36.999Z</time></trkpt><trkpt lat="42.68082650931583" lon="13.76237137869839"><ele>157.66666666666666</ele><time>2026-05-03T15:57:37.999Z</time></trkpt><trkpt lat="42.68070714920819" lon="13.762199987698743"><ele>158.0</ele><time>2026-05-03T15:57:38.999Z</time></trkpt><trkpt lat="42.68058939333737" lon="13.762027198235506"><ele>157.66666666666666</ele><time>2026-05-03T15:57:39.999Z</time></trkpt><trkpt lat="42.6804705909688" lon="13.761851740356617"><ele>157.33333333333334</ele><time>2026-05-03T15:57:40.999Z</time></trkpt><trkpt lat="42.68035273200803" lon="13.761676173113301"><ele>157.0</ele><time>2026-05-03T15:57:41.999Z</time></trkpt><trkpt lat="42.680235336052824" lon="13.761500158703997"><ele>157.0</ele><time>2026-05-03T15:57:42.999Z</time></trkpt><trkpt lat="42.68011909251009" lon="13.761326569093885"><ele>157.0</ele><time>2026-05-03T15:57:44Z</time></trkpt><trkpt lat="42.68000513714608" lon="13.761155568044297"><ele>157.0</ele><time>2026-05-03T15:57:45Z</time></trkpt><trkpt lat="42.67989561765168" lon="13.760990309327246"><ele>156.66666666666669</ele><time>2026-05-03T15:57:46Z</time></trkpt><trkpt lat="42.679782937689" lon="13.760828505868833"><ele>156.33333333333334</ele><time>2026-05-03T15:57:47Z</time></trkpt><trkpt lat="42.67967043120502" lon="13.76066604772703"><ele>156.0</ele><time>2026-05-03T15:57:48Z</time></trkpt><trkpt lat="42.679556434074144" lon="13.760499471742214"><ele>156.0</ele><time>2026-05-03T15:57:49Z</time></trkpt><trkpt lat="42.679439019739" lon="13.760327436232688"><ele>156.0</ele><time>2026-05-03T15:57:50Z</time></trkpt><trkpt lat="42.67932058902796" lon="13.760149464696136"><ele>156.0</ele><time>2026-05-03T15:57:51Z</time></trkpt><trkpt lat="42.67920190692998" lon="13.759969985477422"><ele>156.66666666666666</ele><time>2026-05-03T15:57:52Z</time></trkpt><trkpt lat="42.67908034821518" lon="13.759793518419029"><ele>157.33333333333331</ele><time>2026-05-03T15:57:53Z</time></trkpt><trkpt lat="42.678957541137606" lon="13.759617488899679"><ele>158.0</ele><time>2026-05-03T15:57:54Z</time></trkpt><trkpt lat="42.6788338515095" lon="13.759436493272851"><ele>158.0</ele><time>2026-05-03T15:57:55Z</time></trkpt><trkpt lat="42.67870992616868" lon="13.759251274234046"><ele>158.0</ele><time>2026-05-03T15:57:56Z</time></trkpt><trkpt lat="42.67858220625507" lon="13.759061200329624"><ele>158.0</ele><time>2026-05-03T15:57:57Z</time></trkpt><trkpt lat="42.67845049154904" lon="13.75886816068181"><ele>158.66666666666666</ele><time>2026-05-03T15:57:58Z</time></trkpt><trkpt lat="42.67831656292744" lon="13.758671892341054"><ele>159.33333333333334</ele><time>2026-05-03T15:57:59Z</time></trkpt><trkpt lat="42.67818092183631" lon="13.758470122009484"><ele>160.0</ele><time>2026-05-03T15:58:00Z</time></trkpt><trkpt lat="42.678044910097384" lon="13.758262884919969"><ele>160.33333333333334</ele><time>2026-05-03T15:58:01Z</time></trkpt><trkpt lat="42.67790778817798" lon="13.758055853022103"><ele>160.66666666666666</ele><time>2026-05-03T15:58:02Z</time></trkpt><trkpt lat="42.67777025145765" lon="13.75784842872073"><ele>161.0</ele><time>2026-05-03T15:58:03Z</time></trkpt><trkpt lat="42.677629586862466" lon="13.75764069734319"><ele>162.66666666666666</ele><time>2026-05-03T15:58:04Z</time></trkpt><trkpt lat="42.677487278734326" lon="13.757432248244246"><ele>164.33333333333334</ele><time>2026-05-03T15:58:05Z</time></trkpt><trkpt lat="42.67734272047242" lon="13.75722376089722"><ele>166.0</ele><time>2026-05-03T15:58:06Z</time></trkpt><trkpt lat="42.67719845313744" lon="13.757006673639033"><ele>166.0</ele><time>2026-05-03T15:58:07Z</time></trkpt><trkpt lat="42.67705309523867" lon="13.756789980567797"><ele>166.0</ele><time>2026-05-03T15:58:08Z</time></trkpt><trkpt lat="42.676907831928425" lon="13.756573134824052"><ele>166.0</ele><time>2026-05-03T15:58:09Z</time></trkpt><trkpt lat="42.67675969831915" lon="13.756355639898102"><ele>166.0</ele><time>2026-05-03T15:58:10Z</time></trkpt><trkpt lat="42.67660950731282" lon="13.75613595175033"><ele>166.0</ele><time>2026-05-03T15:58:11Z</time></trkpt><trkpt lat="42.67645850378361" lon="13.75591304716125"><ele>166.0</ele><time>2026-05-03T15:58:12Z</time></trkpt><trkpt lat="42.67630552958462" lon="13.755685314334732"><ele>166.0</ele><time>2026-05-03T15:58:13Z</time></trkpt><trkpt lat="42.676150799705674" lon="13.755452491986716"><ele>166.0</ele><time>2026-05-03T15:58:14Z</time></trkpt><trkpt lat="42.6759934937234" lon="13.755221291986324"><ele>166.5</ele><time>2026-05-03T15:58:15Z</time></trkpt><trkpt lat="42.6758369306122" lon="13.754990859541138"><ele>167.0</ele><time>2026-05-03T15:58:16Z</time></trkpt><trkpt lat="42.675678498133834" lon="13.754757100444051"><ele>167.0</ele><time>2026-05-03T15:58:17Z</time></trkpt><trkpt lat="42.67551902952216" lon="13.754528076985418"><ele>167.0</ele><time>2026-05-03T15:58:18Z</time></trkpt><trkpt lat="42.67536153098" lon="13.754300704746566"><ele>168.5</ele><time>2026-05-03T15:58:19Z</time></trkpt><trkpt lat="42.675207377385036" lon="13.754069397279011"><ele>170.0</ele><time>2026-05-03T15:58:20Z</time></trkpt><trkpt lat="42.67505577274607" lon="13.753838149632811"><ele>170.0</ele><time>2026-05-03T15:58:21Z</time></trkpt><trkpt lat="42.67490233315053" lon="13.753610891274029"><ele>170.0</ele><time>2026-05-03T15:58:22Z</time></trkpt><trkpt lat="42.67474798654863" lon="13.75338398575674"><ele>170.0</ele><time>2026-05-03T15:58:23Z</time></trkpt><trkpt lat="42.674596542222275" lon="13.753157975473243"><ele>170.0</ele><time>2026-05-03T15:58:24Z</time></trkpt><trkpt lat="42.67444726237943" lon="13.752934447873095"><ele>170.0</ele><time>2026-05-03T15:58:25Z</time></trkpt><trkpt lat="42.67430008396498" lon="13.75271142325653"><ele>173.33333333333331</ele><time>2026-05-03T15:58:26Z</time></trkpt><trkpt lat="42.67415280552106" lon="13.752489856784157"><ele>176.66666666666666</ele><time>2026-05-03T15:58:27Z</time></trkpt><trkpt lat="42.674011035015035" lon="13.752276914586533"><ele>180.0</ele><time>2026-05-03T15:58:28Z</time></trkpt><trkpt lat="42.67385509160123" lon="13.752055547280541"><ele>180.33333333333334</ele><time>2026-05-03T15:58:29Z</time></trkpt><trkpt lat="42.673707362182" lon="13.751835485896308"><ele>180.66666666666669</ele><time>2026-05-03T15:58:30Z</time></trkpt><trkpt lat="42.67355740839102" lon="13.751614656151197"><ele>181.0</ele><time>2026-05-03T15:58:31Z</time></trkpt><trkpt lat="42.673408847957226" lon="13.751392701529804"><ele>182.66666666666669</ele><time>2026-05-03T15:58:31.999Z</time></trkpt><trkpt lat="42.67326047560122" lon="13.751172384271625"><ele>184.33333333333334</ele><time>2026-05-03T15:58:32.999Z</time></trkpt><trkpt lat="42.67310976614576" lon="13.75095282655053"><ele>186.0</ele><time>2026-05-03T15:58:33.999Z</time></trkpt><trkpt lat="42.672960837540494" lon="13.75073402154127"><ele>186.0</ele><time>2026-05-03T15:58:34.999Z</time></trkpt><trkpt lat="42.67281384165077" lon="13.750517270514798"><ele>186.0</ele><time>2026-05-03T15:58:35.999Z</time></trkpt><trkpt lat="42.67267212176598" lon="13.750305041626422"><ele>186.0</ele><time>2026-05-03T15:58:36.999Z</time></trkpt><trkpt lat="42.67253196042117" lon="13.750103094034666"><ele>186.33333333333334</ele><time>2026-05-03T15:58:37.999Z</time></trkpt><trkpt lat="42.67239545395718" lon="13.749893017232324"><ele>186.66666666666669</ele><time>2026-05-03T15:58:38.999Z</time></trkpt><trkpt lat="42.67226418319189" lon="13.74968791694219"><ele>187.0</ele><time>2026-05-03T15:58:39.999Z</time></trkpt><trkpt lat="42.67212671455827" lon="13.74948286413707"><ele>186.33333333333334</ele><time>2026-05-03T15:58:40.999Z</time></trkpt><trkpt lat="42.67198462756214" lon="13.749285966435117"><ele>185.66666666666666</ele><time>2026-05-03T15:58:41.999Z</time></trkpt><trkpt lat="42.67184855011818" lon="13.749093905519505"><ele>185.0</ele><time>2026-05-03T15:58:42.999Z</time></trkpt><trkpt lat="42.671713656780845" lon="13.748908188053822"><ele>185.0</ele><time>2026-05-03T15:58:43.999Z</time></trkpt><trkpt lat="42.6715885700058" lon="13.748714228727122"><ele>185.0</ele><time>2026-05-03T15:58:44.999Z</time></trkpt><trkpt lat="42.67146501547112" lon="13.74853636119336"><ele>185.0</ele><time>2026-05-03T15:58:45.999Z</time></trkpt><trkpt lat="42.6713432590096" lon="13.748361698912639"><ele>183.33333333333331</ele><time>2026-05-03T15:58:46.999Z</time></trkpt><trkpt lat="42.6712258184895" lon="13.748186768784885"><ele>181.66666666666666</ele><time>2026-05-03T15:58:47.999Z</time></trkpt><trkpt lat="42.671105324675565" lon="13.748013726293003"><ele>180.0</ele><time>2026-05-03T15:58:48.999Z</time></trkpt><trkpt lat="42.67098739097344" lon="13.747837789384624"><ele>180.33333333333334</ele><time>2026-05-03T15:58:49.999Z</time></trkpt><trkpt lat="42.67087326501768" lon="13.747663435117351"><ele>180.66666666666669</ele><time>2026-05-03T15:58:50.999Z</time></trkpt><trkpt lat="42.6707564733955" lon="13.747498132618889"><ele>181.0</ele><time>2026-05-03T15:58:51.999Z</time></trkpt><trkpt lat="42.67064193007702" lon="13.747327562392039"><ele>181.0</ele><time>2026-05-03T15:58:52.999Z</time></trkpt><trkpt lat="42.670526785168555" lon="13.747158501548975"><ele>181.0</ele><time>2026-05-03T15:58:53.999Z</time></trkpt><trkpt lat="42.67041237306353" lon="13.746990645575641"><ele>181.0</ele><time>2026-05-03T15:58:54.999Z</time></trkpt><trkpt lat="42.67030177542601" lon="13.746818454367377"><ele>181.33333333333334</ele><time>2026-05-03T15:58:55.999Z</time></trkpt><trkpt lat="42.67019700182229" lon="13.746644500744601"><ele>181.66666666666666</ele><time>2026-05-03T15:58:56.999Z</time></trkpt><trkpt lat="42.67009385605848" lon="13.746471423856287"><ele>182.0</ele><time>2026-05-03T15:58:57.999Z</time></trkpt><trkpt lat="42.66999250756203" lon="13.746294493964292"><ele>182.0</ele><time>2026-05-03T15:58:58.999Z</time></trkpt><trkpt lat="42.669891592660136" lon="13.746113390326876"><ele>182.0</ele><time>2026-05-03T15:58:59.999Z</time></trkpt><trkpt lat="42.669793936025215" lon="13.7459267418642"><ele>182.0</ele><time>2026-05-03T15:59:00.999Z</time></trkpt><trkpt lat="42.66969757763186" lon="13.74574000103604"><ele>183.0</ele><time>2026-05-03T15:59:01.999Z</time></trkpt><trkpt lat="42.66960450040937" lon="13.745547440998877"><ele>184.0</ele><time>2026-05-03T15:59:02.999Z</time></trkpt><trkpt lat="42.66951172137935" lon="13.745353517974145"><ele>185.0</ele><time>2026-05-03T15:59:03.999Z</time></trkpt><trkpt lat="42.669426241076096" lon="13.745156138449902"><ele>185.0</ele><time>2026-05-03T15:59:04.999Z</time></trkpt><trkpt lat="42.66934318360644" lon="13.744957115153566"><ele>185.0</ele><time>2026-05-03T15:59:05.999Z</time></trkpt><trkpt lat="42.6692623581914" lon="13.744752076040745"><ele>185.0</ele><time>2026-05-03T15:59:06.999Z</time></trkpt><trkpt lat="42.66917296845419" lon="13.74454839347365"><ele>185.33333333333331</ele><time>2026-05-03T15:59:07.999Z</time></trkpt><trkpt lat="42.66907878209814" lon="13.74434591024719"><ele>185.66666666666666</ele><time>2026-05-03T15:59:08.999Z</time></trkpt><trkpt lat="42.66899096148456" lon="13.744129914477497"><ele>186.0</ele><time>2026-05-03T15:59:09.999Z</time></trkpt><trkpt lat="42.66890840393217" lon="13.74390669132244"><ele>186.0</ele><time>2026-05-03T15:59:10.999Z</time></trkpt><trkpt lat="42.66882638350634" lon="13.743686391506008"><ele>186.0</ele><time>2026-05-03T15:59:11.999Z</time></trkpt><trkpt lat="42.66874251264969" lon="13.743460042461496"><ele>186.0</ele><time>2026-05-03T15:59:12.999Z</time></trkpt><trkpt lat="42.66865709411535" lon="13.743228325044795"><ele>186.0</ele><time>2026-05-03T15:59:13.999Z</time></trkpt><trkpt lat="42.668575756917896" lon="13.742991482563445"><ele>186.0</ele><time>2026-05-03T15:59:14.999Z</time></trkpt><trkpt lat="42.66850373755987" lon="13.742749426625739"><ele>186.0</ele><time>2026-05-03T15:59:15.999Z</time></trkpt><trkpt lat="42.66843491861653" lon="13.742504462568293"><ele>187.0</ele><time>2026-05-03T15:59:16.999Z</time></trkpt><trkpt lat="42.668373024360676" lon="13.74225904091868"><ele>188.0</ele><time>2026-05-03T15:59:17.999Z</time></trkpt><trkpt lat="42.6683049597652" lon="13.742016212389963"><ele>189.0</ele><time>2026-05-03T15:59:18.999Z</time></trkpt><trkpt lat="42.66824708094062" lon="13.741801599128785"><ele>191.66666666666669</ele><time>2026-05-03T15:59:19.999Z</time></trkpt><trkpt lat="42.66819346015566" lon="13.74159468696155"><ele>194.33333333333334</ele><time>2026-05-03T15:59:20.999Z</time></trkpt><trkpt lat="42.66814353558147" lon="13.741382822887312"><ele>197.0</ele><time>2026-05-03T15:59:21.999Z</time></trkpt><trkpt lat="42.66809825680203" lon="13.741160195167339"><ele>198.33333333333334</ele><time>2026-05-03T15:59:22.999Z</time></trkpt><trkpt lat="42.668052710000715" lon="13.740946554541948"><ele>199.66666666666669</ele><time>2026-05-03T15:59:23.999Z</time></trkpt><trkpt lat="42.66800643982678" lon="13.74073703277234"><ele>201.0</ele><time>2026-05-03T15:59:24.999Z</time></trkpt><trkpt lat="42.667968898302426" lon="13.740526577109268"><ele>201.0</ele><time>2026-05-03T15:59:25.999Z</time></trkpt><trkpt lat="42.66793084968507" lon="13.740322052477106"><ele>201.0</ele><time>2026-05-03T15:59:26.999Z</time></trkpt><trkpt lat="42.66789131493324" lon="13.740106461766326"><ele>201.0</ele><time>2026-05-03T15:59:27.999Z</time></trkpt><trkpt lat="42.66785475543906" lon="13.739874637021124"><ele>202.33333333333331</ele><time>2026-05-03T15:59:28.999Z</time></trkpt><trkpt lat="42.6678165889759" lon="13.739639216422615"><ele>203.66666666666666</ele><time>2026-05-03T15:59:29.999Z</time></trkpt><trkpt lat="42.66779645336475" lon="13.739411552738394"><ele>205.0</ele><time>2026-05-03T15:59:30.999Z</time></trkpt><trkpt lat="42.66776956341831" lon="13.739175011398325"><ele>202.66666666666666</ele><time>2026-05-03T15:59:31.999Z</time></trkpt><trkpt lat="42.667750936777786" lon="13.738935492011235"><ele>200.33333333333331</ele><time>2026-05-03T15:59:32.999Z</time></trkpt><trkpt lat="42.667729217907464" lon="13.738692717434253"><ele>198.0</ele><time>2026-05-03T15:59:33.999Z</time></trkpt><trkpt lat="42.66770900111605" lon="13.738439603915362"><ele>198.0</ele><time>2026-05-03T15:59:34.999Z</time></trkpt><trkpt lat="42.66769727481796" lon="13.738189755400422"><ele>198.0</ele><time>2026-05-03T15:59:35.999Z</time></trkpt><trkpt lat="42.66768421263301" lon="13.73795661423437"><ele>198.0</ele><time>2026-05-03T15:59:36.999Z</time></trkpt><trkpt lat="42.66766783060809" lon="13.737734812222367"><ele>198.0</ele><time>2026-05-03T15:59:37.999Z</time></trkpt><trkpt lat="42.66766213174814" lon="13.737515008783197"><ele>198.0</ele><time>2026-05-03T15:59:38.999Z</time></trkpt><trkpt lat="42.66766198967167" lon="13.737293043384453"><ele>198.0</ele><time>2026-05-03T15:59:39.999Z</time></trkpt><trkpt lat="42.667674635908305" lon="13.737075044589869"><ele>199.66666666666669</ele><time>2026-05-03T15:59:40.999Z</time></trkpt><trkpt lat="42.66769114255036" lon="13.736859879066367"><ele>201.33333333333334</ele><time>2026-05-03T15:59:41.999Z</time></trkpt><trkpt lat="42.66770872028988" lon="13.736646298007548"><ele>203.0</ele><time>2026-05-03T15:59:42.999Z</time></trkpt><trkpt lat="42.667727791317716" lon="13.736423375186678"><ele>203.0</ele><time>2026-05-03T15:59:43.999Z</time></trkpt><trkpt lat="42.66774714810502" lon="13.736207116658669"><ele>203.0</ele><time>2026-05-03T15:59:44.999Z</time></trkpt><trkpt lat="42.667762946859774" lon="13.735990611243047"><ele>203.0</ele><time>2026-05-03T15:59:45.999Z</time></trkpt><trkpt lat="42.66777916502511" lon="13.735787213986358"><ele>206.0</ele><time>2026-05-03T15:59:46.998Z</time></trkpt><trkpt lat="42.667791142433984" lon="13.7355917537773"><ele>209.0</ele><time>2026-05-03T15:59:47.998Z</time></trkpt><trkpt lat="42.66780627644827" lon="13.735408717618178"><ele>212.0</ele><time>2026-05-03T15:59:48.998Z</time></trkpt><trkpt lat="42.6678202492011" lon="13.735232971038487"><ele>215.0</ele><time>2026-05-03T15:59:50Z</time></trkpt><trkpt lat="42.667836269623685" lon="13.735066336839111"><ele>215.5</ele><time>2026-05-03T15:59:51Z</time></trkpt><trkpt lat="42.667850400540246" lon="13.73489693466211"><ele>216.0</ele><time>2026-05-03T15:59:52Z</time></trkpt><trkpt lat="42.6678641778913" lon="13.734728206533324"><ele>216.5</ele><time>2026-05-03T15:59:53Z</time></trkpt><trkpt lat="42.667873272880314" lon="13.734556628840137"><ele>217.0</ele><time>2026-05-03T15:59:54Z</time></trkpt><trkpt lat="42.66787471783052" lon="13.734378578318987"><ele>217.0</ele><time>2026-05-03T15:59:55Z</time></trkpt><trkpt lat="42.66787274405214" lon="13.734191309404508"><ele>217.0</ele><time>2026-05-03T15:59:56Z</time></trkpt><trkpt lat="42.66786849079164" lon="13.733992435392391"><ele>217.0</ele><time>2026-05-03T15:59:57Z</time></trkpt><trkpt lat="42.66785826408455" lon="13.733790072371143"><ele>217.0</ele><time>2026-05-03T15:59:58Z</time></trkpt><trkpt lat="42.667845467162074" lon="13.733576393740638"><ele>215.66666666666666</ele><time>2026-05-03T15:59:59Z</time></trkpt><trkpt lat="42.6678297781082" lon="13.73336508178953"><ele>214.33333333333331</ele><time>2026-05-03T16:00:00Z</time></trkpt><trkpt lat="42.66780559662418" lon="13.733149666702912"><ele>213.0</ele><time>2026-05-03T16:00:01Z</time></trkpt><trkpt lat="42.66777614443165" lon="13.732949501437776"><ele>210.5</ele><time>2026-05-03T16:00:02Z</time></trkpt><trkpt lat="42.66774097642484" lon="13.732752723676837"><ele>208.0</ele><time>2026-05-03T16:00:03Z</time></trkpt><trkpt lat="42.66770472849622" lon="13.732564180605538"><ele>205.5</ele><time>2026-05-03T16:00:04Z</time></trkpt><trkpt lat="42.667669253388766" lon="13.732387281121692"><ele>203.0</ele><time>2026-05-03T16:00:05Z</time></trkpt><trkpt lat="42.66763657237595" lon="13.73222331034569"><ele>203.0</ele><time>2026-05-03T16:00:06Z</time></trkpt><trkpt lat="42.66761310976168" lon="13.732062524982556"><ele>203.0</ele><time>2026-05-03T16:00:07Z</time></trkpt><trkpt lat="42.66760983502596" lon="13.73190244366839"><ele>203.0</ele><time>2026-05-03T16:00:08Z</time></trkpt><trkpt lat="42.66762264223827" lon="13.73173268247208"><ele>203.0</ele><time>2026-05-03T16:00:09Z</time></trkpt><trkpt lat="42.66764779598969" lon="13.731564183079092"><ele>203.25</ele><time>2026-05-03T16:00:10Z</time></trkpt><trkpt lat="42.667680020036144" lon="13.731404050110301"><ele>203.5</ele><time>2026-05-03T16:00:11Z</time></trkpt><trkpt lat="42.6677201889086" lon="13.73125663482006"><ele>203.75</ele><time>2026-05-03T16:00:12Z</time></trkpt><trkpt lat="42.667772884089985" lon="13.731110358755004"><ele>204.0</ele><time>2026-05-03T16:00:13Z</time></trkpt><trkpt lat="42.6678388416029" lon="13.730961133041559"><ele>205.25</ele><time>2026-05-03T16:00:14Z</time></trkpt><trkpt lat="42.66791121224061" lon="13.730821148022315"><ele>206.5</ele><time>2026-05-03T16:00:15Z</time></trkpt><trkpt lat="42.66798287804066" lon="13.730687568696322"><ele>207.75</ele><time>2026-05-03T16:00:16Z</time></trkpt><trkpt lat="42.66805561492066" lon="13.730560998405348"><ele>209.0</ele><time>2026-05-03T16:00:17Z</time></trkpt><trkpt lat="42.66811588052626" lon="13.730426464848602"><ele>209.0</ele><time>2026-05-03T16:00:18Z</time></trkpt><trkpt lat="42.66822335148304" lon="13.730348211079297"><ele>209.0</ele><time>2026-05-03T16:00:19Z</time></trkpt><trkpt lat="42.66833698501785" lon="13.730279013781631"><ele>209.0</ele><time>2026-05-03T16:00:20Z</time></trkpt><trkpt lat="42.668470432864034" lon="13.73024074498777"><ele>209.0</ele><time>2026-05-03T16:00:21Z</time></trkpt><trkpt lat="42.66860585300324" lon="13.73022414641719"><ele>211.75</ele><time>2026-05-03T16:00:22Z</time></trkpt><trkpt lat="42.66874340820217" lon="13.730245798583375"><ele>214.5</ele><time>2026-05-03T16:00:23Z</time></trkpt><trkpt lat="42.66887430714815" lon="13.730292718688958"><ele>217.25</ele><time>2026-05-03T16:00:24Z</time></trkpt><trkpt lat="42.66900008065102" lon="13.730372185615872"><ele>220.0</ele><time>2026-05-03T16:00:25Z</time></trkpt><trkpt lat="42.6691163738387" lon="13.73047612568311"><ele>220.0</ele><time>2026-05-03T16:00:26Z</time></trkpt><trkpt lat="42.66922016735881" lon="13.730599212918408"><ele>220.0</ele><time>2026-05-03T16:00:27Z</time></trkpt><trkpt lat="42.66931622330523" lon="13.730722084782554"><ele>220.0</ele><time>2026-05-03T16:00:28Z</time></trkpt><trkpt lat="42.66941448158246" lon="13.730835358012124"><ele>220.0</ele><time>2026-05-03T16:00:29Z</time></trkpt><trkpt lat="42.66950255712307" lon="13.730935700284459"><ele>221.49999999999997</ele><time>2026-05-03T16:00:30Z</time></trkpt><trkpt lat="42.66957555505148" lon="13.731024209908394"><ele>223.0</ele><time>2026-05-03T16:00:31Z</time></trkpt><trkpt lat="42.66964273405754" lon="13.731104124937"><ele>224.5</ele><time>2026-05-03T16:00:32Z</time></trkpt><trkpt lat="42.66970691924736" lon="13.731171950519208"><ele>226.0</ele><time>2026-05-03T16:00:33Z</time></trkpt><trkpt lat="42.66976089321362" lon="13.731243141012524"><ele>227.49999999999997</ele><time>2026-05-03T16:00:34Z</time></trkpt><trkpt lat="42.669825076364255" lon="13.731284013416266"><ele>229.0</ele><time>2026-05-03T16:00:35Z</time></trkpt><trkpt lat="42.66988930070434" lon="13.731348156972299"><ele>229.0</ele><time>2026-05-03T16:00:36Z</time></trkpt><trkpt lat="42.66992310636386" lon="13.731467642927813"><ele>228.99999999999997</ele><time>2026-05-03T16:00:37Z</time></trkpt><trkpt lat="42.66997607076998" lon="13.731571029705568"><ele>228.99999999999997</ele><time>2026-05-03T16:00:38Z</time></trkpt><trkpt lat="42.670026105335054" lon="13.731689589935442"><ele>229.0</ele><time>2026-05-03T16:00:39Z</time></trkpt><trkpt lat="42.670082318862015" lon="13.731818887668961"><ele>229.0</ele><time>2026-05-03T16:00:39.999Z</time></trkpt><trkpt lat="42.67015355846766" lon="13.73195289643177"><ele>229.25</ele><time>2026-05-03T16:00:40.999Z</time></trkpt><trkpt lat="42.67023386536214" lon="13.732094998031998"><ele>229.5</ele><time>2026-05-03T16:00:41.999Z</time></trkpt><trkpt lat="42.67031964629427" lon="13.73225169501544"><ele>229.75</ele><time>2026-05-03T16:00:42.999Z</time></trkpt><trkpt lat="42.67040826742035" lon="13.73241644345327"><ele>230.0</ele><time>2026-05-03T16:00:43.999Z</time></trkpt><trkpt lat="42.67049873166627" lon="13.732588081026678"><ele>228.0</ele><time>2026-05-03T16:00:44.999Z</time></trkpt><trkpt lat="42.67058733295195" lon="13.732762325637395"><ele>226.0</ele><time>2026-05-03T16:00:45.999Z</time></trkpt><trkpt lat="42.670675450690034" lon="13.732937571603687"><ele>224.0</ele><time>2026-05-03T16:00:46.999Z</time></trkpt><trkpt lat="42.67076088631128" lon="13.733104165226388"><ele>224.0</ele><time>2026-05-03T16:00:47.999Z</time></trkpt><trkpt lat="42.6708406139053" lon="13.733258095778286"><ele>224.0</ele><time>2026-05-03T16:00:48.999Z</time></trkpt><trkpt lat="42.67091618457013" lon="13.73340668084568"><ele>224.0</ele><time>2026-05-03T16:00:49.999Z</time></trkpt><trkpt lat="42.670992714767166" lon="13.733566247328623"><ele>224.0</ele><time>2026-05-03T16:00:50.999Z</time></trkpt><trkpt lat="42.671069534141864" lon="13.73373391069508"><ele>225.25</ele><time>2026-05-03T16:00:51.999Z</time></trkpt><trkpt lat="42.671146718048625" lon="13.73389814957717"><ele>226.5</ele><time>2026-05-03T16:00:52.999Z</time></trkpt><trkpt lat="42.671223286566594" lon="13.734051974394996"><ele>227.75</ele><time>2026-05-03T16:00:53.999Z</time></trkpt><trkpt lat="42.671292832432584" lon="13.734207511988883"><ele>229.0</ele><time>2026-05-03T16:00:54.999Z</time></trkpt><trkpt lat="42.67134042527874" lon="13.734368610363621"><ele>227.0</ele><time>2026-05-03T16:00:55.999Z</time></trkpt><trkpt lat="42.67137791425217" lon="13.734540218100925"><ele>225.0</ele><time>2026-05-03T16:00:56.999Z</time></trkpt><trkpt lat="42.67139366996798" lon="13.734719122983524"><ele>223.0</ele><time>2026-05-03T16:00:57.999Z</time></trkpt><trkpt lat="42.67140119595663" lon="13.734900314711787"><ele>221.0</ele><time>2026-05-03T16:00:58.999Z</time></trkpt><trkpt lat="42.67140108333155" lon="13.735073029373195"><ele>220.4</ele><time>2026-05-03T16:00:59.999Z</time></trkpt><trkpt lat="42.67139068989849" lon="13.735238108383749"><ele>219.8</ele><time>2026-05-03T16:01:00.999Z</time></trkpt><trkpt lat="42.67136564592575" lon="13.73539187593217"><ele>219.20000000000002</ele><time>2026-05-03T16:01:01.999Z</time></trkpt><trkpt lat="42.671333824479305" lon="13.735534452468752"><ele>218.60000000000002</ele><time>2026-05-03T16:01:02.999Z</time></trkpt><trkpt lat="42.6713173802853" lon="13.735664000722885"><ele>218.0</ele><time>2026-05-03T16:01:03.999Z</time></trkpt><trkpt lat="42.67132964001441" lon="13.735784398718579"><ele>218.00000000000003</ele><time>2026-05-03T16:01:04.999Z</time></trkpt><trkpt lat="42.67136501672953" lon="13.735877054186302"><ele>218.0</ele><time>2026-05-03T16:01:05.999Z</time></trkpt><trkpt lat="42.671439801130305" lon="13.735978700620487"><ele>218.0</ele><time>2026-05-03T16:01:07.999Z</time></trkpt><trkpt lat="42.67149181753107" lon="13.736076523407396"><ele>218.0</ele><time>2026-05-03T16:01:09.999Z</time></trkpt><trkpt lat="42.67152352496684" lon="13.736152871269793"><ele>218.00000000000003</ele><time>2026-05-03T16:01:10.999Z</time></trkpt><trkpt lat="42.671557510294086" lon="13.736239755108507"><ele>218.0</ele><time>2026-05-03T16:01:11.999Z</time></trkpt><trkpt lat="42.671596333492005" lon="13.736331316569851"><ele>217.60000000000002</ele><time>2026-05-03T16:01:12.999Z</time></trkpt><trkpt lat="42.67163840288066" lon="13.736433045301093"><ele>217.20000000000002</ele><time>2026-05-03T16:01:13.999Z</time></trkpt><trkpt lat="42.67168236377795" lon="13.736545694729726"><ele>216.8</ele><time>2026-05-03T16:01:14.999Z</time></trkpt><trkpt lat="42.67172659286854" lon="13.736662780718534"><ele>216.4</ele><time>2026-05-03T16:01:15.999Z</time></trkpt><trkpt lat="42.671775706016774" lon="13.736789370119974"><ele>216.0</ele><time>2026-05-03T16:01:16.999Z</time></trkpt><trkpt lat="42.67182279632101" lon="13.736919630680946"><ele>216.0</ele><time>2026-05-03T16:01:17.999Z</time></trkpt><trkpt lat="42.67187205790784" lon="13.737055576670947"><ele>216.00000000000003</ele><time>2026-05-03T16:01:18.999Z</time></trkpt><trkpt lat="42.67192175019479" lon="13.73719384436823"><ele>216.00000000000003</ele><time>2026-05-03T16:01:19.999Z</time></trkpt><trkpt lat="42.67197070736824" lon="13.73732352701048"><ele>216.0</ele><time>2026-05-03T16:01:20.999Z</time></trkpt><trkpt lat="42.67201670390811" lon="13.73744813580609"><ele>216.0</ele><time>2026-05-03T16:01:21.999Z</time></trkpt><trkpt lat="42.67206061230911" lon="13.737563159795116"><ele>216.4</ele><time>2026-05-03T16:01:22.999Z</time></trkpt><trkpt lat="42.67210221570316" lon="13.737680329761874"><ele>216.8</ele><time>2026-05-03T16:01:23.999Z</time></trkpt><trkpt lat="42.67214399473828" lon="13.737791241036707"><ele>217.20000000000002</ele><time>2026-05-03T16:01:24.999Z</time></trkpt><trkpt lat="42.67218687272808" lon="13.737904706828003"><ele>217.60000000000002</ele><time>2026-05-03T16:01:25.999Z</time></trkpt><trkpt lat="42.6722286926384" lon="13.73802310243563"><ele>218.0</ele><time>2026-05-03T16:01:26.999Z</time></trkpt><trkpt lat="42.67227035026604" lon="13.738135693001182"><ele>218.00000000000003</ele><time>2026-05-03T16:01:27.999Z</time></trkpt><trkpt lat="42.67231097050175" lon="13.738243290157952"><ele>218.0</ele><time>2026-05-03T16:01:28.999Z</time></trkpt><trkpt lat="42.67235175944673" lon="13.738340684481255"><ele>218.0</ele><time>2026-05-03T16:01:29.999Z</time></trkpt><trkpt lat="42.67239376422851" lon="13.738433537933878"><ele>218.0</ele><time>2026-05-03T16:01:30.999Z</time></trkpt><trkpt lat="42.67243332316462" lon="13.738521512182974"><ele>218.00000000000003</ele><time>2026-05-03T16:01:31.999Z</time></trkpt><trkpt lat="42.67245854693947" lon="13.738604101287983"><ele>218.0</ele><time>2026-05-03T16:01:32.999Z</time></trkpt><trkpt lat="42.67248512841426" lon="13.738737646542681"><ele>218.00000000000003</ele><time>2026-05-03T16:01:34.999Z</time></trkpt><trkpt lat="42.672546592476856" lon="13.738782899090943"><ele>218.0</ele><time>2026-05-03T16:02:58.999Z</time></trkpt><trkpt lat="42.672607589098675" lon="13.738748967772887"><ele>218.0</ele><time>2026-05-03T16:03:01.999Z</time></trkpt><trkpt lat="42.67253595237123" lon="13.738766213115692"><ele>218.0</ele><time>2026-05-03T16:03:02.999Z</time></trkpt><trkpt lat="42.672522331410946" lon="13.738579259083258"><ele>218.00000000000003</ele><time>2026-05-03T16:03:04.999Z</time></trkpt><trkpt lat="42.67247730204972" lon="13.7384957905717"><ele>218.0</ele><time>2026-05-03T16:03:05.999Z</time></trkpt><trkpt lat="42.67243445205991" lon="13.738391622481098"><ele>218.0</ele><time>2026-05-03T16:03:06.999Z</time></trkpt><trkpt lat="42.672386799437454" lon="13.738278188106598"><ele>218.0</ele><time>2026-05-03T16:03:07.999Z</time></trkpt><trkpt lat="42.67233631274656" lon="13.738150764051724"><ele>218.0</ele><time>2026-05-03T16:03:08.999Z</time></trkpt><trkpt lat="42.6722810393051" lon="13.738013699209978"><ele>218.0</ele><time>2026-05-03T16:03:09.999Z</time></trkpt><trkpt lat="42.672225021889155" lon="13.737869292670002"><ele>218.0</ele><time>2026-05-03T16:03:10.999Z</time></trkpt><trkpt lat="42.67216617405965" lon="13.73771533204454"><ele>218.25</ele><time>2026-05-03T16:03:11.999Z</time></trkpt><trkpt lat="42.67210511533613" lon="13.737560527101019"><ele>218.5</ele><time>2026-05-03T16:03:12.999Z</time></trkpt><trkpt lat="42.67204615083539" lon="13.737403219155581"><ele>218.75</ele><time>2026-05-03T16:03:13.999Z</time></trkpt><trkpt lat="42.67199030562665" lon="13.737255215755471"><ele>219.0</ele><time>2026-05-03T16:03:14.999Z</time></trkpt><trkpt lat="42.67193997434141" lon="13.737114933956873"><ele>218.39999999999998</ele><time>2026-05-03T16:03:15.999Z</time></trkpt><trkpt lat="42.671889903747164" lon="13.736978813592081"><ele>217.79999999999998</ele><time>2026-05-03T16:03:16.999Z</time></trkpt><trkpt lat="42.671837652917716" lon="13.736849381273258"><ele>217.20000000000002</ele><time>2026-05-03T16:03:17.999Z</time></trkpt><trkpt lat="42.671791886883845" lon="13.736726716940343"><ele>216.60000000000002</ele><time>2026-05-03T16:03:18.999Z</time></trkpt><trkpt lat="42.67174917395603" lon="13.736610437550155"><ele>216.0</ele><time>2026-05-03T16:03:19.999Z</time></trkpt><trkpt lat="42.67170931426705" lon="13.736502368430077"><ele>216.0</ele><time>2026-05-03T16:03:20.999Z</time></trkpt><trkpt lat="42.67166866490366" lon="13.736394566111032"><ele>216.0</ele><time>2026-05-03T16:03:21.999Z</time></trkpt><trkpt lat="42.67163763630093" lon="13.736292620426358"><ele>216.0</ele><time>2026-05-03T16:03:22.999Z</time></trkpt><trkpt lat="42.67161440890664" lon="13.736191154203617"><ele>216.0</ele><time>2026-05-03T16:03:23.999Z</time></trkpt><trkpt lat="42.67161569216134" lon="13.736050675437504"><ele>216.0</ele><time>2026-05-03T16:03:25.999Z</time></trkpt><trkpt lat="42.671597145868134" lon="13.735938887451606"><ele>216.0</ele><time>2026-05-03T16:03:27.999Z</time></trkpt><trkpt lat="42.671613043529604" lon="13.735854523347852"><ele>216.4</ele><time>2026-05-03T16:03:28.999Z</time></trkpt><trkpt lat="42.671602321409736" lon="13.73574649740459"><ele>216.8</ele><time>2026-05-03T16:03:29.999Z</time></trkpt><trkpt lat="42.67159649458238" lon="13.735623392505993"><ele>217.20000000000002</ele><time>2026-05-03T16:03:30.999Z</time></trkpt><trkpt lat="42.67159295701598" lon="13.735491174390091"><ele>217.60000000000002</ele><time>2026-05-03T16:03:31.999Z</time></trkpt><trkpt lat="42.67158733520967" lon="13.735344242355527"><ele>218.0</ele><time>2026-05-03T16:03:32.999Z</time></trkpt><trkpt lat="42.67157755104482" lon="13.735186196639921"><ele>218.60000000000002</ele><time>2026-05-03T16:03:33.999Z</time></trkpt><trkpt lat="42.67158947252272" lon="13.73502828379688"><ele>219.20000000000002</ele><time>2026-05-03T16:03:34.999Z</time></trkpt><trkpt lat="42.67159098371024" lon="13.734880552229"><ele>219.8</ele><time>2026-05-03T16:03:35.999Z</time></trkpt><trkpt lat="42.671578362915" lon="13.734740838665369"><ele>220.4</ele><time>2026-05-03T16:03:36.999Z</time></trkpt><trkpt lat="42.67159293876856" lon="13.73462383382939"><ele>221.0</ele><time>2026-05-03T16:03:37.999Z</time></trkpt><trkpt lat="42.67162403957901" lon="13.73454123780342"><ele>221.00000000000003</ele><time>2026-05-03T16:03:38.999Z</time></trkpt><trkpt lat="42.671732402143334" lon="13.73444836357467"><ele>221.0</ele><time>2026-05-03T16:03:40.999Z</time></trkpt><trkpt lat="42.671805511824644" lon="13.734430422895814"><ele>221.0</ele><time>2026-05-03T16:03:41.999Z</time></trkpt><trkpt lat="42.67186711052634" lon="13.734404084021813"><ele>221.0</ele><time>2026-05-03T16:03:42.999Z</time></trkpt><trkpt lat="42.67192620489522" lon="13.734374353985759"><ele>221.00000000000003</ele><time>2026-05-03T16:03:43.999Z</time></trkpt><trkpt lat="42.6719415041203" lon="13.734263247418765"><ele>221.0</ele><time>2026-05-03T16:03:44.999Z</time></trkpt><trkpt lat="42.67189266929691" lon="13.734110647455513"><ele>222.60000000000002</ele><time>2026-05-03T16:03:46.999Z</time></trkpt><trkpt lat="42.671830104695424" lon="13.734036188661635"><ele>224.20000000000002</ele><time>2026-05-03T16:03:47.999Z</time></trkpt><trkpt lat="42.67176084581706" lon="13.733945411517192"><ele>225.79999999999998</ele><time>2026-05-03T16:03:48.999Z</time></trkpt><trkpt lat="42.67169391752195" lon="13.73381429407446"><ele>227.39999999999998</ele><time>2026-05-03T16:03:49.999Z</time></trkpt><trkpt lat="42.67161779193546" lon="13.733661449323577"><ele>229.0</ele><time>2026-05-03T16:03:50.999Z</time></trkpt><trkpt lat="42.67153053501706" lon="13.733488659483049"><ele>231.33333333333331</ele><time>2026-05-03T16:03:51.999Z</time></trkpt><trkpt lat="42.67143446423524" lon="13.733308437207647"><ele>233.66666666666669</ele><time>2026-05-03T16:03:52.999Z</time></trkpt><trkpt lat="42.67133603212248" lon="13.733138618377389"><ele>236.0</ele><time>2026-05-03T16:03:53.999Z</time></trkpt><trkpt lat="42.671236899644676" lon="13.732980954625466"><ele>236.0</ele><time>2026-05-03T16:03:54.999Z</time></trkpt><trkpt lat="42.671147654129896" lon="13.732833795588503"><ele>236.0</ele><time>2026-05-03T16:03:55.999Z</time></trkpt><trkpt lat="42.6710425968598" lon="13.73265534572574"><ele>236.0</ele><time>2026-05-03T16:03:57.999Z</time></trkpt><trkpt lat="42.67096780381742" lon="13.732522211725193"><ele>236.0</ele><time>2026-05-03T16:03:58.999Z</time></trkpt><trkpt lat="42.67089174787282" lon="13.73238326462591"><ele>236.75</ele><time>2026-05-03T16:03:59.999Z</time></trkpt><trkpt lat="42.670814052966975" lon="13.732243282890774"><ele>237.5</ele><time>2026-05-03T16:04:00.999Z</time></trkpt><trkpt lat="42.670737177275676" lon="13.732097615143784"><ele>238.25</ele><time>2026-05-03T16:04:02Z</time></trkpt><trkpt lat="42.67066083507781" lon="13.731943647993338"><ele>239.0</ele><time>2026-05-03T16:04:03Z</time></trkpt><trkpt lat="42.67058099483658" lon="13.731793226268405"><ele>239.0</ele><time>2026-05-03T16:04:04Z</time></trkpt><trkpt lat="42.67049278927618" lon="13.731644930481895"><ele>239.0</ele><time>2026-05-03T16:04:05Z</time></trkpt><trkpt lat="42.67040695612234" lon="13.73149310372883"><ele>239.0</ele><time>2026-05-03T16:04:06Z</time></trkpt><trkpt lat="42.670315932902334" lon="13.731343554657263"><ele>239.0</ele><time>2026-05-03T16:04:07Z</time></trkpt><trkpt lat="42.670225596729" lon="13.731187701398321"><ele>238.0</ele><time>2026-05-03T16:04:08Z</time></trkpt><trkpt lat="42.67013604447838" lon="13.731032877556883"><ele>237.0</ele><time>2026-05-03T16:04:09Z</time></trkpt><trkpt lat="42.670045075873055" lon="13.730887178600712"><ele>236.0</ele><time>2026-05-03T16:04:10Z</time></trkpt><trkpt lat="42.66995630572057" lon="13.730741890799745"><ele>235.0</ele><time>2026-05-03T16:04:11Z</time></trkpt><trkpt lat="42.669874836362695" lon="13.730602314064354"><ele>235.0</ele><time>2026-05-03T16:04:12Z</time></trkpt><trkpt lat="42.669799797830116" lon="13.730476092415094"><ele>235.0</ele><time>2026-05-03T16:04:13Z</time></trkpt><trkpt lat="42.66974376015464" lon="13.730372821575166"><ele>235.0</ele><time>2026-05-03T16:04:14Z</time></trkpt><trkpt lat="42.669711584519916" lon="13.730294832739553"><ele>235.0</ele><time>2026-05-03T16:04:15Z</time></trkpt><trkpt lat="42.66968914726693" lon="13.730149479587787"><ele>235.0</ele><time>2026-05-03T16:04:17Z</time></trkpt><trkpt lat="42.66968622101179" lon="13.729987340298006"><ele>236.4</ele><time>2026-05-03T16:04:19Z</time></trkpt><trkpt lat="42.66966599991397" lon="13.729842312193881"><ele>237.8</ele><time>2026-05-03T16:04:21Z</time></trkpt><trkpt lat="42.66964989585271" lon="13.729712549210188"><ele>239.2</ele><time>2026-05-03T16:04:23Z</time></trkpt><trkpt lat="42.66970228454257" lon="13.729632479361369"><ele>240.6</ele><time>2026-05-03T16:04:25Z</time></trkpt><trkpt lat="42.66977800584447" lon="13.72968683746142"><ele>242.0</ele><time>2026-05-03T16:04:27Z</time></trkpt><trkpt lat="42.66980075587452" lon="13.72982882664707"><ele>242.00000000000003</ele><time>2026-05-03T16:04:29Z</time></trkpt><trkpt lat="42.669794119443864" lon="13.72992013399942"><ele>242.0</ele><time>2026-05-03T16:04:30Z</time></trkpt><trkpt lat="42.66978924740401" lon="13.730025727981962"><ele>242.0</ele><time>2026-05-03T16:04:31Z</time></trkpt><trkpt lat="42.66979829413159" lon="13.730134692901515"><ele>242.0</ele><time>2026-05-03T16:04:32Z</time></trkpt><trkpt lat="42.6698238941733" lon="13.730254477732602"><ele>242.00000000000003</ele><time>2026-05-03T16:04:33Z</time></trkpt><trkpt lat="42.66986081740688" lon="13.73037762522653"><ele>242.0</ele><time>2026-05-03T16:04:34Z</time></trkpt><trkpt lat="42.66992289411337" lon="13.730488942813496"><ele>240.6</ele><time>2026-05-03T16:04:35Z</time></trkpt><trkpt lat="42.66999771502254" lon="13.730587468465108"><ele>239.2</ele><time>2026-05-03T16:04:36Z</time></trkpt><trkpt lat="42.670081609215735" lon="13.73067833194624"><ele>237.8</ele><time>2026-05-03T16:04:37Z</time></trkpt><trkpt lat="42.670168380395566" lon="13.730763316131254"><ele>236.4</ele><time>2026-05-03T16:04:38Z</time></trkpt><trkpt lat="42.670257547954954" lon="13.730851402520784"><ele>235.0</ele><time>2026-05-03T16:04:39Z</time></trkpt><trkpt lat="42.6703473106878" lon="13.730941400452494"><ele>236.0</ele><time>2026-05-03T16:04:40Z</time></trkpt><trkpt lat="42.67043386169087" lon="13.731040811275525"><ele>237.0</ele><time>2026-05-03T16:04:41Z</time></trkpt><trkpt lat="42.67052283642999" lon="13.731141777526982"><ele>238.0</ele><time>2026-05-03T16:04:42Z</time></trkpt><trkpt lat="42.67061185105382" lon="13.73124170756109"><ele>239.0</ele><time>2026-05-03T16:04:43Z</time></trkpt><trkpt lat="42.67070552805236" lon="13.73133917753374"><ele>239.0</ele><time>2026-05-03T16:04:44Z</time></trkpt><trkpt lat="42.67079207762335" lon="13.731444218601835"><ele>239.0</ele><time>2026-05-03T16:04:45Z</time></trkpt><trkpt lat="42.670874389263155" lon="13.731557150340484"><ele>239.0</ele><time>2026-05-03T16:04:46Z</time></trkpt><trkpt lat="42.670946801890764" lon="13.731678874608777"><ele>239.0</ele><time>2026-05-03T16:04:47Z</time></trkpt><trkpt lat="42.67102016600537" lon="13.731795451938487"><ele>239.79999999999998</ele><time>2026-05-03T16:04:48Z</time></trkpt><trkpt lat="42.67109632522992" lon="13.731907466731228"><ele>240.59999999999997</ele><time>2026-05-03T16:04:49Z</time></trkpt><trkpt lat="42.67118040145783" lon="13.732002841453038"><ele>241.4</ele><time>2026-05-03T16:04:50Z</time></trkpt><trkpt lat="42.67126879061433" lon="13.732079241415018"><ele>242.2</ele><time>2026-05-03T16:04:51Z</time></trkpt><trkpt lat="42.671355430105635" lon="13.732142245719105"><ele>243.0</ele><time>2026-05-03T16:04:52Z</time></trkpt><trkpt lat="42.67144167027512" lon="13.732202814255798"><ele>243.0</ele><time>2026-05-03T16:04:53Z</time></trkpt><trkpt lat="42.67152298127359" lon="13.732266460821666"><ele>243.0</ele><time>2026-05-03T16:04:53.999Z</time></trkpt><trkpt lat="42.671600976107555" lon="13.732327568323036"><ele>243.0</ele><time>2026-05-03T16:04:54.999Z</time></trkpt><trkpt lat="42.67166238075127" lon="13.732388355725647"><ele>243.0</ele><time>2026-05-03T16:04:55.999Z</time></trkpt><trkpt lat="42.671715243542444" lon="13.73244672450532"><ele>243.0</ele><time>2026-05-03T16:04:56.999Z</time></trkpt><trkpt lat="42.67176326961871" lon="13.732515078816846"><ele>243.0</ele><time>2026-05-03T16:04:57.999Z</time></trkpt><trkpt lat="42.67180148772738" lon="13.732606488159291"><ele>243.0</ele><time>2026-05-03T16:04:58.999Z</time></trkpt><trkpt lat="42.67183884031887" lon="13.732706562402965"><ele>243.0</ele><time>2026-05-03T16:04:59.999Z</time></trkpt><trkpt lat="42.67187685338848" lon="13.732815169175888"><ele>243.0</ele><time>2026-05-03T16:05:00.999Z</time></trkpt><trkpt lat="42.67191734619966" lon="13.732933414103638"><ele>243.0</ele><time>2026-05-03T16:05:01.999Z</time></trkpt><trkpt lat="42.671962261386795" lon="13.733057130009417"><ele>243.0</ele><time>2026-05-03T16:05:02.999Z</time></trkpt><trkpt lat="42.67198796193744" lon="13.733195006982898"><ele>245.0</ele><time>2026-05-03T16:05:03.999Z</time></trkpt><trkpt lat="42.67204969408047" lon="13.733320132876775"><ele>247.0</ele><time>2026-05-03T16:05:04.999Z</time></trkpt><trkpt lat="42.672090082232124" lon="13.733462707329059"><ele>249.0</ele><time>2026-05-03T16:05:05.999Z</time></trkpt><trkpt lat="42.67214871533548" lon="13.73360053432068"><ele>251.0</ele><time>2026-05-03T16:05:06.999Z</time></trkpt><trkpt lat="42.67220088782675" lon="13.73374389377595"><ele>251.0</ele><time>2026-05-03T16:05:07.999Z</time></trkpt><trkpt lat="42.67225902162863" lon="13.733881149956025"><ele>251.0</ele><time>2026-05-03T16:05:08.999Z</time></trkpt><trkpt lat="42.672313255847044" lon="13.734017832510942"><ele>251.0</ele><time>2026-05-03T16:05:09.999Z</time></trkpt><trkpt lat="42.67239629343968" lon="13.734136529447765"><ele>251.0</ele><time>2026-05-03T16:05:10.999Z</time></trkpt><trkpt lat="42.67248309220793" lon="13.734252408207952"><ele>251.0</ele><time>2026-05-03T16:05:11.999Z</time></trkpt><trkpt lat="42.67257329950341" lon="13.734367024428572"><ele>251.0</ele><time>2026-05-03T16:05:12.999Z</time></trkpt><trkpt lat="42.67266936973448" lon="13.73447457005299"><ele>251.0</ele><time>2026-05-03T16:05:13.999Z</time></trkpt><trkpt lat="42.672765715515354" lon="13.734574553970463"><ele>251.0</ele><time>2026-05-03T16:05:14.999Z</time></trkpt><trkpt lat="42.67285595574378" lon="13.734669707812484"><ele>249.5</ele><time>2026-05-03T16:05:15.999Z</time></trkpt><trkpt lat="42.67295001232387" lon="13.73476766972841"><ele>248.0</ele><time>2026-05-03T16:05:16.999Z</time></trkpt><trkpt lat="42.67304540658365" lon="13.734869361009626"><ele>246.5</ele><time>2026-05-03T16:05:17.999Z</time></trkpt><trkpt lat="42.673145816548534" lon="13.734963108738496"><ele>245.0</ele><time>2026-05-03T16:05:18.999Z</time></trkpt><trkpt lat="42.673251433020134" lon="13.735050478604308"><ele>245.0</ele><time>2026-05-03T16:05:19.999Z</time></trkpt><trkpt lat="42.673363579839624" lon="13.735114216029492"><ele>245.0</ele><time>2026-05-03T16:05:20.999Z</time></trkpt><trkpt lat="42.673475762005054" lon="13.735154292669828"><ele>245.0</ele><time>2026-05-03T16:05:21.999Z</time></trkpt><trkpt lat="42.6735829640948" lon="13.7351773729449"><ele>245.0</ele><time>2026-05-03T16:05:22.999Z</time></trkpt><trkpt lat="42.673688931727035" lon="13.73519459234165"><ele>244.2</ele><time>2026-05-03T16:05:23.999Z</time></trkpt><trkpt lat="42.67378256863689" lon="13.735203201990963"><ele>243.4</ele><time>2026-05-03T16:05:24.999Z</time></trkpt><trkpt lat="42.67387601610287" lon="13.735203750160247"><ele>242.60000000000002</ele><time>2026-05-03T16:05:25.999Z</time></trkpt><trkpt lat="42.67396567689137" lon="13.735203132205326"><ele>241.8</ele><time>2026-05-03T16:05:26.999Z</time></trkpt><trkpt lat="42.67405705916225" lon="13.73520566883761"><ele>241.0</ele><time>2026-05-03T16:05:27.999Z</time></trkpt><trkpt lat="42.67414389912001" lon="13.735222404037804"><ele>240.16666666666666</ele><time>2026-05-03T16:05:28.999Z</time></trkpt><trkpt lat="42.67422718430319" lon="13.735261623054598"><ele>239.33333333333331</ele><time>2026-05-03T16:05:29.999Z</time></trkpt><trkpt lat="42.67430048028123" lon="13.73532880902678"><ele>238.5</ele><time>2026-05-03T16:05:30.999Z</time></trkpt><trkpt lat="42.67436863691853" lon="13.7354185440878"><ele>237.66666666666669</ele><time>2026-05-03T16:05:31.999Z</time></trkpt><trkpt lat="42.67442294866487" lon="13.735514666223454"><ele>236.83333333333334</ele><time>2026-05-03T16:05:32.999Z</time></trkpt><trkpt lat="42.67445715888093" lon="13.735607018751265"><ele>236.0</ele><time>2026-05-03T16:05:33.999Z</time></trkpt><trkpt lat="42.67449375326032" lon="13.73575463492192"><ele>235.0</ele><time>2026-05-03T16:05:35.999Z</time></trkpt><trkpt lat="42.674535658167066" lon="13.735879055241448"><ele>234.00000000000003</ele><time>2026-05-03T16:05:37.999Z</time></trkpt><trkpt lat="42.67446356675202" lon="13.736065937438475"><ele>233.00000000000003</ele><time>2026-05-03T16:05:39.999Z</time></trkpt><trkpt lat="42.674429631885005" lon="13.736146018030427"><ele>232.0</ele><time>2026-05-03T16:05:40.999Z</time></trkpt><trkpt lat="42.67439335063992" lon="13.73624018221115"><ele>231.0</ele><time>2026-05-03T16:05:41.999Z</time></trkpt><trkpt lat="42.67439917747216" lon="13.736342445460028"><ele>231.0</ele><time>2026-05-03T16:05:42.999Z</time></trkpt><trkpt lat="42.67438802184444" lon="13.736433227165309"><ele>231.0</ele><time>2026-05-03T16:05:43.999Z</time></trkpt><trkpt lat="42.67431465877487" lon="13.736556364630035"><ele>231.0</ele><time>2026-05-03T16:05:45.999Z</time></trkpt><trkpt lat="42.67425839811683" lon="13.736600310065153"><ele>231.0</ele><time>2026-05-03T16:05:46.999Z</time></trkpt><trkpt lat="42.674201656733054" lon="13.736644708109047"><ele>231.0</ele><time>2026-05-03T16:05:47.999Z</time></trkpt><trkpt lat="42.674145984851286" lon="13.736691234469234"><ele>231.0</ele><time>2026-05-03T16:05:48.999Z</time></trkpt><trkpt lat="42.674099165811114" lon="13.736749549139002"><ele>231.0</ele><time>2026-05-03T16:05:49.999Z</time></trkpt><trkpt lat="42.6740159517223" lon="13.736845084171735"><ele>230.66666666666666</ele><time>2026-05-03T16:05:51.999Z</time></trkpt><trkpt lat="42.67395959204904" lon="13.73688623621826"><ele>230.33333333333331</ele><time>2026-05-03T16:05:53.999Z</time></trkpt><trkpt lat="42.6738860701185" lon="13.73696565313645"><ele>230.0</ele><time>2026-05-03T16:09:03.999Z</time></trkpt><trkpt lat="42.67379788932157" lon="13.737044469960184"><ele>229.66666666666666</ele><time>2026-05-03T16:09:05.999Z</time></trkpt><trkpt lat="42.67372691036813" lon="13.73707876360355"><ele>229.33333333333331</ele><time>2026-05-03T16:09:07.999Z</time></trkpt><trkpt lat="42.673657591844844" lon="13.736966088695395"><ele>229.0</ele><time>2026-05-03T16:09:08.999Z</time></trkpt><trkpt lat="42.67360437536745" lon="13.73686620660717"><ele>228.5</ele><time>2026-05-03T16:09:09.999Z</time></trkpt><trkpt lat="42.67353599503451" lon="13.736745374552891"><ele>228.0</ele><time>2026-05-03T16:09:10.999Z</time></trkpt><trkpt lat="42.673454868024415" lon="13.736607479415321"><ele>227.5</ele><time>2026-05-03T16:09:11.999Z</time></trkpt><trkpt lat="42.67335999542898" lon="13.736453988227932"><ele>227.0</ele><time>2026-05-03T16:09:12.999Z</time></trkpt><trkpt lat="42.67326131750096" lon="13.736297340627267"><ele>227.0</ele><time>2026-05-03T16:09:13.999Z</time></trkpt><trkpt lat="42.673161482185414" lon="13.736142854164004"><ele>227.0</ele><time>2026-05-03T16:09:14.999Z</time></trkpt><trkpt lat="42.67306647372344" lon="13.736001585324443"><ele>227.0</ele><time>2026-05-03T16:09:15.999Z</time></trkpt><trkpt lat="42.67298092543219" lon="13.735873237924935"><ele>227.0</ele><time>2026-05-03T16:09:16.999Z</time></trkpt><trkpt lat="42.67290422568088" lon="13.73574502407439"><ele>226.8</ele><time>2026-05-03T16:09:17.999Z</time></trkpt><trkpt lat="42.672847662857166" lon="13.735617322936884"><ele>226.6</ele><time>2026-05-03T16:09:18.999Z</time></trkpt><trkpt lat="42.67279886254887" lon="13.735495711980079"><ele>226.40000000000003</ele><time>2026-05-03T16:09:19.999Z</time></trkpt><trkpt lat="42.67271933886892" lon="13.735398697462385"><ele>226.20000000000002</ele><time>2026-05-03T16:09:20.999Z</time></trkpt><trkpt lat="42.672635306688875" lon="13.735293901832916"><ele>226.0</ele><time>2026-05-03T16:09:21.999Z</time></trkpt><trkpt lat="42.67252464315247" lon="13.735161629388136"><ele>228.33333333333331</ele><time>2026-05-03T16:09:22.999Z</time></trkpt><trkpt lat="42.672410280041596" lon="13.735015766500064"><ele>230.66666666666669</ele><time>2026-05-03T16:09:23.999Z</time></trkpt><trkpt lat="42.672303500146015" lon="13.734839289212584"><ele>233.0</ele><time>2026-05-03T16:09:24.999Z</time></trkpt><trkpt lat="42.672191827207826" lon="13.734642428616288"><ele>233.0</ele><time>2026-05-03T16:09:25.999Z</time></trkpt><trkpt lat="42.67207415856186" lon="13.734441113106586"><ele>233.0</ele><time>2026-05-03T16:09:26.999Z</time></trkpt><trkpt lat="42.67198736372872" lon="13.734217106821681"><ele>233.0</ele><time>2026-05-03T16:09:27.999Z</time></trkpt><trkpt lat="42.6718753372968" lon="13.734022986609915"><ele>234.0</ele><time>2026-05-03T16:09:28.999Z</time></trkpt><trkpt lat="42.671765756918894" lon="13.733830971170981"><ele>235.0</ele><time>2026-05-03T16:09:29.999Z</time></trkpt><trkpt lat="42.67165472178148" lon="13.73363731731298"><ele>236.0</ele><time>2026-05-03T16:09:30.999Z</time></trkpt><trkpt lat="42.67154603999419" lon="13.7334420548855"><ele>236.0</ele><time>2026-05-03T16:09:31.999Z</time></trkpt><trkpt lat="42.67144067838001" lon="13.733255054875777"><ele>236.0</ele><time>2026-05-03T16:09:32.999Z</time></trkpt><trkpt lat="42.67134311874352" lon="13.733078380055792"><ele>236.0</ele><time>2026-05-03T16:09:33.999Z</time></trkpt><trkpt lat="42.67124724321994" lon="13.73290472188932"><ele>236.0</ele><time>2026-05-03T16:09:34.999Z</time></trkpt><trkpt lat="42.671151682928866" lon="13.73273448680351"><ele>236.0</ele><time>2026-05-03T16:09:35.999Z</time></trkpt><trkpt lat="42.671057861161394" lon="13.732574370918716"><ele>236.0</ele><time>2026-05-03T16:09:36.999Z</time></trkpt><trkpt lat="42.670970215387435" lon="13.73243076344622"><ele>236.0</ele><time>2026-05-03T16:09:37.999Z</time></trkpt><trkpt lat="42.670883763434546" lon="13.732297050794523"><ele>236.75</ele><time>2026-05-03T16:09:38.999Z</time></trkpt><trkpt lat="42.67079375145596" lon="13.732157178298282"><ele>237.5</ele><time>2026-05-03T16:09:39.999Z</time></trkpt><trkpt lat="42.6707019622375" lon="13.732009232215407"><ele>238.25</ele><time>2026-05-03T16:09:40.999Z</time></trkpt><trkpt lat="42.670605681030985" lon="13.731854820058437"><ele>239.0</ele><time>2026-05-03T16:09:41.999Z</time></trkpt><trkpt lat="42.670507233162304" lon="13.731691396787788"><ele>239.0</ele><time>2026-05-03T16:09:42.999Z</time></trkpt><trkpt lat="42.670404328195545" lon="13.731521880995516"><ele>239.0</ele><time>2026-05-03T16:09:43.999Z</time></trkpt><trkpt lat="42.67030176228441" lon="13.731350541297525"><ele>239.0</ele><time>2026-05-03T16:09:44.999Z</time></trkpt><trkpt lat="42.67019885315817" lon="13.731181403194011"><ele>238.0</ele><time>2026-05-03T16:09:45.999Z</time></trkpt><trkpt lat="42.67010048985623" lon="13.731018817319956"><ele>237.0</ele><time>2026-05-03T16:09:46.999Z</time></trkpt><trkpt lat="42.67000920760046" lon="13.730862673089588"><ele>236.0</ele><time>2026-05-03T16:09:47.999Z</time></trkpt><trkpt lat="42.66992650921495" lon="13.730719207232463"><ele>235.0</ele><time>2026-05-03T16:09:48.999Z</time></trkpt><trkpt lat="42.66985504437448" lon="13.730589780510952"><ele>234.99999999999997</ele><time>2026-05-03T16:09:49.999Z</time></trkpt><trkpt lat="42.66979841585991" lon="13.730481574467465"><ele>235.0</ele><time>2026-05-03T16:09:50.999Z</time></trkpt><trkpt lat="42.66975340422771" lon="13.730390350044878"><ele>235.0</ele><time>2026-05-03T16:09:51.999Z</time></trkpt><trkpt lat="42.669714085256025" lon="13.730275695114578"><ele>235.0</ele><time>2026-05-03T16:09:53.999Z</time></trkpt><trkpt lat="42.66969983049558" lon="13.730178845603723"><ele>234.99999999999997</ele><time>2026-05-03T16:09:56.999Z</time></trkpt><trkpt lat="42.669692178932586" lon="13.730040351166977"><ele>235.0</ele><time>2026-05-03T16:10:03.999Z</time></trkpt><trkpt lat="42.669627891242335" lon="13.729932833663682"><ele>236.16666666666666</ele><time>2026-05-03T16:10:05.999Z</time></trkpt><trkpt lat="42.669566069466946" lon="13.729912333580337"><ele>237.33333333333331</ele><time>2026-05-03T16:10:06.999Z</time></trkpt><trkpt lat="42.66949890906128" lon="13.729900919605527"><ele>238.5</ele><time>2026-05-03T16:10:07.999Z</time></trkpt><trkpt lat="42.669439182874406" lon="13.729864567939504"><ele>239.66666666666669</ele><time>2026-05-03T16:10:08.999Z</time></trkpt><trkpt lat="42.669381146137134" lon="13.729797036204998"><ele>240.83333333333334</ele><time>2026-05-03T16:10:09.999Z</time></trkpt><trkpt lat="42.669327409873134" lon="13.729703327176425"><ele>242.0</ele><time>2026-05-03T16:10:10.999Z</time></trkpt><trkpt lat="42.66926947559203" lon="13.72959584023976"><ele>237.75</ele><time>2026-05-03T16:10:11.999Z</time></trkpt><trkpt lat="42.66920448694909" lon="13.729471533176268"><ele>233.5</ele><time>2026-05-03T16:10:12.999Z</time></trkpt><trkpt lat="42.66913712755389" lon="13.72932800511353"><ele>229.25</ele><time>2026-05-03T16:10:13.999Z</time></trkpt><trkpt lat="42.6690697609472" lon="13.729175938857853"><ele>225.0</ele><time>2026-05-03T16:10:14.999Z</time></trkpt><trkpt lat="42.66900123796003" lon="13.7290178116296"><ele>225.0</ele><time>2026-05-03T16:10:15.998Z</time></trkpt><trkpt lat="42.6689356339614" lon="13.728853027999309"><ele>225.0</ele><time>2026-05-03T16:10:16.998Z</time></trkpt><trkpt lat="42.66887000807055" lon="13.728684917472409"><ele>225.0</ele><time>2026-05-03T16:10:17.998Z</time></trkpt><trkpt lat="42.6688072475026" lon="13.728522693030536"><ele>225.0</ele><time>2026-05-03T16:10:18.998Z</time></trkpt><trkpt lat="42.6687565899494" lon="13.728360455116617"><ele>225.5</ele><time>2026-05-03T16:10:19.999Z</time></trkpt><trkpt lat="42.66871302635805" lon="13.728192013445724"><ele>226.0</ele><time>2026-05-03T16:10:20.999Z</time></trkpt><trkpt lat="42.66867229989699" lon="13.72802440814381"><ele>226.5</ele><time>2026-05-03T16:10:21.999Z</time></trkpt><trkpt lat="42.668632890157056" lon="13.727856047642026"><ele>227.0</ele><time>2026-05-03T16:10:22.999Z</time></trkpt><trkpt lat="42.66860421106779" lon="13.727687109099199"><ele>226.75</ele><time>2026-05-03T16:10:23.999Z</time></trkpt><trkpt lat="42.66859681061086" lon="13.727515767493305"><ele>226.5</ele><time>2026-05-03T16:10:24.999Z</time></trkpt><trkpt lat="42.66860516992313" lon="13.727342560901468"><ele>226.25</ele><time>2026-05-03T16:10:25.999Z</time></trkpt><trkpt lat="42.668628861344686" lon="13.727172333357567"><ele>226.0</ele><time>2026-05-03T16:10:26.999Z</time></trkpt><trkpt lat="42.66866553324003" lon="13.72700513281163"><ele>225.25</ele><time>2026-05-03T16:10:27.999Z</time></trkpt><trkpt lat="42.668716465492416" lon="13.726842834542321"><ele>224.5</ele><time>2026-05-03T16:10:28.999Z</time></trkpt><trkpt lat="42.66877698290472" lon="13.726689230008763"><ele>223.75</ele><time>2026-05-03T16:10:29.999Z</time></trkpt><trkpt lat="42.66885109823967" lon="13.726548973435678"><ele>223.0</ele><time>2026-05-03T16:10:30.999Z</time></trkpt><trkpt lat="42.668938059895645" lon="13.726428716700935"><ele>223.0</ele><time>2026-05-03T16:10:31.999Z</time></trkpt><trkpt lat="42.66903789376852" lon="13.726334137595734"><ele>223.0</ele><time>2026-05-03T16:10:32.999Z</time></trkpt><trkpt lat="42.66914546416002" lon="13.726266863351796"><ele>223.0</ele><time>2026-05-03T16:10:34Z</time></trkpt><trkpt lat="42.669255926780764" lon="13.726222307120658"><ele>223.0</ele><time>2026-05-03T16:10:35Z</time></trkpt><trkpt lat="42.66937377881648" lon="13.726206350507596"><ele>224.5</ele><time>2026-05-03T16:10:36Z</time></trkpt><trkpt lat="42.66949654099892" lon="13.726217797203654"><ele>226.0</ele><time>2026-05-03T16:10:37Z</time></trkpt><trkpt lat="42.66961653382314" lon="13.726253390338199"><ele>227.5</ele><time>2026-05-03T16:10:38Z</time></trkpt><trkpt lat="42.66972666394896" lon="13.726315088843341"><ele>229.0</ele><time>2026-05-03T16:10:39Z</time></trkpt><trkpt lat="42.66982838645104" lon="13.72640386390916"><ele>229.0</ele><time>2026-05-03T16:10:40Z</time></trkpt><trkpt lat="42.669923928101284" lon="13.726524170320975"><ele>229.0</ele><time>2026-05-03T16:10:41Z</time></trkpt><trkpt lat="42.6700027501233" lon="13.72666918561619"><ele>229.0</ele><time>2026-05-03T16:10:42Z</time></trkpt><trkpt lat="42.67006550720182" lon="13.72683768860356"><ele>229.0</ele><time>2026-05-03T16:10:43Z</time></trkpt><trkpt lat="42.670114784342495" lon="13.72701836967368"><ele>233.5</ele><time>2026-05-03T16:10:44Z</time></trkpt><trkpt lat="42.67013749793197" lon="13.727198367250743"><ele>238.0</ele><time>2026-05-03T16:10:45Z</time></trkpt><trkpt lat="42.670160540495246" lon="13.727376745295807"><ele>242.5</ele><time>2026-05-03T16:10:46Z</time></trkpt><trkpt lat="42.67018122895447" lon="13.727556630341892"><ele>247.0</ele><time>2026-05-03T16:10:47.023Z</time></trkpt><trkpt lat="42.67017878857364" lon="13.727728863534571"><ele>248.25</ele><time>2026-05-03T16:10:48.012Z</time></trkpt><trkpt lat="42.67016386028524" lon="13.727892055652953"><ele>249.5</ele><time>2026-05-03T16:10:49.014Z</time></trkpt><trkpt lat="42.670141135048695" lon="13.728048199805285"><ele>250.75</ele><time>2026-05-03T16:10:50.015Z</time></trkpt><trkpt lat="42.67011090060492" lon="13.728196097720724"><ele>252.0</ele><time>2026-05-03T16:10:51.015Z</time></trkpt><trkpt lat="42.669354574794575" lon="13.729190519092352"><ele>245.25</ele><time>2026-05-03T16:10:56.999Z</time></trkpt><trkpt lat="42.66922678716984" lon="13.729284447691505"><ele>238.5</ele><time>2026-05-03T16:10:57.999Z</time></trkpt><trkpt lat="42.66911355612771" lon="13.729394305477872"><ele>231.75</ele><time>2026-05-03T16:10:58.999Z</time></trkpt><trkpt lat="42.66897453670368" lon="13.729481320167794"><ele>225.0</ele><time>2026-05-03T16:10:59.999Z</time></trkpt><trkpt lat="42.66884261301665" lon="13.729572661703592"><ele>224.5</ele><time>2026-05-03T16:11:00.999Z</time></trkpt><trkpt lat="42.668710979093724" lon="13.729663748342658"><ele>224.0</ele><time>2026-05-03T16:11:01.999Z</time></trkpt><trkpt lat="42.66857829257158" lon="13.729747602789969"><ele>223.5</ele><time>2026-05-03T16:11:02.999Z</time></trkpt><trkpt lat="42.66843950741413" lon="13.729839337212708"><ele>223.0</ele><time>2026-05-03T16:11:03.999Z</time></trkpt><trkpt lat="42.668301248728696" lon="13.729924238830831"><ele>219.33333333333331</ele><time>2026-05-03T16:11:04.999Z</time></trkpt><trkpt lat="42.668159228538684" lon="13.730021958173783"><ele>215.66666666666669</ele><time>2026-05-03T16:11:05.999Z</time></trkpt><trkpt lat="42.6680119905376" lon="13.730114551819689"><ele>212.0</ele><time>2026-05-03T16:11:06.999Z</time></trkpt><trkpt lat="42.66786912091171" lon="13.730201144719809"><ele>209.75</ele><time>2026-05-03T16:11:07.999Z</time></trkpt><trkpt lat="42.667740056093386" lon="13.730277184928864"><ele>207.5</ele><time>2026-05-03T16:11:08.999Z</time></trkpt><trkpt lat="42.667603205441665" lon="13.730370671072034"><ele>205.25</ele><time>2026-05-03T16:11:09.999Z</time></trkpt><trkpt lat="42.66747910596074" lon="13.730459111050461"><ele>203.0</ele><time>2026-05-03T16:11:10.999Z</time></trkpt><trkpt lat="42.66736633022791" lon="13.730560753016805"><ele>203.0</ele><time>2026-05-03T16:11:11.999Z</time></trkpt><trkpt lat="42.6672612519437" lon="13.73068886812462"><ele>203.0</ele><time>2026-05-03T16:11:12.999Z</time></trkpt><trkpt lat="42.66716766968034" lon="13.730854182847198"><ele>203.0</ele><time>2026-05-03T16:11:13.999Z</time></trkpt><trkpt lat="42.66709044017937" lon="13.731029381358027"><ele>203.0</ele><time>2026-05-03T16:11:14.999Z</time></trkpt><trkpt lat="42.66702323787481" lon="13.731220632106046"><ele>203.75</ele><time>2026-05-03T16:11:15.999Z</time></trkpt><trkpt lat="42.66694383973405" lon="13.731393921092682"><ele>204.5</ele><time>2026-05-03T16:11:16.999Z</time></trkpt><trkpt lat="42.66691671251332" lon="13.731573378618641"><ele>205.25</ele><time>2026-05-03T16:11:17.999Z</time></trkpt><trkpt lat="42.666916705398975" lon="13.731789675213102"><ele>206.0</ele><time>2026-05-03T16:11:18.999Z</time></trkpt><trkpt lat="42.66691504801371" lon="13.73200484480143"><ele>205.0</ele><time>2026-05-03T16:11:19.999Z</time></trkpt><trkpt lat="42.666945749427605" lon="13.73222025636452"><ele>204.0</ele><time>2026-05-03T16:11:20.999Z</time></trkpt><trkpt lat="42.66699429549108" lon="13.732426162935372"><ele>203.0</ele><time>2026-05-03T16:11:21.999Z</time></trkpt><trkpt lat="42.667059345612685" lon="13.732634760030601"><ele>202.66666666666669</ele><time>2026-05-03T16:11:22.999Z</time></trkpt><trkpt lat="42.66713064992467" lon="13.732848646542678"><ele>202.33333333333331</ele><time>2026-05-03T16:11:23.999Z</time></trkpt><trkpt lat="42.667199975385074" lon="13.733075649755092"><ele>202.0</ele><time>2026-05-03T16:11:24.999Z</time></trkpt><trkpt lat="42.66727023575484" lon="13.733305073704297"><ele>202.0</ele><time>2026-05-03T16:11:25.999Z</time></trkpt><trkpt lat="42.66733097144985" lon="13.733545103986373"><ele>202.0</ele><time>2026-05-03T16:11:26.999Z</time></trkpt><trkpt lat="42.667384775808706" lon="13.733788633399262"><ele>202.0</ele><time>2026-05-03T16:11:27.999Z</time></trkpt><trkpt lat="42.6674299737876" lon="13.73403761312224"><ele>202.0</ele><time>2026-05-03T16:11:28.999Z</time></trkpt><trkpt lat="42.66746443075079" lon="13.734289373073432"><ele>202.0</ele><time>2026-05-03T16:11:29.999Z</time></trkpt><trkpt lat="42.66749031725967" lon="13.734543413655086"><ele>202.0</ele><time>2026-05-03T16:11:30.999Z</time></trkpt><trkpt lat="42.66748836579881" lon="13.734801126257889"><ele>202.0</ele><time>2026-05-03T16:11:31.999Z</time></trkpt><trkpt lat="42.66748998065405" lon="13.735049721559909"><ele>202.0</ele><time>2026-05-03T16:11:32.999Z</time></trkpt><trkpt lat="42.66749032107308" lon="13.73529665585107"><ele>202.0</ele><time>2026-05-03T16:11:33.999Z</time></trkpt><trkpt lat="42.667489621043416" lon="13.735547476194705"><ele>202.0</ele><time>2026-05-03T16:11:34.999Z</time></trkpt><trkpt lat="42.66749158460177" lon="13.735797882615016"><ele>202.0</ele><time>2026-05-03T16:11:35.999Z</time></trkpt><trkpt lat="42.66749857981671" lon="13.736052453310226"><ele>202.0</ele><time>2026-05-03T16:11:36.999Z</time></trkpt><trkpt lat="42.667507022449534" lon="13.736315939704504"><ele>202.33333333333331</ele><time>2026-05-03T16:11:37.999Z</time></trkpt><trkpt lat="42.66751599631548" lon="13.736588438240323"><ele>202.66666666666669</ele><time>2026-05-03T16:11:38.999Z</time></trkpt><trkpt lat="42.66752522787577" lon="13.736865682669194"><ele>203.0</ele><time>2026-05-03T16:11:39.999Z</time></trkpt><trkpt lat="42.667533487728775" lon="13.737148783160915"><ele>201.33333333333334</ele><time>2026-05-03T16:11:40.999Z</time></trkpt><trkpt lat="42.66754381450263" lon="13.737437678886495"><ele>199.66666666666669</ele><time>2026-05-03T16:11:41.999Z</time></trkpt><trkpt lat="42.66755892966551" lon="13.737735540975839"><ele>198.0</ele><time>2026-05-03T16:11:42.999Z</time></trkpt><trkpt lat="42.6675781739373" lon="13.738027210532392"><ele>198.0</ele><time>2026-05-03T16:11:43.999Z</time></trkpt><trkpt lat="42.667600888553096" lon="13.738330002236914"><ele>198.0</ele><time>2026-05-03T16:11:44.999Z</time></trkpt><trkpt lat="42.66762683347621" lon="13.738638518130136"><ele>197.5</ele><time>2026-05-03T16:11:45.999Z</time></trkpt><trkpt lat="42.66765450713971" lon="13.738949370404924"><ele>197.0</ele><time>2026-05-03T16:11:46.999Z</time></trkpt><trkpt lat="42.66768576239364" lon="13.739264740955402"><ele>196.5</ele><time>2026-05-03T16:11:47.999Z</time></trkpt><trkpt lat="42.6677214375141" lon="13.739584119844038"><ele>196.0</ele><time>2026-05-03T16:11:48.999Z</time></trkpt><trkpt lat="42.66776285279524" lon="13.73990588166502"><ele>198.5</ele><time>2026-05-03T16:11:49.999Z</time></trkpt><trkpt lat="42.66781452262157" lon="13.740226248347572"><ele>201.0</ele><time>2026-05-03T16:11:50.999Z</time></trkpt><trkpt lat="42.66788135903251" lon="13.74055297909722"><ele>201.0</ele><time>2026-05-03T16:11:51.999Z</time></trkpt><trkpt lat="42.66794675323652" lon="13.740876903842949"><ele>201.0</ele><time>2026-05-03T16:11:52.999Z</time></trkpt><trkpt lat="42.66801658401675" lon="13.741200639856794"><ele>199.0</ele><time>2026-05-03T16:11:53.999Z</time></trkpt><trkpt lat="42.66809197961727" lon="13.741521870563899"><ele>197.0</ele><time>2026-05-03T16:11:54.999Z</time></trkpt><trkpt lat="42.66816988695305" lon="13.741846732392974"><ele>193.0</ele><time>2026-05-03T16:11:55.999Z</time></trkpt><trkpt lat="42.66825227025296" lon="13.742167748659133"><ele>189.0</ele><time>2026-05-03T16:11:56.999Z</time></trkpt><trkpt lat="42.668340471250545" lon="13.742487395149249"><ele>187.5</ele><time>2026-05-03T16:11:57.999Z</time></trkpt><trkpt lat="42.66843638932687" lon="13.742805045922443"><ele>186.0</ele><time>2026-05-03T16:11:58.999Z</time></trkpt><trkpt lat="42.668536033540974" lon="13.743117797784478"><ele>186.0</ele><time>2026-05-03T16:11:59.999Z</time></trkpt><trkpt lat="42.66863879639758" lon="13.743431538527698"><ele>186.0</ele><time>2026-05-03T16:12:00.999Z</time></trkpt><trkpt lat="42.668749013782104" lon="13.743737881690546"><ele>186.0</ele><time>2026-05-03T16:12:01.999Z</time></trkpt><trkpt lat="42.668866994922496" lon="13.744038611247408"><ele>186.0</ele><time>2026-05-03T16:12:02.999Z</time></trkpt><trkpt lat="42.66898480151249" lon="13.744337732621496"><ele>185.5</ele><time>2026-05-03T16:12:03.999Z</time></trkpt><trkpt lat="42.66910738347372" lon="13.744631486962122"><ele>185.0</ele><time>2026-05-03T16:12:04.999Z</time></trkpt><trkpt lat="42.669235621790136" lon="13.74492099194089"><ele>185.0</ele><time>2026-05-03T16:12:05.999Z</time></trkpt><trkpt lat="42.66936549081209" lon="13.745205283992393"><ele>185.0</ele><time>2026-05-03T16:12:06.999Z</time></trkpt><trkpt lat="42.669499537719176" lon="13.74548874375952"><ele>185.0</ele><time>2026-05-03T16:12:07.999Z</time></trkpt><trkpt lat="42.66963542018749" lon="13.745766309079421"><ele>185.0</ele><time>2026-05-03T16:12:08.999Z</time></trkpt><trkpt lat="42.6697789685372" lon="13.746036283200315"><ele>183.5</ele><time>2026-05-03T16:12:09.999Z</time></trkpt><trkpt lat="42.66993362036408" lon="13.746304537333161"><ele>182.0</ele><time>2026-05-03T16:12:10.999Z</time></trkpt><trkpt lat="42.670101021195244" lon="13.746578981782548"><ele>181.5</ele><time>2026-05-03T16:12:11.999Z</time></trkpt><trkpt lat="42.670278588123836" lon="13.746858748676393"><ele>181.0</ele><time>2026-05-03T16:12:12.999Z</time></trkpt><trkpt lat="42.67046036870569" lon="13.747139719780037"><ele>181.0</ele><time>2026-05-03T16:12:13.999Z</time></trkpt><trkpt lat="42.67064507475815" lon="13.747426163594394"><ele>181.0</ele><time>2026-05-03T16:12:14.999Z</time></trkpt><trkpt lat="42.67083415582901" lon="13.74771372143621"><ele>180.5</ele><time>2026-05-03T16:12:15.999Z</time></trkpt><trkpt lat="42.67103490585519" lon="13.74801452562445"><ele>180.0</ele><time>2026-05-03T16:12:16.999Z</time></trkpt><trkpt lat="42.67123784700178" lon="13.748323309789479"><ele>182.5</ele><time>2026-05-03T16:12:17.999Z</time></trkpt><trkpt lat="42.67144700677535" lon="13.748633662671583"><ele>185.0</ele><time>2026-05-03T16:12:18.999Z</time></trkpt><trkpt lat="42.671661468728146" lon="13.748947038949636"><ele>185.0</ele><time>2026-05-03T16:12:19.999Z</time></trkpt><trkpt lat="42.67187992522982" lon="13.749266544452704"><ele>185.0</ele><time>2026-05-03T16:12:20.999Z</time></trkpt><trkpt lat="42.67210011618654" lon="13.749595384269528"><ele>186.0</ele><time>2026-05-03T16:12:21.999Z</time></trkpt><trkpt lat="42.67231871872304" lon="13.749921187658456"><ele>187.0</ele><time>2026-05-03T16:12:22.999Z</time></trkpt><trkpt lat="42.67253689169572" lon="13.750247949178295"><ele>186.5</ele><time>2026-05-03T16:12:23.999Z</time></trkpt><trkpt lat="42.672762039894366" lon="13.750574958934715"><ele>186.0</ele><time>2026-05-03T16:12:24.999Z</time></trkpt><trkpt lat="42.67297570877957" lon="13.750913090996566"><ele>187.0</ele><time>2026-05-03T16:12:26Z</time></trkpt><trkpt lat="42.67320811296204" lon="13.751222292287082"><ele>188.0</ele><time>2026-05-03T16:12:27Z</time></trkpt><trkpt lat="42.67343286607601" lon="13.751552095296994"><ele>184.0</ele><time>2026-05-03T16:12:28Z</time></trkpt><trkpt lat="42.67365776228072" lon="13.751889998931796"><ele>180.0</ele><time>2026-05-03T16:12:29Z</time></trkpt><trkpt lat="42.6738796723747" lon="13.75222511194631"><ele>180.0</ele><time>2026-05-03T16:12:30Z</time></trkpt><trkpt lat="42.67409521424654" lon="13.752552580969141"><ele>180.0</ele><time>2026-05-03T16:12:31Z</time></trkpt><trkpt lat="42.67430979661735" lon="13.752877218987377"><ele>175.0</ele><time>2026-05-03T16:12:32Z</time></trkpt><trkpt lat="42.674515400708096" lon="13.753194349659696"><ele>170.0</ele><time>2026-05-03T16:12:33Z</time></trkpt><trkpt lat="42.67473299638616" lon="13.753500097447057"><ele>170.0</ele><time>2026-05-03T16:12:34Z</time></trkpt><trkpt lat="42.67494406165101" lon="13.753807928439263"><ele>170.0</ele><time>2026-05-03T16:12:35Z</time></trkpt><trkpt lat="42.67515602993245" lon="13.754119737237522"><ele>168.5</ele><time>2026-05-03T16:12:36Z</time></trkpt><trkpt lat="42.67536897869683" lon="13.754431456153421"><ele>167.0</ele><time>2026-05-03T16:12:37Z</time></trkpt><trkpt lat="42.67558520200763" lon="13.754749750023493"><ele>167.0</ele><time>2026-05-03T16:12:38Z</time></trkpt><trkpt lat="42.675808279747784" lon="13.755076456598076"><ele>167.0</ele><time>2026-05-03T16:12:39Z</time></trkpt><trkpt lat="42.67603865422015" lon="13.755414313093537"><ele>166.5</ele><time>2026-05-03T16:12:40Z</time></trkpt><trkpt lat="42.676272194053176" lon="13.7557646011807"><ele>166.0</ele><time>2026-05-03T16:12:41Z</time></trkpt><trkpt lat="42.67650517495763" lon="13.756116428929545"><ele>166.0</ele><time>2026-05-03T16:12:42Z</time></trkpt><trkpt lat="42.67673747232543" lon="13.756459822174614"><ele>166.0</ele><time>2026-05-03T16:12:43Z</time></trkpt><trkpt lat="42.67696654424166" lon="13.75680340050567"><ele>166.0</ele><time>2026-05-03T16:12:44Z</time></trkpt><trkpt lat="42.67718739787198" lon="13.757143712381522"><ele>166.0</ele><time>2026-05-03T16:12:45Z</time></trkpt><trkpt lat="42.677401205286756" lon="13.757479802864141"><ele>164.0</ele><time>2026-05-03T16:12:46Z</time></trkpt><trkpt lat="42.6776114476702" lon="13.757810821785744"><ele>162.0</ele><time>2026-05-03T16:12:47Z</time></trkpt><trkpt lat="42.67782133036511" lon="13.758132278349493"><ele>161.5</ele><time>2026-05-03T16:12:48Z</time></trkpt><trkpt lat="42.678032071543015" lon="13.758441778735605"><ele>161.0</ele><time>2026-05-03T16:12:49Z</time></trkpt><trkpt lat="42.67824124666174" lon="13.758748215476496"><ele>160.5</ele><time>2026-05-03T16:12:50Z</time></trkpt><trkpt lat="42.67844815151104" lon="13.759048894991698"><ele>160.0</ele><time>2026-05-03T16:12:51Z</time></trkpt><trkpt lat="42.67864860325241" lon="13.759344762806048"><ele>159.0</ele><time>2026-05-03T16:12:52Z</time></trkpt><trkpt lat="42.67884718912998" lon="13.75963978971321"><ele>158.0</ele><time>2026-05-03T16:12:53Z</time></trkpt><trkpt lat="42.679040902675396" lon="13.75993007635774"><ele>157.5</ele><time>2026-05-03T16:12:54Z</time></trkpt><trkpt lat="42.679231154635495" lon="13.760216337576901"><ele>157.0</ele><time>2026-05-03T16:12:55Z</time></trkpt><trkpt lat="42.679419194107325" lon="13.760498932681859"><ele>157.0</ele><time>2026-05-03T16:12:56Z</time></trkpt><trkpt lat="42.67960398743625" lon="13.760776368083503"><ele>157.0</ele><time>2026-05-03T16:12:57Z</time></trkpt><trkpt lat="42.67979279194706" lon="13.761048054658819"><ele>157.0</ele><time>2026-05-03T16:12:58Z</time></trkpt><trkpt lat="42.679976910949264" lon="13.76132095041828"><ele>157.0</ele><time>2026-05-03T16:12:59Z</time></trkpt><trkpt lat="42.680157438130436" lon="13.761592143881197"><ele>157.0</ele><time>2026-05-03T16:13:00Z</time></trkpt><trkpt lat="42.68033612950835" lon="13.761859357540486"><ele>157.0</ele><time>2026-05-03T16:13:01Z</time></trkpt><trkpt lat="42.68051137343172" lon="13.762120973607905"><ele>157.5</ele><time>2026-05-03T16:13:02Z</time></trkpt><trkpt lat="42.68068042781444" lon="13.76236741324043"><ele>158.0</ele><time>2026-05-03T16:13:03Z</time></trkpt><trkpt lat="42.680843167551366" lon="13.7626079277944"><ele>157.5</ele><time>2026-05-03T16:13:04Z</time></trkpt><trkpt lat="42.68099805789959" lon="13.762841339679223"><ele>157.0</ele><time>2026-05-03T16:13:05Z</time></trkpt><trkpt lat="42.68114564886627" lon="13.7630745680447"><ele>157.0</ele><time>2026-05-03T16:13:06Z</time></trkpt><trkpt lat="42.68128614725558" lon="13.763306401571114"><ele>157.0</ele><time>2026-05-03T16:13:07Z</time></trkpt><trkpt lat="42.681418646886335" lon="13.76354008410533"><ele>157.0</ele><time>2026-05-03T16:13:08Z</time></trkpt><trkpt lat="42.681542460393146" lon="13.763774700989869"><ele>155.66666666666669</ele><time>2026-05-03T16:13:09Z</time></trkpt><trkpt lat="42.68165894205046" lon="13.76400652737304"><ele>154.33333333333334</ele><time>2026-05-03T16:13:10Z</time></trkpt><trkpt lat="42.68176954501003" lon="13.764235194164128"><ele>153.0</ele><time>2026-05-03T16:13:11Z</time></trkpt><trkpt lat="42.68187310785579" lon="13.764465809363552"><ele>153.0</ele><time>2026-05-03T16:13:12Z</time></trkpt><trkpt lat="42.68196887616312" lon="13.764698485595153"><ele>153.0</ele><time>2026-05-03T16:13:13Z</time></trkpt><trkpt lat="42.68205378933201" lon="13.764934764821692"><ele>153.0</ele><time>2026-05-03T16:13:14Z</time></trkpt><trkpt lat="42.6821275218395" lon="13.765166699859927"><ele>153.33333333333334</ele><time>2026-05-03T16:13:15Z</time></trkpt><trkpt lat="42.6821846958404" lon="13.765391568622254"><ele>153.66666666666669</ele><time>2026-05-03T16:13:16Z</time></trkpt><trkpt lat="42.682222759450156" lon="13.765615435920898"><ele>154.0</ele><time>2026-05-03T16:13:17Z</time></trkpt><trkpt lat="42.68223925188914" lon="13.765851709987974"><ele>153.66666666666669</ele><time>2026-05-03T16:13:18Z</time></trkpt><trkpt lat="42.68222493284522" lon="13.766091155879959"><ele>153.33333333333334</ele><time>2026-05-03T16:13:19Z</time></trkpt><trkpt lat="42.68218027303403" lon="13.766324654197819"><ele>153.0</ele><time>2026-05-03T16:13:20Z</time></trkpt><trkpt lat="42.68211618068716" lon="13.766539531539953"><ele>153.0</ele><time>2026-05-03T16:13:21Z</time></trkpt><trkpt lat="42.6820517067142" lon="13.766728683924947"><ele>153.0</ele><time>2026-05-03T16:13:22Z</time></trkpt><trkpt lat="42.682007406934666" lon="13.76690677726404"><ele>153.0</ele><time>2026-05-03T16:13:23Z</time></trkpt><trkpt lat="42.68199892783879" lon="13.76707575510343"><ele>153.0</ele><time>2026-05-03T16:13:24Z</time></trkpt><trkpt lat="42.68203558087601" lon="13.767236490810536"><ele>152.75</ele><time>2026-05-03T16:13:25Z</time></trkpt><trkpt lat="42.68209698753531" lon="13.767390734899609"><ele>152.5</ele><time>2026-05-03T16:13:26Z</time></trkpt><trkpt lat="42.68217855181571" lon="13.767526038923725"><ele>152.25</ele><time>2026-05-03T16:13:27Z</time></trkpt><trkpt lat="42.68228204373003" lon="13.767632249537439"><ele>152.0</ele><time>2026-05-03T16:13:28Z</time></trkpt><trkpt lat="42.68240125082075" lon="13.767709840176254"><ele>152.0</ele><time>2026-05-03T16:13:29Z</time></trkpt><trkpt lat="42.682532569123524" lon="13.767767308015978"><ele>152.0</ele><time>2026-05-03T16:13:30Z</time></trkpt><trkpt lat="42.68268032202106" lon="13.76780286354515"><ele>152.0</ele><time>2026-05-03T16:13:31Z</time></trkpt><trkpt lat="42.68283921754566" lon="13.76782743422892"><ele>152.0</ele><time>2026-05-03T16:13:32Z</time></trkpt><trkpt lat="42.68300728046402" lon="13.767837874832072"><ele>151.0</ele><time>2026-05-03T16:13:33Z</time></trkpt><trkpt lat="42.68317166175763" lon="13.767853978032058"><ele>150.0</ele><time>2026-05-03T16:13:34Z</time></trkpt><trkpt lat="42.68332743436137" lon="13.767872008320273"><ele>149.0</ele><time>2026-05-03T16:13:34.999Z</time></trkpt><trkpt lat="42.68348038330421" lon="13.767890645554607"><ele>151.0</ele><time>2026-05-03T16:13:35.999Z</time></trkpt><trkpt lat="42.6836275047013" lon="13.76790913791496"><ele>153.0</ele><time>2026-05-03T16:13:36.999Z</time></trkpt><trkpt lat="42.683764749785624" lon="13.767925439441944"><ele>155.0</ele><time>2026-05-03T16:13:37.999Z</time></trkpt><trkpt lat="42.683878034895855" lon="13.767944902932701"><ele>157.0</ele><time>2026-05-03T16:13:38.999Z</time></trkpt><trkpt lat="42.68396913190542" lon="13.767973318456514"><ele>157.0</ele><time>2026-05-03T16:13:39.999Z</time></trkpt><trkpt lat="42.68404749482556" lon="13.768046349156277"><ele>157.0</ele><time>2026-05-03T16:13:41.999Z</time></trkpt><trkpt lat="42.684089592487304" lon="13.768168965658536"><ele>157.0</ele><time>2026-05-03T16:13:44.999Z</time></trkpt><trkpt lat="42.68418458315856" lon="13.768293871405309"><ele>157.0</ele><time>2026-05-03T16:13:46.999Z</time></trkpt><trkpt lat="42.684249747160024" lon="13.76833512020917"><ele>157.0</ele><time>2026-05-03T16:13:47.999Z</time></trkpt><trkpt lat="42.68432339486388" lon="13.768354001569094"><ele>156.99999999999997</ele><time>2026-05-03T16:13:48.999Z</time></trkpt><trkpt lat="42.68439598733581" lon="13.768346515819252"><ele>157.0</ele><time>2026-05-03T16:13:49.999Z</time></trkpt><trkpt lat="42.684462413695854" lon="13.768320726364829"><ele>157.0</ele><time>2026-05-03T16:13:50.999Z</time></trkpt><trkpt lat="42.684520784059984" lon="13.768272898073628"><ele>157.0</ele><time>2026-05-03T16:13:51.999Z</time></trkpt><trkpt lat="42.68456547786439" lon="13.768193307068403"><ele>157.0</ele><time>2026-05-03T16:13:52.999Z</time></trkpt><trkpt lat="42.68459121166381" lon="13.768105080931807"><ele>156.99999999999997</ele><time>2026-05-03T16:13:53.999Z</time></trkpt><trkpt lat="42.68459883829022" lon="13.76800168969508"><ele>157.0</ele><time>2026-05-03T16:13:54.999Z</time></trkpt><trkpt lat="42.68459422197281" lon="13.767897016315526"><ele>158.16666666666669</ele><time>2026-05-03T16:13:55.999Z</time></trkpt><trkpt lat="42.68457047129577" lon="13.767795414617101"><ele>159.33333333333334</ele><time>2026-05-03T16:13:56.999Z</time></trkpt><trkpt lat="42.68453355536283" lon="13.767697687533474"><ele>160.5</ele><time>2026-05-03T16:13:57.999Z</time></trkpt><trkpt lat="42.68450934120259" lon="13.767599680813428"><ele>161.66666666666666</ele><time>2026-05-03T16:13:58.999Z</time></trkpt><trkpt lat="42.68450294869545" lon="13.76749836141287"><ele>162.83333333333331</ele><time>2026-05-03T16:13:59.999Z</time></trkpt><trkpt lat="42.684503644621685" lon="13.76739128970089"><ele>164.0</ele><time>2026-05-03T16:14:00.999Z</time></trkpt><trkpt lat="42.68450715407875" lon="13.767285824874325"><ele>164.33333333333331</ele><time>2026-05-03T16:14:01.999Z</time></trkpt><trkpt lat="42.68450818121629" lon="13.767177415673958"><ele>164.66666666666666</ele><time>2026-05-03T16:14:02.999Z</time></trkpt><trkpt lat="42.684485558239615" lon="13.7670787618681"><ele>165.0</ele><time>2026-05-03T16:14:03.999Z</time></trkpt><trkpt lat="42.68443173860512" lon="13.767001385526648"><ele>165.33333333333334</ele><time>2026-05-03T16:14:04.999Z</time></trkpt><trkpt lat="42.68435627918277" lon="13.76694884265067"><ele>165.66666666666669</ele><time>2026-05-03T16:14:05.999Z</time></trkpt><trkpt lat="42.68426560028028" lon="13.766922035318304"><ele>166.0</ele><time>2026-05-03T16:14:06.999Z</time></trkpt><trkpt lat="42.68417136815287" lon="13.766916001716933"><ele>165.4</ele><time>2026-05-03T16:14:07.999Z</time></trkpt><trkpt lat="42.684071588802446" lon="13.76692542599942"><ele>164.8</ele><time>2026-05-03T16:14:08.999Z</time></trkpt><trkpt lat="42.6839718567703" lon="13.766936024148634"><ele>164.20000000000002</ele><time>2026-05-03T16:14:09.999Z</time></trkpt><trkpt lat="42.683871469537955" lon="13.76693866004818"><ele>163.60000000000002</ele><time>2026-05-03T16:14:10.999Z</time></trkpt><trkpt lat="42.68377568111604" lon="13.76691517758481"><ele>163.0</ele><time>2026-05-03T16:14:11.999Z</time></trkpt><trkpt lat="42.683685241798564" lon="13.766852190332703"><ele>163.0</ele><time>2026-05-03T16:14:12.999Z</time></trkpt><trkpt lat="42.683608576916534" lon="13.766742726113316"><ele>163.0</ele><time>2026-05-03T16:14:13.999Z</time></trkpt><trkpt lat="42.68354656078924" lon="13.766608296897022"><ele>163.0</ele><time>2026-05-03T16:14:14.999Z</time></trkpt><trkpt lat="42.683496560579115" lon="13.766463877414866"><ele>163.0</ele><time>2026-05-03T16:14:15.999Z</time></trkpt><trkpt lat="42.68343842663722" lon="13.766316332051872"><ele>160.75</ele><time>2026-05-03T16:14:16.999Z</time></trkpt><trkpt lat="42.68337563105048" lon="13.766171453410989"><ele>158.5</ele><time>2026-05-03T16:14:17.999Z</time></trkpt><trkpt lat="42.683313608882585" lon="13.766023326693375"><ele>156.25</ele><time>2026-05-03T16:14:18.999Z</time></trkpt><trkpt lat="42.6832478290209" lon="13.765870756223766"><ele>154.0</ele><time>2026-05-03T16:14:19.999Z</time></trkpt><trkpt lat="42.683181270894174" lon="13.765719406788689"><ele>154.0</ele><time>2026-05-03T16:14:20.999Z</time></trkpt><trkpt lat="42.68311327502232" lon="13.765560140984656"><ele>154.0</ele><time>2026-05-03T16:14:21.999Z</time></trkpt><trkpt lat="42.68304265000615" lon="13.765402835623258"><ele>154.0</ele><time>2026-05-03T16:14:22.999Z</time></trkpt><trkpt lat="42.68297231925228" lon="13.765246615750186"><ele>154.0</ele><time>2026-05-03T16:14:23.999Z</time></trkpt><trkpt lat="42.68290140514672" lon="13.765087131626254"><ele>153.75</ele><time>2026-05-03T16:14:24.999Z</time></trkpt><trkpt lat="42.68283415421124" lon="13.764929923233197"><ele>153.5</ele><time>2026-05-03T16:14:25.999Z</time></trkpt><trkpt lat="42.6827670466178" lon="13.764784096192791"><ele>153.25</ele><time>2026-05-03T16:14:26.999Z</time></trkpt><trkpt lat="42.68269372350006" lon="13.764651199918832"><ele>153.0</ele><time>2026-05-03T16:14:27.999Z</time></trkpt><trkpt lat="42.68261555951622" lon="13.764523150851492"><ele>153.0</ele><time>2026-05-03T16:14:28.999Z</time></trkpt><trkpt lat="42.68253244701053" lon="13.764397998881966"><ele>153.0</ele><time>2026-05-03T16:14:29.999Z</time></trkpt><trkpt lat="42.68244673429716" lon="13.764278802240359"><ele>153.0</ele><time>2026-05-03T16:14:30.999Z</time></trkpt><trkpt lat="42.682355111897195" lon="13.76415917214059"><ele>153.0</ele><time>2026-05-03T16:14:32Z</time></trkpt><trkpt lat="42.682262769249185" lon="13.764036526302577"><ele>153.5</ele><time>2026-05-03T16:14:33Z</time></trkpt><trkpt lat="42.682169518002" lon="13.763911035522165"><ele>154.0</ele><time>2026-05-03T16:14:34Z</time></trkpt><trkpt lat="42.68207603189498" lon="13.763775574355018"><ele>154.5</ele><time>2026-05-03T16:14:35Z</time></trkpt><trkpt lat="42.68198385562743" lon="13.763634744403618"><ele>155.0</ele><time>2026-05-03T16:14:36Z</time></trkpt><trkpt lat="42.68189514851864" lon="13.763489808247103"><ele>155.5</ele><time>2026-05-03T16:14:37Z</time></trkpt><trkpt lat="42.68180803651998" lon="13.763341110134567"><ele>156.0</ele><time>2026-05-03T16:14:38Z</time></trkpt><trkpt lat="42.68172142855729" lon="13.76319223935316"><ele>156.5</ele><time>2026-05-03T16:14:39Z</time></trkpt><trkpt lat="42.681635192545" lon="13.763044935342728"><ele>157.0</ele><time>2026-05-03T16:14:40Z</time></trkpt><trkpt lat="42.68154871214131" lon="13.762903034684324"><ele>157.0</ele><time>2026-05-03T16:14:41Z</time></trkpt><trkpt lat="42.681465290433124" lon="13.762763907576776"><ele>157.0</ele><time>2026-05-03T16:14:42Z</time></trkpt><trkpt lat="42.6813890804416" lon="13.762631052008649"><ele>157.0</ele><time>2026-05-03T16:14:43Z</time></trkpt><trkpt lat="42.68132121833799" lon="13.762515837819302"><ele>157.0</ele><time>2026-05-03T16:14:44Z</time></trkpt><trkpt lat="42.68126456048913" lon="13.762420643198235"><ele>157.0</ele><time>2026-05-03T16:14:45Z</time></trkpt><trkpt lat="42.68121882515874" lon="13.762339134308107"><ele>157.0</ele><time>2026-05-03T16:14:46Z</time></trkpt><trkpt lat="42.68115029691985" lon="13.762215952627429"><ele>157.0</ele><time>2026-05-03T16:14:48Z</time></trkpt><trkpt lat="42.681076361827344" lon="13.762100727787361"><ele>157.0</ele><time>2026-05-03T16:14:50Z</time></trkpt><trkpt lat="42.68105133247552" lon="13.761986266858816"><ele>157.0</ele><time>2026-05-03T16:14:52Z</time></trkpt><trkpt lat="42.6810709898654" lon="13.761838612257206"><ele>157.0</ele><time>2026-05-03T16:14:54Z</time></trkpt><trkpt lat="42.68109001088234" lon="13.761688301892708"><ele>157.0</ele><time>2026-05-03T16:14:56Z</time></trkpt><trkpt lat="42.68103393958763" lon="13.761556413134668"><ele>157.0</ele><time>2026-05-03T16:14:58Z</time></trkpt><trkpt lat="42.68097713386211" lon="13.76146086586664"><ele>157.0</ele><time>2026-05-03T16:15:00Z</time></trkpt><trkpt lat="42.68102410786277" lon="13.761353076612602"><ele>157.0</ele><time>2026-05-03T16:15:01Z</time></trkpt><trkpt lat="42.6811133985" lon="13.761291025983358"><ele>158.8</ele><time>2026-05-03T16:15:03Z</time></trkpt><trkpt lat="42.681223528582706" lon="13.761342161183933"><ele>160.6</ele><time>2026-05-03T16:15:05Z</time></trkpt><trkpt lat="42.681338825387904" lon="13.761385670902108"><ele>162.4</ele><time>2026-05-03T16:15:07Z</time></trkpt><trkpt lat="42.68140491832026" lon="13.76139200463764"><ele>164.20000000000002</ele><time>2026-05-03T16:15:08Z</time></trkpt><trkpt lat="42.68151312956133" lon="13.76136765127238"><ele>166.0</ele><time>2026-05-03T16:15:10Z</time></trkpt><trkpt lat="42.681597695146195" lon="13.761307338923027"><ele>166.0</ele><time>2026-05-03T16:15:12Z</time></trkpt><trkpt lat="42.681714637761985" lon="13.761249430745345"><ele>166.0</ele><time>2026-05-03T16:15:14Z</time></trkpt><trkpt lat="42.6817802398946" lon="13.761225144779933"><ele>166.0</ele><time>2026-05-03T16:15:15Z</time></trkpt><trkpt lat="42.68184835305072" lon="13.76119935663512"><ele>166.0</ele><time>2026-05-03T16:15:16Z</time></trkpt><trkpt lat="42.681910668933426" lon="13.7611752008324"><ele>166.0</ele><time>2026-05-03T16:15:17Z</time></trkpt><trkpt lat="42.68201862715864" lon="13.76112567435572"><ele>166.0</ele><time>2026-05-03T16:15:19Z</time></trkpt><trkpt lat="42.68211194212118" lon="13.761081154537539"><ele>166.66666666666669</ele><time>2026-05-03T16:15:21Z</time></trkpt><trkpt lat="42.68220228095077" lon="13.761033417667814"><ele>167.33333333333334</ele><time>2026-05-03T16:15:23Z</time></trkpt><trkpt lat="42.68226251705838" lon="13.761001405987429"><ele>168.0</ele><time>2026-05-03T16:15:25Z</time></trkpt><trkpt lat="42.68232847574305" lon="13.760973379526705"><ele>168.66666666666666</ele><time>2026-05-03T16:15:27Z</time></trkpt><trkpt lat="42.68242499763602" lon="13.76094646700729"><ele>169.33333333333331</ele><time>2026-05-03T16:15:29Z</time></trkpt><trkpt lat="42.682512185315595" lon="13.760895454384029"><ele>170.0</ele><time>2026-05-03T16:15:31Z</time></trkpt><trkpt lat="42.682559326339025" lon="13.760826915253345"><ele>170.33333333333331</ele><time>2026-05-03T16:15:33Z</time></trkpt><trkpt lat="42.68255043958856" lon="13.760737070322113"><ele>170.66666666666666</ele><time>2026-05-03T16:15:35Z</time></trkpt><trkpt lat="42.68251972991236" lon="13.76063158286012"><ele>171.0</ele><time>2026-05-03T16:15:37Z</time></trkpt><trkpt lat="42.68249151453442" lon="13.76052159169678"><ele>171.33333333333334</ele><time>2026-05-03T16:15:39Z</time></trkpt><trkpt lat="42.68246802236379" lon="13.760427577920705"><ele>171.66666666666669</ele><time>2026-05-03T16:15:41Z</time></trkpt><trkpt lat="42.68243766465328" lon="13.760330953763532"><ele>172.0</ele><time>2026-05-03T16:15:43Z</time></trkpt><trkpt lat="42.68241068504852" lon="13.760240777908836"><ele>172.0</ele><time>2026-05-03T16:15:45Z</time></trkpt><trkpt lat="42.68236992656744" lon="13.760161307024187"><ele>172.0</ele><time>2026-05-03T16:15:48Z</time></trkpt><trkpt lat="42.68229027784301" lon="13.760157645798946"><ele>172.0</ele><time>2026-05-03T16:15:50.999Z</time></trkpt><trkpt lat="42.68224022540027" lon="13.760211403140511"><ele>172.0</ele><time>2026-05-03T16:15:52.999Z</time></trkpt><trkpt lat="42.682263878239965" lon="13.760310303203084"><ele>172.0</ele><time>2026-05-03T16:15:54.999Z</time></trkpt><trkpt lat="42.682299098097815" lon="13.760453458683635"><ele>172.0</ele><time>2026-05-03T16:15:56.999Z</time></trkpt><trkpt lat="42.68232032869919" lon="13.760539753095868"><ele>172.0</ele><time>2026-05-03T16:15:57.999Z</time></trkpt><trkpt lat="42.6823253429763" lon="13.760628654369533"><ele>172.0</ele><time>2026-05-03T16:15:58.999Z</time></trkpt><trkpt lat="42.682376369512454" lon="13.760756175455791"><ele>172.0</ele><time>2026-05-03T16:16:00.999Z</time></trkpt><trkpt lat="42.68240834801277" lon="13.76083913985679"><ele>172.0</ele><time>2026-05-03T16:16:03.999Z</time></trkpt><trkpt lat="42.68246071051351" lon="13.760924631102974"><ele>172.0</ele><time>2026-05-03T16:16:13.999Z</time></trkpt><trkpt lat="42.6825554920088" lon="13.760894362140212"><ele>172.0</ele><time>2026-05-03T16:16:15.999Z</time></trkpt><trkpt lat="42.68252751666661" lon="13.760659898017781"><ele>172.0</ele><time>2026-05-03T16:16:32.999Z</time></trkpt><trkpt lat="42.68249723526195" lon="13.760584504267177"><ele>172.0</ele><time>2026-05-03T16:16:33.999Z</time></trkpt><trkpt lat="42.682468126719314" lon="13.760501079020921"><ele>172.0</ele><time>2026-05-03T16:16:34.999Z</time></trkpt><trkpt lat="42.682446004476375" lon="13.760413832215741"><ele>172.0</ele><time>2026-05-03T16:16:35.999Z</time></trkpt><trkpt lat="42.68241247056567" lon="13.760267854366441"><ele>172.0</ele><time>2026-05-03T16:16:38.001Z</time></trkpt><trkpt lat="42.68239314910424" lon="13.760155789363909"><ele>172.0</ele><time>2026-05-03T16:16:41Z</time></trkpt><trkpt lat="42.68252197387604" lon="13.76004918704651"><ele>172.00000000000003</ele><time>2026-05-03T16:16:47Z</time></trkpt><trkpt lat="42.682451203969784" lon="13.760054852212498"><ele>172.0</ele><time>2026-05-03T16:19:20Z</time></trkpt><trkpt lat="42.68238628483678" lon="13.760079591262757"><ele>172.0</ele><time>2026-05-03T16:19:27Z</time></trkpt><trkpt lat="42.682323542501315" lon="13.760130737170943"><ele>172.0</ele><time>2026-05-03T16:19:35Z</time></trkpt><trkpt lat="42.68227408673879" lon="13.760195742976313"><ele>172.0</ele><time>2026-05-03T16:19:41Z</time></trkpt><trkpt lat="42.68221127799822" lon="13.760222204829402"><ele>172.00000000000003</ele><time>2026-05-03T16:19:46Z</time></trkpt><trkpt lat="42.68220063513823" lon="13.76030949864004"><ele>172.0</ele><time>2026-05-03T16:19:50.999Z</time></trkpt><trkpt lat="42.6822326021024" lon="13.760386840307776"><ele>172.0</ele><time>2026-05-03T16:20:00.999Z</time></trkpt><trkpt lat="42.68216242303749" lon="13.760303741086927"><ele>172.0</ele><time>2026-05-03T16:20:02.999Z</time></trkpt><trkpt lat="42.682128888594846" lon="13.760225605232419"><ele>172.0</ele><time>2026-05-03T16:20:05.999Z</time></trkpt><trkpt lat="42.68223202708897" lon="13.760154368542155"><ele>172.0</ele><time>2026-05-03T16:20:18.55Z</time></trkpt><trkpt lat="42.68226548360935" lon="13.759943936823282"><ele>172.0</ele><time>2026-05-03T16:20:24.471Z</time></trkpt><trkpt lat="42.6822698619345" lon="13.759724604359082"><ele>172.66666666666669</ele><time>2026-05-03T16:20:48.62Z</time></trkpt><trkpt lat="42.68228672790673" lon="13.759410192254949"><ele>173.33333333333334</ele><time>2026-05-03T16:20:54.469Z</time></trkpt><trkpt lat="42.682251811975256" lon="13.759518248120008"><ele>174.0</ele><time>2026-05-03T16:21:12.507Z</time></trkpt><trkpt lat="42.68212823201583" lon="13.759608497916538"><ele>174.0</ele><time>2026-05-03T16:21:18.47Z</time></trkpt><trkpt lat="42.68207402797323" lon="13.759457326437095"><ele>174.0</ele><time>2026-05-03T16:21:30.466Z</time></trkpt><trkpt lat="42.68195229713859" lon="13.759333250060106"><ele>174.0</ele><time>2026-05-03T16:21:36.468Z</time></trkpt><trkpt lat="42.68172852600665" lon="13.759279690280577"><ele>174.0</ele><time>2026-05-03T16:21:42.553Z</time></trkpt><trkpt lat="42.681635720584346" lon="13.759098644524277"><ele>174.0</ele><time>2026-05-03T16:21:48.465Z</time></trkpt><trkpt lat="42.681509704230535" lon="13.759042562206224"><ele>174.0</ele><time>2026-05-03T16:21:54.469Z</time></trkpt><trkpt lat="42.68131865347313" lon="13.758960838813698"><ele>174.0</ele><time>2026-05-03T16:22:24.634Z</time></trkpt><trkpt lat="42.6811755987829" lon="13.75911864261692"><ele>174.0</ele><time>2026-05-03T16:23:12.471Z</time></trkpt><trkpt lat="42.681117006635944" lon="13.759192565235992"><ele>174.0</ele><time>2026-05-03T16:23:18.468Z</time></trkpt><trkpt lat="42.68090692277325" lon="13.759737438974923"><ele>170.33333333333334</ele><time>2026-05-03T16:23:24.469Z</time></trkpt><trkpt lat="42.68080635175186" lon="13.759893427539438"><ele>166.66666666666669</ele><time>2026-05-03T16:23:30.592Z</time></trkpt><trkpt lat="42.68077454365455" lon="13.760213137778143"><ele>163.0</ele><time>2026-05-03T16:24:06.468Z</time></trkpt><trkpt lat="42.680805862358966" lon="13.760315462308313"><ele>162.0</ele><time>2026-05-03T16:24:12.47Z</time></trkpt><trkpt lat="42.68089900847056" lon="13.7603973138303"><ele>161.0</ele><time>2026-05-03T16:24:54.589Z</time></trkpt><trkpt lat="42.680821627314685" lon="13.760439050327191"><ele>160.0</ele><time>2026-05-03T16:29:04.454Z</time></trkpt><trkpt lat="42.68077079722397" lon="13.760310428043105"><ele>159.0</ele><time>2026-05-03T16:29:10.583Z</time></trkpt><trkpt lat="42.68094376725245" lon="13.760391148900515"><ele>159.0</ele><time>2026-05-03T16:29:46.455Z</time></trkpt><trkpt lat="42.68083722967264" lon="13.760381143668342"><ele>159.0</ele><time>2026-05-03T16:33:04.466Z</time></trkpt><trkpt lat="42.68062995732633" lon="13.760098918687623"><ele>159.0</ele><time>2026-05-03T16:43:25.56Z</time></trkpt><trkpt lat="42.680555302310914" lon="13.760035602973401"><ele>159.0</ele><time>2026-05-03T16:43:31.015Z</time></trkpt><trkpt lat="42.680480904165" lon="13.76005172075215"><ele>159.0</ele><time>2026-05-03T16:44:52.532Z</time></trkpt><trkpt lat="42.6805450190493" lon="13.760109948766985"><ele>159.0</ele><time>2026-05-03T16:45:58.802Z</time></trkpt><trkpt lat="42.68060327787046" lon="13.76015189335791"><ele>159.0</ele><time>2026-05-03T16:46:04.812Z</time></trkpt><trkpt lat="42.6806840975265" lon="13.760170304571844"><ele>159.0</ele><time>2026-05-03T16:46:29.001Z</time></trkpt><trkpt lat="42.68099721649414" lon="13.760210016725619"><ele>160.33333333333334</ele><time>2026-05-03T16:47:11.999Z</time></trkpt><trkpt lat="42.68076199906164" lon="13.760013614876815"><ele>161.66666666666669</ele><time>2026-05-03T16:47:12.999Z</time></trkpt><trkpt lat="42.680713268369026" lon="13.75992911810761"><ele>163.0</ele><time>2026-05-03T16:47:13.999Z</time></trkpt><trkpt lat="42.68082198554192" lon="13.760179071084213"><ele>163.0</ele><time>2026-05-03T16:47:16.999Z</time></trkpt><trkpt lat="42.68072584543544" lon="13.76000319567395"><ele>163.0</ele><time>2026-05-03T16:47:25.999Z</time></trkpt><trkpt lat="42.680792245903014" lon="13.759975701026416"><ele>163.0</ele><time>2026-05-03T16:47:38.999Z</time></trkpt><trkpt lat="42.68093159919646" lon="13.759833540210343"><ele>163.0</ele><time>2026-05-03T16:47:57.999Z</time></trkpt><trkpt lat="42.680764392238785" lon="13.75981117407604"><ele>163.0</ele><time>2026-05-03T16:48:02.999Z</time></trkpt><trkpt lat="42.6811599405882" lon="13.759738281382022"><ele>163.0</ele><time>2026-05-03T16:48:19.998Z</time></trkpt><trkpt lat="42.68086490045553" lon="13.759948771239195"><ele>163.0</ele><time>2026-05-03T16:48:24.998Z</time></trkpt><trkpt lat="42.68086896323227" lon="13.760040143555766"><ele>163.0</ele><time>2026-05-03T16:49:13.999Z</time></trkpt><trkpt lat="42.680886277264506" lon="13.759945668715687"><ele>163.0</ele><time>2026-05-03T16:49:22.999Z</time></trkpt><trkpt lat="42.680898599146914" lon="13.759851508224797"><ele>163.0</ele><time>2026-05-03T16:49:36.999Z</time></trkpt><trkpt lat="42.680779788587984" lon="13.759777843365741"><ele>163.0</ele><time>2026-05-03T16:49:55.999Z</time></trkpt><trkpt lat="42.68070718484084" lon="13.76000247991404"><ele>163.0</ele><time>2026-05-03T16:50:51.999Z</time></trkpt><trkpt lat="42.68060065809909" lon="13.759758397949636"><ele>163.0</ele><time>2026-05-03T16:51:54.999Z</time></trkpt><trkpt lat="42.68065423622103" lon="13.759983368010165"><ele>163.0</ele><time>2026-05-03T16:51:57.999Z</time></trkpt><trkpt lat="42.68082937617871" lon="13.759569767272366"><ele>163.0</ele><time>2026-05-03T16:54:04.999Z</time></trkpt><trkpt lat="42.680679461397055" lon="13.759968143256414"><ele>163.0</ele><time>2026-05-03T16:54:08.999Z</time></trkpt><trkpt lat="42.68072979958893" lon="13.7600256356867"><ele>163.0</ele><time>2026-05-03T16:55:18Z</time></trkpt><trkpt lat="42.68074130261089" lon="13.759922059990965"><ele>163.0</ele><time>2026-05-03T16:55:44Z</time></trkpt><trkpt lat="42.68076506912979" lon="13.759822268051803"><ele>163.0</ele><time>2026-05-03T16:55:55Z</time></trkpt><trkpt lat="42.68074972919141" lon="13.759961519026334"><ele>163.0</ele><time>2026-05-03T16:56:00Z</time></trkpt><trkpt lat="42.68076460812512" lon="13.759820759309234"><ele>163.0</ele><time>2026-05-03T16:56:10Z</time></trkpt><trkpt lat="42.68067442102284" lon="13.759963391072695"><ele>163.0</ele><time>2026-05-03T16:56:34.999Z</time></trkpt><trkpt lat="42.680588190523956" lon="13.760036163014654"><ele>163.0</ele><time>2026-05-03T16:56:59Z</time></trkpt><trkpt lat="42.68065913047717" lon="13.760005063455598"><ele>163.0</ele><time>2026-05-03T16:57:06Z</time></trkpt><trkpt lat="42.68077558645767" lon="13.7598578963239"><ele>163.0</ele><time>2026-05-03T16:59:10Z</time></trkpt><trkpt lat="42.68091578712748" lon="13.75970541504036"><ele>163.0</ele><time>2026-05-03T16:59:58Z</time></trkpt><trkpt lat="42.68081053312485" lon="13.759885271416563"><ele>163.0</ele><time>2026-05-03T17:00:11Z</time></trkpt><trkpt lat="42.68091546330478" lon="13.75970715053136"><ele>163.0</ele><time>2026-05-03T17:00:18Z</time></trkpt><trkpt lat="42.680760291445" lon="13.759870966909231"><ele>163.0</ele><time>2026-05-03T17:01:32Z</time></trkpt><trkpt lat="42.68065971194513" lon="13.759902417311325"><ele>163.0</ele><time>2026-05-03T17:03:55Z</time></trkpt><trkpt lat="42.680760375264015" lon="13.759868452338276"><ele>163.0</ele><time>2026-05-03T17:04:21Z</time></trkpt><trkpt lat="42.6807407836769" lon="13.759955675105969"><ele>163.0</ele><time>2026-05-03T17:05:01Z</time></trkpt><trkpt lat="42.68077899150844" lon="13.759876525575327"><ele>163.0</ele><time>2026-05-03T17:05:36Z</time></trkpt><trkpt lat="42.680675933842096" lon="13.759934418325358"><ele>163.0</ele><time>2026-05-03T17:10:32Z</time></trkpt><trkpt lat="42.68072932031277" lon="13.75975890086383"><ele>163.0</ele><time>2026-05-03T17:10:54Z</time></trkpt><trkpt lat="42.6806770206436" lon="13.760000127280568"><ele>163.0</ele><time>2026-05-03T17:10:57Z</time></trkpt><trkpt lat="42.68092683986101" lon="13.7597982119897"><ele>163.0</ele><time>2026-05-03T17:11:10Z</time></trkpt><trkpt lat="42.68072296665618" lon="13.75995662550963"><ele>163.0</ele><time>2026-05-03T17:11:13Z</time></trkpt><trkpt lat="42.680750255607116" lon="13.760064987507922"><ele>163.0</ele><time>2026-05-03T17:12:12.849Z</time></trkpt><trkpt lat="42.68078585536413" lon="13.760224500505341"><ele>163.0</ele><time>2026-05-03T17:13:24.545Z</time></trkpt><trkpt lat="42.68083114785095" lon="13.76043102413792"><ele>163.0</ele><time>2026-05-03T17:16:14.797Z</time></trkpt><trkpt lat="42.680704869553544" lon="13.760195337700333"><ele>163.0</ele><time>2026-05-03T17:16:38.826Z</time></trkpt><trkpt lat="42.68081579242781" lon="13.760410612075553"><ele>163.0</ele><time>2026-05-03T17:16:56.718Z</time></trkpt><trkpt lat="42.681170938823385" lon="13.760393954694761"><ele>166.5</ele><time>2026-05-03T17:17:44.555Z</time></trkpt><trkpt lat="42.6813394139427" lon="13.760308593926933"><ele>170.0</ele><time>2026-05-03T17:18:39.525Z</time></trkpt><trkpt lat="42.68173088553124" lon="13.760149077364838"><ele>170.0</ele><time>2026-05-03T17:18:51.506Z</time></trkpt><trkpt lat="42.6815534459474" lon="13.760210107585428"><ele>170.0</ele><time>2026-05-03T17:18:57.611Z</time></trkpt><trkpt lat="42.681366480251455" lon="13.760258324681791"><ele>170.0</ele><time>2026-05-03T17:19:03.528Z</time></trkpt><trkpt lat="42.68175427467873" lon="13.760311423695496"><ele>174.0</ele><time>2026-05-03T17:19:15.522Z</time></trkpt><trkpt lat="42.68219314741817" lon="13.760111733564619"><ele>174.0</ele><time>2026-05-03T17:19:33.678Z</time></trkpt><trkpt lat="42.682292511811056" lon="13.760096835526513"><ele>174.0</ele><time>2026-05-03T17:20:16Z</time></trkpt><trkpt lat="42.6822658099124" lon="13.760181012260198"><ele>174.0</ele><time>2026-05-03T17:20:22.999Z</time></trkpt><trkpt lat="42.68231956929669" lon="13.760134915547113"><ele>174.0</ele><time>2026-05-03T17:20:34Z</time></trkpt><trkpt lat="42.68237405271871" lon="13.760081190148087"><ele>174.0</ele><time>2026-05-03T17:20:40Z</time></trkpt><trkpt lat="42.68243104400718" lon="13.760041462913259"><ele>174.0</ele><time>2026-05-03T17:20:47Z</time></trkpt><trkpt lat="42.68248819895417" lon="13.760004407250795"><ele>174.0</ele><time>2026-05-03T17:20:53Z</time></trkpt><trkpt lat="42.68244983876597" lon="13.760089116657776"><ele>174.0</ele><time>2026-05-03T17:27:38Z</time></trkpt><trkpt lat="42.68238918013001" lon="13.760123325828387"><ele>174.0</ele><time>2026-05-03T17:27:40Z</time></trkpt><trkpt lat="42.682327876324905" lon="13.760153673753994"><ele>174.0</ele><time>2026-05-03T17:27:42Z</time></trkpt><trkpt lat="42.682241638762754" lon="13.760198389214779"><ele>174.0</ele><time>2026-05-03T17:27:45Z</time></trkpt><trkpt lat="42.682171600992724" lon="13.76023695863683"><ele>174.0</ele><time>2026-05-03T17:27:47Z</time></trkpt><trkpt lat="42.682106599250226" lon="13.760264246279243"><ele>174.0</ele><time>2026-05-03T17:27:50Z</time></trkpt><trkpt lat="42.682037155674415" lon="13.760292292232213"><ele>174.0</ele><time>2026-05-03T17:27:53Z</time></trkpt><trkpt lat="42.68197203805279" lon="13.76032343255247"><ele>173.33333333333334</ele><time>2026-05-03T17:27:55Z</time></trkpt><trkpt lat="42.681889115326626" lon="13.760363490936296"><ele>172.66666666666666</ele><time>2026-05-03T17:27:57Z</time></trkpt><trkpt lat="42.681796332196804" lon="13.760402169213496"><ele>172.0</ele><time>2026-05-03T17:27:59Z</time></trkpt><trkpt lat="42.68171490624762" lon="13.76043988322098"><ele>171.33333333333331</ele><time>2026-05-03T17:28:01Z</time></trkpt><trkpt lat="42.681634489480494" lon="13.760481273017138"><ele>170.66666666666666</ele><time>2026-05-03T17:28:03Z</time></trkpt><trkpt lat="42.681553759740275" lon="13.760518363467506"><ele>170.0</ele><time>2026-05-03T17:28:05Z</time></trkpt><trkpt lat="42.68148492990879" lon="13.760555972926031"><ele>170.0</ele><time>2026-05-03T17:28:07Z</time></trkpt><trkpt lat="42.68142585131794" lon="13.760591692244"><ele>170.0</ele><time>2026-05-03T17:28:09Z</time></trkpt><trkpt lat="42.68141301891405" lon="13.760767327492815"><ele>170.0</ele><time>2026-05-03T17:28:12Z</time></trkpt><trkpt lat="42.681452512428905" lon="13.760917907063343"><ele>170.0</ele><time>2026-05-03T17:28:14Z</time></trkpt><trkpt lat="42.68149140538242" lon="13.761063323182707"><ele>170.0</ele><time>2026-05-03T17:28:16Z</time></trkpt><trkpt lat="42.681526117712416" lon="13.761190279618923"><ele>169.2</ele><time>2026-05-03T17:28:18Z</time></trkpt><trkpt lat="42.68154649442703" lon="13.761279644597307"><ele>168.4</ele><time>2026-05-03T17:28:20Z</time></trkpt><trkpt lat="42.6816214111838" lon="13.761335404998759"><ele>167.60000000000002</ele><time>2026-05-03T17:28:23Z</time></trkpt><trkpt lat="42.68171199702675" lon="13.761284753923649"><ele>166.8</ele><time>2026-05-03T17:28:25Z</time></trkpt><trkpt lat="42.681807549453275" lon="13.76122907570921"><ele>166.0</ele><time>2026-05-03T17:28:27Z</time></trkpt><trkpt lat="42.681924501765195" lon="13.761167806085563"><ele>166.8</ele><time>2026-05-03T17:28:29Z</time></trkpt><trkpt lat="42.68198845441926" lon="13.761139284039704"><ele>167.60000000000002</ele><time>2026-05-03T17:28:30Z</time></trkpt><trkpt lat="42.6820952005274" lon="13.761095506663617"><ele>168.4</ele><time>2026-05-03T17:28:32Z</time></trkpt><trkpt lat="42.68217489781012" lon="13.761057938140148"><ele>169.2</ele><time>2026-05-03T17:28:34Z</time></trkpt><trkpt lat="42.682261095479845" lon="13.761013502805154"><ele>170.0</ele><time>2026-05-03T17:28:36Z</time></trkpt><trkpt lat="42.682367048795726" lon="13.760971535550388"><ele>170.4</ele><time>2026-05-03T17:28:38Z</time></trkpt><trkpt lat="42.68246777768531" lon="13.760928726141762"><ele>170.8</ele><time>2026-05-03T17:28:40Z</time></trkpt><trkpt lat="42.68255307272254" lon="13.76087550155519"><ele>171.2</ele><time>2026-05-03T17:28:42Z</time></trkpt><trkpt lat="42.68264641960328" lon="13.76080589110776"><ele>171.6</ele><time>2026-05-03T17:28:44Z</time></trkpt><trkpt lat="42.68272420185287" lon="13.760694202357051"><ele>172.0</ele><time>2026-05-03T17:28:46Z</time></trkpt><trkpt lat="42.68277645336066" lon="13.760598147017454"><ele>174.16666666666669</ele><time>2026-05-03T17:28:48Z</time></trkpt><trkpt lat="42.68283428122857" lon="13.760537649239218"><ele>176.33333333333334</ele><time>2026-05-03T17:28:50Z</time></trkpt><trkpt lat="42.68289850844517" lon="13.760540592602172"><ele>178.5</ele><time>2026-05-03T17:28:52Z</time></trkpt><trkpt lat="42.68296283995017" lon="13.760607928688913"><ele>180.66666666666666</ele><time>2026-05-03T17:28:54Z</time></trkpt><trkpt lat="42.68295931802529" lon="13.760749641340585"><ele>182.83333333333331</ele><time>2026-05-03T17:28:56Z</time></trkpt><trkpt lat="42.682863856571515" lon="13.760845440417517"><ele>185.0</ele><time>2026-05-03T17:28:58Z</time></trkpt><trkpt lat="42.6828035284576" lon="13.760870189248779"><ele>182.83333333333331</ele><time>2026-05-03T17:28:59Z</time></trkpt><trkpt lat="42.68268776730734" lon="13.760926180618158"><ele>180.66666666666666</ele><time>2026-05-03T17:29:01Z</time></trkpt><trkpt lat="42.68262189766903" lon="13.760959850543914"><ele>178.5</ele><time>2026-05-03T17:29:02Z</time></trkpt><trkpt lat="42.68255299427296" lon="13.760998852048075"><ele>176.33333333333334</ele><time>2026-05-03T17:29:03Z</time></trkpt><trkpt lat="42.68247717742206" lon="13.761036851672895"><ele>174.16666666666669</ele><time>2026-05-03T17:29:04Z</time></trkpt><trkpt lat="42.68239400248231" lon="13.761073204008834"><ele>172.0</ele><time>2026-05-03T17:29:05Z</time></trkpt><trkpt lat="42.68230624268825" lon="13.76111252114007"><ele>171.6</ele><time>2026-05-03T17:29:06Z</time></trkpt><trkpt lat="42.682213795395946" lon="13.76115679463967"><ele>171.2</ele><time>2026-05-03T17:29:07Z</time></trkpt><trkpt lat="42.682117051672655" lon="13.761197377029795"><ele>170.8</ele><time>2026-05-03T17:29:08Z</time></trkpt><trkpt lat="42.68201872178891" lon="13.761244912877277"><ele>170.4</ele><time>2026-05-03T17:29:09Z</time></trkpt><trkpt lat="42.681916878534686" lon="13.761293520262535"><ele>170.0</ele><time>2026-05-03T17:29:10Z</time></trkpt><trkpt lat="42.6818186379902" lon="13.761340555712563"><ele>169.2</ele><time>2026-05-03T17:29:11Z</time></trkpt><trkpt lat="42.68172508954105" lon="13.761386430031052"><ele>168.4</ele><time>2026-05-03T17:29:12Z</time></trkpt><trkpt lat="42.68163591064568" lon="13.761427933726786"><ele>167.60000000000002</ele><time>2026-05-03T17:29:13Z</time></trkpt><trkpt lat="42.68154964170038" lon="13.761467330172488"><ele>166.8</ele><time>2026-05-03T17:29:14Z</time></trkpt><trkpt lat="42.6814635770236" lon="13.761506193127525"><ele>166.0</ele><time>2026-05-03T17:29:15Z</time></trkpt><trkpt lat="42.681373607229766" lon="13.761547549019854"><ele>166.0</ele><time>2026-05-03T17:29:16Z</time></trkpt><trkpt lat="42.68128474525403" lon="13.761586958582125"><ele>166.0</ele><time>2026-05-03T17:29:17Z</time></trkpt><trkpt lat="42.68120007559856" lon="13.761620765650362"><ele>166.0</ele><time>2026-05-03T17:29:18Z</time></trkpt><trkpt lat="42.68111684909012" lon="13.76162529141576"><ele>166.0</ele><time>2026-05-03T17:29:19Z</time></trkpt><trkpt lat="42.68105224173862" lon="13.761568805678898"><ele>166.0</ele><time>2026-05-03T17:29:20Z</time></trkpt><trkpt lat="42.68097571803542" lon="13.761586707283838"><ele>166.0</ele><time>2026-05-03T17:29:21Z</time></trkpt><trkpt lat="42.680869918153526" lon="13.761634971724318"><ele>164.4</ele><time>2026-05-03T17:29:23Z</time></trkpt><trkpt lat="42.680824915009424" lon="13.76176111511824"><ele>162.8</ele><time>2026-05-03T17:29:25Z</time></trkpt><trkpt lat="42.6808803950733" lon="13.761863913397303"><ele>161.20000000000002</ele><time>2026-05-03T17:29:26Z</time></trkpt><trkpt lat="42.680942580925894" lon="13.761926131251485"><ele>159.60000000000002</ele><time>2026-05-03T17:29:27Z</time></trkpt><trkpt lat="42.6810121247939" lon="13.761938052910017"><ele>158.0</ele><time>2026-05-03T17:29:28Z</time></trkpt><trkpt lat="42.68105358181711" lon="13.762124320853449"><ele>159.75</ele><time>2026-05-03T17:29:29Z</time></trkpt><trkpt lat="42.68111974118009" lon="13.76223153459882"><ele>161.5</ele><time>2026-05-03T17:29:30Z</time></trkpt><trkpt lat="42.68118835420334" lon="13.762349817545296"><ele>163.25</ele><time>2026-05-03T17:29:31Z</time></trkpt><trkpt lat="42.68126069842879" lon="13.762476608257415"><ele>165.0</ele><time>2026-05-03T17:29:32Z</time></trkpt><trkpt lat="42.68133658388608" lon="13.76260862342877"><ele>163.0</ele><time>2026-05-03T17:29:33Z</time></trkpt><trkpt lat="42.68141514934053" lon="13.762742390308434"><ele>161.0</ele><time>2026-05-03T17:29:34Z</time></trkpt><trkpt lat="42.68149546492695" lon="13.762877880525057"><ele>159.0</ele><time>2026-05-03T17:29:35Z</time></trkpt><trkpt lat="42.681577177005614" lon="13.763017607679668"><ele>157.0</ele><time>2026-05-03T17:29:36Z</time></trkpt><trkpt lat="42.68166182920336" lon="13.763161651447456"><ele>157.0</ele><time>2026-05-03T17:29:37Z</time></trkpt><trkpt lat="42.68174812295898" lon="13.763306846582298"><ele>157.0</ele><time>2026-05-03T17:29:38Z</time></trkpt><trkpt lat="42.68183310898367" lon="13.763445823749569"><ele>157.0</ele><time>2026-05-03T17:29:39Z</time></trkpt><trkpt lat="42.68191645216608" lon="13.763579717179542"><ele>157.0</ele><time>2026-05-03T17:29:40Z</time></trkpt><trkpt lat="42.68199901429273" lon="13.76371004888395"><ele>156.5</ele><time>2026-05-03T17:29:41Z</time></trkpt><trkpt lat="42.68207939269005" lon="13.763836512209835"><ele>156.0</ele><time>2026-05-03T17:29:42Z</time></trkpt><trkpt lat="42.682158873986914" lon="13.763955066471745"><ele>155.5</ele><time>2026-05-03T17:29:43Z</time></trkpt><trkpt lat="42.682240948125944" lon="13.764064818416353"><ele>155.0</ele><time>2026-05-03T17:29:44Z</time></trkpt><trkpt lat="42.682319397086886" lon="13.764170957881054"><ele>155.0</ele><time>2026-05-03T17:29:45Z</time></trkpt><trkpt lat="42.6823939061596" lon="13.76427432078944"><ele>155.0</ele><time>2026-05-03T17:29:46Z</time></trkpt><trkpt lat="42.68246638593304" lon="13.764378418811305"><ele>155.0</ele><time>2026-05-03T17:29:47Z</time></trkpt><trkpt lat="42.68253877837826" lon="13.764489233106175"><ele>155.0</ele><time>2026-05-03T17:29:48Z</time></trkpt><trkpt lat="42.68260780450185" lon="13.764609474451479"><ele>155.0</ele><time>2026-05-03T17:29:49Z</time></trkpt><trkpt lat="42.682670458881496" lon="13.764732861636826"><ele>154.75</ele><time>2026-05-03T17:29:50Z</time></trkpt><trkpt lat="42.68272645504947" lon="13.764856627354542"><ele>154.5</ele><time>2026-05-03T17:29:51Z</time></trkpt><trkpt lat="42.682785917989136" lon="13.764990397103302"><ele>154.25</ele><time>2026-05-03T17:29:52Z</time></trkpt><trkpt lat="42.68284737642545" lon="13.765129687189933"><ele>154.0</ele><time>2026-05-03T17:29:53Z</time></trkpt><trkpt lat="42.68290885300607" lon="13.76527381172891"><ele>154.0</ele><time>2026-05-03T17:29:54Z</time></trkpt><trkpt lat="42.682972354524004" lon="13.765419166789103"><ele>154.0</ele><time>2026-05-03T17:29:55Z</time></trkpt><trkpt lat="42.68303803565856" lon="13.765567790666363"><ele>154.0</ele><time>2026-05-03T17:29:56Z</time></trkpt><trkpt lat="42.683105383195546" lon="13.765718400182038"><ele>154.0</ele><time>2026-05-03T17:29:57Z</time></trkpt><trkpt lat="42.6831690374283" lon="13.765863854896727"><ele>154.0</ele><time>2026-05-03T17:29:58Z</time></trkpt><trkpt lat="42.68322962299676" lon="13.766002974443388"><ele>154.0</ele><time>2026-05-03T17:29:59Z</time></trkpt><trkpt lat="42.68328942813901" lon="13.766137342447756"><ele>154.0</ele><time>2026-05-03T17:30:00Z</time></trkpt><trkpt lat="42.68334525160511" lon="13.766267066806911"><ele>154.0</ele><time>2026-05-03T17:30:01Z</time></trkpt><trkpt lat="42.68340065077874" lon="13.766392790992967"><ele>154.0</ele><time>2026-05-03T17:30:02Z</time></trkpt><trkpt lat="42.683454171184586" lon="13.76651386846803"><ele>154.0</ele><time>2026-05-03T17:30:03Z</time></trkpt><trkpt lat="42.68350598241598" lon="13.76662883960408"><ele>154.0</ele><time>2026-05-03T17:30:04Z</time></trkpt><trkpt lat="42.683555348111476" lon="13.766737847254449"><ele>154.0</ele><time>2026-05-03T17:30:05Z</time></trkpt><trkpt lat="42.683603956579795" lon="13.766838721014002"><ele>154.0</ele><time>2026-05-03T17:30:06Z</time></trkpt><trkpt lat="42.68366224724912" lon="13.766923845561854"><ele>155.16666666666669</ele><time>2026-05-03T17:30:07Z</time></trkpt><trkpt lat="42.683731740860104" lon="13.76698691458982"><ele>156.33333333333334</ele><time>2026-05-03T17:30:08Z</time></trkpt><trkpt lat="42.68380309630725" lon="13.76702085981661"><ele>157.5</ele><time>2026-05-03T17:30:09Z</time></trkpt><trkpt lat="42.683872266457186" lon="13.767030188870116"><ele>158.66666666666666</ele><time>2026-05-03T17:30:10Z</time></trkpt><trkpt lat="42.683945929156295" lon="13.767023873167838"><ele>159.83333333333331</ele><time>2026-05-03T17:30:11Z</time></trkpt><trkpt lat="42.68402454841331" lon="13.767012450073688"><ele>161.0</ele><time>2026-05-03T17:30:12Z</time></trkpt><trkpt lat="42.68410526538116" lon="13.766999634445638"><ele>161.0</ele><time>2026-05-03T17:30:13Z</time></trkpt><trkpt lat="42.684187787751135" lon="13.766992399562282"><ele>161.0</ele><time>2026-05-03T17:30:14Z</time></trkpt><trkpt lat="42.68426776944481" lon="13.767001076408917"><ele>161.0</ele><time>2026-05-03T17:30:15Z</time></trkpt><trkpt lat="42.68433711624727" lon="13.767032739781255"><ele>161.0</ele><time>2026-05-03T17:30:16Z</time></trkpt><trkpt lat="42.68439635390976" lon="13.767085855998152"><ele>161.0</ele><time>2026-05-03T17:30:17Z</time></trkpt><trkpt lat="42.68444554338013" lon="13.767168320967084"><ele>161.0</ele><time>2026-05-03T17:30:18Z</time></trkpt><trkpt lat="42.684473129383655" lon="13.767262125810834"><ele>161.0</ele><time>2026-05-03T17:30:19Z</time></trkpt><trkpt lat="42.68447793205292" lon="13.767353416398938"><ele>161.0</ele><time>2026-05-03T17:30:20Z</time></trkpt><trkpt lat="42.684442369695205" lon="13.767499805350182"><ele>161.0</ele><time>2026-05-03T17:30:22Z</time></trkpt><trkpt lat="42.6844011997202" lon="13.767575859915375"><ele>161.0</ele><time>2026-05-03T17:30:24Z</time></trkpt><trkpt lat="42.68434989834753" lon="13.767634271896235"><ele>161.0</ele><time>2026-05-03T17:30:26Z</time></trkpt><trkpt lat="42.68424859077983" lon="13.767702453630287"><ele>161.0</ele><time>2026-05-03T17:30:28Z</time></trkpt><trkpt lat="42.68418958871878" lon="13.767750615347802"><ele>160.33333333333331</ele><time>2026-05-03T17:30:29Z</time></trkpt><trkpt lat="42.684124173121695" lon="13.767792476500349"><ele>159.66666666666666</ele><time>2026-05-03T17:30:30Z</time></trkpt><trkpt lat="42.68408516017093" lon="13.767905728213417"><ele>159.0</ele><time>2026-05-03T17:30:31Z</time></trkpt><trkpt lat="42.684088024512604" lon="13.768023231282507"><ele>158.33333333333334</ele><time>2026-05-03T17:30:32Z</time></trkpt><trkpt lat="42.68410018700343" lon="13.768127252226812"><ele>157.66666666666669</ele><time>2026-05-03T17:30:33Z</time></trkpt><trkpt lat="42.68413120650817" lon="13.768220560930033"><ele>157.0</ele><time>2026-05-03T17:30:34Z</time></trkpt><trkpt lat="42.68418164439248" lon="13.768300437335844"><ele>157.0</ele><time>2026-05-03T17:30:35Z</time></trkpt><trkpt lat="42.684252080978546" lon="13.768351424343935"><ele>157.0</ele><time>2026-05-03T17:30:36Z</time></trkpt><trkpt lat="42.684338380989175" lon="13.768363657389896"><ele>157.0</ele><time>2026-05-03T17:30:37Z</time></trkpt><trkpt lat="42.68442887658755" lon="13.768343177416133"><ele>157.0</ele><time>2026-05-03T17:30:38Z</time></trkpt><trkpt lat="42.68451661725739" lon="13.768289502439107"><ele>157.0</ele><time>2026-05-03T17:30:39Z</time></trkpt><trkpt lat="42.68459841551854" lon="13.76821063021777"><ele>158.75</ele><time>2026-05-03T17:30:40Z</time></trkpt><trkpt lat="42.68468373090654" lon="13.768130837599264"><ele>160.5</ele><time>2026-05-03T17:30:41Z</time></trkpt><trkpt lat="42.6847851046104" lon="13.768081774722372"><ele>162.25</ele><time>2026-05-03T17:30:42Z</time></trkpt><trkpt lat="42.68490058120461" lon="13.768052147003466"><ele>164.0</ele><time>2026-05-03T17:30:43Z</time></trkpt><trkpt lat="42.68504276423086" lon="13.7680906347638"><ele>164.0</ele><time>2026-05-03T17:30:44Z</time></trkpt><trkpt lat="42.685167739510895" lon="13.768120442645952"><ele>164.0</ele><time>2026-05-03T17:30:45Z</time></trkpt><trkpt lat="42.685302023335716" lon="13.768118384689311"><ele>164.0</ele><time>2026-05-03T17:30:46Z</time></trkpt><trkpt lat="42.68545696741051" lon="13.768171722499586"><ele>164.0</ele><time>2026-05-03T17:30:47Z</time></trkpt><trkpt lat="42.685602625529334" lon="13.768191971692378"><ele>165.0</ele><time>2026-05-03T17:30:48Z</time></trkpt><trkpt lat="42.685751491771256" lon="13.768214232145692"><ele>166.0</ele><time>2026-05-03T17:30:49Z</time></trkpt><trkpt lat="42.68589327214625" lon="13.768230743431717"><ele>167.0</ele><time>2026-05-03T17:30:50Z</time></trkpt><trkpt lat="42.68603531427092" lon="13.768259960463308"><ele>168.0</ele><time>2026-05-03T17:30:51Z</time></trkpt><trkpt lat="42.686180255278614" lon="13.768300856476728"><ele>168.25</ele><time>2026-05-03T17:30:52Z</time></trkpt><trkpt lat="42.686321587695176" lon="13.768357603358872"><ele>168.5</ele><time>2026-05-03T17:30:53Z</time></trkpt><trkpt lat="42.686459597995885" lon="13.768427160591678"><ele>168.75</ele><time>2026-05-03T17:30:54Z</time></trkpt><trkpt lat="42.68659848163639" lon="13.76850761234287"><ele>169.0</ele><time>2026-05-03T17:30:55Z</time></trkpt><trkpt lat="42.68673366333154" lon="13.768604129114264"><ele>169.0</ele><time>2026-05-03T17:30:56Z</time></trkpt><trkpt lat="42.686866949679384" lon="13.76871030490688"><ele>169.0</ele><time>2026-05-03T17:30:57Z</time></trkpt><trkpt lat="42.68700022629986" lon="13.768832216141698"><ele>169.0</ele><time>2026-05-03T17:30:58Z</time></trkpt><trkpt lat="42.687136302694356" lon="13.768965775033378"><ele>170.0</ele><time>2026-05-03T17:30:59Z</time></trkpt><trkpt lat="42.687257035484805" lon="13.769114490754884"><ele>171.0</ele><time>2026-05-03T17:31:00Z</time></trkpt><trkpt lat="42.68737463648184" lon="13.769277455613556"><ele>172.0</ele><time>2026-05-03T17:31:01Z</time></trkpt><trkpt lat="42.68748494491308" lon="13.769452495380175"><ele>172.0</ele><time>2026-05-03T17:31:02Z</time></trkpt><trkpt lat="42.68758705013458" lon="13.76963792345946"><ele>172.0</ele><time>2026-05-03T17:31:03Z</time></trkpt><trkpt lat="42.68767832363503" lon="13.769834699822825"><ele>172.0</ele><time>2026-05-03T17:31:04Z</time></trkpt><trkpt lat="42.6877605070525" lon="13.770040643457023"><ele>167.33333333333334</ele><time>2026-05-03T17:31:05Z</time></trkpt><trkpt lat="42.68784523929041" lon="13.7702458723885"><ele>162.66666666666666</ele><time>2026-05-03T17:31:06Z</time></trkpt><trkpt lat="42.68792921892298" lon="13.770452734974107"><ele>158.0</ele><time>2026-05-03T17:31:07Z</time></trkpt><trkpt lat="42.688017916551004" lon="13.770663799705993"><ele>158.0</ele><time>2026-05-03T17:31:08Z</time></trkpt><trkpt lat="42.68810732524705" lon="13.770874740293403"><ele>158.0</ele><time>2026-05-03T17:31:09Z</time></trkpt><trkpt lat="42.688197506326006" lon="13.771090516123914"><ele>158.0</ele><time>2026-05-03T17:31:10Z</time></trkpt><trkpt lat="42.688288166589444" lon="13.771309968008518"><ele>156.0</ele><time>2026-05-03T17:31:11Z</time></trkpt><trkpt lat="42.68838036445143" lon="13.771531999656746"><ele>154.0</ele><time>2026-05-03T17:31:12Z</time></trkpt><trkpt lat="42.68847525125343" lon="13.771756529496137"><ele>152.0</ele><time>2026-05-03T17:31:13Z</time></trkpt><trkpt lat="42.68857167917857" lon="13.771985727646666"><ele>150.66666666666666</ele><time>2026-05-03T17:31:14Z</time></trkpt><trkpt lat="42.68866688758061" lon="13.772215608773179"><ele>149.33333333333334</ele><time>2026-05-03T17:31:15Z</time></trkpt><trkpt lat="42.68876568652957" lon="13.772448561337432"><ele>148.0</ele><time>2026-05-03T17:31:16Z</time></trkpt><trkpt lat="42.68886698562162" lon="13.772683569318797"><ele>147.33333333333334</ele><time>2026-05-03T17:31:17Z</time></trkpt><trkpt lat="42.688962908699466" lon="13.772927909651017"><ele>146.66666666666666</ele><time>2026-05-03T17:31:18Z</time></trkpt><trkpt lat="42.689061887546124" lon="13.773172215763589"><ele>146.0</ele><time>2026-05-03T17:31:19Z</time></trkpt><trkpt lat="42.68916264812944" lon="13.773414720588708"><ele>145.66666666666666</ele><time>2026-05-03T17:31:20Z</time></trkpt><trkpt lat="42.6892687601983" lon="13.773657165378552"><ele>145.33333333333334</ele><time>2026-05-03T17:31:21Z</time></trkpt><trkpt lat="42.689366288502704" lon="13.77390341357716"><ele>145.0</ele><time>2026-05-03T17:31:22Z</time></trkpt><trkpt lat="42.689465959843346" lon="13.774148711234432"><ele>145.33333333333334</ele><time>2026-05-03T17:31:23Z</time></trkpt><trkpt lat="42.689566288055204" lon="13.774393029952298"><ele>145.66666666666666</ele><time>2026-05-03T17:31:24Z</time></trkpt><trkpt lat="42.68966504948334" lon="13.774635553109533"><ele>146.0</ele><time>2026-05-03T17:31:25Z</time></trkpt><trkpt lat="42.689761406397174" lon="13.774876338852103"><ele>146.0</ele><time>2026-05-03T17:31:26Z</time></trkpt><trkpt lat="42.689859103953644" lon="13.775118000784207"><ele>146.0</ele><time>2026-05-03T17:31:27Z</time></trkpt><trkpt lat="42.689956495269605" lon="13.775357218397417"><ele>146.0</ele><time>2026-05-03T17:31:28Z</time></trkpt><trkpt lat="42.69005676858137" lon="13.775598597504688"><ele>146.0</ele><time>2026-05-03T17:31:29Z</time></trkpt><trkpt lat="42.6901584069726" lon="13.77583887006519"><ele>146.0</ele><time>2026-05-03T17:31:30Z</time></trkpt><trkpt lat="42.690259061840464" lon="13.77607800289101"><ele>146.0</ele><time>2026-05-03T17:31:31Z</time></trkpt><trkpt lat="42.69035660294709" lon="13.776317696458403"><ele>148.0</ele><time>2026-05-03T17:31:32Z</time></trkpt><trkpt lat="42.69045445728073" lon="13.776552446252301"><ele>150.0</ele><time>2026-05-03T17:31:33Z</time></trkpt><trkpt lat="42.69055346553378" lon="13.776786019910801"><ele>152.0</ele><time>2026-05-03T17:31:34Z</time></trkpt><trkpt lat="42.69064959761402" lon="13.777016376967898"><ele>153.0</ele><time>2026-05-03T17:31:35Z</time></trkpt><trkpt lat="42.69074299796043" lon="13.77724216989519"><ele>154.0</ele><time>2026-05-03T17:31:36Z</time></trkpt><trkpt lat="42.69083163834652" lon="13.777460447078802"><ele>155.0</ele><time>2026-05-03T17:31:37Z</time></trkpt><trkpt lat="42.690915705149706" lon="13.777669419228248"><ele>156.33333333333331</ele><time>2026-05-03T17:31:38Z</time></trkpt><trkpt lat="42.69099328190167" lon="13.777866276081934"><ele>157.66666666666666</ele><time>2026-05-03T17:31:39Z</time></trkpt><trkpt lat="42.69106622801687" lon="13.778049050015763"><ele>159.0</ele><time>2026-05-03T17:31:40Z</time></trkpt><trkpt lat="42.691129141081596" lon="13.77821245185833"><ele>159.8</ele><time>2026-05-03T17:31:41Z</time></trkpt><trkpt lat="42.6911817541373" lon="13.778347764670631"><ele>160.60000000000002</ele><time>2026-05-03T17:31:42Z</time></trkpt><trkpt lat="42.69122308907155" lon="13.778460528839693"><ele>161.4</ele><time>2026-05-03T17:31:43Z</time></trkpt><trkpt lat="42.691248524123935" lon="13.7785501275611"><ele>162.20000000000002</ele><time>2026-05-03T17:31:44Z</time></trkpt><trkpt lat="42.69127629496734" lon="13.77865735137375"><ele>163.0</ele><time>2026-05-03T17:31:46Z</time></trkpt><trkpt lat="42.691155566310165" lon="13.7787557169555"><ele>163.2</ele><time>2026-05-03T17:31:47Z</time></trkpt><trkpt lat="42.69111263167993" lon="13.778838261575892"><ele>163.4</ele><time>2026-05-03T17:31:48Z</time></trkpt><trkpt lat="42.69098664525709" lon="13.778848129130209"><ele>163.6</ele><time>2026-05-03T17:31:49Z</time></trkpt><trkpt lat="42.69087634197111" lon="13.77891151997073"><ele>163.79999999999998</ele><time>2026-05-03T17:31:50Z</time></trkpt><trkpt lat="42.690767420753296" lon="13.778976410186996"><ele>164.0</ele><time>2026-05-03T17:31:51Z</time></trkpt><trkpt lat="42.69066291935955" lon="13.779039399969918"><ele>163.0</ele><time>2026-05-03T17:31:52Z</time></trkpt><trkpt lat="42.69055952699666" lon="13.779102034865755"><ele>162.0</ele><time>2026-05-03T17:31:53Z</time></trkpt><trkpt lat="42.69045597619019" lon="13.779161309936523"><ele>161.0</ele><time>2026-05-03T17:31:54Z</time></trkpt><trkpt lat="42.690353558666274" lon="13.779208878560716"><ele>160.0</ele><time>2026-05-03T17:31:55Z</time></trkpt><trkpt lat="42.69026338418056" lon="13.779238888559643"><ele>159.0</ele><time>2026-05-03T17:31:56Z</time></trkpt><trkpt lat="42.69018273442032" lon="13.779255834915249"><ele>158.33333333333334</ele><time>2026-05-03T17:31:57Z</time></trkpt><trkpt lat="42.69009965534981" lon="13.779246852216344"><ele>157.66666666666666</ele><time>2026-05-03T17:31:58Z</time></trkpt><trkpt lat="42.69001984013288" lon="13.779219222546786"><ele>157.0</ele><time>2026-05-03T17:31:59Z</time></trkpt><trkpt lat="42.68995448116917" lon="13.779187981161906"><ele>156.33333333333331</ele><time>2026-05-03T17:32:00Z</time></trkpt><trkpt lat="42.689879126527394" lon="13.779137265469535"><ele>155.66666666666666</ele><time>2026-05-03T17:32:02Z</time></trkpt><trkpt lat="42.68981034943086" lon="13.779079200292612"><ele>155.0</ele><time>2026-05-03T17:32:13Z</time></trkpt><trkpt lat="42.68973989513417" lon="13.778995494231836"><ele>155.0</ele><time>2026-05-03T17:32:15Z</time></trkpt><trkpt lat="42.68967831447423" lon="13.778907523081457"><ele>155.0</ele><time>2026-05-03T17:32:17Z</time></trkpt><trkpt lat="42.68960651911451" lon="13.778802196527153"><ele>155.0</ele><time>2026-05-03T17:32:19Z</time></trkpt><trkpt lat="42.68952019720186" lon="13.778679426089216"><ele>155.0</ele><time>2026-05-03T17:32:21Z</time></trkpt><trkpt lat="42.68947011784205" lon="13.778608412702098"><ele>155.0</ele><time>2026-05-03T17:32:22Z</time></trkpt><trkpt lat="42.689415155594446" lon="13.778532254559995"><ele>154.5</ele><time>2026-05-03T17:32:23Z</time></trkpt><trkpt lat="42.68935730545051" lon="13.778453197605659"><ele>154.0</ele><time>2026-05-03T17:32:24Z</time></trkpt><trkpt lat="42.68929907199985" lon="13.778374958020864"><ele>153.5</ele><time>2026-05-03T17:32:25Z</time></trkpt><trkpt lat="42.6892561481182" lon="13.77827390122802"><ele>153.0</ele><time>2026-05-03T17:32:26Z</time></trkpt><trkpt lat="42.689198641342294" lon="13.77818411162748"><ele>152.5</ele><time>2026-05-03T17:32:27Z</time></trkpt><trkpt lat="42.689137920185026" lon="13.778089303178746"><ele>152.0</ele><time>2026-05-03T17:32:28Z</time></trkpt><trkpt lat="42.68907533012877" lon="13.777993339311411"><ele>152.0</ele><time>2026-05-03T17:32:29Z</time></trkpt><trkpt lat="42.689011647291494" lon="13.777899916899967"><ele>152.0</ele><time>2026-05-03T17:32:30Z</time></trkpt><trkpt lat="42.68894531793887" lon="13.777807024246771"><ele>152.0</ele><time>2026-05-03T17:32:31Z</time></trkpt><trkpt lat="42.68887860115568" lon="13.777715437447014"><ele>152.0</ele><time>2026-05-03T17:32:32Z</time></trkpt><trkpt lat="42.68881176939247" lon="13.77762369281504"><ele>152.0</ele><time>2026-05-03T17:32:33Z</time></trkpt><trkpt lat="42.68874148565472" lon="13.777525112354004"><ele>151.25</ele><time>2026-05-03T17:32:34Z</time></trkpt><trkpt lat="42.688656890651" lon="13.777435185782883"><ele>150.5</ele><time>2026-05-03T17:32:35Z</time></trkpt><trkpt lat="42.68859617098668" lon="13.777312536088663"><ele>149.75</ele><time>2026-05-03T17:32:36Z</time></trkpt><trkpt lat="42.68851735165188" lon="13.77719388042025"><ele>149.0</ele><time>2026-05-03T17:32:37Z</time></trkpt><trkpt lat="42.68843508682442" lon="13.777072523460543"><ele>148.25</ele><time>2026-05-03T17:32:38Z</time></trkpt><trkpt lat="42.68835084685492" lon="13.776949853994768"><ele>147.5</ele><time>2026-05-03T17:32:39Z</time></trkpt><trkpt lat="42.68826954095803" lon="13.776831565536538"><ele>146.75</ele><time>2026-05-03T17:32:40Z</time></trkpt><trkpt lat="42.688189106582186" lon="13.776715912459924"><ele>146.0</ele><time>2026-05-03T17:32:41Z</time></trkpt><trkpt lat="42.688107890614354" lon="13.77659913556748"><ele>145.5</ele><time>2026-05-03T17:32:42Z</time></trkpt><trkpt lat="42.68802571601244" lon="13.7764823329238"><ele>145.0</ele><time>2026-05-03T17:32:43Z</time></trkpt><trkpt lat="42.687944082352864" lon="13.776366442278137"><ele>144.5</ele><time>2026-05-03T17:32:44Z</time></trkpt><trkpt lat="42.687850862316445" lon="13.776264638214199"><ele>144.0</ele><time>2026-05-03T17:32:45Z</time></trkpt><trkpt lat="42.68777125959651" lon="13.776149706377227"><ele>144.4</ele><time>2026-05-03T17:32:46Z</time></trkpt><trkpt lat="42.68770890853836" lon="13.77602286102721"><ele>144.8</ele><time>2026-05-03T17:32:47Z</time></trkpt><trkpt lat="42.68763919388859" lon="13.775912358355326"><ele>145.2</ele><time>2026-05-03T17:32:48Z</time></trkpt><trkpt lat="42.687567628166924" lon="13.775796468058365"><ele>145.6</ele><time>2026-05-03T17:32:49Z</time></trkpt><trkpt lat="42.68749564164875" lon="13.775675401590508"><ele>146.0</ele><time>2026-05-03T17:32:50Z</time></trkpt><trkpt lat="42.68742224967692" lon="13.775551683704824"><ele>146.0</ele><time>2026-05-03T17:32:51Z</time></trkpt><trkpt lat="42.687360923225285" lon="13.775428700689421"><ele>146.0</ele><time>2026-05-03T17:32:52Z</time></trkpt><trkpt lat="42.6873012337693" lon="13.775298522213271"><ele>146.0</ele><time>2026-05-03T17:32:53Z</time></trkpt><trkpt lat="42.687243116658955" lon="13.77516371852256"><ele>146.0</ele><time>2026-05-03T17:32:54.001Z</time></trkpt><trkpt lat="42.68718348407034" lon="13.775027155398703"><ele>146.4</ele><time>2026-05-03T17:32:55.001Z</time></trkpt><trkpt lat="42.68715561758093" lon="13.774870406090061"><ele>146.8</ele><time>2026-05-03T17:32:56.001Z</time></trkpt><trkpt lat="42.687134021220594" lon="13.774716037621308"><ele>147.20000000000002</ele><time>2026-05-03T17:32:57.001Z</time></trkpt><trkpt lat="42.68711927324497" lon="13.774575686004695"><ele>147.6</ele><time>2026-05-03T17:32:58.001Z</time></trkpt><trkpt lat="42.68711117275397" lon="13.774448192200182"><ele>148.0</ele><time>2026-05-03T17:32:59.001Z</time></trkpt><trkpt lat="42.68711736112316" lon="13.774324078491643"><ele>148.8</ele><time>2026-05-03T17:33:00.001Z</time></trkpt><trkpt lat="42.68714346133231" lon="13.77420360378863"><ele>149.60000000000002</ele><time>2026-05-03T17:33:01.001Z</time></trkpt><trkpt lat="42.68718846978508" lon="13.77409135975113"><ele>150.39999999999998</ele><time>2026-05-03T17:33:02.001Z</time></trkpt><trkpt lat="42.6872515064751" lon="13.773986769196998"><ele>151.2</ele><time>2026-05-03T17:33:03.001Z</time></trkpt><trkpt lat="42.6872555563286" lon="13.773865755270522"><ele>152.0</ele><time>2026-05-03T17:33:04.001Z</time></trkpt><trkpt lat="42.68739849499918" lon="13.773804297621439"><ele>152.0</ele><time>2026-05-03T17:33:05.001Z</time></trkpt><trkpt lat="42.687473177202264" lon="13.773729493407275"><ele>152.0</ele><time>2026-05-03T17:33:06.001Z</time></trkpt><trkpt lat="42.68755866381842" lon="13.773660009219627"><ele>152.0</ele><time>2026-05-03T17:33:07.001Z</time></trkpt><trkpt lat="42.68766136859275" lon="13.773600535991577"><ele>152.0</ele><time>2026-05-03T17:33:08.001Z</time></trkpt><trkpt lat="42.687771779289015" lon="13.773543432990728"><ele>152.0</ele><time>2026-05-03T17:33:09.001Z</time></trkpt><trkpt lat="42.687885388052415" lon="13.773474262873988"><ele>150.5</ele><time>2026-05-03T17:33:10.001Z</time></trkpt><trkpt lat="42.6879967413224" lon="13.773387689338742"><ele>149.0</ele><time>2026-05-03T17:33:11.001Z</time></trkpt><trkpt lat="42.68810016213167" lon="13.773284142849969"><ele>147.5</ele><time>2026-05-03T17:33:12.001Z</time></trkpt><trkpt lat="42.68819843919107" lon="13.773169439247795"><ele>146.0</ele><time>2026-05-03T17:33:13.001Z</time></trkpt><trkpt lat="42.68829765917618" lon="13.773054144488228"><ele>146.0</ele><time>2026-05-03T17:33:14.001Z</time></trkpt><trkpt lat="42.68839990306591" lon="13.77293221672117"><ele>146.0</ele><time>2026-05-03T17:33:15.001Z</time></trkpt><trkpt lat="42.688506527568606" lon="13.77281205467448"><ele>146.0</ele><time>2026-05-03T17:33:16.001Z</time></trkpt><trkpt lat="42.68861483387692" lon="13.772690941658913"><ele>146.0</ele><time>2026-05-03T17:33:17.001Z</time></trkpt><trkpt lat="42.688725478047964" lon="13.772570904579496"><ele>146.5</ele><time>2026-05-03T17:33:18Z</time></trkpt><trkpt lat="42.68883486136528" lon="13.772447962957818"><ele>147.0</ele><time>2026-05-03T17:33:19Z</time></trkpt><trkpt lat="42.688944876783225" lon="13.772325955428101"><ele>147.5</ele><time>2026-05-03T17:33:20Z</time></trkpt><trkpt lat="42.68905288461966" lon="13.772202116406262"><ele>148.0</ele><time>2026-05-03T17:33:21Z</time></trkpt><trkpt lat="42.689161179659756" lon="13.77207832337944"><ele>148.0</ele><time>2026-05-03T17:33:22Z</time></trkpt><trkpt lat="42.689264902697815" lon="13.771959176185415"><ele>148.0</ele><time>2026-05-03T17:33:23Z</time></trkpt><trkpt lat="42.68935759665765" lon="13.771837327329889"><ele>148.0</ele><time>2026-05-03T17:33:24Z</time></trkpt><trkpt lat="42.6894495191287" lon="13.77171515781902"><ele>148.0</ele><time>2026-05-03T17:33:25Z</time></trkpt><trkpt lat="42.689539093164484" lon="13.771597805814125"><ele>148.5</ele><time>2026-05-03T17:33:26Z</time></trkpt><trkpt lat="42.689628071448524" lon="13.771485669253435"><ele>149.0</ele><time>2026-05-03T17:33:27Z</time></trkpt><trkpt lat="42.68971740829702" lon="13.771377684917056"><ele>149.5</ele><time>2026-05-03T17:33:28Z</time></trkpt><trkpt lat="42.68980785141312" lon="13.77127781785693"><ele>150.0</ele><time>2026-05-03T17:33:29Z</time></trkpt><trkpt lat="42.68989473085034" lon="13.771186483132155"><ele>150.0</ele><time>2026-05-03T17:33:30Z</time></trkpt><trkpt lat="42.68998378619589" lon="13.771110582248886"><ele>150.0</ele><time>2026-05-03T17:33:31Z</time></trkpt><trkpt lat="42.69007604292835" lon="13.771049788103761"><ele>150.0</ele><time>2026-05-03T17:33:32Z</time></trkpt><trkpt lat="42.69016427762973" lon="13.77098396873925"><ele>150.0</ele><time>2026-05-03T17:33:33Z</time></trkpt><trkpt lat="42.69024456554747" lon="13.770898066478113"><ele>150.0</ele><time>2026-05-03T17:33:34Z</time></trkpt><trkpt lat="42.690299694684754" lon="13.770782711438148"><ele>150.25</ele><time>2026-05-03T17:33:35Z</time></trkpt><trkpt lat="42.69034347565174" lon="13.770647949941555"><ele>150.5</ele><time>2026-05-03T17:33:36Z</time></trkpt><trkpt lat="42.69041321817487" lon="13.770498767895267"><ele>150.75</ele><time>2026-05-03T17:33:37Z</time></trkpt><trkpt lat="42.690507009113915" lon="13.770350764831537"><ele>151.0</ele><time>2026-05-03T17:33:38Z</time></trkpt><trkpt lat="42.69063335453552" lon="13.77022239439347"><ele>152.33333333333334</ele><time>2026-05-03T17:33:39Z</time></trkpt><trkpt lat="42.69074690733627" lon="13.770080853784545"><ele>153.66666666666666</ele><time>2026-05-03T17:33:40Z</time></trkpt><trkpt lat="42.690860555754796" lon="13.769935825196093"><ele>155.0</ele><time>2026-05-03T17:33:41Z</time></trkpt><trkpt lat="42.690966471738086" lon="13.76977051727261"><ele>155.0</ele><time>2026-05-03T17:33:42Z</time></trkpt><trkpt lat="42.69108492706328" lon="13.76961937904485"><ele>155.0</ele><time>2026-05-03T17:33:43Z</time></trkpt><trkpt lat="42.69120375416384" lon="13.769469974690287"><ele>155.0</ele><time>2026-05-03T17:33:44Z</time></trkpt><trkpt lat="42.69132413688131" lon="13.769320549121034"><ele>156.33333333333331</ele><time>2026-05-03T17:33:45Z</time></trkpt><trkpt lat="42.69144863578142" lon="13.769174733266413"><ele>157.66666666666666</ele><time>2026-05-03T17:33:46Z</time></trkpt><trkpt lat="42.6915767130918" lon="13.769028162706313"><ele>159.0</ele><time>2026-05-03T17:33:47Z</time></trkpt><trkpt lat="42.69170915597533" lon="13.768878896611497"><ele>159.0</ele><time>2026-05-03T17:33:48Z</time></trkpt><trkpt lat="42.69184432021165" lon="13.768728822097671"><ele>159.0</ele><time>2026-05-03T17:33:49Z</time></trkpt><trkpt lat="42.691982937419645" lon="13.768578394092902"><ele>159.0</ele><time>2026-05-03T17:33:50Z</time></trkpt><trkpt lat="42.6921264520627" lon="13.768430554617446"><ele>158.0</ele><time>2026-05-03T17:33:51Z</time></trkpt><trkpt lat="42.692274281713566" lon="13.768287385468525"><ele>157.0</ele><time>2026-05-03T17:33:52Z</time></trkpt><trkpt lat="42.69243009027236" lon="13.76815236289569"><ele>156.0</ele><time>2026-05-03T17:33:53Z</time></trkpt><trkpt lat="42.69259360651968" lon="13.768020589143706"><ele>156.66666666666666</ele><time>2026-05-03T17:33:54Z</time></trkpt><trkpt lat="42.692764999894884" lon="13.767884226034086"><ele>157.33333333333331</ele><time>2026-05-03T17:33:55Z</time></trkpt><trkpt lat="42.69294771676068" lon="13.76775523444346"><ele>158.0</ele><time>2026-05-03T17:33:56Z</time></trkpt><trkpt lat="42.693133697401294" lon="13.767640916381275"><ele>158.0</ele><time>2026-05-03T17:33:57Z</time></trkpt><trkpt lat="42.69332332859851" lon="13.767531784178693"><ele>158.0</ele><time>2026-05-03T17:33:58Z</time></trkpt><trkpt lat="42.69351785409132" lon="13.767428914442645"><ele>158.0</ele><time>2026-05-03T17:33:59Z</time></trkpt><trkpt lat="42.693716366894215" lon="13.767329144318758"><ele>158.0</ele><time>2026-05-03T17:34:00Z</time></trkpt><trkpt lat="42.693926110803346" lon="13.7672543331078"><ele>158.0</ele><time>2026-05-03T17:34:01Z</time></trkpt><trkpt lat="42.69412544418297" lon="13.767141918852026"><ele>158.0</ele><time>2026-05-03T17:34:02Z</time></trkpt><trkpt lat="42.694327041608375" lon="13.767051942255424"><ele>158.0</ele><time>2026-05-03T17:34:03Z</time></trkpt><trkpt lat="42.6945281485438" lon="13.766957211885234"><ele>158.0</ele><time>2026-05-03T17:34:04Z</time></trkpt><trkpt lat="42.69473117559799" lon="13.766864273775226"><ele>158.0</ele><time>2026-05-03T17:34:05Z</time></trkpt><trkpt lat="42.69493157928834" lon="13.766767028987857"><ele>158.0</ele><time>2026-05-03T17:34:06Z</time></trkpt><trkpt lat="42.69513002028962" lon="13.766672993313925"><ele>158.0</ele><time>2026-05-03T17:34:07Z</time></trkpt><trkpt lat="42.695328960721646" lon="13.76658811563013"><ele>158.0</ele><time>2026-05-03T17:34:08Z</time></trkpt><trkpt lat="42.69553486062793" lon="13.766491439394787"><ele>158.66666666666666</ele><time>2026-05-03T17:34:09Z</time></trkpt><trkpt lat="42.69573758470867" lon="13.76640144040788"><ele>159.33333333333334</ele><time>2026-05-03T17:34:10Z</time></trkpt><trkpt lat="42.69594080534996" lon="13.766310578749371"><ele>160.0</ele><time>2026-05-03T17:34:11Z</time></trkpt><trkpt lat="42.69613238024749" lon="13.766223038081632"><ele>160.33333333333334</ele><time>2026-05-03T17:34:12Z</time></trkpt><trkpt lat="42.696319216434105" lon="13.766137841594665"><ele>160.66666666666666</ele><time>2026-05-03T17:34:13Z</time></trkpt><trkpt lat="42.69650653622335" lon="13.766051289696886"><ele>161.0</ele><time>2026-05-03T17:34:14Z</time></trkpt><trkpt lat="42.696696100797205" lon="13.765964329308071"><ele>161.33333333333331</ele><time>2026-05-03T17:34:15Z</time></trkpt><trkpt lat="42.69688194716869" lon="13.765879550495312"><ele>161.66666666666666</ele><time>2026-05-03T17:34:16Z</time></trkpt><trkpt lat="42.697067393666025" lon="13.765794366335292"><ele>162.0</ele><time>2026-05-03T17:34:17Z</time></trkpt><trkpt lat="42.697250523024174" lon="13.765705955945998"><ele>162.33333333333334</ele><time>2026-05-03T17:34:18Z</time></trkpt><trkpt lat="42.697432841613804" lon="13.765620356233645"><ele>162.66666666666669</ele><time>2026-05-03T17:34:19Z</time></trkpt><trkpt lat="42.697615106701925" lon="13.765525441478037"><ele>163.0</ele><time>2026-05-03T17:34:20Z</time></trkpt><trkpt lat="42.69779149812222" lon="13.765426470524151"><ele>163.0</ele><time>2026-05-03T17:34:21Z</time></trkpt><trkpt lat="42.697967662116405" lon="13.765319544816052"><ele>163.0</ele><time>2026-05-03T17:34:22Z</time></trkpt><trkpt lat="42.69813956395004" lon="13.765206086805364"><ele>163.0</ele><time>2026-05-03T17:34:23Z</time></trkpt><trkpt lat="42.698309213908274" lon="13.765077415770895"><ele>163.0</ele><time>2026-05-03T17:34:24Z</time></trkpt><trkpt lat="42.69847714441349" lon="13.764938764319615"><ele>163.0</ele><time>2026-05-03T17:34:25Z</time></trkpt><trkpt lat="42.69864189703537" lon="13.76478889541372"><ele>163.0</ele><time>2026-05-03T17:34:26Z</time></trkpt><trkpt lat="42.6988027197123" lon="13.764627775006394"><ele>162.66666666666669</ele><time>2026-05-03T17:34:27Z</time></trkpt><trkpt lat="42.69896219877299" lon="13.764457873566702"><ele>162.33333333333334</ele><time>2026-05-03T17:34:28Z</time></trkpt><trkpt lat="42.699114458712394" lon="13.7642790360756"><ele>162.0</ele><time>2026-05-03T17:34:29Z</time></trkpt><trkpt lat="42.69925902706071" lon="13.764094871952244"><ele>162.0</ele><time>2026-05-03T17:34:30Z</time></trkpt><trkpt lat="42.69939683086869" lon="13.763897491668686"><ele>162.0</ele><time>2026-05-03T17:34:31Z</time></trkpt><trkpt lat="42.69952688504251" lon="13.763694466030339"><ele>162.0</ele><time>2026-05-03T17:34:32Z</time></trkpt><trkpt lat="42.699648266904866" lon="13.763483725451172"><ele>165.0</ele><time>2026-05-03T17:34:33Z</time></trkpt><trkpt lat="42.69975940480372" lon="13.763272830557957"><ele>168.0</ele><time>2026-05-03T17:34:34Z</time></trkpt><trkpt lat="42.69986525107002" lon="13.763056643299187"><ele>171.0</ele><time>2026-05-03T17:34:35Z</time></trkpt><trkpt lat="42.699963092680406" lon="13.762836866528875"><ele>170.33333333333334</ele><time>2026-05-03T17:34:36Z</time></trkpt><trkpt lat="42.70005272880552" lon="13.762626690333521"><ele>169.66666666666669</ele><time>2026-05-03T17:34:37Z</time></trkpt><trkpt lat="42.700135193500216" lon="13.762416094765536"><ele>169.0</ele><time>2026-05-03T17:34:38Z</time></trkpt><trkpt lat="42.70021685435698" lon="13.762204207965212"><ele>170.0</ele><time>2026-05-03T17:34:39Z</time></trkpt><trkpt lat="42.700295821690794" lon="13.761991619854214"><ele>171.0</ele><time>2026-05-03T17:34:40Z</time></trkpt><trkpt lat="42.70037566133433" lon="13.761775336911994"><ele>172.0</ele><time>2026-05-03T17:34:41Z</time></trkpt><trkpt lat="42.700457086812676" lon="13.761556125316059"><ele>172.0</ele><time>2026-05-03T17:34:42Z</time></trkpt><trkpt lat="42.70053941220801" lon="13.761332559386437"><ele>172.0</ele><time>2026-05-03T17:34:43Z</time></trkpt><trkpt lat="42.70062134101692" lon="13.761110707152863"><ele>172.0</ele><time>2026-05-03T17:34:44Z</time></trkpt><trkpt lat="42.700715196516065" lon="13.760898692962328"><ele>172.0</ele><time>2026-05-03T17:34:45Z</time></trkpt><trkpt lat="42.700799753412035" lon="13.76066769343391"><ele>172.0</ele><time>2026-05-03T17:34:46Z</time></trkpt><trkpt lat="42.700894971678245" lon="13.760407568175076"><ele>172.0</ele><time>2026-05-03T17:34:47Z</time></trkpt><trkpt lat="42.70100190113446" lon="13.760115449315666"><ele>173.5</ele><time>2026-05-03T17:34:48Z</time></trkpt><trkpt lat="42.70111603943227" lon="13.759803636587169"><ele>175.0</ele><time>2026-05-03T17:34:49Z</time></trkpt><trkpt lat="42.701233760881" lon="13.759482035488803"><ele>174.5</ele><time>2026-05-03T17:34:50Z</time></trkpt><trkpt lat="42.701345374327616" lon="13.759177120165113"><ele>174.0</ele><time>2026-05-03T17:34:51Z</time></trkpt><trkpt lat="42.70144847175147" lon="13.758895447901676"><ele>174.0</ele><time>2026-05-03T17:34:52Z</time></trkpt><trkpt lat="42.70154337961795" lon="13.758635473212468"><ele>174.0</ele><time>2026-05-03T17:34:53Z</time></trkpt><trkpt lat="42.701633581285186" lon="13.758389461326432"><ele>174.0</ele><time>2026-05-03T17:34:54Z</time></trkpt><trkpt lat="42.70170488888102" lon="13.758148749156252"><ele>174.33333333333334</ele><time>2026-05-03T17:34:55Z</time></trkpt><trkpt lat="42.701789645091544" lon="13.757921488207012"><ele>174.66666666666669</ele><time>2026-05-03T17:34:56Z</time></trkpt><trkpt lat="42.70186864245933" lon="13.757702311701866"><ele>175.0</ele><time>2026-05-03T17:34:57Z</time></trkpt><trkpt lat="42.70195045607582" lon="13.757478038732543"><ele>175.33333333333334</ele><time>2026-05-03T17:34:58Z</time></trkpt><trkpt lat="42.702038614555484" lon="13.757241632516866"><ele>175.66666666666666</ele><time>2026-05-03T17:34:59Z</time></trkpt><trkpt lat="42.702141094473255" lon="13.75699974538538"><ele>176.0</ele><time>2026-05-03T17:35:00.001Z</time></trkpt><trkpt lat="42.70223579435822" lon="13.756736560050161"><ele>176.0</ele><time>2026-05-03T17:35:01.001Z</time></trkpt><trkpt lat="42.702338849809934" lon="13.756469591716192"><ele>176.0</ele><time>2026-05-03T17:35:02.001Z</time></trkpt><trkpt lat="42.702441910583346" lon="13.756211041485203"><ele>176.0</ele><time>2026-05-03T17:35:03.001Z</time></trkpt><trkpt lat="42.70254407529095" lon="13.755959899018665"><ele>176.0</ele><time>2026-05-03T17:35:04.001Z</time></trkpt><trkpt lat="42.70263689521093" lon="13.755698498760765"><ele>176.0</ele><time>2026-05-03T17:35:05.001Z</time></trkpt><trkpt lat="42.70274475871027" lon="13.75546101295303"><ele>176.0</ele><time>2026-05-03T17:35:06.001Z</time></trkpt><trkpt lat="42.70287994536318" lon="13.755224590733768"><ele>178.0</ele><time>2026-05-03T17:35:07.001Z</time></trkpt><trkpt lat="42.703009949852216" lon="13.754968649179267"><ele>180.0</ele><time>2026-05-03T17:35:08.001Z</time></trkpt><trkpt lat="42.7031414740135" lon="13.75471991550263"><ele>180.0</ele><time>2026-05-03T17:35:09.001Z</time></trkpt><trkpt lat="42.70326509369693" lon="13.754458625729113"><ele>180.0</ele><time>2026-05-03T17:35:10.001Z</time></trkpt><trkpt lat="42.70341510335383" lon="13.754208932132993"><ele>181.0</ele><time>2026-05-03T17:35:11.001Z</time></trkpt><trkpt lat="42.70357151582682" lon="13.75395742291856"><ele>182.0</ele><time>2026-05-03T17:35:12.001Z</time></trkpt><trkpt lat="42.70372454784758" lon="13.753712736229337"><ele>183.5</ele><time>2026-05-03T17:35:13.001Z</time></trkpt><trkpt lat="42.70387519158301" lon="13.753472014706677"><ele>185.0</ele><time>2026-05-03T17:35:14.001Z</time></trkpt><trkpt lat="42.70402255528551" lon="13.753238291771156"><ele>185.0</ele><time>2026-05-03T17:35:15.001Z</time></trkpt><trkpt lat="42.70417568917114" lon="13.752987929613813"><ele>185.0</ele><time>2026-05-03T17:35:16.001Z</time></trkpt><trkpt lat="42.704338944625114" lon="13.752720361653891"><ele>189.5</ele><time>2026-05-03T17:35:17.001Z</time></trkpt><trkpt lat="42.704520163398016" lon="13.75243896128674"><ele>194.0</ele><time>2026-05-03T17:35:18.001Z</time></trkpt><trkpt lat="42.7047082685479" lon="13.752162158285062"><ele>194.0</ele><time>2026-05-03T17:35:19.001Z</time></trkpt><trkpt lat="42.704893122365476" lon="13.751898566053598"><ele>194.0</ele><time>2026-05-03T17:35:20.001Z</time></trkpt><trkpt lat="42.70506739799005" lon="13.75164131987843"><ele>192.5</ele><time>2026-05-03T17:35:21.001Z</time></trkpt><trkpt lat="42.70523168753299" lon="13.75138781672649"><ele>191.0</ele><time>2026-05-03T17:35:22.001Z</time></trkpt><trkpt lat="42.70538930689147" lon="13.751137499622375"><ele>194.66666666666666</ele><time>2026-05-03T17:35:23.001Z</time></trkpt><trkpt lat="42.70553701152355" lon="13.75089876254972"><ele>198.33333333333331</ele><time>2026-05-03T17:35:24.001Z</time></trkpt><trkpt lat="42.70567317780135" lon="13.75067735741058"><ele>202.0</ele><time>2026-05-03T17:35:25.001Z</time></trkpt><trkpt lat="42.70581173032754" lon="13.750458612917612"><ele>202.0</ele><time>2026-05-03T17:35:26.001Z</time></trkpt><trkpt lat="42.70595124386008" lon="13.750249592280623"><ele>202.0</ele><time>2026-05-03T17:35:27.001Z</time></trkpt><trkpt lat="42.70609879886718" lon="13.750037856295675"><ele>202.0</ele><time>2026-05-03T17:35:28.001Z</time></trkpt><trkpt lat="42.7062616468111" lon="13.74983027772635"><ele>202.66666666666666</ele><time>2026-05-03T17:35:29.001Z</time></trkpt><trkpt lat="42.706425402631446" lon="13.749634064652174"><ele>203.33333333333331</ele><time>2026-05-03T17:35:30.001Z</time></trkpt><trkpt lat="42.70659539285974" lon="13.749448940793664"><ele>204.0</ele><time>2026-05-03T17:35:31.001Z</time></trkpt><trkpt lat="42.70676974586575" lon="13.74927739707448"><ele>206.0</ele><time>2026-05-03T17:35:32.001Z</time></trkpt><trkpt lat="42.706940745366644" lon="13.749121110930751"><ele>208.0</ele><time>2026-05-03T17:35:33.001Z</time></trkpt><trkpt lat="42.70711235259154" lon="13.749006600287963"><ele>210.0</ele><time>2026-05-03T17:35:34.001Z</time></trkpt><trkpt lat="42.70727102916042" lon="13.748917140497971"><ele>210.0</ele><time>2026-05-03T17:35:35.001Z</time></trkpt><trkpt lat="42.70742040449467" lon="13.748838751139328"><ele>210.0</ele><time>2026-05-03T17:35:36.001Z</time></trkpt><trkpt lat="42.707553402400556" lon="13.748757314508088"><ele>210.0</ele><time>2026-05-03T17:35:37.001Z</time></trkpt><trkpt lat="42.707665618011895" lon="13.74865055886533"><ele>210.0</ele><time>2026-05-03T17:35:38Z</time></trkpt><trkpt lat="42.70775573152445" lon="13.748517985167076"><ele>210.25</ele><time>2026-05-03T17:35:39Z</time></trkpt><trkpt lat="42.70782308664976" lon="13.748359792878722"><ele>210.5</ele><time>2026-05-03T17:35:40Z</time></trkpt><trkpt lat="42.70786550839455" lon="13.748184187170425"><ele>210.75</ele><time>2026-05-03T17:35:41Z</time></trkpt><trkpt lat="42.70788348229552" lon="13.74798964235006"><ele>211.0</ele><time>2026-05-03T17:35:42Z</time></trkpt><trkpt lat="42.70787885386952" lon="13.747780834660064"><ele>210.33333333333331</ele><time>2026-05-03T17:35:43Z</time></trkpt><trkpt lat="42.70785899933467" lon="13.747555186591452"><ele>209.66666666666669</ele><time>2026-05-03T17:35:44Z</time></trkpt><trkpt lat="42.707839251229046" lon="13.74732468371158"><ele>209.0</ele><time>2026-05-03T17:35:45Z</time></trkpt><trkpt lat="42.70782647383729" lon="13.747084348626053"><ele>207.66666666666669</ele><time>2026-05-03T17:35:46Z</time></trkpt><trkpt lat="42.70782766873545" lon="13.746845456216734"><ele>206.33333333333331</ele><time>2026-05-03T17:35:47Z</time></trkpt><trkpt lat="42.70783738154625" lon="13.746615303715583"><ele>205.0</ele><time>2026-05-03T17:35:48Z</time></trkpt><trkpt lat="42.707863539902554" lon="13.74640645751105"><ele>205.0</ele><time>2026-05-03T17:35:49Z</time></trkpt><trkpt lat="42.70790867071195" lon="13.74621745592633"><ele>205.0</ele><time>2026-05-03T17:35:50Z</time></trkpt><trkpt lat="42.70797888149009" lon="13.746063585127548"><ele>205.0</ele><time>2026-05-03T17:35:51Z</time></trkpt><trkpt lat="42.708060720529" lon="13.745929582913066"><ele>205.0</ele><time>2026-05-03T17:35:52Z</time></trkpt><trkpt lat="42.70815512976178" lon="13.745808620890179"><ele>204.25</ele><time>2026-05-03T17:35:53Z</time></trkpt><trkpt lat="42.70826237325233" lon="13.745710259632704"><ele>203.5</ele><time>2026-05-03T17:35:54Z</time></trkpt><trkpt lat="42.708382047643774" lon="13.745632011967281"><ele>202.75</ele><time>2026-05-03T17:35:55Z</time></trkpt><trkpt lat="42.70851710167044" lon="13.745590722688506"><ele>202.0</ele><time>2026-05-03T17:35:56Z</time></trkpt><trkpt lat="42.70864904555864" lon="13.745568341012886"><ele>202.0</ele><time>2026-05-03T17:35:57Z</time></trkpt><trkpt lat="42.7087860090297" lon="13.745567797954456"><ele>202.0</ele><time>2026-05-03T17:35:58Z</time></trkpt><trkpt lat="42.708913639544015" lon="13.745592789728406"><ele>202.0</ele><time>2026-05-03T17:35:59Z</time></trkpt><trkpt lat="42.709018050496496" lon="13.745640273609332"><ele>202.0</ele><time>2026-05-03T17:36:00Z</time></trkpt><trkpt lat="42.709104143715166" lon="13.745710240983152"><ele>201.99999999999997</ele><time>2026-05-03T17:36:01Z</time></trkpt><trkpt lat="42.70916400322019" lon="13.745790294167032"><ele>202.0</ele><time>2026-05-03T17:36:02Z</time></trkpt><trkpt lat="42.70920413550287" lon="13.745890079312883"><ele>202.0</ele><time>2026-05-03T17:36:03Z</time></trkpt><trkpt lat="42.70925331588022" lon="13.745989307883612"><ele>202.0</ele><time>2026-05-03T17:36:04Z</time></trkpt><trkpt lat="42.70926319256021" lon="13.746122200855087"><ele>201.99999999999997</ele><time>2026-05-03T17:36:05Z</time></trkpt><trkpt lat="42.70929991103125" lon="13.746214767456403"><ele>202.0</ele><time>2026-05-03T17:36:06Z</time></trkpt><trkpt lat="42.70936231809789" lon="13.74626925337807"><ele>202.39999999999998</ele><time>2026-05-03T17:36:07Z</time></trkpt><trkpt lat="42.70944374368461" lon="13.746295600945288"><ele>202.79999999999998</ele><time>2026-05-03T17:36:08Z</time></trkpt><trkpt lat="42.709543811816715" lon="13.746296415579021"><ele>203.2</ele><time>2026-05-03T17:36:09Z</time></trkpt><trkpt lat="42.70965096238444" lon="13.746299721199406"><ele>203.6</ele><time>2026-05-03T17:36:10Z</time></trkpt><trkpt lat="42.70976226290143" lon="13.746325711461202"><ele>204.0</ele><time>2026-05-03T17:36:11Z</time></trkpt><trkpt lat="42.709875418630645" lon="13.74637431291829"><ele>204.0</ele><time>2026-05-03T17:36:12Z</time></trkpt><trkpt lat="42.70999725009165" lon="13.746415837116398"><ele>204.0</ele><time>2026-05-03T17:36:13Z</time></trkpt><trkpt lat="42.71012322720139" lon="13.746424850151135"><ele>204.0</ele><time>2026-05-03T17:36:14Z</time></trkpt><trkpt lat="42.71024936219274" lon="13.746378532294337"><ele>204.0</ele><time>2026-05-03T17:36:15Z</time></trkpt><trkpt lat="42.71035874014885" lon="13.746299490661542"><ele>204.25</ele><time>2026-05-03T17:36:16Z</time></trkpt><trkpt lat="42.710451771667955" lon="13.746182739899902"><ele>204.5</ele><time>2026-05-03T17:36:17Z</time></trkpt><trkpt lat="42.710533458815114" lon="13.746038552707402"><ele>204.75</ele><time>2026-05-03T17:36:18Z</time></trkpt><trkpt lat="42.71062262484493" lon="13.745878569756618"><ele>205.0</ele><time>2026-05-03T17:36:19Z</time></trkpt><trkpt lat="42.7107220566071" lon="13.74571065514285"><ele>204.0</ele><time>2026-05-03T17:36:20Z</time></trkpt><trkpt lat="42.710836650735494" lon="13.74555133634413"><ele>203.0</ele><time>2026-05-03T17:36:21Z</time></trkpt><trkpt lat="42.71096959705239" lon="13.74541437700213"><ele>202.0</ele><time>2026-05-03T17:36:22Z</time></trkpt><trkpt lat="42.71112044182218" lon="13.745295602378482"><ele>202.0</ele><time>2026-05-03T17:36:23Z</time></trkpt><trkpt lat="42.711274431885194" lon="13.74518145763294"><ele>202.0</ele><time>2026-05-03T17:36:24Z</time></trkpt><trkpt lat="42.711430039157776" lon="13.745079701376309"><ele>202.0</ele><time>2026-05-03T17:36:25Z</time></trkpt><trkpt lat="42.71158521420482" lon="13.744988604305924"><ele>202.0</ele><time>2026-05-03T17:36:26Z</time></trkpt><trkpt lat="42.71174009917274" lon="13.744900768500969"><ele>202.0</ele><time>2026-05-03T17:36:27Z</time></trkpt><trkpt lat="42.71189342608079" lon="13.744809891906012"><ele>202.0</ele><time>2026-05-03T17:36:28Z</time></trkpt><trkpt lat="42.712045594861195" lon="13.74470821139717"><ele>202.66666666666666</ele><time>2026-05-03T17:36:29Z</time></trkpt><trkpt lat="42.71219701567982" lon="13.74459712297929"><ele>203.33333333333331</ele><time>2026-05-03T17:36:30Z</time></trkpt><trkpt lat="42.71234894353843" lon="13.744473940018965"><ele>204.0</ele><time>2026-05-03T17:36:31Z</time></trkpt><trkpt lat="42.7124990267646" lon="13.744343010412237"><ele>206.0</ele><time>2026-05-03T17:36:32Z</time></trkpt><trkpt lat="42.71264856101769" lon="13.744202035066676"><ele>208.0</ele><time>2026-05-03T17:36:33Z</time></trkpt><trkpt lat="42.71279697365227" lon="13.744054615034843"><ele>210.0</ele><time>2026-05-03T17:36:34Z</time></trkpt><trkpt lat="42.71294327070985" lon="13.743899882979699"><ele>210.0</ele><time>2026-05-03T17:36:35Z</time></trkpt><trkpt lat="42.713085878017814" lon="13.743729577375547"><ele>210.0</ele><time>2026-05-03T17:36:36Z</time></trkpt><trkpt lat="42.71322603984622" lon="13.743555468626854"><ele>210.0</ele><time>2026-05-03T17:36:37Z</time></trkpt><trkpt lat="42.713358758599945" lon="13.743374787520343"><ele>209.66666666666669</ele><time>2026-05-03T17:36:38Z</time></trkpt><trkpt lat="42.71348870225971" lon="13.743191305545286"><ele>209.33333333333334</ele><time>2026-05-03T17:36:39Z</time></trkpt><trkpt lat="42.71361789233175" lon="13.743008625315323"><ele>209.0</ele><time>2026-05-03T17:36:40Z</time></trkpt><trkpt lat="42.713743097568134" lon="13.742827957728398"><ele>210.0</ele><time>2026-05-03T17:36:41Z</time></trkpt><trkpt lat="42.71386651980327" lon="13.742647230117873"><ele>211.0</ele><time>2026-05-03T17:36:42Z</time></trkpt><trkpt lat="42.713990788635364" lon="13.742464514384167"><ele>212.0</ele><time>2026-05-03T17:36:43Z</time></trkpt><trkpt lat="42.71411184714361" lon="13.742286378649512"><ele>212.0</ele><time>2026-05-03T17:36:44Z</time></trkpt><trkpt lat="42.71422997064337" lon="13.742113186866586"><ele>212.0</ele><time>2026-05-03T17:36:45Z</time></trkpt><trkpt lat="42.714349559769275" lon="13.741941312540717"><ele>212.0</ele><time>2026-05-03T17:36:46Z</time></trkpt><trkpt lat="42.71447349326788" lon="13.741767181358775"><ele>212.0</ele><time>2026-05-03T17:36:47Z</time></trkpt><trkpt lat="42.71460641435076" lon="13.741584239241146"><ele>212.0</ele><time>2026-05-03T17:36:48Z</time></trkpt><trkpt lat="42.71474606463516" lon="13.741404012042876"><ele>212.0</ele><time>2026-05-03T17:36:49Z</time></trkpt><trkpt lat="42.714889588991944" lon="13.741240947908436"><ele>212.0</ele><time>2026-05-03T17:36:50Z</time></trkpt><trkpt lat="42.71503463210993" lon="13.741085790136694"><ele>212.0</ele><time>2026-05-03T17:36:51Z</time></trkpt><trkpt lat="42.7151800560988" lon="13.740930085736538"><ele>212.0</ele><time>2026-05-03T17:36:52Z</time></trkpt><trkpt lat="42.71532889412451" lon="13.74078013509061"><ele>212.66666666666669</ele><time>2026-05-03T17:36:53Z</time></trkpt><trkpt lat="42.71548340857578" lon="13.74064305006727"><ele>213.33333333333331</ele><time>2026-05-03T17:36:54Z</time></trkpt><trkpt lat="42.71564239411277" lon="13.740516897831297"><ele>214.0</ele><time>2026-05-03T17:36:55Z</time></trkpt><trkpt lat="42.71580512328284" lon="13.740391726350119"><ele>214.0</ele><time>2026-05-03T17:36:56Z</time></trkpt><trkpt lat="42.71597386453687" lon="13.740268397800959"><ele>214.0</ele><time>2026-05-03T17:36:57Z</time></trkpt><trkpt lat="42.71614586720969" lon="13.740153150187039"><ele>214.0</ele><time>2026-05-03T17:36:58Z</time></trkpt><trkpt lat="42.71631942865078" lon="13.740049503635658"><ele>214.66666666666666</ele><time>2026-05-03T17:36:59Z</time></trkpt><trkpt lat="42.71649627650355" lon="13.739952227065995"><ele>215.33333333333331</ele><time>2026-05-03T17:37:00Z</time></trkpt><trkpt lat="42.71668026478328" lon="13.739858117897388"><ele>216.0</ele><time>2026-05-03T17:37:01Z</time></trkpt><trkpt lat="42.71686280659963" lon="13.739775114550156"><ele>215.33333333333331</ele><time>2026-05-03T17:37:02Z</time></trkpt><trkpt lat="42.717045122992445" lon="13.739694961040964"><ele>214.66666666666666</ele><time>2026-05-03T17:37:03Z</time></trkpt><trkpt lat="42.717226551629494" lon="13.739617657877814"><ele>214.0</ele><time>2026-05-03T17:37:04Z</time></trkpt><trkpt lat="42.717411119874924" lon="13.739536118041048"><ele>214.0</ele><time>2026-05-03T17:37:05Z</time></trkpt><trkpt lat="42.717594609081374" lon="13.739456147843557"><ele>214.0</ele><time>2026-05-03T17:37:06.001Z</time></trkpt><trkpt lat="42.71777792463936" lon="13.739378442606453"><ele>214.0</ele><time>2026-05-03T17:37:07.001Z</time></trkpt><trkpt lat="42.717963927725776" lon="13.739299147205239"><ele>215.0</ele><time>2026-05-03T17:37:08.001Z</time></trkpt><trkpt lat="42.718151093721325" lon="13.73921617352222"><ele>216.0</ele><time>2026-05-03T17:37:09.001Z</time></trkpt><trkpt lat="42.71833842723915" lon="13.7391314146225"><ele>217.0</ele><time>2026-05-03T17:37:10.001Z</time></trkpt><trkpt lat="42.71852671518262" lon="13.739047255105358"><ele>218.0</ele><time>2026-05-03T17:37:11.001Z</time></trkpt><trkpt lat="42.718713766385676" lon="13.73896562897424"><ele>219.0</ele><time>2026-05-03T17:37:12.001Z</time></trkpt><trkpt lat="42.71889714761568" lon="13.73888588274857"><ele>220.0</ele><time>2026-05-03T17:37:13.001Z</time></trkpt><trkpt lat="42.71907242660768" lon="13.73880462887838"><ele>220.0</ele><time>2026-05-03T17:37:14.001Z</time></trkpt><trkpt lat="42.719237992924434" lon="13.738733438234513"><ele>220.0</ele><time>2026-05-03T17:37:15.001Z</time></trkpt><trkpt lat="42.71939638743566" lon="13.738664625269543"><ele>220.0</ele><time>2026-05-03T17:37:16.001Z</time></trkpt><trkpt lat="42.71955102825692" lon="13.738598583813108"><ele>219.66666666666666</ele><time>2026-05-03T17:37:17.001Z</time></trkpt><trkpt lat="42.719708118948574" lon="13.738532561982819"><ele>219.33333333333331</ele><time>2026-05-03T17:37:18.001Z</time></trkpt><trkpt lat="42.719865401761254" lon="13.738462882958563"><ele>219.0</ele><time>2026-05-03T17:37:19.001Z</time></trkpt><trkpt lat="42.72002194270224" lon="13.738391272530501"><ele>219.0</ele><time>2026-05-03T17:37:20.001Z</time></trkpt><trkpt lat="42.72017883007279" lon="13.738320344666423"><ele>219.0</ele><time>2026-05-03T17:37:21.001Z</time></trkpt><trkpt lat="42.72034253515299" lon="13.738240675252566"><ele>219.0</ele><time>2026-05-03T17:37:22.001Z</time></trkpt><trkpt lat="42.72052628403643" lon="13.738155255281875"><ele>220.0</ele><time>2026-05-03T17:37:23.001Z</time></trkpt><trkpt lat="42.72072620766704" lon="13.738069271122516"><ele>221.0</ele><time>2026-05-03T17:37:24.001Z</time></trkpt><trkpt lat="42.720931802007975" lon="13.737984312255874"><ele>222.0</ele><time>2026-05-03T17:37:25.001Z</time></trkpt><trkpt lat="42.721141502479135" lon="13.73790127344371"><ele>222.66666666666669</ele><time>2026-05-03T17:37:26.001Z</time></trkpt><trkpt lat="42.72134918728549" lon="13.737812143700113"><ele>223.33333333333334</ele><time>2026-05-03T17:37:27.001Z</time></trkpt><trkpt lat="42.72155726752793" lon="13.737723118443459"><ele>224.0</ele><time>2026-05-03T17:37:28.001Z</time></trkpt><trkpt lat="42.721764607453785" lon="13.737632567277215"><ele>224.33333333333334</ele><time>2026-05-03T17:37:29.001Z</time></trkpt><trkpt lat="42.72197113833084" lon="13.73754314368423"><ele>224.66666666666669</ele><time>2026-05-03T17:37:30.001Z</time></trkpt><trkpt lat="42.72217623843421" lon="13.737455477262236"><ele>225.0</ele><time>2026-05-03T17:37:31.001Z</time></trkpt><trkpt lat="42.72238059189063" lon="13.73736766443993"><ele>225.0</ele><time>2026-05-03T17:37:32.001Z</time></trkpt><trkpt lat="42.722582677579844" lon="13.737278236566757"><ele>225.0</ele><time>2026-05-03T17:37:33.001Z</time></trkpt><trkpt lat="42.722785600474545" lon="13.737192848002078"><ele>225.0</ele><time>2026-05-03T17:37:34.001Z</time></trkpt><trkpt lat="42.72299204806879" lon="13.737105263458256"><ele>226.0</ele><time>2026-05-03T17:37:35.001Z</time></trkpt><trkpt lat="42.72318556290582" lon="13.737020033112923"><ele>227.0</ele><time>2026-05-03T17:37:36.001Z</time></trkpt><trkpt lat="42.723401395213365" lon="13.736933184896811"><ele>228.0</ele><time>2026-05-03T17:37:37Z</time></trkpt><trkpt lat="42.72355910797733" lon="13.736857428180125"><ele>228.66666666666669</ele><time>2026-05-03T17:37:38Z</time></trkpt><trkpt lat="42.72374988790359" lon="13.736775994153458"><ele>229.33333333333334</ele><time>2026-05-03T17:37:39Z</time></trkpt><trkpt lat="42.72393520755288" lon="13.736702285747555"><ele>230.0</ele><time>2026-05-03T17:37:40Z</time></trkpt><trkpt lat="42.72412331017368" lon="13.736632105304519"><ele>230.0</ele><time>2026-05-03T17:37:41Z</time></trkpt><trkpt lat="42.724311807694" lon="13.73656815785565"><ele>230.0</ele><time>2026-05-03T17:37:42Z</time></trkpt><trkpt lat="42.7244976261222" lon="13.73650070029492"><ele>230.0</ele><time>2026-05-03T17:37:43Z</time></trkpt><trkpt lat="42.72468608907487" lon="13.736433721304518"><ele>230.0</ele><time>2026-05-03T17:37:44Z</time></trkpt><trkpt lat="42.72487328185202" lon="13.73637204329594"><ele>230.0</ele><time>2026-05-03T17:37:45Z</time></trkpt><trkpt lat="42.7250634893843" lon="13.736308014965418"><ele>230.0</ele><time>2026-05-03T17:37:46Z</time></trkpt><trkpt lat="42.72524933283173" lon="13.736244220834395"><ele>231.33333333333334</ele><time>2026-05-03T17:37:47Z</time></trkpt><trkpt lat="42.725435603107805" lon="13.736182005985206"><ele>232.66666666666669</ele><time>2026-05-03T17:37:48Z</time></trkpt><trkpt lat="42.72562087561709" lon="13.73611670894435"><ele>234.0</ele><time>2026-05-03T17:37:49Z</time></trkpt><trkpt lat="42.725808266454194" lon="13.736050520684715"><ele>234.0</ele><time>2026-05-03T17:37:50Z</time></trkpt><trkpt lat="42.725996229012175" lon="13.735986830017268"><ele>234.0</ele><time>2026-05-03T17:37:51Z</time></trkpt><trkpt lat="42.72618568628794" lon="13.735918543233488"><ele>234.0</ele><time>2026-05-03T17:37:52Z</time></trkpt><trkpt lat="42.726377423903365" lon="13.735852519887791"><ele>241.33333333333331</ele><time>2026-05-03T17:37:53Z</time></trkpt><trkpt lat="42.726571049925376" lon="13.735783235318063"><ele>248.66666666666666</ele><time>2026-05-03T17:37:54Z</time></trkpt><trkpt lat="42.726770896288095" lon="13.735724206058007"><ele>256.0</ele><time>2026-05-03T17:37:55Z</time></trkpt><trkpt lat="42.72696514717268" lon="13.735660721377107"><ele>265.0</ele><time>2026-05-03T17:37:56Z</time></trkpt><trkpt lat="42.72716269861735" lon="13.735596054390886"><ele>274.0</ele><time>2026-05-03T17:37:57.023Z</time></trkpt><trkpt lat="42.7273560322617" lon="13.735533282634083"><ele>283.0</ele><time>2026-05-03T17:37:58.018Z</time></trkpt><trkpt lat="42.72754946848841" lon="13.73547039152305"><ele>287.0</ele><time>2026-05-03T17:37:59.015Z</time></trkpt><trkpt lat="42.72774371467863" lon="13.735407133508657"><ele>291.0</ele><time>2026-05-03T17:38:00.017Z</time></trkpt><trkpt lat="42.72791155845216" lon="13.735370641659742"><ele>295.0</ele><time>2026-05-03T17:38:01.021Z</time></trkpt><trkpt lat="42.728094961299874" lon="13.735317550784625"><ele>295.0</ele><time>2026-05-03T17:38:02.018Z</time></trkpt><trkpt lat="42.7282837553819" lon="13.73525730944814"><ele>295.0</ele><time>2026-05-03T17:38:03.028Z</time></trkpt><trkpt lat="42.72960064165897" lon="13.734712331147689"><ele>292.0</ele><time>2026-05-03T17:38:06.856Z</time></trkpt><trkpt lat="42.7299496178901" lon="13.7345920761652"><ele>289.0</ele><time>2026-05-03T17:38:07.856Z</time></trkpt><trkpt lat="42.73029835638099" lon="13.734470554042524"><ele>287.5</ele><time>2026-05-03T17:38:08.856Z</time></trkpt><trkpt lat="42.73065114750786" lon="13.73437036122301"><ele>286.0</ele><time>2026-05-03T17:38:09.856Z</time></trkpt><trkpt lat="42.7308743" lon="13.7342689"><ele>226.0</ele><time>2026-05-03T17:38:10.856Z</time></trkpt><trkpt lat="42.734533217775386" lon="13.732986180124556"><ele>226.0</ele><time>2026-05-03T17:38:33Z</time></trkpt><trkpt lat="42.73470208838825" lon="13.732927302875627"><ele>226.0</ele><time>2026-05-03T17:38:34Z</time></trkpt><trkpt lat="42.734889268188155" lon="13.732891158405499"><ele>226.0</ele><time>2026-05-03T17:38:35Z</time></trkpt><trkpt lat="42.73505859542647" lon="13.732836261830748"><ele>222.33333333333331</ele><time>2026-05-03T17:38:36Z</time></trkpt><trkpt lat="42.735227614054246" lon="13.732778290196629"><ele>218.66666666666669</ele><time>2026-05-03T17:38:37Z</time></trkpt><trkpt lat="42.73539820050866" lon="13.732719521206299"><ele>215.0</ele><time>2026-05-03T17:38:38Z</time></trkpt><trkpt lat="42.735574194860504" lon="13.732662198834356"><ele>215.0</ele><time>2026-05-03T17:38:39Z</time></trkpt><trkpt lat="42.73573157542861" lon="13.73262571169614"><ele>215.0</ele><time>2026-05-03T17:38:40Z</time></trkpt><trkpt lat="42.73591065344078" lon="13.732563278097224"><ele>215.0</ele><time>2026-05-03T17:38:41Z</time></trkpt><trkpt lat="42.73609527611251" lon="13.732486472802183"><ele>212.33333333333334</ele><time>2026-05-03T17:38:42Z</time></trkpt><trkpt lat="42.7362830438058" lon="13.732410750476406"><ele>209.66666666666669</ele><time>2026-05-03T17:38:43Z</time></trkpt><trkpt lat="42.73646895477839" lon="13.732360973096858"><ele>207.0</ele><time>2026-05-03T17:38:44Z</time></trkpt><trkpt lat="42.73665848744284" lon="13.732319072104493"><ele>207.0</ele><time>2026-05-03T17:38:45Z</time></trkpt><trkpt lat="42.73686817787051" lon="13.732265587571765"><ele>207.0</ele><time>2026-05-03T17:38:46Z</time></trkpt><trkpt lat="42.7370824786742" lon="13.732219153806707"><ele>207.0</ele><time>2026-05-03T17:38:46.999Z</time></trkpt><trkpt lat="42.73729525003558" lon="13.732186506446407"><ele>210.66666666666669</ele><time>2026-05-03T17:38:47.999Z</time></trkpt><trkpt lat="42.73751740735598" lon="13.732167030772754"><ele>214.33333333333334</ele><time>2026-05-03T17:38:48.999Z</time></trkpt><trkpt lat="42.7377404336411" lon="13.732164316140778"><ele>218.0</ele><time>2026-05-03T17:38:49.999Z</time></trkpt><trkpt lat="42.73796597931238" lon="13.732177215836089"><ele>225.5</ele><time>2026-05-03T17:38:50.999Z</time></trkpt><trkpt lat="42.738195849523144" lon="13.732204620198015"><ele>233.0</ele><time>2026-05-03T17:38:51.999Z</time></trkpt><trkpt lat="42.738424761616024" lon="13.73224420753288"><ele>232.0</ele><time>2026-05-03T17:38:52.999Z</time></trkpt><trkpt lat="42.73865405437382" lon="13.732284398231068"><ele>231.0</ele><time>2026-05-03T17:38:53.999Z</time></trkpt><trkpt lat="42.73888221538847" lon="13.732325213650652"><ele>231.0</ele><time>2026-05-03T17:38:54.999Z</time></trkpt><trkpt lat="42.739111059996844" lon="13.732372974311016"><ele>231.0</ele><time>2026-05-03T17:38:55.999Z</time></trkpt><trkpt lat="42.739337044904985" lon="13.732426875795689"><ele>228.0</ele><time>2026-05-03T17:38:56.999Z</time></trkpt><trkpt lat="42.739562502473184" lon="13.732483145309969"><ele>225.0</ele><time>2026-05-03T17:38:57.999Z</time></trkpt><trkpt lat="42.7397877087345" lon="13.73253674002896"><ele>225.0</ele><time>2026-05-03T17:38:58.999Z</time></trkpt><trkpt lat="42.74000954721055" lon="13.732586559679294"><ele>225.0</ele><time>2026-05-03T17:38:59.999Z</time></trkpt><trkpt lat="42.74024024081296" lon="13.732633921429276"><ele>223.66666666666669</ele><time>2026-05-03T17:39:00.999Z</time></trkpt><trkpt lat="42.740458951652464" lon="13.732675945778704"><ele>222.33333333333334</ele><time>2026-05-03T17:39:01.999Z</time></trkpt><trkpt lat="42.74068320988116" lon="13.732723521240235"><ele>221.0</ele><time>2026-05-03T17:39:02.999Z</time></trkpt><trkpt lat="42.7408992051558" lon="13.73277082497611"><ele>217.33333333333334</ele><time>2026-05-03T17:39:03.999Z</time></trkpt><trkpt lat="42.74110867167831" lon="13.732814985155157"><ele>213.66666666666669</ele><time>2026-05-03T17:39:04.999Z</time></trkpt><trkpt lat="42.741316935881215" lon="13.732856545338354"><ele>210.0</ele><time>2026-05-03T17:39:05.999Z</time></trkpt><trkpt lat="42.741515579644336" lon="13.732902872999087"><ele>210.0</ele><time>2026-05-03T17:39:06.999Z</time></trkpt><trkpt lat="42.74171057145729" lon="13.732945480397285"><ele>210.0</ele><time>2026-05-03T17:39:07.999Z</time></trkpt><trkpt lat="42.74191311703302" lon="13.73298630472757"><ele>210.0</ele><time>2026-05-03T17:39:08.999Z</time></trkpt><trkpt lat="42.74211647710684" lon="13.733029623374705"><ele>207.66666666666669</ele><time>2026-05-03T17:39:09.999Z</time></trkpt><trkpt lat="42.74231211571011" lon="13.73307332512778"><ele>205.33333333333334</ele><time>2026-05-03T17:39:10.999Z</time></trkpt><trkpt lat="42.74250062450678" lon="13.733113608820583"><ele>203.0</ele><time>2026-05-03T17:39:12.001Z</time></trkpt><trkpt lat="42.74268481552936" lon="13.733155260450532"><ele>202.66666666666669</ele><time>2026-05-03T17:39:13.001Z</time></trkpt><trkpt lat="42.742856425524906" lon="13.733192595482093"><ele>202.33333333333331</ele><time>2026-05-03T17:39:14.001Z</time></trkpt><trkpt lat="42.74301591823092" lon="13.733229794443105"><ele>202.0</ele><time>2026-05-03T17:39:15.001Z</time></trkpt><trkpt lat="42.74315194980776" lon="13.733266946726014"><ele>202.0</ele><time>2026-05-03T17:39:16.001Z</time></trkpt><trkpt lat="42.743264113451445" lon="13.733308428478141"><ele>202.0</ele><time>2026-05-03T17:39:17.001Z</time></trkpt><trkpt lat="42.74335811207304" lon="13.733363870478673"><ele>202.0</ele><time>2026-05-03T17:39:18.001Z</time></trkpt><trkpt lat="42.74343620189254" lon="13.733449260180354"><ele>202.0</ele><time>2026-05-03T17:39:19.001Z</time></trkpt><trkpt lat="42.74350340233042" lon="13.733542617353425"><ele>202.0</ele><time>2026-05-03T17:39:20.001Z</time></trkpt><trkpt lat="42.74358263557485" lon="13.733599498631326"><ele>202.0</ele><time>2026-05-03T17:39:21.001Z</time></trkpt><trkpt lat="42.743671452405565" lon="13.73359895317502"><ele>202.0</ele><time>2026-05-03T17:39:22.001Z</time></trkpt><trkpt lat="42.743759522148736" lon="13.733556445283703"><ele>202.0</ele><time>2026-05-03T17:39:23.001Z</time></trkpt><trkpt lat="42.74383159464526" lon="13.733460686916308"><ele>202.0</ele><time>2026-05-03T17:39:24.001Z</time></trkpt><trkpt lat="42.743954569596454" lon="13.733456178673467"><ele>202.0</ele><time>2026-05-03T17:39:25.001Z</time></trkpt><trkpt lat="42.744091405868204" lon="13.73346797735783"><ele>202.0</ele><time>2026-05-03T17:39:26.001Z</time></trkpt><trkpt lat="42.74424297312686" lon="13.733499751566569"><ele>202.0</ele><time>2026-05-03T17:39:27.001Z</time></trkpt><trkpt lat="42.74440190021594" lon="13.733541685688746"><ele>202.0</ele><time>2026-05-03T17:39:28.001Z</time></trkpt><trkpt lat="42.74456837668992" lon="13.733580987550443"><ele>201.66666666666666</ele><time>2026-05-03T17:39:29.001Z</time></trkpt><trkpt lat="42.744744058897346" lon="13.733619882932384"><ele>201.33333333333331</ele><time>2026-05-03T17:39:30.001Z</time></trkpt><trkpt lat="42.744925759615754" lon="13.73365833894133"><ele>201.0</ele><time>2026-05-03T17:39:31.001Z</time></trkpt><trkpt lat="42.745116421566294" lon="13.733695017908703"><ele>196.0</ele><time>2026-05-03T17:39:32.001Z</time></trkpt><trkpt lat="42.74531089976214" lon="13.733734228030315"><ele>191.0</ele><time>2026-05-03T17:39:33.001Z</time></trkpt><trkpt lat="42.74551094217342" lon="13.73377630937798"><ele>186.0</ele><time>2026-05-03T17:39:34Z</time></trkpt><trkpt lat="42.745713998537354" lon="13.733817828904064"><ele>186.0</ele><time>2026-05-03T17:39:35Z</time></trkpt><trkpt lat="42.74592062490896" lon="13.733863042664376"><ele>186.0</ele><time>2026-05-03T17:39:36Z</time></trkpt><trkpt lat="42.74613388882044" lon="13.733909916862173"><ele>186.0</ele><time>2026-05-03T17:39:37Z</time></trkpt><trkpt lat="42.7463468373779" lon="13.733957718182012"><ele>180.66666666666666</ele><time>2026-05-03T17:39:38Z</time></trkpt><trkpt lat="42.74656417242028" lon="13.73400174529195"><ele>175.33333333333331</ele><time>2026-05-03T17:39:39Z</time></trkpt><trkpt lat="42.74678390261973" lon="13.734048379618248"><ele>170.0</ele><time>2026-05-03T17:39:40Z</time></trkpt><trkpt lat="42.7470067034878" lon="13.734095476782857"><ele>167.5</ele><time>2026-05-03T17:39:41Z</time></trkpt><trkpt lat="42.74722997042074" lon="13.734144340378664"><ele>165.0</ele><time>2026-05-03T17:39:42Z</time></trkpt><trkpt lat="42.747453259874575" lon="13.734192608747291"><ele>165.0</ele><time>2026-05-03T17:39:43Z</time></trkpt><trkpt lat="42.747674984233484" lon="13.734238860641556"><ele>165.0</ele><time>2026-05-03T17:39:44Z</time></trkpt><trkpt lat="42.74789737818939" lon="13.73428605923866"><ele>165.0</ele><time>2026-05-03T17:39:45Z</time></trkpt><trkpt lat="42.74812140901349" lon="13.734334556730506"><ele>164.5</ele><time>2026-05-03T17:39:46Z</time></trkpt><trkpt lat="42.74834460101476" lon="13.73438395783208"><ele>164.0</ele><time>2026-05-03T17:39:47Z</time></trkpt><trkpt lat="42.74856853015271" lon="13.734432956981232"><ele>170.5</ele><time>2026-05-03T17:39:48Z</time></trkpt><trkpt lat="42.74879209004097" lon="13.734480315010442"><ele>177.0</ele><time>2026-05-03T17:39:49Z</time></trkpt><trkpt lat="42.74901684392363" lon="13.734529224464945"><ele>177.0</ele><time>2026-05-03T17:39:50Z</time></trkpt><trkpt lat="42.749242041233934" lon="13.734579118376036"><ele>177.0</ele><time>2026-05-03T17:39:51Z</time></trkpt><trkpt lat="42.749464828444175" lon="13.734629928165212"><ele>176.0</ele><time>2026-05-03T17:39:52Z</time></trkpt><trkpt lat="42.74968892817587" lon="13.734683192228042"><ele>175.0</ele><time>2026-05-03T17:39:53Z</time></trkpt><trkpt lat="42.74991423134606" lon="13.734743798877123"><ele>175.0</ele><time>2026-05-03T17:39:54Z</time></trkpt><trkpt lat="42.750140123028004" lon="13.734812661882675"><ele>175.0</ele><time>2026-05-03T17:39:55Z</time></trkpt><trkpt lat="42.75036678154465" lon="13.734889624903126"><ele>175.0</ele><time>2026-05-03T17:39:56Z</time></trkpt><trkpt lat="42.7505934851814" lon="13.734971390544052"><ele>175.0</ele><time>2026-05-03T17:39:57Z</time></trkpt><trkpt lat="42.7508396162835" lon="13.735039413097674"><ele>172.0</ele><time>2026-05-03T17:39:58Z</time></trkpt><trkpt lat="42.75107931352519" lon="13.735159562625599"><ele>169.0</ele><time>2026-05-03T17:39:59Z</time></trkpt><trkpt lat="42.7513313953934" lon="13.735271948129194"><ele>169.0</ele><time>2026-05-03T17:40:00.026Z</time></trkpt><trkpt lat="42.75157172542612" lon="13.735387640628385"><ele>169.0</ele><time>2026-05-03T17:40:01.018Z</time></trkpt><trkpt lat="42.75180766675771" lon="13.735506545997398"><ele>164.66666666666669</ele><time>2026-05-03T17:40:02.016Z</time></trkpt><trkpt lat="42.75203780634052" lon="13.735635585659859"><ele>160.33333333333334</ele><time>2026-05-03T17:40:03Z</time></trkpt><trkpt lat="42.752163971098845" lon="13.735707769395999"><ele>156.0</ele><time>2026-05-03T17:40:04Z</time></trkpt><trkpt lat="42.75235818488235" lon="13.735802185335526"><ele>156.0</ele><time>2026-05-03T17:40:05Z</time></trkpt><trkpt lat="42.7525593563359" lon="13.735945092357436"><ele>156.0</ele><time>2026-05-03T17:40:06Z</time></trkpt><trkpt lat="42.75276589861189" lon="13.736080306256746"><ele>158.5</ele><time>2026-05-03T17:40:07Z</time></trkpt><trkpt lat="42.75297152123765" lon="13.73621149034398"><ele>161.0</ele><time>2026-05-03T17:40:08Z</time></trkpt><trkpt lat="42.753186614525454" lon="13.736342922492899"><ele>161.0</ele><time>2026-05-03T17:40:09Z</time></trkpt><trkpt lat="42.753400540326254" lon="13.736478139816741"><ele>161.0</ele><time>2026-05-03T17:40:10Z</time></trkpt><trkpt lat="42.75360818936282" lon="13.736609769543849"><ele>163.5</ele><time>2026-05-03T17:40:11Z</time></trkpt><trkpt lat="42.75381418608557" lon="13.736744235762098"><ele>166.0</ele><time>2026-05-03T17:40:12Z</time></trkpt><trkpt lat="42.7540217345359" lon="13.736872316131882"><ele>170.5</ele><time>2026-05-03T17:40:13Z</time></trkpt><trkpt lat="42.75423256916781" lon="13.73698649690235"><ele>175.0</ele><time>2026-05-03T17:40:14Z</time></trkpt><trkpt lat="42.754443216425784" lon="13.737105881773086"><ele>175.0</ele><time>2026-05-03T17:40:15Z</time></trkpt><trkpt lat="42.7546492898372" lon="13.73721742660737"><ele>175.0</ele><time>2026-05-03T17:40:16Z</time></trkpt><trkpt lat="42.75484980131291" lon="13.737355095409983"><ele>175.0</ele><time>2026-05-03T17:40:17.023Z</time></trkpt><trkpt lat="42.75506418334606" lon="13.737432015474482"><ele>165.0</ele><time>2026-05-03T17:40:18.027Z</time></trkpt><trkpt lat="42.75526326486245" lon="13.737534134450716"><ele>155.0</ele><time>2026-05-03T17:40:19Z</time></trkpt><trkpt lat="42.75550667411999" lon="13.737589664349006"><ele>155.0</ele><time>2026-05-03T17:40:20Z</time></trkpt><trkpt lat="42.75572579741564" lon="13.737671739438703"><ele>155.0</ele><time>2026-05-03T17:40:21Z</time></trkpt><trkpt lat="42.75594652189665" lon="13.737752898272431"><ele>160.0</ele><time>2026-05-03T17:40:22Z</time></trkpt><trkpt lat="42.756169777577554" lon="13.737839876620189"><ele>165.0</ele><time>2026-05-03T17:40:23Z</time></trkpt><trkpt lat="42.756395182728596" lon="13.737924770046055"><ele>165.0</ele><time>2026-05-03T17:40:24Z</time></trkpt><trkpt lat="42.75661804990405" lon="13.738012089411589"><ele>165.0</ele><time>2026-05-03T17:40:25Z</time></trkpt><trkpt lat="42.756839321046044" lon="13.738099252000742"><ele>166.5</ele><time>2026-05-03T17:40:26Z</time></trkpt><trkpt lat="42.757062161659036" lon="13.73818142159177"><ele>168.0</ele><time>2026-05-03T17:40:26.999Z</time></trkpt><trkpt lat="42.75728384233246" lon="13.738262349045856"><ele>168.0</ele><time>2026-05-03T17:40:28Z</time></trkpt><trkpt lat="42.75750428354611" lon="13.738346098438734"><ele>168.0</ele><time>2026-05-03T17:40:28.999Z</time></trkpt><trkpt lat="42.757725213505886" lon="13.738428863726371"><ele>166.0</ele><time>2026-05-03T17:40:29.999Z</time></trkpt><trkpt lat="42.75794380656533" lon="13.738509320906982"><ele>164.0</ele><time>2026-05-03T17:40:30.999Z</time></trkpt><trkpt lat="42.75816499406132" lon="13.738595189313093"><ele>161.66666666666666</ele><time>2026-05-03T17:40:31.999Z</time></trkpt><trkpt lat="42.7583812755757" lon="13.738682221877736"><ele>159.33333333333334</ele><time>2026-05-03T17:40:32.999Z</time></trkpt><trkpt lat="42.75859513051554" lon="13.738764513656198"><ele>157.0</ele><time>2026-05-03T17:40:33.999Z</time></trkpt><trkpt lat="42.758812008689695" lon="13.738846338595778"><ele>157.0</ele><time>2026-05-03T17:40:34.999Z</time></trkpt><trkpt lat="42.75903032740676" lon="13.738927986032666"><ele>157.0</ele><time>2026-05-03T17:40:35.999Z</time></trkpt><trkpt lat="42.75924454277221" lon="13.739006875392343"><ele>157.0</ele><time>2026-05-03T17:40:36.999Z</time></trkpt><trkpt lat="42.75945652664899" lon="13.739089241297945"><ele>154.66666666666669</ele><time>2026-05-03T17:40:37.999Z</time></trkpt><trkpt lat="42.759668077896336" lon="13.739171850493934"><ele>152.33333333333334</ele><time>2026-05-03T17:40:38.999Z</time></trkpt><trkpt lat="42.759883312316994" lon="13.739260998485303"><ele>150.0</ele><time>2026-05-03T17:40:39.999Z</time></trkpt><trkpt lat="42.760100346969494" lon="13.739355425691851"><ele>150.0</ele><time>2026-05-03T17:40:40.999Z</time></trkpt><trkpt lat="42.760319389056306" lon="13.739460178469061"><ele>150.0</ele><time>2026-05-03T17:40:41.999Z</time></trkpt><trkpt lat="42.760533115238324" lon="13.739573333157686"><ele>150.0</ele><time>2026-05-03T17:40:42.999Z</time></trkpt><trkpt lat="42.76074213774698" lon="13.739694579207473"><ele>150.0</ele><time>2026-05-03T17:40:43.999Z</time></trkpt><trkpt lat="42.760944727725054" lon="13.73982404045918"><ele>148.5</ele><time>2026-05-03T17:40:44.999Z</time></trkpt><trkpt lat="42.76114621508831" lon="13.739964247347743"><ele>147.0</ele><time>2026-05-03T17:40:45.999Z</time></trkpt><trkpt lat="42.76134539896304" lon="13.7401115003424"><ele>151.5</ele><time>2026-05-03T17:40:46.999Z</time></trkpt><trkpt lat="42.761542914620804" lon="13.740268488282156"><ele>156.0</ele><time>2026-05-03T17:40:47.999Z</time></trkpt><trkpt lat="42.761737994493565" lon="13.740433615447516"><ele>152.0</ele><time>2026-05-03T17:40:48.999Z</time></trkpt><trkpt lat="42.76193013780239" lon="13.740607697885201"><ele>148.0</ele><time>2026-05-03T17:40:49.999Z</time></trkpt><trkpt lat="42.7621171665164" lon="13.740789316365268"><ele>148.0</ele><time>2026-05-03T17:40:50.999Z</time></trkpt><trkpt lat="42.76229939592322" lon="13.740978667247719"><ele>148.0</ele><time>2026-05-03T17:40:51.999Z</time></trkpt><trkpt lat="42.76247742688185" lon="13.74117717915905"><ele>149.5</ele><time>2026-05-03T17:40:52.999Z</time></trkpt><trkpt lat="42.76264855957728" lon="13.741382674271348"><ele>151.0</ele><time>2026-05-03T17:40:53.999Z</time></trkpt><trkpt lat="42.76281216395195" lon="13.74159488145535"><ele>149.0</ele><time>2026-05-03T17:40:54.999Z</time></trkpt><trkpt lat="42.76296761676407" lon="13.74181337760044"><ele>147.0</ele><time>2026-05-03T17:40:55.999Z</time></trkpt><trkpt lat="42.76311791861923" lon="13.742036809422848"><ele>145.0</ele><time>2026-05-03T17:40:56.999Z</time></trkpt><trkpt lat="42.76326402801059" lon="13.742264958999087"><ele>144.66666666666669</ele><time>2026-05-03T17:40:57.999Z</time></trkpt><trkpt lat="42.763403701957806" lon="13.742497261903852"><ele>144.33333333333334</ele><time>2026-05-03T17:40:58.999Z</time></trkpt><trkpt lat="42.76353542802179" lon="13.742732435481484"><ele>144.0</ele><time>2026-05-03T17:40:59.999Z</time></trkpt><trkpt lat="42.76365814012934" lon="13.742961407518031"><ele>143.33333333333334</ele><time>2026-05-03T17:41:00.999Z</time></trkpt><trkpt lat="42.76377406735302" lon="13.743181908674844"><ele>142.66666666666669</ele><time>2026-05-03T17:41:01.999Z</time></trkpt><trkpt lat="42.76388009949321" lon="13.743386855534606"><ele>142.0</ele><time>2026-05-03T17:41:02.999Z</time></trkpt><trkpt lat="42.76397955557901" lon="13.74358262590269"><ele>143.5</ele><time>2026-05-03T17:41:03.999Z</time></trkpt><trkpt lat="42.76407001546747" lon="13.743762401539836"><ele>145.0</ele><time>2026-05-03T17:41:04.999Z</time></trkpt><trkpt lat="42.76414802219395" lon="13.74392004196173"><ele>146.5</ele><time>2026-05-03T17:41:05.999Z</time></trkpt><trkpt lat="42.76421389454046" lon="13.74406327538422"><ele>148.0</ele><time>2026-05-03T17:41:06.999Z</time></trkpt><trkpt lat="42.76426325192937" lon="13.74419239823775"><ele>148.0</ele><time>2026-05-03T17:41:07.999Z</time></trkpt><trkpt lat="42.76429468910537" lon="13.74431617085189"><ele>148.0</ele><time>2026-05-03T17:41:08.999Z</time></trkpt><trkpt lat="42.76430202830233" lon="13.744433663442422"><ele>148.0</ele><time>2026-05-03T17:41:09.999Z</time></trkpt><trkpt lat="42.764307956967755" lon="13.744535651649555"><ele>148.0</ele><time>2026-05-03T17:41:10.999Z</time></trkpt><trkpt lat="42.764338634167466" lon="13.744617102418427"><ele>148.0</ele><time>2026-05-03T17:41:11.999Z</time></trkpt><trkpt lat="42.764408924101296" lon="13.74465369363519"><ele>148.0</ele><time>2026-05-03T17:41:12.999Z</time></trkpt><trkpt lat="42.76447494004423" lon="13.744649743186775"><ele>147.0</ele><time>2026-05-03T17:41:13.999Z</time></trkpt><trkpt lat="42.76454121125129" lon="13.744606645012244"><ele>146.0</ele><time>2026-05-03T17:41:14.999Z</time></trkpt><trkpt lat="42.76460571951229" lon="13.744537216921142"><ele>145.0</ele><time>2026-05-03T17:41:15.999Z</time></trkpt><trkpt lat="42.764676649820125" lon="13.744480340173073"><ele>144.0</ele><time>2026-05-03T17:41:16.999Z</time></trkpt><trkpt lat="42.764774916447976" lon="13.744443279351279"><ele>143.0</ele><time>2026-05-03T17:41:18.001Z</time></trkpt><trkpt lat="42.7648882572558" lon="13.744428126573691"><ele>143.0</ele><time>2026-05-03T17:41:19.001Z</time></trkpt><trkpt lat="42.76501824072347" lon="13.744410748544514"><ele>143.0</ele><time>2026-05-03T17:41:20.001Z</time></trkpt><trkpt lat="42.76515451547723" lon="13.744385956367259"><ele>143.0</ele><time>2026-05-03T17:41:21.001Z</time></trkpt><trkpt lat="42.76529725777455" lon="13.744350215415798"><ele>143.0</ele><time>2026-05-03T17:41:22.001Z</time></trkpt><trkpt lat="42.765441936761604" lon="13.744297367657438"><ele>142.5</ele><time>2026-05-03T17:41:23.001Z</time></trkpt><trkpt lat="42.765576679890344" lon="13.744227025460647"><ele>142.0</ele><time>2026-05-03T17:41:24.001Z</time></trkpt><trkpt lat="42.765706320299884" lon="13.744140566552035"><ele>141.5</ele><time>2026-05-03T17:41:25.001Z</time></trkpt><trkpt lat="42.76582386318461" lon="13.744051071920232"><ele>141.0</ele><time>2026-05-03T17:41:26.001Z</time></trkpt><trkpt lat="42.76592341478194" lon="13.743981746932935"><ele>141.0</ele><time>2026-05-03T17:41:27.001Z</time></trkpt><trkpt lat="42.76600129257517" lon="13.743947426601776"><ele>141.0</ele><time>2026-05-03T17:41:28.001Z</time></trkpt><trkpt lat="42.766083710908156" lon="13.743945235807216"><ele>141.0</ele><time>2026-05-03T17:41:29.001Z</time></trkpt><trkpt lat="42.76618202008168" lon="13.743970783901354"><ele>141.0</ele><time>2026-05-03T17:41:30.001Z</time></trkpt><trkpt lat="42.76628575033451" lon="13.744008432879854"><ele>141.0</ele><time>2026-05-03T17:41:31.001Z</time></trkpt><trkpt lat="42.76637586051293" lon="13.744070301278972"><ele>140.75</ele><time>2026-05-03T17:41:32.001Z</time></trkpt><trkpt lat="42.76643386004871" lon="13.744193410756782"><ele>140.5</ele><time>2026-05-03T17:41:33Z</time></trkpt><trkpt lat="42.766523670350225" lon="13.74430989567252"><ele>140.25</ele><time>2026-05-03T17:41:34Z</time></trkpt><trkpt lat="42.76660478468755" lon="13.744474702375413"><ele>140.0</ele><time>2026-05-03T17:41:35Z</time></trkpt><trkpt lat="42.76669575582726" lon="13.744655906581016"><ele>140.0</ele><time>2026-05-03T17:41:36Z</time></trkpt><trkpt lat="42.76679062297218" lon="13.744836080353965"><ele>140.0</ele><time>2026-05-03T17:41:37Z</time></trkpt><trkpt lat="42.766887403107255" lon="13.745015136166645"><ele>140.0</ele><time>2026-05-03T17:41:38Z</time></trkpt><trkpt lat="42.76698629294309" lon="13.745191601144592"><ele>139.66666666666666</ele><time>2026-05-03T17:41:39Z</time></trkpt><trkpt lat="42.76710249921802" lon="13.745356841982629"><ele>139.33333333333334</ele><time>2026-05-03T17:41:40Z</time></trkpt><trkpt lat="42.767215651338915" lon="13.74552092777824"><ele>139.0</ele><time>2026-05-03T17:41:41Z</time></trkpt><trkpt lat="42.767329605946834" lon="13.745679267624539"><ele>139.0</ele><time>2026-05-03T17:41:42Z</time></trkpt><trkpt lat="42.76744535078492" lon="13.745841738155562"><ele>139.0</ele><time>2026-05-03T17:41:43Z</time></trkpt><trkpt lat="42.767564583709195" lon="13.746002362328568"><ele>139.0</ele><time>2026-05-03T17:41:44Z</time></trkpt><trkpt lat="42.76768471887268" lon="13.746161214618732"><ele>138.0</ele><time>2026-05-03T17:41:45Z</time></trkpt><trkpt lat="42.76780390119688" lon="13.746316731583963"><ele>137.0</ele><time>2026-05-03T17:41:46Z</time></trkpt><trkpt lat="42.76791784598508" lon="13.746472618728916"><ele>136.0</ele><time>2026-05-03T17:41:47Z</time></trkpt><trkpt lat="42.768036778746406" lon="13.746633061406405"><ele>136.0</ele><time>2026-05-03T17:41:48Z</time></trkpt><trkpt lat="42.7681564793377" lon="13.74679004312262"><ele>136.0</ele><time>2026-05-03T17:41:49Z</time></trkpt><trkpt lat="42.768274950454796" lon="13.746947613974465"><ele>136.0</ele><time>2026-05-03T17:41:50Z</time></trkpt><trkpt lat="42.76839077132527" lon="13.747103597086209"><ele>135.66666666666669</ele><time>2026-05-03T17:41:51Z</time></trkpt><trkpt lat="42.76850442461605" lon="13.747251435966955"><ele>135.33333333333334</ele><time>2026-05-03T17:41:52Z</time></trkpt><trkpt lat="42.76861303872411" lon="13.747395736521183"><ele>135.0</ele><time>2026-05-03T17:41:53Z</time></trkpt><trkpt lat="42.768718724729474" lon="13.747533205445256"><ele>135.75</ele><time>2026-05-03T17:41:54Z</time></trkpt><trkpt lat="42.768824133665454" lon="13.747667498623665"><ele>136.5</ele><time>2026-05-03T17:41:55Z</time></trkpt><trkpt lat="42.76893146873567" lon="13.747798795522264"><ele>137.25</ele><time>2026-05-03T17:41:56Z</time></trkpt><trkpt lat="42.769040945432295" lon="13.747926898346421"><ele>138.0</ele><time>2026-05-03T17:41:57Z</time></trkpt><trkpt lat="42.76915296886595" lon="13.748056667153527"><ele>138.0</ele><time>2026-05-03T17:41:58Z</time></trkpt><trkpt lat="42.76926412077114" lon="13.74819070395861"><ele>138.0</ele><time>2026-05-03T17:41:59Z</time></trkpt><trkpt lat="42.769378580598485" lon="13.748321859724511"><ele>138.0</ele><time>2026-05-03T17:42:00Z</time></trkpt><trkpt lat="42.769495062510096" lon="13.748452224176727"><ele>138.0</ele><time>2026-05-03T17:42:01Z</time></trkpt><trkpt lat="42.769613750943726" lon="13.748588167407972"><ele>137.66666666666666</ele><time>2026-05-03T17:42:02Z</time></trkpt><trkpt lat="42.76972634653407" lon="13.748727614749011"><ele>137.33333333333331</ele><time>2026-05-03T17:42:03Z</time></trkpt><trkpt lat="42.76983781800375" lon="13.748873324059012"><ele>137.0</ele><time>2026-05-03T17:42:04Z</time></trkpt><trkpt lat="42.769949342132975" lon="13.749021401234044"><ele>137.0</ele><time>2026-05-03T17:42:05Z</time></trkpt><trkpt lat="42.77005982123663" lon="13.749171525292672"><ele>137.0</ele><time>2026-05-03T17:42:06Z</time></trkpt><trkpt lat="42.77016780839103" lon="13.74932003719507"><ele>137.0</ele><time>2026-05-03T17:42:07Z</time></trkpt><trkpt lat="42.77027529620916" lon="13.749471106270715"><ele>137.0</ele><time>2026-05-03T17:42:08Z</time></trkpt><trkpt lat="42.770380791434995" lon="13.749629769311827"><ele>137.0</ele><time>2026-05-03T17:42:09Z</time></trkpt><trkpt lat="42.77048674105502" lon="13.749789600142671"><ele>137.0</ele><time>2026-05-03T17:42:10Z</time></trkpt><trkpt lat="42.77059113754854" lon="13.749944454529562"><ele>137.0</ele><time>2026-05-03T17:42:11Z</time></trkpt><trkpt lat="42.770685612343975" lon="13.750097592486613"><ele>137.0</ele><time>2026-05-03T17:42:12Z</time></trkpt><trkpt lat="42.77077116388608" lon="13.750256316165453"><ele>137.0</ele><time>2026-05-03T17:42:13Z</time></trkpt><trkpt lat="42.7708388936368" lon="13.750427603633124"><ele>137.0</ele><time>2026-05-03T17:42:14Z</time></trkpt><trkpt lat="42.77087784473672" lon="13.75062703234367"><ele>137.33333333333331</ele><time>2026-05-03T17:42:15Z</time></trkpt><trkpt lat="42.77090299676747" lon="13.750833042077339"><ele>137.66666666666666</ele><time>2026-05-03T17:42:16Z</time></trkpt><trkpt lat="42.77091762104445" lon="13.751038817132997"><ele>138.0</ele><time>2026-05-03T17:42:17Z</time></trkpt><trkpt lat="42.77094564278001" lon="13.751238971571983"><ele>137.33333333333334</ele><time>2026-05-03T17:42:18Z</time></trkpt><trkpt lat="42.7710020891787" lon="13.75143638223327"><ele>136.66666666666669</ele><time>2026-05-03T17:42:19Z</time></trkpt><trkpt lat="42.771070545416194" lon="13.751636581832527"><ele>136.0</ele><time>2026-05-03T17:42:20Z</time></trkpt><trkpt lat="42.77113999135941" lon="13.75183585849973"><ele>139.66666666666669</ele><time>2026-05-03T17:42:21Z</time></trkpt><trkpt lat="42.771210872146995" lon="13.752037663421092"><ele>143.33333333333334</ele><time>2026-05-03T17:42:21.999Z</time></trkpt><trkpt lat="42.771280505562416" lon="13.752238551778284"><ele>147.0</ele><time>2026-05-03T17:42:22.999Z</time></trkpt><trkpt lat="42.7713442766731" lon="13.752429402235418"><ele>147.0</ele><time>2026-05-03T17:42:23.999Z</time></trkpt><trkpt lat="42.77140357420932" lon="13.752608143780645"><ele>147.0</ele><time>2026-05-03T17:42:24.999Z</time></trkpt><trkpt lat="42.77145785115087" lon="13.752773218838934"><ele>147.0</ele><time>2026-05-03T17:42:25.999Z</time></trkpt><trkpt lat="42.77152352954187" lon="13.752931663190989"><ele>147.0</ele><time>2026-05-03T17:42:26.999Z</time></trkpt><trkpt lat="42.77161067576282" lon="13.753071483638122"><ele>147.0</ele><time>2026-05-03T17:42:27.999Z</time></trkpt><trkpt lat="42.77171536554003" lon="13.753202998386897"><ele>147.0</ele><time>2026-05-03T17:42:28.999Z</time></trkpt><trkpt lat="42.771826567428505" lon="13.753330363097186"><ele>147.0</ele><time>2026-05-03T17:42:29.999Z</time></trkpt><trkpt lat="42.77193388584527" lon="13.753456564678768"><ele>147.0</ele><time>2026-05-03T17:42:30.999Z</time></trkpt><trkpt lat="42.77203005054563" lon="13.7535863106028"><ele>144.75</ele><time>2026-05-03T17:42:31.999Z</time></trkpt><trkpt lat="42.772109787692365" lon="13.753729585056673"><ele>142.5</ele><time>2026-05-03T17:42:32.999Z</time></trkpt><trkpt lat="42.77217924508587" lon="13.753889774210474"><ele>140.25</ele><time>2026-05-03T17:42:33.999Z</time></trkpt><trkpt lat="42.77223705532312" lon="13.754064220695717"><ele>138.0</ele><time>2026-05-03T17:42:34.999Z</time></trkpt><trkpt lat="42.77229208361413" lon="13.754244562362596"><ele>137.25</ele><time>2026-05-03T17:42:35.999Z</time></trkpt><trkpt lat="42.77234778099309" lon="13.754423296513691"><ele>136.5</ele><time>2026-05-03T17:42:36.999Z</time></trkpt><trkpt lat="42.772398364121145" lon="13.7546080890721"><ele>135.75</ele><time>2026-05-03T17:42:37.999Z</time></trkpt><trkpt lat="42.77243913402658" lon="13.75480684721521"><ele>135.0</ele><time>2026-05-03T17:42:38.999Z</time></trkpt><trkpt lat="42.77247850527333" lon="13.75501493635219"><ele>134.0</ele><time>2026-05-03T17:42:39.999Z</time></trkpt><trkpt lat="42.77252156244002" lon="13.755222583158103"><ele>133.0</ele><time>2026-05-03T17:42:40.999Z</time></trkpt><trkpt lat="42.772566155189764" lon="13.755427569037636"><ele>132.0</ele><time>2026-05-03T17:42:41.999Z</time></trkpt><trkpt lat="42.772608751377966" lon="13.755631184475241"><ele>132.0</ele><time>2026-05-03T17:42:42.999Z</time></trkpt><trkpt lat="42.772649481003555" lon="13.755832629061919"><ele>132.0</ele><time>2026-05-03T17:42:43.999Z</time></trkpt><trkpt lat="42.772685738204295" lon="13.756030486071587"><ele>132.0</ele><time>2026-05-03T17:42:44.999Z</time></trkpt><trkpt lat="42.77271306204076" lon="13.756223003457619"><ele>132.0</ele><time>2026-05-03T17:42:45.999Z</time></trkpt><trkpt lat="42.77272276086577" lon="13.756411646401018"><ele>131.0</ele><time>2026-05-03T17:42:46.999Z</time></trkpt><trkpt lat="42.77271512522279" lon="13.756591248087991"><ele>130.0</ele><time>2026-05-03T17:42:47.999Z</time></trkpt><trkpt lat="42.77269768228295" lon="13.756762330673629"><ele>129.0</ele><time>2026-05-03T17:42:48.999Z</time></trkpt><trkpt lat="42.77267882095636" lon="13.756919697834542"><ele>128.0</ele><time>2026-05-03T17:42:49.999Z</time></trkpt><trkpt lat="42.77266866300307" lon="13.757068104951696"><ele>128.0</ele><time>2026-05-03T17:42:50.999Z</time></trkpt><trkpt lat="42.77266943865599" lon="13.75721357020741"><ele>128.0</ele><time>2026-05-03T17:42:51.999Z</time></trkpt><trkpt lat="42.77269256586758" lon="13.757364883126217"><ele>128.0</ele><time>2026-05-03T17:42:52.999Z</time></trkpt><trkpt lat="42.77273357175606" lon="13.757517303897663"><ele>128.0</ele><time>2026-05-03T17:42:53.999Z</time></trkpt><trkpt lat="42.77278848383393" lon="13.7576693323803"><ele>129.75</ele><time>2026-05-03T17:42:54.999Z</time></trkpt><trkpt lat="42.77285346184522" lon="13.757821962685254"><ele>131.5</ele><time>2026-05-03T17:42:55.999Z</time></trkpt><trkpt lat="42.772926310540754" lon="13.757976326711399"><ele>133.25</ele><time>2026-05-03T17:42:56.999Z</time></trkpt><trkpt lat="42.77300051591607" lon="13.758134855957469"><ele>135.0</ele><time>2026-05-03T17:42:57.999Z</time></trkpt><trkpt lat="42.77307107130521" lon="13.758301495304472"><ele>135.0</ele><time>2026-05-03T17:42:58.999Z</time></trkpt><trkpt lat="42.77313189617626" lon="13.758478145183147"><ele>135.0</ele><time>2026-05-03T17:42:59.999Z</time></trkpt><trkpt lat="42.77316710114555" lon="13.758667736230608"><ele>135.0</ele><time>2026-05-03T17:43:00.999Z</time></trkpt><trkpt lat="42.77321388897494" lon="13.758852944242594"><ele>135.0</ele><time>2026-05-03T17:43:01.999Z</time></trkpt><trkpt lat="42.77327290919642" lon="13.759031236831655"><ele>133.0</ele><time>2026-05-03T17:43:02.999Z</time></trkpt><trkpt lat="42.77331998746316" lon="13.759214604630749"><ele>131.0</ele><time>2026-05-03T17:43:03.999Z</time></trkpt><trkpt lat="42.773390464076456" lon="13.759397088905867"><ele>129.0</ele><time>2026-05-03T17:43:04.999Z</time></trkpt><trkpt lat="42.77349059157064" lon="13.759566882508407"><ele>130.66666666666666</ele><time>2026-05-03T17:43:05.999Z</time></trkpt><trkpt lat="42.77360912793142" lon="13.759717223043259"><ele>132.33333333333331</ele><time>2026-05-03T17:43:06.999Z</time></trkpt><trkpt lat="42.773734198501266" lon="13.759857815835991"><ele>134.0</ele><time>2026-05-03T17:43:07.999Z</time></trkpt><trkpt lat="42.77383358082575" lon="13.760046860240983"><ele>132.66666666666666</ele><time>2026-05-03T17:43:08.999Z</time></trkpt><trkpt lat="42.773933607613635" lon="13.760243869947796"><ele>131.33333333333334</ele><time>2026-05-03T17:43:09.999Z</time></trkpt><trkpt lat="42.77401352872721" lon="13.760451628137245"><ele>130.0</ele><time>2026-05-03T17:43:10.999Z</time></trkpt><trkpt lat="42.774092938149096" lon="13.76064414242228"><ele>130.0</ele><time>2026-05-03T17:43:11.999Z</time></trkpt><trkpt lat="42.774172154391074" lon="13.760842395210037"><ele>130.0</ele><time>2026-05-03T17:43:12.999Z</time></trkpt><trkpt lat="42.7742510380169" lon="13.761045367141946"><ele>130.0</ele><time>2026-05-03T17:43:13.999Z</time></trkpt><trkpt lat="42.77432987751711" lon="13.761251923506668"><ele>130.33333333333334</ele><time>2026-05-03T17:43:14.999Z</time></trkpt><trkpt lat="42.77441075513395" lon="13.761457581485061"><ele>130.66666666666666</ele><time>2026-05-03T17:43:15.999Z</time></trkpt><trkpt lat="42.77449359059456" lon="13.761665344062276"><ele>131.0</ele><time>2026-05-03T17:43:16.999Z</time></trkpt><trkpt lat="42.77457216266478" lon="13.761871230469092"><ele>131.0</ele><time>2026-05-03T17:43:17.999Z</time></trkpt><trkpt lat="42.77464907631328" lon="13.762075784769195"><ele>131.0</ele><time>2026-05-03T17:43:18.999Z</time></trkpt><trkpt lat="42.774723728881" lon="13.762275337044974"><ele>131.0</ele><time>2026-05-03T17:43:19.999Z</time></trkpt><trkpt lat="42.774795316214544" lon="13.762464054688847"><ele>131.0</ele><time>2026-05-03T17:43:20.999Z</time></trkpt><trkpt lat="42.77486109113799" lon="13.762649456054898"><ele>131.0</ele><time>2026-05-03T17:43:21.999Z</time></trkpt><trkpt lat="42.77493248540677" lon="13.762825729237305"><ele>131.0</ele><time>2026-05-03T17:43:22.999Z</time></trkpt><trkpt lat="42.77502287923194" lon="13.762988746599387"><ele>131.0</ele><time>2026-05-03T17:43:24Z</time></trkpt><trkpt lat="42.775136138889835" lon="13.763130884766946"><ele>131.0</ele><time>2026-05-03T17:43:25Z</time></trkpt><trkpt lat="42.77526159478834" lon="13.763254462458042"><ele>131.0</ele><time>2026-05-03T17:43:26Z</time></trkpt><trkpt lat="42.77538261240064" lon="13.76337432621246"><ele>131.0</ele><time>2026-05-03T17:43:27Z</time></trkpt><trkpt lat="42.77549363929123" lon="13.763504628447755"><ele>129.5</ele><time>2026-05-03T17:43:28Z</time></trkpt><trkpt lat="42.77559445860447" lon="13.763646855488071"><ele>128.0</ele><time>2026-05-03T17:43:29Z</time></trkpt><trkpt lat="42.775681491867175" lon="13.763798587223876"><ele>126.5</ele><time>2026-05-03T17:43:30Z</time></trkpt><trkpt lat="42.77575752513782" lon="13.763961069945186"><ele>125.0</ele><time>2026-05-03T17:43:31Z</time></trkpt><trkpt lat="42.77585920127633" lon="13.764096849712924"><ele>125.0</ele><time>2026-05-03T17:43:32Z</time></trkpt><trkpt lat="42.77583546735078" lon="13.76432823807528"><ele>125.0</ele><time>2026-05-03T17:43:33Z</time></trkpt><trkpt lat="42.77584460164398" lon="13.764523577396414"><ele>125.0</ele><time>2026-05-03T17:43:34Z</time></trkpt><trkpt lat="42.77583757647079" lon="13.764725379373314"><ele>125.66666666666666</ele><time>2026-05-03T17:43:35Z</time></trkpt><trkpt lat="42.77580617779221" lon="13.76492653462051"><ele>126.33333333333334</ele><time>2026-05-03T17:43:36Z</time></trkpt><trkpt lat="42.775736410642494" lon="13.765113150492864"><ele>127.0</ele><time>2026-05-03T17:43:37Z</time></trkpt><trkpt lat="42.77566588565523" lon="13.76528896363558"><ele>127.0</ele><time>2026-05-03T17:43:38Z</time></trkpt><trkpt lat="42.77559449207583" lon="13.76546433556563"><ele>127.0</ele><time>2026-05-03T17:43:39Z</time></trkpt><trkpt lat="42.775502303536804" lon="13.76562607273309"><ele>127.0</ele><time>2026-05-03T17:43:40Z</time></trkpt><trkpt lat="42.77542093169691" lon="13.76580743611517"><ele>127.0</ele><time>2026-05-03T17:43:41Z</time></trkpt><trkpt lat="42.77535659154551" lon="13.766015402856327"><ele>127.0</ele><time>2026-05-03T17:43:42Z</time></trkpt><trkpt lat="42.77530369812132" lon="13.76623503814202"><ele>127.0</ele><time>2026-05-03T17:43:43Z</time></trkpt><trkpt lat="42.775259980507315" lon="13.76645531779811"><ele>127.33333333333334</ele><time>2026-05-03T17:43:44Z</time></trkpt><trkpt lat="42.77522966851799" lon="13.766683149101487"><ele>127.66666666666666</ele><time>2026-05-03T17:43:45Z</time></trkpt><trkpt lat="42.775212177082075" lon="13.766908405554954"><ele>128.0</ele><time>2026-05-03T17:43:46Z</time></trkpt><trkpt lat="42.77518904499513" lon="13.767129159781982"><ele>125.66666666666666</ele><time>2026-05-03T17:43:47Z</time></trkpt><trkpt lat="42.77516842999329" lon="13.767338630962662"><ele>123.33333333333334</ele><time>2026-05-03T17:43:48Z</time></trkpt><trkpt lat="42.77515949320093" lon="13.767545252363325"><ele>121.0</ele><time>2026-05-03T17:43:49Z</time></trkpt><trkpt lat="42.77513882038781" lon="13.767740221995245"><ele>120.5</ele><time>2026-05-03T17:43:50Z</time></trkpt><trkpt lat="42.77512255736971" lon="13.76793229057365"><ele>120.0</ele><time>2026-05-03T17:43:51Z</time></trkpt><trkpt lat="42.77512025633217" lon="13.768130523754845"><ele>119.5</ele><time>2026-05-03T17:43:52Z</time></trkpt><trkpt lat="42.77514035469293" lon="13.768344585225952"><ele>119.0</ele><time>2026-05-03T17:43:53Z</time></trkpt><trkpt lat="42.77518714841747" lon="13.768557558268778"><ele>119.33333333333333</ele><time>2026-05-03T17:43:54Z</time></trkpt><trkpt lat="42.77525145653409" lon="13.768762667252508"><ele>119.66666666666666</ele><time>2026-05-03T17:43:55Z</time></trkpt><trkpt lat="42.77532657253185" lon="13.768941904427043"><ele>120.0</ele><time>2026-05-03T17:43:56Z</time></trkpt><trkpt lat="42.775410653456206" lon="13.769093255455454"><ele>120.0</ele><time>2026-05-03T17:43:57Z</time></trkpt><trkpt lat="42.77549800440216" lon="13.769218028280253"><ele>120.0</ele><time>2026-05-03T17:43:58Z</time></trkpt><trkpt lat="42.77558036783365" lon="13.76932923010057"><ele>120.0</ele><time>2026-05-03T17:43:59Z</time></trkpt><trkpt lat="42.77565535697099" lon="13.769429916813774"><ele>120.0</ele><time>2026-05-03T17:44:00Z</time></trkpt><trkpt lat="42.7757240552094" lon="13.769516944575912"><ele>120.0</ele><time>2026-05-03T17:44:01Z</time></trkpt><trkpt lat="42.775786466932146" lon="13.769592015040738"><ele>119.66666666666667</ele><time>2026-05-03T17:44:02Z</time></trkpt><trkpt lat="42.77583968216039" lon="13.769668553208565"><ele>119.33333333333334</ele><time>2026-05-03T17:44:03Z</time></trkpt><trkpt lat="42.77587974898394" lon="13.769749682198382"><ele>119.0</ele><time>2026-05-03T17:44:04Z</time></trkpt><trkpt lat="42.77593594542266" lon="13.76982344039675"><ele>118.66666666666667</ele><time>2026-05-03T17:44:05Z</time></trkpt><trkpt lat="42.776018266021815" lon="13.769876516040682"><ele>118.33333333333334</ele><time>2026-05-03T17:44:06Z</time></trkpt><trkpt lat="42.77611660715062" lon="13.769911847472084"><ele>118.0</ele><time>2026-05-03T17:44:07Z</time></trkpt><trkpt lat="42.77623179755999" lon="13.769952291273572"><ele>119.0</ele><time>2026-05-03T17:44:08Z</time></trkpt><trkpt lat="42.77635211574025" lon="13.770006521102351"><ele>120.0</ele><time>2026-05-03T17:44:09Z</time></trkpt><trkpt lat="42.77647610266188" lon="13.77005657441537"><ele>121.0</ele><time>2026-05-03T17:44:10Z</time></trkpt><trkpt lat="42.77660723194046" lon="13.770093878205897"><ele>122.0</ele><time>2026-05-03T17:44:11Z</time></trkpt><trkpt lat="42.776742377203526" lon="13.770126980779457"><ele>121.25</ele><time>2026-05-03T17:44:12Z</time></trkpt><trkpt lat="42.77687980568476" lon="13.770154919365908"><ele>120.5</ele><time>2026-05-03T17:44:13Z</time></trkpt><trkpt lat="42.77701566096389" lon="13.770178045622723"><ele>119.75</ele><time>2026-05-03T17:44:13.999Z</time></trkpt><trkpt lat="42.77714873742852" lon="13.77019073684467"><ele>119.0</ele><time>2026-05-03T17:44:14.999Z</time></trkpt><trkpt lat="42.77728280460356" lon="13.77016955545452"><ele>119.0</ele><time>2026-05-03T17:44:15.999Z</time></trkpt><trkpt lat="42.7774112749711" lon="13.770109829857649"><ele>119.0</ele><time>2026-05-03T17:44:16.999Z</time></trkpt><trkpt lat="42.77752979802505" lon="13.770010688678306"><ele>119.0</ele><time>2026-05-03T17:44:17.999Z</time></trkpt><trkpt lat="42.777636491481196" lon="13.769880073046727"><ele>119.0</ele><time>2026-05-03T17:44:18.999Z</time></trkpt><trkpt lat="42.77773203235268" lon="13.76972810789653"><ele>118.5</ele><time>2026-05-03T17:44:19.999Z</time></trkpt><trkpt lat="42.77782523608473" lon="13.769575355047378"><ele>118.0</ele><time>2026-05-03T17:44:20.999Z</time></trkpt><trkpt lat="42.77792198695865" lon="13.769444656018628"><ele>117.5</ele><time>2026-05-03T17:44:21.999Z</time></trkpt><trkpt lat="42.778032314387126" lon="13.76932699310512"><ele>117.0</ele><time>2026-05-03T17:44:22.999Z</time></trkpt><trkpt lat="42.77815587186444" lon="13.769222773229073"><ele>118.5</ele><time>2026-05-03T17:44:23.999Z</time></trkpt><trkpt lat="42.77828591325901" lon="13.769130488731454"><ele>120.0</ele><time>2026-05-03T17:44:24.999Z</time></trkpt><trkpt lat="42.77841987603467" lon="13.769047204090883"><ele>121.5</ele><time>2026-05-03T17:44:25.999Z</time></trkpt><trkpt lat="42.778552452908016" lon="13.768981511874639"><ele>123.0</ele><time>2026-05-03T17:44:26.999Z</time></trkpt><trkpt lat="42.77868120232668" lon="13.768938434593615"><ele>123.0</ele><time>2026-05-03T17:44:27.999Z</time></trkpt><trkpt lat="42.778807338496364" lon="13.768925687756806"><ele>123.0</ele><time>2026-05-03T17:44:28.999Z</time></trkpt><trkpt lat="42.77893034400909" lon="13.7689463850048"><ele>123.0</ele><time>2026-05-03T17:44:29.999Z</time></trkpt><trkpt lat="42.77905634520883" lon="13.768994798308693"><ele>123.0</ele><time>2026-05-03T17:44:30.999Z</time></trkpt><trkpt lat="42.77917671282084" lon="13.769082897852684"><ele>123.0</ele><time>2026-05-03T17:44:31.999Z</time></trkpt><trkpt lat="42.77929091133495" lon="13.76919235466746"><ele>123.0</ele><time>2026-05-03T17:44:32.999Z</time></trkpt><trkpt lat="42.77940151016992" lon="13.769306611263476"><ele>123.0</ele><time>2026-05-03T17:44:33.999Z</time></trkpt><trkpt lat="42.77950688347876" lon="13.769420801085065"><ele>123.0</ele><time>2026-05-03T17:44:34.999Z</time></trkpt><trkpt lat="42.779614492336016" lon="13.769527124829612"><ele>122.0</ele><time>2026-05-03T17:44:35.999Z</time></trkpt><trkpt lat="42.779720916480564" lon="13.76963461959758"><ele>121.0</ele><time>2026-05-03T17:44:36.999Z</time></trkpt><trkpt lat="42.779825733710496" lon="13.769740137385265"><ele>120.0</ele><time>2026-05-03T17:44:37.999Z</time></trkpt><trkpt lat="42.779934232210294" lon="13.769851527703413"><ele>119.0</ele><time>2026-05-03T17:44:38.999Z</time></trkpt><trkpt lat="42.780049380266234" lon="13.769968876747733"><ele>119.0</ele><time>2026-05-03T17:44:39.999Z</time></trkpt><trkpt lat="42.78016547799731" lon="13.770086110392837"><ele>119.0</ele><time>2026-05-03T17:44:40.999Z</time></trkpt><trkpt lat="42.780279096657935" lon="13.770200627173399"><ele>119.0</ele><time>2026-05-03T17:44:41.999Z</time></trkpt><trkpt lat="42.780390045152046" lon="13.77030510056846"><ele>119.0</ele><time>2026-05-03T17:44:42.999Z</time></trkpt><trkpt lat="42.7804988573788" lon="13.770398472165583"><ele>119.5</ele><time>2026-05-03T17:44:43.999Z</time></trkpt><trkpt lat="42.780607698269996" lon="13.77047758776245"><ele>120.0</ele><time>2026-05-03T17:44:44.999Z</time></trkpt><trkpt lat="42.780713876969386" lon="13.770536918693859"><ele>120.5</ele><time>2026-05-03T17:44:45.999Z</time></trkpt><trkpt lat="42.780822923106626" lon="13.770572678103616"><ele>121.0</ele><time>2026-05-03T17:44:46.999Z</time></trkpt><trkpt lat="42.7809399130038" lon="13.770571054253109"><ele>121.0</ele><time>2026-05-03T17:44:47.999Z</time></trkpt><trkpt lat="42.78107837243235" lon="13.770511205456346"><ele>121.0</ele><time>2026-05-03T17:44:48.999Z</time></trkpt><trkpt lat="42.78121620046997" lon="13.7704459275999"><ele>121.0</ele><time>2026-05-03T17:44:49.999Z</time></trkpt><trkpt lat="42.78135250487821" lon="13.770351485674826"><ele>121.0</ele><time>2026-05-03T17:44:50.999Z</time></trkpt><trkpt lat="42.781490454382165" lon="13.77023973198257"><ele>120.66666666666667</ele><time>2026-05-03T17:44:51.999Z</time></trkpt><trkpt lat="42.781632028279645" lon="13.770130842986616"><ele>120.33333333333334</ele><time>2026-05-03T17:44:52.999Z</time></trkpt><trkpt lat="42.78177485543505" lon="13.770017633400446"><ele>120.0</ele><time>2026-05-03T17:44:53.999Z</time></trkpt><trkpt lat="42.7819136839101" lon="13.76990687109831"><ele>121.0</ele><time>2026-05-03T17:44:54.999Z</time></trkpt><trkpt lat="42.782050385370354" lon="13.769797657143789"><ele>122.0</ele><time>2026-05-03T17:44:55.999Z</time></trkpt><trkpt lat="42.78218967815687" lon="13.769692033637192"><ele>123.0</ele><time>2026-05-03T17:44:56.999Z</time></trkpt><trkpt lat="42.78233277615808" lon="13.769582500288028"><ele>123.0</ele><time>2026-05-03T17:44:57.999Z</time></trkpt><trkpt lat="42.782477839372895" lon="13.769468782600498"><ele>123.0</ele><time>2026-05-03T17:44:58.999Z</time></trkpt><trkpt lat="42.78262500384802" lon="13.769357219008134"><ele>123.0</ele><time>2026-05-03T17:44:59.999Z</time></trkpt><trkpt lat="42.78276920232423" lon="13.769249057611978"><ele>123.66666666666666</ele><time>2026-05-03T17:45:00.999Z</time></trkpt><trkpt lat="42.78290976907557" lon="13.769141118580182"><ele>124.33333333333333</ele><time>2026-05-03T17:45:01.999Z</time></trkpt><trkpt lat="42.78305214633275" lon="13.769033421567768"><ele>125.0</ele><time>2026-05-03T17:45:02.999Z</time></trkpt><trkpt lat="42.7831913008091" lon="13.768927642904385"><ele>125.0</ele><time>2026-05-03T17:45:03.999Z</time></trkpt><trkpt lat="42.78333115647991" lon="13.768818691238726"><ele>125.0</ele><time>2026-05-03T17:45:04.999Z</time></trkpt><trkpt lat="42.78346956158684" lon="13.76871187193811"><ele>125.0</ele><time>2026-05-03T17:45:05.999Z</time></trkpt><trkpt lat="42.78360937158447" lon="13.768610111227657"><ele>125.66666666666666</ele><time>2026-05-03T17:45:06.999Z</time></trkpt><trkpt lat="42.78375009967225" lon="13.768509532104412"><ele>126.33333333333334</ele><time>2026-05-03T17:45:07.999Z</time></trkpt><trkpt lat="42.783890193104874" lon="13.768403404849149"><ele>127.0</ele><time>2026-05-03T17:45:08.999Z</time></trkpt><trkpt lat="42.78403001746353" lon="13.768294255219244"><ele>127.0</ele><time>2026-05-03T17:45:09.999Z</time></trkpt><trkpt lat="42.78417030334715" lon="13.768185425720851"><ele>127.0</ele><time>2026-05-03T17:45:10.999Z</time></trkpt><trkpt lat="42.7843095547782" lon="13.768078246193483"><ele>127.0</ele><time>2026-05-03T17:45:11.998Z</time></trkpt><trkpt lat="42.784441406298626" lon="13.767973726011789"><ele>127.66666666666667</ele><time>2026-05-03T17:45:12.998Z</time></trkpt><trkpt lat="42.78457226688491" lon="13.767863880459718"><ele>128.33333333333334</ele><time>2026-05-03T17:45:13.998Z</time></trkpt><trkpt lat="42.78470511214462" lon="13.767760562878925"><ele>129.0</ele><time>2026-05-03T17:45:14.998Z</time></trkpt><trkpt lat="42.78483537933448" lon="13.767653826945617"><ele>129.25</ele><time>2026-05-03T17:45:15.998Z</time></trkpt><trkpt lat="42.78496640896854" lon="13.767555828930977"><ele>129.5</ele><time>2026-05-03T17:45:16.998Z</time></trkpt><trkpt lat="42.785098717739956" lon="13.767466694839108"><ele>129.75</ele><time>2026-05-03T17:45:17.998Z</time></trkpt><trkpt lat="42.785237908215066" lon="13.767383815443829"><ele>130.0</ele><time>2026-05-03T17:45:18.998Z</time></trkpt><trkpt lat="42.78537870135171" lon="13.767302053079689"><ele>130.0</ele><time>2026-05-03T17:45:19.998Z</time></trkpt><trkpt lat="42.78552280686309" lon="13.767217307283694"><ele>130.0</ele><time>2026-05-03T17:45:20.998Z</time></trkpt><trkpt lat="42.78566933895367" lon="13.767132794569779"><ele>130.0</ele><time>2026-05-03T17:45:21.998Z</time></trkpt><trkpt lat="42.78581409181974" lon="13.767045756239206"><ele>130.0</ele><time>2026-05-03T17:45:22.998Z</time></trkpt><trkpt lat="42.78595718427046" lon="13.766957422029405"><ele>130.0</ele><time>2026-05-03T17:45:23.998Z</time></trkpt><trkpt lat="42.78609397144683" lon="13.766874713623634"><ele>130.0</ele><time>2026-05-03T17:45:24.998Z</time></trkpt><trkpt lat="42.78622983980689" lon="13.766798242028559"><ele>130.0</ele><time>2026-05-03T17:45:25.998Z</time></trkpt><trkpt lat="42.786361562649425" lon="13.766722606036552"><ele>130.0</ele><time>2026-05-03T17:45:26.998Z</time></trkpt><trkpt lat="42.78649426610307" lon="13.76664901298635"><ele>130.0</ele><time>2026-05-03T17:45:27.998Z</time></trkpt><trkpt lat="42.78662985969166" lon="13.766581141902295"><ele>130.0</ele><time>2026-05-03T17:45:28.998Z</time></trkpt><trkpt lat="42.786763218657924" lon="13.76652342119334"><ele>130.0</ele><time>2026-05-03T17:45:30Z</time></trkpt><trkpt lat="42.78689683811476" lon="13.766476420154724"><ele>130.0</ele><time>2026-05-03T17:45:31Z</time></trkpt><trkpt lat="42.78701933966824" lon="13.766437489443458"><ele>130.0</ele><time>2026-05-03T17:45:32Z</time></trkpt><trkpt lat="42.78712607328506" lon="13.766402894322626"><ele>130.0</ele><time>2026-05-03T17:45:33Z</time></trkpt><trkpt lat="42.78722218494182" lon="13.766371313180317"><ele>130.0</ele><time>2026-05-03T17:45:34Z</time></trkpt><trkpt lat="42.78730688233286" lon="13.766347982921737"><ele>130.0</ele><time>2026-05-03T17:45:35Z</time></trkpt><trkpt lat="42.78738802732434" lon="13.766330191561696"><ele>130.0</ele><time>2026-05-03T17:45:36Z</time></trkpt><trkpt lat="42.787471937295834" lon="13.7663115571953"><ele>130.0</ele><time>2026-05-03T17:45:37Z</time></trkpt><trkpt lat="42.787563477480376" lon="13.76628981119224"><ele>130.0</ele><time>2026-05-03T17:45:38Z</time></trkpt><trkpt lat="42.787664488643166" lon="13.766265160164066"><ele>130.0</ele><time>2026-05-03T17:45:39Z</time></trkpt><trkpt lat="42.787781526658456" lon="13.766254729749512"><ele>130.5</ele><time>2026-05-03T17:45:40Z</time></trkpt><trkpt lat="42.78792004893234" lon="13.766253924601147"><ele>131.0</ele><time>2026-05-03T17:45:41Z</time></trkpt><trkpt lat="42.788063059279274" lon="13.766255619720503"><ele>131.5</ele><time>2026-05-03T17:45:42Z</time></trkpt><trkpt lat="42.78821477561842" lon="13.766280457080608"><ele>132.0</ele><time>2026-05-03T17:45:43Z</time></trkpt><trkpt lat="42.78837080480842" lon="13.76632593339527"><ele>133.0</ele><time>2026-05-03T17:45:44Z</time></trkpt><trkpt lat="42.788535174090214" lon="13.766378043201486"><ele>134.0</ele><time>2026-05-03T17:45:45Z</time></trkpt><trkpt lat="42.78869577798954" lon="13.766425599865766"><ele>135.0</ele><time>2026-05-03T17:45:46Z</time></trkpt><trkpt lat="42.78885119062002" lon="13.766466630387042"><ele>135.0</ele><time>2026-05-03T17:45:47Z</time></trkpt><trkpt lat="42.78900135956273" lon="13.766515627275902"><ele>135.0</ele><time>2026-05-03T17:45:48Z</time></trkpt><trkpt lat="42.78915189611425" lon="13.766561562942522"><ele>135.0</ele><time>2026-05-03T17:45:49Z</time></trkpt><trkpt lat="42.78930857877926" lon="13.766606038829803"><ele>135.0</ele><time>2026-05-03T17:45:50Z</time></trkpt><trkpt lat="42.78947013136767" lon="13.766651498030905"><ele>135.0</ele><time>2026-05-03T17:45:51Z</time></trkpt><trkpt lat="42.78963556474289" lon="13.766698394259887"><ele>135.0</ele><time>2026-05-03T17:45:52Z</time></trkpt><trkpt lat="42.789805350009495" lon="13.766749855108735"><ele>135.0</ele><time>2026-05-03T17:45:53Z</time></trkpt><trkpt lat="42.789980122792926" lon="13.766803216213924"><ele>135.0</ele><time>2026-05-03T17:45:54Z</time></trkpt><trkpt lat="42.79015203345607" lon="13.766856330635413"><ele>135.0</ele><time>2026-05-03T17:45:55Z</time></trkpt><trkpt lat="42.79032493086005" lon="13.766907592895977"><ele>136.66666666666666</ele><time>2026-05-03T17:45:56Z</time></trkpt><trkpt lat="42.79050134197759" lon="13.766954565653363"><ele>138.33333333333331</ele><time>2026-05-03T17:45:57Z</time></trkpt><trkpt lat="42.79067867452197" lon="13.767005273706967"><ele>140.0</ele><time>2026-05-03T17:45:58Z</time></trkpt><trkpt lat="42.79085239134578" lon="13.767060210185681"><ele>140.0</ele><time>2026-05-03T17:45:59Z</time></trkpt><trkpt lat="42.791024190790914" lon="13.767112178574763"><ele>140.0</ele><time>2026-05-03T17:46:00Z</time></trkpt><trkpt lat="42.79119319311536" lon="13.767162950381666"><ele>140.0</ele><time>2026-05-03T17:46:01Z</time></trkpt><trkpt lat="42.791361952416274" lon="13.76721182366692"><ele>140.0</ele><time>2026-05-03T17:46:02Z</time></trkpt><trkpt lat="42.79153133385678" lon="13.767257784148542"><ele>140.0</ele><time>2026-05-03T17:46:03Z</time></trkpt><trkpt lat="42.79169788125093" lon="13.767304204734375"><ele>140.0</ele><time>2026-05-03T17:46:04Z</time></trkpt><trkpt lat="42.79186693434911" lon="13.767353545123626"><ele>140.33333333333331</ele><time>2026-05-03T17:46:05Z</time></trkpt><trkpt lat="42.7920360655644" lon="13.767401732578953"><ele>140.66666666666666</ele><time>2026-05-03T17:46:06Z</time></trkpt><trkpt lat="42.79220120898354" lon="13.767453249734078"><ele>141.0</ele><time>2026-05-03T17:46:07Z</time></trkpt><trkpt lat="42.79235614956376" lon="13.767498393989658"><ele>141.0</ele><time>2026-05-03T17:46:08Z</time></trkpt><trkpt lat="42.79251381843158" lon="13.767526943939798"><ele>141.0</ele><time>2026-05-03T17:46:09Z</time></trkpt><trkpt lat="42.79267935965768" lon="13.767529194018662"><ele>141.0</ele><time>2026-05-03T17:46:10Z</time></trkpt><trkpt lat="42.79285705594148" lon="13.76750490130154"><ele>142.33333333333334</ele><time>2026-05-03T17:46:11Z</time></trkpt><trkpt lat="42.793037454011795" lon="13.767464504086359"><ele>143.66666666666669</ele><time>2026-05-03T17:46:12Z</time></trkpt><trkpt lat="42.79320928107519" lon="13.767419095764222"><ele>145.0</ele><time>2026-05-03T17:46:12.999Z</time></trkpt><trkpt lat="42.79337694400657" lon="13.76735631943968"><ele>148.0</ele><time>2026-05-03T17:46:13.999Z</time></trkpt><trkpt lat="42.79353987397029" lon="13.767269953986556"><ele>151.0</ele><time>2026-05-03T17:46:14.999Z</time></trkpt><trkpt lat="42.79370197165699" lon="13.767161499358174"><ele>154.0</ele><time>2026-05-03T17:46:15.999Z</time></trkpt><trkpt lat="42.79386619881105" lon="13.76704559711942"><ele>154.0</ele><time>2026-05-03T17:46:16.999Z</time></trkpt><trkpt lat="42.794037113502235" lon="13.76692829047992"><ele>154.0</ele><time>2026-05-03T17:46:17.999Z</time></trkpt><trkpt lat="42.79421682082816" lon="13.766828386870806"><ele>154.0</ele><time>2026-05-03T17:46:18.999Z</time></trkpt><trkpt lat="42.79440026029098" lon="13.766744926438728"><ele>154.66666666666669</ele><time>2026-05-03T17:46:19.999Z</time></trkpt><trkpt lat="42.794572551810326" lon="13.766666198850606"><ele>155.33333333333334</ele><time>2026-05-03T17:46:20.999Z</time></trkpt><trkpt lat="42.7947366797556" lon="13.766574561771842"><ele>156.0</ele><time>2026-05-03T17:46:21.999Z</time></trkpt><trkpt lat="42.79489781455724" lon="13.766482438481333"><ele>156.0</ele><time>2026-05-03T17:46:22.999Z</time></trkpt><trkpt lat="42.79505095969808" lon="13.766377866564232"><ele>156.0</ele><time>2026-05-03T17:46:23.999Z</time></trkpt><trkpt lat="42.795194675939975" lon="13.766243974602745"><ele>156.0</ele><time>2026-05-03T17:46:24.999Z</time></trkpt><trkpt lat="42.79532526935523" lon="13.766083754904429"><ele>157.66666666666666</ele><time>2026-05-03T17:46:25.999Z</time></trkpt><trkpt lat="42.79544326384471" lon="13.765921972261362"><ele>159.33333333333331</ele><time>2026-05-03T17:46:26.999Z</time></trkpt><trkpt lat="42.795548141369046" lon="13.765770205543232"><ele>161.0</ele><time>2026-05-03T17:46:27.999Z</time></trkpt><trkpt lat="42.79564916853799" lon="13.765644370784324"><ele>161.0</ele><time>2026-05-03T17:46:28.999Z</time></trkpt><trkpt lat="42.79574975514465" lon="13.765555794890819"><ele>161.0</ele><time>2026-05-03T17:46:29.999Z</time></trkpt><trkpt lat="42.79586066016117" lon="13.765510036936659"><ele>161.0</ele><time>2026-05-03T17:46:30.999Z</time></trkpt><trkpt lat="42.79599064382901" lon="13.765518847032139"><ele>161.0</ele><time>2026-05-03T17:46:31.999Z</time></trkpt><trkpt lat="42.79613694624224" lon="13.765503425358654"><ele>162.0</ele><time>2026-05-03T17:46:32.999Z</time></trkpt><trkpt lat="42.79627868621794" lon="13.765514815096639"><ele>163.0</ele><time>2026-05-03T17:46:33.999Z</time></trkpt><trkpt lat="42.796418944270386" lon="13.76552257018686"><ele>164.0</ele><time>2026-05-03T17:46:34.999Z</time></trkpt><trkpt lat="42.79655519105824" lon="13.76552111275473"><ele>165.0</ele><time>2026-05-03T17:46:35.999Z</time></trkpt><trkpt lat="42.79667817798371" lon="13.765511183068593"><ele>165.0</ele><time>2026-05-03T17:46:36.999Z</time></trkpt><trkpt lat="42.79679396009634" lon="13.76548419670976"><ele>165.0</ele><time>2026-05-03T17:46:37.999Z</time></trkpt><trkpt lat="42.79691133852333" lon="13.765455542510935"><ele>165.0</ele><time>2026-05-03T17:46:38.999Z</time></trkpt><trkpt lat="42.79702536108712" lon="13.765428799984763"><ele>165.0</ele><time>2026-05-03T17:46:39.999Z</time></trkpt><trkpt lat="42.79713467888875" lon="13.765395966911841"><ele>165.25</ele><time>2026-05-03T17:46:40.999Z</time></trkpt><trkpt lat="42.79724371116936" lon="13.765361963971548"><ele>165.5</ele><time>2026-05-03T17:46:41.999Z</time></trkpt><trkpt lat="42.797362652157254" lon="13.765360039763163"><ele>165.75</ele><time>2026-05-03T17:46:42.999Z</time></trkpt><trkpt lat="42.79748466503753" lon="13.765329149115203"><ele>166.0</ele><time>2026-05-03T17:46:43.999Z</time></trkpt><trkpt lat="42.79761141601627" lon="13.765346468380868"><ele>166.5</ele><time>2026-05-03T17:46:44.999Z</time></trkpt><trkpt lat="42.797735775628475" lon="13.765376073536011"><ele>167.0</ele><time>2026-05-03T17:46:45.999Z</time></trkpt><trkpt lat="42.7978578622392" lon="13.76541427358736"><ele>167.5</ele><time>2026-05-03T17:46:46.999Z</time></trkpt><trkpt lat="42.79797346028207" lon="13.765452720032954"><ele>168.0</ele><time>2026-05-03T17:46:47.999Z</time></trkpt><trkpt lat="42.79808968870499" lon="13.765489555419633"><ele>168.0</ele><time>2026-05-03T17:46:48.999Z</time></trkpt><trkpt lat="42.79820792264364" lon="13.765525183481001"><ele>168.0</ele><time>2026-05-03T17:46:49.999Z</time></trkpt><trkpt lat="42.79833108744252" lon="13.765566620359214"><ele>168.0</ele><time>2026-05-03T17:46:50.999Z</time></trkpt><trkpt lat="42.79845925379989" lon="13.765609456479137"><ele>168.0</ele><time>2026-05-03T17:46:51.999Z</time></trkpt><trkpt lat="42.798588329401746" lon="13.76565444431762"><ele>167.75</ele><time>2026-05-03T17:46:52.999Z</time></trkpt><trkpt lat="42.79871833046275" lon="13.765698296581638"><ele>167.5</ele><time>2026-05-03T17:46:53.999Z</time></trkpt><trkpt lat="42.79883986129369" lon="13.765741890579951"><ele>167.25</ele><time>2026-05-03T17:46:54.999Z</time></trkpt><trkpt lat="42.798954838704475" lon="13.765778692935733"><ele>167.0</ele><time>2026-05-03T17:46:55.999Z</time></trkpt><trkpt lat="42.79906044026858" lon="13.765808330791623"><ele>167.0</ele><time>2026-05-03T17:46:56.999Z</time></trkpt><trkpt lat="42.799144781080315" lon="13.76583917558477"><ele>167.0</ele><time>2026-05-03T17:46:57.999Z</time></trkpt><trkpt lat="42.79921314841875" lon="13.765867028599574"><ele>167.0</ele><time>2026-05-03T17:46:58.999Z</time></trkpt><trkpt lat="42.79930284134418" lon="13.76590905496365"><ele>167.0</ele><time>2026-05-03T17:47:00.999Z</time></trkpt><trkpt lat="42.7993729901901" lon="13.765958838712537"><ele>167.0</ele><time>2026-05-03T17:47:02.999Z</time></trkpt><trkpt lat="42.79944510052036" lon="13.766079590067996"><ele>167.0</ele><time>2026-05-03T17:47:04.999Z</time></trkpt><trkpt lat="42.79953762056568" lon="13.766162119337993"><ele>166.83333333333331</ele><time>2026-05-03T17:47:06.999Z</time></trkpt><trkpt lat="42.79959250805228" lon="13.76610670050709"><ele>166.66666666666666</ele><time>2026-05-03T17:47:07.999Z</time></trkpt><trkpt lat="42.79964662452651" lon="13.76596185702415"><ele>166.5</ele><time>2026-05-03T17:47:09.998Z</time></trkpt><trkpt lat="42.79963353157697" lon="13.76587132727366"><ele>166.33333333333334</ele><time>2026-05-03T17:47:10.998Z</time></trkpt><trkpt lat="42.799612337542435" lon="13.765769322443184"><ele>166.16666666666669</ele><time>2026-05-03T17:47:11.998Z</time></trkpt><trkpt lat="42.799604073381545" lon="13.76565261051635"><ele>166.0</ele><time>2026-05-03T17:47:12.998Z</time></trkpt><trkpt lat="42.79961882019482" lon="13.765513481584087"><ele>166.5</ele><time>2026-05-03T17:47:13.998Z</time></trkpt><trkpt lat="42.799642345448554" lon="13.765361336589102"><ele>167.0</ele><time>2026-05-03T17:47:14.998Z</time></trkpt><trkpt lat="42.79966897721904" lon="13.765206466255163"><ele>167.5</ele><time>2026-05-03T17:47:15.998Z</time></trkpt><trkpt lat="42.79969548690681" lon="13.765043556456337"><ele>168.0</ele><time>2026-05-03T17:47:16.998Z</time></trkpt><trkpt lat="42.79972209023348" lon="13.764877358666578"><ele>168.25</ele><time>2026-05-03T17:47:17.998Z</time></trkpt><trkpt lat="42.79974806381481" lon="13.764712043015756"><ele>168.5</ele><time>2026-05-03T17:47:18.998Z</time></trkpt><trkpt lat="42.79977415441665" lon="13.764543826908586"><ele>168.75</ele><time>2026-05-03T17:47:19.998Z</time></trkpt><trkpt lat="42.799798291636094" lon="13.76437532101277"><ele>169.0</ele><time>2026-05-03T17:47:20.998Z</time></trkpt><trkpt lat="42.79982266120645" lon="13.764206697882726"><ele>169.5</ele><time>2026-05-03T17:47:21.998Z</time></trkpt><trkpt lat="42.799846258149" lon="13.76405074163686"><ele>170.0</ele><time>2026-05-03T17:47:22.998Z</time></trkpt><trkpt lat="42.79987090358649" lon="13.763900462621837"><ele>170.5</ele><time>2026-05-03T17:47:23.998Z</time></trkpt><trkpt lat="42.79989399068801" lon="13.76375256640099"><ele>171.0</ele><time>2026-05-03T17:47:24.998Z</time></trkpt><trkpt lat="42.7999183918021" lon="13.763606949807667"><ele>171.0</ele><time>2026-05-03T17:47:25.998Z</time></trkpt><trkpt lat="42.79994418936122" lon="13.763458477527738"><ele>171.0</ele><time>2026-05-03T17:47:26.998Z</time></trkpt><trkpt lat="42.79997210876562" lon="13.763304432375422"><ele>171.0</ele><time>2026-05-03T17:47:27.998Z</time></trkpt><trkpt lat="42.7999988586834" lon="13.763147496479279"><ele>171.0</ele><time>2026-05-03T17:47:28.998Z</time></trkpt><trkpt lat="42.800024728671154" lon="13.762988395908987"><ele>171.0</ele><time>2026-05-03T17:47:29.998Z</time></trkpt><trkpt lat="42.80004926537852" lon="13.762824868203143"><ele>171.0</ele><time>2026-05-03T17:47:30.998Z</time></trkpt><trkpt lat="42.8000741817226" lon="13.762654514629817"><ele>171.0</ele><time>2026-05-03T17:47:31.998Z</time></trkpt><trkpt lat="42.800101429702906" lon="13.762480375348416"><ele>171.0</ele><time>2026-05-03T17:47:32.998Z</time></trkpt><trkpt lat="42.800129396246696" lon="13.762302538272694"><ele>171.25</ele><time>2026-05-03T17:47:33.998Z</time></trkpt><trkpt lat="42.80015700622076" lon="13.76212300328424"><ele>171.5</ele><time>2026-05-03T17:47:34.998Z</time></trkpt><trkpt lat="42.800187143367154" lon="13.761939430922302"><ele>171.75</ele><time>2026-05-03T17:47:36Z</time></trkpt><trkpt lat="42.800216861980516" lon="13.76175463938717"><ele>172.0</ele><time>2026-05-03T17:47:37Z</time></trkpt><trkpt lat="42.800248870511304" lon="13.761573601241379"><ele>172.0</ele><time>2026-05-03T17:47:38Z</time></trkpt><trkpt lat="42.80028163130752" lon="13.761393757545855"><ele>172.0</ele><time>2026-05-03T17:47:39Z</time></trkpt><trkpt lat="42.80031251268905" lon="13.761214034680023"><ele>172.0</ele><time>2026-05-03T17:47:40Z</time></trkpt><trkpt lat="42.800339046181115" lon="13.761033122699239"><ele>172.0</ele><time>2026-05-03T17:47:41Z</time></trkpt><trkpt lat="42.8003695852654" lon="13.760848429769494"><ele>172.75</ele><time>2026-05-03T17:47:42Z</time></trkpt><trkpt lat="42.800405224123985" lon="13.760659816801494"><ele>173.5</ele><time>2026-05-03T17:47:43Z</time></trkpt><trkpt lat="42.800443885598355" lon="13.760469146379977"><ele>174.25</ele><time>2026-05-03T17:47:44Z</time></trkpt><trkpt lat="42.800485838519734" lon="13.760275671897038"><ele>175.0</ele><time>2026-05-03T17:47:45Z</time></trkpt><trkpt lat="42.80053231266913" lon="13.760078912121244"><ele>175.33333333333334</ele><time>2026-05-03T17:47:46Z</time></trkpt><trkpt lat="42.800581374740226" lon="13.759868117263006"><ele>175.66666666666666</ele><time>2026-05-03T17:47:47Z</time></trkpt><trkpt lat="42.800639481093924" lon="13.759657377832704"><ele>176.0</ele><time>2026-05-03T17:47:48Z</time></trkpt><trkpt lat="42.800704345150166" lon="13.759454785606241"><ele>175.33333333333331</ele><time>2026-05-03T17:47:49Z</time></trkpt><trkpt lat="42.80077169541047" lon="13.759248514699765"><ele>174.66666666666666</ele><time>2026-05-03T17:47:50Z</time></trkpt><trkpt lat="42.80084423741696" lon="13.759041903138666"><ele>174.0</ele><time>2026-05-03T17:47:51Z</time></trkpt><trkpt lat="42.80092223659081" lon="13.758835584278705"><ele>174.0</ele><time>2026-05-03T17:47:52Z</time></trkpt><trkpt lat="42.80100497279953" lon="13.758630296247464"><ele>174.0</ele><time>2026-05-03T17:47:53Z</time></trkpt><trkpt lat="42.80109031168801" lon="13.758424530600543"><ele>174.0</ele><time>2026-05-03T17:47:54Z</time></trkpt><trkpt lat="42.80117655699904" lon="13.75821739576467"><ele>174.33333333333334</ele><time>2026-05-03T17:47:55Z</time></trkpt><trkpt lat="42.80126570571692" lon="13.7580117872163"><ele>174.66666666666669</ele><time>2026-05-03T17:47:56Z</time></trkpt><trkpt lat="42.80135827935766" lon="13.757806975774496"><ele>175.0</ele><time>2026-05-03T17:47:57Z</time></trkpt><trkpt lat="42.80145259538186" lon="13.757600694718391"><ele>176.0</ele><time>2026-05-03T17:47:58Z</time></trkpt><trkpt lat="42.80154625251447" lon="13.757393390072092"><ele>177.0</ele><time>2026-05-03T17:47:59Z</time></trkpt><trkpt lat="42.801640251876734" lon="13.757186602009632"><ele>178.0</ele><time>2026-05-03T17:48:00Z</time></trkpt><trkpt lat="42.8017316730268" lon="13.75698068721481"><ele>178.0</ele><time>2026-05-03T17:48:01Z</time></trkpt><trkpt lat="42.80182195786209" lon="13.756780982037737"><ele>178.0</ele><time>2026-05-03T17:48:02Z</time></trkpt><trkpt lat="42.80190823312657" lon="13.756589118454922"><ele>178.0</ele><time>2026-05-03T17:48:03Z</time></trkpt><trkpt lat="42.8019888743482" lon="13.756404767530597"><ele>178.25</ele><time>2026-05-03T17:48:04Z</time></trkpt><trkpt lat="42.80205946399886" lon="13.756231910668534"><ele>178.5</ele><time>2026-05-03T17:48:05Z</time></trkpt><trkpt lat="42.80212620473029" lon="13.75606481621951"><ele>178.75</ele><time>2026-05-03T17:48:06Z</time></trkpt><trkpt lat="42.802190071472815" lon="13.755903973196261"><ele>179.0</ele><time>2026-05-03T17:48:07Z</time></trkpt><trkpt lat="42.802253408464225" lon="13.755740697219673"><ele>179.75</ele><time>2026-05-03T17:48:08Z</time></trkpt><trkpt lat="42.80231762823613" lon="13.755571856808078"><ele>180.5</ele><time>2026-05-03T17:48:09Z</time></trkpt><trkpt lat="42.80238257282753" lon="13.75539814335839"><ele>181.25</ele><time>2026-05-03T17:48:10Z</time></trkpt><trkpt lat="42.80244712525659" lon="13.755222452288447"><ele>182.0</ele><time>2026-05-03T17:48:11Z</time></trkpt><trkpt lat="42.80251048419893" lon="13.755043936968127"><ele>182.0</ele><time>2026-05-03T17:48:12Z</time></trkpt><trkpt lat="42.802574475768836" lon="13.754862685135011"><ele>182.0</ele><time>2026-05-03T17:48:13Z</time></trkpt><trkpt lat="42.80263939993925" lon="13.75467882595489"><ele>182.0</ele><time>2026-05-03T17:48:14Z</time></trkpt><trkpt lat="42.80270272327108" lon="13.754499565078602"><ele>182.0</ele><time>2026-05-03T17:48:15Z</time></trkpt><trkpt lat="42.80276505201082" lon="13.754324415258141"><ele>181.75</ele><time>2026-05-03T17:48:16Z</time></trkpt><trkpt lat="42.8028265424304" lon="13.754146981056596"><ele>181.5</ele><time>2026-05-03T17:48:16.999Z</time></trkpt><trkpt lat="42.80288903389086" lon="13.753966352895732"><ele>181.25</ele><time>2026-05-03T17:48:17.999Z</time></trkpt><trkpt lat="42.80295226144417" lon="13.753785901623038"><ele>181.0</ele><time>2026-05-03T17:48:18.999Z</time></trkpt><trkpt lat="42.80301464647652" lon="13.753608760104026"><ele>181.5</ele><time>2026-05-03T17:48:19.999Z</time></trkpt><trkpt lat="42.80307625628801" lon="13.753434753446724"><ele>182.0</ele><time>2026-05-03T17:48:20.999Z</time></trkpt><trkpt lat="42.803135053885136" lon="13.753269560086466"><ele>182.5</ele><time>2026-05-03T17:48:21.999Z</time></trkpt><trkpt lat="42.80319422689323" lon="13.75310132009013"><ele>183.0</ele><time>2026-05-03T17:48:22.999Z</time></trkpt><trkpt lat="42.803256554173" lon="13.752927504970275"><ele>183.0</ele><time>2026-05-03T17:48:23.999Z</time></trkpt><trkpt lat="42.80332211957323" lon="13.752741084481446"><ele>183.0</ele><time>2026-05-03T17:48:24.999Z</time></trkpt><trkpt lat="42.803390164770185" lon="13.752550825761215"><ele>183.0</ele><time>2026-05-03T17:48:25.999Z</time></trkpt><trkpt lat="42.80345979903285" lon="13.752360895375665"><ele>183.33333333333334</ele><time>2026-05-03T17:48:26.999Z</time></trkpt><trkpt lat="42.80352806417497" lon="13.7521722997495"><ele>183.66666666666669</ele><time>2026-05-03T17:48:27.999Z</time></trkpt><trkpt lat="42.80359717400448" lon="13.751979795322564"><ele>184.0</ele><time>2026-05-03T17:48:28.999Z</time></trkpt><trkpt lat="42.80366648272601" lon="13.751786277021948"><ele>184.0</ele><time>2026-05-03T17:48:29.999Z</time></trkpt><trkpt lat="42.80373596752127" lon="13.751590571545064"><ele>184.0</ele><time>2026-05-03T17:48:30.999Z</time></trkpt><trkpt lat="42.803806403076706" lon="13.751390867330036"><ele>184.0</ele><time>2026-05-03T17:48:31.999Z</time></trkpt><trkpt lat="42.803877823095526" lon="13.751187510632581"><ele>184.33333333333334</ele><time>2026-05-03T17:48:32.999Z</time></trkpt><trkpt lat="42.803949884317106" lon="13.750981566325562"><ele>184.66666666666666</ele><time>2026-05-03T17:48:33.999Z</time></trkpt><trkpt lat="42.80402115476362" lon="13.750774205082463"><ele>185.0</ele><time>2026-05-03T17:48:34.999Z</time></trkpt><trkpt lat="42.80409464959679" lon="13.75056644858935"><ele>185.0</ele><time>2026-05-03T17:48:35.999Z</time></trkpt><trkpt lat="42.80416828829916" lon="13.750359882011317"><ele>185.0</ele><time>2026-05-03T17:48:36.999Z</time></trkpt><trkpt lat="42.80424276045869" lon="13.750151395370635"><ele>185.0</ele><time>2026-05-03T17:48:37.999Z</time></trkpt><trkpt lat="42.80431748340071" lon="13.74994402321314"><ele>185.0</ele><time>2026-05-03T17:48:38.999Z</time></trkpt><trkpt lat="42.80439165989379" lon="13.749737575157784"><ele>185.0</ele><time>2026-05-03T17:48:39.999Z</time></trkpt><trkpt lat="42.804464609843684" lon="13.74953274168602"><ele>185.0</ele><time>2026-05-03T17:48:40.999Z</time></trkpt><trkpt lat="42.80453668006528" lon="13.749334218789274"><ele>185.5</ele><time>2026-05-03T17:48:41.999Z</time></trkpt><trkpt lat="42.804604971189455" lon="13.749144849034197"><ele>186.0</ele><time>2026-05-03T17:48:42.999Z</time></trkpt><trkpt lat="42.804666822920666" lon="13.748966402523399"><ele>186.5</ele><time>2026-05-03T17:48:43.999Z</time></trkpt><trkpt lat="42.80472305164859" lon="13.748794770140583"><ele>187.0</ele><time>2026-05-03T17:48:44.999Z</time></trkpt><trkpt lat="42.804777295989425" lon="13.748629230845404"><ele>187.5</ele><time>2026-05-03T17:48:45.999Z</time></trkpt><trkpt lat="42.804836761372954" lon="13.748461764250381"><ele>188.0</ele><time>2026-05-03T17:48:46.999Z</time></trkpt><trkpt lat="42.80490166652193" lon="13.74829118102725"><ele>188.5</ele><time>2026-05-03T17:48:47.999Z</time></trkpt><trkpt lat="42.80496831740448" lon="13.74811429957523"><ele>189.0</ele><time>2026-05-03T17:48:48.999Z</time></trkpt><trkpt lat="42.80503587099761" lon="13.747926480681864"><ele>189.0</ele><time>2026-05-03T17:48:49.999Z</time></trkpt><trkpt lat="42.805106385139574" lon="13.747731067727312"><ele>189.0</ele><time>2026-05-03T17:48:50.999Z</time></trkpt><trkpt lat="42.805181612457474" lon="13.747518662627376"><ele>189.0</ele><time>2026-05-03T17:48:51.999Z</time></trkpt><trkpt lat="42.805257546398046" lon="13.747319153276896"><ele>189.66666666666666</ele><time>2026-05-03T17:48:52.999Z</time></trkpt><trkpt lat="42.80533169726632" lon="13.747094300541253"><ele>190.33333333333331</ele><time>2026-05-03T17:48:53.999Z</time></trkpt><trkpt lat="42.80540786669121" lon="13.74686757590354"><ele>191.0</ele><time>2026-05-03T17:48:54.999Z</time></trkpt><trkpt lat="42.8054843258427" lon="13.746643896215929"><ele>191.33333333333331</ele><time>2026-05-03T17:48:55.999Z</time></trkpt><trkpt lat="42.80555709952097" lon="13.746434486807898"><ele>191.66666666666666</ele><time>2026-05-03T17:48:56.999Z</time></trkpt><trkpt lat="42.805627985099505" lon="13.746234954715854"><ele>192.0</ele><time>2026-05-03T17:48:57.999Z</time></trkpt><trkpt lat="42.80569690346481" lon="13.746042168127817"><ele>193.0</ele><time>2026-05-03T17:48:58.999Z</time></trkpt><trkpt lat="42.80576756988901" lon="13.745846888017729"><ele>194.0</ele><time>2026-05-03T17:48:59.999Z</time></trkpt><trkpt lat="42.80583813369674" lon="13.745648630530884"><ele>195.0</ele><time>2026-05-03T17:49:00.999Z</time></trkpt><trkpt lat="42.8059065314671" lon="13.745450076345085"><ele>195.0</ele><time>2026-05-03T17:49:01.999Z</time></trkpt><trkpt lat="42.80597408432982" lon="13.745252119660035"><ele>195.0</ele><time>2026-05-03T17:49:02.999Z</time></trkpt><trkpt lat="42.80604471920008" lon="13.745055549381437"><ele>195.0</ele><time>2026-05-03T17:49:03.999Z</time></trkpt><trkpt lat="42.806115600817584" lon="13.744859636355761"><ele>195.0</ele><time>2026-05-03T17:49:04.999Z</time></trkpt><trkpt lat="42.80618473811462" lon="13.744662548209499"><ele>195.0</ele><time>2026-05-03T17:49:05.999Z</time></trkpt><trkpt lat="42.80625343849191" lon="13.744466881088849"><ele>195.0</ele><time>2026-05-03T17:49:06.999Z</time></trkpt><trkpt lat="42.80632453059242" lon="13.744269600666705"><ele>195.66666666666669</ele><time>2026-05-03T17:49:07.999Z</time></trkpt><trkpt lat="42.80639885884454" lon="13.744068989549227"><ele>196.33333333333334</ele><time>2026-05-03T17:49:08.999Z</time></trkpt><trkpt lat="42.80647284586876" lon="13.7438631514059"><ele>197.0</ele><time>2026-05-03T17:49:09.999Z</time></trkpt><trkpt lat="42.80654544501948" lon="13.743657049734276"><ele>197.66666666666669</ele><time>2026-05-03T17:49:10.999Z</time></trkpt><trkpt lat="42.80661593435665" lon="13.743454237355598"><ele>198.33333333333331</ele><time>2026-05-03T17:49:11.999Z</time></trkpt><trkpt lat="42.806686076041224" lon="13.743255638115466"><ele>199.0</ele><time>2026-05-03T17:49:12.999Z</time></trkpt><trkpt lat="42.80675288736649" lon="13.743068012525951"><ele>199.0</ele><time>2026-05-03T17:49:13.998Z</time></trkpt><trkpt lat="42.80681586039327" lon="13.742886608428362"><ele>199.0</ele><time>2026-05-03T17:49:14.998Z</time></trkpt><trkpt lat="42.806879215482034" lon="13.742703417669919"><ele>199.0</ele><time>2026-05-03T17:49:15.998Z</time></trkpt><trkpt lat="42.806944798682075" lon="13.742517025465329"><ele>199.0</ele><time>2026-05-03T17:49:16.998Z</time></trkpt><trkpt lat="42.807011184581334" lon="13.742331707202805"><ele>199.75</ele><time>2026-05-03T17:49:17.998Z</time></trkpt><trkpt lat="42.80707588833429" lon="13.7421467838035"><ele>200.5</ele><time>2026-05-03T17:49:18.998Z</time></trkpt><trkpt lat="42.80713546744351" lon="13.741973350402008"><ele>201.25</ele><time>2026-05-03T17:49:19.998Z</time></trkpt><trkpt lat="42.807191025477934" lon="13.741808895699917"><ele>202.0</ele><time>2026-05-03T17:49:20.998Z</time></trkpt><trkpt lat="42.807245791351676" lon="13.741655890729286"><ele>202.39999999999998</ele><time>2026-05-03T17:49:21.998Z</time></trkpt><trkpt lat="42.80729734083061" lon="13.741513924842934"><ele>202.79999999999998</ele><time>2026-05-03T17:49:22.998Z</time></trkpt><trkpt lat="42.80734359822111" lon="13.741378932828422"><ele>203.2</ele><time>2026-05-03T17:49:23.998Z</time></trkpt><trkpt lat="42.80738867374944" lon="13.741251945945374"><ele>203.6</ele><time>2026-05-03T17:49:24.998Z</time></trkpt><trkpt lat="42.80743320281322" lon="13.741139195673773"><ele>204.0</ele><time>2026-05-03T17:49:25.998Z</time></trkpt><trkpt lat="42.80747319003043" lon="13.74105337637676"><ele>204.0</ele><time>2026-05-03T17:49:26.998Z</time></trkpt><trkpt lat="42.80756736324588" lon="13.740939527368967"><ele>204.0</ele><time>2026-05-03T17:49:28.998Z</time></trkpt><trkpt lat="42.80764347452485" lon="13.740903215758058"><ele>204.0</ele><time>2026-05-03T17:49:29.998Z</time></trkpt><trkpt lat="42.80772804023253" lon="13.74086458243116"><ele>204.0</ele><time>2026-05-03T17:49:30.998Z</time></trkpt><trkpt lat="42.807846144609925" lon="13.740918262410908"><ele>204.0</ele><time>2026-05-03T17:49:31.998Z</time></trkpt><trkpt lat="42.807966824530844" lon="13.7409883454316"><ele>203.75</ele><time>2026-05-03T17:49:32.998Z</time></trkpt><trkpt lat="42.80809301742777" lon="13.741080549715436"><ele>203.5</ele><time>2026-05-03T17:49:33.998Z</time></trkpt><trkpt lat="42.80822806866786" lon="13.741156569430217"><ele>203.25</ele><time>2026-05-03T17:49:34.998Z</time></trkpt><trkpt lat="42.80837928399526" lon="13.741212219043428"><ele>203.0</ele><time>2026-05-03T17:49:35.998Z</time></trkpt><trkpt lat="42.80854165594707" lon="13.741236554379608"><ele>203.0</ele><time>2026-05-03T17:49:36.998Z</time></trkpt><trkpt lat="42.80871679704562" lon="13.741232283115185"><ele>203.0</ele><time>2026-05-03T17:49:37.998Z</time></trkpt><trkpt lat="42.808896444447214" lon="13.74122017885739"><ele>203.0</ele><time>2026-05-03T17:49:38.998Z</time></trkpt><trkpt lat="42.809083678342134" lon="13.741198688446199"><ele>203.0</ele><time>2026-05-03T17:49:39.998Z</time></trkpt><trkpt lat="42.80927636137577" lon="13.741175942459913"><ele>203.0</ele><time>2026-05-03T17:49:40.998Z</time></trkpt><trkpt lat="42.80947263116903" lon="13.741157846381727"><ele>203.0</ele><time>2026-05-03T17:49:42Z</time></trkpt><trkpt lat="42.80966716590301" lon="13.741141524873287"><ele>203.0</ele><time>2026-05-03T17:49:43Z</time></trkpt><trkpt lat="42.8098630401352" lon="13.741149005748971"><ele>203.0</ele><time>2026-05-03T17:49:44Z</time></trkpt><trkpt lat="42.81005203798306" lon="13.741131018942696"><ele>203.0</ele><time>2026-05-03T17:49:45Z</time></trkpt><trkpt lat="42.81022780210817" lon="13.741095199940577"><ele>202.0</ele><time>2026-05-03T17:49:46Z</time></trkpt><trkpt lat="42.81040348468855" lon="13.741107912777977"><ele>201.0</ele><time>2026-05-03T17:49:47Z</time></trkpt><trkpt lat="42.81057903942106" lon="13.741079298628438"><ele>200.0</ele><time>2026-05-03T17:49:48Z</time></trkpt><trkpt lat="42.81075593893237" lon="13.741064567398176"><ele>200.0</ele><time>2026-05-03T17:49:49Z</time></trkpt><trkpt lat="42.81092340302896" lon="13.741049805708759"><ele>200.0</ele><time>2026-05-03T17:49:50Z</time></trkpt><trkpt lat="42.81107735403937" lon="13.74100997384614"><ele>200.0</ele><time>2026-05-03T17:49:51Z</time></trkpt><trkpt lat="42.81122372053855" lon="13.740897605569538"><ele>200.33333333333334</ele><time>2026-05-03T17:49:52Z</time></trkpt><trkpt lat="42.81136365893707" lon="13.740766136327894"><ele>200.66666666666669</ele><time>2026-05-03T17:49:53Z</time></trkpt><trkpt lat="42.811497561000145" lon="13.740613307004402"><ele>201.0</ele><time>2026-05-03T17:49:54Z</time></trkpt><trkpt lat="42.81164892221948" lon="13.740485302787897"><ele>201.0</ele><time>2026-05-03T17:49:55Z</time></trkpt><trkpt lat="42.8117880028301" lon="13.740350618601472"><ele>201.0</ele><time>2026-05-03T17:49:56Z</time></trkpt><trkpt lat="42.81192619000958" lon="13.74023837242091"><ele>201.0</ele><time>2026-05-03T17:49:57Z</time></trkpt><trkpt lat="42.812077416640456" lon="13.7401840327401"><ele>201.66666666666669</ele><time>2026-05-03T17:49:58Z</time></trkpt><trkpt lat="42.81222915615311" lon="13.740156238427867"><ele>202.33333333333334</ele><time>2026-05-03T17:49:59Z</time></trkpt><trkpt lat="42.81237522072565" lon="13.740151158525341"><ele>203.0</ele><time>2026-05-03T17:50:00Z</time></trkpt><trkpt lat="42.81252791875547" lon="13.740175675921128"><ele>202.33333333333334</ele><time>2026-05-03T17:50:01Z</time></trkpt><trkpt lat="42.81269064085429" lon="13.740222742447726"><ele>201.66666666666669</ele><time>2026-05-03T17:50:02Z</time></trkpt><trkpt lat="42.812856234858494" lon="13.740271034120651"><ele>201.0</ele><time>2026-05-03T17:50:03Z</time></trkpt><trkpt lat="42.813027257304334" lon="13.740320891219246"><ele>201.0</ele><time>2026-05-03T17:50:04Z</time></trkpt><trkpt lat="42.81320369650392" lon="13.740371854784978"><ele>201.0</ele><time>2026-05-03T17:50:05Z</time></trkpt><trkpt lat="42.81338055966645" lon="13.740423691241421"><ele>201.0</ele><time>2026-05-03T17:50:06Z</time></trkpt><trkpt lat="42.8135589395994" lon="13.740478427625325"><ele>201.0</ele><time>2026-05-03T17:50:07Z</time></trkpt><trkpt lat="42.81373862268586" lon="13.740531297759384"><ele>201.0</ele><time>2026-05-03T17:50:08Z</time></trkpt><trkpt lat="42.81392167329153" lon="13.740580808947383"><ele>201.0</ele><time>2026-05-03T17:50:09Z</time></trkpt><trkpt lat="42.81411061366983" lon="13.740631865320829"><ele>201.0</ele><time>2026-05-03T17:50:10Z</time></trkpt><trkpt lat="42.81430321056729" lon="13.740687204161214"><ele>201.0</ele><time>2026-05-03T17:50:11Z</time></trkpt><trkpt lat="42.81449655178017" lon="13.740742991137797"><ele>201.0</ele><time>2026-05-03T17:50:12Z</time></trkpt><trkpt lat="42.814690028821815" lon="13.74079947682832"><ele>201.0</ele><time>2026-05-03T17:50:13Z</time></trkpt><trkpt lat="42.81488188761207" lon="13.740857331712455"><ele>201.0</ele><time>2026-05-03T17:50:14Z</time></trkpt><trkpt lat="42.81506896219394" lon="13.740914482444758"><ele>201.0</ele><time>2026-05-03T17:50:15Z</time></trkpt><trkpt lat="42.81524789017164" lon="13.740966106101787"><ele>201.0</ele><time>2026-05-03T17:50:16Z</time></trkpt><trkpt lat="42.81542109184236" lon="13.741018411621857"><ele>201.0</ele><time>2026-05-03T17:50:17Z</time></trkpt><trkpt lat="42.815595064521034" lon="13.741072539651823"><ele>201.0</ele><time>2026-05-03T17:50:18Z</time></trkpt><trkpt lat="42.8157705172816" lon="13.741125473208273"><ele>200.0</ele><time>2026-05-03T17:50:19Z</time></trkpt><trkpt lat="42.81594605287476" lon="13.741199511405213"><ele>199.0</ele><time>2026-05-03T17:50:20Z</time></trkpt><trkpt lat="42.816125200844276" lon="13.74125535924489"><ele>198.0</ele><time>2026-05-03T17:50:21Z</time></trkpt><trkpt lat="42.81630976696671" lon="13.741314104327799"><ele>197.0</ele><time>2026-05-03T17:50:21.999Z</time></trkpt><trkpt lat="42.81649749084458" lon="13.741354110176992"><ele>196.0</ele><time>2026-05-03T17:50:22.999Z</time></trkpt><trkpt lat="42.81668030376647" lon="13.741417432018784"><ele>195.0</ele><time>2026-05-03T17:50:23.999Z</time></trkpt><trkpt lat="42.816854393573095" lon="13.741477670152438"><ele>195.0</ele><time>2026-05-03T17:50:24.999Z</time></trkpt><trkpt lat="42.81701997634014" lon="13.74152586768754"><ele>195.0</ele><time>2026-05-03T17:50:25.999Z</time></trkpt><trkpt lat="42.817193624834054" lon="13.741545680926675"><ele>195.0</ele><time>2026-05-03T17:50:26.999Z</time></trkpt><trkpt lat="42.81738161185715" lon="13.741537702352947"><ele>195.0</ele><time>2026-05-03T17:50:27.999Z</time></trkpt><trkpt lat="42.817572507767146" lon="13.741499203755234"><ele>195.0</ele><time>2026-05-03T17:50:28.999Z</time></trkpt><trkpt lat="42.817769401937475" lon="13.74145761845658"><ele>195.0</ele><time>2026-05-03T17:50:29.999Z</time></trkpt><trkpt lat="42.817949664619746" lon="13.741348906175286"><ele>196.0</ele><time>2026-05-03T17:50:30.999Z</time></trkpt><trkpt lat="42.818135063501465" lon="13.741243607973914"><ele>197.0</ele><time>2026-05-03T17:50:31.999Z</time></trkpt><trkpt lat="42.81832746459805" lon="13.741129570559426"><ele>198.0</ele><time>2026-05-03T17:50:32.999Z</time></trkpt><trkpt lat="42.81852750613027" lon="13.741016950047715"><ele>199.33333333333331</ele><time>2026-05-03T17:50:33.999Z</time></trkpt><trkpt lat="42.81873244329841" lon="13.740900612783962"><ele>200.66666666666666</ele><time>2026-05-03T17:50:34.999Z</time></trkpt><trkpt lat="42.81893413029387" lon="13.740781409007493"><ele>202.0</ele><time>2026-05-03T17:50:35.999Z</time></trkpt><trkpt lat="42.819132396664195" lon="13.74066457973028"><ele>202.33333333333331</ele><time>2026-05-03T17:50:36.999Z</time></trkpt><trkpt lat="42.81932930241931" lon="13.74055243410287"><ele>202.66666666666669</ele><time>2026-05-03T17:50:37.999Z</time></trkpt><trkpt lat="42.8195244969683" lon="13.740438857751814"><ele>203.0</ele><time>2026-05-03T17:50:38.999Z</time></trkpt><trkpt lat="42.81971828271327" lon="13.740325031048362"><ele>203.66666666666669</ele><time>2026-05-03T17:50:39.999Z</time></trkpt><trkpt lat="42.8199142126632" lon="13.740205131417765"><ele>204.33333333333331</ele><time>2026-05-03T17:50:40.999Z</time></trkpt><trkpt lat="42.82010539970966" lon="13.740095428235636"><ele>205.0</ele><time>2026-05-03T17:50:41.999Z</time></trkpt><trkpt lat="42.82029329244958" lon="13.739998986304293"><ele>205.0</ele><time>2026-05-03T17:50:42.999Z</time></trkpt><trkpt lat="42.82045730534705" lon="13.739919555585498"><ele>205.0</ele><time>2026-05-03T17:50:43.999Z</time></trkpt><trkpt lat="42.82060291917204" lon="13.739853819185383"><ele>205.0</ele><time>2026-05-03T17:50:44.999Z</time></trkpt><trkpt lat="42.8207365633916" lon="13.739803965709127"><ele>205.0</ele><time>2026-05-03T17:50:45.999Z</time></trkpt><trkpt lat="42.82086190495844" lon="13.739763417666621"><ele>205.0</ele><time>2026-05-03T17:50:46.999Z</time></trkpt><trkpt lat="42.82117906382661" lon="13.73948113151964"><ele>205.33333333333331</ele><time>2026-05-03T17:50:47.999Z</time></trkpt><trkpt lat="42.821327599533014" lon="13.739391679974254"><ele>205.66666666666669</ele><time>2026-05-03T17:50:48.999Z</time></trkpt><trkpt lat="42.821478863568984" lon="13.73934633191892"><ele>206.0</ele><time>2026-05-03T17:50:49.999Z</time></trkpt><trkpt lat="42.82162125574514" lon="13.739311882545357"><ele>206.25</ele><time>2026-05-03T17:50:50.999Z</time></trkpt><trkpt lat="42.82175609931488" lon="13.739331459769758"><ele>206.5</ele><time>2026-05-03T17:50:51.999Z</time></trkpt><trkpt lat="42.821896275481336" lon="13.739375866538367"><ele>206.75</ele><time>2026-05-03T17:50:52.999Z</time></trkpt><trkpt lat="42.822040029877364" lon="13.739455119074849"><ele>207.0</ele><time>2026-05-03T17:50:53.999Z</time></trkpt><trkpt lat="42.82220118888741" lon="13.739543944475479"><ele>207.0</ele><time>2026-05-03T17:50:54.999Z</time></trkpt><trkpt lat="42.82236268049263" lon="13.739611470373385"><ele>207.0</ele><time>2026-05-03T17:50:55.999Z</time></trkpt><trkpt lat="42.822516212276" lon="13.739694848144056"><ele>207.0</ele><time>2026-05-03T17:50:56.999Z</time></trkpt><trkpt lat="42.82267927368902" lon="13.739759341281314"><ele>207.66666666666669</ele><time>2026-05-03T17:50:57.999Z</time></trkpt><trkpt lat="42.822855173134826" lon="13.73979333673913"><ele>208.33333333333334</ele><time>2026-05-03T17:50:58.999Z</time></trkpt><trkpt lat="42.823045156176846" lon="13.739802706209893"><ele>209.0</ele><time>2026-05-03T17:50:59.999Z</time></trkpt><trkpt lat="42.82323279287302" lon="13.739804071303764"><ele>209.0</ele><time>2026-05-03T17:51:00.999Z</time></trkpt><trkpt lat="42.823418949511236" lon="13.739802512453775"><ele>209.0</ele><time>2026-05-03T17:51:01.999Z</time></trkpt><trkpt lat="42.82360110689041" lon="13.739798746747924"><ele>209.0</ele><time>2026-05-03T17:51:02.999Z</time></trkpt><trkpt lat="42.82377890280687" lon="13.739796092332083"><ele>209.33333333333334</ele><time>2026-05-03T17:51:03.999Z</time></trkpt><trkpt lat="42.82395781678736" lon="13.739789857335824"><ele>209.66666666666669</ele><time>2026-05-03T17:51:04.999Z</time></trkpt><trkpt lat="42.8241361477676" lon="13.73978191171443"><ele>210.0</ele><time>2026-05-03T17:51:05.999Z</time></trkpt><trkpt lat="42.824315029249824" lon="13.739778587810093"><ele>210.0</ele><time>2026-05-03T17:51:06.999Z</time></trkpt><trkpt lat="42.824495038002354" lon="13.739774812586184"><ele>210.0</ele><time>2026-05-03T17:51:07.999Z</time></trkpt><trkpt lat="42.82467209962814" lon="13.73976666179255"><ele>210.0</ele><time>2026-05-03T17:51:08.999Z</time></trkpt><trkpt lat="42.82484143647203" lon="13.739761439720452"><ele>210.0</ele><time>2026-05-03T17:51:09.999Z</time></trkpt><trkpt lat="42.82501247697381" lon="13.739757580833963"><ele>210.0</ele><time>2026-05-03T17:51:10.999Z</time></trkpt><trkpt lat="42.82518387743929" lon="13.739754746524172"><ele>210.0</ele><time>2026-05-03T17:51:11.999Z</time></trkpt><trkpt lat="42.825357025209875" lon="13.739756129855305"><ele>209.66666666666669</ele><time>2026-05-03T17:51:12.999Z</time></trkpt><trkpt lat="42.825533228477546" lon="13.739761103583353"><ele>209.33333333333334</ele><time>2026-05-03T17:51:13.999Z</time></trkpt><trkpt lat="42.82571519471065" lon="13.739773648531697"><ele>209.0</ele><time>2026-05-03T17:51:14.999Z</time></trkpt><trkpt lat="42.825901335673855" lon="13.739837250632863"><ele>210.0</ele><time>2026-05-03T17:51:15.999Z</time></trkpt><trkpt lat="42.82608737846172" lon="13.73988309902107"><ele>211.0</ele><time>2026-05-03T17:51:16.999Z</time></trkpt><trkpt lat="42.826273156271434" lon="13.739916819939747"><ele>212.0</ele><time>2026-05-03T17:51:17.999Z</time></trkpt><trkpt lat="42.826453761364256" lon="13.739968642420951"><ele>212.0</ele><time>2026-05-03T17:51:18.998Z</time></trkpt><trkpt lat="42.82663528201873" lon="13.740019934988167"><ele>212.0</ele><time>2026-05-03T17:51:19.998Z</time></trkpt><trkpt lat="42.82681581408851" lon="13.740073324749796"><ele>212.0</ele><time>2026-05-03T17:51:20.998Z</time></trkpt><trkpt lat="42.82699559756491" lon="13.740129395980759"><ele>212.0</ele><time>2026-05-03T17:51:21.998Z</time></trkpt><trkpt lat="42.827174816613955" lon="13.740183125646498"><ele>212.0</ele><time>2026-05-03T17:51:22.998Z</time></trkpt><trkpt lat="42.827355774516725" lon="13.740229073920746"><ele>212.0</ele><time>2026-05-03T17:51:23.998Z</time></trkpt><trkpt lat="42.827543077043465" lon="13.74025923636715"><ele>213.0</ele><time>2026-05-03T17:51:24.998Z</time></trkpt><trkpt lat="42.82773230195627" lon="13.740264393031088"><ele>214.0</ele><time>2026-05-03T17:51:25.998Z</time></trkpt><trkpt lat="42.82791958825507" lon="13.740256361205835"><ele>215.0</ele><time>2026-05-03T17:51:26.998Z</time></trkpt><trkpt lat="42.82810125130265" lon="13.740247241484552"><ele>215.0</ele><time>2026-05-03T17:51:27.998Z</time></trkpt><trkpt lat="42.828277315189126" lon="13.74024237400913"><ele>215.0</ele><time>2026-05-03T17:51:28.998Z</time></trkpt><trkpt lat="42.82844900796608" lon="13.740240179373476"><ele>215.0</ele><time>2026-05-03T17:51:29.998Z</time></trkpt><trkpt lat="42.828622208854526" lon="13.740235726304078"><ele>215.33333333333334</ele><time>2026-05-03T17:51:30.998Z</time></trkpt><trkpt lat="42.82879627455624" lon="13.740221694506074"><ele>215.66666666666669</ele><time>2026-05-03T17:51:31.998Z</time></trkpt><trkpt lat="42.82897201351055" lon="13.740183843114607"><ele>216.0</ele><time>2026-05-03T17:51:32.998Z</time></trkpt><trkpt lat="42.82914854364365" lon="13.740107256118476"><ele>218.66666666666669</ele><time>2026-05-03T17:51:33.998Z</time></trkpt><trkpt lat="42.82933128423023" lon="13.740017606433154"><ele>221.33333333333334</ele><time>2026-05-03T17:51:34.998Z</time></trkpt><trkpt lat="42.82952262397619" lon="13.739933139259273"><ele>224.0</ele><time>2026-05-03T17:51:35.998Z</time></trkpt><trkpt lat="42.829705005711496" lon="13.73985507394781"><ele>224.0</ele><time>2026-05-03T17:51:36.998Z</time></trkpt><trkpt lat="42.829878570183034" lon="13.739780157364264"><ele>224.0</ele><time>2026-05-03T17:51:37.998Z</time></trkpt><trkpt lat="42.830044504967205" lon="13.739705836816967"><ele>224.0</ele><time>2026-05-03T17:51:38.998Z</time></trkpt><trkpt lat="42.830203556884584" lon="13.739629936186647"><ele>224.0</ele><time>2026-05-03T17:51:39.998Z</time></trkpt><trkpt lat="42.830356240543104" lon="13.739546133346584"><ele>224.0</ele><time>2026-05-03T17:51:40.998Z</time></trkpt><trkpt lat="42.8305024130502" lon="13.739446589175131"><ele>224.0</ele><time>2026-05-03T17:51:41.998Z</time></trkpt><trkpt lat="42.83064597149752" lon="13.73931819610007"><ele>226.0</ele><time>2026-05-03T17:51:42.998Z</time></trkpt><trkpt lat="42.830789937648554" lon="13.739166041858473"><ele>228.0</ele><time>2026-05-03T17:51:43.998Z</time></trkpt><trkpt lat="42.83093022755931" lon="13.739005999966746"><ele>230.0</ele><time>2026-05-03T17:51:44.998Z</time></trkpt><trkpt lat="42.831059692002206" lon="13.73884455983386"><ele>230.0</ele><time>2026-05-03T17:51:45.998Z</time></trkpt><trkpt lat="42.83118434809046" lon="13.738680193185031"><ele>230.0</ele><time>2026-05-03T17:51:46.998Z</time></trkpt><trkpt lat="42.83130687528283" lon="13.73851482108204"><ele>230.0</ele><time>2026-05-03T17:51:48Z</time></trkpt><trkpt lat="42.83142238205695" lon="13.738341581478078"><ele>233.66666666666669</ele><time>2026-05-03T17:51:49Z</time></trkpt><trkpt lat="42.83152793093939" lon="13.738157382612762"><ele>237.33333333333331</ele><time>2026-05-03T17:51:50Z</time></trkpt><trkpt lat="42.83163719045829" lon="13.737966512578144"><ele>241.0</ele><time>2026-05-03T17:51:51Z</time></trkpt><trkpt lat="42.831744212079094" lon="13.737778630050439"><ele>242.0</ele><time>2026-05-03T17:51:52Z</time></trkpt><trkpt lat="42.831849885353094" lon="13.7375937319503"><ele>243.0</ele><time>2026-05-03T17:51:53Z</time></trkpt><trkpt lat="42.83195112270859" lon="13.737416271212638"><ele>244.0</ele><time>2026-05-03T17:51:54Z</time></trkpt><trkpt lat="42.832045930770136" lon="13.737243634096904"><ele>244.0</ele><time>2026-05-03T17:51:55Z</time></trkpt><trkpt lat="42.83214625759721" lon="13.737090073073352"><ele>244.0</ele><time>2026-05-03T17:51:56Z</time></trkpt><trkpt lat="42.83222030412091" lon="13.73691451278836"><ele>244.0</ele><time>2026-05-03T17:51:57Z</time></trkpt><trkpt lat="42.832268697434394" lon="13.736737701025216"><ele>244.0</ele><time>2026-05-03T17:51:58Z</time></trkpt><trkpt lat="42.8323539269434" lon="13.736604194859597"><ele>246.0</ele><time>2026-05-03T17:51:59Z</time></trkpt><trkpt lat="42.832431933498896" lon="13.736482648662632"><ele>247.99999999999997</ele><time>2026-05-03T17:52:00Z</time></trkpt><trkpt lat="42.83252499317705" lon="13.736411055965961"><ele>249.99999999999997</ele><time>2026-05-03T17:52:01Z</time></trkpt><trkpt lat="42.832629770823864" lon="13.73638044467972"><ele>252.0</ele><time>2026-05-03T17:52:02Z</time></trkpt><trkpt lat="42.83274001132386" lon="13.73637916278701"><ele>254.0</ele><time>2026-05-03T17:52:03Z</time></trkpt><trkpt lat="42.83285046497601" lon="13.736432347217365"><ele>255.75</ele><time>2026-05-03T17:52:04Z</time></trkpt><trkpt lat="42.8329756809642" lon="13.73650309754032"><ele>257.5</ele><time>2026-05-03T17:52:05Z</time></trkpt><trkpt lat="42.8331072193255" lon="13.736567735382367"><ele>259.25</ele><time>2026-05-03T17:52:06Z</time></trkpt><trkpt lat="42.833236405062756" lon="13.736650431573603"><ele>261.0</ele><time>2026-05-03T17:52:07Z</time></trkpt><trkpt lat="42.833365743535445" lon="13.736731244181744"><ele>260.5</ele><time>2026-05-03T17:52:08Z</time></trkpt><trkpt lat="42.833497073156614" lon="13.736811299373093"><ele>260.0</ele><time>2026-05-03T17:52:09Z</time></trkpt><trkpt lat="42.83362647584103" lon="13.73688739483848"><ele>259.5</ele><time>2026-05-03T17:52:10Z</time></trkpt><trkpt lat="42.83374664027174" lon="13.736958242082935"><ele>259.0</ele><time>2026-05-03T17:52:11Z</time></trkpt><trkpt lat="42.8338511576203" lon="13.737047852706858"><ele>259.0</ele><time>2026-05-03T17:52:12Z</time></trkpt><trkpt lat="42.83396074621224" lon="13.737117532158862"><ele>259.0</ele><time>2026-05-03T17:52:13Z</time></trkpt><trkpt lat="42.83407460199408" lon="13.737178080669738"><ele>259.0</ele><time>2026-05-03T17:52:14Z</time></trkpt><trkpt lat="42.83418464050593" lon="13.737254122084506"><ele>259.0</ele><time>2026-05-03T17:52:15Z</time></trkpt><trkpt lat="42.83429519993534" lon="13.737329365686978"><ele>259.59999999999997</ele><time>2026-05-03T17:52:16Z</time></trkpt><trkpt lat="42.834404059170936" lon="13.737406558516048"><ele>260.2</ele><time>2026-05-03T17:52:17Z</time></trkpt><trkpt lat="42.83450759033833" lon="13.737463082027622"><ele>260.79999999999995</ele><time>2026-05-03T17:52:18Z</time></trkpt><trkpt lat="42.834597080880336" lon="13.737512303859896"><ele>261.4</ele><time>2026-05-03T17:52:19Z</time></trkpt><trkpt lat="42.83466518825282" lon="13.737555354792114"><ele>262.0</ele><time>2026-05-03T17:52:20Z</time></trkpt><trkpt lat="42.8347245229426" lon="13.73758808131751"><ele>262.0</ele><time>2026-05-03T17:52:21Z</time></trkpt><trkpt lat="42.8348128715798" lon="13.73768082784005"><ele>262.0</ele><time>2026-05-03T17:52:23Z</time></trkpt><trkpt lat="42.834864262995055" lon="13.737746896987105"><ele>262.0</ele><time>2026-05-03T17:52:24Z</time></trkpt><trkpt lat="42.83491231023457" lon="13.73781587070099"><ele>262.0</ele><time>2026-05-03T17:52:25Z</time></trkpt><trkpt lat="42.834992634565005" lon="13.737949673473764"><ele>262.0</ele><time>2026-05-03T17:52:26.999Z</time></trkpt><trkpt lat="42.83504491018158" lon="13.73805717016611"><ele>262.4</ele><time>2026-05-03T17:52:28.999Z</time></trkpt><trkpt lat="42.8350882549628" lon="13.738124292822954"><ele>262.79999999999995</ele><time>2026-05-03T17:52:30.999Z</time></trkpt><trkpt lat="42.83521107311443" lon="13.738058444876003"><ele>263.2</ele><time>2026-05-03T17:52:33.999Z</time></trkpt><trkpt lat="42.83523237563681" lon="13.737953783848784"><ele>263.59999999999997</ele><time>2026-05-03T17:52:34.999Z</time></trkpt><trkpt lat="42.83524922999209" lon="13.737826780717905"><ele>264.0</ele><time>2026-05-03T17:52:35.999Z</time></trkpt><trkpt lat="42.83526781158703" lon="13.737678237873519"><ele>261.75</ele><time>2026-05-03T17:52:36.999Z</time></trkpt><trkpt lat="42.835280455609535" lon="13.737519540748119"><ele>259.5</ele><time>2026-05-03T17:52:37.999Z</time></trkpt><trkpt lat="42.83528388037857" lon="13.737343222084213"><ele>257.25</ele><time>2026-05-03T17:52:38.999Z</time></trkpt><trkpt lat="42.8352765194666" lon="13.73716838885097"><ele>255.0</ele><time>2026-05-03T17:52:39.999Z</time></trkpt><trkpt lat="42.83526329648492" lon="13.736997825457909"><ele>251.5</ele><time>2026-05-03T17:52:40.999Z</time></trkpt><trkpt lat="42.83525384408991" lon="13.736830691712305"><ele>248.0</ele><time>2026-05-03T17:52:41.999Z</time></trkpt><trkpt lat="42.83524334920301" lon="13.736658110526257"><ele>244.5</ele><time>2026-05-03T17:52:42.999Z</time></trkpt><trkpt lat="42.83523350491642" lon="13.736489098444913"><ele>241.0</ele><time>2026-05-03T17:52:43.999Z</time></trkpt><trkpt lat="42.83521831029457" lon="13.73632272635267"><ele>241.0</ele><time>2026-05-03T17:52:44.999Z</time></trkpt><trkpt lat="42.83518520638654" lon="13.73615252414936"><ele>241.0</ele><time>2026-05-03T17:52:45.999Z</time></trkpt><trkpt lat="42.8351331586549" lon="13.735972741062833"><ele>241.0</ele><time>2026-05-03T17:52:46.999Z</time></trkpt><trkpt lat="42.835073838052494" lon="13.735794274676415"><ele>241.0</ele><time>2026-05-03T17:52:47.999Z</time></trkpt><trkpt lat="42.83501144214084" lon="13.73561832691232"><ele>239.75</ele><time>2026-05-03T17:52:48.999Z</time></trkpt><trkpt lat="42.83494833923484" lon="13.735455385651074"><ele>238.5</ele><time>2026-05-03T17:52:49.999Z</time></trkpt><trkpt lat="42.83489543929519" lon="13.735311077334671"><ele>237.25</ele><time>2026-05-03T17:52:50.999Z</time></trkpt><trkpt lat="42.83484716663357" lon="13.735183812035412"><ele>236.0</ele><time>2026-05-03T17:52:51.999Z</time></trkpt><trkpt lat="42.834782059084105" lon="13.735065696316802"><ele>236.0</ele><time>2026-05-03T17:52:52.999Z</time></trkpt><trkpt lat="42.83469749117204" lon="13.734975550079458"><ele>236.00000000000003</ele><time>2026-05-03T17:52:53.999Z</time></trkpt><trkpt lat="42.834603877911285" lon="13.734926219544736"><ele>236.00000000000003</ele><time>2026-05-03T17:52:54.999Z</time></trkpt><trkpt lat="42.83452154191983" lon="13.73490737838955"><ele>236.0</ele><time>2026-05-03T17:52:55.999Z</time></trkpt><trkpt lat="42.83446157931113" lon="13.734777217416895"><ele>236.0</ele><time>2026-05-03T17:52:57.999Z</time></trkpt><trkpt lat="42.83449803064261" lon="13.734691398098933"><ele>236.0</ele><time>2026-05-03T17:52:58.999Z</time></trkpt><trkpt lat="42.83456690512848" lon="13.734672108696852"><ele>236.00000000000003</ele><time>2026-05-03T17:52:59.999Z</time></trkpt><trkpt lat="42.834637228887395" lon="13.734705374161484"><ele>236.00000000000003</ele><time>2026-05-03T17:53:00.999Z</time></trkpt><trkpt lat="42.83469800135146" lon="13.734801758023286"><ele>236.0</ele><time>2026-05-03T17:53:01.999Z</time></trkpt><trkpt lat="42.8347947443987" lon="13.734863617009053"><ele>236.0</ele><time>2026-05-03T17:53:02.999Z</time></trkpt><trkpt lat="42.83489748758474" lon="13.734967492443168"><ele>236.0</ele><time>2026-05-03T17:53:03.999Z</time></trkpt><trkpt lat="42.835013596727634" lon="13.73508051735776"><ele>236.0</ele><time>2026-05-03T17:53:04.999Z</time></trkpt><trkpt lat="42.8351381180252" lon="13.735197929293053"><ele>236.0</ele><time>2026-05-03T17:53:05.999Z</time></trkpt><trkpt lat="42.83525945582294" lon="13.735313143089607"><ele>236.0</ele><time>2026-05-03T17:53:06.999Z</time></trkpt><trkpt lat="42.83537151615251" lon="13.735421977494932"><ele>233.5</ele><time>2026-05-03T17:53:07.999Z</time></trkpt><trkpt lat="42.835475048310016" lon="13.73553650992958"><ele>231.0</ele><time>2026-05-03T17:53:08.999Z</time></trkpt><trkpt lat="42.83557851310261" lon="13.735657907624105"><ele>228.5</ele><time>2026-05-03T17:53:09.999Z</time></trkpt><trkpt lat="42.83567045360131" lon="13.735805194924385"><ele>226.0</ele><time>2026-05-03T17:53:10.999Z</time></trkpt><trkpt lat="42.83574388723251" lon="13.735965649831808"><ele>225.5</ele><time>2026-05-03T17:53:11.999Z</time></trkpt><trkpt lat="42.83581771596751" lon="13.73612177316637"><ele>225.0</ele><time>2026-05-03T17:53:12.999Z</time></trkpt><trkpt lat="42.83589494600758" lon="13.736258330374172"><ele>224.5</ele><time>2026-05-03T17:53:13.999Z</time></trkpt><trkpt lat="42.83597538575994" lon="13.736359962577913"><ele>224.0</ele><time>2026-05-03T17:53:14.999Z</time></trkpt><trkpt lat="42.83606850765105" lon="13.736416820401189"><ele>224.0</ele><time>2026-05-03T17:53:15.999Z</time></trkpt><trkpt lat="42.83617887470717" lon="13.73641664212403"><ele>223.99999999999997</ele><time>2026-05-03T17:53:16.999Z</time></trkpt><trkpt lat="42.83629070618162" lon="13.736364174013739"><ele>223.99999999999997</ele><time>2026-05-03T17:53:17.999Z</time></trkpt><trkpt lat="42.83639936836718" lon="13.736297441669329"><ele>224.0</ele><time>2026-05-03T17:53:18.999Z</time></trkpt><trkpt lat="42.836494828524756" lon="13.736293833625504"><ele>224.0</ele><time>2026-05-03T17:53:19.999Z</time></trkpt><trkpt lat="42.83659044445605" lon="13.736310170540758"><ele>224.0</ele><time>2026-05-03T17:53:20.999Z</time></trkpt><trkpt lat="42.83667755956008" lon="13.73638183524973"><ele>224.0</ele><time>2026-05-03T17:53:21.999Z</time></trkpt><trkpt lat="42.83675122763109" lon="13.736500987953304"><ele>224.0</ele><time>2026-05-03T17:53:22.998Z</time></trkpt><trkpt lat="42.83682516716705" lon="13.73664524927371"><ele>224.0</ele><time>2026-05-03T17:53:23.998Z</time></trkpt><trkpt lat="42.83690979225357" lon="13.736799215586691"><ele>222.5</ele><time>2026-05-03T17:53:24.998Z</time></trkpt><trkpt lat="42.83700552876175" lon="13.736956662763708"><ele>221.0</ele><time>2026-05-03T17:53:25.998Z</time></trkpt><trkpt lat="42.8370986882388" lon="13.737113138227915"><ele>219.5</ele><time>2026-05-03T17:53:26.998Z</time></trkpt><trkpt lat="42.83718365361006" lon="13.737267367841357"><ele>218.0</ele><time>2026-05-03T17:53:27.998Z</time></trkpt><trkpt lat="42.83726716397964" lon="13.737420243582278"><ele>218.0</ele><time>2026-05-03T17:53:28.998Z</time></trkpt><trkpt lat="42.837341179430666" lon="13.737549864672868"><ele>218.0</ele><time>2026-05-03T17:53:29.998Z</time></trkpt><trkpt lat="42.83741238617926" lon="13.737652992606765"><ele>218.0</ele><time>2026-05-03T17:53:30.998Z</time></trkpt><trkpt lat="42.83749720852059" lon="13.737720634568477"><ele>218.0</ele><time>2026-05-03T17:53:31.998Z</time></trkpt><trkpt lat="42.83758954757985" lon="13.737734415907225"><ele>218.0</ele><time>2026-05-03T17:53:32.998Z</time></trkpt><trkpt lat="42.837680074689004" lon="13.737692028081717"><ele>219.5</ele><time>2026-05-03T17:53:33.998Z</time></trkpt><trkpt lat="42.8377610050473" lon="13.737600182902126"><ele>221.0</ele><time>2026-05-03T17:53:34.998Z</time></trkpt><trkpt lat="42.83783427653708" lon="13.737472230448851"><ele>222.5</ele><time>2026-05-03T17:53:35.998Z</time></trkpt><trkpt lat="42.83791093458679" lon="13.7373241668833"><ele>224.0</ele><time>2026-05-03T17:53:36.998Z</time></trkpt><trkpt lat="42.83799134879264" lon="13.737160226648697"><ele>224.0</ele><time>2026-05-03T17:53:37.998Z</time></trkpt><trkpt lat="42.83806772883568" lon="13.736985559015325"><ele>224.0</ele><time>2026-05-03T17:53:38.998Z</time></trkpt><trkpt lat="42.83812593117494" lon="13.736794577329553"><ele>224.0</ele><time>2026-05-03T17:53:39.998Z</time></trkpt><trkpt lat="42.8381683050866" lon="13.736597459251987"><ele>220.66666666666669</ele><time>2026-05-03T17:53:40.998Z</time></trkpt><trkpt lat="42.83821272961288" lon="13.736399309807341"><ele>217.33333333333331</ele><time>2026-05-03T17:53:41.998Z</time></trkpt><trkpt lat="42.838271594761544" lon="13.736202381939338"><ele>214.0</ele><time>2026-05-03T17:53:42.998Z</time></trkpt><trkpt lat="42.83833972741247" lon="13.736009830868419"><ele>214.66666666666666</ele><time>2026-05-03T17:53:43.998Z</time></trkpt><trkpt lat="42.83842093324719" lon="13.735816131446501"><ele>215.33333333333331</ele><time>2026-05-03T17:53:44.998Z</time></trkpt><trkpt lat="42.83852257067024" lon="13.735633061180096"><ele>216.0</ele><time>2026-05-03T17:53:45.998Z</time></trkpt><trkpt lat="42.838635297899216" lon="13.735473397370324"><ele>216.0</ele><time>2026-05-03T17:53:46.998Z</time></trkpt><trkpt lat="42.8387475988925" lon="13.735320470633784"><ele>216.0</ele><time>2026-05-03T17:53:47.998Z</time></trkpt><trkpt lat="42.83884955653174" lon="13.735169061130664"><ele>216.0</ele><time>2026-05-03T17:53:48.998Z</time></trkpt><trkpt lat="42.83893391636529" lon="13.735014217234124"><ele>210.33333333333331</ele><time>2026-05-03T17:53:49.998Z</time></trkpt><trkpt lat="42.83900760921515" lon="13.734827518404664"><ele>204.66666666666666</ele><time>2026-05-03T17:53:50.998Z</time></trkpt><trkpt lat="42.83907070445567" lon="13.734627302471372"><ele>199.0</ele><time>2026-05-03T17:53:51.998Z</time></trkpt><trkpt lat="42.83912465893643" lon="13.734434756354299"><ele>194.75</ele><time>2026-05-03T17:53:52.998Z</time></trkpt><trkpt lat="42.839172465469545" lon="13.734247012380658"><ele>190.5</ele><time>2026-05-03T17:53:54Z</time></trkpt><trkpt lat="42.839214686426146" lon="13.734068466611904"><ele>186.25</ele><time>2026-05-03T17:53:55Z</time></trkpt><trkpt lat="42.83925353459251" lon="13.73390173765345"><ele>182.0</ele><time>2026-05-03T17:53:56Z</time></trkpt><trkpt lat="42.83930275293821" lon="13.733746222238775"><ele>181.0</ele><time>2026-05-03T17:53:57Z</time></trkpt><trkpt lat="42.839344595796256" lon="13.733579106580608"><ele>180.0</ele><time>2026-05-03T17:53:58Z</time></trkpt><trkpt lat="42.83937119024263" lon="13.733409135269154"><ele>179.0</ele><time>2026-05-03T17:53:59Z</time></trkpt><trkpt lat="42.839417344930936" lon="13.733279798439614"><ele>178.0</ele><time>2026-05-03T17:54:00Z</time></trkpt><trkpt lat="42.83945453470168" lon="13.733184206220276"><ele>177.0</ele><time>2026-05-03T17:54:01Z</time></trkpt><trkpt lat="42.839514527169605" lon="13.733128824688576"><ele>177.0</ele><time>2026-05-03T17:54:02Z</time></trkpt><trkpt lat="42.839594524320496" lon="13.733131918489601"><ele>177.0</ele><time>2026-05-03T17:54:03Z</time></trkpt><trkpt lat="42.839660328512586" lon="13.733225349576834"><ele>177.0</ele><time>2026-05-03T17:54:04Z</time></trkpt><trkpt lat="42.8397018534373" lon="13.733336909282407"><ele>177.0</ele><time>2026-05-03T17:54:05Z</time></trkpt><trkpt lat="42.83972772133323" lon="13.733481764101615"><ele>177.0</ele><time>2026-05-03T17:54:06Z</time></trkpt><trkpt lat="42.83975132423641" lon="13.733656338049089"><ele>177.0</ele><time>2026-05-03T17:54:07Z</time></trkpt><trkpt lat="42.83977593739019" lon="13.73382231944485"><ele>177.0</ele><time>2026-05-03T17:54:08Z</time></trkpt><trkpt lat="42.839806287111934" lon="13.733976459856606"><ele>177.0</ele><time>2026-05-03T17:54:09Z</time></trkpt><trkpt lat="42.83985355021839" lon="13.734118906259296"><ele>177.0</ele><time>2026-05-03T17:54:10Z</time></trkpt><trkpt lat="42.83992953852994" lon="13.734248124006466"><ele>177.0</ele><time>2026-05-03T17:54:11Z</time></trkpt><trkpt lat="42.840035108523395" lon="13.734372475524195"><ele>177.0</ele><time>2026-05-03T17:54:12Z</time></trkpt><trkpt lat="42.840155037040546" lon="13.734494482428094"><ele>177.0</ele><time>2026-05-03T17:54:13Z</time></trkpt><trkpt lat="42.84027867406604" lon="13.734617380115546"><ele>177.0</ele><time>2026-05-03T17:54:14Z</time></trkpt><trkpt lat="42.84037799683655" lon="13.734763840800472"><ele>172.66666666666666</ele><time>2026-05-03T17:54:15Z</time></trkpt><trkpt lat="42.840501362324446" lon="13.734894189543786"><ele>168.33333333333331</ele><time>2026-05-03T17:54:16Z</time></trkpt><trkpt lat="42.84060555462828" lon="13.735046869429286"><ele>164.0</ele><time>2026-05-03T17:54:17Z</time></trkpt><trkpt lat="42.84070436752667" lon="13.735195333503032"><ele>165.0</ele><time>2026-05-03T17:54:18Z</time></trkpt><trkpt lat="42.84078660931305" lon="13.735342715475609"><ele>166.0</ele><time>2026-05-03T17:54:19Z</time></trkpt><trkpt lat="42.8408466382886" lon="13.735480762756893"><ele>167.0</ele><time>2026-05-03T17:54:20Z</time></trkpt><trkpt lat="42.84089748048656" lon="13.735596779801499"><ele>168.0</ele><time>2026-05-03T17:54:21Z</time></trkpt><trkpt lat="42.84095600809595" lon="13.735678034798923"><ele>169.0</ele><time>2026-05-03T17:54:22Z</time></trkpt><trkpt lat="42.84103222102444" lon="13.735714940415948"><ele>165.83333333333334</ele><time>2026-05-03T17:54:23Z</time></trkpt><trkpt lat="42.84111501589512" lon="13.735688681974224"><ele>162.66666666666669</ele><time>2026-05-03T17:54:24Z</time></trkpt><trkpt lat="42.84118189635594" lon="13.735602658378204"><ele>159.5</ele><time>2026-05-03T17:54:25Z</time></trkpt><trkpt lat="42.84122482849209" lon="13.73550936236618"><ele>156.33333333333334</ele><time>2026-05-03T17:54:26Z</time></trkpt><trkpt lat="42.84123309046557" lon="13.735404082348081"><ele>153.16666666666666</ele><time>2026-05-03T17:54:27Z</time></trkpt><trkpt lat="42.84122099674396" lon="13.735298199830098"><ele>150.0</ele><time>2026-05-03T17:54:28Z</time></trkpt><trkpt lat="42.841204565575886" lon="13.735209915798814"><ele>150.0</ele><time>2026-05-03T17:54:29Z</time></trkpt><trkpt lat="42.841203729152866" lon="13.735083657827198"><ele>150.0</ele><time>2026-05-03T17:54:31Z</time></trkpt><trkpt lat="42.84130820209047" lon="13.734987771852788"><ele>150.0</ele><time>2026-05-03T17:54:32Z</time></trkpt><trkpt lat="42.84139734379787" lon="13.73495673439863"><ele>150.0</ele><time>2026-05-03T17:54:33Z</time></trkpt><trkpt lat="42.841506348343934" lon="13.734961618657337"><ele>150.0</ele><time>2026-05-03T17:54:34Z</time></trkpt><trkpt lat="42.841635026566905" lon="13.734991573634952"><ele>150.0</ele><time>2026-05-03T17:54:35Z</time></trkpt><trkpt lat="42.84177384409173" lon="13.735032568529418"><ele>150.0</ele><time>2026-05-03T17:54:35.999Z</time></trkpt><trkpt lat="42.841921348669004" lon="13.73507401565921"><ele>150.0</ele><time>2026-05-03T17:54:36.999Z</time></trkpt><trkpt lat="42.842070030479434" lon="13.735110557772584"><ele>150.0</ele><time>2026-05-03T17:54:37.999Z</time></trkpt><trkpt lat="42.84222548590342" lon="13.735148619610836"><ele>145.33333333333334</ele><time>2026-05-03T17:54:38.999Z</time></trkpt><trkpt lat="42.84237917104288" lon="13.735182566825868"><ele>140.66666666666669</ele><time>2026-05-03T17:54:39.999Z</time></trkpt><trkpt lat="42.84253631344306" lon="13.735200556779082"><ele>136.0</ele><time>2026-05-03T17:54:40.999Z</time></trkpt><trkpt lat="42.842698028530826" lon="13.735190606799499"><ele>134.66666666666669</ele><time>2026-05-03T17:54:41.999Z</time></trkpt><trkpt lat="42.8428588915222" lon="13.73515584888968"><ele>133.33333333333334</ele><time>2026-05-03T17:54:42.999Z</time></trkpt><trkpt lat="42.84301770355054" lon="13.735108463218534"><ele>132.0</ele><time>2026-05-03T17:54:43.999Z</time></trkpt><trkpt lat="42.84317916138298" lon="13.735057292337803"><ele>132.0</ele><time>2026-05-03T17:54:44.999Z</time></trkpt><trkpt lat="42.8433383475174" lon="13.73500196070043"><ele>132.0</ele><time>2026-05-03T17:54:45.999Z</time></trkpt><trkpt lat="42.843494934901415" lon="13.73494373716545"><ele>132.0</ele><time>2026-05-03T17:54:46.999Z</time></trkpt><trkpt lat="42.84365165262211" lon="13.734890391600226"><ele>128.33333333333334</ele><time>2026-05-03T17:54:47.999Z</time></trkpt><trkpt lat="42.8438035465935" lon="13.734839019825412"><ele>124.66666666666667</ele><time>2026-05-03T17:54:48.999Z</time></trkpt><trkpt lat="42.84395263195301" lon="13.73478815959092"><ele>121.0</ele><time>2026-05-03T17:54:49.999Z</time></trkpt><trkpt lat="42.844098067015906" lon="13.7347343585032"><ele>121.0</ele><time>2026-05-03T17:54:50.999Z</time></trkpt><trkpt lat="42.84423581262149" lon="13.734662234155966"><ele>121.0</ele><time>2026-05-03T17:54:51.999Z</time></trkpt><trkpt lat="42.84437341716489" lon="13.734577033135901"><ele>121.0</ele><time>2026-05-03T17:54:52.999Z</time></trkpt><trkpt lat="42.84450754184971" lon="13.734483872440766"><ele>121.0</ele><time>2026-05-03T17:54:53.999Z</time></trkpt><trkpt lat="42.84464127695726" lon="13.734390469785504"><ele>119.75</ele><time>2026-05-03T17:54:54.999Z</time></trkpt><trkpt lat="42.84477420678253" lon="13.734293444491033"><ele>118.5</ele><time>2026-05-03T17:54:55.999Z</time></trkpt><trkpt lat="42.84490661492492" lon="13.734197840005441"><ele>117.25</ele><time>2026-05-03T17:54:56.999Z</time></trkpt><trkpt lat="42.84503863873286" lon="13.734104016096587"><ele>116.0</ele><time>2026-05-03T17:54:57.999Z</time></trkpt><trkpt lat="42.845175575051044" lon="13.734005435537156"><ele>116.0</ele><time>2026-05-03T17:54:58.999Z</time></trkpt><trkpt lat="42.84531079621034" lon="13.733905061093251"><ele>116.0</ele><time>2026-05-03T17:54:59.999Z</time></trkpt><trkpt lat="42.84544416886757" lon="13.733809841411972"><ele>116.0</ele><time>2026-05-03T17:55:00.999Z</time></trkpt><trkpt lat="42.845576896797255" lon="13.733718884586878"><ele>116.0</ele><time>2026-05-03T17:55:01.999Z</time></trkpt><trkpt lat="42.84570814468613" lon="13.73363206622624"><ele>116.0</ele><time>2026-05-03T17:55:02.999Z</time></trkpt><trkpt lat="42.84582952851863" lon="13.733549766452262"><ele>116.0</ele><time>2026-05-03T17:55:03.999Z</time></trkpt><trkpt lat="42.84594985637001" lon="13.733463766904004"><ele>116.0</ele><time>2026-05-03T17:55:04.999Z</time></trkpt><trkpt lat="42.8460644316727" lon="13.733367805633677"><ele>113.25</ele><time>2026-05-03T17:55:05.999Z</time></trkpt><trkpt lat="42.84616294304367" lon="13.733247399810205"><ele>110.5</ele><time>2026-05-03T17:55:06.999Z</time></trkpt><trkpt lat="42.84625231662063" lon="13.733116468487074"><ele>107.75</ele><time>2026-05-03T17:55:07.999Z</time></trkpt><trkpt lat="42.84632878127542" lon="13.732974222058964"><ele>105.0</ele><time>2026-05-03T17:55:08.999Z</time></trkpt><trkpt lat="42.846396990383866" lon="13.732812970343607"><ele>104.75</ele><time>2026-05-03T17:55:09.999Z</time></trkpt><trkpt lat="42.84646508870357" lon="13.732645562310992"><ele>104.5</ele><time>2026-05-03T17:55:10.999Z</time></trkpt><trkpt lat="42.846534379472935" lon="13.732481053321791"><ele>104.25</ele><time>2026-05-03T17:55:11.999Z</time></trkpt><trkpt lat="42.84660103700619" lon="13.732315725386936"><ele>104.0</ele><time>2026-05-03T17:55:12.999Z</time></trkpt><trkpt lat="42.846668046709546" lon="13.732149992131372"><ele>104.0</ele><time>2026-05-03T17:55:13.999Z</time></trkpt><trkpt lat="42.846737564927935" lon="13.731984061045692"><ele>104.0</ele><time>2026-05-03T17:55:14.999Z</time></trkpt><trkpt lat="42.84680420124579" lon="13.731811579947236"><ele>104.0</ele><time>2026-05-03T17:55:15.999Z</time></trkpt><trkpt lat="42.84687306867955" lon="13.731644112914246"><ele>104.0</ele><time>2026-05-03T17:55:16.999Z</time></trkpt><trkpt lat="42.84694317270596" lon="13.731477457320906"><ele>101.25</ele><time>2026-05-03T17:55:17.999Z</time></trkpt><trkpt lat="42.84701403244564" lon="13.731314175843004"><ele>98.5</ele><time>2026-05-03T17:55:18.999Z</time></trkpt><trkpt lat="42.847087031873926" lon="13.731151603448229"><ele>95.75</ele><time>2026-05-03T17:55:19.999Z</time></trkpt><trkpt lat="42.8471626038891" lon="13.730988882393872"><ele>93.0</ele><time>2026-05-03T17:55:20.999Z</time></trkpt><trkpt lat="42.847240165171655" lon="13.730826946263766"><ele>91.5</ele><time>2026-05-03T17:55:21.999Z</time></trkpt><trkpt lat="42.84731856755823" lon="13.730664489547001"><ele>90.0</ele><time>2026-05-03T17:55:22.999Z</time></trkpt><trkpt lat="42.84739884473652" lon="13.730525466020307"><ele>88.5</ele><time>2026-05-03T17:55:23.999Z</time></trkpt><trkpt lat="42.847494024621454" lon="13.73040974293975"><ele>87.0</ele><time>2026-05-03T17:55:24.999Z</time></trkpt><trkpt lat="42.847580036108326" lon="13.730295904538185"><ele>84.25</ele><time>2026-05-03T17:55:25.999Z</time></trkpt><trkpt lat="42.84767653967305" lon="13.730198354514625"><ele>81.5</ele><time>2026-05-03T17:55:26.999Z</time></trkpt><trkpt lat="42.84779948529589" lon="13.730136924865363"><ele>78.75</ele><time>2026-05-03T17:55:27.999Z</time></trkpt><trkpt lat="42.84793683814963" lon="13.730085801082527"><ele>76.0</ele><time>2026-05-03T17:55:28.999Z</time></trkpt><trkpt lat="42.84808685877279" lon="13.730045546474082"><ele>76.0</ele><time>2026-05-03T17:55:29.999Z</time></trkpt><trkpt lat="42.848235023177324" lon="13.730006193449983"><ele>76.0</ele><time>2026-05-03T17:55:30.999Z</time></trkpt><trkpt lat="42.848387392629995" lon="13.729962036897527"><ele>76.0</ele><time>2026-05-03T17:55:31.999Z</time></trkpt><trkpt lat="42.84853440253062" lon="13.729907779972217"><ele>74.0</ele><time>2026-05-03T17:55:32.999Z</time></trkpt><trkpt lat="42.84868199457682" lon="13.729837587274565"><ele>72.0</ele><time>2026-05-03T17:55:33.999Z</time></trkpt><trkpt lat="42.84882536992505" lon="13.729748775843035"><ele>70.0</ele><time>2026-05-03T17:55:34.998Z</time></trkpt><trkpt lat="42.84896165795755" lon="13.729635099526545"><ele>70.0</ele><time>2026-05-03T17:55:35.998Z</time></trkpt><trkpt lat="42.84909890624986" lon="13.729525383107855"><ele>70.0</ele><time>2026-05-03T17:55:36.998Z</time></trkpt><trkpt lat="42.84923968696282" lon="13.729418678793486"><ele>70.0</ele><time>2026-05-03T17:55:37.998Z</time></trkpt><trkpt lat="42.84939314264774" lon="13.729353586020169"><ele>63.666666666666664</ele><time>2026-05-03T17:55:38.998Z</time></trkpt><trkpt lat="42.84954469822203" lon="13.72928408014485"><ele>57.33333333333333</ele><time>2026-05-03T17:55:39.998Z</time></trkpt><trkpt lat="42.84969320759702" lon="13.729217802145548"><ele>51.0</ele><time>2026-05-03T17:55:40.998Z</time></trkpt><trkpt lat="42.8498455632592" lon="13.72915877384001"><ele>51.0</ele><time>2026-05-03T17:55:41.998Z</time></trkpt><trkpt lat="42.84999821493993" lon="13.729090689187272"><ele>51.0</ele><time>2026-05-03T17:55:42.998Z</time></trkpt><trkpt lat="42.85015026735714" lon="13.729052283298518"><ele>51.0</ele><time>2026-05-03T17:55:43.998Z</time></trkpt><trkpt lat="42.85028889475553" lon="13.729016892646815"><ele>50.25</ele><time>2026-05-03T17:55:44.998Z</time></trkpt><trkpt lat="42.85041527446146" lon="13.728986023056883"><ele>49.5</ele><time>2026-05-03T17:55:45.998Z</time></trkpt><trkpt lat="42.85052584022148" lon="13.728970698891604"><ele>48.75</ele><time>2026-05-03T17:55:46.998Z</time></trkpt><trkpt lat="42.850652880990424" lon="13.728964834632974"><ele>48.0</ele><time>2026-05-03T17:55:47.998Z</time></trkpt><trkpt lat="42.85079984726452" lon="13.728907823602686"><ele>48.5</ele><time>2026-05-03T17:55:48.998Z</time></trkpt><trkpt lat="42.85107062018701" lon="13.728806820653842"><ele>49.0</ele><time>2026-05-03T17:55:49.998Z</time></trkpt><trkpt lat="42.85127789083255" lon="13.728752331377118"><ele>49.0</ele><time>2026-05-03T17:55:50.998Z</time></trkpt><trkpt lat="42.85147735044375" lon="13.728709619678694"><ele>49.0</ele><time>2026-05-03T17:55:51.998Z</time></trkpt><trkpt lat="42.85166561535781" lon="13.728668099093017"><ele>49.0</ele><time>2026-05-03T17:55:52.998Z</time></trkpt><trkpt lat="42.85183776575059" lon="13.728628363620215"><ele>48.666666666666664</ele><time>2026-05-03T17:55:53.998Z</time></trkpt><trkpt lat="42.85200063357291" lon="13.728592569237135"><ele>48.33333333333333</ele><time>2026-05-03T17:55:54.998Z</time></trkpt><trkpt lat="42.852155339617006" lon="13.728559327643728"><ele>48.0</ele><time>2026-05-03T17:55:55.998Z</time></trkpt><trkpt lat="42.85230433146774" lon="13.728530502236362"><ele>48.0</ele><time>2026-05-03T17:55:56.998Z</time></trkpt><trkpt lat="42.85244725169297" lon="13.728502404217188"><ele>48.0</ele><time>2026-05-03T17:55:57.998Z</time></trkpt><trkpt lat="42.85258424722039" lon="13.728477485216574"><ele>48.0</ele><time>2026-05-03T17:55:58.998Z</time></trkpt><trkpt lat="42.85271379342608" lon="13.728468533714375"><ele>48.0</ele><time>2026-05-03T17:56:00Z</time></trkpt><trkpt lat="42.852821880263775" lon="13.728469906496244"><ele>47.8</ele><time>2026-05-03T17:56:01Z</time></trkpt><trkpt lat="42.852900296458884" lon="13.72847682216908"><ele>47.599999999999994</ele><time>2026-05-03T17:56:02Z</time></trkpt><trkpt lat="42.85298089264996" lon="13.728472551884328"><ele>47.400000000000006</ele><time>2026-05-03T17:56:04Z</time></trkpt><trkpt lat="42.85304161376446" lon="13.728437861602862"><ele>47.2</ele><time>2026-05-03T17:56:07Z</time></trkpt><trkpt lat="42.853036614820894" lon="13.728257436312884"><ele>47.0</ele><time>2026-05-03T17:56:08Z</time></trkpt><trkpt lat="42.85302794078961" lon="13.728126716981064"><ele>47.0</ele><time>2026-05-03T17:56:09Z</time></trkpt><trkpt lat="42.853000858118946" lon="13.727969547298313"><ele>47.0</ele><time>2026-05-03T17:56:10Z</time></trkpt><trkpt lat="42.85296856586728" lon="13.727794263840806"><ele>47.0</ele><time>2026-05-03T17:56:11Z</time></trkpt><trkpt lat="42.852936227234366" lon="13.727595567125539"><ele>47.0</ele><time>2026-05-03T17:56:12Z</time></trkpt><trkpt lat="42.85289782569094" lon="13.727383943626215"><ele>47.0</ele><time>2026-05-03T17:56:13Z</time></trkpt><trkpt lat="42.85285181773443" lon="13.72715892861388"><ele>47.0</ele><time>2026-05-03T17:56:14Z</time></trkpt><trkpt lat="42.85280527337342" lon="13.726919831190148"><ele>47.0</ele><time>2026-05-03T17:56:15Z</time></trkpt><trkpt lat="42.85276265539002" lon="13.726682701594967"><ele>46.666666666666664</ele><time>2026-05-03T17:56:16Z</time></trkpt><trkpt lat="42.85272000150629" lon="13.726452304689689"><ele>46.333333333333336</ele><time>2026-05-03T17:56:17Z</time></trkpt><trkpt lat="42.8526781681348" lon="13.7262258486664"><ele>46.0</ele><time>2026-05-03T17:56:18Z</time></trkpt><trkpt lat="42.852631364057" lon="13.726007021831576"><ele>46.66666666666667</ele><time>2026-05-03T17:56:19Z</time></trkpt><trkpt lat="42.852595618269014" lon="13.72578154636255"><ele>47.333333333333336</ele><time>2026-05-03T17:56:20Z</time></trkpt><trkpt lat="42.85256373288483" lon="13.725551981590694"><ele>48.0</ele><time>2026-05-03T17:56:21Z</time></trkpt><trkpt lat="42.85252258979648" lon="13.725313391867513"><ele>48.33333333333333</ele><time>2026-05-03T17:56:22Z</time></trkpt><trkpt lat="42.852476901494676" lon="13.725074837200705"><ele>48.666666666666664</ele><time>2026-05-03T17:56:23Z</time></trkpt><trkpt lat="42.85243354133885" lon="13.724830587732662"><ele>49.0</ele><time>2026-05-03T17:56:24Z</time></trkpt><trkpt lat="42.852391904523735" lon="13.724588704005143"><ele>50.666666666666664</ele><time>2026-05-03T17:56:25Z</time></trkpt><trkpt lat="42.85234998585397" lon="13.724349090583509"><ele>52.33333333333333</ele><time>2026-05-03T17:56:26Z</time></trkpt><trkpt lat="42.85230488095752" lon="13.724104478066751"><ele>54.0</ele><time>2026-05-03T17:56:27Z</time></trkpt><trkpt lat="42.85228305569385" lon="13.723884797768003"><ele>54.0</ele><time>2026-05-03T17:56:28Z</time></trkpt><trkpt lat="42.852234657659224" lon="13.723698989993075"><ele>54.0</ele><time>2026-05-03T17:56:29Z</time></trkpt><trkpt lat="42.85220520156465" lon="13.723532346386795"><ele>54.0</ele><time>2026-05-03T17:56:30Z</time></trkpt><trkpt lat="42.85217508980581" lon="13.72338282374885"><ele>54.0</ele><time>2026-05-03T17:56:31Z</time></trkpt><trkpt lat="42.85214554610222" lon="13.723253914919788"><ele>53.75</ele><time>2026-05-03T17:56:32Z</time></trkpt><trkpt lat="42.85213733272821" lon="13.723139899144009"><ele>53.5</ele><time>2026-05-03T17:56:33Z</time></trkpt><trkpt lat="42.85212141853978" lon="13.723049450185442"><ele>53.25</ele><time>2026-05-03T17:56:34Z</time></trkpt><trkpt lat="42.851898879532904" lon="13.723127358531448"><ele>53.0</ele><time>2026-05-03T17:56:37Z</time></trkpt><trkpt lat="42.85183220469796" lon="13.723156633626903"><ele>53.0</ele><time>2026-05-03T17:56:38Z</time></trkpt><trkpt lat="42.85179882278867" lon="13.723260499167068"><ele>53.0</ele><time>2026-05-03T17:56:39Z</time></trkpt><trkpt lat="42.851765529158556" lon="13.723386682746852"><ele>53.0</ele><time>2026-05-03T17:56:39.999Z</time></trkpt><trkpt lat="42.85173242703269" lon="13.723528230108199"><ele>53.0</ele><time>2026-05-03T17:56:40.999Z</time></trkpt><trkpt lat="42.85169528528416" lon="13.723682094435237"><ele>53.0</ele><time>2026-05-03T17:56:41.999Z</time></trkpt><trkpt lat="42.85165588242027" lon="13.723846140396418"><ele>52.8</ele><time>2026-05-03T17:56:42.999Z</time></trkpt><trkpt lat="42.85161356826928" lon="13.724008067533092"><ele>52.599999999999994</ele><time>2026-05-03T17:56:43.999Z</time></trkpt><trkpt lat="42.85157337891648" lon="13.724150658494974"><ele>52.400000000000006</ele><time>2026-05-03T17:56:44.999Z</time></trkpt><trkpt lat="42.85152532579717" lon="13.724263541519468"><ele>52.2</ele><time>2026-05-03T17:56:45.999Z</time></trkpt><trkpt lat="42.851456015428155" lon="13.724352571679223"><ele>52.0</ele><time>2026-05-03T17:56:46.999Z</time></trkpt><trkpt lat="42.851371214349186" lon="13.724414067742675"><ele>52.0</ele><time>2026-05-03T17:56:47.999Z</time></trkpt><trkpt lat="42.85128632941763" lon="13.724452104254487"><ele>52.0</ele><time>2026-05-03T17:56:48.999Z</time></trkpt><trkpt lat="42.85120165072593" lon="13.72447592842326"><ele>52.0</ele><time>2026-05-03T17:56:49.999Z</time></trkpt><trkpt lat="42.85112566381305" lon="13.72454199266364"><ele>52.0</ele><time>2026-05-03T17:56:50.999Z</time></trkpt><trkpt lat="42.8510345018038" lon="13.72459796031645"><ele>52.0</ele><time>2026-05-03T17:56:51.999Z</time></trkpt><trkpt lat="42.85090352060593" lon="13.72455469567061"><ele>52.0</ele><time>2026-05-03T17:56:52.999Z</time></trkpt><trkpt lat="42.850790816931585" lon="13.724581900910177"><ele>52.0</ele><time>2026-05-03T17:56:53.999Z</time></trkpt><trkpt lat="42.85068520681669" lon="13.724606090535346"><ele>52.0</ele><time>2026-05-03T17:56:54.999Z</time></trkpt><trkpt lat="42.85059055883749" lon="13.724622385514868"><ele>52.0</ele><time>2026-05-03T17:56:55.999Z</time></trkpt><trkpt lat="42.85051111219132" lon="13.724606535278339"><ele>52.0</ele><time>2026-05-03T17:56:56.999Z</time></trkpt><trkpt lat="42.85041586824854" lon="13.724613963914026"><ele>52.0</ele><time>2026-05-03T17:56:58.999Z</time></trkpt><trkpt lat="42.850442401988516" lon="13.724856970016143"><ele>52.0</ele><time>2026-05-03T17:56:59.999Z</time></trkpt><trkpt lat="42.850451712080435" lon="13.724981669652005"><ele>52.0</ele><time>2026-05-03T17:57:00.999Z</time></trkpt><trkpt lat="42.850467242418524" lon="13.725130043248502"><ele>52.0</ele><time>2026-05-03T17:57:01.999Z</time></trkpt><trkpt lat="42.85050270790489" lon="13.72528844425013"><ele>51.6</ele><time>2026-05-03T17:57:02.999Z</time></trkpt><trkpt lat="42.850528095635575" lon="13.725440560999726"><ele>51.2</ele><time>2026-05-03T17:57:03.999Z</time></trkpt><trkpt lat="42.85053459509196" lon="13.72558979381129"><ele>50.8</ele><time>2026-05-03T17:57:04.999Z</time></trkpt><trkpt lat="42.85050572840032" lon="13.725733687147903"><ele>50.4</ele><time>2026-05-03T17:57:05.999Z</time></trkpt><trkpt lat="42.85044149185853" lon="13.72585944915349"><ele>50.0</ele><time>2026-05-03T17:57:06.999Z</time></trkpt><trkpt lat="42.85034897280115" lon="13.72595821306251"><ele>50.0</ele><time>2026-05-03T17:57:07.999Z</time></trkpt><trkpt lat="42.85024446403886" lon="13.726008720175269"><ele>50.0</ele><time>2026-05-03T17:57:08.999Z</time></trkpt><trkpt lat="42.850130411763544" lon="13.726004213772693"><ele>50.0</ele><time>2026-05-03T17:57:09.999Z</time></trkpt><trkpt lat="42.850014605632545" lon="13.725949772400215"><ele>50.0</ele><time>2026-05-03T17:57:10.999Z</time></trkpt><trkpt lat="42.849907529294995" lon="13.725846776120255"><ele>50.333333333333336</ele><time>2026-05-03T17:57:11.999Z</time></trkpt><trkpt lat="42.849809891062534" lon="13.725697570660786"><ele>50.66666666666667</ele><time>2026-05-03T17:57:12.999Z</time></trkpt><trkpt lat="42.84972213562453" lon="13.725512493528521"><ele>51.0</ele><time>2026-05-03T17:57:13.999Z</time></trkpt><trkpt lat="42.849639423481044" lon="13.725312172638992"><ele>51.33333333333333</ele><time>2026-05-03T17:57:14.999Z</time></trkpt><trkpt lat="42.84960267672468" lon="13.725060808618839"><ele>51.666666666666664</ele><time>2026-05-03T17:57:15.999Z</time></trkpt><trkpt lat="42.84954121297756" lon="13.724800136797038"><ele>52.0</ele><time>2026-05-03T17:57:16.999Z</time></trkpt><trkpt lat="42.849471231375944" lon="13.724520119692071"><ele>51.5</ele><time>2026-05-03T17:57:17.999Z</time></trkpt><trkpt lat="42.849399458675514" lon="13.72421991632953"><ele>51.0</ele><time>2026-05-03T17:57:18.999Z</time></trkpt><trkpt lat="42.84931500302282" lon="13.723915796071626"><ele>51.5</ele><time>2026-05-03T17:57:19.999Z</time></trkpt><trkpt lat="42.84923141605133" lon="13.723602328209521"><ele>52.0</ele><time>2026-05-03T17:57:20.999Z</time></trkpt><trkpt lat="42.84914321106962" lon="13.723273817345126"><ele>52.0</ele><time>2026-05-03T17:57:21.999Z</time></trkpt><trkpt lat="42.84905512722947" lon="13.72293225268762"><ele>52.0</ele><time>2026-05-03T17:57:22.999Z</time></trkpt><trkpt lat="42.84896951344421" lon="13.72258155010428"><ele>52.0</ele><time>2026-05-03T17:57:23.999Z</time></trkpt><trkpt lat="42.848880728981875" lon="13.722222022257965"><ele>52.0</ele><time>2026-05-03T17:57:24.999Z</time></trkpt><trkpt lat="42.84878935047524" lon="13.721864033958385"><ele>52.5</ele><time>2026-05-03T17:57:25.999Z</time></trkpt><trkpt lat="42.848701072208726" lon="13.721509210166024"><ele>53.0</ele><time>2026-05-03T17:57:26.999Z</time></trkpt><trkpt lat="42.84861403527766" lon="13.721155701249321"><ele>52.0</ele><time>2026-05-03T17:57:27.999Z</time></trkpt><trkpt lat="42.84852770608335" lon="13.720806364339557"><ele>51.0</ele><time>2026-05-03T17:57:28.999Z</time></trkpt><trkpt lat="42.84844126627004" lon="13.720458584793683"><ele>54.5</ele><time>2026-05-03T17:57:29.999Z</time></trkpt><trkpt lat="42.848354608687615" lon="13.720107671912817"><ele>58.0</ele><time>2026-05-03T17:57:30.999Z</time></trkpt><trkpt lat="42.84826721991565" lon="13.719753985801836"><ele>57.0</ele><time>2026-05-03T17:57:31.999Z</time></trkpt><trkpt lat="42.84817900678008" lon="13.719394211953883"><ele>56.0</ele><time>2026-05-03T17:57:32.999Z</time></trkpt><trkpt lat="42.84808936955336" lon="13.719027657222242"><ele>56.0</ele><time>2026-05-03T17:57:33.999Z</time></trkpt><trkpt lat="42.84799816525368" lon="13.718655233125695"><ele>56.0</ele><time>2026-05-03T17:57:34.999Z</time></trkpt><trkpt lat="42.847904934741756" lon="13.718265836167793"><ele>56.5</ele><time>2026-05-03T17:57:35.999Z</time></trkpt><trkpt lat="42.8478051428565" lon="13.717862996305586"><ele>57.0</ele><time>2026-05-03T17:57:36.999Z</time></trkpt><trkpt lat="42.84770441704555" lon="13.717451026048193"><ele>63.0</ele><time>2026-05-03T17:57:37.998Z</time></trkpt><trkpt lat="42.84760299519225" lon="13.717029710843642"><ele>69.0</ele><time>2026-05-03T17:57:38.998Z</time></trkpt><trkpt lat="42.84749903622267" lon="13.716596355857645"><ele>71.0</ele><time>2026-05-03T17:57:39.998Z</time></trkpt><trkpt lat="42.847394262852845" lon="13.71615469528905"><ele>73.0</ele><time>2026-05-03T17:57:40.998Z</time></trkpt><trkpt lat="42.84728978010852" lon="13.715708961774999"><ele>73.5</ele><time>2026-05-03T17:57:41.998Z</time></trkpt><trkpt lat="42.847181155813594" lon="13.715255452926616"><ele>74.0</ele><time>2026-05-03T17:57:42.998Z</time></trkpt><trkpt lat="42.847069980126754" lon="13.714801128094578"><ele>76.0</ele><time>2026-05-03T17:57:43.998Z</time></trkpt><trkpt lat="42.84695959644801" lon="13.714351921150097"><ele>78.0</ele><time>2026-05-03T17:57:44.998Z</time></trkpt><trkpt lat="42.846852024447955" lon="13.713897940161935"><ele>78.5</ele><time>2026-05-03T17:57:45.998Z</time></trkpt><trkpt lat="42.84673953431017" lon="13.713444686665646"><ele>79.0</ele><time>2026-05-03T17:57:46.998Z</time></trkpt><trkpt lat="42.84663141698855" lon="13.71299321856707"><ele>80.0</ele><time>2026-05-03T17:57:47.998Z</time></trkpt><trkpt lat="42.84652589399357" lon="13.71255028972083"><ele>81.0</ele><time>2026-05-03T17:57:48.998Z</time></trkpt><trkpt lat="42.846424694716156" lon="13.712112014971503"><ele>82.0</ele><time>2026-05-03T17:57:49.998Z</time></trkpt><trkpt lat="42.84632920178941" lon="13.711665897380751"><ele>83.0</ele><time>2026-05-03T17:57:50.998Z</time></trkpt><trkpt lat="42.84624206931054" lon="13.711214892872759"><ele>83.0</ele><time>2026-05-03T17:57:51.998Z</time></trkpt><trkpt lat="42.84616749454356" lon="13.710756372961589"><ele>83.0</ele><time>2026-05-03T17:57:52.998Z</time></trkpt><trkpt lat="42.8461057701822" lon="13.710287841696374"><ele>82.5</ele><time>2026-05-03T17:57:53.998Z</time></trkpt><trkpt lat="42.846055967326826" lon="13.709821817593468"><ele>82.0</ele><time>2026-05-03T17:57:54.998Z</time></trkpt><trkpt lat="42.84601880975149" lon="13.709365640723163"><ele>81.5</ele><time>2026-05-03T17:57:55.998Z</time></trkpt><trkpt lat="42.84599606616453" lon="13.708910726722124"><ele>81.0</ele><time>2026-05-03T17:57:56.998Z</time></trkpt><trkpt lat="42.84598093354318" lon="13.708454477531902"><ele>81.0</ele><time>2026-05-03T17:57:57.998Z</time></trkpt><trkpt lat="42.84597142982175" lon="13.707998199147706"><ele>81.0</ele><time>2026-05-03T17:57:58.998Z</time></trkpt><trkpt lat="42.84596733089654" lon="13.70755026066688"><ele>82.0</ele><time>2026-05-03T17:57:59.998Z</time></trkpt><trkpt lat="42.845957321872014" lon="13.707095030016463"><ele>83.0</ele><time>2026-05-03T17:58:00.998Z</time></trkpt><trkpt lat="42.8459426315738" lon="13.706642630200584"><ele>79.5</ele><time>2026-05-03T17:58:01.998Z</time></trkpt><trkpt lat="42.84592851518496" lon="13.70619300924596"><ele>76.0</ele><time>2026-05-03T17:58:02.998Z</time></trkpt><trkpt lat="42.845919345649406" lon="13.705746372489823"><ele>74.5</ele><time>2026-05-03T17:58:03.998Z</time></trkpt><trkpt lat="42.845911819899705" lon="13.70530098805707"><ele>73.0</ele><time>2026-05-03T17:58:04.998Z</time></trkpt><trkpt lat="42.8459063253293" lon="13.70485566806175"><ele>78.0</ele><time>2026-05-03T17:58:06Z</time></trkpt><trkpt lat="42.84590168148904" lon="13.704409575885045"><ele>83.0</ele><time>2026-05-03T17:58:07Z</time></trkpt><trkpt lat="42.84589612141521" lon="13.703962441976838"><ele>83.5</ele><time>2026-05-03T17:58:08Z</time></trkpt><trkpt lat="42.845891228367925" lon="13.703514983196115"><ele>84.0</ele><time>2026-05-03T17:58:09Z</time></trkpt><trkpt lat="42.84588868085996" lon="13.70306975425991"><ele>84.0</ele><time>2026-05-03T17:58:10Z</time></trkpt><trkpt lat="42.84588536996507" lon="13.702635887312876"><ele>84.0</ele><time>2026-05-03T17:58:11Z</time></trkpt><trkpt lat="42.84588263163765" lon="13.702205955724073"><ele>85.0</ele><time>2026-05-03T17:58:12Z</time></trkpt><trkpt lat="42.84587907469763" lon="13.701768102419672"><ele>86.0</ele><time>2026-05-03T17:58:13Z</time></trkpt><trkpt lat="42.84587618282176" lon="13.701323748742437"><ele>86.5</ele><time>2026-05-03T17:58:14Z</time></trkpt><trkpt lat="42.84586689593969" lon="13.700884127349296"><ele>87.0</ele><time>2026-05-03T17:58:15Z</time></trkpt><trkpt lat="42.8458650220752" lon="13.700443950961516"><ele>86.5</ele><time>2026-05-03T17:58:16Z</time></trkpt><trkpt lat="42.84585822929348" lon="13.700001258616965"><ele>86.0</ele><time>2026-05-03T17:58:17Z</time></trkpt><trkpt lat="42.845852250267605" lon="13.69955872800373"><ele>86.0</ele><time>2026-05-03T17:58:18Z</time></trkpt><trkpt lat="42.84584906692192" lon="13.699114898221664"><ele>86.0</ele><time>2026-05-03T17:58:19Z</time></trkpt><trkpt lat="42.845846881817856" lon="13.698673493500179"><ele>86.0</ele><time>2026-05-03T17:58:20Z</time></trkpt><trkpt lat="42.84584307623724" lon="13.698227574126602"><ele>86.0</ele><time>2026-05-03T17:58:21Z</time></trkpt><trkpt lat="42.845838532395724" lon="13.69777766621186"><ele>86.0</ele><time>2026-05-03T17:58:22Z</time></trkpt><trkpt lat="42.8458338286214" lon="13.697327120617631"><ele>86.0</ele><time>2026-05-03T17:58:23Z</time></trkpt><trkpt lat="42.84582849723127" lon="13.696878892897987"><ele>86.5</ele><time>2026-05-03T17:58:24Z</time></trkpt><trkpt lat="42.84581984342106" lon="13.6964225485305"><ele>87.0</ele><time>2026-05-03T17:58:25Z</time></trkpt><trkpt lat="42.845786759134334" lon="13.695970357340636"><ele>86.0</ele><time>2026-05-03T17:58:26Z</time></trkpt><trkpt lat="42.84574332391511" lon="13.695515929588357"><ele>85.0</ele><time>2026-05-03T17:58:27Z</time></trkpt><trkpt lat="42.8456871711057" lon="13.695063418049159"><ele>85.0</ele><time>2026-05-03T17:58:28Z</time></trkpt><trkpt lat="42.84561898615059" lon="13.694610858538312"><ele>85.0</ele><time>2026-05-03T17:58:29Z</time></trkpt><trkpt lat="42.845537542082205" lon="13.694160085624574"><ele>83.5</ele><time>2026-05-03T17:58:30Z</time></trkpt><trkpt lat="42.84545058069164" lon="13.693709170197758"><ele>82.0</ele><time>2026-05-03T17:58:31Z</time></trkpt><trkpt lat="42.84536158850692" lon="13.693254703681758"><ele>81.5</ele><time>2026-05-03T17:58:32Z</time></trkpt><trkpt lat="42.845272687336355" lon="13.692801071368729"><ele>81.0</ele><time>2026-05-03T17:58:33Z</time></trkpt><trkpt lat="42.84518408910365" lon="13.692345471455136"><ele>84.5</ele><time>2026-05-03T17:58:34Z</time></trkpt><trkpt lat="42.84509768196622" lon="13.691889024336929"><ele>88.0</ele><time>2026-05-03T17:58:35Z</time></trkpt><trkpt lat="42.84501019272015" lon="13.691430560794943"><ele>88.0</ele><time>2026-05-03T17:58:36Z</time></trkpt><trkpt lat="42.84491983984569" lon="13.690970272921748"><ele>88.0</ele><time>2026-05-03T17:58:37Z</time></trkpt><trkpt lat="42.8448279017231" lon="13.690509234477563"><ele>89.0</ele><time>2026-05-03T17:58:38Z</time></trkpt><trkpt lat="42.8447371088052" lon="13.69004797321944"><ele>90.0</ele><time>2026-05-03T17:58:39Z</time></trkpt><trkpt lat="42.84464804211425" lon="13.689590721046669"><ele>91.0</ele><time>2026-05-03T17:58:40Z</time></trkpt><trkpt lat="42.84455998958763" lon="13.689138626172905"><ele>92.0</ele><time>2026-05-03T17:58:41Z</time></trkpt><trkpt lat="42.844473627637136" lon="13.688690523351491"><ele>90.0</ele><time>2026-05-03T17:58:42Z</time></trkpt><trkpt lat="42.844387940207895" lon="13.688241765277985"><ele>88.0</ele><time>2026-05-03T17:58:43Z</time></trkpt><trkpt lat="42.84430224171915" lon="13.687797568153314"><ele>90.5</ele><time>2026-05-03T17:58:44Z</time></trkpt><trkpt lat="42.844215237210356" lon="13.687356101397256"><ele>93.0</ele><time>2026-05-03T17:58:45Z</time></trkpt><trkpt lat="42.8441315886516" lon="13.686912667795303"><ele>93.0</ele><time>2026-05-03T17:58:46Z</time></trkpt><trkpt lat="42.84404734056847" lon="13.68646359422081"><ele>93.0</ele><time>2026-05-03T17:58:47Z</time></trkpt><trkpt lat="42.84396534217596" lon="13.686014822132886"><ele>93.0</ele><time>2026-05-03T17:58:48Z</time></trkpt><trkpt lat="42.843886357108545" lon="13.685560764821805"><ele>93.0</ele><time>2026-05-03T17:58:49Z</time></trkpt><trkpt lat="42.84381389634911" lon="13.685100842052043"><ele>93.0</ele><time>2026-05-03T17:58:50Z</time></trkpt><trkpt lat="42.843749620756704" lon="13.684636514401616"><ele>93.0</ele><time>2026-05-03T17:58:51Z</time></trkpt><trkpt lat="42.84369338926874" lon="13.68417147909102"><ele>88.5</ele><time>2026-05-03T17:58:51.999Z</time></trkpt><trkpt lat="42.84364254383863" lon="13.683704365774986"><ele>84.0</ele><time>2026-05-03T17:58:52.999Z</time></trkpt><trkpt lat="42.84359586614692" lon="13.68323713895269"><ele>79.0</ele><time>2026-05-03T17:58:53.999Z</time></trkpt><trkpt lat="42.843551531094754" lon="13.682769805400355"><ele>74.0</ele><time>2026-05-03T17:58:54.999Z</time></trkpt><trkpt lat="42.84351111116978" lon="13.682303867991724"><ele>72.0</ele><time>2026-05-03T17:58:55.999Z</time></trkpt><trkpt lat="42.84348069943602" lon="13.681837538803654"><ele>70.0</ele><time>2026-05-03T17:58:56.999Z</time></trkpt><trkpt lat="42.84345729679088" lon="13.68137097792564"><ele>79.0</ele><time>2026-05-03T17:58:57.999Z</time></trkpt><trkpt lat="42.84343844510897" lon="13.68090614696112"><ele>88.0</ele><time>2026-05-03T17:58:58.999Z</time></trkpt><trkpt lat="42.84342426928199" lon="13.68043933946977"><ele>90.0</ele><time>2026-05-03T17:58:59.999Z</time></trkpt><trkpt lat="42.84341714867312" lon="13.679973985111427"><ele>92.0</ele><time>2026-05-03T17:59:00.999Z</time></trkpt><trkpt lat="42.84342063250556" lon="13.679507387110778"><ele>93.0</ele><time>2026-05-03T17:59:01.999Z</time></trkpt><trkpt lat="42.84343139924906" lon="13.679040411876318"><ele>94.0</ele><time>2026-05-03T17:59:02.999Z</time></trkpt><trkpt lat="42.843448800026" lon="13.678571533010702"><ele>86.0</ele><time>2026-05-03T17:59:03.999Z</time></trkpt><trkpt lat="42.843469941382786" lon="13.678105209884917"><ele>78.0</ele><time>2026-05-03T17:59:04.999Z</time></trkpt><trkpt lat="42.84349290125163" lon="13.677634534297201"><ele>78.0</ele><time>2026-05-03T17:59:05.999Z</time></trkpt><trkpt lat="42.843519813146095" lon="13.677164232748742"><ele>78.0</ele><time>2026-05-03T17:59:06.999Z</time></trkpt><trkpt lat="42.84355139007418" lon="13.676697196434622"><ele>77.0</ele><time>2026-05-03T17:59:07.999Z</time></trkpt><trkpt lat="42.843589846722864" lon="13.676225739105437"><ele>76.0</ele><time>2026-05-03T17:59:08.999Z</time></trkpt><trkpt lat="42.84363272332192" lon="13.67576032122968"><ele>78.5</ele><time>2026-05-03T17:59:09.999Z</time></trkpt><trkpt lat="42.84367960403199" lon="13.675294357444606"><ele>81.0</ele><time>2026-05-03T17:59:10.999Z</time></trkpt><trkpt lat="42.8437251009142" lon="13.67483543826522"><ele>79.0</ele><time>2026-05-03T17:59:11.999Z</time></trkpt><trkpt lat="42.843766192953396" lon="13.674379324178062"><ele>77.0</ele><time>2026-05-03T17:59:12.999Z</time></trkpt><trkpt lat="42.84381316152116" lon="13.67393718723653"><ele>80.5</ele><time>2026-05-03T17:59:13.999Z</time></trkpt><trkpt lat="42.84385756725345" lon="13.6734913434092"><ele>84.0</ele><time>2026-05-03T17:59:14.999Z</time></trkpt><trkpt lat="42.84389765085982" lon="13.673052415174698"><ele>87.5</ele><time>2026-05-03T17:59:15.999Z</time></trkpt><trkpt lat="42.84393613021036" lon="13.672612708438495"><ele>91.0</ele><time>2026-05-03T17:59:16.999Z</time></trkpt><trkpt lat="42.84396719267057" lon="13.672180104314103"><ele>94.0</ele><time>2026-05-03T17:59:17.999Z</time></trkpt><trkpt lat="42.84398700694177" lon="13.671751141241833"><ele>97.0</ele><time>2026-05-03T17:59:18.999Z</time></trkpt><trkpt lat="42.84399487447506" lon="13.67131908968674"><ele>98.5</ele><time>2026-05-03T17:59:19.999Z</time></trkpt><trkpt lat="42.843990092673565" lon="13.670883644843771"><ele>100.0</ele><time>2026-05-03T17:59:20.999Z</time></trkpt><trkpt lat="42.8439668944283" lon="13.670450022616123"><ele>100.5</ele><time>2026-05-03T17:59:21.999Z</time></trkpt><trkpt lat="42.84394340952341" lon="13.67000281456284"><ele>101.0</ele><time>2026-05-03T17:59:22.999Z</time></trkpt><trkpt lat="42.84390595682692" lon="13.669563566511233"><ele>98.5</ele><time>2026-05-03T17:59:23.999Z</time></trkpt><trkpt lat="42.843860717425855" lon="13.669128554397597"><ele>96.0</ele><time>2026-05-03T17:59:24.999Z</time></trkpt><trkpt lat="42.84380510389037" lon="13.668701713941555"><ele>94.5</ele><time>2026-05-03T17:59:25.999Z</time></trkpt><trkpt lat="42.843736376285285" lon="13.668278591666715"><ele>93.0</ele><time>2026-05-03T17:59:26.999Z</time></trkpt><trkpt lat="42.84365528114295" lon="13.66785769853415"><ele>92.5</ele><time>2026-05-03T17:59:27.999Z</time></trkpt><trkpt lat="42.84356276235285" lon="13.667439929788763"><ele>92.0</ele><time>2026-05-03T17:59:28.999Z</time></trkpt><trkpt lat="42.843459625259044" lon="13.667025012630447"><ele>94.5</ele><time>2026-05-03T17:59:29.999Z</time></trkpt><trkpt lat="42.843345152653214" lon="13.666614710870952"><ele>97.0</ele><time>2026-05-03T17:59:30.999Z</time></trkpt><trkpt lat="42.843221154911554" lon="13.666207450742343"><ele>97.0</ele><time>2026-05-03T17:59:31.999Z</time></trkpt><trkpt lat="42.843091372216485" lon="13.665801216321036"><ele>97.0</ele><time>2026-05-03T17:59:32.999Z</time></trkpt><trkpt lat="42.84295984853296" lon="13.665393176141276"><ele>97.0</ele><time>2026-05-03T17:59:33.999Z</time></trkpt><trkpt lat="42.84282499394502" lon="13.66498379482359"><ele>97.0</ele><time>2026-05-03T17:59:34.999Z</time></trkpt><trkpt lat="42.84269040521491" lon="13.66457330975365"><ele>99.5</ele><time>2026-05-03T17:59:35.999Z</time></trkpt><trkpt lat="42.84255396068416" lon="13.664153223951724"><ele>102.0</ele><time>2026-05-03T17:59:36.999Z</time></trkpt><trkpt lat="42.84241785799396" lon="13.663732315917697"><ele>101.0</ele><time>2026-05-03T17:59:37.999Z</time></trkpt><trkpt lat="42.84227872767423" lon="13.663307174904238"><ele>100.0</ele><time>2026-05-03T17:59:38.999Z</time></trkpt><trkpt lat="42.8421393669559" lon="13.662879182173834"><ele>97.5</ele><time>2026-05-03T17:59:39.999Z</time></trkpt><trkpt lat="42.84199704052641" lon="13.6624483601779"><ele>95.0</ele><time>2026-05-03T17:59:40.999Z</time></trkpt><trkpt lat="42.84185368167904" lon="13.662019173350915"><ele>103.5</ele><time>2026-05-03T17:59:41.999Z</time></trkpt><trkpt lat="42.841711050254375" lon="13.661587399427825"><ele>112.0</ele><time>2026-05-03T17:59:42.999Z</time></trkpt><trkpt lat="42.84156953028943" lon="13.661157579233286"><ele>112.0</ele><time>2026-05-03T17:59:43.999Z</time></trkpt><trkpt lat="42.84143009971697" lon="13.660730365162388"><ele>112.0</ele><time>2026-05-03T17:59:44.999Z</time></trkpt><trkpt lat="42.841290848005414" lon="13.660301370343404"><ele>110.5</ele><time>2026-05-03T17:59:45.999Z</time></trkpt><trkpt lat="42.84114554089886" lon="13.65986941672057"><ele>109.0</ele><time>2026-05-03T17:59:46.999Z</time></trkpt><trkpt lat="42.84100892671296" lon="13.659442564682871"><ele>110.0</ele><time>2026-05-03T17:59:47.999Z</time></trkpt><trkpt lat="42.8408694856915" lon="13.659013520858224"><ele>111.0</ele><time>2026-05-03T17:59:48.999Z</time></trkpt><trkpt lat="42.840734250735466" lon="13.658580369162637"><ele>109.0</ele><time>2026-05-03T17:59:49.999Z</time></trkpt><trkpt lat="42.84060750503809" lon="13.658139606404406"><ele>107.0</ele><time>2026-05-03T17:59:50.998Z</time></trkpt><trkpt lat="42.84049210577973" lon="13.657692177407302"><ele>107.0</ele><time>2026-05-03T17:59:51.998Z</time></trkpt><trkpt lat="42.84038700168688" lon="13.657238402152025"><ele>107.0</ele><time>2026-05-03T17:59:52.998Z</time></trkpt><trkpt lat="42.84029091721957" lon="13.656778593821473"><ele>107.5</ele><time>2026-05-03T17:59:53.998Z</time></trkpt><trkpt lat="42.840203184330754" lon="13.656300423862108"><ele>108.0</ele><time>2026-05-03T17:59:54.998Z</time></trkpt><trkpt lat="42.84012837771892" lon="13.655811974850272"><ele>110.0</ele><time>2026-05-03T17:59:55.998Z</time></trkpt><trkpt lat="42.84006226060118" lon="13.655329091665026"><ele>112.0</ele><time>2026-05-03T17:59:56.998Z</time></trkpt><trkpt lat="42.84000722031144" lon="13.654855289496592"><ele>112.5</ele><time>2026-05-03T17:59:57.998Z</time></trkpt><trkpt lat="42.83996168185917" lon="13.654384720167752"><ele>113.0</ele><time>2026-05-03T17:59:58.998Z</time></trkpt><trkpt lat="42.839927261350596" lon="13.653914860318967"><ele>111.0</ele><time>2026-05-03T17:59:59.998Z</time></trkpt><trkpt lat="42.83990406585923" lon="13.653441824975758"><ele>109.0</ele><time>2026-05-03T18:00:00.998Z</time></trkpt><trkpt lat="42.83989172991925" lon="13.652963943437825"><ele>108.5</ele><time>2026-05-03T18:00:01.998Z</time></trkpt><trkpt lat="42.83989113743673" lon="13.652488613472002"><ele>108.0</ele><time>2026-05-03T18:00:02.998Z</time></trkpt><trkpt lat="42.83989923256817" lon="13.65201683035823"><ele>110.0</ele><time>2026-05-03T18:00:03.998Z</time></trkpt><trkpt lat="42.83991164694188" lon="13.651545540989527"><ele>112.0</ele><time>2026-05-03T18:00:04.998Z</time></trkpt><trkpt lat="42.839927820173074" lon="13.65107507787743"><ele>112.0</ele><time>2026-05-03T18:00:05.998Z</time></trkpt><trkpt lat="42.83994653218667" lon="13.650607897666523"><ele>112.0</ele><time>2026-05-03T18:00:06.998Z</time></trkpt><trkpt lat="42.839965012479404" lon="13.650140050283708"><ele>112.0</ele><time>2026-05-03T18:00:07.998Z</time></trkpt><trkpt lat="42.839985745895014" lon="13.649674332211935"><ele>112.0</ele><time>2026-05-03T18:00:08.998Z</time></trkpt><trkpt lat="42.840007252473" lon="13.64920972764296"><ele>113.0</ele><time>2026-05-03T18:00:09.998Z</time></trkpt><trkpt lat="42.8400282873653" lon="13.648747216465143"><ele>114.0</ele><time>2026-05-03T18:00:10.998Z</time></trkpt><trkpt lat="42.84004750677187" lon="13.648286024006822"><ele>115.0</ele><time>2026-05-03T18:00:12Z</time></trkpt><trkpt lat="42.840061589322865" lon="13.647824987282894"><ele>116.0</ele><time>2026-05-03T18:00:13Z</time></trkpt><trkpt lat="42.840075639274886" lon="13.64736401779086"><ele>117.5</ele><time>2026-05-03T18:00:14Z</time></trkpt><trkpt lat="42.840090238335996" lon="13.646904702654648"><ele>119.0</ele><time>2026-05-03T18:00:15Z</time></trkpt><trkpt lat="42.84010593166441" lon="13.646445853386632"><ele>120.0</ele><time>2026-05-03T18:00:16Z</time></trkpt><trkpt lat="42.84012132600443" lon="13.645990818077706"><ele>121.0</ele><time>2026-05-03T18:00:17Z</time></trkpt><trkpt lat="42.84013867642841" lon="13.645540657516639"><ele>119.0</ele><time>2026-05-03T18:00:18Z</time></trkpt><trkpt lat="42.8401548023217" lon="13.645092767260834"><ele>117.0</ele><time>2026-05-03T18:00:19Z</time></trkpt><trkpt lat="42.8401688802481" lon="13.644653316295457"><ele>116.5</ele><time>2026-05-03T18:00:20Z</time></trkpt><trkpt lat="42.84018402988466" lon="13.64421771335355"><ele>116.0</ele><time>2026-05-03T18:00:21Z</time></trkpt><trkpt lat="42.84019930814602" lon="13.643788446012097"><ele>113.5</ele><time>2026-05-03T18:00:22Z</time></trkpt><trkpt lat="42.840213033006854" lon="13.64335769829876"><ele>111.0</ele><time>2026-05-03T18:00:23Z</time></trkpt><trkpt lat="42.84022636229613" lon="13.642933641952979"><ele>111.0</ele><time>2026-05-03T18:00:24Z</time></trkpt><trkpt lat="42.84023809471083" lon="13.642511214098944"><ele>111.0</ele><time>2026-05-03T18:00:25Z</time></trkpt><trkpt lat="42.84024712430763" lon="13.642097315795558"><ele>109.5</ele><time>2026-05-03T18:00:26Z</time></trkpt><trkpt lat="42.84025589756259" lon="13.64168622082697"><ele>108.0</ele><time>2026-05-03T18:00:27Z</time></trkpt><trkpt lat="42.840258886289135" lon="13.64128003310745"><ele>108.0</ele><time>2026-05-03T18:00:28Z</time></trkpt><trkpt lat="42.84025462324265" lon="13.640877348150076"><ele>108.0</ele><time>2026-05-03T18:00:29Z</time></trkpt><trkpt lat="42.840240781720134" lon="13.640477899340251"><ele>110.5</ele><time>2026-05-03T18:00:30Z</time></trkpt><trkpt lat="42.84021640741814" lon="13.64008964721576"><ele>113.0</ele><time>2026-05-03T18:00:31Z</time></trkpt><trkpt lat="42.84018236889522" lon="13.639699911836265"><ele>114.5</ele><time>2026-05-03T18:00:32Z</time></trkpt><trkpt lat="42.84013767817115" lon="13.63931729410447"><ele>116.0</ele><time>2026-05-03T18:00:33Z</time></trkpt><trkpt lat="42.840086087945984" lon="13.63893717411018"><ele>121.5</ele><time>2026-05-03T18:00:34Z</time></trkpt><trkpt lat="42.84002838027412" lon="13.63856772591433"><ele>127.0</ele><time>2026-05-03T18:00:35Z</time></trkpt><trkpt lat="42.83996207410877" lon="13.638210943301154"><ele>127.0</ele><time>2026-05-03T18:00:36Z</time></trkpt><trkpt lat="42.839886223058535" lon="13.637859155982877"><ele>127.0</ele><time>2026-05-03T18:00:37Z</time></trkpt><trkpt lat="42.83980418896079" lon="13.637517316750937"><ele>127.0</ele><time>2026-05-03T18:00:38Z</time></trkpt><trkpt lat="42.839719611079964" lon="13.637184260101572"><ele>127.0</ele><time>2026-05-03T18:00:39Z</time></trkpt><trkpt lat="42.83963274966011" lon="13.636860764369134"><ele>126.0</ele><time>2026-05-03T18:00:40Z</time></trkpt><trkpt lat="42.83954543872076" lon="13.636542431654384"><ele>125.0</ele><time>2026-05-03T18:00:41Z</time></trkpt><trkpt lat="42.83945948812634" lon="13.636230846707006"><ele>124.5</ele><time>2026-05-03T18:00:42Z</time></trkpt><trkpt lat="42.83937433694894" lon="13.635921626117161"><ele>124.0</ele><time>2026-05-03T18:00:43Z</time></trkpt><trkpt lat="42.83929132734347" lon="13.635614658972647"><ele>126.0</ele><time>2026-05-03T18:00:44Z</time></trkpt><trkpt lat="42.839210638978116" lon="13.63531176675633"><ele>128.0</ele><time>2026-05-03T18:00:45Z</time></trkpt><trkpt lat="42.83913156718227" lon="13.63502589950646"><ele>128.0</ele><time>2026-05-03T18:00:46Z</time></trkpt><trkpt lat="42.83905323584491" lon="13.634738708487394"><ele>128.0</ele><time>2026-05-03T18:00:47Z</time></trkpt><trkpt lat="42.838974695544664" lon="13.634461185903085"><ele>128.0</ele><time>2026-05-03T18:00:48Z</time></trkpt><trkpt lat="42.83889737174341" lon="13.634186562380838"><ele>127.66666666666666</ele><time>2026-05-03T18:00:49Z</time></trkpt><trkpt lat="42.83882019701018" lon="13.633913191380337"><ele>127.33333333333334</ele><time>2026-05-03T18:00:50Z</time></trkpt><trkpt lat="42.83874317321177" lon="13.633641047364513"><ele>127.0</ele><time>2026-05-03T18:00:51Z</time></trkpt><trkpt lat="42.83866540189157" lon="13.63336966071228"><ele>127.33333333333334</ele><time>2026-05-03T18:00:52Z</time></trkpt><trkpt lat="42.83858749849631" lon="13.633097744843719"><ele>127.66666666666666</ele><time>2026-05-03T18:00:53Z</time></trkpt><trkpt lat="42.838510568283354" lon="13.632824031240611"><ele>128.0</ele><time>2026-05-03T18:00:53.999Z</time></trkpt><trkpt lat="42.83843390804094" lon="13.632553365823611"><ele>128.0</ele><time>2026-05-03T18:00:54.999Z</time></trkpt><trkpt lat="42.83835950379084" lon="13.632282730787397"><ele>128.0</ele><time>2026-05-03T18:00:55.999Z</time></trkpt><trkpt lat="42.83827916947988" lon="13.632009438686294"><ele>128.0</ele><time>2026-05-03T18:00:56.999Z</time></trkpt><trkpt lat="42.838203035570835" lon="13.631739819578565"><ele>128.33333333333331</ele><time>2026-05-03T18:00:57.999Z</time></trkpt><trkpt lat="42.83812697831284" lon="13.631461947008674"><ele>128.66666666666666</ele><time>2026-05-03T18:00:58.999Z</time></trkpt><trkpt lat="42.838051778631446" lon="13.631178819242221"><ele>129.0</ele><time>2026-05-03T18:00:59.999Z</time></trkpt><trkpt lat="42.83797607771179" lon="13.630893408807763"><ele>129.33333333333334</ele><time>2026-05-03T18:01:00.999Z</time></trkpt><trkpt lat="42.837904448821284" lon="13.630606232991312"><ele>129.66666666666669</ele><time>2026-05-03T18:01:01.999Z</time></trkpt><trkpt lat="42.837838615637224" lon="13.630314328444033"><ele>130.0</ele><time>2026-05-03T18:01:02.999Z</time></trkpt><trkpt lat="42.837777195575725" lon="13.630025890481178"><ele>129.66666666666669</ele><time>2026-05-03T18:01:03.999Z</time></trkpt><trkpt lat="42.83772009973015" lon="13.62973861324836"><ele>129.33333333333334</ele><time>2026-05-03T18:01:04.999Z</time></trkpt><trkpt lat="42.837665593601116" lon="13.629449386080301"><ele>129.0</ele><time>2026-05-03T18:01:05.999Z</time></trkpt><trkpt lat="42.83761250907168" lon="13.62916102245868"><ele>133.33333333333334</ele><time>2026-05-03T18:01:06.999Z</time></trkpt><trkpt lat="42.83756076012271" lon="13.62887114446192"><ele>137.66666666666669</ele><time>2026-05-03T18:01:07.999Z</time></trkpt><trkpt lat="42.83750971761264" lon="13.628582175387903"><ele>142.0</ele><time>2026-05-03T18:01:08.999Z</time></trkpt><trkpt lat="42.83746246965098" lon="13.628292239365445"><ele>144.33333333333334</ele><time>2026-05-03T18:01:09.999Z</time></trkpt><trkpt lat="42.83741631363882" lon="13.628001338465111"><ele>146.66666666666666</ele><time>2026-05-03T18:01:10.999Z</time></trkpt><trkpt lat="42.83736694202246" lon="13.62771854314414"><ele>149.0</ele><time>2026-05-03T18:01:11.999Z</time></trkpt><trkpt lat="42.83731649514221" lon="13.627437057718002"><ele>154.0</ele><time>2026-05-03T18:01:12.999Z</time></trkpt><trkpt lat="42.83726330876615" lon="13.627158048916563"><ele>159.0</ele><time>2026-05-03T18:01:13.999Z</time></trkpt><trkpt lat="42.837204497940824" lon="13.626876306927526"><ele>164.0</ele><time>2026-05-03T18:01:15.016Z</time></trkpt><trkpt lat="42.837145133444174" lon="13.626597415114864"><ele>165.66666666666666</ele><time>2026-05-03T18:01:16.023Z</time></trkpt><trkpt lat="42.83708275825336" lon="13.626326045912489"><ele>167.33333333333334</ele><time>2026-05-03T18:01:17.019Z</time></trkpt><trkpt lat="42.83705721504753" lon="13.626041443874813"><ele>169.0</ele><time>2026-05-03T18:01:18.025Z</time></trkpt><trkpt lat="42.83701665745691" lon="13.625760964085032"><ele>169.0</ele><time>2026-05-03T18:01:19.028Z</time></trkpt><trkpt lat="42.836975510027294" lon="13.625476404807156"><ele>169.0</ele><time>2026-05-03T18:01:20.024Z</time></trkpt><trkpt lat="42.83693478857226" lon="13.625194791492959"><ele>169.0</ele><time>2026-05-03T18:01:21.024Z</time></trkpt><trkpt lat="42.83689447322145" lon="13.624915986729054"><ele>165.33333333333334</ele><time>2026-05-03T18:01:22.024Z</time></trkpt><trkpt lat="42.836854415863954" lon="13.624638966190622"><ele>161.66666666666666</ele><time>2026-05-03T18:01:23.033Z</time></trkpt><trkpt lat="42.83681537118963" lon="13.624368948589716"><ele>158.0</ele><time>2026-05-03T18:01:24.023Z</time></trkpt><trkpt lat="42.83690605850925" lon="13.624038163625636"><ele>150.5</ele><time>2026-05-03T18:01:25.022Z</time></trkpt><trkpt lat="42.83683673482652" lon="13.623616592971256"><ele>143.0</ele><time>2026-05-03T18:01:25.999Z</time></trkpt><trkpt lat="42.836812277604785" lon="13.62331693338248"><ele>145.5</ele><time>2026-05-03T18:01:26.999Z</time></trkpt><trkpt lat="42.83678334185972" lon="13.623012617726591"><ele>148.0</ele><time>2026-05-03T18:01:27.999Z</time></trkpt><trkpt lat="42.83676164630461" lon="13.622702138684831"><ele>148.5</ele><time>2026-05-03T18:01:28.999Z</time></trkpt><trkpt lat="42.83674997872369" lon="13.622393651993862"><ele>149.0</ele><time>2026-05-03T18:01:29.999Z</time></trkpt><trkpt lat="42.83674509653817" lon="13.622082491585543"><ele>148.33333333333331</ele><time>2026-05-03T18:01:30.999Z</time></trkpt><trkpt lat="42.836719244115415" lon="13.621790391121486"><ele>147.66666666666666</ele><time>2026-05-03T18:01:31.999Z</time></trkpt><trkpt lat="42.836721448154016" lon="13.621472404815224"><ele>147.0</ele><time>2026-05-03T18:01:32.999Z</time></trkpt><trkpt lat="42.83672474036193" lon="13.621155759961601"><ele>147.0</ele><time>2026-05-03T18:01:33.999Z</time></trkpt><trkpt lat="42.83673049439362" lon="13.620839831883535"><ele>147.0</ele><time>2026-05-03T18:01:34.999Z</time></trkpt><trkpt lat="42.83673867648497" lon="13.620529753148544"><ele>148.0</ele><time>2026-05-03T18:01:35.999Z</time></trkpt><trkpt lat="42.83675130590869" lon="13.620217550597363"><ele>149.0</ele><time>2026-05-03T18:01:36.999Z</time></trkpt><trkpt lat="42.836767825816416" lon="13.619906001340185"><ele>149.0</ele><time>2026-05-03T18:01:37.999Z</time></trkpt><trkpt lat="42.836786536145986" lon="13.619595188603997"><ele>149.0</ele><time>2026-05-03T18:01:38.999Z</time></trkpt><trkpt lat="42.8368093885768" lon="13.619284949298414"><ele>149.5</ele><time>2026-05-03T18:01:39.999Z</time></trkpt><trkpt lat="42.836834528259814" lon="13.618974592975594"><ele>150.0</ele><time>2026-05-03T18:01:40.999Z</time></trkpt><trkpt lat="42.836863002717394" lon="13.618665301965907"><ele>152.0</ele><time>2026-05-03T18:01:41.999Z</time></trkpt><trkpt lat="42.83689611666349" lon="13.61835612816663"><ele>154.0</ele><time>2026-05-03T18:01:42.999Z</time></trkpt><trkpt lat="42.83693439857385" lon="13.6180483366535"><ele>154.0</ele><time>2026-05-03T18:01:43.999Z</time></trkpt><trkpt lat="42.83697566804331" lon="13.617741892264949"><ele>154.0</ele><time>2026-05-03T18:01:44.999Z</time></trkpt><trkpt lat="42.83701951957085" lon="13.617436957706092"><ele>154.0</ele><time>2026-05-03T18:01:45.999Z</time></trkpt><trkpt lat="42.83706652053082" lon="13.617135737313014"><ele>154.0</ele><time>2026-05-03T18:01:46.999Z</time></trkpt><trkpt lat="42.83711469293738" lon="13.616835443386787"><ele>154.33333333333334</ele><time>2026-05-03T18:01:47.999Z</time></trkpt><trkpt lat="42.83716746048184" lon="13.616538320656332"><ele>154.66666666666666</ele><time>2026-05-03T18:01:48.999Z</time></trkpt><trkpt lat="42.83722325241499" lon="13.616243713724877"><ele>155.0</ele><time>2026-05-03T18:01:49.999Z</time></trkpt><trkpt lat="42.83727964362992" lon="13.61595228371686"><ele>155.0</ele><time>2026-05-03T18:01:50.998Z</time></trkpt><trkpt lat="42.837338238459076" lon="13.615662872983282"><ele>155.0</ele><time>2026-05-03T18:01:51.998Z</time></trkpt><trkpt lat="42.837398622007335" lon="13.615373377396251"><ele>155.0</ele><time>2026-05-03T18:01:52.998Z</time></trkpt><trkpt lat="42.837459418109056" lon="13.615084177675934"><ele>155.66666666666666</ele><time>2026-05-03T18:01:53.998Z</time></trkpt><trkpt lat="42.83751893590873" lon="13.614795054046228"><ele>156.33333333333334</ele><time>2026-05-03T18:01:54.998Z</time></trkpt><trkpt lat="42.83757707081611" lon="13.61451157402795"><ele>157.0</ele><time>2026-05-03T18:01:55.998Z</time></trkpt><trkpt lat="42.83763639102359" lon="13.614232892537144"><ele>157.0</ele><time>2026-05-03T18:01:56.998Z</time></trkpt><trkpt lat="42.837697931315084" lon="13.613959248622857"><ele>157.0</ele><time>2026-05-03T18:01:57.998Z</time></trkpt><trkpt lat="42.83775587371207" lon="13.613698586616117"><ele>157.0</ele><time>2026-05-03T18:01:58.998Z</time></trkpt><trkpt lat="42.83781460805192" lon="13.613447295896034"><ele>158.0</ele><time>2026-05-03T18:01:59.998Z</time></trkpt><trkpt lat="42.83787211184866" lon="13.613210017468546"><ele>159.0</ele><time>2026-05-03T18:02:00.998Z</time></trkpt><trkpt lat="42.83793049335608" lon="13.61298358675011"><ele>160.0</ele><time>2026-05-03T18:02:01.998Z</time></trkpt><trkpt lat="42.83797438337582" lon="13.61265728311382"><ele>161.0</ele><time>2026-05-03T18:02:02.998Z</time></trkpt><trkpt lat="42.83802571000404" lon="13.612408283600068"><ele>162.0</ele><time>2026-05-03T18:02:03.998Z</time></trkpt><trkpt lat="42.838077698312034" lon="13.61215876039277"><ele>163.0</ele><time>2026-05-03T18:02:04.998Z</time></trkpt><trkpt lat="42.838128349115244" lon="13.611910189092422"><ele>163.66666666666669</ele><time>2026-05-03T18:02:05.998Z</time></trkpt><trkpt lat="42.83818269900131" lon="13.611657019618283"><ele>164.33333333333334</ele><time>2026-05-03T18:02:06.998Z</time></trkpt><trkpt lat="42.838235525284034" lon="13.611402059554216"><ele>165.0</ele><time>2026-05-03T18:02:07.998Z</time></trkpt><trkpt lat="42.838292143937764" lon="13.611146296192745"><ele>166.0</ele><time>2026-05-03T18:02:08.998Z</time></trkpt><trkpt lat="42.838345674874894" lon="13.610889734912499"><ele>167.0</ele><time>2026-05-03T18:02:09.998Z</time></trkpt><trkpt lat="42.838398142763076" lon="13.61063575026525"><ele>168.0</ele><time>2026-05-03T18:02:10.998Z</time></trkpt><trkpt lat="42.83845373353942" lon="13.610378696660044"><ele>168.66666666666666</ele><time>2026-05-03T18:02:11.998Z</time></trkpt><trkpt lat="42.83850917170949" lon="13.610121352455966"><ele>169.33333333333331</ele><time>2026-05-03T18:02:12.998Z</time></trkpt><trkpt lat="42.83856388393615" lon="13.6098714447817"><ele>170.0</ele><time>2026-05-03T18:02:13.998Z</time></trkpt><trkpt lat="42.83861572170901" lon="13.609621743652715"><ele>171.0</ele><time>2026-05-03T18:02:14.998Z</time></trkpt><trkpt lat="42.838667352924176" lon="13.609375412003514"><ele>172.0</ele><time>2026-05-03T18:02:15.998Z</time></trkpt><trkpt lat="42.83871824760092" lon="13.609136472486355"><ele>173.0</ele><time>2026-05-03T18:02:16.998Z</time></trkpt><trkpt lat="42.83877129520182" lon="13.608899268255021"><ele>173.0</ele><time>2026-05-03T18:02:18Z</time></trkpt><trkpt lat="42.83882388182779" lon="13.608663419762012"><ele>173.0</ele><time>2026-05-03T18:02:19Z</time></trkpt><trkpt lat="42.83887884347201" lon="13.60843289318369"><ele>173.0</ele><time>2026-05-03T18:02:20Z</time></trkpt><trkpt lat="42.8389378507883" lon="13.608202917156854"><ele>174.66666666666666</ele><time>2026-05-03T18:02:21Z</time></trkpt><trkpt lat="42.83899995523076" lon="13.607968891091016"><ele>176.33333333333334</ele><time>2026-05-03T18:02:22Z</time></trkpt><trkpt lat="42.83906641175604" lon="13.607727519961921"><ele>178.0</ele><time>2026-05-03T18:02:23Z</time></trkpt><trkpt lat="42.8391356952475" lon="13.607480769000373"><ele>179.0</ele><time>2026-05-03T18:02:24Z</time></trkpt><trkpt lat="42.839208164601615" lon="13.607236102070187"><ele>180.0</ele><time>2026-05-03T18:02:25Z</time></trkpt><trkpt lat="42.8392848456953" lon="13.606984827219414"><ele>181.0</ele><time>2026-05-03T18:02:26Z</time></trkpt><trkpt lat="42.83935781443496" lon="13.606736595728561"><ele>181.0</ele><time>2026-05-03T18:02:27Z</time></trkpt><trkpt lat="42.83943292826793" lon="13.606487295842154"><ele>181.0</ele><time>2026-05-03T18:02:28Z</time></trkpt><trkpt lat="42.839506994360555" lon="13.606239236559437"><ele>181.0</ele><time>2026-05-03T18:02:29Z</time></trkpt><trkpt lat="42.839582953015615" lon="13.605988520979306"><ele>182.33333333333334</ele><time>2026-05-03T18:02:30Z</time></trkpt><trkpt lat="42.8396612364458" lon="13.6057372315652"><ele>183.66666666666666</ele><time>2026-05-03T18:02:31Z</time></trkpt><trkpt lat="42.83973925281666" lon="13.605485540472158"><ele>185.0</ele><time>2026-05-03T18:02:32Z</time></trkpt><trkpt lat="42.839816204303936" lon="13.605235504415525"><ele>186.33333333333331</ele><time>2026-05-03T18:02:33Z</time></trkpt><trkpt lat="42.839891456546084" lon="13.604985257984069"><ele>187.66666666666666</ele><time>2026-05-03T18:02:34Z</time></trkpt><trkpt lat="42.83996845328909" lon="13.604735433799625"><ele>189.0</ele><time>2026-05-03T18:02:35Z</time></trkpt><trkpt lat="42.84004955135314" lon="13.604483554497294"><ele>190.0</ele><time>2026-05-03T18:02:36Z</time></trkpt><trkpt lat="42.84013038014174" lon="13.604229887896738"><ele>191.0</ele><time>2026-05-03T18:02:37Z</time></trkpt><trkpt lat="42.84021401145458" lon="13.603973289300917"><ele>192.0</ele><time>2026-05-03T18:02:38Z</time></trkpt><trkpt lat="42.84030025570989" lon="13.603713415088333"><ele>193.33333333333331</ele><time>2026-05-03T18:02:39Z</time></trkpt><trkpt lat="42.84038944950699" lon="13.603454844570882"><ele>194.66666666666666</ele><time>2026-05-03T18:02:40Z</time></trkpt><trkpt lat="42.840483849616305" lon="13.60319403530457"><ele>196.0</ele><time>2026-05-03T18:02:41Z</time></trkpt><trkpt lat="42.84057637593485" lon="13.60293394215245"><ele>196.33333333333331</ele><time>2026-05-03T18:02:42Z</time></trkpt><trkpt lat="42.840671618737424" lon="13.60266793843362"><ele>196.66666666666669</ele><time>2026-05-03T18:02:43Z</time></trkpt><trkpt lat="42.8407709306395" lon="13.602406252420916"><ele>197.0</ele><time>2026-05-03T18:02:44Z</time></trkpt><trkpt lat="42.84087396321443" lon="13.602147539434606"><ele>199.0</ele><time>2026-05-03T18:02:45Z</time></trkpt><trkpt lat="42.84098337092773" lon="13.601888220080768"><ele>201.0</ele><time>2026-05-03T18:02:46Z</time></trkpt><trkpt lat="42.84110040915143" lon="13.60162578747602"><ele>203.0</ele><time>2026-05-03T18:02:47Z</time></trkpt><trkpt lat="42.841216715405174" lon="13.60137108836334"><ele>203.66666666666669</ele><time>2026-05-03T18:02:48Z</time></trkpt><trkpt lat="42.841336125875706" lon="13.601126828045938"><ele>204.33333333333331</ele><time>2026-05-03T18:02:49Z</time></trkpt><trkpt lat="42.84145387325973" lon="13.600887236039432"><ele>205.0</ele><time>2026-05-03T18:02:50Z</time></trkpt><trkpt lat="42.8415687028602" lon="13.600657925123306"><ele>205.0</ele><time>2026-05-03T18:02:51Z</time></trkpt><trkpt lat="42.84167923914564" lon="13.600449445041964"><ele>205.0</ele><time>2026-05-03T18:02:52Z</time></trkpt><trkpt lat="42.84178956121642" lon="13.600250199072086"><ele>205.0</ele><time>2026-05-03T18:02:53Z</time></trkpt><trkpt lat="42.8419014394663" lon="13.600058963482923"><ele>205.0</ele><time>2026-05-03T18:02:54Z</time></trkpt><trkpt lat="42.84201461236792" lon="13.599869484548384"><ele>205.0</ele><time>2026-05-03T18:02:55Z</time></trkpt><trkpt lat="42.842128439485506" lon="13.599684249642726"><ele>205.0</ele><time>2026-05-03T18:02:56Z</time></trkpt><trkpt lat="42.84225113400811" lon="13.59948371970174"><ele>206.0</ele><time>2026-05-03T18:02:57Z</time></trkpt><trkpt lat="42.842390280343004" lon="13.599281215400215"><ele>207.0</ele><time>2026-05-03T18:02:58Z</time></trkpt><trkpt lat="42.842534596848346" lon="13.599074614849718"><ele>208.0</ele><time>2026-05-03T18:02:59Z</time></trkpt><trkpt lat="42.842688605934676" lon="13.598857252277726"><ele>208.0</ele><time>2026-05-03T18:03:00Z</time></trkpt><trkpt lat="42.842854983377784" lon="13.598631600097809"><ele>208.0</ele><time>2026-05-03T18:03:01Z</time></trkpt><trkpt lat="42.84303041028536" lon="13.598391601263309"><ele>208.0</ele><time>2026-05-03T18:03:02Z</time></trkpt><trkpt lat="42.84320974665879" lon="13.598155924833323"><ele>208.0</ele><time>2026-05-03T18:03:02.999Z</time></trkpt><trkpt lat="42.84339580044034" lon="13.597927542316839"><ele>201.0</ele><time>2026-05-03T18:03:03.999Z</time></trkpt><trkpt lat="42.84358901732642" lon="13.597703249649708"><ele>194.0</ele><time>2026-05-03T18:03:04.999Z</time></trkpt><trkpt lat="42.84378601878786" lon="13.597480527981721"><ele>194.0</ele><time>2026-05-03T18:03:05.999Z</time></trkpt><trkpt lat="42.84398226473889" lon="13.597259483804052"><ele>194.0</ele><time>2026-05-03T18:03:06.999Z</time></trkpt><trkpt lat="42.84417514867482" lon="13.597036990392702"><ele>193.0</ele><time>2026-05-03T18:03:07.999Z</time></trkpt><trkpt lat="42.84436633068409" lon="13.596811521649812"><ele>192.0</ele><time>2026-05-03T18:03:08.999Z</time></trkpt><trkpt lat="42.84455405601287" lon="13.596580010491035"><ele>192.0</ele><time>2026-05-03T18:03:09.999Z</time></trkpt><trkpt lat="42.84473743330335" lon="13.59633714841727"><ele>192.0</ele><time>2026-05-03T18:03:10.999Z</time></trkpt><trkpt lat="42.844913238341704" lon="13.59607597317553"><ele>191.5</ele><time>2026-05-03T18:03:11.999Z</time></trkpt><trkpt lat="42.845078837457365" lon="13.595797563788985"><ele>191.0</ele><time>2026-05-03T18:03:12.999Z</time></trkpt><trkpt lat="42.845237539757754" lon="13.595509075089145"><ele>194.5</ele><time>2026-05-03T18:03:13.999Z</time></trkpt><trkpt lat="42.84539230586249" lon="13.595219971207793"><ele>198.0</ele><time>2026-05-03T18:03:14.999Z</time></trkpt><trkpt lat="42.84554333252401" lon="13.594929006740646"><ele>198.0</ele><time>2026-05-03T18:03:15.999Z</time></trkpt><trkpt lat="42.845688339060864" lon="13.594630335523874"><ele>198.0</ele><time>2026-05-03T18:03:16.999Z</time></trkpt><trkpt lat="42.84582751861517" lon="13.59431522094525"><ele>199.0</ele><time>2026-05-03T18:03:17.999Z</time></trkpt><trkpt lat="42.8459540006635" lon="13.59398381616879"><ele>200.0</ele><time>2026-05-03T18:03:18.999Z</time></trkpt><trkpt lat="42.84606877544153" lon="13.59363840064508"><ele>196.0</ele><time>2026-05-03T18:03:19.999Z</time></trkpt><trkpt lat="42.84617815380554" lon="13.59328820669328"><ele>192.0</ele><time>2026-05-03T18:03:20.999Z</time></trkpt><trkpt lat="42.846281114125" lon="13.592941077486117"><ele>195.0</ele><time>2026-05-03T18:03:21.999Z</time></trkpt><trkpt lat="42.84637792480634" lon="13.592601923412712"><ele>198.0</ele><time>2026-05-03T18:03:22.999Z</time></trkpt><trkpt lat="42.84646270249414" lon="13.592263926993649"><ele>199.5</ele><time>2026-05-03T18:03:23.999Z</time></trkpt><trkpt lat="42.8465304964354" lon="13.591919981436792"><ele>201.0</ele><time>2026-05-03T18:03:24.999Z</time></trkpt><trkpt lat="42.84658249285737" lon="13.59157093449492"><ele>201.0</ele><time>2026-05-03T18:03:25.999Z</time></trkpt><trkpt lat="42.84661623802246" lon="13.591209469183823"><ele>201.0</ele><time>2026-05-03T18:03:26.999Z</time></trkpt><trkpt lat="42.84663283960775" lon="13.590838185059388"><ele>199.0</ele><time>2026-05-03T18:03:27.999Z</time></trkpt><trkpt lat="42.84664105929585" lon="13.590459865282671"><ele>197.0</ele><time>2026-05-03T18:03:28.999Z</time></trkpt><trkpt lat="42.8466448644559" lon="13.590076324775799"><ele>196.0</ele><time>2026-05-03T18:03:29.999Z</time></trkpt><trkpt lat="42.84664467025664" lon="13.589688979697597"><ele>195.0</ele><time>2026-05-03T18:03:30.999Z</time></trkpt><trkpt lat="42.84664443002748" lon="13.589291252978475"><ele>194.0</ele><time>2026-05-03T18:03:31.999Z</time></trkpt><trkpt lat="42.846648294024675" lon="13.588899689615841"><ele>193.0</ele><time>2026-05-03T18:03:32.999Z</time></trkpt><trkpt lat="42.84665850207189" lon="13.588501462657518"><ele>193.0</ele><time>2026-05-03T18:03:33.999Z</time></trkpt><trkpt lat="42.846671917422874" lon="13.588105824565224"><ele>193.0</ele><time>2026-05-03T18:03:34.999Z</time></trkpt><trkpt lat="42.84669254984982" lon="13.587709286898017"><ele>193.0</ele><time>2026-05-03T18:03:35.999Z</time></trkpt><trkpt lat="42.84671862122831" lon="13.58732157978412"><ele>193.0</ele><time>2026-05-03T18:03:36.999Z</time></trkpt><trkpt lat="42.84675242784275" lon="13.58693958773053"><ele>188.0</ele><time>2026-05-03T18:03:37.999Z</time></trkpt><trkpt lat="42.84678559168805" lon="13.586563240056096"><ele>183.0</ele><time>2026-05-03T18:03:38.999Z</time></trkpt><trkpt lat="42.84682972494677" lon="13.586201306424732"><ele>186.5</ele><time>2026-05-03T18:03:39.999Z</time></trkpt><trkpt lat="42.84686150434734" lon="13.585873097964443"><ele>190.0</ele><time>2026-05-03T18:03:40.999Z</time></trkpt><trkpt lat="42.84692163810787" lon="13.585500105943805"><ele>191.0</ele><time>2026-05-03T18:03:41.999Z</time></trkpt><trkpt lat="42.847001952284145" lon="13.585162539897578"><ele>192.0</ele><time>2026-05-03T18:03:42.999Z</time></trkpt><trkpt lat="42.847077225126654" lon="13.584858961939373"><ele>192.0</ele><time>2026-05-03T18:03:43.999Z</time></trkpt><trkpt lat="42.84716172589439" lon="13.584518808930158"><ele>192.0</ele><time>2026-05-03T18:03:44.999Z</time></trkpt><trkpt lat="42.84725626345097" lon="13.584221465730481"><ele>193.0</ele><time>2026-05-03T18:03:45.999Z</time></trkpt><trkpt lat="42.8473575319791" lon="13.583935689350803"><ele>194.0</ele><time>2026-05-03T18:03:46.999Z</time></trkpt><trkpt lat="42.847469080446515" lon="13.583660698010906"><ele>194.33333333333334</ele><time>2026-05-03T18:03:47.999Z</time></trkpt><trkpt lat="42.84757844151886" lon="13.583396643003782"><ele>194.66666666666669</ele><time>2026-05-03T18:03:48.999Z</time></trkpt><trkpt lat="42.84769004712522" lon="13.583132423506616"><ele>195.0</ele><time>2026-05-03T18:03:49.999Z</time></trkpt><trkpt lat="42.8478001563069" lon="13.582872071578553"><ele>193.66666666666666</ele><time>2026-05-03T18:03:50.999Z</time></trkpt><trkpt lat="42.84790925235922" lon="13.5826116890677"><ele>192.33333333333331</ele><time>2026-05-03T18:03:51.999Z</time></trkpt><trkpt lat="42.84801710936618" lon="13.582360923433708"><ele>191.0</ele><time>2026-05-03T18:03:52.999Z</time></trkpt><trkpt lat="42.84811828265243" lon="13.582111784711433"><ele>195.0</ele><time>2026-05-03T18:03:53.999Z</time></trkpt><trkpt lat="42.848218651451" lon="13.58186425615724"><ele>199.0</ele><time>2026-05-03T18:03:54.999Z</time></trkpt><trkpt lat="42.84831334160162" lon="13.58161602026349"><ele>203.0</ele><time>2026-05-03T18:03:55.999Z</time></trkpt><trkpt lat="42.848403610960546" lon="13.581368304474719"><ele>199.33333333333334</ele><time>2026-05-03T18:03:56.999Z</time></trkpt><trkpt lat="42.84848436013685" lon="13.581117247958172"><ele>195.66666666666669</ele><time>2026-05-03T18:03:57.999Z</time></trkpt><trkpt lat="42.848561484602726" lon="13.580865842544794"><ele>192.0</ele><time>2026-05-03T18:03:58.999Z</time></trkpt><trkpt lat="42.8486239483898" lon="13.580624173195277"><ele>192.0</ele><time>2026-05-03T18:03:59.999Z</time></trkpt><trkpt lat="42.848678806786985" lon="13.580390693181537"><ele>192.0</ele><time>2026-05-03T18:04:00.999Z</time></trkpt><trkpt lat="42.84873279771351" lon="13.580166337439527"><ele>192.0</ele><time>2026-05-03T18:04:01.998Z</time></trkpt><trkpt lat="42.84878232484276" lon="13.579946601289292"><ele>193.66666666666669</ele><time>2026-05-03T18:04:02.998Z</time></trkpt><trkpt lat="42.84879820410117" lon="13.579723593590783"><ele>195.33333333333334</ele><time>2026-05-03T18:04:03.998Z</time></trkpt><trkpt lat="42.84881631945684" lon="13.579506841017553"><ele>197.0</ele><time>2026-05-03T18:04:04.998Z</time></trkpt><trkpt lat="42.8488270229089" lon="13.579296358482113"><ele>197.66666666666669</ele><time>2026-05-03T18:04:05.998Z</time></trkpt><trkpt lat="42.84883059414013" lon="13.579072007152549"><ele>198.33333333333331</ele><time>2026-05-03T18:04:06.998Z</time></trkpt><trkpt lat="42.848815502837326" lon="13.578852372429147"><ele>199.0</ele><time>2026-05-03T18:04:07.998Z</time></trkpt><trkpt lat="42.84879554689464" lon="13.578631692341945"><ele>196.33333333333331</ele><time>2026-05-03T18:04:08.998Z</time></trkpt><trkpt lat="42.848766439142565" lon="13.578411562479609"><ele>193.66666666666666</ele><time>2026-05-03T18:04:09.998Z</time></trkpt><trkpt lat="42.84872689486951" lon="13.578194436687568"><ele>191.0</ele><time>2026-05-03T18:04:10.998Z</time></trkpt><trkpt lat="42.848678325852944" lon="13.577976848367674"><ele>188.0</ele><time>2026-05-03T18:04:11.998Z</time></trkpt><trkpt lat="42.84862085631265" lon="13.577763519020367"><ele>185.0</ele><time>2026-05-03T18:04:12.998Z</time></trkpt><trkpt lat="42.84855343934519" lon="13.577557524022179"><ele>182.0</ele><time>2026-05-03T18:04:13.998Z</time></trkpt><trkpt lat="42.84847813246035" lon="13.57735130126503"><ele>185.0</ele><time>2026-05-03T18:04:14.998Z</time></trkpt><trkpt lat="42.84840429320114" lon="13.577145830572794"><ele>188.0</ele><time>2026-05-03T18:04:15.998Z</time></trkpt><trkpt lat="42.84833485977473" lon="13.5769467714561"><ele>191.0</ele><time>2026-05-03T18:04:16.998Z</time></trkpt><trkpt lat="42.84827179901007" lon="13.57676358335178"><ele>191.0</ele><time>2026-05-03T18:04:17.998Z</time></trkpt><trkpt lat="42.84821341733176" lon="13.576592569673059"><ele>191.0</ele><time>2026-05-03T18:04:18.998Z</time></trkpt><trkpt lat="42.848153305738165" lon="13.576428711779549"><ele>191.0</ele><time>2026-05-03T18:04:19.998Z</time></trkpt><trkpt lat="42.84809488688611" lon="13.576268427666237"><ele>191.0</ele><time>2026-05-03T18:04:20.998Z</time></trkpt><trkpt lat="42.848039277093086" lon="13.57610898019763"><ele>188.0</ele><time>2026-05-03T18:04:21.998Z</time></trkpt><trkpt lat="42.84798827108353" lon="13.57595977058913"><ele>185.0</ele><time>2026-05-03T18:04:22.998Z</time></trkpt><trkpt lat="42.847939933420115" lon="13.57582567189049"><ele>182.0</ele><time>2026-05-03T18:04:24Z</time></trkpt><trkpt lat="42.84789964219197" lon="13.575702012267199"><ele>179.0</ele><time>2026-05-03T18:04:25Z</time></trkpt><trkpt lat="42.84786795023802" lon="13.575581186401063"><ele>176.0</ele><time>2026-05-03T18:04:26Z</time></trkpt><trkpt lat="42.84783897024814" lon="13.575477663124246"><ele>176.0</ele><time>2026-05-03T18:04:27Z</time></trkpt><trkpt lat="42.847819555952846" lon="13.575386187018715"><ele>176.0</ele><time>2026-05-03T18:04:28Z</time></trkpt><trkpt lat="42.84780975956357" lon="13.575300791765658"><ele>176.0</ele><time>2026-05-03T18:04:29Z</time></trkpt><trkpt lat="42.84782072420456" lon="13.575214701745454"><ele>176.0</ele><time>2026-05-03T18:04:30Z</time></trkpt><trkpt lat="42.847881246175085" lon="13.575060920641445"><ele>176.0</ele><time>2026-05-03T18:04:32Z</time></trkpt><trkpt lat="42.84790602315435" lon="13.574972836771076"><ele>176.0</ele><time>2026-05-03T18:04:33Z</time></trkpt><trkpt lat="42.847904025973065" lon="13.574872930177975"><ele>174.20000000000002</ele><time>2026-05-03T18:04:34Z</time></trkpt><trkpt lat="42.84788833721304" lon="13.574769464457889"><ele>172.4</ele><time>2026-05-03T18:04:35Z</time></trkpt><trkpt lat="42.84784689866866" lon="13.574676604040611"><ele>170.6</ele><time>2026-05-03T18:04:36Z</time></trkpt><trkpt lat="42.847866358481106" lon="13.574531214926917"><ele>168.8</ele><time>2026-05-03T18:04:37Z</time></trkpt><trkpt lat="42.84784608843912" lon="13.574401834252614"><ele>167.0</ele><time>2026-05-03T18:04:38Z</time></trkpt><trkpt lat="42.84782082944498" lon="13.57426069348797"><ele>167.5</ele><time>2026-05-03T18:04:39Z</time></trkpt><trkpt lat="42.847800122250455" lon="13.574103326127993"><ele>168.0</ele><time>2026-05-03T18:04:40Z</time></trkpt><trkpt lat="42.8477817069598" lon="13.573935712733384"><ele>168.5</ele><time>2026-05-03T18:04:41Z</time></trkpt><trkpt lat="42.847773196396034" lon="13.573751737264352"><ele>169.0</ele><time>2026-05-03T18:04:42Z</time></trkpt><trkpt lat="42.84778088936802" lon="13.573561823113991"><ele>169.0</ele><time>2026-05-03T18:04:43Z</time></trkpt><trkpt lat="42.84781328649247" lon="13.573362291207888"><ele>169.0</ele><time>2026-05-03T18:04:44Z</time></trkpt><trkpt lat="42.84785509583349" lon="13.57315162396959"><ele>169.0</ele><time>2026-05-03T18:04:45Z</time></trkpt><trkpt lat="42.84789979094622" lon="13.572945653550889"><ele>168.25</ele><time>2026-05-03T18:04:46Z</time></trkpt><trkpt lat="42.84794221752273" lon="13.57274826995608"><ele>167.5</ele><time>2026-05-03T18:04:47Z</time></trkpt><trkpt lat="42.84798581424183" lon="13.57255644773757"><ele>166.75</ele><time>2026-05-03T18:04:48Z</time></trkpt><trkpt lat="42.84802830747809" lon="13.572367076952006"><ele>166.0</ele><time>2026-05-03T18:04:49Z</time></trkpt><trkpt lat="42.84806717805711" lon="13.572187294546143"><ele>166.0</ele><time>2026-05-03T18:04:50Z</time></trkpt><trkpt lat="42.848105386693994" lon="13.572016471755964"><ele>166.0</ele><time>2026-05-03T18:04:51Z</time></trkpt><trkpt lat="42.84814137442941" lon="13.571852776136051"><ele>166.0</ele><time>2026-05-03T18:04:52Z</time></trkpt><trkpt lat="42.8481763512071" lon="13.571697570832658"><ele>166.0</ele><time>2026-05-03T18:04:53Z</time></trkpt><trkpt lat="42.84821230156614" lon="13.571551229633341"><ele>166.0</ele><time>2026-05-03T18:04:54Z</time></trkpt><trkpt lat="42.8482477381779" lon="13.571419469440285"><ele>166.0</ele><time>2026-05-03T18:04:55Z</time></trkpt><trkpt lat="42.84828437275823" lon="13.571308693233295"><ele>166.0</ele><time>2026-05-03T18:04:56Z</time></trkpt><trkpt lat="42.84832536085657" lon="13.571216690321187"><ele>166.0</ele><time>2026-05-03T18:04:57Z</time></trkpt><trkpt lat="42.84838049019172" lon="13.571148736544203"><ele>166.0</ele><time>2026-05-03T18:04:58Z</time></trkpt><trkpt lat="42.84843761005551" lon="13.571093633136076"><ele>166.0</ele><time>2026-05-03T18:04:59Z</time></trkpt><trkpt lat="42.848479343227666" lon="13.571021632250734"><ele>164.8</ele><time>2026-05-03T18:05:00Z</time></trkpt><trkpt lat="42.84856360135984" lon="13.570929738867031"><ele>163.60000000000002</ele><time>2026-05-03T18:05:02Z</time></trkpt><trkpt lat="42.848644869266" lon="13.57093071029842"><ele>162.4</ele><time>2026-05-03T18:05:04Z</time></trkpt><trkpt lat="42.84873301818265" lon="13.571057746937733"><ele>161.2</ele><time>2026-05-03T18:05:05.999Z</time></trkpt><trkpt lat="42.84877667144564" lon="13.571158641873625"><ele>160.0</ele><time>2026-05-03T18:05:06.999Z</time></trkpt><trkpt lat="42.848848389825335" lon="13.571244303799103"><ele>159.8</ele><time>2026-05-03T18:05:07.999Z</time></trkpt><trkpt lat="42.84891040745498" lon="13.57135590766406"><ele>159.6</ele><time>2026-05-03T18:05:08.999Z</time></trkpt><trkpt lat="42.848976917589475" lon="13.571472709800569"><ele>159.4</ele><time>2026-05-03T18:05:09.999Z</time></trkpt><trkpt lat="42.84904737130089" lon="13.571595100839245"><ele>159.2</ele><time>2026-05-03T18:05:10.999Z</time></trkpt><trkpt lat="42.849120096889216" lon="13.571715436174461"><ele>159.0</ele><time>2026-05-03T18:05:11.999Z</time></trkpt><trkpt lat="42.84919060570661" lon="13.571825466780291"><ele>159.0</ele><time>2026-05-03T18:05:12.999Z</time></trkpt><trkpt lat="42.849257291290506" lon="13.571927611222108"><ele>159.0</ele><time>2026-05-03T18:05:13.999Z</time></trkpt><trkpt lat="42.84932090862231" lon="13.572025545200441"><ele>159.0</ele><time>2026-05-03T18:05:14.999Z</time></trkpt><trkpt lat="42.849381128064536" lon="13.572120183564921"><ele>159.0</ele><time>2026-05-03T18:05:15.999Z</time></trkpt><trkpt lat="42.84943254194277" lon="13.572216837188666"><ele>159.0</ele><time>2026-05-03T18:05:16.999Z</time></trkpt><trkpt lat="42.849470178142155" lon="13.572319126311301"><ele>162.33333333333334</ele><time>2026-05-03T18:05:17.999Z</time></trkpt><trkpt lat="42.8494785098282" lon="13.572439084723316"><ele>165.66666666666666</ele><time>2026-05-03T18:05:18.999Z</time></trkpt><trkpt lat="42.84948637588667" lon="13.572559943743514"><ele>169.0</ele><time>2026-05-03T18:05:19.999Z</time></trkpt><trkpt lat="42.84948675006532" lon="13.572679757015798"><ele>172.33333333333331</ele><time>2026-05-03T18:05:20.999Z</time></trkpt><trkpt lat="42.84949587132344" lon="13.572790739457862"><ele>175.66666666666666</ele><time>2026-05-03T18:05:21.999Z</time></trkpt><trkpt lat="42.84946290809335" lon="13.57288884723519"><ele>179.0</ele><time>2026-05-03T18:05:22.999Z</time></trkpt><trkpt lat="42.84944743985876" lon="13.572982428351597"><ele>179.00000000000003</ele><time>2026-05-03T18:05:23.999Z</time></trkpt><trkpt lat="42.84942651126191" lon="13.57306447242133"><ele>179.0</ele><time>2026-05-03T18:05:24.999Z</time></trkpt><trkpt lat="42.849407555512" lon="13.573154669874164"><ele>179.0</ele><time>2026-05-03T18:05:25.999Z</time></trkpt><trkpt lat="42.84938856495388" lon="13.573251060595968"><ele>179.0</ele><time>2026-05-03T18:05:26.999Z</time></trkpt><trkpt lat="42.84936995429469" lon="13.573345523052138"><ele>179.0</ele><time>2026-05-03T18:05:27.999Z</time></trkpt><trkpt lat="42.84937283329586" lon="13.573447142913574"><ele>179.00000000000003</ele><time>2026-05-03T18:05:28.999Z</time></trkpt><trkpt lat="42.84935072608831" lon="13.573543430484426"><ele>179.0</ele><time>2026-05-03T18:05:29.999Z</time></trkpt><trkpt lat="42.84933952808009" lon="13.573645342402118"><ele>178.66666666666666</ele><time>2026-05-03T18:05:30.999Z</time></trkpt><trkpt lat="42.84932263785434" lon="13.573747179871944"><ele>178.33333333333331</ele><time>2026-05-03T18:05:31.999Z</time></trkpt><trkpt lat="42.8493104364001" lon="13.573843387587381"><ele>178.0</ele><time>2026-05-03T18:05:32.999Z</time></trkpt><trkpt lat="42.84932032330424" lon="13.573943071794204"><ele>177.66666666666666</ele><time>2026-05-03T18:05:33.999Z</time></trkpt><trkpt lat="42.84933340431385" lon="13.574043547851184"><ele>177.33333333333334</ele><time>2026-05-03T18:05:34.999Z</time></trkpt><trkpt lat="42.84934197089115" lon="13.5741559778768"><ele>177.0</ele><time>2026-05-03T18:05:35.999Z</time></trkpt><trkpt lat="42.849378766313116" lon="13.574252718066932"><ele>177.0</ele><time>2026-05-03T18:05:36.999Z</time></trkpt><trkpt lat="42.84940788710803" lon="13.5743545848918"><ele>177.0</ele><time>2026-05-03T18:05:37.999Z</time></trkpt><trkpt lat="42.84945095922011" lon="13.57443755435162"><ele>177.0</ele><time>2026-05-03T18:05:38.999Z</time></trkpt><trkpt lat="42.849496159091636" lon="13.574505953986126"><ele>177.0</ele><time>2026-05-03T18:05:39.999Z</time></trkpt><trkpt lat="42.84954595415219" lon="13.574578661110909"><ele>177.0</ele><time>2026-05-03T18:05:40.999Z</time></trkpt><trkpt lat="42.84959942941803" lon="13.574644021671888"><ele>177.0</ele><time>2026-05-03T18:05:41.999Z</time></trkpt><trkpt lat="42.84966085600848" lon="13.574718905727382"><ele>177.0</ele><time>2026-05-03T18:05:42.999Z</time></trkpt><trkpt lat="42.84972431692552" lon="13.574793260524407"><ele>176.2857142857143</ele><time>2026-05-03T18:05:43.999Z</time></trkpt><trkpt lat="42.84977001626936" lon="13.574862636825632"><ele>175.57142857142856</ele><time>2026-05-03T18:05:44.999Z</time></trkpt><trkpt lat="42.84983187190015" lon="13.574922943147884"><ele>174.85714285714286</ele><time>2026-05-03T18:05:45.999Z</time></trkpt><trkpt lat="42.84988327269843" lon="13.574987310597972"><ele>174.14285714285717</ele><time>2026-05-03T18:05:46.999Z</time></trkpt><trkpt lat="42.849937869151866" lon="13.575054058805371"><ele>173.42857142857144</ele><time>2026-05-03T18:05:47.999Z</time></trkpt><trkpt lat="42.849995927219524" lon="13.575126209922765"><ele>172.71428571428572</ele><time>2026-05-03T18:05:48.999Z</time></trkpt><trkpt lat="42.85005730724414" lon="13.575198158282806"><ele>172.0</ele><time>2026-05-03T18:05:49.999Z</time></trkpt><trkpt lat="42.850122766492376" lon="13.575282359270341"><ele>171.8</ele><time>2026-05-03T18:05:50.999Z</time></trkpt><trkpt lat="42.850191078854785" lon="13.575362641438486"><ele>171.6</ele><time>2026-05-03T18:05:51.999Z</time></trkpt><trkpt lat="42.85025975049986" lon="13.575453358188764"><ele>171.4</ele><time>2026-05-03T18:05:52.999Z</time></trkpt><trkpt lat="42.85032965566887" lon="13.575540964261203"><ele>171.20000000000002</ele><time>2026-05-03T18:05:53.999Z</time></trkpt><trkpt lat="42.850403411794304" lon="13.575635026306044"><ele>171.0</ele><time>2026-05-03T18:05:54.999Z</time></trkpt><trkpt lat="42.850477015024794" lon="13.575718120901888"><ele>171.0</ele><time>2026-05-03T18:05:55.999Z</time></trkpt><trkpt lat="42.850545593799424" lon="13.575802459988374"><ele>171.0</ele><time>2026-05-03T18:05:56.999Z</time></trkpt><trkpt lat="42.850612381328865" lon="13.575877710902368"><ele>171.0</ele><time>2026-05-03T18:05:57.999Z</time></trkpt><trkpt lat="42.85067788974894" lon="13.575952243456486"><ele>171.0</ele><time>2026-05-03T18:05:58.999Z</time></trkpt><trkpt lat="42.85073632731717" lon="13.576027470183949"><ele>171.0</ele><time>2026-05-03T18:05:59.999Z</time></trkpt><trkpt lat="42.850797190062174" lon="13.576106379788488"><ele>171.0</ele><time>2026-05-03T18:06:00.999Z</time></trkpt><trkpt lat="42.85085545757036" lon="13.57618051976323"><ele>170.28571428571428</ele><time>2026-05-03T18:06:01.999Z</time></trkpt><trkpt lat="42.85090757157471" lon="13.57625387231837"><ele>169.57142857142856</ele><time>2026-05-03T18:06:02.999Z</time></trkpt><trkpt lat="42.85096321424599" lon="13.576316895474928"><ele>168.85714285714283</ele><time>2026-05-03T18:06:03.998Z</time></trkpt><trkpt lat="42.8510218957101" lon="13.576370867062069"><ele>168.14285714285714</ele><time>2026-05-03T18:06:04.998Z</time></trkpt><trkpt lat="42.85107906072447" lon="13.576419986282056"><ele>167.42857142857144</ele><time>2026-05-03T18:06:05.998Z</time></trkpt><trkpt lat="42.85114738787133" lon="13.576466743788796"><ele>166.7142857142857</ele><time>2026-05-03T18:06:06.998Z</time></trkpt><trkpt lat="42.85121209453668" lon="13.576510264240271"><ele>166.0</ele><time>2026-05-03T18:06:07.998Z</time></trkpt><trkpt lat="42.851277574494205" lon="13.576559545073849"><ele>166.0</ele><time>2026-05-03T18:06:08.998Z</time></trkpt><trkpt lat="42.85135216919852" lon="13.576606838139785"><ele>166.0</ele><time>2026-05-03T18:06:09.998Z</time></trkpt><trkpt lat="42.85142202836836" lon="13.576655320229179"><ele>166.0</ele><time>2026-05-03T18:06:10.998Z</time></trkpt><trkpt lat="42.8514916601412" lon="13.576707383187138"><ele>166.0</ele><time>2026-05-03T18:06:11.998Z</time></trkpt><trkpt lat="42.85155716649734" lon="13.576756279079722"><ele>166.0</ele><time>2026-05-03T18:06:12.998Z</time></trkpt><trkpt lat="42.8516253378091" lon="13.576789766263108"><ele>166.0</ele><time>2026-05-03T18:06:13.998Z</time></trkpt><trkpt lat="42.85168917255112" lon="13.576836961402307"><ele>166.0</ele><time>2026-05-03T18:06:14.998Z</time></trkpt><trkpt lat="42.851742899840964" lon="13.57689237798732"><ele>166.0</ele><time>2026-05-03T18:06:15.998Z</time></trkpt><trkpt lat="42.85179065130972" lon="13.576967153923274"><ele>166.0</ele><time>2026-05-03T18:06:16.998Z</time></trkpt><trkpt lat="42.85186108553184" lon="13.577087287315917"><ele>166.0</ele><time>2026-05-03T18:06:18.998Z</time></trkpt><trkpt lat="42.85190271622919" lon="13.577166808009816"><ele>166.0</ele><time>2026-05-03T18:06:20.998Z</time></trkpt><trkpt lat="42.85194840619039" lon="13.577236855237883"><ele>166.0</ele><time>2026-05-03T18:06:22.998Z</time></trkpt><trkpt lat="42.85201016416157" lon="13.577344812024212"><ele>164.57142857142856</ele><time>2026-05-03T18:06:24.998Z</time></trkpt><trkpt lat="42.85208540972475" lon="13.577473472120834"><ele>163.14285714285717</ele><time>2026-05-03T18:06:26.998Z</time></trkpt><trkpt lat="42.8521274857584" lon="13.577544757471145"><ele>161.71428571428572</ele><time>2026-05-03T18:06:27.998Z</time></trkpt><trkpt lat="42.852167940967554" lon="13.577615265979805"><ele>160.28571428571428</ele><time>2026-05-03T18:06:28.998Z</time></trkpt><trkpt lat="42.85220858629653" lon="13.577682482950705"><ele>158.85714285714283</ele><time>2026-05-03T18:06:30Z</time></trkpt><trkpt lat="42.85224938248167" lon="13.57775305160694"><ele>157.42857142857144</ele><time>2026-05-03T18:06:31Z</time></trkpt><trkpt lat="42.8522938897494" lon="13.577818009403309"><ele>156.0</ele><time>2026-05-03T18:06:32Z</time></trkpt><trkpt lat="42.85234726416643" lon="13.577870732034299"><ele>156.33333333333334</ele><time>2026-05-03T18:06:33Z</time></trkpt><trkpt lat="42.852401517960715" lon="13.577917802387573"><ele>156.66666666666666</ele><time>2026-05-03T18:06:34Z</time></trkpt><trkpt lat="42.85251344569643" lon="13.578010130122681"><ele>157.0</ele><time>2026-05-03T18:06:36Z</time></trkpt><trkpt lat="42.85257456778642" lon="13.578063406844736"><ele>157.33333333333331</ele><time>2026-05-03T18:06:37Z</time></trkpt><trkpt lat="42.8526367976285" lon="13.578120699009364"><ele>157.66666666666666</ele><time>2026-05-03T18:06:38Z</time></trkpt><trkpt lat="42.8527005897193" lon="13.578171075745196"><ele>158.0</ele><time>2026-05-03T18:06:39Z</time></trkpt><trkpt lat="42.85276237303255" lon="13.578227774216508"><ele>158.0</ele><time>2026-05-03T18:06:40Z</time></trkpt><trkpt lat="42.85282001600697" lon="13.578275708950152"><ele>158.0</ele><time>2026-05-03T18:06:41Z</time></trkpt><trkpt lat="42.852897248135974" lon="13.578403068185612"><ele>158.0</ele><time>2026-05-03T18:06:43Z</time></trkpt><trkpt lat="42.8529256024083" lon="13.578485781366496"><ele>158.0</ele><time>2026-05-03T18:06:44Z</time></trkpt><trkpt lat="42.852954033353264" lon="13.578565776973518"><ele>158.0</ele><time>2026-05-03T18:06:45Z</time></trkpt><trkpt lat="42.85297275218896" lon="13.578736293250037"><ele>158.0</ele><time>2026-05-03T18:06:47Z</time></trkpt><trkpt lat="42.8530177906177" lon="13.578890422645044"><ele>157.83333333333331</ele><time>2026-05-03T18:06:49Z</time></trkpt><trkpt lat="42.85305956185539" lon="13.57903030651081"><ele>157.66666666666666</ele><time>2026-05-03T18:06:51Z</time></trkpt><trkpt lat="42.85310083395375" lon="13.579154337576258"><ele>157.5</ele><time>2026-05-03T18:06:53Z</time></trkpt><trkpt lat="42.853105030412294" lon="13.57924065266714"><ele>157.33333333333334</ele><time>2026-05-03T18:06:54Z</time></trkpt><trkpt lat="42.853096541300694" lon="13.579341430537195"><ele>157.16666666666669</ele><time>2026-05-03T18:06:55Z</time></trkpt><trkpt lat="42.85308069137387" lon="13.579454637932944"><ele>157.0</ele><time>2026-05-03T18:06:56Z</time></trkpt><trkpt lat="42.85306438910886" lon="13.579577974293317"><ele>157.33333333333334</ele><time>2026-05-03T18:06:57Z</time></trkpt><trkpt lat="42.85304976537589" lon="13.57970155536479"><ele>157.66666666666669</ele><time>2026-05-03T18:06:58Z</time></trkpt><trkpt lat="42.85303535662256" lon="13.579822309716784"><ele>158.0</ele><time>2026-05-03T18:06:59Z</time></trkpt><trkpt lat="42.85302321127809" lon="13.579935223175383"><ele>158.33333333333334</ele><time>2026-05-03T18:07:00Z</time></trkpt><trkpt lat="42.85301188194506" lon="13.5800428345091"><ele>158.66666666666666</ele><time>2026-05-03T18:07:01Z</time></trkpt><trkpt lat="42.85300416292846" lon="13.580139455130661"><ele>159.0</ele><time>2026-05-03T18:07:02Z</time></trkpt><trkpt lat="42.85298433035693" lon="13.580227012425034"><ele>159.0</ele><time>2026-05-03T18:07:03Z</time></trkpt><trkpt lat="42.85297522892714" lon="13.580316986432607"><ele>159.0</ele><time>2026-05-03T18:07:04Z</time></trkpt><trkpt lat="42.8529686887251" lon="13.580406591855702"><ele>159.0</ele><time>2026-05-03T18:07:05Z</time></trkpt><trkpt lat="42.852949973110576" lon="13.58049526191276"><ele>159.0</ele><time>2026-05-03T18:07:06Z</time></trkpt><trkpt lat="42.85293987370931" lon="13.580583647749934"><ele>159.0</ele><time>2026-05-03T18:07:07Z</time></trkpt><trkpt lat="42.852929176678316" lon="13.580669600608863"><ele>159.0</ele><time>2026-05-03T18:07:08Z</time></trkpt><trkpt lat="42.85291885372536" lon="13.58076100642515"><ele>159.0</ele><time>2026-05-03T18:07:09Z</time></trkpt><trkpt lat="42.85290605104757" lon="13.580861941245226"><ele>159.66666666666666</ele><time>2026-05-03T18:07:10Z</time></trkpt><trkpt lat="42.85289300550245" lon="13.58096900116277"><ele>160.33333333333334</ele><time>2026-05-03T18:07:11Z</time></trkpt><trkpt lat="42.85287917846494" lon="13.581077343633085"><ele>161.0</ele><time>2026-05-03T18:07:11.999Z</time></trkpt><trkpt lat="42.852867712516606" lon="13.581189051155977"><ele>161.66666666666669</ele><time>2026-05-03T18:07:12.999Z</time></trkpt><trkpt lat="42.85284895741852" lon="13.581303162922737"><ele>162.33333333333334</ele><time>2026-05-03T18:07:13.999Z</time></trkpt><trkpt lat="42.852836944921" lon="13.58141420375868"><ele>163.0</ele><time>2026-05-03T18:07:14.999Z</time></trkpt><trkpt lat="42.852822042894346" lon="13.581526740841774"><ele>163.0</ele><time>2026-05-03T18:07:15.999Z</time></trkpt><trkpt lat="42.85280737028525" lon="13.581637854502455"><ele>163.0</ele><time>2026-05-03T18:07:16.999Z</time></trkpt><trkpt lat="42.85279301374846" lon="13.58175086044671"><ele>163.0</ele><time>2026-05-03T18:07:17.999Z</time></trkpt><trkpt lat="42.85277981116061" lon="13.581864031026646"><ele>163.0</ele><time>2026-05-03T18:07:18.999Z</time></trkpt><trkpt lat="42.8527702584369" lon="13.581972942625422"><ele>163.0</ele><time>2026-05-03T18:07:19.999Z</time></trkpt><trkpt lat="42.85276261303944" lon="13.582079695844495"><ele>163.0</ele><time>2026-05-03T18:07:20.999Z</time></trkpt><trkpt lat="42.85276373406187" lon="13.58218687700474"><ele>162.16666666666669</ele><time>2026-05-03T18:07:21.999Z</time></trkpt><trkpt lat="42.85277478993451" lon="13.58229248839498"><ele>161.33333333333334</ele><time>2026-05-03T18:07:22.999Z</time></trkpt><trkpt lat="42.85279293731837" lon="13.582398437385406"><ele>160.5</ele><time>2026-05-03T18:07:23.999Z</time></trkpt><trkpt lat="42.85281601215662" lon="13.582505191593087"><ele>159.66666666666666</ele><time>2026-05-03T18:07:24.999Z</time></trkpt><trkpt lat="42.85284464001243" lon="13.58261029568443"><ele>158.83333333333331</ele><time>2026-05-03T18:07:25.999Z</time></trkpt><trkpt lat="42.852885782351" lon="13.58271081548993"><ele>158.0</ele><time>2026-05-03T18:07:26.999Z</time></trkpt><trkpt lat="42.85293850047622" lon="13.582806304473769"><ele>157.20000000000002</ele><time>2026-05-03T18:07:27.999Z</time></trkpt><trkpt lat="42.852997222164944" lon="13.58288953792946"><ele>156.4</ele><time>2026-05-03T18:07:28.999Z</time></trkpt><trkpt lat="42.85306163678168" lon="13.582974220661786"><ele>155.60000000000002</ele><time>2026-05-03T18:07:29.999Z</time></trkpt><trkpt lat="42.85312558236084" lon="13.583068328587972"><ele>154.8</ele><time>2026-05-03T18:07:30.999Z</time></trkpt><trkpt lat="42.853196325917004" lon="13.583151369854026"><ele>154.0</ele><time>2026-05-03T18:07:31.999Z</time></trkpt><trkpt lat="42.85326187509822" lon="13.583232533914117"><ele>154.0</ele><time>2026-05-03T18:07:32.999Z</time></trkpt><trkpt lat="42.85332546918558" lon="13.583315898130788"><ele>154.0</ele><time>2026-05-03T18:07:33.999Z</time></trkpt><trkpt lat="42.85338821039359" lon="13.58340441843093"><ele>154.0</ele><time>2026-05-03T18:07:34.999Z</time></trkpt><trkpt lat="42.85345425707797" lon="13.583486610110816"><ele>154.0</ele><time>2026-05-03T18:07:35.999Z</time></trkpt><trkpt lat="42.8535321689618" lon="13.583546314075672"><ele>154.0</ele><time>2026-05-03T18:07:36.999Z</time></trkpt><trkpt lat="42.85358275164329" lon="13.583634861029813"><ele>154.0</ele><time>2026-05-03T18:07:37.999Z</time></trkpt><trkpt lat="42.853635600484075" lon="13.583691988128265"><ele>154.4</ele><time>2026-05-03T18:07:38.999Z</time></trkpt><trkpt lat="42.85369369498628" lon="13.58375797713155"><ele>154.8</ele><time>2026-05-03T18:07:40.999Z</time></trkpt><trkpt lat="42.853746654874584" lon="13.58382248996231"><ele>155.2</ele><time>2026-05-03T18:08:25.998Z</time></trkpt><trkpt lat="42.85381356018288" lon="13.58391085709505"><ele>155.6</ele><time>2026-05-03T18:08:27.998Z</time></trkpt><trkpt lat="42.85389927478305" lon="13.584021487588787"><ele>156.0</ele><time>2026-05-03T18:08:29.998Z</time></trkpt><trkpt lat="42.85399744167999" lon="13.584098031596174"><ele>156.0</ele><time>2026-05-03T18:08:31.998Z</time></trkpt><trkpt lat="42.853969960746845" lon="13.584237791774704"><ele>156.0</ele><time>2026-05-03T18:08:32.998Z</time></trkpt><trkpt lat="42.85397429399591" lon="13.584325960158498"><ele>156.0</ele><time>2026-05-03T18:08:33.998Z</time></trkpt><trkpt lat="42.85398221924874" lon="13.584493508391544"><ele>156.0</ele><time>2026-05-03T18:08:36Z</time></trkpt><trkpt lat="42.853988189944005" lon="13.584638210111782"><ele>156.0</ele><time>2026-05-03T18:08:38Z</time></trkpt><trkpt lat="42.85399055316762" lon="13.584725885598614"><ele>153.4</ele><time>2026-05-03T18:08:40Z</time></trkpt><trkpt lat="42.85399369031561" lon="13.584843757525958"><ele>150.8</ele><time>2026-05-03T18:08:45Z</time></trkpt><trkpt lat="42.85400656325778" lon="13.584928269091193"><ele>148.20000000000002</ele><time>2026-05-03T18:08:47Z</time></trkpt><trkpt lat="42.854209835432854" lon="13.584925926285795"><ele>145.6</ele><time>2026-05-03T18:08:49Z</time></trkpt><trkpt lat="42.854268000063065" lon="13.58488744313656"><ele>143.0</ele><time>2026-05-03T18:08:50Z</time></trkpt><trkpt lat="42.85433177567165" lon="13.584833210723849"><ele>141.16666666666666</ele><time>2026-05-03T18:08:51Z</time></trkpt><trkpt lat="42.85440022217649" lon="13.584774490305124"><ele>139.33333333333331</ele><time>2026-05-03T18:08:52Z</time></trkpt><trkpt lat="42.854469395259" lon="13.584705772403769"><ele>137.5</ele><time>2026-05-03T18:08:53Z</time></trkpt><trkpt lat="42.85454394300396" lon="13.584652999754026"><ele>135.66666666666666</ele><time>2026-05-03T18:08:54Z</time></trkpt><trkpt lat="42.854616649513304" lon="13.584604371685385"><ele>133.83333333333334</ele><time>2026-05-03T18:08:55Z</time></trkpt><trkpt lat="42.85468785061156" lon="13.58456527639497"><ele>132.0</ele><time>2026-05-03T18:08:56Z</time></trkpt><trkpt lat="42.85478923271198" lon="13.584518499157786"><ele>132.0</ele><time>2026-05-03T18:08:58Z</time></trkpt><trkpt lat="42.854850157950594" lon="13.584489416664995"><ele>132.0</ele><time>2026-05-03T18:09:00Z</time></trkpt><trkpt lat="42.85489464330363" lon="13.584575896291256"><ele>132.0</ele><time>2026-05-03T18:09:03Z</time></trkpt><trkpt lat="42.854813374718816" lon="13.584634420376029"><ele>132.0</ele><time>2026-05-03T18:09:05Z</time></trkpt><trkpt lat="42.85471257497225" lon="13.584642267908512"><ele>132.0</ele><time>2026-05-03T18:09:07Z</time></trkpt><trkpt lat="42.85462037416742" lon="13.58469127465435"><ele>132.0</ele><time>2026-05-03T18:09:09Z</time></trkpt><trkpt lat="42.854535183748226" lon="13.58475411235504"><ele>132.0</ele><time>2026-05-03T18:09:11Z</time></trkpt><trkpt lat="42.854495458024864" lon="13.584833174164256"><ele>132.0</ele><time>2026-05-03T18:09:13Z</time></trkpt><trkpt lat="42.8545488128924" lon="13.584898292243423"><ele>132.0</ele><time>2026-05-03T18:09:15Z</time></trkpt><trkpt lat="42.854637919291235" lon="13.584820932629773"><ele>132.0</ele><time>2026-05-03T18:09:17Z</time></trkpt><trkpt lat="42.854698732529585" lon="13.584745304255478"><ele>132.0</ele><time>2026-05-03T18:09:18Z</time></trkpt><trkpt lat="42.85478737328346" lon="13.584710279996342"><ele>132.0</ele><time>2026-05-03T18:09:19Z</time></trkpt><trkpt lat="42.85488466459185" lon="13.584692701747278"><ele>132.0</ele><time>2026-05-03T18:09:19.999Z</time></trkpt><trkpt lat="42.85498519321419" lon="13.584666205999147"><ele>132.0</ele><time>2026-05-03T18:09:20.999Z</time></trkpt><trkpt lat="42.85508810486084" lon="13.58460812320495"><ele>132.0</ele><time>2026-05-03T18:09:21.999Z</time></trkpt><trkpt lat="42.85519642678945" lon="13.584538004365616"><ele>132.0</ele><time>2026-05-03T18:09:22.999Z</time></trkpt><trkpt lat="42.8553142615958" lon="13.584468592240931"><ele>130.0</ele><time>2026-05-03T18:09:23.999Z</time></trkpt><trkpt lat="42.85543574514502" lon="13.584390522516035"><ele>128.0</ele><time>2026-05-03T18:09:24.999Z</time></trkpt><trkpt lat="42.855556999795475" lon="13.584304501639128"><ele>126.0</ele><time>2026-05-03T18:09:25.999Z</time></trkpt><trkpt lat="42.855671906260824" lon="13.58419439339021"><ele>124.0</ele><time>2026-05-03T18:09:26.999Z</time></trkpt><trkpt lat="42.855774990630366" lon="13.584064678331387"><ele>124.0</ele><time>2026-05-03T18:09:27.999Z</time></trkpt><trkpt lat="42.855862777264825" lon="13.58390306397832"><ele>124.0</ele><time>2026-05-03T18:09:28.999Z</time></trkpt><trkpt lat="42.85596024380982" lon="13.583744089417605"><ele>124.0</ele><time>2026-05-03T18:09:29.999Z</time></trkpt><trkpt lat="42.85605879374789" lon="13.583582592592611"><ele>121.33333333333334</ele><time>2026-05-03T18:09:30.999Z</time></trkpt><trkpt lat="42.85616541796392" lon="13.58343001862042"><ele>118.66666666666666</ele><time>2026-05-03T18:09:31.999Z</time></trkpt><trkpt lat="42.85625479778239" lon="13.583259351430906"><ele>116.0</ele><time>2026-05-03T18:09:32.999Z</time></trkpt><trkpt lat="42.85634992466979" lon="13.58309596386151"><ele>116.0</ele><time>2026-05-03T18:09:33.999Z</time></trkpt><trkpt lat="42.85642661585152" lon="13.582925337722326"><ele>116.0</ele><time>2026-05-03T18:09:34.999Z</time></trkpt><trkpt lat="42.85651524715923" lon="13.582794594816958"><ele>116.0</ele><time>2026-05-03T18:09:35.999Z</time></trkpt><trkpt lat="42.85658114482338" lon="13.582652701090073"><ele>116.0</ele><time>2026-05-03T18:09:36.999Z</time></trkpt><trkpt lat="42.85664264908693" lon="13.582516857099195"><ele>117.0</ele><time>2026-05-03T18:09:37.999Z</time></trkpt><trkpt lat="42.856670313621386" lon="13.582358479948537"><ele>118.0</ele><time>2026-05-03T18:09:38.999Z</time></trkpt><trkpt lat="42.85670177708874" lon="13.582189610365221"><ele>119.0</ele><time>2026-05-03T18:09:39.999Z</time></trkpt><trkpt lat="42.85673273586492" lon="13.582012153070975"><ele>120.0</ele><time>2026-05-03T18:09:40.999Z</time></trkpt><trkpt lat="42.85677039761991" lon="13.581833137201684"><ele>121.75</ele><time>2026-05-03T18:09:41.999Z</time></trkpt><trkpt lat="42.85678733039807" lon="13.581636115883182"><ele>123.5</ele><time>2026-05-03T18:09:42.999Z</time></trkpt><trkpt lat="42.85680662042256" lon="13.58144534857446"><ele>125.25</ele><time>2026-05-03T18:09:43.999Z</time></trkpt><trkpt lat="42.85682097985514" lon="13.581261780262519"><ele>127.0</ele><time>2026-05-03T18:09:44.999Z</time></trkpt><trkpt lat="42.85682516689441" lon="13.58108029001459"><ele>127.0</ele><time>2026-05-03T18:09:45.999Z</time></trkpt><trkpt lat="42.8568153050638" lon="13.580907316771503"><ele>127.0</ele><time>2026-05-03T18:09:46.999Z</time></trkpt><trkpt lat="42.85681051540018" lon="13.580745370228218"><ele>127.0</ele><time>2026-05-03T18:09:47.999Z</time></trkpt><trkpt lat="42.85681021909683" lon="13.580589266599862"><ele>127.0</ele><time>2026-05-03T18:09:48.999Z</time></trkpt><trkpt lat="42.856821514153346" lon="13.580443256080377"><ele>127.00000000000001</ele><time>2026-05-03T18:09:49.999Z</time></trkpt><trkpt lat="42.8568400164923" lon="13.58030076386772"><ele>127.0</ele><time>2026-05-03T18:09:50.999Z</time></trkpt><trkpt lat="42.856859943299014" lon="13.580169144020973"><ele>127.0</ele><time>2026-05-03T18:09:51.999Z</time></trkpt><trkpt lat="42.85687516879705" lon="13.580053956569055"><ele>127.0</ele><time>2026-05-03T18:09:52.999Z</time></trkpt><trkpt lat="42.856879571601866" lon="13.579943079368043"><ele>127.00000000000001</ele><time>2026-05-03T18:09:53.999Z</time></trkpt><trkpt lat="42.85688009320048" lon="13.579845448646815"><ele>127.0</ele><time>2026-05-03T18:09:54.999Z</time></trkpt><trkpt lat="42.85691052177315" lon="13.579714498204893"><ele>127.0</ele><time>2026-05-03T18:09:56.999Z</time></trkpt><trkpt lat="42.85703778589327" lon="13.57972459597459"><ele>126.99999999999999</ele><time>2026-05-03T18:09:58.999Z</time></trkpt><trkpt lat="42.85710546594941" lon="13.579756831977738"><ele>126.99999999999999</ele><time>2026-05-03T18:09:59.999Z</time></trkpt><trkpt lat="42.8571814274277" lon="13.579783276215535"><ele>127.0</ele><time>2026-05-03T18:10:00.999Z</time></trkpt><trkpt lat="42.85727558790368" lon="13.579809105266076"><ele>127.0</ele><time>2026-05-03T18:10:01.999Z</time></trkpt><trkpt lat="42.85737934654394" lon="13.579833930041831"><ele>127.0</ele><time>2026-05-03T18:10:02.999Z</time></trkpt><trkpt lat="42.857472900706206" lon="13.579855188816243"><ele>126.99999999999999</ele><time>2026-05-03T18:10:03.999Z</time></trkpt><trkpt lat="42.85755724467637" lon="13.579874692995599"><ele>126.99999999999999</ele><time>2026-05-03T18:10:04.999Z</time></trkpt><trkpt lat="42.85763122750437" lon="13.579902723613888"><ele>127.0</ele><time>2026-05-03T18:10:05.999Z</time></trkpt><trkpt lat="42.85769698862107" lon="13.579916400564702"><ele>127.0</ele><time>2026-05-03T18:10:06.999Z</time></trkpt><trkpt lat="42.85775145367637" lon="13.58012185029016"><ele>130.79999999999998</ele><time>2026-05-03T18:10:08.999Z</time></trkpt><trkpt lat="42.85774554333505" lon="13.580235915371095"><ele>134.6</ele><time>2026-05-03T18:10:09.999Z</time></trkpt><trkpt lat="42.85771734688475" lon="13.580361181006626"><ele>138.39999999999998</ele><time>2026-05-03T18:10:10.999Z</time></trkpt><trkpt lat="42.85769385475874" lon="13.580511770785252"><ele>142.2</ele><time>2026-05-03T18:10:11.999Z</time></trkpt><trkpt lat="42.85768275273248" lon="13.580675741224303"><ele>146.0</ele><time>2026-05-03T18:10:12.999Z</time></trkpt><trkpt lat="42.857670440339895" lon="13.580852166241447"><ele>146.0</ele><time>2026-05-03T18:10:13.999Z</time></trkpt><trkpt lat="42.85766023797363" lon="13.581038328972634"><ele>146.0</ele><time>2026-05-03T18:10:14.999Z</time></trkpt><trkpt lat="42.857645311578565" lon="13.581224184205308"><ele>146.0</ele><time>2026-05-03T18:10:15.999Z</time></trkpt><trkpt lat="42.857635596722616" lon="13.581415373633828"><ele>146.0</ele><time>2026-05-03T18:10:16.999Z</time></trkpt><trkpt lat="42.857629253699315" lon="13.581600051777894"><ele>142.0</ele><time>2026-05-03T18:10:17.998Z</time></trkpt><trkpt lat="42.857609233949944" lon="13.581784232830671"><ele>138.0</ele><time>2026-05-03T18:10:18.998Z</time></trkpt><trkpt lat="42.85761322754214" lon="13.581967267160676"><ele>134.0</ele><time>2026-05-03T18:10:19.998Z</time></trkpt><trkpt lat="42.857598871337416" lon="13.58213263925939"><ele>130.0</ele><time>2026-05-03T18:10:20.998Z</time></trkpt><trkpt lat="42.85759622274834" lon="13.582273578762374"><ele>129.8</ele><time>2026-05-03T18:10:21.998Z</time></trkpt><trkpt lat="42.85758474464397" lon="13.582406244315768"><ele>129.6</ele><time>2026-05-03T18:10:22.998Z</time></trkpt><trkpt lat="42.85758500115293" lon="13.58253304399038"><ele>129.4</ele><time>2026-05-03T18:10:23.998Z</time></trkpt><trkpt lat="42.85760428152147" lon="13.5826583799877"><ele>129.2</ele><time>2026-05-03T18:10:24.998Z</time></trkpt><trkpt lat="42.857624278226865" lon="13.58277865267619"><ele>129.0</ele><time>2026-05-03T18:10:25.998Z</time></trkpt><trkpt lat="42.857644002361724" lon="13.582890822952631"><ele>131.0</ele><time>2026-05-03T18:10:26.998Z</time></trkpt><trkpt lat="42.8576672844683" lon="13.582988483256923"><ele>133.0</ele><time>2026-05-03T18:10:27.998Z</time></trkpt><trkpt lat="42.857695432896676" lon="13.583072736100362"><ele>135.0</ele><time>2026-05-03T18:10:28.998Z</time></trkpt><trkpt lat="42.857797416416176" lon="13.583090717111213"><ele>137.0</ele><time>2026-05-03T18:10:30.998Z</time></trkpt><trkpt lat="42.85791993114224" lon="13.583122765167499"><ele>139.0</ele><time>2026-05-03T18:10:32.998Z</time></trkpt><trkpt lat="42.8580156676554" lon="13.58313386703071"><ele>139.0</ele><time>2026-05-03T18:10:33.998Z</time></trkpt><trkpt lat="42.85813093053825" lon="13.583162910783253"><ele>139.0</ele><time>2026-05-03T18:10:34.998Z</time></trkpt><trkpt lat="42.85825674020699" lon="13.583193304523414"><ele>139.0</ele><time>2026-05-03T18:10:35.998Z</time></trkpt><trkpt lat="42.85838318833697" lon="13.583218277374337"><ele>139.0</ele><time>2026-05-03T18:10:36.998Z</time></trkpt><trkpt lat="42.85851363474463" lon="13.58324381383368"><ele>139.75</ele><time>2026-05-03T18:10:37.998Z</time></trkpt><trkpt lat="42.85864207185343" lon="13.583266785208778"><ele>140.5</ele><time>2026-05-03T18:10:38.998Z</time></trkpt><trkpt lat="42.85876860818688" lon="13.583296242944623"><ele>141.25</ele><time>2026-05-03T18:10:39.998Z</time></trkpt><trkpt lat="42.858893189903" lon="13.58332127930486"><ele>142.0</ele><time>2026-05-03T18:10:40.998Z</time></trkpt><trkpt lat="42.8590149903913" lon="13.583346601618965"><ele>142.0</ele><time>2026-05-03T18:10:42Z</time></trkpt><trkpt lat="42.85913605856073" lon="13.583374541781897"><ele>142.0</ele><time>2026-05-03T18:10:43Z</time></trkpt><trkpt lat="42.85925085178415" lon="13.583404652661267"><ele>142.0</ele><time>2026-05-03T18:10:44Z</time></trkpt><trkpt lat="42.85936283881771" lon="13.583424248636454"><ele>142.0</ele><time>2026-05-03T18:10:45Z</time></trkpt><trkpt lat="42.859462099551514" lon="13.58344950841133"><ele>141.79999999999998</ele><time>2026-05-03T18:10:46Z</time></trkpt><trkpt lat="42.859550492957574" lon="13.583463629253227"><ele>141.6</ele><time>2026-05-03T18:10:47Z</time></trkpt><trkpt lat="42.859618858293395" lon="13.583476282022295"><ele>141.39999999999998</ele><time>2026-05-03T18:10:48Z</time></trkpt><trkpt lat="42.85971750028141" lon="13.583448196417969"><ele>141.2</ele><time>2026-05-03T18:10:50Z</time></trkpt><trkpt lat="42.85982795107373" lon="13.583635050247764"><ele>141.0</ele><time>2026-05-03T18:10:52Z</time></trkpt><trkpt lat="42.8598837582646" lon="13.583767498849005"><ele>138.0</ele><time>2026-05-03T18:10:53Z</time></trkpt><trkpt lat="42.859950454899234" lon="13.58390170261421"><ele>135.0</ele><time>2026-05-03T18:10:54Z</time></trkpt><trkpt lat="42.86001642479379" lon="13.58403674188032"><ele>132.0</ele><time>2026-05-03T18:10:55Z</time></trkpt><trkpt lat="42.860078447672564" lon="13.5841647783949"><ele>129.0</ele><time>2026-05-03T18:10:56Z</time></trkpt><trkpt lat="42.86014370363563" lon="13.584287488785515"><ele>129.6</ele><time>2026-05-03T18:10:57Z</time></trkpt><trkpt lat="42.860206925780034" lon="13.584406144051426"><ele>130.2</ele><time>2026-05-03T18:10:58Z</time></trkpt><trkpt lat="42.86026454714173" lon="13.584518740839027"><ele>130.79999999999998</ele><time>2026-05-03T18:10:59Z</time></trkpt><trkpt lat="42.86032084786619" lon="13.584627199878614"><ele>131.4</ele><time>2026-05-03T18:11:00Z</time></trkpt><trkpt lat="42.86037602293444" lon="13.584729199466889"><ele>132.0</ele><time>2026-05-03T18:11:01Z</time></trkpt><trkpt lat="42.8604299699421" lon="13.584824350063325"><ele>132.0</ele><time>2026-05-03T18:11:02Z</time></trkpt><trkpt lat="42.86047679156826" lon="13.584918310895707"><ele>132.0</ele><time>2026-05-03T18:11:03Z</time></trkpt><trkpt lat="42.86051832198869" lon="13.585010306660669"><ele>132.0</ele><time>2026-05-03T18:11:04Z</time></trkpt><trkpt lat="42.86056401752182" lon="13.585091564626575"><ele>132.0</ele><time>2026-05-03T18:11:05Z</time></trkpt><trkpt lat="42.8605984540271" lon="13.585187289297114"><ele>132.0</ele><time>2026-05-03T18:11:06Z</time></trkpt><trkpt lat="42.86064054024628" lon="13.585280372441956"><ele>132.0</ele><time>2026-05-03T18:11:07Z</time></trkpt><trkpt lat="42.860685720287144" lon="13.58537630625228"><ele>133.66666666666666</ele><time>2026-05-03T18:11:08Z</time></trkpt><trkpt lat="42.86072596765992" lon="13.58547529481749"><ele>135.33333333333334</ele><time>2026-05-03T18:11:09Z</time></trkpt><trkpt lat="42.86075992034392" lon="13.585578552100216"><ele>137.0</ele><time>2026-05-03T18:11:10Z</time></trkpt><trkpt lat="42.860784283542735" lon="13.585683279082893"><ele>138.66666666666669</ele><time>2026-05-03T18:11:11Z</time></trkpt><trkpt lat="42.86081027678229" lon="13.585793569346217"><ele>140.33333333333334</ele><time>2026-05-03T18:11:12Z</time></trkpt><trkpt lat="42.86083445273312" lon="13.585907351546773"><ele>142.0</ele><time>2026-05-03T18:11:13Z</time></trkpt><trkpt lat="42.860857808587845" lon="13.586025925826725"><ele>142.0</ele><time>2026-05-03T18:11:14Z</time></trkpt><trkpt lat="42.86088072899995" lon="13.586142288394289"><ele>142.0</ele><time>2026-05-03T18:11:15Z</time></trkpt><trkpt lat="42.86091461533116" lon="13.586251488388665"><ele>142.0</ele><time>2026-05-03T18:11:16Z</time></trkpt><trkpt lat="42.860931960461286" lon="13.586365566776042"><ele>142.0</ele><time>2026-05-03T18:11:17Z</time></trkpt><trkpt lat="42.860961362820184" lon="13.586474135874044"><ele>142.0</ele><time>2026-05-03T18:11:18Z</time></trkpt><trkpt lat="42.8609816965567" lon="13.586585494403018"><ele>142.0</ele><time>2026-05-03T18:11:19Z</time></trkpt><trkpt lat="42.861004367619145" lon="13.586699097685484"><ele>145.0</ele><time>2026-05-03T18:11:20Z</time></trkpt><trkpt lat="42.86102695537232" lon="13.586817501703765"><ele>148.0</ele><time>2026-05-03T18:11:21Z</time></trkpt><trkpt lat="42.86103500984998" lon="13.586940859177517"><ele>151.0</ele><time>2026-05-03T18:11:22Z</time></trkpt><trkpt lat="42.86106860132809" lon="13.587056276049097"><ele>154.0</ele><time>2026-05-03T18:11:22.999Z</time></trkpt><trkpt lat="42.86109210688049" lon="13.587178882546"><ele>157.0</ele><time>2026-05-03T18:11:23.999Z</time></trkpt><trkpt lat="42.86112279150895" lon="13.587304645831118"><ele>157.0</ele><time>2026-05-03T18:11:24.999Z</time></trkpt><trkpt lat="42.861147801751784" lon="13.58743433763228"><ele>157.0</ele><time>2026-05-03T18:11:25.999Z</time></trkpt><trkpt lat="42.86117494535871" lon="13.587566908231567"><ele>157.0</ele><time>2026-05-03T18:11:26.999Z</time></trkpt><trkpt lat="42.86120480936454" lon="13.587693751662774"><ele>157.0</ele><time>2026-05-03T18:11:27.999Z</time></trkpt><trkpt lat="42.861220810526774" lon="13.587821331997164"><ele>157.0</ele><time>2026-05-03T18:11:28.999Z</time></trkpt><trkpt lat="42.861252374974164" lon="13.587940746603152"><ele>156.6</ele><time>2026-05-03T18:11:29.999Z</time></trkpt><trkpt lat="42.861282235644765" lon="13.58805903316877"><ele>156.2</ele><time>2026-05-03T18:11:30.999Z</time></trkpt><trkpt lat="42.86131347671282" lon="13.588179006697565"><ele>155.8</ele><time>2026-05-03T18:11:31.999Z</time></trkpt><trkpt lat="42.861352712672904" lon="13.588289372073525"><ele>155.4</ele><time>2026-05-03T18:11:32.999Z</time></trkpt><trkpt lat="42.86138703965296" lon="13.588406478269327"><ele>155.0</ele><time>2026-05-03T18:11:33.999Z</time></trkpt><trkpt lat="42.861419035860074" lon="13.588522427256502"><ele>155.0</ele><time>2026-05-03T18:11:34.999Z</time></trkpt><trkpt lat="42.86144870748041" lon="13.588636519284403"><ele>155.0</ele><time>2026-05-03T18:11:35.999Z</time></trkpt><trkpt lat="42.861465735894804" lon="13.58874883105956"><ele>155.0</ele><time>2026-05-03T18:11:36.999Z</time></trkpt><trkpt lat="42.86150697253608" lon="13.588843720371962"><ele>155.0</ele><time>2026-05-03T18:11:37.999Z</time></trkpt><trkpt lat="42.86152681655165" lon="13.588937580802217"><ele>155.0</ele><time>2026-05-03T18:11:38.999Z</time></trkpt><trkpt lat="42.86153649469735" lon="13.589060527955432"><ele>155.0</ele><time>2026-05-03T18:11:40.999Z</time></trkpt><trkpt lat="42.861373081722405" lon="13.589140058245532"><ele>153.6</ele><time>2026-05-03T18:11:45.999Z</time></trkpt><trkpt lat="42.861307072086085" lon="13.589135603995395"><ele>152.2</ele><time>2026-05-03T18:11:48.999Z</time></trkpt><trkpt lat="42.86123948414977" lon="13.58908955806247"><ele>150.8</ele><time>2026-05-03T18:13:17Z</time></trkpt><trkpt lat="42.861385713645845" lon="13.589012799056448"><ele>149.4</ele><time>2026-05-03T18:19:09Z</time></trkpt><trkpt lat="42.86132214808722" lon="13.589034785155537"><ele>148.0</ele><time>2026-05-03T18:19:16Z</time></trkpt><trkpt lat="42.8612296275748" lon="13.589055936146309"><ele>148.0</ele><time>2026-05-03T18:19:31Z</time></trkpt><trkpt lat="42.86144302497918" lon="13.589182393747762"><ele>148.0</ele><time>2026-05-03T18:21:05.091Z</time></trkpt><trkpt lat="42.861458803730756" lon="13.58901624406345"><ele>148.0</ele><time>2026-05-03T18:21:51.997Z</time></trkpt><trkpt lat="42.861412496520565" lon="13.589176237248461"><ele>148.0</ele><time>2026-05-03T18:22:08Z</time></trkpt><trkpt lat="42.861502768067005" lon="13.58905454339862"><ele>148.0</ele><time>2026-05-03T18:24:06.026Z</time></trkpt></trkseg></trk></gpx>